<?xml version='1.0' encoding='UTF-8'?><gpx version="1.1" creator="JPX - https://github.com/jenetics/jpx" xmlns="http://www.topografix.com/GPX/1/1"><trk><trkseg><trkpt lat="43.4963856" lon="11.8732864"><ele>252.99999999999997</ele><time>2026-04-03T12:28:34.034Z</time></trkpt><trkpt lat="43.496453" lon="11.8732651"><ele>253.0</ele><time>2026-04-03T12:28:35.025Z</time></trkpt><trkpt lat="43.4965214" lon="11.8732513"><ele>253.0</ele><time>2026-04-03T12:28:36.033Z</time></trkpt><trkpt lat="43.496593" lon="11.8732488"><ele>253.0</ele><time>2026-04-03T12:28:37.042Z</time></trkpt><trkpt lat="43.496689" lon="11.8733321"><ele>252.99999999999997</ele><time>2026-04-03T12:28:39.027Z</time></trkpt><trkpt lat="43.496716" lon="11.8734247"><ele>253.0</ele><time>2026-04-03T12:28:40.045Z</time></trkpt><trkpt lat="43.4967247" lon="11.8735513"><ele>252.83333333333331</ele><time>2026-04-03T12:28:41.059Z</time></trkpt><trkpt lat="43.4967052" lon="11.8736894"><ele>252.66666666666666</ele><time>2026-04-03T12:28:42.031Z</time></trkpt><trkpt lat="43.4966678" lon="11.8738042"><ele>252.5</ele><time>2026-04-03T12:28:43.04Z</time></trkpt><trkpt lat="43.4966165" lon="11.8738767"><ele>252.33333333333331</ele><time>2026-04-03T12:28:44.048Z</time></trkpt><trkpt lat="43.4965605" lon="11.8739233"><ele>252.16666666666666</ele><time>2026-04-03T12:28:45.039Z</time></trkpt><trkpt lat="43.4964664" lon="11.8739526"><ele>252.0</ele><time>2026-04-03T12:28:46.05Z</time></trkpt><trkpt lat="43.4963425" lon="11.8739785"><ele>251.66666666666669</ele><time>2026-04-03T12:28:47.032Z</time></trkpt><trkpt lat="43.4962053" lon="11.8740041"><ele>251.33333333333334</ele><time>2026-04-03T12:28:48.059Z</time></trkpt><trkpt lat="43.496055" lon="11.8740314"><ele>251.0</ele><time>2026-04-03T12:28:49.037Z</time></trkpt><trkpt lat="43.4958964" lon="11.874073"><ele>251.0</ele><time>2026-04-03T12:28:50.034Z</time></trkpt><trkpt lat="43.495734" lon="11.874121"><ele>251.0</ele><time>2026-04-03T12:28:51.03Z</time></trkpt><trkpt lat="43.495403" lon="11.8742"><ele>251.0</ele><time>2026-04-03T12:28:53.033Z</time></trkpt><trkpt lat="43.4952361" lon="11.8742354"><ele>251.0</ele><time>2026-04-03T12:28:54.032Z</time></trkpt><trkpt lat="43.4950704" lon="11.8742714"><ele>251.0</ele><time>2026-04-03T12:28:55.046Z</time></trkpt><trkpt lat="43.4949084" lon="11.8743053"><ele>251.0</ele><time>2026-04-03T12:28:56.044Z</time></trkpt><trkpt lat="43.4947479" lon="11.8743414"><ele>251.0</ele><time>2026-04-03T12:28:57.046Z</time></trkpt><trkpt lat="43.4945961" lon="11.8743801"><ele>251.0</ele><time>2026-04-03T12:28:58.032Z</time></trkpt><trkpt lat="43.4944515" lon="11.8744111"><ele>252.0</ele><time>2026-04-03T12:28:59.031Z</time></trkpt><trkpt lat="43.4943263" lon="11.8744363"><ele>253.0</ele><time>2026-04-03T12:29:00.062Z</time></trkpt><trkpt lat="43.494086" lon="11.8744866"><ele>254.0</ele><time>2026-04-03T12:29:02.053Z</time></trkpt><trkpt lat="43.4939803" lon="11.8745077"><ele>254.0</ele><time>2026-04-03T12:29:03.032Z</time></trkpt><trkpt lat="43.4937518" lon="11.874567"><ele>254.0</ele><time>2026-04-03T12:29:05.039Z</time></trkpt><trkpt lat="43.4936366" lon="11.8745924"><ele>254.0</ele><time>2026-04-03T12:29:06.042Z</time></trkpt><trkpt lat="43.4935242" lon="11.874621"><ele>254.0</ele><time>2026-04-03T12:29:07.038Z</time></trkpt><trkpt lat="43.4934106" lon="11.8746491"><ele>254.0</ele><time>2026-04-03T12:29:08.032Z</time></trkpt><trkpt lat="43.4932941" lon="11.874674"><ele>254.0</ele><time>2026-04-03T12:29:09.048Z</time></trkpt><trkpt lat="43.4931707" lon="11.8747049"><ele>254.0</ele><time>2026-04-03T12:29:10.05Z</time></trkpt><trkpt lat="43.4930436" lon="11.8747333"><ele>253.5</ele><time>2026-04-03T12:29:11.044Z</time></trkpt><trkpt lat="43.4929108" lon="11.8747536"><ele>253.0</ele><time>2026-04-03T12:29:12.038Z</time></trkpt><trkpt lat="43.4927805" lon="11.8747743"><ele>252.5</ele><time>2026-04-03T12:29:13.058Z</time></trkpt><trkpt lat="43.4926596" lon="11.8747982"><ele>252.0</ele><time>2026-04-03T12:29:14.067Z</time></trkpt><trkpt lat="43.4925468" lon="11.8748249"><ele>252.0</ele><time>2026-04-03T12:29:15.058Z</time></trkpt><trkpt lat="43.49245" lon="11.8748462"><ele>252.0</ele><time>2026-04-03T12:29:16.045Z</time></trkpt><trkpt lat="43.4923654" lon="11.87487"><ele>252.0</ele><time>2026-04-03T12:29:17.04Z</time></trkpt><trkpt lat="43.4922983" lon="11.8748835"><ele>252.0</ele><time>2026-04-03T12:29:18.043Z</time></trkpt><trkpt lat="43.4922162" lon="11.8748975"><ele>252.0</ele><time>2026-04-03T12:29:20.045Z</time></trkpt><trkpt lat="43.4921502" lon="11.8749163"><ele>252.0</ele><time>2026-04-03T12:29:23.034Z</time></trkpt><trkpt lat="43.492157" lon="11.875018"><ele>252.0</ele><time>2026-04-03T12:29:26.044Z</time></trkpt><trkpt lat="43.4921554" lon="11.8751618"><ele>252.0</ele><time>2026-04-03T12:29:28.029Z</time></trkpt><trkpt lat="43.4921431" lon="11.8752518"><ele>252.0</ele><time>2026-04-03T12:29:29.029Z</time></trkpt><trkpt lat="43.4920982" lon="11.8753684"><ele>252.0</ele><time>2026-04-03T12:29:31.046Z</time></trkpt><trkpt lat="43.4920229" lon="11.8753567"><ele>252.0</ele><time>2026-04-03T12:29:34.045Z</time></trkpt><trkpt lat="43.4920576" lon="11.8752734"><ele>252.0</ele><time>2026-04-03T12:34:33.432Z</time></trkpt><trkpt lat="43.4921063" lon="11.875173"><ele>252.0</ele><time>2026-04-03T12:40:39.038Z</time></trkpt><trkpt lat="43.4921647" lon="11.8750928"><ele>252.0</ele><time>2026-04-03T12:40:41.058Z</time></trkpt><trkpt lat="43.4922168" lon="11.8750115"><ele>252.0</ele><time>2026-04-03T12:40:44.06Z</time></trkpt><trkpt lat="43.4922866" lon="11.8749767"><ele>252.0</ele><time>2026-04-03T12:40:49.055Z</time></trkpt><trkpt lat="43.4923724" lon="11.8749456"><ele>252.0</ele><time>2026-04-03T12:40:51.053Z</time></trkpt><trkpt lat="43.4924449" lon="11.8749191"><ele>252.0</ele><time>2026-04-03T12:40:52.057Z</time></trkpt><trkpt lat="43.4925224" lon="11.8748954"><ele>252.0</ele><time>2026-04-03T12:40:53.07Z</time></trkpt><trkpt lat="43.4926129" lon="11.8748695"><ele>252.0</ele><time>2026-04-03T12:40:54.044Z</time></trkpt><trkpt lat="43.4927132" lon="11.8748425"><ele>252.0</ele><time>2026-04-03T12:40:55.05Z</time></trkpt><trkpt lat="43.4928185" lon="11.8748154"><ele>252.0</ele><time>2026-04-03T12:40:56.051Z</time></trkpt><trkpt lat="43.492926" lon="11.8747861"><ele>252.0</ele><time>2026-04-03T12:40:57.062Z</time></trkpt><trkpt lat="43.4930374" lon="11.8747592"><ele>252.39999999999998</ele><time>2026-04-03T12:40:58.048Z</time></trkpt><trkpt lat="43.4931475" lon="11.8747366"><ele>252.79999999999998</ele><time>2026-04-03T12:40:59.034Z</time></trkpt><trkpt lat="43.4932535" lon="11.8747108"><ele>253.2</ele><time>2026-04-03T12:41:00.056Z</time></trkpt><trkpt lat="43.4933571" lon="11.8746866"><ele>253.6</ele><time>2026-04-03T12:41:01.048Z</time></trkpt><trkpt lat="43.49346" lon="11.8746608"><ele>254.0</ele><time>2026-04-03T12:41:02.051Z</time></trkpt><trkpt lat="43.4935627" lon="11.8746364"><ele>254.0</ele><time>2026-04-03T12:41:03.046Z</time></trkpt><trkpt lat="43.4936648" lon="11.8746121"><ele>253.99999999999997</ele><time>2026-04-03T12:41:04.046Z</time></trkpt><trkpt lat="43.4937663" lon="11.8745892"><ele>253.99999999999997</ele><time>2026-04-03T12:41:05.041Z</time></trkpt><trkpt lat="43.4938671" lon="11.8745657"><ele>254.0</ele><time>2026-04-03T12:41:06.062Z</time></trkpt><trkpt lat="43.4939691" lon="11.8745409"><ele>254.0</ele><time>2026-04-03T12:41:07.049Z</time></trkpt><trkpt lat="43.4940706" lon="11.8745155"><ele>254.00000000000003</ele><time>2026-04-03T12:41:08.058Z</time></trkpt><trkpt lat="43.4941698" lon="11.8744933"><ele>254.0</ele><time>2026-04-03T12:41:09.047Z</time></trkpt><trkpt lat="43.4942664" lon="11.8744691"><ele>254.0</ele><time>2026-04-03T12:41:10.059Z</time></trkpt><trkpt lat="43.4943522" lon="11.8744445"><ele>254.0</ele><time>2026-04-03T12:41:11.037Z</time></trkpt><trkpt lat="43.4944231" lon="11.8744171"><ele>254.00000000000003</ele><time>2026-04-03T12:41:12.06Z</time></trkpt><trkpt lat="43.4944796" lon="11.874367"><ele>254.0</ele><time>2026-04-03T12:41:13.058Z</time></trkpt><trkpt lat="43.4945011" lon="11.8742786"><ele>253.66666666666669</ele><time>2026-04-03T12:41:14.053Z</time></trkpt><trkpt lat="43.4944904" lon="11.8741848"><ele>253.33333333333334</ele><time>2026-04-03T12:41:15.05Z</time></trkpt><trkpt lat="43.4944354" lon="11.8741122"><ele>253.0</ele><time>2026-04-03T12:41:16.041Z</time></trkpt><trkpt lat="43.4944111" lon="11.8739977"><ele>252.66666666666669</ele><time>2026-04-03T12:41:17.049Z</time></trkpt><trkpt lat="43.4943936" lon="11.8738761"><ele>252.33333333333334</ele><time>2026-04-03T12:41:18.053Z</time></trkpt><trkpt lat="43.4943787" lon="11.8737517"><ele>252.0</ele><time>2026-04-03T12:41:19.05Z</time></trkpt><trkpt lat="43.4943636" lon="11.8736287"><ele>252.0</ele><time>2026-04-03T12:41:20.057Z</time></trkpt><trkpt lat="43.4943479" lon="11.8735024"><ele>252.0</ele><time>2026-04-03T12:41:21.057Z</time></trkpt><trkpt lat="43.494331" lon="11.873379"><ele>252.0</ele><time>2026-04-03T12:41:22.049Z</time></trkpt><trkpt lat="43.4943085" lon="11.8732627"><ele>252.0</ele><time>2026-04-03T12:41:23.053Z</time></trkpt><trkpt lat="43.4942862" lon="11.873158"><ele>252.0</ele><time>2026-04-03T12:41:24.062Z</time></trkpt><trkpt lat="43.4942747" lon="11.8730657"><ele>252.0</ele><time>2026-04-03T12:41:25.055Z</time></trkpt><trkpt lat="43.4942583" lon="11.8729387"><ele>252.0</ele><time>2026-04-03T12:41:27.055Z</time></trkpt><trkpt lat="43.4942432" lon="11.8728178"><ele>252.0</ele><time>2026-04-03T12:41:30.063Z</time></trkpt><trkpt lat="43.4942363" lon="11.8727254"><ele>252.0</ele><time>2026-04-03T12:41:32.044Z</time></trkpt><trkpt lat="43.4942212" lon="11.8726141"><ele>252.0</ele><time>2026-04-03T12:41:34.06Z</time></trkpt><trkpt lat="43.4941975" lon="11.8724822"><ele>252.0</ele><time>2026-04-03T12:41:36.067Z</time></trkpt><trkpt lat="43.4941806" lon="11.8723973"><ele>252.0</ele><time>2026-04-03T12:41:37.044Z</time></trkpt><trkpt lat="43.4941608" lon="11.872306"><ele>251.83333333333334</ele><time>2026-04-03T12:41:38.054Z</time></trkpt><trkpt lat="43.49414" lon="11.8722054"><ele>251.66666666666669</ele><time>2026-04-03T12:41:39.05Z</time></trkpt><trkpt lat="43.4941155" lon="11.8720929"><ele>251.5</ele><time>2026-04-03T12:41:40.053Z</time></trkpt><trkpt lat="43.4940905" lon="11.8719706"><ele>251.33333333333334</ele><time>2026-04-03T12:41:41.053Z</time></trkpt><trkpt lat="43.494062" lon="11.8718479"><ele>251.16666666666669</ele><time>2026-04-03T12:41:42.058Z</time></trkpt><trkpt lat="43.4940339" lon="11.8717219"><ele>251.0</ele><time>2026-04-03T12:41:43.045Z</time></trkpt><trkpt lat="43.4940082" lon="11.8715955"><ele>251.0</ele><time>2026-04-03T12:41:44.052Z</time></trkpt><trkpt lat="43.4939843" lon="11.8714665"><ele>251.00000000000003</ele><time>2026-04-03T12:41:45.061Z</time></trkpt><trkpt lat="43.4939643" lon="11.871332"><ele>251.00000000000003</ele><time>2026-04-03T12:41:46.048Z</time></trkpt><trkpt lat="43.4939498" lon="11.871194"><ele>251.0</ele><time>2026-04-03T12:41:47.055Z</time></trkpt><trkpt lat="43.4939416" lon="11.8710439"><ele>251.0</ele><time>2026-04-03T12:41:48.053Z</time></trkpt><trkpt lat="43.4939347" lon="11.8708829"><ele>251.5</ele><time>2026-04-03T12:41:49.05Z</time></trkpt><trkpt lat="43.4939318" lon="11.8707223"><ele>252.0</ele><time>2026-04-03T12:41:50.053Z</time></trkpt><trkpt lat="43.4939319" lon="11.870557"><ele>252.5</ele><time>2026-04-03T12:41:51.046Z</time></trkpt><trkpt lat="43.4939357" lon="11.8703865"><ele>253.0</ele><time>2026-04-03T12:41:52.059Z</time></trkpt><trkpt lat="43.4939406" lon="11.8702265"><ele>252.83333333333331</ele><time>2026-04-03T12:41:53.058Z</time></trkpt><trkpt lat="43.4939511" lon="11.8700861"><ele>252.66666666666666</ele><time>2026-04-03T12:41:54.058Z</time></trkpt><trkpt lat="43.4939624" lon="11.8699747"><ele>252.5</ele><time>2026-04-03T12:41:55.048Z</time></trkpt><trkpt lat="43.4939745" lon="11.86988"><ele>252.33333333333331</ele><time>2026-04-03T12:41:56.061Z</time></trkpt><trkpt lat="43.4939854" lon="11.869782"><ele>252.16666666666666</ele><time>2026-04-03T12:41:57.055Z</time></trkpt><trkpt lat="43.4940008" lon="11.8696836"><ele>252.0</ele><time>2026-04-03T12:41:58.063Z</time></trkpt><trkpt lat="43.4940173" lon="11.8695833"><ele>252.0</ele><time>2026-04-03T12:41:59.055Z</time></trkpt><trkpt lat="43.4940359" lon="11.86948"><ele>252.0</ele><time>2026-04-03T12:42:00.067Z</time></trkpt><trkpt lat="43.4940579" lon="11.8693732"><ele>252.0</ele><time>2026-04-03T12:42:01.057Z</time></trkpt><trkpt lat="43.4940874" lon="11.8692691"><ele>252.0</ele><time>2026-04-03T12:42:02.055Z</time></trkpt><trkpt lat="43.4941181" lon="11.8691535"><ele>252.0</ele><time>2026-04-03T12:42:03.051Z</time></trkpt><trkpt lat="43.4941568" lon="11.8690346"><ele>252.0</ele><time>2026-04-03T12:42:04.058Z</time></trkpt><trkpt lat="43.4942071" lon="11.8689158"><ele>252.39999999999998</ele><time>2026-04-03T12:42:05.049Z</time></trkpt><trkpt lat="43.4942678" lon="11.8688031"><ele>252.79999999999998</ele><time>2026-04-03T12:42:06.062Z</time></trkpt><trkpt lat="43.4943353" lon="11.8687031"><ele>253.2</ele><time>2026-04-03T12:42:07.058Z</time></trkpt><trkpt lat="43.4944082" lon="11.8686119"><ele>253.6</ele><time>2026-04-03T12:42:08.054Z</time></trkpt><trkpt lat="43.4944832" lon="11.8685285"><ele>254.0</ele><time>2026-04-03T12:42:09.072Z</time></trkpt><trkpt lat="43.4945603" lon="11.8684533"><ele>255.0</ele><time>2026-04-03T12:42:10.057Z</time></trkpt><trkpt lat="43.4946369" lon="11.8683887"><ele>255.99999999999997</ele><time>2026-04-03T12:42:11.058Z</time></trkpt><trkpt lat="43.4947134" lon="11.8683193"><ele>257.0</ele><time>2026-04-03T12:42:12.064Z</time></trkpt><trkpt lat="43.494786" lon="11.8682485"><ele>258.0</ele><time>2026-04-03T12:42:13.057Z</time></trkpt><trkpt lat="43.494856" lon="11.8681678"><ele>259.0</ele><time>2026-04-03T12:42:14.063Z</time></trkpt><trkpt lat="43.4949216" lon="11.8680763"><ele>259.0</ele><time>2026-04-03T12:42:15.06Z</time></trkpt><trkpt lat="43.4949847" lon="11.8679816"><ele>259.0</ele><time>2026-04-03T12:42:16.056Z</time></trkpt><trkpt lat="43.4950453" lon="11.867884"><ele>259.0</ele><time>2026-04-03T12:42:17.054Z</time></trkpt><trkpt lat="43.4951046" lon="11.8677939"><ele>259.0</ele><time>2026-04-03T12:42:18.049Z</time></trkpt><trkpt lat="43.4951624" lon="11.8677148"><ele>259.0</ele><time>2026-04-03T12:42:19.044Z</time></trkpt><trkpt lat="43.4952259" lon="11.8676491"><ele>259.0</ele><time>2026-04-03T12:42:20.052Z</time></trkpt><trkpt lat="43.4952899" lon="11.8675925"><ele>259.8333333333333</ele><time>2026-04-03T12:42:21.057Z</time></trkpt><trkpt lat="43.4953499" lon="11.8675235"><ele>260.66666666666663</ele><time>2026-04-03T12:42:22.06Z</time></trkpt><trkpt lat="43.495394" lon="11.8674303"><ele>261.5</ele><time>2026-04-03T12:42:23.062Z</time></trkpt><trkpt lat="43.4954188" lon="11.8673249"><ele>262.3333333333333</ele><time>2026-04-03T12:42:24.055Z</time></trkpt><trkpt lat="43.4954254" lon="11.8672067"><ele>263.1666666666667</ele><time>2026-04-03T12:42:25.06Z</time></trkpt><trkpt lat="43.4954285" lon="11.8670887"><ele>264.0</ele><time>2026-04-03T12:42:26.057Z</time></trkpt><trkpt lat="43.4954362" lon="11.8669746"><ele>264.0</ele><time>2026-04-03T12:42:27.054Z</time></trkpt><trkpt lat="43.4954458" lon="11.8668642"><ele>264.0</ele><time>2026-04-03T12:42:28.062Z</time></trkpt><trkpt lat="43.4954549" lon="11.8667444"><ele>264.0</ele><time>2026-04-03T12:42:29.048Z</time></trkpt><trkpt lat="43.4954638" lon="11.8666231"><ele>264.0</ele><time>2026-04-03T12:42:30.051Z</time></trkpt><trkpt lat="43.4954769" lon="11.8664999"><ele>264.0</ele><time>2026-04-03T12:42:31.051Z</time></trkpt><trkpt lat="43.4954917" lon="11.8663707"><ele>264.0</ele><time>2026-04-03T12:42:32.054Z</time></trkpt><trkpt lat="43.4955105" lon="11.8662372"><ele>265.0</ele><time>2026-04-03T12:42:33.047Z</time></trkpt><trkpt lat="43.4955332" lon="11.8660978"><ele>266.0</ele><time>2026-04-03T12:42:34.052Z</time></trkpt><trkpt lat="43.4955517" lon="11.8659584"><ele>267.0</ele><time>2026-04-03T12:42:35.056Z</time></trkpt><trkpt lat="43.4955707" lon="11.8658224"><ele>268.0</ele><time>2026-04-03T12:42:36.059Z</time></trkpt><trkpt lat="43.4955888" lon="11.8656968"><ele>269.0</ele><time>2026-04-03T12:42:37.056Z</time></trkpt><trkpt lat="43.4956032" lon="11.8655783"><ele>269.83333333333337</ele><time>2026-04-03T12:42:38.043Z</time></trkpt><trkpt lat="43.495626" lon="11.8654695"><ele>270.6666666666667</ele><time>2026-04-03T12:42:39.06Z</time></trkpt><trkpt lat="43.4956681" lon="11.8653692"><ele>271.5</ele><time>2026-04-03T12:42:40.057Z</time></trkpt><trkpt lat="43.4957277" lon="11.8652913"><ele>272.3333333333333</ele><time>2026-04-03T12:42:41.05Z</time></trkpt><trkpt lat="43.4958003" lon="11.8652193"><ele>273.16666666666663</ele><time>2026-04-03T12:42:42.049Z</time></trkpt><trkpt lat="43.4958815" lon="11.8651456"><ele>274.0</ele><time>2026-04-03T12:42:43.066Z</time></trkpt><trkpt lat="43.4959718" lon="11.8650691"><ele>275.0</ele><time>2026-04-03T12:42:44.063Z</time></trkpt><trkpt lat="43.4960637" lon="11.8649897"><ele>276.0</ele><time>2026-04-03T12:42:45.058Z</time></trkpt><trkpt lat="43.4961587" lon="11.8649159"><ele>277.0</ele><time>2026-04-03T12:42:46.058Z</time></trkpt><trkpt lat="43.4962497" lon="11.8648439"><ele>278.0</ele><time>2026-04-03T12:42:47.072Z</time></trkpt><trkpt lat="43.496337" lon="11.8647705"><ele>279.0</ele><time>2026-04-03T12:42:48.057Z</time></trkpt><trkpt lat="43.4964249" lon="11.8646999"><ele>279.0</ele><time>2026-04-03T12:42:49.041Z</time></trkpt><trkpt lat="43.4965186" lon="11.8646284"><ele>279.0</ele><time>2026-04-03T12:42:50.043Z</time></trkpt><trkpt lat="43.4966128" lon="11.8645559"><ele>279.0</ele><time>2026-04-03T12:42:51.049Z</time></trkpt><trkpt lat="43.4967011" lon="11.86449"><ele>279.0</ele><time>2026-04-03T12:42:52.068Z</time></trkpt><trkpt lat="43.4967747" lon="11.8644298"><ele>279.0</ele><time>2026-04-03T12:42:53.062Z</time></trkpt><trkpt lat="43.4968388" lon="11.8643705"><ele>279.0</ele><time>2026-04-03T12:42:54.054Z</time></trkpt><trkpt lat="43.4969118" lon="11.8643136"><ele>279.0</ele><time>2026-04-03T12:42:55.061Z</time></trkpt><trkpt lat="43.4969847" lon="11.8642575"><ele>279.0</ele><time>2026-04-03T12:42:56.065Z</time></trkpt><trkpt lat="43.4970597" lon="11.8642031"><ele>279.0</ele><time>2026-04-03T12:42:57.049Z</time></trkpt><trkpt lat="43.4971356" lon="11.8641441"><ele>279.0</ele><time>2026-04-03T12:42:58.058Z</time></trkpt><trkpt lat="43.4972197" lon="11.8640756"><ele>279.0</ele><time>2026-04-03T12:42:59.049Z</time></trkpt><trkpt lat="43.4973105" lon="11.8640058"><ele>278.25</ele><time>2026-04-03T12:43:00.074Z</time></trkpt><trkpt lat="43.4974128" lon="11.8639338"><ele>277.5</ele><time>2026-04-03T12:43:01.056Z</time></trkpt><trkpt lat="43.4975191" lon="11.8638584"><ele>276.75</ele><time>2026-04-03T12:43:02.056Z</time></trkpt><trkpt lat="43.4976226" lon="11.8637794"><ele>276.0</ele><time>2026-04-03T12:43:03.048Z</time></trkpt><trkpt lat="43.4977266" lon="11.8637006"><ele>276.0</ele><time>2026-04-03T12:43:04.053Z</time></trkpt><trkpt lat="43.497824" lon="11.8636122"><ele>276.0</ele><time>2026-04-03T12:43:05.047Z</time></trkpt><trkpt lat="43.497914" lon="11.8635192"><ele>276.0</ele><time>2026-04-03T12:43:06.056Z</time></trkpt><trkpt lat="43.4979888" lon="11.8634099"><ele>276.0</ele><time>2026-04-03T12:43:07.052Z</time></trkpt><trkpt lat="43.4980519" lon="11.8632907"><ele>276.0</ele><time>2026-04-03T12:43:08.044Z</time></trkpt><trkpt lat="43.4981119" lon="11.8631699"><ele>275.6</ele><time>2026-04-03T12:43:09.047Z</time></trkpt><trkpt lat="43.4981754" lon="11.8630526"><ele>275.20000000000005</ele><time>2026-04-03T12:43:10.057Z</time></trkpt><trkpt lat="43.498247" lon="11.8629464"><ele>274.79999999999995</ele><time>2026-04-03T12:43:11.056Z</time></trkpt><trkpt lat="43.4983238" lon="11.8628495"><ele>274.4</ele><time>2026-04-03T12:43:12.059Z</time></trkpt><trkpt lat="43.4984082" lon="11.8627672"><ele>274.0</ele><time>2026-04-03T12:43:13.049Z</time></trkpt><trkpt lat="43.4984826" lon="11.8626889"><ele>274.0</ele><time>2026-04-03T12:43:14.064Z</time></trkpt><trkpt lat="43.4985368" lon="11.8626051"><ele>274.0</ele><time>2026-04-03T12:43:15.052Z</time></trkpt><trkpt lat="43.4985669" lon="11.8625155"><ele>274.0</ele><time>2026-04-03T12:43:16.061Z</time></trkpt><trkpt lat="43.4985613" lon="11.8624124"><ele>274.0</ele><time>2026-04-03T12:43:17.045Z</time></trkpt><trkpt lat="43.498529" lon="11.8623105"><ele>274.0</ele><time>2026-04-03T12:43:18.063Z</time></trkpt><trkpt lat="43.4984797" lon="11.8621982"><ele>274.0</ele><time>2026-04-03T12:43:19.052Z</time></trkpt><trkpt lat="43.4984218" lon="11.8620789"><ele>274.0</ele><time>2026-04-03T12:43:20.059Z</time></trkpt><trkpt lat="43.4983605" lon="11.8619488"><ele>274.0</ele><time>2026-04-03T12:43:21.06Z</time></trkpt><trkpt lat="43.4983056" lon="11.8618146"><ele>274.0</ele><time>2026-04-03T12:43:22.061Z</time></trkpt><trkpt lat="43.4982482" lon="11.8616751"><ele>274.0</ele><time>2026-04-03T12:43:23.054Z</time></trkpt><trkpt lat="43.4981898" lon="11.8615284"><ele>273.5</ele><time>2026-04-03T12:43:24.054Z</time></trkpt><trkpt lat="43.4981295" lon="11.8613829"><ele>273.0</ele><time>2026-04-03T12:43:25.067Z</time></trkpt><trkpt lat="43.4980701" lon="11.8612324"><ele>272.5</ele><time>2026-04-03T12:43:26.053Z</time></trkpt><trkpt lat="43.4980068" lon="11.8610759"><ele>272.0</ele><time>2026-04-03T12:43:27.053Z</time></trkpt><trkpt lat="43.4979434" lon="11.8609196"><ele>270.25</ele><time>2026-04-03T12:43:28.059Z</time></trkpt><trkpt lat="43.4978781" lon="11.8607625"><ele>268.5</ele><time>2026-04-03T12:43:29.05Z</time></trkpt><trkpt lat="43.4978135" lon="11.8606046"><ele>266.75</ele><time>2026-04-03T12:43:30.056Z</time></trkpt><trkpt lat="43.4977466" lon="11.8604459"><ele>265.0</ele><time>2026-04-03T12:43:31.058Z</time></trkpt><trkpt lat="43.4976813" lon="11.8602736"><ele>264.5</ele><time>2026-04-03T12:43:32.059Z</time></trkpt><trkpt lat="43.4976129" lon="11.860105"><ele>264.0</ele><time>2026-04-03T12:43:33.054Z</time></trkpt><trkpt lat="43.4975436" lon="11.8599401"><ele>263.5</ele><time>2026-04-03T12:43:34.049Z</time></trkpt><trkpt lat="43.4974741" lon="11.8597766"><ele>263.0</ele><time>2026-04-03T12:43:35.057Z</time></trkpt><trkpt lat="43.4974057" lon="11.8596128"><ele>263.0</ele><time>2026-04-03T12:43:36.055Z</time></trkpt><trkpt lat="43.4973367" lon="11.8594502"><ele>263.0</ele><time>2026-04-03T12:43:37.051Z</time></trkpt><trkpt lat="43.4972694" lon="11.8592891"><ele>263.0</ele><time>2026-04-03T12:43:38.059Z</time></trkpt><trkpt lat="43.497204" lon="11.859137"><ele>263.0</ele><time>2026-04-03T12:43:39.057Z</time></trkpt><trkpt lat="43.4971403" lon="11.858997"><ele>261.6</ele><time>2026-04-03T12:43:40.06Z</time></trkpt><trkpt lat="43.4970793" lon="11.8588636"><ele>260.20000000000005</ele><time>2026-04-03T12:43:41.044Z</time></trkpt><trkpt lat="43.4970217" lon="11.8587347"><ele>258.8</ele><time>2026-04-03T12:43:42.034Z</time></trkpt><trkpt lat="43.4969673" lon="11.8586133"><ele>257.40000000000003</ele><time>2026-04-03T12:43:43.043Z</time></trkpt><trkpt lat="43.4969189" lon="11.8584918"><ele>256.0</ele><time>2026-04-03T12:43:44.065Z</time></trkpt><trkpt lat="43.4968671" lon="11.8583785"><ele>255.66666666666666</ele><time>2026-04-03T12:43:45.048Z</time></trkpt><trkpt lat="43.4968211" lon="11.8582764"><ele>255.33333333333331</ele><time>2026-04-03T12:43:46.046Z</time></trkpt><trkpt lat="43.4967862" lon="11.8581708"><ele>255.0</ele><time>2026-04-03T12:43:47.048Z</time></trkpt><trkpt lat="43.4967729" lon="11.8580559"><ele>254.66666666666669</ele><time>2026-04-03T12:43:48.053Z</time></trkpt><trkpt lat="43.4967966" lon="11.8579337"><ele>254.33333333333334</ele><time>2026-04-03T12:43:49.049Z</time></trkpt><trkpt lat="43.4968441" lon="11.8578198"><ele>254.0</ele><time>2026-04-03T12:43:50.059Z</time></trkpt><trkpt lat="43.4969189" lon="11.8577419"><ele>254.00000000000003</ele><time>2026-04-03T12:43:51.054Z</time></trkpt><trkpt lat="43.4970013" lon="11.8577029"><ele>254.0</ele><time>2026-04-03T12:43:52.057Z</time></trkpt><trkpt lat="43.4970706" lon="11.8576562"><ele>254.0</ele><time>2026-04-03T12:43:53.048Z</time></trkpt><trkpt lat="43.4971551" lon="11.8576033"><ele>254.0</ele><time>2026-04-03T12:43:54.071Z</time></trkpt><trkpt lat="43.497239" lon="11.8575499"><ele>254.00000000000003</ele><time>2026-04-03T12:43:55.07Z</time></trkpt><trkpt lat="43.4973219" lon="11.8574922"><ele>254.0</ele><time>2026-04-03T12:43:56.061Z</time></trkpt><trkpt lat="43.497402" lon="11.8574369"><ele>254.39999999999998</ele><time>2026-04-03T12:43:57.049Z</time></trkpt><trkpt lat="43.497493" lon="11.8573845"><ele>254.79999999999998</ele><time>2026-04-03T12:43:58.078Z</time></trkpt><trkpt lat="43.4975921" lon="11.8573307"><ele>255.20000000000002</ele><time>2026-04-03T12:43:59.063Z</time></trkpt><trkpt lat="43.497692" lon="11.8572783"><ele>255.60000000000002</ele><time>2026-04-03T12:44:00.06Z</time></trkpt><trkpt lat="43.4977969" lon="11.8572278"><ele>256.0</ele><time>2026-04-03T12:44:01.055Z</time></trkpt><trkpt lat="43.4978943" lon="11.8571689"><ele>255.8</ele><time>2026-04-03T12:44:02.059Z</time></trkpt><trkpt lat="43.4979899" lon="11.8571018"><ele>255.60000000000002</ele><time>2026-04-03T12:44:03.06Z</time></trkpt><trkpt lat="43.4980781" lon="11.857023"><ele>255.4</ele><time>2026-04-03T12:44:04.066Z</time></trkpt><trkpt lat="43.4981624" lon="11.8569339"><ele>255.2</ele><time>2026-04-03T12:44:05.055Z</time></trkpt><trkpt lat="43.4982409" lon="11.8568417"><ele>255.0</ele><time>2026-04-03T12:44:06.057Z</time></trkpt><trkpt lat="43.49832" lon="11.8567461"><ele>255.0</ele><time>2026-04-03T12:44:07.045Z</time></trkpt><trkpt lat="43.4983977" lon="11.8566475"><ele>255.0</ele><time>2026-04-03T12:44:08.055Z</time></trkpt><trkpt lat="43.4984749" lon="11.8565443"><ele>255.0</ele><time>2026-04-03T12:44:09.059Z</time></trkpt><trkpt lat="43.498552" lon="11.856434"><ele>255.0</ele><time>2026-04-03T12:44:10.065Z</time></trkpt><trkpt lat="43.4986302" lon="11.8563214"><ele>255.0</ele><time>2026-04-03T12:44:11.051Z</time></trkpt><trkpt lat="43.498711" lon="11.8562025"><ele>255.5</ele><time>2026-04-03T12:44:12.065Z</time></trkpt><trkpt lat="43.4987907" lon="11.8560781"><ele>256.0</ele><time>2026-04-03T12:44:13.051Z</time></trkpt><trkpt lat="43.498868" lon="11.8559556"><ele>256.5</ele><time>2026-04-03T12:44:14.059Z</time></trkpt><trkpt lat="43.4989418" lon="11.8558323"><ele>257.0</ele><time>2026-04-03T12:44:15.058Z</time></trkpt><trkpt lat="43.499015" lon="11.8557119"><ele>257.0</ele><time>2026-04-03T12:44:16.058Z</time></trkpt><trkpt lat="43.4990819" lon="11.8556047"><ele>257.0</ele><time>2026-04-03T12:44:17.055Z</time></trkpt><trkpt lat="43.4991453" lon="11.8555136"><ele>257.0</ele><time>2026-04-03T12:44:18.051Z</time></trkpt><trkpt lat="43.4991975" lon="11.855433"><ele>257.0</ele><time>2026-04-03T12:44:19.062Z</time></trkpt><trkpt lat="43.4992406" lon="11.8553649"><ele>257.0</ele><time>2026-04-03T12:44:20.057Z</time></trkpt><trkpt lat="43.4993154" lon="11.8552442"><ele>257.0</ele><time>2026-04-03T12:44:22.053Z</time></trkpt><trkpt lat="43.4993673" lon="11.8551689"><ele>257.0</ele><time>2026-04-03T12:44:23.051Z</time></trkpt><trkpt lat="43.4994288" lon="11.8550796"><ele>257.0</ele><time>2026-04-03T12:44:24.066Z</time></trkpt><trkpt lat="43.4994927" lon="11.8549847"><ele>257.0</ele><time>2026-04-03T12:44:25.052Z</time></trkpt><trkpt lat="43.499557" lon="11.8548814"><ele>257.0</ele><time>2026-04-03T12:44:26.049Z</time></trkpt><trkpt lat="43.4996246" lon="11.8547676"><ele>257.0</ele><time>2026-04-03T12:44:27.056Z</time></trkpt><trkpt lat="43.4996969" lon="11.8546515"><ele>257.0</ele><time>2026-04-03T12:44:28.057Z</time></trkpt><trkpt lat="43.4997729" lon="11.8545298"><ele>257.0</ele><time>2026-04-03T12:44:29.064Z</time></trkpt><trkpt lat="43.499849" lon="11.8544093"><ele>257.0</ele><time>2026-04-03T12:44:30.061Z</time></trkpt><trkpt lat="43.4999218" lon="11.8542839"><ele>257.0</ele><time>2026-04-03T12:44:31.055Z</time></trkpt><trkpt lat="43.4999922" lon="11.8541648"><ele>257.0</ele><time>2026-04-03T12:44:32.061Z</time></trkpt><trkpt lat="43.5000601" lon="11.8540516"><ele>257.0</ele><time>2026-04-03T12:44:33.06Z</time></trkpt><trkpt lat="43.5001242" lon="11.8539409"><ele>257.0</ele><time>2026-04-03T12:44:34.057Z</time></trkpt><trkpt lat="43.5001899" lon="11.8538331"><ele>257.0</ele><time>2026-04-03T12:44:35.054Z</time></trkpt><trkpt lat="43.500257" lon="11.8537285"><ele>257.0</ele><time>2026-04-03T12:44:36.04Z</time></trkpt><trkpt lat="43.5003291" lon="11.8536314"><ele>257.0</ele><time>2026-04-03T12:44:37.046Z</time></trkpt><trkpt lat="43.5004032" lon="11.853541"><ele>257.0</ele><time>2026-04-03T12:44:38.046Z</time></trkpt><trkpt lat="43.5004785" lon="11.8534476"><ele>257.0</ele><time>2026-04-03T12:44:39.061Z</time></trkpt><trkpt lat="43.5005479" lon="11.8533773"><ele>257.0</ele><time>2026-04-03T12:44:40.061Z</time></trkpt><trkpt lat="43.5006189" lon="11.8533363"><ele>256.6</ele><time>2026-04-03T12:44:41.05Z</time></trkpt><trkpt lat="43.500701" lon="11.8533129"><ele>256.2</ele><time>2026-04-03T12:44:42.052Z</time></trkpt><trkpt lat="43.5008002" lon="11.8532956"><ele>255.8</ele><time>2026-04-03T12:44:43.053Z</time></trkpt><trkpt lat="43.5009119" lon="11.8532756"><ele>255.4</ele><time>2026-04-03T12:44:44.066Z</time></trkpt><trkpt lat="43.5010302" lon="11.8532413"><ele>255.0</ele><time>2026-04-03T12:44:45.069Z</time></trkpt><trkpt lat="43.5011535" lon="11.8532027"><ele>254.75</ele><time>2026-04-03T12:44:46.062Z</time></trkpt><trkpt lat="43.5012831" lon="11.8531593"><ele>254.5</ele><time>2026-04-03T12:44:47.062Z</time></trkpt><trkpt lat="43.5014178" lon="11.8531167"><ele>254.25</ele><time>2026-04-03T12:44:48.066Z</time></trkpt><trkpt lat="43.5015542" lon="11.8530685"><ele>254.0</ele><time>2026-04-03T12:44:49.06Z</time></trkpt><trkpt lat="43.5016972" lon="11.8530136"><ele>254.0</ele><time>2026-04-03T12:44:50.072Z</time></trkpt><trkpt lat="43.5018424" lon="11.8529524"><ele>254.0</ele><time>2026-04-03T12:44:51.061Z</time></trkpt><trkpt lat="43.5019874" lon="11.8528848"><ele>254.0</ele><time>2026-04-03T12:44:52.062Z</time></trkpt><trkpt lat="43.5021316" lon="11.8528176"><ele>254.0</ele><time>2026-04-03T12:44:53.046Z</time></trkpt><trkpt lat="43.5022731" lon="11.8527599"><ele>254.0</ele><time>2026-04-03T12:44:54.063Z</time></trkpt><trkpt lat="43.5024147" lon="11.8527128"><ele>254.0</ele><time>2026-04-03T12:44:55.052Z</time></trkpt><trkpt lat="43.5025608" lon="11.8526756"><ele>254.0</ele><time>2026-04-03T12:44:56.06Z</time></trkpt><trkpt lat="43.5027087" lon="11.8526358"><ele>254.0</ele><time>2026-04-03T12:44:57.056Z</time></trkpt><trkpt lat="43.5028547" lon="11.8525702"><ele>254.0</ele><time>2026-04-03T12:44:58.065Z</time></trkpt><trkpt lat="43.5029926" lon="11.8524595"><ele>254.0</ele><time>2026-04-03T12:44:59.058Z</time></trkpt><trkpt lat="43.503119" lon="11.8523125"><ele>254.0</ele><time>2026-04-03T12:45:00.056Z</time></trkpt><trkpt lat="43.5032412" lon="11.8521479"><ele>254.0</ele><time>2026-04-03T12:45:01.069Z</time></trkpt><trkpt lat="43.5033626" lon="11.8519869"><ele>254.0</ele><time>2026-04-03T12:45:02.061Z</time></trkpt><trkpt lat="43.5034913" lon="11.8518347"><ele>253.66666666666669</ele><time>2026-04-03T12:45:03.05Z</time></trkpt><trkpt lat="43.503632" lon="11.8516926"><ele>253.33333333333331</ele><time>2026-04-03T12:45:04.07Z</time></trkpt><trkpt lat="43.5037858" lon="11.8515769"><ele>253.0</ele><time>2026-04-03T12:45:05.067Z</time></trkpt><trkpt lat="43.5039514" lon="11.8514923"><ele>253.66666666666666</ele><time>2026-04-03T12:45:06.075Z</time></trkpt><trkpt lat="43.504122" lon="11.8514055"><ele>254.33333333333331</ele><time>2026-04-03T12:45:07.058Z</time></trkpt><trkpt lat="43.5042839" lon="11.851315"><ele>255.0</ele><time>2026-04-03T12:45:08.066Z</time></trkpt><trkpt lat="43.5044433" lon="11.8512212"><ele>256.3333333333333</ele><time>2026-04-03T12:45:09.05Z</time></trkpt><trkpt lat="43.5046005" lon="11.8511348"><ele>257.66666666666663</ele><time>2026-04-03T12:45:10.066Z</time></trkpt><trkpt lat="43.5047579" lon="11.8510726"><ele>259.0</ele><time>2026-04-03T12:45:11.05Z</time></trkpt><trkpt lat="43.5049197" lon="11.8510496"><ele>259.0</ele><time>2026-04-03T12:45:12.058Z</time></trkpt><trkpt lat="43.5050766" lon="11.8510446"><ele>259.0</ele><time>2026-04-03T12:45:13.048Z</time></trkpt><trkpt lat="43.5052275" lon="11.8510134"><ele>259.0</ele><time>2026-04-03T12:45:14.067Z</time></trkpt><trkpt lat="43.5053764" lon="11.8509285"><ele>258.66666666666663</ele><time>2026-04-03T12:45:15.051Z</time></trkpt><trkpt lat="43.5055191" lon="11.8508355"><ele>258.3333333333333</ele><time>2026-04-03T12:45:16.06Z</time></trkpt><trkpt lat="43.5056585" lon="11.8507283"><ele>258.0</ele><time>2026-04-03T12:45:17.055Z</time></trkpt><trkpt lat="43.5057924" lon="11.8506182"><ele>258.0</ele><time>2026-04-03T12:45:18.071Z</time></trkpt><trkpt lat="43.5059229" lon="11.8505326"><ele>258.0</ele><time>2026-04-03T12:45:19.047Z</time></trkpt><trkpt lat="43.5060592" lon="11.8504764"><ele>258.0</ele><time>2026-04-03T12:45:20.057Z</time></trkpt><trkpt lat="43.5062068" lon="11.8504572"><ele>258.0</ele><time>2026-04-03T12:45:21.058Z</time></trkpt><trkpt lat="43.506358" lon="11.8504574"><ele>259.0</ele><time>2026-04-03T12:45:22.067Z</time></trkpt><trkpt lat="43.5065143" lon="11.8504629"><ele>260.0</ele><time>2026-04-03T12:45:23.06Z</time></trkpt><trkpt lat="43.5066743" lon="11.8504588"><ele>261.0</ele><time>2026-04-03T12:45:24.064Z</time></trkpt><trkpt lat="43.5068338" lon="11.8504236"><ele>261.0</ele><time>2026-04-03T12:45:25.06Z</time></trkpt><trkpt lat="43.5069886" lon="11.8503744"><ele>261.0</ele><time>2026-04-03T12:45:26.069Z</time></trkpt><trkpt lat="43.5071428" lon="11.8503095"><ele>261.0</ele><time>2026-04-03T12:45:27.054Z</time></trkpt><trkpt lat="43.507294" lon="11.8502383"><ele>261.0</ele><time>2026-04-03T12:45:28.064Z</time></trkpt><trkpt lat="43.5074442" lon="11.8501566"><ele>261.0</ele><time>2026-04-03T12:45:29.054Z</time></trkpt><trkpt lat="43.5075834" lon="11.8500417"><ele>261.0</ele><time>2026-04-03T12:45:30.061Z</time></trkpt><trkpt lat="43.507712" lon="11.8499039"><ele>261.0</ele><time>2026-04-03T12:45:31.067Z</time></trkpt><trkpt lat="43.5078248" lon="11.8497351"><ele>261.0</ele><time>2026-04-03T12:45:32.066Z</time></trkpt><trkpt lat="43.5079267" lon="11.8495535"><ele>261.0</ele><time>2026-04-03T12:45:33.041Z</time></trkpt><trkpt lat="43.5080212" lon="11.8493562"><ele>258.6666666666667</ele><time>2026-04-03T12:45:34.043Z</time></trkpt><trkpt lat="43.5081116" lon="11.8491523"><ele>256.33333333333337</ele><time>2026-04-03T12:45:35.046Z</time></trkpt><trkpt lat="43.5081979" lon="11.8489517"><ele>254.0</ele><time>2026-04-03T12:45:36.062Z</time></trkpt><trkpt lat="43.5082812" lon="11.8487556"><ele>254.0</ele><time>2026-04-03T12:45:37.051Z</time></trkpt><trkpt lat="43.5083596" lon="11.8485567"><ele>254.0</ele><time>2026-04-03T12:45:38.051Z</time></trkpt><trkpt lat="43.5084377" lon="11.8483591"><ele>254.0</ele><time>2026-04-03T12:45:39.054Z</time></trkpt><trkpt lat="43.5085156" lon="11.8481645"><ele>254.0</ele><time>2026-04-03T12:45:40.055Z</time></trkpt><trkpt lat="43.5085952" lon="11.8479703"><ele>254.0</ele><time>2026-04-03T12:45:41.057Z</time></trkpt><trkpt lat="43.5086744" lon="11.8477689"><ele>254.0</ele><time>2026-04-03T12:45:42.062Z</time></trkpt><trkpt lat="43.5087565" lon="11.8475691"><ele>253.66666666666669</ele><time>2026-04-03T12:45:43.067Z</time></trkpt><trkpt lat="43.5088449" lon="11.8473694"><ele>253.33333333333331</ele><time>2026-04-03T12:45:44.066Z</time></trkpt><trkpt lat="43.5089362" lon="11.8471739"><ele>253.0</ele><time>2026-04-03T12:45:45.055Z</time></trkpt><trkpt lat="43.5090315" lon="11.8469825"><ele>253.0</ele><time>2026-04-03T12:45:46.059Z</time></trkpt><trkpt lat="43.5091311" lon="11.846795"><ele>253.0</ele><time>2026-04-03T12:45:47.064Z</time></trkpt><trkpt lat="43.5092337" lon="11.8466072"><ele>253.0</ele><time>2026-04-03T12:45:48.073Z</time></trkpt><trkpt lat="43.5093387" lon="11.8464249"><ele>253.0</ele><time>2026-04-03T12:45:49.055Z</time></trkpt><trkpt lat="43.5094431" lon="11.8462435"><ele>253.0</ele><time>2026-04-03T12:45:50.053Z</time></trkpt><trkpt lat="43.5095482" lon="11.8460671"><ele>253.0</ele><time>2026-04-03T12:45:51.053Z</time></trkpt><trkpt lat="43.5096492" lon="11.8458888"><ele>253.0</ele><time>2026-04-03T12:45:52.057Z</time></trkpt><trkpt lat="43.5097486" lon="11.84571"><ele>253.0</ele><time>2026-04-03T12:45:53.061Z</time></trkpt><trkpt lat="43.5098503" lon="11.8455337"><ele>253.0</ele><time>2026-04-03T12:45:54.048Z</time></trkpt><trkpt lat="43.5099489" lon="11.8453595"><ele>253.0</ele><time>2026-04-03T12:45:55.061Z</time></trkpt><trkpt lat="43.5100457" lon="11.8451884"><ele>253.0</ele><time>2026-04-03T12:45:56.063Z</time></trkpt><trkpt lat="43.5101398" lon="11.8450238"><ele>253.0</ele><time>2026-04-03T12:45:57.054Z</time></trkpt><trkpt lat="43.5102242" lon="11.8448734"><ele>253.0</ele><time>2026-04-03T12:45:58.047Z</time></trkpt><trkpt lat="43.5103007" lon="11.8447381"><ele>253.0</ele><time>2026-04-03T12:45:59.055Z</time></trkpt><trkpt lat="43.5103722" lon="11.8446156"><ele>253.0</ele><time>2026-04-03T12:46:00.063Z</time></trkpt><trkpt lat="43.5104351" lon="11.8445095"><ele>253.0</ele><time>2026-04-03T12:46:01.056Z</time></trkpt><trkpt lat="43.5104846" lon="11.844425"><ele>253.0</ele><time>2026-04-03T12:46:02.053Z</time></trkpt><trkpt lat="43.510555" lon="11.844356"><ele>253.0</ele><time>2026-04-03T12:46:04.05Z</time></trkpt><trkpt lat="43.5106538" lon="11.8444152"><ele>253.0</ele><time>2026-04-03T12:46:06.054Z</time></trkpt><trkpt lat="43.5107136" lon="11.844492"><ele>253.0</ele><time>2026-04-03T12:46:07.045Z</time></trkpt><trkpt lat="43.5107851" lon="11.8445773"><ele>253.0</ele><time>2026-04-03T12:46:08.052Z</time></trkpt><trkpt lat="43.5108572" lon="11.8446637"><ele>253.0</ele><time>2026-04-03T12:46:09.046Z</time></trkpt><trkpt lat="43.5109291" lon="11.8447545"><ele>253.0</ele><time>2026-04-03T12:46:10.056Z</time></trkpt><trkpt lat="43.5109989" lon="11.8448291"><ele>253.0</ele><time>2026-04-03T12:46:11.045Z</time></trkpt><trkpt lat="43.5110699" lon="11.8448436"><ele>253.0</ele><time>2026-04-03T12:46:12.05Z</time></trkpt><trkpt lat="43.5111406" lon="11.8447973"><ele>253.0</ele><time>2026-04-03T12:46:13.046Z</time></trkpt><trkpt lat="43.5112122" lon="11.8447147"><ele>253.0</ele><time>2026-04-03T12:46:14.061Z</time></trkpt><trkpt lat="43.5112929" lon="11.844617"><ele>253.0</ele><time>2026-04-03T12:46:15.059Z</time></trkpt><trkpt lat="43.5113702" lon="11.8445148"><ele>252.75</ele><time>2026-04-03T12:46:16.059Z</time></trkpt><trkpt lat="43.5114638" lon="11.8444187"><ele>252.5</ele><time>2026-04-03T12:46:17.052Z</time></trkpt><trkpt lat="43.5115543" lon="11.844321"><ele>252.25</ele><time>2026-04-03T12:46:18.063Z</time></trkpt><trkpt lat="43.5116514" lon="11.8442205"><ele>252.0</ele><time>2026-04-03T12:46:19.053Z</time></trkpt><trkpt lat="43.5117494" lon="11.8441116"><ele>252.0</ele><time>2026-04-03T12:46:20.058Z</time></trkpt><trkpt lat="43.511849" lon="11.8439935"><ele>252.0</ele><time>2026-04-03T12:46:21.056Z</time></trkpt><trkpt lat="43.5119471" lon="11.8438745"><ele>252.0</ele><time>2026-04-03T12:46:22.056Z</time></trkpt><trkpt lat="43.5120328" lon="11.8437433"><ele>252.0</ele><time>2026-04-03T12:46:23.044Z</time></trkpt><trkpt lat="43.5121113" lon="11.8436137"><ele>252.0</ele><time>2026-04-03T12:46:24.061Z</time></trkpt><trkpt lat="43.5121872" lon="11.8434933"><ele>252.0</ele><time>2026-04-03T12:46:25.059Z</time></trkpt><trkpt lat="43.5122615" lon="11.8433828"><ele>252.0</ele><time>2026-04-03T12:46:26.05Z</time></trkpt><trkpt lat="43.5123378" lon="11.8432876"><ele>252.0</ele><time>2026-04-03T12:46:27.062Z</time></trkpt><trkpt lat="43.5123926" lon="11.8432177"><ele>252.0</ele><time>2026-04-03T12:46:28.059Z</time></trkpt><trkpt lat="43.5124391" lon="11.8431094"><ele>251.83333333333334</ele><time>2026-04-03T12:46:30.054Z</time></trkpt><trkpt lat="43.5123892" lon="11.8430073"><ele>251.66666666666669</ele><time>2026-04-03T12:46:33.047Z</time></trkpt><trkpt lat="43.5123344" lon="11.8429606"><ele>251.5</ele><time>2026-04-03T12:46:34.066Z</time></trkpt><trkpt lat="43.5122694" lon="11.842914"><ele>251.33333333333334</ele><time>2026-04-03T12:46:35.055Z</time></trkpt><trkpt lat="43.5121908" lon="11.8428653"><ele>251.16666666666669</ele><time>2026-04-03T12:46:36.054Z</time></trkpt><trkpt lat="43.5121036" lon="11.8428107"><ele>251.0</ele><time>2026-04-03T12:46:37.067Z</time></trkpt><trkpt lat="43.5120124" lon="11.842754"><ele>251.4</ele><time>2026-04-03T12:46:38.054Z</time></trkpt><trkpt lat="43.5119316" lon="11.8427002"><ele>251.8</ele><time>2026-04-03T12:46:39.062Z</time></trkpt><trkpt lat="43.5118667" lon="11.8426291"><ele>252.20000000000002</ele><time>2026-04-03T12:46:40.057Z</time></trkpt><trkpt lat="43.5118222" lon="11.8425301"><ele>252.60000000000002</ele><time>2026-04-03T12:46:41.046Z</time></trkpt><trkpt lat="43.5118018" lon="11.8423989"><ele>253.0</ele><time>2026-04-03T12:46:42.063Z</time></trkpt><trkpt lat="43.5117885" lon="11.8422581"><ele>253.25</ele><time>2026-04-03T12:46:43.064Z</time></trkpt><trkpt lat="43.5117662" lon="11.8421084"><ele>253.5</ele><time>2026-04-03T12:46:44.055Z</time></trkpt><trkpt lat="43.5117262" lon="11.8419598"><ele>253.75</ele><time>2026-04-03T12:46:45.056Z</time></trkpt><trkpt lat="43.5116708" lon="11.8418123"><ele>254.0</ele><time>2026-04-03T12:46:46.057Z</time></trkpt><trkpt lat="43.5116011" lon="11.8416762"><ele>254.0</ele><time>2026-04-03T12:46:47.046Z</time></trkpt><trkpt lat="43.5115408" lon="11.8415314"><ele>254.0</ele><time>2026-04-03T12:46:48.055Z</time></trkpt><trkpt lat="43.5114832" lon="11.8413796"><ele>254.0</ele><time>2026-04-03T12:46:49.054Z</time></trkpt><trkpt lat="43.5114332" lon="11.841225"><ele>254.0</ele><time>2026-04-03T12:46:50.047Z</time></trkpt><trkpt lat="43.5113924" lon="11.84106"><ele>253.75</ele><time>2026-04-03T12:46:51.05Z</time></trkpt><trkpt lat="43.5113503" lon="11.8408971"><ele>253.5</ele><time>2026-04-03T12:46:52.058Z</time></trkpt><trkpt lat="43.5113047" lon="11.8407294"><ele>253.25</ele><time>2026-04-03T12:46:53.063Z</time></trkpt><trkpt lat="43.5112535" lon="11.8405627"><ele>253.0</ele><time>2026-04-03T12:46:54.06Z</time></trkpt><trkpt lat="43.5111961" lon="11.8403913"><ele>253.0</ele><time>2026-04-03T12:46:55.065Z</time></trkpt><trkpt lat="43.5111359" lon="11.8402228"><ele>253.0</ele><time>2026-04-03T12:46:56.049Z</time></trkpt><trkpt lat="43.5110725" lon="11.8400571"><ele>253.0</ele><time>2026-04-03T12:46:57.051Z</time></trkpt><trkpt lat="43.5110002" lon="11.8398866"><ele>253.0</ele><time>2026-04-03T12:46:58.064Z</time></trkpt><trkpt lat="43.5109176" lon="11.83971"><ele>253.0</ele><time>2026-04-03T12:46:59.057Z</time></trkpt><trkpt lat="43.5108375" lon="11.839535"><ele>253.0</ele><time>2026-04-03T12:47:00.049Z</time></trkpt><trkpt lat="43.5107562" lon="11.8393665"><ele>253.0</ele><time>2026-04-03T12:47:01.061Z</time></trkpt><trkpt lat="43.51068" lon="11.8391935"><ele>253.0</ele><time>2026-04-03T12:47:02.047Z</time></trkpt><trkpt lat="43.5106172" lon="11.8390159"><ele>253.0</ele><time>2026-04-03T12:47:03.056Z</time></trkpt><trkpt lat="43.5105596" lon="11.8388399"><ele>253.0</ele><time>2026-04-03T12:47:04.054Z</time></trkpt><trkpt lat="43.5105018" lon="11.8386597"><ele>253.0</ele><time>2026-04-03T12:47:05.056Z</time></trkpt><trkpt lat="43.5104421" lon="11.8384856"><ele>253.0</ele><time>2026-04-03T12:47:06.061Z</time></trkpt><trkpt lat="43.5103716" lon="11.8383235"><ele>253.0</ele><time>2026-04-03T12:47:07.061Z</time></trkpt><trkpt lat="43.5102886" lon="11.8381766"><ele>253.0</ele><time>2026-04-03T12:47:08.055Z</time></trkpt><trkpt lat="43.5101976" lon="11.8380486"><ele>253.0</ele><time>2026-04-03T12:47:09.044Z</time></trkpt><trkpt lat="43.5101141" lon="11.8379486"><ele>253.0</ele><time>2026-04-03T12:47:10.05Z</time></trkpt><trkpt lat="43.5100412" lon="11.8378616"><ele>252.99999999999997</ele><time>2026-04-03T12:47:11.054Z</time></trkpt><trkpt lat="43.5099836" lon="11.8377914"><ele>253.0</ele><time>2026-04-03T12:47:12.055Z</time></trkpt><trkpt lat="43.5099586" lon="11.837705"><ele>253.0</ele><time>2026-04-03T12:47:14.06Z</time></trkpt><trkpt lat="43.5100227" lon="11.8376315"><ele>253.0</ele><time>2026-04-03T12:47:16.057Z</time></trkpt><trkpt lat="43.5100884" lon="11.837603"><ele>252.99999999999997</ele><time>2026-04-03T12:47:17.058Z</time></trkpt><trkpt lat="43.5101588" lon="11.8375505"><ele>253.0</ele><time>2026-04-03T12:47:18.041Z</time></trkpt><trkpt lat="43.5102386" lon="11.8374871"><ele>253.0</ele><time>2026-04-03T12:47:19.06Z</time></trkpt><trkpt lat="43.5103261" lon="11.8374143"><ele>253.0</ele><time>2026-04-03T12:47:20.063Z</time></trkpt><trkpt lat="43.510425" lon="11.8373371"><ele>253.0</ele><time>2026-04-03T12:47:21.055Z</time></trkpt><trkpt lat="43.5105328" lon="11.8372501"><ele>253.0</ele><time>2026-04-03T12:47:22.062Z</time></trkpt><trkpt lat="43.5106462" lon="11.8371584"><ele>252.75</ele><time>2026-04-03T12:47:23.053Z</time></trkpt><trkpt lat="43.5107622" lon="11.8370641"><ele>252.5</ele><time>2026-04-03T12:47:24.066Z</time></trkpt><trkpt lat="43.5108858" lon="11.8369693"><ele>252.25</ele><time>2026-04-03T12:47:25.058Z</time></trkpt><trkpt lat="43.5110142" lon="11.8368735"><ele>252.0</ele><time>2026-04-03T12:47:26.064Z</time></trkpt><trkpt lat="43.5111449" lon="11.8367747"><ele>251.66666666666669</ele><time>2026-04-03T12:47:27.044Z</time></trkpt><trkpt lat="43.5112784" lon="11.8366761"><ele>251.33333333333334</ele><time>2026-04-03T12:47:28.061Z</time></trkpt><trkpt lat="43.511411" lon="11.8365767"><ele>251.0</ele><time>2026-04-03T12:47:29.06Z</time></trkpt><trkpt lat="43.5115444" lon="11.8364763"><ele>251.0</ele><time>2026-04-03T12:47:30.054Z</time></trkpt><trkpt lat="43.5116736" lon="11.8363757"><ele>251.0</ele><time>2026-04-03T12:47:31.065Z</time></trkpt><trkpt lat="43.5117948" lon="11.8362855"><ele>251.0</ele><time>2026-04-03T12:47:32.057Z</time></trkpt><trkpt lat="43.5119045" lon="11.8361995"><ele>251.0</ele><time>2026-04-03T12:47:33.061Z</time></trkpt><trkpt lat="43.5120101" lon="11.836117"><ele>250.25</ele><time>2026-04-03T12:47:34.049Z</time></trkpt><trkpt lat="43.512118" lon="11.8360374"><ele>249.5</ele><time>2026-04-03T12:47:35.069Z</time></trkpt><trkpt lat="43.5122289" lon="11.8359584"><ele>248.75</ele><time>2026-04-03T12:47:36.054Z</time></trkpt><trkpt lat="43.512345" lon="11.8358728"><ele>248.0</ele><time>2026-04-03T12:47:37.049Z</time></trkpt><trkpt lat="43.512467" lon="11.8357849"><ele>247.75</ele><time>2026-04-03T12:47:38.062Z</time></trkpt><trkpt lat="43.5125902" lon="11.8356973"><ele>247.5</ele><time>2026-04-03T12:47:39.055Z</time></trkpt><trkpt lat="43.5127068" lon="11.8356029"><ele>247.25</ele><time>2026-04-03T12:47:40.063Z</time></trkpt><trkpt lat="43.5128226" lon="11.8355141"><ele>247.0</ele><time>2026-04-03T12:47:41.053Z</time></trkpt><trkpt lat="43.5129401" lon="11.8354267"><ele>246.5</ele><time>2026-04-03T12:47:42.061Z</time></trkpt><trkpt lat="43.5130582" lon="11.835338"><ele>246.0</ele><time>2026-04-03T12:47:43.06Z</time></trkpt><trkpt lat="43.5131769" lon="11.8352544"><ele>245.5</ele><time>2026-04-03T12:47:44.05Z</time></trkpt><trkpt lat="43.5132911" lon="11.8351738"><ele>245.0</ele><time>2026-04-03T12:47:45.051Z</time></trkpt><trkpt lat="43.513405" lon="11.8350938"><ele>245.0</ele><time>2026-04-03T12:47:46.066Z</time></trkpt><trkpt lat="43.5135175" lon="11.8350148"><ele>245.0</ele><time>2026-04-03T12:47:47.048Z</time></trkpt><trkpt lat="43.5136342" lon="11.8349313"><ele>245.0</ele><time>2026-04-03T12:47:48.062Z</time></trkpt><trkpt lat="43.5137473" lon="11.8348482"><ele>245.0</ele><time>2026-04-03T12:47:49.066Z</time></trkpt><trkpt lat="43.5138627" lon="11.8347643"><ele>244.25</ele><time>2026-04-03T12:47:50.053Z</time></trkpt><trkpt lat="43.5139773" lon="11.8346806"><ele>243.5</ele><time>2026-04-03T12:47:51.043Z</time></trkpt><trkpt lat="43.5140908" lon="11.8345896"><ele>242.75</ele><time>2026-04-03T12:47:52.061Z</time></trkpt><trkpt lat="43.5142056" lon="11.8344942"><ele>242.0</ele><time>2026-04-03T12:47:53.05Z</time></trkpt><trkpt lat="43.5143176" lon="11.8343979"><ele>242.0</ele><time>2026-04-03T12:47:54.059Z</time></trkpt><trkpt lat="43.5144284" lon="11.834308"><ele>242.0</ele><time>2026-04-03T12:47:55.051Z</time></trkpt><trkpt lat="43.5145337" lon="11.8342182"><ele>242.0</ele><time>2026-04-03T12:47:56.052Z</time></trkpt><trkpt lat="43.5146361" lon="11.8341206"><ele>242.0</ele><time>2026-04-03T12:47:57.057Z</time></trkpt><trkpt lat="43.5147345" lon="11.8340312"><ele>240.0</ele><time>2026-04-03T12:47:58.061Z</time></trkpt><trkpt lat="43.514819" lon="11.8339479"><ele>238.0</ele><time>2026-04-03T12:47:59.049Z</time></trkpt><trkpt lat="43.5148839" lon="11.8338777"><ele>236.0</ele><time>2026-04-03T12:48:00.051Z</time></trkpt><trkpt lat="43.5149083" lon="11.8337386"><ele>234.0</ele><time>2026-04-03T12:48:02.048Z</time></trkpt><trkpt lat="43.5148604" lon="11.8336643"><ele>232.0</ele><time>2026-04-03T12:48:03.05Z</time></trkpt><trkpt lat="43.5147908" lon="11.8335866"><ele>232.0</ele><time>2026-04-03T12:48:04.055Z</time></trkpt><trkpt lat="43.5147113" lon="11.8335064"><ele>232.0</ele><time>2026-04-03T12:48:05.044Z</time></trkpt><trkpt lat="43.5146309" lon="11.8334125"><ele>232.0</ele><time>2026-04-03T12:48:06.046Z</time></trkpt><trkpt lat="43.5145523" lon="11.8333007"><ele>232.0</ele><time>2026-04-03T12:48:07.054Z</time></trkpt><trkpt lat="43.5144753" lon="11.8331783"><ele>232.0</ele><time>2026-04-03T12:48:08.046Z</time></trkpt><trkpt lat="43.514402" lon="11.8330369"><ele>230.75</ele><time>2026-04-03T12:48:09.06Z</time></trkpt><trkpt lat="43.514343" lon="11.8328755"><ele>229.5</ele><time>2026-04-03T12:48:10.059Z</time></trkpt><trkpt lat="43.5142979" lon="11.8327071"><ele>228.25</ele><time>2026-04-03T12:48:11.045Z</time></trkpt><trkpt lat="43.5142637" lon="11.832532"><ele>227.0</ele><time>2026-04-03T12:48:12.055Z</time></trkpt><trkpt lat="43.5142208" lon="11.8323499"><ele>225.25</ele><time>2026-04-03T12:48:13.054Z</time></trkpt><trkpt lat="43.5141714" lon="11.8321733"><ele>223.5</ele><time>2026-04-03T12:48:14.046Z</time></trkpt><trkpt lat="43.5141139" lon="11.832001"><ele>221.75</ele><time>2026-04-03T12:48:15.054Z</time></trkpt><trkpt lat="43.5140473" lon="11.8318314"><ele>220.0</ele><time>2026-04-03T12:48:16.052Z</time></trkpt><trkpt lat="43.5139639" lon="11.8316669"><ele>220.0</ele><time>2026-04-03T12:48:17.055Z</time></trkpt><trkpt lat="43.5138747" lon="11.8315052"><ele>220.0</ele><time>2026-04-03T12:48:18.048Z</time></trkpt><trkpt lat="43.5137861" lon="11.8313404"><ele>220.0</ele><time>2026-04-03T12:48:19.045Z</time></trkpt><trkpt lat="43.5137026" lon="11.8311703"><ele>220.0</ele><time>2026-04-03T12:48:20.053Z</time></trkpt><trkpt lat="43.5136225" lon="11.8309962"><ele>219.0</ele><time>2026-04-03T12:48:21.051Z</time></trkpt><trkpt lat="43.5135443" lon="11.830816"><ele>218.0</ele><time>2026-04-03T12:48:22.051Z</time></trkpt><trkpt lat="43.5134688" lon="11.8306389"><ele>217.0</ele><time>2026-04-03T12:48:23.055Z</time></trkpt><trkpt lat="43.5133951" lon="11.8304625"><ele>216.0</ele><time>2026-04-03T12:48:24.052Z</time></trkpt><trkpt lat="43.5133235" lon="11.8302812"><ele>216.5</ele><time>2026-04-03T12:48:25.054Z</time></trkpt><trkpt lat="43.5132571" lon="11.8300976"><ele>217.0</ele><time>2026-04-03T12:48:26.054Z</time></trkpt><trkpt lat="43.5131902" lon="11.8299122"><ele>217.5</ele><time>2026-04-03T12:48:27.055Z</time></trkpt><trkpt lat="43.5131217" lon="11.8297303"><ele>218.0</ele><time>2026-04-03T12:48:28.059Z</time></trkpt><trkpt lat="43.5130534" lon="11.8295483"><ele>218.0</ele><time>2026-04-03T12:48:29.072Z</time></trkpt><trkpt lat="43.5129912" lon="11.8293669"><ele>218.0</ele><time>2026-04-03T12:48:30.05Z</time></trkpt><trkpt lat="43.5129316" lon="11.8291861"><ele>218.0</ele><time>2026-04-03T12:48:31.061Z</time></trkpt><trkpt lat="43.5128748" lon="11.8289987"><ele>218.0</ele><time>2026-04-03T12:48:32.052Z</time></trkpt><trkpt lat="43.5128243" lon="11.8288148"><ele>218.25</ele><time>2026-04-03T12:48:33.052Z</time></trkpt><trkpt lat="43.5127784" lon="11.828644"><ele>218.5</ele><time>2026-04-03T12:48:34.059Z</time></trkpt><trkpt lat="43.5127407" lon="11.8284845"><ele>218.75</ele><time>2026-04-03T12:48:35.055Z</time></trkpt><trkpt lat="43.5127105" lon="11.8283285"><ele>219.0</ele><time>2026-04-03T12:48:36.056Z</time></trkpt><trkpt lat="43.5126792" lon="11.8281786"><ele>219.0</ele><time>2026-04-03T12:48:37.041Z</time></trkpt><trkpt lat="43.5126495" lon="11.8280394"><ele>218.99999999999997</ele><time>2026-04-03T12:48:38.055Z</time></trkpt><trkpt lat="43.5126144" lon="11.827916"><ele>218.99999999999997</ele><time>2026-04-03T12:48:39.049Z</time></trkpt><trkpt lat="43.5125601" lon="11.8278247"><ele>219.0</ele><time>2026-04-03T12:48:40.046Z</time></trkpt><trkpt lat="43.5124802" lon="11.8277828"><ele>219.0</ele><time>2026-04-03T12:48:41.05Z</time></trkpt><trkpt lat="43.5123771" lon="11.8277767"><ele>219.0</ele><time>2026-04-03T12:48:42.051Z</time></trkpt><trkpt lat="43.5122608" lon="11.8277866"><ele>219.0</ele><time>2026-04-03T12:48:43.048Z</time></trkpt><trkpt lat="43.5121355" lon="11.8278015"><ele>219.0</ele><time>2026-04-03T12:48:44.051Z</time></trkpt><trkpt lat="43.5120057" lon="11.8278143"><ele>219.0</ele><time>2026-04-03T12:48:45.046Z</time></trkpt><trkpt lat="43.511879" lon="11.8278243"><ele>219.39999999999998</ele><time>2026-04-03T12:48:46.053Z</time></trkpt><trkpt lat="43.5117555" lon="11.8278331"><ele>219.79999999999998</ele><time>2026-04-03T12:48:47.042Z</time></trkpt><trkpt lat="43.5116402" lon="11.8278331"><ele>220.20000000000002</ele><time>2026-04-03T12:48:48.048Z</time></trkpt><trkpt lat="43.5115429" lon="11.8278176"><ele>220.60000000000002</ele><time>2026-04-03T12:48:49.049Z</time></trkpt><trkpt lat="43.5114563" lon="11.8277862"><ele>221.0</ele><time>2026-04-03T12:48:51.052Z</time></trkpt><trkpt lat="43.5114446" lon="11.8276829"><ele>221.0</ele><time>2026-04-03T12:48:53.054Z</time></trkpt><trkpt lat="43.5115126" lon="11.8275698"><ele>221.0</ele><time>2026-04-03T12:48:55.06Z</time></trkpt><trkpt lat="43.5115085" lon="11.827384"><ele>221.0</ele><time>2026-04-03T12:48:57.054Z</time></trkpt><trkpt lat="43.5114877" lon="11.8272511"><ele>221.0</ele><time>2026-04-03T12:48:58.055Z</time></trkpt><trkpt lat="43.511462" lon="11.8271013"><ele>221.0</ele><time>2026-04-03T12:48:59.057Z</time></trkpt><trkpt lat="43.5114433" lon="11.8269459"><ele>221.0</ele><time>2026-04-03T12:49:00.058Z</time></trkpt><trkpt lat="43.5114241" lon="11.8267764"><ele>221.0</ele><time>2026-04-03T12:49:01.049Z</time></trkpt><trkpt lat="43.5114083" lon="11.8266132"><ele>221.0</ele><time>2026-04-03T12:49:02.062Z</time></trkpt><trkpt lat="43.5113935" lon="11.8264495"><ele>220.60000000000002</ele><time>2026-04-03T12:49:03.052Z</time></trkpt><trkpt lat="43.5113743" lon="11.8262862"><ele>220.20000000000002</ele><time>2026-04-03T12:49:04.044Z</time></trkpt><trkpt lat="43.5113573" lon="11.8261444"><ele>219.79999999999998</ele><time>2026-04-03T12:49:05.058Z</time></trkpt><trkpt lat="43.5113389" lon="11.8260173"><ele>219.39999999999998</ele><time>2026-04-03T12:49:06.057Z</time></trkpt><trkpt lat="43.5113225" lon="11.8258987"><ele>219.0</ele><time>2026-04-03T12:49:07.049Z</time></trkpt><trkpt lat="43.5113094" lon="11.8257957"><ele>218.79999999999998</ele><time>2026-04-03T12:49:08.052Z</time></trkpt><trkpt lat="43.5113055" lon="11.8256998"><ele>218.59999999999997</ele><time>2026-04-03T12:49:09.04Z</time></trkpt><trkpt lat="43.5113097" lon="11.8255462"><ele>218.4</ele><time>2026-04-03T12:49:11.054Z</time></trkpt><trkpt lat="43.5112551" lon="11.8253994"><ele>218.2</ele><time>2026-04-03T12:49:13.054Z</time></trkpt><trkpt lat="43.5112045" lon="11.8253121"><ele>218.0</ele><time>2026-04-03T12:49:14.046Z</time></trkpt><trkpt lat="43.5111442" lon="11.8252263"><ele>218.00000000000003</ele><time>2026-04-03T12:49:15.044Z</time></trkpt><trkpt lat="43.511081" lon="11.8251373"><ele>218.0</ele><time>2026-04-03T12:49:16.061Z</time></trkpt><trkpt lat="43.5110185" lon="11.8250584"><ele>218.0</ele><time>2026-04-03T12:49:17.058Z</time></trkpt><trkpt lat="43.5109651" lon="11.8249808"><ele>218.0</ele><time>2026-04-03T12:49:18.048Z</time></trkpt><trkpt lat="43.5109213" lon="11.8249015"><ele>218.00000000000003</ele><time>2026-04-03T12:49:19.053Z</time></trkpt><trkpt lat="43.5109064" lon="11.8247983"><ele>218.0</ele><time>2026-04-03T12:49:20.057Z</time></trkpt><trkpt lat="43.5108832" lon="11.8246914"><ele>218.00000000000003</ele><time>2026-04-03T12:49:21.045Z</time></trkpt><trkpt lat="43.5108511" lon="11.8245905"><ele>218.0</ele><time>2026-04-03T12:49:22.065Z</time></trkpt><trkpt lat="43.5108029" lon="11.8245057"><ele>218.0</ele><time>2026-04-03T12:49:23.056Z</time></trkpt><trkpt lat="43.5107315" lon="11.8244571"><ele>218.0</ele><time>2026-04-03T12:49:24.047Z</time></trkpt><trkpt lat="43.5106583" lon="11.8244335"><ele>218.00000000000003</ele><time>2026-04-03T12:49:25.05Z</time></trkpt><trkpt lat="43.510585" lon="11.8244237"><ele>218.0</ele><time>2026-04-03T12:49:26.038Z</time></trkpt><trkpt lat="43.5105151" lon="11.824402"><ele>218.00000000000003</ele><time>2026-04-03T12:49:27.055Z</time></trkpt><trkpt lat="43.5104444" lon="11.8243761"><ele>218.0</ele><time>2026-04-03T12:49:28.054Z</time></trkpt><trkpt lat="43.5103728" lon="11.8243434"><ele>218.0</ele><time>2026-04-03T12:49:29.055Z</time></trkpt><trkpt lat="43.5102887" lon="11.8242964"><ele>218.0</ele><time>2026-04-03T12:49:30.058Z</time></trkpt><trkpt lat="43.5102053" lon="11.8242447"><ele>218.00000000000003</ele><time>2026-04-03T12:49:31.069Z</time></trkpt><trkpt lat="43.5101338" lon="11.8241737"><ele>218.0</ele><time>2026-04-03T12:49:32.053Z</time></trkpt><trkpt lat="43.51008" lon="11.8240964"><ele>217.0</ele><time>2026-04-03T12:49:33.049Z</time></trkpt><trkpt lat="43.5099966" lon="11.8239916"><ele>216.0</ele><time>2026-04-03T12:49:35.048Z</time></trkpt><trkpt lat="43.509936" lon="11.8239294"><ele>215.0</ele><time>2026-04-03T12:49:37.046Z</time></trkpt><trkpt lat="43.5098606" lon="11.8238501"><ele>214.0</ele><time>2026-04-03T12:49:39.049Z</time></trkpt><trkpt lat="43.5097713" lon="11.8237619"><ele>213.0</ele><time>2026-04-03T12:49:41.052Z</time></trkpt><trkpt lat="43.5096658" lon="11.8236855"><ele>212.83333333333334</ele><time>2026-04-03T12:49:43.059Z</time></trkpt><trkpt lat="43.5095659" lon="11.8236222"><ele>212.66666666666669</ele><time>2026-04-03T12:49:45.045Z</time></trkpt><trkpt lat="43.5094817" lon="11.8235621"><ele>212.5</ele><time>2026-04-03T12:49:47.049Z</time></trkpt><trkpt lat="43.5094221" lon="11.8235306"><ele>212.33333333333334</ele><time>2026-04-03T12:49:48.039Z</time></trkpt><trkpt lat="43.5093529" lon="11.8234882"><ele>212.16666666666669</ele><time>2026-04-03T12:49:49.046Z</time></trkpt><trkpt lat="43.5092843" lon="11.823446"><ele>212.0</ele><time>2026-04-03T12:49:50.051Z</time></trkpt><trkpt lat="43.509202" lon="11.8234078"><ele>211.6</ele><time>2026-04-03T12:49:51.042Z</time></trkpt><trkpt lat="43.5091184" lon="11.8233629"><ele>211.2</ele><time>2026-04-03T12:49:52.055Z</time></trkpt><trkpt lat="43.5090261" lon="11.8233144"><ele>210.8</ele><time>2026-04-03T12:49:53.049Z</time></trkpt><trkpt lat="43.5089277" lon="11.8232498"><ele>210.4</ele><time>2026-04-03T12:49:54.054Z</time></trkpt><trkpt lat="43.5088228" lon="11.8231731"><ele>210.0</ele><time>2026-04-03T12:49:55.05Z</time></trkpt><trkpt lat="43.5087164" lon="11.8230983"><ele>210.0</ele><time>2026-04-03T12:49:56.057Z</time></trkpt><trkpt lat="43.5086104" lon="11.8230247"><ele>210.0</ele><time>2026-04-03T12:49:57.047Z</time></trkpt><trkpt lat="43.5085126" lon="11.8229496"><ele>210.0</ele><time>2026-04-03T12:49:58.055Z</time></trkpt><trkpt lat="43.5084199" lon="11.8228766"><ele>210.0</ele><time>2026-04-03T12:49:59.053Z</time></trkpt><trkpt lat="43.5083228" lon="11.822803"><ele>210.0</ele><time>2026-04-03T12:50:00.065Z</time></trkpt><trkpt lat="43.508227" lon="11.8227258"><ele>210.0</ele><time>2026-04-03T12:50:01.05Z</time></trkpt><trkpt lat="43.5081333" lon="11.8226508"><ele>210.0</ele><time>2026-04-03T12:50:02.056Z</time></trkpt><trkpt lat="43.5080369" lon="11.8225732"><ele>210.0</ele><time>2026-04-03T12:50:03.05Z</time></trkpt><trkpt lat="43.5079453" lon="11.8224927"><ele>210.0</ele><time>2026-04-03T12:50:04.054Z</time></trkpt><trkpt lat="43.5078498" lon="11.8224163"><ele>210.0</ele><time>2026-04-03T12:50:05.056Z</time></trkpt><trkpt lat="43.507755" lon="11.8223438"><ele>209.75</ele><time>2026-04-03T12:50:06.047Z</time></trkpt><trkpt lat="43.5076582" lon="11.8222665"><ele>209.5</ele><time>2026-04-03T12:50:07.053Z</time></trkpt><trkpt lat="43.5075571" lon="11.8221802"><ele>209.25</ele><time>2026-04-03T12:50:08.056Z</time></trkpt><trkpt lat="43.5074561" lon="11.8220954"><ele>209.0</ele><time>2026-04-03T12:50:09.057Z</time></trkpt><trkpt lat="43.5073574" lon="11.8220138"><ele>209.0</ele><time>2026-04-03T12:50:10.058Z</time></trkpt><trkpt lat="43.5072651" lon="11.8219349"><ele>209.0</ele><time>2026-04-03T12:50:11.047Z</time></trkpt><trkpt lat="43.5071791" lon="11.8218623"><ele>209.0</ele><time>2026-04-03T12:50:12.062Z</time></trkpt><trkpt lat="43.5070974" lon="11.8217823"><ele>209.0</ele><time>2026-04-03T12:50:13.046Z</time></trkpt><trkpt lat="43.5070238" lon="11.8216895"><ele>209.0</ele><time>2026-04-03T12:50:14.056Z</time></trkpt><trkpt lat="43.5069635" lon="11.8215882"><ele>209.00000000000003</ele><time>2026-04-03T12:50:15.046Z</time></trkpt><trkpt lat="43.5069186" lon="11.8214952"><ele>209.0</ele><time>2026-04-03T12:50:16.063Z</time></trkpt><trkpt lat="43.5068873" lon="11.8214062"><ele>209.0</ele><time>2026-04-03T12:50:17.055Z</time></trkpt><trkpt lat="43.5068499" lon="11.8212884"><ele>209.0</ele><time>2026-04-03T12:50:19.049Z</time></trkpt><trkpt lat="43.506823" lon="11.8211862"><ele>209.00000000000003</ele><time>2026-04-03T12:50:24.055Z</time></trkpt><trkpt lat="43.5068007" lon="11.82109"><ele>209.0</ele><time>2026-04-03T12:50:27.041Z</time></trkpt><trkpt lat="43.5067539" lon="11.8209832"><ele>208.83333333333334</ele><time>2026-04-03T12:50:30.05Z</time></trkpt><trkpt lat="43.5066987" lon="11.8209022"><ele>208.66666666666669</ele><time>2026-04-03T12:50:32.043Z</time></trkpt><trkpt lat="43.5066304" lon="11.8208386"><ele>208.5</ele><time>2026-04-03T12:50:34.049Z</time></trkpt><trkpt lat="43.5065606" lon="11.820782"><ele>208.33333333333331</ele><time>2026-04-03T12:50:36.057Z</time></trkpt><trkpt lat="43.5064876" lon="11.820739"><ele>208.16666666666666</ele><time>2026-04-03T12:50:38.066Z</time></trkpt><trkpt lat="43.5064146" lon="11.8207153"><ele>208.0</ele><time>2026-04-03T12:50:40.058Z</time></trkpt><trkpt lat="43.5063359" lon="11.8206495"><ele>208.0</ele><time>2026-04-03T12:50:42.056Z</time></trkpt><trkpt lat="43.5062582" lon="11.820502"><ele>208.0</ele><time>2026-04-03T12:50:44.062Z</time></trkpt><trkpt lat="43.5062071" lon="11.8204105"><ele>208.0</ele><time>2026-04-03T12:50:45.06Z</time></trkpt><trkpt lat="43.5061504" lon="11.8203059"><ele>208.0</ele><time>2026-04-03T12:50:46.061Z</time></trkpt><trkpt lat="43.5060942" lon="11.820197"><ele>208.0</ele><time>2026-04-03T12:50:47.05Z</time></trkpt><trkpt lat="43.5060287" lon="11.8200862"><ele>207.8</ele><time>2026-04-03T12:50:48.053Z</time></trkpt><trkpt lat="43.50597" lon="11.819974"><ele>207.60000000000002</ele><time>2026-04-03T12:50:49.059Z</time></trkpt><trkpt lat="43.505923" lon="11.8198771"><ele>207.39999999999998</ele><time>2026-04-03T12:50:50.058Z</time></trkpt><trkpt lat="43.5058622" lon="11.8197543"><ele>207.2</ele><time>2026-04-03T12:50:52.05Z</time></trkpt><trkpt lat="43.5057547" lon="11.819689"><ele>207.0</ele><time>2026-04-03T12:50:54.055Z</time></trkpt><trkpt lat="43.5056894" lon="11.8196652"><ele>207.0</ele><time>2026-04-03T12:50:55.057Z</time></trkpt><trkpt lat="43.5056357" lon="11.8196189"><ele>207.0</ele><time>2026-04-03T12:50:56.048Z</time></trkpt><trkpt lat="43.5055928" lon="11.8195471"><ele>207.0</ele><time>2026-04-03T12:50:57.056Z</time></trkpt><trkpt lat="43.5055549" lon="11.8194585"><ele>207.0</ele><time>2026-04-03T12:50:58.056Z</time></trkpt><trkpt lat="43.5055005" lon="11.8193694"><ele>207.0</ele><time>2026-04-03T12:50:59.047Z</time></trkpt><trkpt lat="43.5054393" lon="11.8192793"><ele>207.0</ele><time>2026-04-03T12:51:00.053Z</time></trkpt><trkpt lat="43.5053761" lon="11.8191855"><ele>207.2</ele><time>2026-04-03T12:51:01.052Z</time></trkpt><trkpt lat="43.5053048" lon="11.8190773"><ele>207.39999999999998</ele><time>2026-04-03T12:51:02.055Z</time></trkpt><trkpt lat="43.5052337" lon="11.8189614"><ele>207.60000000000002</ele><time>2026-04-03T12:51:03.05Z</time></trkpt><trkpt lat="43.5051642" lon="11.8188463"><ele>207.8</ele><time>2026-04-03T12:51:04.062Z</time></trkpt><trkpt lat="43.5050975" lon="11.8187353"><ele>208.0</ele><time>2026-04-03T12:51:05.053Z</time></trkpt><trkpt lat="43.5050356" lon="11.8186357"><ele>208.0</ele><time>2026-04-03T12:51:06.049Z</time></trkpt><trkpt lat="43.5049672" lon="11.81854"><ele>208.0</ele><time>2026-04-03T12:51:07.051Z</time></trkpt><trkpt lat="43.5049012" lon="11.8184473"><ele>208.0</ele><time>2026-04-03T12:51:08.057Z</time></trkpt><trkpt lat="43.5048337" lon="11.8183559"><ele>208.0</ele><time>2026-04-03T12:51:09.042Z</time></trkpt><trkpt lat="43.5047676" lon="11.8182645"><ele>208.0</ele><time>2026-04-03T12:51:10.057Z</time></trkpt><trkpt lat="43.5047055" lon="11.81818"><ele>208.2</ele><time>2026-04-03T12:51:11.046Z</time></trkpt><trkpt lat="43.504639" lon="11.8180969"><ele>208.4</ele><time>2026-04-03T12:51:12.049Z</time></trkpt><trkpt lat="43.5045707" lon="11.8180187"><ele>208.6</ele><time>2026-04-03T12:51:13.044Z</time></trkpt><trkpt lat="43.5045118" lon="11.817955"><ele>208.79999999999998</ele><time>2026-04-03T12:51:14.061Z</time></trkpt><trkpt lat="43.5044395" lon="11.8178547"><ele>209.0</ele><time>2026-04-03T12:51:16.054Z</time></trkpt><trkpt lat="43.504414" lon="11.8177176"><ele>209.33333333333334</ele><time>2026-04-03T12:51:18.056Z</time></trkpt><trkpt lat="43.5044051" lon="11.817619"><ele>209.66666666666669</ele><time>2026-04-03T12:51:19.057Z</time></trkpt><trkpt lat="43.5043924" lon="11.8175144"><ele>210.0</ele><time>2026-04-03T12:51:20.058Z</time></trkpt><trkpt lat="43.5043724" lon="11.8174047"><ele>210.33333333333331</ele><time>2026-04-03T12:51:21.049Z</time></trkpt><trkpt lat="43.5043456" lon="11.8172832"><ele>210.66666666666666</ele><time>2026-04-03T12:51:22.056Z</time></trkpt><trkpt lat="43.5043215" lon="11.81716"><ele>211.0</ele><time>2026-04-03T12:51:23.044Z</time></trkpt><trkpt lat="43.5042972" lon="11.8170301"><ele>211.0</ele><time>2026-04-03T12:51:24.058Z</time></trkpt><trkpt lat="43.5042845" lon="11.8168948"><ele>211.0</ele><time>2026-04-03T12:51:25.049Z</time></trkpt><trkpt lat="43.5042827" lon="11.8167551"><ele>211.0</ele><time>2026-04-03T12:51:26.055Z</time></trkpt><trkpt lat="43.5042919" lon="11.8166113"><ele>211.0</ele><time>2026-04-03T12:51:27.051Z</time></trkpt><trkpt lat="43.5043092" lon="11.8164814"><ele>211.0</ele><time>2026-04-03T12:51:28.042Z</time></trkpt><trkpt lat="43.5043376" lon="11.8163542"><ele>210.4</ele><time>2026-04-03T12:51:29.057Z</time></trkpt><trkpt lat="43.5043775" lon="11.816232"><ele>209.8</ele><time>2026-04-03T12:51:30.052Z</time></trkpt><trkpt lat="43.5044213" lon="11.8161143"><ele>209.20000000000002</ele><time>2026-04-03T12:51:31.043Z</time></trkpt><trkpt lat="43.5044663" lon="11.8160016"><ele>208.60000000000002</ele><time>2026-04-03T12:51:32.051Z</time></trkpt><trkpt lat="43.5045096" lon="11.8158963"><ele>208.0</ele><time>2026-04-03T12:51:33.057Z</time></trkpt><trkpt lat="43.5045522" lon="11.815801"><ele>208.0</ele><time>2026-04-03T12:51:34.056Z</time></trkpt><trkpt lat="43.5045979" lon="11.8157209"><ele>208.0</ele><time>2026-04-03T12:51:35.05Z</time></trkpt><trkpt lat="43.5046313" lon="11.8156462"><ele>208.0</ele><time>2026-04-03T12:51:36.06Z</time></trkpt><trkpt lat="43.504636" lon="11.8155135"><ele>208.0</ele><time>2026-04-03T12:51:38.054Z</time></trkpt><trkpt lat="43.5045661" lon="11.8153544"><ele>208.0</ele><time>2026-04-03T12:51:40.056Z</time></trkpt><trkpt lat="43.5045103" lon="11.8152593"><ele>208.0</ele><time>2026-04-03T12:51:41.057Z</time></trkpt><trkpt lat="43.5044523" lon="11.81516"><ele>208.0</ele><time>2026-04-03T12:51:42.059Z</time></trkpt><trkpt lat="43.5043894" lon="11.8150519"><ele>208.0</ele><time>2026-04-03T12:51:43.059Z</time></trkpt><trkpt lat="43.5043228" lon="11.8149411"><ele>208.0</ele><time>2026-04-03T12:51:44.047Z</time></trkpt><trkpt lat="43.5042657" lon="11.8148293"><ele>208.0</ele><time>2026-04-03T12:51:45.039Z</time></trkpt><trkpt lat="43.5042173" lon="11.8147098"><ele>208.0</ele><time>2026-04-03T12:51:46.053Z</time></trkpt><trkpt lat="43.5041706" lon="11.814593"><ele>208.0</ele><time>2026-04-03T12:51:47.049Z</time></trkpt><trkpt lat="43.5041302" lon="11.8144705"><ele>208.0</ele><time>2026-04-03T12:51:48.048Z</time></trkpt><trkpt lat="43.5040819" lon="11.8143555"><ele>208.0</ele><time>2026-04-03T12:51:49.062Z</time></trkpt><trkpt lat="43.5040206" lon="11.8142527"><ele>208.0</ele><time>2026-04-03T12:51:50.062Z</time></trkpt><trkpt lat="43.5039722" lon="11.8141449"><ele>207.60000000000002</ele><time>2026-04-03T12:51:51.046Z</time></trkpt><trkpt lat="43.5039423" lon="11.8140303"><ele>207.20000000000002</ele><time>2026-04-03T12:51:52.063Z</time></trkpt><trkpt lat="43.5039031" lon="11.8139059"><ele>206.8</ele><time>2026-04-03T12:51:53.047Z</time></trkpt><trkpt lat="43.503868" lon="11.813782"><ele>206.4</ele><time>2026-04-03T12:51:54.053Z</time></trkpt><trkpt lat="43.5038361" lon="11.8136526"><ele>206.0</ele><time>2026-04-03T12:51:55.055Z</time></trkpt><trkpt lat="43.5038064" lon="11.8135199"><ele>205.83333333333334</ele><time>2026-04-03T12:51:56.053Z</time></trkpt><trkpt lat="43.5037833" lon="11.813393"><ele>205.66666666666669</ele><time>2026-04-03T12:51:57.064Z</time></trkpt><trkpt lat="43.5037645" lon="11.8132723"><ele>205.5</ele><time>2026-04-03T12:51:58.046Z</time></trkpt><trkpt lat="43.5037484" lon="11.8131508"><ele>205.33333333333331</ele><time>2026-04-03T12:51:59.052Z</time></trkpt><trkpt lat="43.5037329" lon="11.8130302"><ele>205.16666666666666</ele><time>2026-04-03T12:52:00.056Z</time></trkpt><trkpt lat="43.5037092" lon="11.812918"><ele>205.0</ele><time>2026-04-03T12:52:01.047Z</time></trkpt><trkpt lat="43.5036815" lon="11.8128026"><ele>205.16666666666666</ele><time>2026-04-03T12:52:02.049Z</time></trkpt><trkpt lat="43.5036635" lon="11.8126823"><ele>205.33333333333331</ele><time>2026-04-03T12:52:03.048Z</time></trkpt><trkpt lat="43.5036559" lon="11.8125614"><ele>205.5</ele><time>2026-04-03T12:52:04.051Z</time></trkpt><trkpt lat="43.503653" lon="11.8124426"><ele>205.66666666666669</ele><time>2026-04-03T12:52:05.055Z</time></trkpt><trkpt lat="43.5036543" lon="11.8123179"><ele>205.83333333333334</ele><time>2026-04-03T12:52:06.053Z</time></trkpt><trkpt lat="43.5036616" lon="11.8121942"><ele>206.0</ele><time>2026-04-03T12:52:07.052Z</time></trkpt><trkpt lat="43.5036672" lon="11.8120685"><ele>206.0</ele><time>2026-04-03T12:52:08.053Z</time></trkpt><trkpt lat="43.5036773" lon="11.8119391"><ele>206.0</ele><time>2026-04-03T12:52:09.048Z</time></trkpt><trkpt lat="43.5036835" lon="11.8118116"><ele>206.0</ele><time>2026-04-03T12:52:10.059Z</time></trkpt><trkpt lat="43.5036845" lon="11.8116856"><ele>206.0</ele><time>2026-04-03T12:52:11.055Z</time></trkpt><trkpt lat="43.5036797" lon="11.8115623"><ele>206.0</ele><time>2026-04-03T12:52:12.057Z</time></trkpt><trkpt lat="43.5036761" lon="11.8114436"><ele>205.83333333333334</ele><time>2026-04-03T12:52:13.052Z</time></trkpt><trkpt lat="43.5036755" lon="11.8113399"><ele>205.66666666666669</ele><time>2026-04-03T12:52:14.056Z</time></trkpt><trkpt lat="43.5036703" lon="11.8112408"><ele>205.5</ele><time>2026-04-03T12:52:15.068Z</time></trkpt><trkpt lat="43.5036628" lon="11.8111412"><ele>205.33333333333331</ele><time>2026-04-03T12:52:16.059Z</time></trkpt><trkpt lat="43.5036439" lon="11.8110393"><ele>205.16666666666666</ele><time>2026-04-03T12:52:17.047Z</time></trkpt><trkpt lat="43.5036186" lon="11.8109351"><ele>205.0</ele><time>2026-04-03T12:52:18.05Z</time></trkpt><trkpt lat="43.5035906" lon="11.8108289"><ele>204.83333333333331</ele><time>2026-04-03T12:52:19.047Z</time></trkpt><trkpt lat="43.503559" lon="11.8107168"><ele>204.66666666666666</ele><time>2026-04-03T12:52:20.06Z</time></trkpt><trkpt lat="43.5035334" lon="11.8106025"><ele>204.5</ele><time>2026-04-03T12:52:21.05Z</time></trkpt><trkpt lat="43.5035121" lon="11.8104871"><ele>204.33333333333331</ele><time>2026-04-03T12:52:22.053Z</time></trkpt><trkpt lat="43.5035021" lon="11.8103708"><ele>204.16666666666666</ele><time>2026-04-03T12:52:23.047Z</time></trkpt><trkpt lat="43.5035054" lon="11.8102516"><ele>204.0</ele><time>2026-04-03T12:52:24.06Z</time></trkpt><trkpt lat="43.5035131" lon="11.8101364"><ele>204.0</ele><time>2026-04-03T12:52:25.058Z</time></trkpt><trkpt lat="43.5035277" lon="11.8100226"><ele>204.0</ele><time>2026-04-03T12:52:26.059Z</time></trkpt><trkpt lat="43.5035434" lon="11.8099105"><ele>204.0</ele><time>2026-04-03T12:52:27.052Z</time></trkpt><trkpt lat="43.5035623" lon="11.8097987"><ele>204.0</ele><time>2026-04-03T12:52:28.053Z</time></trkpt><trkpt lat="43.5035761" lon="11.8096841"><ele>204.0</ele><time>2026-04-03T12:52:29.034Z</time></trkpt><trkpt lat="43.5035858" lon="11.8095727"><ele>204.0</ele><time>2026-04-03T12:52:30.063Z</time></trkpt><trkpt lat="43.5035885" lon="11.8094566"><ele>204.0</ele><time>2026-04-03T12:52:31.048Z</time></trkpt><trkpt lat="43.5035837" lon="11.8093485"><ele>204.0</ele><time>2026-04-03T12:52:32.056Z</time></trkpt><trkpt lat="43.5035626" lon="11.8092553"><ele>204.0</ele><time>2026-04-03T12:52:33.049Z</time></trkpt><trkpt lat="43.5035297" lon="11.8091661"><ele>204.0</ele><time>2026-04-03T12:52:34.063Z</time></trkpt><trkpt lat="43.5034967" lon="11.8090821"><ele>204.0</ele><time>2026-04-03T12:52:35.047Z</time></trkpt><trkpt lat="43.5034728" lon="11.8089838"><ele>204.0</ele><time>2026-04-03T12:52:36.056Z</time></trkpt><trkpt lat="43.5034573" lon="11.8088798"><ele>204.0</ele><time>2026-04-03T12:52:37.051Z</time></trkpt><trkpt lat="43.5034518" lon="11.8087751"><ele>204.16666666666666</ele><time>2026-04-03T12:52:38.062Z</time></trkpt><trkpt lat="43.5034424" lon="11.8086678"><ele>204.33333333333331</ele><time>2026-04-03T12:52:39.052Z</time></trkpt><trkpt lat="43.5034303" lon="11.8085561"><ele>204.5</ele><time>2026-04-03T12:52:40.065Z</time></trkpt><trkpt lat="43.5034163" lon="11.8084437"><ele>204.66666666666666</ele><time>2026-04-03T12:52:41.049Z</time></trkpt><trkpt lat="43.5034054" lon="11.8083381"><ele>204.83333333333331</ele><time>2026-04-03T12:52:42.057Z</time></trkpt><trkpt lat="43.5033936" lon="11.8082393"><ele>205.0</ele><time>2026-04-03T12:52:43.056Z</time></trkpt><trkpt lat="43.5033821" lon="11.8081429"><ele>205.14285714285714</ele><time>2026-04-03T12:52:44.051Z</time></trkpt><trkpt lat="43.5033732" lon="11.8080425"><ele>205.28571428571428</ele><time>2026-04-03T12:52:45.048Z</time></trkpt><trkpt lat="43.5033789" lon="11.8079504"><ele>205.42857142857142</ele><time>2026-04-03T12:52:46.061Z</time></trkpt><trkpt lat="43.5033952" lon="11.8078631"><ele>205.57142857142856</ele><time>2026-04-03T12:52:47.058Z</time></trkpt><trkpt lat="43.5033995" lon="11.8077732"><ele>205.71428571428572</ele><time>2026-04-03T12:52:48.052Z</time></trkpt><trkpt lat="43.5033943" lon="11.807677"><ele>205.85714285714283</ele><time>2026-04-03T12:52:49.042Z</time></trkpt><trkpt lat="43.5033861" lon="11.8075736"><ele>206.0</ele><time>2026-04-03T12:52:50.06Z</time></trkpt><trkpt lat="43.5033772" lon="11.807464"><ele>205.7142857142857</ele><time>2026-04-03T12:52:51.042Z</time></trkpt><trkpt lat="43.5033559" lon="11.8073545"><ele>205.42857142857142</ele><time>2026-04-03T12:52:52.045Z</time></trkpt><trkpt lat="43.5033311" lon="11.8072516"><ele>205.14285714285714</ele><time>2026-04-03T12:52:53.049Z</time></trkpt><trkpt lat="43.503301" lon="11.8071609"><ele>204.85714285714283</ele><time>2026-04-03T12:52:54.052Z</time></trkpt><trkpt lat="43.5032695" lon="11.8070765"><ele>204.57142857142858</ele><time>2026-04-03T12:52:55.041Z</time></trkpt><trkpt lat="43.5032311" lon="11.8069915"><ele>204.28571428571428</ele><time>2026-04-03T12:52:56.051Z</time></trkpt><trkpt lat="43.503188" lon="11.8069252"><ele>204.0</ele><time>2026-04-03T12:52:57.051Z</time></trkpt><trkpt lat="43.5030991" lon="11.8068606"><ele>204.0</ele><time>2026-04-03T12:52:59.044Z</time></trkpt><trkpt lat="43.5030269" lon="11.8068651"><ele>204.0</ele><time>2026-04-03T12:53:02.056Z</time></trkpt><trkpt lat="43.5029691" lon="11.8068227"><ele>204.0</ele><time>2026-04-03T12:53:04.065Z</time></trkpt><trkpt lat="43.5028955" lon="11.8067776"><ele>204.0</ele><time>2026-04-03T12:53:06.047Z</time></trkpt><trkpt lat="43.5027856" lon="11.8067215"><ele>204.0</ele><time>2026-04-03T12:53:08.06Z</time></trkpt><trkpt lat="43.5026696" lon="11.8066782"><ele>204.28571428571428</ele><time>2026-04-03T12:53:10.061Z</time></trkpt><trkpt lat="43.5026084" lon="11.8066516"><ele>204.57142857142858</ele><time>2026-04-03T12:53:11.041Z</time></trkpt><trkpt lat="43.5025463" lon="11.8066271"><ele>204.85714285714283</ele><time>2026-04-03T12:53:12.059Z</time></trkpt><trkpt lat="43.5024829" lon="11.8065992"><ele>205.14285714285714</ele><time>2026-04-03T12:53:13.055Z</time></trkpt><trkpt lat="43.5024218" lon="11.8065587"><ele>205.42857142857142</ele><time>2026-04-03T12:53:14.05Z</time></trkpt><trkpt lat="43.5023624" lon="11.8065082"><ele>205.7142857142857</ele><time>2026-04-03T12:53:15.054Z</time></trkpt><trkpt lat="43.5023065" lon="11.8064492"><ele>206.0</ele><time>2026-04-03T12:53:16.056Z</time></trkpt><trkpt lat="43.5022514" lon="11.8063873"><ele>206.00000000000003</ele><time>2026-04-03T12:53:17.042Z</time></trkpt><trkpt lat="43.5021946" lon="11.8063196"><ele>206.0</ele><time>2026-04-03T12:53:18.059Z</time></trkpt><trkpt lat="43.5021454" lon="11.8062473"><ele>206.0</ele><time>2026-04-03T12:53:19.05Z</time></trkpt><trkpt lat="43.5020828" lon="11.8061425"><ele>206.0</ele><time>2026-04-03T12:53:21.056Z</time></trkpt><trkpt lat="43.5020379" lon="11.8060549"><ele>206.00000000000003</ele><time>2026-04-03T12:53:24.058Z</time></trkpt><trkpt lat="43.5019955" lon="11.8059835"><ele>206.0</ele><time>2026-04-03T12:53:27.039Z</time></trkpt><trkpt lat="43.5019406" lon="11.8059233"><ele>206.14285714285714</ele><time>2026-04-03T12:53:29.054Z</time></trkpt><trkpt lat="43.5018593" lon="11.8058965"><ele>206.28571428571428</ele><time>2026-04-03T12:53:31.049Z</time></trkpt><trkpt lat="43.5017965" lon="11.8058855"><ele>206.42857142857144</ele><time>2026-04-03T12:53:32.057Z</time></trkpt><trkpt lat="43.5017292" lon="11.8058937"><ele>206.57142857142856</ele><time>2026-04-03T12:53:33.057Z</time></trkpt><trkpt lat="43.5016627" lon="11.8059195"><ele>206.71428571428572</ele><time>2026-04-03T12:53:34.056Z</time></trkpt><trkpt lat="43.5015883" lon="11.8059427"><ele>206.85714285714286</ele><time>2026-04-03T12:53:35.061Z</time></trkpt><trkpt lat="43.5015107" lon="11.8059752"><ele>207.0</ele><time>2026-04-03T12:53:36.058Z</time></trkpt><trkpt lat="43.5014371" lon="11.8060104"><ele>207.0</ele><time>2026-04-03T12:53:37.051Z</time></trkpt><trkpt lat="43.5013676" lon="11.8060393"><ele>207.0</ele><time>2026-04-03T12:53:38.044Z</time></trkpt><trkpt lat="43.5012714" lon="11.80607"><ele>207.0</ele><time>2026-04-03T12:53:40.055Z</time></trkpt><trkpt lat="43.5012408" lon="11.8059503"><ele>207.0</ele><time>2026-04-03T12:53:43.033Z</time></trkpt><trkpt lat="43.5012811" lon="11.8058479"><ele>207.0</ele><time>2026-04-03T12:53:45.039Z</time></trkpt><trkpt lat="43.5012752" lon="11.8056936"><ele>207.0</ele><time>2026-04-03T12:53:47.055Z</time></trkpt><trkpt lat="43.5012612" lon="11.8055933"><ele>207.0</ele><time>2026-04-03T12:53:48.052Z</time></trkpt><trkpt lat="43.5012432" lon="11.8054741"><ele>207.0</ele><time>2026-04-03T12:53:49.055Z</time></trkpt><trkpt lat="43.5012251" lon="11.8053443"><ele>207.0</ele><time>2026-04-03T12:53:50.046Z</time></trkpt><trkpt lat="43.501205" lon="11.8052085"><ele>207.0</ele><time>2026-04-03T12:53:51.051Z</time></trkpt><trkpt lat="43.5011864" lon="11.8050799"><ele>207.33333333333334</ele><time>2026-04-03T12:53:52.052Z</time></trkpt><trkpt lat="43.501178" lon="11.8049516"><ele>207.66666666666669</ele><time>2026-04-03T12:53:53.053Z</time></trkpt><trkpt lat="43.5011682" lon="11.8048312"><ele>208.0</ele><time>2026-04-03T12:53:54.046Z</time></trkpt><trkpt lat="43.5011497" lon="11.8047401"><ele>208.33333333333334</ele><time>2026-04-03T12:53:55.044Z</time></trkpt><trkpt lat="43.501112" lon="11.8046381"><ele>208.66666666666669</ele><time>2026-04-03T12:53:57.052Z</time></trkpt><trkpt lat="43.5011132" lon="11.804549"><ele>209.0</ele><time>2026-04-03T12:53:59.044Z</time></trkpt><trkpt lat="43.5011286" lon="11.8044612"><ele>209.0</ele><time>2026-04-03T12:54:00.046Z</time></trkpt><trkpt lat="43.501146" lon="11.8043549"><ele>209.0</ele><time>2026-04-03T12:54:01.044Z</time></trkpt><trkpt lat="43.5011592" lon="11.804235"><ele>209.0</ele><time>2026-04-03T12:54:02.053Z</time></trkpt><trkpt lat="43.5011742" lon="11.8041067"><ele>209.0</ele><time>2026-04-03T12:54:03.048Z</time></trkpt><trkpt lat="43.5011882" lon="11.8039577"><ele>209.0</ele><time>2026-04-03T12:54:04.05Z</time></trkpt><trkpt lat="43.5012056" lon="11.8037998"><ele>208.5</ele><time>2026-04-03T12:54:05.043Z</time></trkpt><trkpt lat="43.5012334" lon="11.8036373"><ele>208.0</ele><time>2026-04-03T12:54:06.057Z</time></trkpt><trkpt lat="43.5012718" lon="11.8034737"><ele>207.5</ele><time>2026-04-03T12:54:07.055Z</time></trkpt><trkpt lat="43.5013207" lon="11.8033126"><ele>207.0</ele><time>2026-04-03T12:54:08.046Z</time></trkpt><trkpt lat="43.501377" lon="11.8031619"><ele>207.0</ele><time>2026-04-03T12:54:09.046Z</time></trkpt><trkpt lat="43.5014336" lon="11.8030358"><ele>207.0</ele><time>2026-04-03T12:54:10.041Z</time></trkpt><trkpt lat="43.5014928" lon="11.8029284"><ele>207.0</ele><time>2026-04-03T12:54:11.044Z</time></trkpt><trkpt lat="43.5015605" lon="11.8028289"><ele>207.0</ele><time>2026-04-03T12:54:12.056Z</time></trkpt><trkpt lat="43.5016361" lon="11.8027246"><ele>207.0</ele><time>2026-04-03T12:54:13.049Z</time></trkpt><trkpt lat="43.5017167" lon="11.8026188"><ele>206.6</ele><time>2026-04-03T12:54:14.057Z</time></trkpt><trkpt lat="43.5018065" lon="11.802517"><ele>206.2</ele><time>2026-04-03T12:54:15.051Z</time></trkpt><trkpt lat="43.5018956" lon="11.8024227"><ele>205.8</ele><time>2026-04-03T12:54:16.065Z</time></trkpt><trkpt lat="43.5019902" lon="11.8023568"><ele>205.4</ele><time>2026-04-03T12:54:17.057Z</time></trkpt><trkpt lat="43.5020933" lon="11.802323"><ele>205.0</ele><time>2026-04-03T12:54:18.068Z</time></trkpt><trkpt lat="43.5022011" lon="11.8023254"><ele>204.75</ele><time>2026-04-03T12:54:19.058Z</time></trkpt><trkpt lat="43.502314" lon="11.8023659"><ele>204.5</ele><time>2026-04-03T12:54:20.05Z</time></trkpt><trkpt lat="43.5024257" lon="11.8024262"><ele>204.25</ele><time>2026-04-03T12:54:21.044Z</time></trkpt><trkpt lat="43.5025409" lon="11.8024895"><ele>204.0</ele><time>2026-04-03T12:54:22.054Z</time></trkpt><trkpt lat="43.5026566" lon="11.8025548"><ele>204.0</ele><time>2026-04-03T12:54:23.051Z</time></trkpt><trkpt lat="43.5027749" lon="11.8026231"><ele>204.0</ele><time>2026-04-03T12:54:24.048Z</time></trkpt><trkpt lat="43.5028956" lon="11.8026895"><ele>204.0</ele><time>2026-04-03T12:54:25.055Z</time></trkpt><trkpt lat="43.5030205" lon="11.8027461"><ele>204.0</ele><time>2026-04-03T12:54:26.054Z</time></trkpt><trkpt lat="43.5031539" lon="11.8027837"><ele>203.5</ele><time>2026-04-03T12:54:27.045Z</time></trkpt><trkpt lat="43.5032904" lon="11.8027952"><ele>203.0</ele><time>2026-04-03T12:54:28.048Z</time></trkpt><trkpt lat="43.5034232" lon="11.8027872"><ele>202.5</ele><time>2026-04-03T12:54:29.043Z</time></trkpt><trkpt lat="43.5035485" lon="11.8027407"><ele>202.0</ele><time>2026-04-03T12:54:30.05Z</time></trkpt><trkpt lat="43.5036653" lon="11.8026774"><ele>202.75</ele><time>2026-04-03T12:54:31.045Z</time></trkpt><trkpt lat="43.5037796" lon="11.8026104"><ele>203.5</ele><time>2026-04-03T12:54:32.038Z</time></trkpt><trkpt lat="43.5038938" lon="11.802549"><ele>204.25</ele><time>2026-04-03T12:54:33.054Z</time></trkpt><trkpt lat="43.504009" lon="11.8024984"><ele>205.0</ele><time>2026-04-03T12:54:34.051Z</time></trkpt><trkpt lat="43.5041197" lon="11.8024379"><ele>205.0</ele><time>2026-04-03T12:54:35.048Z</time></trkpt><trkpt lat="43.5042235" lon="11.8023759"><ele>205.0</ele><time>2026-04-03T12:54:36.05Z</time></trkpt><trkpt lat="43.5043198" lon="11.8023168"><ele>205.0</ele><time>2026-04-03T12:54:37.049Z</time></trkpt><trkpt lat="43.5044096" lon="11.8022604"><ele>205.0</ele><time>2026-04-03T12:54:38.04Z</time></trkpt><trkpt lat="43.5044941" lon="11.8022112"><ele>205.0</ele><time>2026-04-03T12:54:39.043Z</time></trkpt><trkpt lat="43.5045626" lon="11.8021699"><ele>205.33333333333331</ele><time>2026-04-03T12:54:40.044Z</time></trkpt><trkpt lat="43.5046591" lon="11.8021127"><ele>205.66666666666666</ele><time>2026-04-03T12:54:42.048Z</time></trkpt><trkpt lat="43.5047177" lon="11.8020766"><ele>206.0</ele><time>2026-04-03T12:54:45.057Z</time></trkpt><trkpt lat="43.5047699" lon="11.802013"><ele>206.33333333333331</ele><time>2026-04-03T12:55:45.048Z</time></trkpt><trkpt lat="43.5048484" lon="11.8019613"><ele>206.66666666666666</ele><time>2026-04-03T12:55:46.066Z</time></trkpt><trkpt lat="43.5049424" lon="11.8018878"><ele>207.0</ele><time>2026-04-03T12:55:47.06Z</time></trkpt><trkpt lat="43.50505" lon="11.8018141"><ele>207.0</ele><time>2026-04-03T12:55:48.055Z</time></trkpt><trkpt lat="43.5051697" lon="11.8017479"><ele>207.0</ele><time>2026-04-03T12:55:49.053Z</time></trkpt><trkpt lat="43.5052965" lon="11.8016871"><ele>207.0</ele><time>2026-04-03T12:55:50.05Z</time></trkpt><trkpt lat="43.5054172" lon="11.8016167"><ele>207.0</ele><time>2026-04-03T12:55:51.057Z</time></trkpt><trkpt lat="43.5055326" lon="11.8015455"><ele>207.0</ele><time>2026-04-03T12:55:52.064Z</time></trkpt><trkpt lat="43.5056444" lon="11.8014821"><ele>207.0</ele><time>2026-04-03T12:55:53.048Z</time></trkpt><trkpt lat="43.5057538" lon="11.8014199"><ele>207.0</ele><time>2026-04-03T12:55:54.058Z</time></trkpt><trkpt lat="43.505861" lon="11.8013496"><ele>207.0</ele><time>2026-04-03T12:55:55.055Z</time></trkpt><trkpt lat="43.5059578" lon="11.8012649"><ele>207.0</ele><time>2026-04-03T12:55:56.056Z</time></trkpt><trkpt lat="43.5060359" lon="11.8011558"><ele>207.0</ele><time>2026-04-03T12:55:57.048Z</time></trkpt><trkpt lat="43.506092" lon="11.8010189"><ele>207.0</ele><time>2026-04-03T12:55:58.06Z</time></trkpt><trkpt lat="43.5061239" lon="11.8008681"><ele>207.0</ele><time>2026-04-03T12:55:59.05Z</time></trkpt><trkpt lat="43.5061351" lon="11.8007033"><ele>206.25</ele><time>2026-04-03T12:56:00.054Z</time></trkpt><trkpt lat="43.5061415" lon="11.8005291"><ele>205.5</ele><time>2026-04-03T12:56:01.056Z</time></trkpt><trkpt lat="43.5061452" lon="11.8003386"><ele>204.75</ele><time>2026-04-03T12:56:02.05Z</time></trkpt><trkpt lat="43.5061503" lon="11.8001474"><ele>204.0</ele><time>2026-04-03T12:56:03.046Z</time></trkpt><trkpt lat="43.5061543" lon="11.7999572"><ele>204.0</ele><time>2026-04-03T12:56:04.053Z</time></trkpt><trkpt lat="43.5061484" lon="11.7997752"><ele>204.0</ele><time>2026-04-03T12:56:05.039Z</time></trkpt><trkpt lat="43.5061152" lon="11.799592"><ele>204.0</ele><time>2026-04-03T12:56:06.048Z</time></trkpt><trkpt lat="43.5060523" lon="11.7994332"><ele>204.0</ele><time>2026-04-03T12:56:07.043Z</time></trkpt><trkpt lat="43.5059696" lon="11.7992894"><ele>204.16666666666666</ele><time>2026-04-03T12:56:08.042Z</time></trkpt><trkpt lat="43.5058927" lon="11.7991607"><ele>204.33333333333331</ele><time>2026-04-03T12:56:09.04Z</time></trkpt><trkpt lat="43.505845" lon="11.7990527"><ele>204.5</ele><time>2026-04-03T12:56:10.042Z</time></trkpt><trkpt lat="43.5058174" lon="11.7989401"><ele>204.66666666666666</ele><time>2026-04-03T12:56:11.049Z</time></trkpt><trkpt lat="43.5058261" lon="11.7988421"><ele>204.83333333333331</ele><time>2026-04-03T12:56:12.044Z</time></trkpt><trkpt lat="43.5058656" lon="11.7987615"><ele>205.0</ele><time>2026-04-03T12:56:13.045Z</time></trkpt><trkpt lat="43.5059391" lon="11.7987014"><ele>205.0</ele><time>2026-04-03T12:56:14.041Z</time></trkpt><trkpt lat="43.5060358" lon="11.7986384"><ele>205.0</ele><time>2026-04-03T12:56:15.036Z</time></trkpt><trkpt lat="43.5061491" lon="11.7985803"><ele>205.0</ele><time>2026-04-03T12:56:16.047Z</time></trkpt><trkpt lat="43.506281" lon="11.7985308"><ele>205.0</ele><time>2026-04-03T12:56:17.042Z</time></trkpt><trkpt lat="43.5064244" lon="11.7984796"><ele>205.5</ele><time>2026-04-03T12:56:18.047Z</time></trkpt><trkpt lat="43.5065726" lon="11.7984476"><ele>206.0</ele><time>2026-04-03T12:56:19.055Z</time></trkpt><trkpt lat="43.5067014" lon="11.79844"><ele>206.5</ele><time>2026-04-03T12:56:20.053Z</time></trkpt><trkpt lat="43.5068159" lon="11.7984415"><ele>207.0</ele><time>2026-04-03T12:56:21.052Z</time></trkpt><trkpt lat="43.5069184" lon="11.7984174"><ele>207.0</ele><time>2026-04-03T12:56:22.063Z</time></trkpt><trkpt lat="43.5070002" lon="11.7983607"><ele>207.0</ele><time>2026-04-03T12:56:23.044Z</time></trkpt><trkpt lat="43.5070555" lon="11.7982663"><ele>207.0</ele><time>2026-04-03T12:56:24.054Z</time></trkpt><trkpt lat="43.5070838" lon="11.7981362"><ele>207.0</ele><time>2026-04-03T12:56:25.05Z</time></trkpt><trkpt lat="43.5070852" lon="11.7979774"><ele>207.0</ele><time>2026-04-03T12:56:26.062Z</time></trkpt><trkpt lat="43.5070708" lon="11.7977901"><ele>207.33333333333331</ele><time>2026-04-03T12:56:27.057Z</time></trkpt><trkpt lat="43.5070567" lon="11.7975857"><ele>207.66666666666666</ele><time>2026-04-03T12:56:28.046Z</time></trkpt><trkpt lat="43.5070504" lon="11.7973705"><ele>208.0</ele><time>2026-04-03T12:56:29.046Z</time></trkpt><trkpt lat="43.5070489" lon="11.7971562"><ele>208.0</ele><time>2026-04-03T12:56:30.052Z</time></trkpt><trkpt lat="43.5070403" lon="11.7969419"><ele>208.0</ele><time>2026-04-03T12:56:31.052Z</time></trkpt><trkpt lat="43.5070333" lon="11.7967248"><ele>208.0</ele><time>2026-04-03T12:56:32.047Z</time></trkpt><trkpt lat="43.5070271" lon="11.7964991"><ele>207.33333333333331</ele><time>2026-04-03T12:56:33.044Z</time></trkpt><trkpt lat="43.5070179" lon="11.7962555"><ele>206.66666666666669</ele><time>2026-04-03T12:56:34.053Z</time></trkpt><trkpt lat="43.5070104" lon="11.7960015"><ele>206.0</ele><time>2026-04-03T12:56:35.039Z</time></trkpt><trkpt lat="43.5070012" lon="11.7957458"><ele>206.0</ele><time>2026-04-03T12:56:36.047Z</time></trkpt><trkpt lat="43.5069927" lon="11.7954892"><ele>206.0</ele><time>2026-04-03T12:56:37.05Z</time></trkpt><trkpt lat="43.5069818" lon="11.7952322"><ele>206.0</ele><time>2026-04-03T12:56:38.051Z</time></trkpt><trkpt lat="43.5069679" lon="11.7949811"><ele>206.0</ele><time>2026-04-03T12:56:39.061Z</time></trkpt><trkpt lat="43.506961" lon="11.794734"><ele>206.0</ele><time>2026-04-03T12:56:40.045Z</time></trkpt><trkpt lat="43.5069585" lon="11.7944953"><ele>206.0</ele><time>2026-04-03T12:56:41.053Z</time></trkpt><trkpt lat="43.5069696" lon="11.794265"><ele>206.0</ele><time>2026-04-03T12:56:42.052Z</time></trkpt><trkpt lat="43.5070087" lon="11.7940462"><ele>206.0</ele><time>2026-04-03T12:56:43.039Z</time></trkpt><trkpt lat="43.5070592" lon="11.7938419"><ele>206.0</ele><time>2026-04-03T12:56:44.042Z</time></trkpt><trkpt lat="43.5070955" lon="11.793621"><ele>207.66666666666669</ele><time>2026-04-03T12:56:45.043Z</time></trkpt><trkpt lat="43.5071147" lon="11.7933855"><ele>209.33333333333331</ele><time>2026-04-03T12:56:46.054Z</time></trkpt><trkpt lat="43.5071377" lon="11.7931523"><ele>211.0</ele><time>2026-04-03T12:56:47.036Z</time></trkpt><trkpt lat="43.5071493" lon="11.7929199"><ele>211.0</ele><time>2026-04-03T12:56:48.047Z</time></trkpt><trkpt lat="43.5071367" lon="11.7926835"><ele>211.0</ele><time>2026-04-03T12:56:49.045Z</time></trkpt><trkpt lat="43.5070825" lon="11.7924663"><ele>211.0</ele><time>2026-04-03T12:56:50.061Z</time></trkpt><trkpt lat="43.5069912" lon="11.7922544"><ele>210.66666666666666</ele><time>2026-04-03T12:56:51.043Z</time></trkpt><trkpt lat="43.5068795" lon="11.7920637"><ele>210.33333333333331</ele><time>2026-04-03T12:56:52.049Z</time></trkpt><trkpt lat="43.5067562" lon="11.7918846"><ele>210.0</ele><time>2026-04-03T12:56:53.039Z</time></trkpt><trkpt lat="43.506628" lon="11.7917028"><ele>209.66666666666669</ele><time>2026-04-03T12:56:54.044Z</time></trkpt><trkpt lat="43.5064981" lon="11.7915164"><ele>209.33333333333334</ele><time>2026-04-03T12:56:55.041Z</time></trkpt><trkpt lat="43.5063681" lon="11.7913268"><ele>209.0</ele><time>2026-04-03T12:56:56.042Z</time></trkpt><trkpt lat="43.5062378" lon="11.7911399"><ele>213.33333333333334</ele><time>2026-04-03T12:56:57.043Z</time></trkpt><trkpt lat="43.5061119" lon="11.7909635"><ele>217.66666666666669</ele><time>2026-04-03T12:56:58.05Z</time></trkpt><trkpt lat="43.5059997" lon="11.7908056"><ele>222.0</ele><time>2026-04-03T12:56:59.054Z</time></trkpt><trkpt lat="43.5058972" lon="11.7906567"><ele>222.0</ele><time>2026-04-03T12:57:00.04Z</time></trkpt><trkpt lat="43.505799" lon="11.7905136"><ele>222.0</ele><time>2026-04-03T12:57:01.047Z</time></trkpt><trkpt lat="43.5057009" lon="11.7903687"><ele>222.0</ele><time>2026-04-03T12:57:02.051Z</time></trkpt><trkpt lat="43.505608" lon="11.790223"><ele>222.0</ele><time>2026-04-03T12:57:03.046Z</time></trkpt><trkpt lat="43.5055269" lon="11.7900713"><ele>220.5</ele><time>2026-04-03T12:57:04.056Z</time></trkpt><trkpt lat="43.5054636" lon="11.7899013"><ele>219.0</ele><time>2026-04-03T12:57:05.042Z</time></trkpt><trkpt lat="43.5054189" lon="11.7897102"><ele>217.5</ele><time>2026-04-03T12:57:06.042Z</time></trkpt><trkpt lat="43.5053941" lon="11.7895095"><ele>216.0</ele><time>2026-04-03T12:57:07.035Z</time></trkpt><trkpt lat="43.5053739" lon="11.7893051"><ele>215.75</ele><time>2026-04-03T12:57:08.065Z</time></trkpt><trkpt lat="43.505363" lon="11.7890984"><ele>215.5</ele><time>2026-04-03T12:57:09.051Z</time></trkpt><trkpt lat="43.5053718" lon="11.7888962"><ele>215.25</ele><time>2026-04-03T12:57:10.05Z</time></trkpt><trkpt lat="43.5054138" lon="11.788699"><ele>215.0</ele><time>2026-04-03T12:57:11.044Z</time></trkpt><trkpt lat="43.5054865" lon="11.7885124"><ele>221.33333333333334</ele><time>2026-04-03T12:57:12.047Z</time></trkpt><trkpt lat="43.5055917" lon="11.7883391"><ele>227.66666666666669</ele><time>2026-04-03T12:57:13.034Z</time></trkpt><trkpt lat="43.5057125" lon="11.7881795"><ele>234.0</ele><time>2026-04-03T12:57:14.048Z</time></trkpt><trkpt lat="43.5058385" lon="11.7880137"><ele>234.0</ele><time>2026-04-03T12:57:15.04Z</time></trkpt><trkpt lat="43.5059727" lon="11.7878459"><ele>234.0</ele><time>2026-04-03T12:57:16.049Z</time></trkpt><trkpt lat="43.506107" lon="11.7876713"><ele>234.0</ele><time>2026-04-03T12:57:17.054Z</time></trkpt><trkpt lat="43.5062416" lon="11.7874899"><ele>234.0</ele><time>2026-04-03T12:57:18.049Z</time></trkpt><trkpt lat="43.5063792" lon="11.7873078"><ele>234.0</ele><time>2026-04-03T12:57:19.057Z</time></trkpt><trkpt lat="43.5065183" lon="11.7871231"><ele>234.0</ele><time>2026-04-03T12:57:20.056Z</time></trkpt><trkpt lat="43.5066591" lon="11.7869393"><ele>234.0</ele><time>2026-04-03T12:57:21.043Z</time></trkpt><trkpt lat="43.5067993" lon="11.7867503"><ele>234.0</ele><time>2026-04-03T12:57:22.052Z</time></trkpt><trkpt lat="43.5069421" lon="11.7865678"><ele>234.0</ele><time>2026-04-03T12:57:23.051Z</time></trkpt><trkpt lat="43.5070802" lon="11.7863861"><ele>235.33333333333331</ele><time>2026-04-03T12:57:24.061Z</time></trkpt><trkpt lat="43.5072173" lon="11.7862026"><ele>236.66666666666666</ele><time>2026-04-03T12:57:25.055Z</time></trkpt><trkpt lat="43.5073553" lon="11.7860199"><ele>238.0</ele><time>2026-04-03T12:57:26.051Z</time></trkpt><trkpt lat="43.5074905" lon="11.7858449"><ele>238.0</ele><time>2026-04-03T12:57:27.044Z</time></trkpt><trkpt lat="43.5076224" lon="11.7856711"><ele>238.0</ele><time>2026-04-03T12:57:28.044Z</time></trkpt><trkpt lat="43.507752" lon="11.7855024"><ele>238.0</ele><time>2026-04-03T12:57:29.058Z</time></trkpt><trkpt lat="43.507884" lon="11.7853371"><ele>238.33333333333331</ele><time>2026-04-03T12:57:30.056Z</time></trkpt><trkpt lat="43.5080122" lon="11.7851735"><ele>238.66666666666669</ele><time>2026-04-03T12:57:31.046Z</time></trkpt><trkpt lat="43.5081369" lon="11.7850081"><ele>239.0</ele><time>2026-04-03T12:57:32.057Z</time></trkpt><trkpt lat="43.5082601" lon="11.7848409"><ele>239.0</ele><time>2026-04-03T12:57:33.046Z</time></trkpt><trkpt lat="43.5083857" lon="11.7846739"><ele>239.0</ele><time>2026-04-03T12:57:34.047Z</time></trkpt><trkpt lat="43.5085104" lon="11.7845077"><ele>239.0</ele><time>2026-04-03T12:57:35.064Z</time></trkpt><trkpt lat="43.5086312" lon="11.784342"><ele>238.66666666666669</ele><time>2026-04-03T12:57:36.055Z</time></trkpt><trkpt lat="43.508749" lon="11.7841699"><ele>238.33333333333331</ele><time>2026-04-03T12:57:37.057Z</time></trkpt><trkpt lat="43.5088603" lon="11.7839843"><ele>238.0</ele><time>2026-04-03T12:57:38.054Z</time></trkpt><trkpt lat="43.5089642" lon="11.7837814"><ele>238.0</ele><time>2026-04-03T12:57:39.039Z</time></trkpt><trkpt lat="43.509066" lon="11.7835737"><ele>238.0</ele><time>2026-04-03T12:57:40.054Z</time></trkpt><trkpt lat="43.5091703" lon="11.7833672"><ele>238.0</ele><time>2026-04-03T12:57:41.053Z</time></trkpt><trkpt lat="43.5092763" lon="11.7831605"><ele>238.0</ele><time>2026-04-03T12:57:42.045Z</time></trkpt><trkpt lat="43.5093763" lon="11.7829657"><ele>238.0</ele><time>2026-04-03T12:57:43.051Z</time></trkpt><trkpt lat="43.509464" lon="11.7827989"><ele>238.0</ele><time>2026-04-03T12:57:44.058Z</time></trkpt><trkpt lat="43.5095421" lon="11.7826536"><ele>238.5</ele><time>2026-04-03T12:57:45.049Z</time></trkpt><trkpt lat="43.5096145" lon="11.7825195"><ele>239.0</ele><time>2026-04-03T12:57:46.045Z</time></trkpt><trkpt lat="43.5096948" lon="11.7823935"><ele>239.5</ele><time>2026-04-03T12:57:47.048Z</time></trkpt><trkpt lat="43.5097877" lon="11.782273"><ele>240.0</ele><time>2026-04-03T12:57:48.036Z</time></trkpt><trkpt lat="43.5098923" lon="11.7821665"><ele>240.0</ele><time>2026-04-03T12:57:49.029Z</time></trkpt><trkpt lat="43.5099895" lon="11.7820649"><ele>240.0</ele><time>2026-04-03T12:57:50.024Z</time></trkpt><trkpt lat="43.5100766" lon="11.7819856"><ele>240.0</ele><time>2026-04-03T12:57:51.032Z</time></trkpt><trkpt lat="43.5101271" lon="11.7819069"><ele>240.0</ele><time>2026-04-03T12:57:52.025Z</time></trkpt><trkpt lat="43.5101303" lon="11.7817959"><ele>240.0</ele><time>2026-04-03T12:57:53.022Z</time></trkpt><trkpt lat="43.5100856" lon="11.7816887"><ele>239.8</ele><time>2026-04-03T12:57:54.026Z</time></trkpt><trkpt lat="43.5100376" lon="11.7815769"><ele>239.6</ele><time>2026-04-03T12:57:55.035Z</time></trkpt><trkpt lat="43.510019" lon="11.7814524"><ele>239.39999999999998</ele><time>2026-04-03T12:57:56.047Z</time></trkpt><trkpt lat="43.5100309" lon="11.7813121"><ele>239.2</ele><time>2026-04-03T12:57:57.05Z</time></trkpt><trkpt lat="43.5100652" lon="11.7811677"><ele>239.0</ele><time>2026-04-03T12:57:58.054Z</time></trkpt><trkpt lat="43.5100922" lon="11.7810174"><ele>239.25</ele><time>2026-04-03T12:57:59.044Z</time></trkpt><trkpt lat="43.5101137" lon="11.7808628"><ele>239.5</ele><time>2026-04-03T12:58:00.04Z</time></trkpt><trkpt lat="43.5101098" lon="11.7807063"><ele>239.75</ele><time>2026-04-03T12:58:01.05Z</time></trkpt><trkpt lat="43.5100878" lon="11.7805416"><ele>240.0</ele><time>2026-04-03T12:58:02.052Z</time></trkpt><trkpt lat="43.5100538" lon="11.7803753"><ele>240.0</ele><time>2026-04-03T12:58:03.039Z</time></trkpt><trkpt lat="43.510014" lon="11.7802046"><ele>240.0</ele><time>2026-04-03T12:58:04.052Z</time></trkpt><trkpt lat="43.5099775" lon="11.7800176"><ele>240.0</ele><time>2026-04-03T12:58:05.049Z</time></trkpt><trkpt lat="43.5099396" lon="11.7798257"><ele>240.0</ele><time>2026-04-03T12:58:06.046Z</time></trkpt><trkpt lat="43.5099005" lon="11.7796221"><ele>240.33333333333331</ele><time>2026-04-03T12:58:07.036Z</time></trkpt><trkpt lat="43.5098642" lon="11.7794175"><ele>240.66666666666666</ele><time>2026-04-03T12:58:08.051Z</time></trkpt><trkpt lat="43.5098433" lon="11.7792039"><ele>241.0</ele><time>2026-04-03T12:58:09.047Z</time></trkpt><trkpt lat="43.5098485" lon="11.7789905"><ele>241.33333333333331</ele><time>2026-04-03T12:58:10.05Z</time></trkpt><trkpt lat="43.5098711" lon="11.7787754"><ele>241.66666666666669</ele><time>2026-04-03T12:58:11.059Z</time></trkpt><trkpt lat="43.5098964" lon="11.7785618"><ele>242.0</ele><time>2026-04-03T12:58:12.045Z</time></trkpt><trkpt lat="43.5099198" lon="11.7783539"><ele>242.66666666666669</ele><time>2026-04-03T12:58:13.042Z</time></trkpt><trkpt lat="43.5099342" lon="11.7781466"><ele>243.33333333333331</ele><time>2026-04-03T12:58:14.042Z</time></trkpt><trkpt lat="43.5099403" lon="11.7779373"><ele>244.0</ele><time>2026-04-03T12:58:15.053Z</time></trkpt><trkpt lat="43.50994" lon="11.7777296"><ele>244.33333333333331</ele><time>2026-04-03T12:58:16.058Z</time></trkpt><trkpt lat="43.5099487" lon="11.777518"><ele>244.66666666666669</ele><time>2026-04-03T12:58:17.054Z</time></trkpt><trkpt lat="43.5099635" lon="11.7773039"><ele>245.0</ele><time>2026-04-03T12:58:18.044Z</time></trkpt><trkpt lat="43.5099771" lon="11.7770916"><ele>245.0</ele><time>2026-04-03T12:58:19.037Z</time></trkpt><trkpt lat="43.5099791" lon="11.7768826"><ele>245.0</ele><time>2026-04-03T12:58:20.041Z</time></trkpt><trkpt lat="43.5099668" lon="11.7766632"><ele>245.0</ele><time>2026-04-03T12:58:21.044Z</time></trkpt><trkpt lat="43.5099535" lon="11.7764471"><ele>245.33333333333334</ele><time>2026-04-03T12:58:22.054Z</time></trkpt><trkpt lat="43.5099368" lon="11.7762274"><ele>245.66666666666669</ele><time>2026-04-03T12:58:23.051Z</time></trkpt><trkpt lat="43.5099197" lon="11.7759959"><ele>246.0</ele><time>2026-04-03T12:58:24.038Z</time></trkpt><trkpt lat="43.5099145" lon="11.77577"><ele>246.33333333333331</ele><time>2026-04-03T12:58:25.045Z</time></trkpt><trkpt lat="43.5099186" lon="11.775541"><ele>246.66666666666666</ele><time>2026-04-03T12:58:26.058Z</time></trkpt><trkpt lat="43.5099233" lon="11.7753179"><ele>247.0</ele><time>2026-04-03T12:58:27.046Z</time></trkpt><trkpt lat="43.509915" lon="11.7750921"><ele>248.0</ele><time>2026-04-03T12:58:28.056Z</time></trkpt><trkpt lat="43.5098769" lon="11.7748654"><ele>249.0</ele><time>2026-04-03T12:58:29.046Z</time></trkpt><trkpt lat="43.5098108" lon="11.7746638"><ele>250.0</ele><time>2026-04-03T12:58:30.041Z</time></trkpt><trkpt lat="43.5097361" lon="11.7744653"><ele>249.33333333333331</ele><time>2026-04-03T12:58:31.052Z</time></trkpt><trkpt lat="43.5096779" lon="11.7742706"><ele>248.66666666666669</ele><time>2026-04-03T12:58:32.043Z</time></trkpt><trkpt lat="43.5096424" lon="11.774059"><ele>248.0</ele><time>2026-04-03T12:58:33.05Z</time></trkpt><trkpt lat="43.5096173" lon="11.7738397"><ele>248.0</ele><time>2026-04-03T12:58:34.045Z</time></trkpt><trkpt lat="43.5095863" lon="11.7736163"><ele>248.0</ele><time>2026-04-03T12:58:35.039Z</time></trkpt><trkpt lat="43.5095533" lon="11.7733944"><ele>248.0</ele><time>2026-04-03T12:58:36.042Z</time></trkpt><trkpt lat="43.5095315" lon="11.7731701"><ele>246.66666666666669</ele><time>2026-04-03T12:58:37.044Z</time></trkpt><trkpt lat="43.5095278" lon="11.7729318"><ele>245.33333333333331</ele><time>2026-04-03T12:58:38.052Z</time></trkpt><trkpt lat="43.5095333" lon="11.7726878"><ele>244.0</ele><time>2026-04-03T12:58:39.048Z</time></trkpt><trkpt lat="43.5095398" lon="11.7724452"><ele>243.66666666666666</ele><time>2026-04-03T12:58:40.049Z</time></trkpt><trkpt lat="43.5095389" lon="11.7722068"><ele>243.33333333333331</ele><time>2026-04-03T12:58:41.064Z</time></trkpt><trkpt lat="43.5095386" lon="11.7719842"><ele>243.0</ele><time>2026-04-03T12:58:42.055Z</time></trkpt><trkpt lat="43.509539" lon="11.7717776"><ele>242.5</ele><time>2026-04-03T12:58:43.048Z</time></trkpt><trkpt lat="43.5095446" lon="11.7715857"><ele>242.0</ele><time>2026-04-03T12:58:44.053Z</time></trkpt><trkpt lat="43.509554" lon="11.7714087"><ele>241.5</ele><time>2026-04-03T12:58:45.052Z</time></trkpt><trkpt lat="43.5095661" lon="11.7712354"><ele>241.0</ele><time>2026-04-03T12:58:46.046Z</time></trkpt><trkpt lat="43.5096012" lon="11.7710652"><ele>240.25</ele><time>2026-04-03T12:58:47.055Z</time></trkpt><trkpt lat="43.5096443" lon="11.7709013"><ele>239.5</ele><time>2026-04-03T12:58:48.043Z</time></trkpt><trkpt lat="43.5096855" lon="11.7707477"><ele>238.75</ele><time>2026-04-03T12:58:49.052Z</time></trkpt><trkpt lat="43.5097168" lon="11.7706019"><ele>238.0</ele><time>2026-04-03T12:58:50.052Z</time></trkpt><trkpt lat="43.5097404" lon="11.7704506"><ele>238.0</ele><time>2026-04-03T12:58:51.042Z</time></trkpt><trkpt lat="43.5097521" lon="11.7702865"><ele>238.0</ele><time>2026-04-03T12:58:52.055Z</time></trkpt><trkpt lat="43.509759" lon="11.7701057"><ele>238.0</ele><time>2026-04-03T12:58:53.046Z</time></trkpt><trkpt lat="43.5097669" lon="11.7699126"><ele>238.0</ele><time>2026-04-03T12:58:54.054Z</time></trkpt><trkpt lat="43.5097761" lon="11.7697069"><ele>238.33333333333331</ele><time>2026-04-03T12:58:55.041Z</time></trkpt><trkpt lat="43.5097679" lon="11.7694926"><ele>238.66666666666669</ele><time>2026-04-03T12:58:56.055Z</time></trkpt><trkpt lat="43.5097427" lon="11.7692675"><ele>239.0</ele><time>2026-04-03T12:58:57.047Z</time></trkpt><trkpt lat="43.5097011" lon="11.7690354"><ele>239.33333333333334</ele><time>2026-04-03T12:58:58.053Z</time></trkpt><trkpt lat="43.5096487" lon="11.7688076"><ele>239.66666666666669</ele><time>2026-04-03T12:58:59.043Z</time></trkpt><trkpt lat="43.5095953" lon="11.7685981"><ele>240.0</ele><time>2026-04-03T12:59:00.049Z</time></trkpt><trkpt lat="43.5095462" lon="11.7684112"><ele>241.2</ele><time>2026-04-03T12:59:01.045Z</time></trkpt><trkpt lat="43.5095034" lon="11.7682525"><ele>242.4</ele><time>2026-04-03T12:59:02.046Z</time></trkpt><trkpt lat="43.5094744" lon="11.7681098"><ele>243.60000000000002</ele><time>2026-04-03T12:59:03.055Z</time></trkpt><trkpt lat="43.5094545" lon="11.7679841"><ele>244.8</ele><time>2026-04-03T12:59:04.039Z</time></trkpt><trkpt lat="43.509442" lon="11.7678678"><ele>246.0</ele><time>2026-04-03T12:59:05.044Z</time></trkpt><trkpt lat="43.509432" lon="11.7677466"><ele>246.20000000000002</ele><time>2026-04-03T12:59:06.043Z</time></trkpt><trkpt lat="43.509427" lon="11.7676114"><ele>246.40000000000003</ele><time>2026-04-03T12:59:07.053Z</time></trkpt><trkpt lat="43.5094202" lon="11.7674606"><ele>246.6</ele><time>2026-04-03T12:59:08.05Z</time></trkpt><trkpt lat="43.509404" lon="11.7673235"><ele>246.8</ele><time>2026-04-03T12:59:09.046Z</time></trkpt><trkpt lat="43.5093962" lon="11.7672055"><ele>247.0</ele><time>2026-04-03T12:59:10.044Z</time></trkpt><trkpt lat="43.509402" lon="11.7671061"><ele>246.99999999999997</ele><time>2026-04-03T12:59:11.053Z</time></trkpt><trkpt lat="43.5094485" lon="11.7670086"><ele>247.0</ele><time>2026-04-03T12:59:13.028Z</time></trkpt><trkpt lat="43.5095565" lon="11.7669791"><ele>247.0</ele><time>2026-04-03T12:59:15.052Z</time></trkpt><trkpt lat="43.5096247" lon="11.766967"><ele>247.0</ele><time>2026-04-03T12:59:16.046Z</time></trkpt><trkpt lat="43.5097063" lon="11.7669482"><ele>246.99999999999997</ele><time>2026-04-03T12:59:17.049Z</time></trkpt><trkpt lat="43.5097924" lon="11.7669287"><ele>247.0</ele><time>2026-04-03T12:59:18.062Z</time></trkpt><trkpt lat="43.5098819" lon="11.7669099"><ele>246.6</ele><time>2026-04-03T12:59:19.047Z</time></trkpt><trkpt lat="43.5099717" lon="11.7668883"><ele>246.2</ele><time>2026-04-03T12:59:20.062Z</time></trkpt><trkpt lat="43.5100598" lon="11.7668642"><ele>245.8</ele><time>2026-04-03T12:59:21.047Z</time></trkpt><trkpt lat="43.5101496" lon="11.7668364"><ele>245.4</ele><time>2026-04-03T12:59:22.046Z</time></trkpt><trkpt lat="43.5102421" lon="11.7668142"><ele>245.0</ele><time>2026-04-03T12:59:23.047Z</time></trkpt><trkpt lat="43.5103382" lon="11.7667917"><ele>245.2</ele><time>2026-04-03T12:59:24.053Z</time></trkpt><trkpt lat="43.5104362" lon="11.766757"><ele>245.4</ele><time>2026-04-03T12:59:25.052Z</time></trkpt><trkpt lat="43.5105283" lon="11.7667158"><ele>245.60000000000002</ele><time>2026-04-03T12:59:26.053Z</time></trkpt><trkpt lat="43.5106186" lon="11.7666722"><ele>245.8</ele><time>2026-04-03T12:59:27.051Z</time></trkpt><trkpt lat="43.5107086" lon="11.7666246"><ele>246.0</ele><time>2026-04-03T12:59:28.039Z</time></trkpt><trkpt lat="43.5108006" lon="11.7665742"><ele>246.0</ele><time>2026-04-03T12:59:29.03Z</time></trkpt><trkpt lat="43.5108891" lon="11.7665219"><ele>246.00000000000003</ele><time>2026-04-03T12:59:30.053Z</time></trkpt><trkpt lat="43.5109783" lon="11.7664772"><ele>246.00000000000003</ele><time>2026-04-03T12:59:31.044Z</time></trkpt><trkpt lat="43.5110656" lon="11.7664286"><ele>246.0</ele><time>2026-04-03T12:59:32.054Z</time></trkpt><trkpt lat="43.5111624" lon="11.7663836"><ele>246.0</ele><time>2026-04-03T12:59:33.061Z</time></trkpt><trkpt lat="43.5112572" lon="11.7663413"><ele>245.4</ele><time>2026-04-03T12:59:34.048Z</time></trkpt><trkpt lat="43.5113505" lon="11.7662935"><ele>244.8</ele><time>2026-04-03T12:59:35.056Z</time></trkpt><trkpt lat="43.5114457" lon="11.766242"><ele>244.20000000000002</ele><time>2026-04-03T12:59:36.056Z</time></trkpt><trkpt lat="43.5115402" lon="11.7661857"><ele>243.60000000000002</ele><time>2026-04-03T12:59:37.047Z</time></trkpt><trkpt lat="43.5116354" lon="11.7661329"><ele>243.0</ele><time>2026-04-03T12:59:38.061Z</time></trkpt><trkpt lat="43.5117332" lon="11.7661"><ele>243.0</ele><time>2026-04-03T12:59:39.046Z</time></trkpt><trkpt lat="43.5118285" lon="11.7660844"><ele>243.0</ele><time>2026-04-03T12:59:40.055Z</time></trkpt><trkpt lat="43.5119214" lon="11.7660658"><ele>243.0</ele><time>2026-04-03T12:59:41.057Z</time></trkpt><trkpt lat="43.5120135" lon="11.7660352"><ele>243.0</ele><time>2026-04-03T12:59:42.054Z</time></trkpt><trkpt lat="43.5121093" lon="11.7659904"><ele>243.0</ele><time>2026-04-03T12:59:43.054Z</time></trkpt><trkpt lat="43.5122054" lon="11.7659408"><ele>243.0</ele><time>2026-04-03T12:59:44.048Z</time></trkpt><trkpt lat="43.512303" lon="11.7658812"><ele>243.0</ele><time>2026-04-03T12:59:45.041Z</time></trkpt><trkpt lat="43.5123885" lon="11.7658136"><ele>243.0</ele><time>2026-04-03T12:59:46.057Z</time></trkpt><trkpt lat="43.5124693" lon="11.7657413"><ele>243.0</ele><time>2026-04-03T12:59:47.045Z</time></trkpt><trkpt lat="43.5125638" lon="11.7656876"><ele>243.0</ele><time>2026-04-03T12:59:48.063Z</time></trkpt><trkpt lat="43.5126612" lon="11.7656556"><ele>243.0</ele><time>2026-04-03T12:59:49.035Z</time></trkpt><trkpt lat="43.5127554" lon="11.7656254"><ele>243.0</ele><time>2026-04-03T12:59:50.054Z</time></trkpt><trkpt lat="43.5128472" lon="11.7656066"><ele>243.0</ele><time>2026-04-03T12:59:51.049Z</time></trkpt><trkpt lat="43.5129394" lon="11.765601"><ele>243.0</ele><time>2026-04-03T12:59:52.06Z</time></trkpt><trkpt lat="43.5130342" lon="11.7656062"><ele>243.0</ele><time>2026-04-03T12:59:53.049Z</time></trkpt><trkpt lat="43.5131322" lon="11.7656177"><ele>242.60000000000002</ele><time>2026-04-03T12:59:54.06Z</time></trkpt><trkpt lat="43.5132381" lon="11.7656268"><ele>242.20000000000002</ele><time>2026-04-03T12:59:55.055Z</time></trkpt><trkpt lat="43.5133429" lon="11.7656138"><ele>241.8</ele><time>2026-04-03T12:59:56.056Z</time></trkpt><trkpt lat="43.5134434" lon="11.7655722"><ele>241.4</ele><time>2026-04-03T12:59:57.049Z</time></trkpt><trkpt lat="43.5135377" lon="11.7655216"><ele>241.0</ele><time>2026-04-03T12:59:58.058Z</time></trkpt><trkpt lat="43.5136209" lon="11.7654689"><ele>241.0</ele><time>2026-04-03T12:59:59.044Z</time></trkpt><trkpt lat="43.5136988" lon="11.765409"><ele>241.00000000000003</ele><time>2026-04-03T13:00:00.055Z</time></trkpt><trkpt lat="43.5137711" lon="11.7653369"><ele>241.00000000000003</ele><time>2026-04-03T13:00:01.046Z</time></trkpt><trkpt lat="43.5138366" lon="11.7652485"><ele>241.0</ele><time>2026-04-03T13:00:02.057Z</time></trkpt><trkpt lat="43.5138955" lon="11.765142"><ele>241.0</ele><time>2026-04-03T13:00:03.046Z</time></trkpt><trkpt lat="43.5139495" lon="11.7650278"><ele>241.4</ele><time>2026-04-03T13:00:04.06Z</time></trkpt><trkpt lat="43.5140034" lon="11.7649107"><ele>241.8</ele><time>2026-04-03T13:00:05.05Z</time></trkpt><trkpt lat="43.5140641" lon="11.7647998"><ele>242.20000000000002</ele><time>2026-04-03T13:00:06.058Z</time></trkpt><trkpt lat="43.5141221" lon="11.7646914"><ele>242.60000000000002</ele><time>2026-04-03T13:00:07.046Z</time></trkpt><trkpt lat="43.5141866" lon="11.7645887"><ele>243.0</ele><time>2026-04-03T13:00:08.047Z</time></trkpt><trkpt lat="43.5142559" lon="11.7645033"><ele>243.0</ele><time>2026-04-03T13:00:09.046Z</time></trkpt><trkpt lat="43.5143394" lon="11.7644385"><ele>243.0</ele><time>2026-04-03T13:00:10.054Z</time></trkpt><trkpt lat="43.5144275" lon="11.7643951"><ele>243.0</ele><time>2026-04-03T13:00:11.054Z</time></trkpt><trkpt lat="43.5145118" lon="11.7643388"><ele>243.0</ele><time>2026-04-03T13:00:12.065Z</time></trkpt><trkpt lat="43.5145909" lon="11.764267"><ele>243.0</ele><time>2026-04-03T13:00:13.045Z</time></trkpt><trkpt lat="43.5146548" lon="11.7641655"><ele>243.60000000000002</ele><time>2026-04-03T13:00:14.058Z</time></trkpt><trkpt lat="43.5147214" lon="11.7640594"><ele>244.20000000000002</ele><time>2026-04-03T13:00:15.049Z</time></trkpt><trkpt lat="43.5147938" lon="11.7639591"><ele>244.8</ele><time>2026-04-03T13:00:16.045Z</time></trkpt><trkpt lat="43.5148755" lon="11.7638677"><ele>245.4</ele><time>2026-04-03T13:00:17.052Z</time></trkpt><trkpt lat="43.5149564" lon="11.7637793"><ele>246.0</ele><time>2026-04-03T13:00:18.064Z</time></trkpt><trkpt lat="43.5150395" lon="11.7636951"><ele>246.0</ele><time>2026-04-03T13:00:19.052Z</time></trkpt><trkpt lat="43.5151221" lon="11.7636154"><ele>246.00000000000003</ele><time>2026-04-03T13:00:20.063Z</time></trkpt><trkpt lat="43.5152065" lon="11.7635499"><ele>246.00000000000003</ele><time>2026-04-03T13:00:21.05Z</time></trkpt><trkpt lat="43.5152941" lon="11.7635085"><ele>246.0</ele><time>2026-04-03T13:00:22.056Z</time></trkpt><trkpt lat="43.5153836" lon="11.7634948"><ele>246.0</ele><time>2026-04-03T13:00:23.052Z</time></trkpt><trkpt lat="43.5154705" lon="11.7634931"><ele>246.20000000000002</ele><time>2026-04-03T13:00:24.057Z</time></trkpt><trkpt lat="43.5155561" lon="11.763491"><ele>246.40000000000003</ele><time>2026-04-03T13:00:25.051Z</time></trkpt><trkpt lat="43.5156437" lon="11.7634718"><ele>246.6</ele><time>2026-04-03T13:00:26.055Z</time></trkpt><trkpt lat="43.5157342" lon="11.7634387"><ele>246.8</ele><time>2026-04-03T13:00:27.05Z</time></trkpt><trkpt lat="43.5158259" lon="11.7633979"><ele>247.0</ele><time>2026-04-03T13:00:28.062Z</time></trkpt><trkpt lat="43.5159215" lon="11.7633658"><ele>246.99999999999997</ele><time>2026-04-03T13:00:29.044Z</time></trkpt><trkpt lat="43.5160108" lon="11.7633308"><ele>247.0</ele><time>2026-04-03T13:00:30.063Z</time></trkpt><trkpt lat="43.5160899" lon="11.7632812"><ele>247.0</ele><time>2026-04-03T13:00:31.051Z</time></trkpt><trkpt lat="43.516155" lon="11.7632038"><ele>247.0</ele><time>2026-04-03T13:00:32.069Z</time></trkpt><trkpt lat="43.5162126" lon="11.7631125"><ele>246.99999999999997</ele><time>2026-04-03T13:00:33.038Z</time></trkpt><trkpt lat="43.5162766" lon="11.7630218"><ele>247.0</ele><time>2026-04-03T13:00:34.064Z</time></trkpt><trkpt lat="43.5163439" lon="11.7629362"><ele>247.33333333333331</ele><time>2026-04-03T13:00:35.053Z</time></trkpt><trkpt lat="43.5164081" lon="11.7628626"><ele>247.66666666666666</ele><time>2026-04-03T13:00:36.062Z</time></trkpt><trkpt lat="43.5164694" lon="11.7627984"><ele>248.0</ele><time>2026-04-03T13:00:37.053Z</time></trkpt><trkpt lat="43.5165263" lon="11.7627425"><ele>248.33333333333331</ele><time>2026-04-03T13:00:38.061Z</time></trkpt><trkpt lat="43.5166323" lon="11.7626543"><ele>248.66666666666666</ele><time>2026-04-03T13:00:40.056Z</time></trkpt><trkpt lat="43.5166936" lon="11.7626192"><ele>249.0</ele><time>2026-04-03T13:00:41.049Z</time></trkpt><trkpt lat="43.5167548" lon="11.7625886"><ele>249.0</ele><time>2026-04-03T13:00:42.052Z</time></trkpt><trkpt lat="43.5168163" lon="11.7625545"><ele>249.0</ele><time>2026-04-03T13:00:43.055Z</time></trkpt><trkpt lat="43.5168801" lon="11.7625241"><ele>249.0</ele><time>2026-04-03T13:00:44.06Z</time></trkpt><trkpt lat="43.5169897" lon="11.7624867"><ele>249.0</ele><time>2026-04-03T13:00:46.057Z</time></trkpt><trkpt lat="43.5170699" lon="11.7624887"><ele>249.0</ele><time>2026-04-03T13:00:48.04Z</time></trkpt><trkpt lat="43.517145" lon="11.7624941"><ele>249.0</ele><time>2026-04-03T13:00:50.04Z</time></trkpt><trkpt lat="43.5172462" lon="11.762546"><ele>249.33333333333334</ele><time>2026-04-03T13:00:52.061Z</time></trkpt><trkpt lat="43.5173114" lon="11.7625917"><ele>249.66666666666669</ele><time>2026-04-03T13:00:53.05Z</time></trkpt><trkpt lat="43.5173825" lon="11.7626343"><ele>250.0</ele><time>2026-04-03T13:00:54.056Z</time></trkpt><trkpt lat="43.5174556" lon="11.7626577"><ele>250.33333333333334</ele><time>2026-04-03T13:00:55.05Z</time></trkpt><trkpt lat="43.5175322" lon="11.7626422"><ele>250.66666666666669</ele><time>2026-04-03T13:00:56.053Z</time></trkpt><trkpt lat="43.517608" lon="11.7626121"><ele>251.0</ele><time>2026-04-03T13:00:57.048Z</time></trkpt><trkpt lat="43.5176784" lon="11.7625828"><ele>251.00000000000003</ele><time>2026-04-03T13:00:58.062Z</time></trkpt><trkpt lat="43.5177473" lon="11.7625616"><ele>251.0</ele><time>2026-04-03T13:00:59.055Z</time></trkpt><trkpt lat="43.5178497" lon="11.7625423"><ele>251.0</ele><time>2026-04-03T13:01:01.039Z</time></trkpt><trkpt lat="43.5179232" lon="11.7625629"><ele>251.0</ele><time>2026-04-03T13:01:03.049Z</time></trkpt><trkpt lat="43.5180099" lon="11.7625624"><ele>251.00000000000003</ele><time>2026-04-03T13:01:05.053Z</time></trkpt><trkpt lat="43.5180883" lon="11.7625245"><ele>251.0</ele><time>2026-04-03T13:01:06.058Z</time></trkpt><trkpt lat="43.5181829" lon="11.7624702"><ele>251.20000000000002</ele><time>2026-04-03T13:01:07.05Z</time></trkpt><trkpt lat="43.5182772" lon="11.7624172"><ele>251.40000000000003</ele><time>2026-04-03T13:01:08.059Z</time></trkpt><trkpt lat="43.518374" lon="11.762355"><ele>251.6</ele><time>2026-04-03T13:01:09.05Z</time></trkpt><trkpt lat="43.5184725" lon="11.7622945"><ele>251.8</ele><time>2026-04-03T13:01:10.062Z</time></trkpt><trkpt lat="43.5185765" lon="11.7622386"><ele>252.0</ele><time>2026-04-03T13:01:11.047Z</time></trkpt><trkpt lat="43.5186815" lon="11.7622064"><ele>252.6</ele><time>2026-04-03T13:01:12.054Z</time></trkpt><trkpt lat="43.5187889" lon="11.762186"><ele>253.2</ele><time>2026-04-03T13:01:13.049Z</time></trkpt><trkpt lat="43.5188928" lon="11.7621589"><ele>253.8</ele><time>2026-04-03T13:01:14.06Z</time></trkpt><trkpt lat="43.5189905" lon="11.7621273"><ele>254.4</ele><time>2026-04-03T13:01:15.048Z</time></trkpt><trkpt lat="43.519082" lon="11.7620756"><ele>255.0</ele><time>2026-04-03T13:01:16.058Z</time></trkpt><trkpt lat="43.5191627" lon="11.7620163"><ele>255.0</ele><time>2026-04-03T13:01:17.056Z</time></trkpt><trkpt lat="43.5192343" lon="11.761945"><ele>255.0</ele><time>2026-04-03T13:01:18.047Z</time></trkpt><trkpt lat="43.5192955" lon="11.761848"><ele>255.0</ele><time>2026-04-03T13:01:19.056Z</time></trkpt><trkpt lat="43.5193286" lon="11.7617132"><ele>255.0</ele><time>2026-04-03T13:01:20.052Z</time></trkpt><trkpt lat="43.5193617" lon="11.7615806"><ele>255.0</ele><time>2026-04-03T13:01:21.043Z</time></trkpt><trkpt lat="43.5193981" lon="11.7614443"><ele>255.4</ele><time>2026-04-03T13:01:22.047Z</time></trkpt><trkpt lat="43.5194502" lon="11.7613159"><ele>255.8</ele><time>2026-04-03T13:01:23.042Z</time></trkpt><trkpt lat="43.5195106" lon="11.7611997"><ele>256.2</ele><time>2026-04-03T13:01:24.056Z</time></trkpt><trkpt lat="43.5195814" lon="11.76109"><ele>256.6</ele><time>2026-04-03T13:01:25.05Z</time></trkpt><trkpt lat="43.5196565" lon="11.7609882"><ele>257.0</ele><time>2026-04-03T13:01:26.044Z</time></trkpt><trkpt lat="43.5197341" lon="11.7608846"><ele>257.6</ele><time>2026-04-03T13:01:27.046Z</time></trkpt><trkpt lat="43.5198125" lon="11.7607876"><ele>258.2</ele><time>2026-04-03T13:01:28.039Z</time></trkpt><trkpt lat="43.5198873" lon="11.7606948"><ele>258.8</ele><time>2026-04-03T13:01:29.042Z</time></trkpt><trkpt lat="43.5199477" lon="11.7605923"><ele>259.4</ele><time>2026-04-03T13:01:30.039Z</time></trkpt><trkpt lat="43.5199987" lon="11.7604692"><ele>260.0</ele><time>2026-04-03T13:01:31.044Z</time></trkpt><trkpt lat="43.5200451" lon="11.7603289"><ele>259.4</ele><time>2026-04-03T13:01:32.046Z</time></trkpt><trkpt lat="43.5200866" lon="11.7601883"><ele>258.8</ele><time>2026-04-03T13:01:33.045Z</time></trkpt><trkpt lat="43.5201227" lon="11.7600449"><ele>258.2</ele><time>2026-04-03T13:01:34.06Z</time></trkpt><trkpt lat="43.520165" lon="11.7599023"><ele>257.6</ele><time>2026-04-03T13:01:35.053Z</time></trkpt><trkpt lat="43.5202103" lon="11.7597687"><ele>257.0</ele><time>2026-04-03T13:01:36.051Z</time></trkpt><trkpt lat="43.5202589" lon="11.7596439"><ele>257.0</ele><time>2026-04-03T13:01:37.053Z</time></trkpt><trkpt lat="43.5203028" lon="11.7595269"><ele>257.0</ele><time>2026-04-03T13:01:38.052Z</time></trkpt><trkpt lat="43.5203488" lon="11.7594174"><ele>257.0</ele><time>2026-04-03T13:01:39.053Z</time></trkpt><trkpt lat="43.5204" lon="11.7593109"><ele>257.0</ele><time>2026-04-03T13:01:40.054Z</time></trkpt><trkpt lat="43.5204511" lon="11.7592138"><ele>257.0</ele><time>2026-04-03T13:01:41.053Z</time></trkpt><trkpt lat="43.5205013" lon="11.7591286"><ele>257.0</ele><time>2026-04-03T13:01:42.047Z</time></trkpt><trkpt lat="43.5205381" lon="11.7590399"><ele>257.4</ele><time>2026-04-03T13:01:43.053Z</time></trkpt><trkpt lat="43.5205643" lon="11.7589411"><ele>257.79999999999995</ele><time>2026-04-03T13:01:44.048Z</time></trkpt><trkpt lat="43.5205924" lon="11.7588297"><ele>258.2</ele><time>2026-04-03T13:01:45.054Z</time></trkpt><trkpt lat="43.5206183" lon="11.7587049"><ele>258.59999999999997</ele><time>2026-04-03T13:01:46.046Z</time></trkpt><trkpt lat="43.5206459" lon="11.7585706"><ele>259.0</ele><time>2026-04-03T13:01:47.055Z</time></trkpt><trkpt lat="43.5206745" lon="11.7584234"><ele>259.0</ele><time>2026-04-03T13:01:48.055Z</time></trkpt><trkpt lat="43.5207048" lon="11.7582696"><ele>259.0</ele><time>2026-04-03T13:01:49.051Z</time></trkpt><trkpt lat="43.5207363" lon="11.7581129"><ele>259.0</ele><time>2026-04-03T13:01:50.047Z</time></trkpt><trkpt lat="43.5207766" lon="11.7579567"><ele>259.0</ele><time>2026-04-03T13:01:51.033Z</time></trkpt><trkpt lat="43.5208145" lon="11.7578003"><ele>259.25</ele><time>2026-04-03T13:01:52.051Z</time></trkpt><trkpt lat="43.5208496" lon="11.7576445"><ele>259.5</ele><time>2026-04-03T13:01:53.041Z</time></trkpt><trkpt lat="43.5208859" lon="11.75749"><ele>259.75</ele><time>2026-04-03T13:01:54.047Z</time></trkpt><trkpt lat="43.5209252" lon="11.7573404"><ele>260.0</ele><time>2026-04-03T13:01:55.053Z</time></trkpt><trkpt lat="43.5209768" lon="11.7572057"><ele>260.0</ele><time>2026-04-03T13:01:56.049Z</time></trkpt><trkpt lat="43.5210431" lon="11.7570885"><ele>260.0</ele><time>2026-04-03T13:01:57.044Z</time></trkpt><trkpt lat="43.5211176" lon="11.7569694"><ele>260.0</ele><time>2026-04-03T13:01:58.054Z</time></trkpt><trkpt lat="43.5211999" lon="11.7568544"><ele>260.0</ele><time>2026-04-03T13:01:59.055Z</time></trkpt><trkpt lat="43.5212819" lon="11.7567387"><ele>260.25</ele><time>2026-04-03T13:02:00.043Z</time></trkpt><trkpt lat="43.5213623" lon="11.7566158"><ele>260.5</ele><time>2026-04-03T13:02:01.055Z</time></trkpt><trkpt lat="43.5214453" lon="11.7564827"><ele>260.75</ele><time>2026-04-03T13:02:02.063Z</time></trkpt><trkpt lat="43.5215221" lon="11.7563478"><ele>261.0</ele><time>2026-04-03T13:02:03.051Z</time></trkpt><trkpt lat="43.52159" lon="11.7562118"><ele>261.0</ele><time>2026-04-03T13:02:04.056Z</time></trkpt><trkpt lat="43.5216495" lon="11.7560821"><ele>261.0</ele><time>2026-04-03T13:02:05.037Z</time></trkpt><trkpt lat="43.5216961" lon="11.7559632"><ele>261.0</ele><time>2026-04-03T13:02:06.065Z</time></trkpt><trkpt lat="43.5217296" lon="11.7558509"><ele>261.0</ele><time>2026-04-03T13:02:07.056Z</time></trkpt><trkpt lat="43.5217394" lon="11.7557339"><ele>261.0</ele><time>2026-04-03T13:02:08.043Z</time></trkpt><trkpt lat="43.5217197" lon="11.7556261"><ele>260.8</ele><time>2026-04-03T13:02:09.047Z</time></trkpt><trkpt lat="43.5216836" lon="11.7555205"><ele>260.6</ele><time>2026-04-03T13:02:10.049Z</time></trkpt><trkpt lat="43.5216328" lon="11.7554125"><ele>260.4</ele><time>2026-04-03T13:02:11.036Z</time></trkpt><trkpt lat="43.5215698" lon="11.7553011"><ele>260.2</ele><time>2026-04-03T13:02:12.05Z</time></trkpt><trkpt lat="43.5214985" lon="11.7551756"><ele>260.0</ele><time>2026-04-03T13:02:13.048Z</time></trkpt><trkpt lat="43.5214161" lon="11.7550289"><ele>259.75</ele><time>2026-04-03T13:02:14.054Z</time></trkpt><trkpt lat="43.5213335" lon="11.7548782"><ele>259.5</ele><time>2026-04-03T13:02:15.045Z</time></trkpt><trkpt lat="43.5212527" lon="11.7547261"><ele>259.25</ele><time>2026-04-03T13:02:16.045Z</time></trkpt><trkpt lat="43.521178" lon="11.7545777"><ele>259.0</ele><time>2026-04-03T13:02:17.04Z</time></trkpt><trkpt lat="43.5211038" lon="11.7544223"><ele>258.25</ele><time>2026-04-03T13:02:18.039Z</time></trkpt><trkpt lat="43.5210291" lon="11.7542649"><ele>257.5</ele><time>2026-04-03T13:02:19.054Z</time></trkpt><trkpt lat="43.5209522" lon="11.7541119"><ele>256.75</ele><time>2026-04-03T13:02:20.045Z</time></trkpt><trkpt lat="43.5208772" lon="11.7539625"><ele>256.0</ele><time>2026-04-03T13:02:21.049Z</time></trkpt><trkpt lat="43.5208" lon="11.7538171"><ele>256.0</ele><time>2026-04-03T13:02:22.04Z</time></trkpt><trkpt lat="43.5207299" lon="11.7536862"><ele>256.0</ele><time>2026-04-03T13:02:23.039Z</time></trkpt><trkpt lat="43.5206743" lon="11.7535798"><ele>256.0</ele><time>2026-04-03T13:02:24.045Z</time></trkpt><trkpt lat="43.5206361" lon="11.7534956"><ele>256.0</ele><time>2026-04-03T13:02:25.039Z</time></trkpt><trkpt lat="43.5205846" lon="11.7533949"><ele>256.0</ele><time>2026-04-03T13:02:27.038Z</time></trkpt><trkpt lat="43.5205274" lon="11.7533118"><ele>256.0</ele><time>2026-04-03T13:02:29.047Z</time></trkpt><trkpt lat="43.5204801" lon="11.7532513"><ele>256.0</ele><time>2026-04-03T13:02:30.05Z</time></trkpt><trkpt lat="43.5204125" lon="11.7531838"><ele>256.0</ele><time>2026-04-03T13:02:31.049Z</time></trkpt><trkpt lat="43.5203257" lon="11.7531286"><ele>256.0</ele><time>2026-04-03T13:02:32.044Z</time></trkpt><trkpt lat="43.5202213" lon="11.7530678"><ele>256.0</ele><time>2026-04-03T13:02:33.048Z</time></trkpt><trkpt lat="43.5201069" lon="11.7529973"><ele>255.5</ele><time>2026-04-03T13:02:34.058Z</time></trkpt><trkpt lat="43.5199864" lon="11.7529204"><ele>255.0</ele><time>2026-04-03T13:02:35.043Z</time></trkpt><trkpt lat="43.5198603" lon="11.7528424"><ele>254.5</ele><time>2026-04-03T13:02:36.05Z</time></trkpt><trkpt lat="43.5197316" lon="11.7527602"><ele>254.0</ele><time>2026-04-03T13:02:37.047Z</time></trkpt><trkpt lat="43.5195964" lon="11.7526828"><ele>254.0</ele><time>2026-04-03T13:02:38.054Z</time></trkpt><trkpt lat="43.519449" lon="11.7526028"><ele>254.0</ele><time>2026-04-03T13:02:39.056Z</time></trkpt><trkpt lat="43.5192951" lon="11.7525381"><ele>254.0</ele><time>2026-04-03T13:02:40.058Z</time></trkpt><trkpt lat="43.5191343" lon="11.7524776"><ele>254.0</ele><time>2026-04-03T13:02:41.054Z</time></trkpt><trkpt lat="43.5189683" lon="11.752409"><ele>254.0</ele><time>2026-04-03T13:02:42.049Z</time></trkpt><trkpt lat="43.5188" lon="11.7523336"><ele>254.0</ele><time>2026-04-03T13:02:43.043Z</time></trkpt><trkpt lat="43.518634" lon="11.7522537"><ele>254.33333333333334</ele><time>2026-04-03T13:02:44.059Z</time></trkpt><trkpt lat="43.5184777" lon="11.7521531"><ele>254.66666666666669</ele><time>2026-04-03T13:02:45.054Z</time></trkpt><trkpt lat="43.5183354" lon="11.7520277"><ele>255.0</ele><time>2026-04-03T13:02:46.052Z</time></trkpt><trkpt lat="43.5181995" lon="11.7518844"><ele>255.0</ele><time>2026-04-03T13:02:47.046Z</time></trkpt><trkpt lat="43.5180662" lon="11.7517137"><ele>255.0</ele><time>2026-04-03T13:02:48.055Z</time></trkpt><trkpt lat="43.5179346" lon="11.751541"><ele>255.0</ele><time>2026-04-03T13:02:49.042Z</time></trkpt><trkpt lat="43.517804" lon="11.7513616"><ele>255.66666666666669</ele><time>2026-04-03T13:02:50.056Z</time></trkpt><trkpt lat="43.5176741" lon="11.751174"><ele>256.33333333333337</ele><time>2026-04-03T13:02:51.051Z</time></trkpt><trkpt lat="43.5175352" lon="11.7509845"><ele>257.0</ele><time>2026-04-03T13:02:52.058Z</time></trkpt><trkpt lat="43.5173925" lon="11.7507903"><ele>257.0</ele><time>2026-04-03T13:02:53.045Z</time></trkpt><trkpt lat="43.5172433" lon="11.7505882"><ele>257.0</ele><time>2026-04-03T13:02:54.058Z</time></trkpt><trkpt lat="43.5170912" lon="11.7503811"><ele>257.0</ele><time>2026-04-03T13:02:55.052Z</time></trkpt><trkpt lat="43.5169421" lon="11.7501774"><ele>257.0</ele><time>2026-04-03T13:02:56.07Z</time></trkpt><trkpt lat="43.5167879" lon="11.7499723"><ele>257.0</ele><time>2026-04-03T13:02:57.048Z</time></trkpt><trkpt lat="43.5166333" lon="11.7497639"><ele>257.0</ele><time>2026-04-03T13:02:58.049Z</time></trkpt><trkpt lat="43.5164758" lon="11.749551"><ele>256.6666666666667</ele><time>2026-04-03T13:02:59.042Z</time></trkpt><trkpt lat="43.5163214" lon="11.7493375"><ele>256.3333333333333</ele><time>2026-04-03T13:03:00.059Z</time></trkpt><trkpt lat="43.5161686" lon="11.7491242"><ele>256.0</ele><time>2026-04-03T13:03:01.05Z</time></trkpt><trkpt lat="43.5160124" lon="11.748916"><ele>256.0</ele><time>2026-04-03T13:03:02.05Z</time></trkpt><trkpt lat="43.5158552" lon="11.7487076"><ele>256.0</ele><time>2026-04-03T13:03:03.054Z</time></trkpt><trkpt lat="43.5157009" lon="11.7484986"><ele>256.0</ele><time>2026-04-03T13:03:04.056Z</time></trkpt><trkpt lat="43.5155445" lon="11.7482887"><ele>255.66666666666666</ele><time>2026-04-03T13:03:05.045Z</time></trkpt><trkpt lat="43.5153893" lon="11.748078"><ele>255.33333333333331</ele><time>2026-04-03T13:03:06.053Z</time></trkpt><trkpt lat="43.5152357" lon="11.7478679"><ele>255.0</ele><time>2026-04-03T13:03:07.046Z</time></trkpt><trkpt lat="43.5150836" lon="11.7476616"><ele>255.66666666666669</ele><time>2026-04-03T13:03:08.048Z</time></trkpt><trkpt lat="43.514935" lon="11.7474495"><ele>256.33333333333337</ele><time>2026-04-03T13:03:09.053Z</time></trkpt><trkpt lat="43.5147918" lon="11.747229"><ele>257.0</ele><time>2026-04-03T13:03:10.055Z</time></trkpt><trkpt lat="43.5146577" lon="11.7470126"><ele>257.0</ele><time>2026-04-03T13:03:11.055Z</time></trkpt><trkpt lat="43.5145334" lon="11.7468072"><ele>257.0</ele><time>2026-04-03T13:03:12.048Z</time></trkpt><trkpt lat="43.5144251" lon="11.7466195"><ele>257.0</ele><time>2026-04-03T13:03:13.049Z</time></trkpt><trkpt lat="43.5143292" lon="11.7464531"><ele>257.0</ele><time>2026-04-03T13:03:14.057Z</time></trkpt><trkpt lat="43.5142483" lon="11.746314"><ele>257.0</ele><time>2026-04-03T13:03:15.044Z</time></trkpt><trkpt lat="43.5141878" lon="11.7462155"><ele>257.0</ele><time>2026-04-03T13:03:16.048Z</time></trkpt><trkpt lat="43.5141247" lon="11.7461033"><ele>257.0</ele><time>2026-04-03T13:03:18.048Z</time></trkpt><trkpt lat="43.5140708" lon="11.7460037"><ele>257.0</ele><time>2026-04-03T13:03:20.054Z</time></trkpt><trkpt lat="43.5140284" lon="11.7459193"><ele>257.75</ele><time>2026-04-03T13:03:21.048Z</time></trkpt><trkpt lat="43.5139721" lon="11.7458095"><ele>258.5</ele><time>2026-04-03T13:03:22.06Z</time></trkpt><trkpt lat="43.51391" lon="11.7456809"><ele>259.25</ele><time>2026-04-03T13:03:23.054Z</time></trkpt><trkpt lat="43.5138454" lon="11.7455353"><ele>260.0</ele><time>2026-04-03T13:03:24.05Z</time></trkpt><trkpt lat="43.5137736" lon="11.7453798"><ele>259.0</ele><time>2026-04-03T13:03:25.06Z</time></trkpt><trkpt lat="43.5136948" lon="11.74521"><ele>258.0</ele><time>2026-04-03T13:03:26.041Z</time></trkpt><trkpt lat="43.5136101" lon="11.7450363"><ele>257.0</ele><time>2026-04-03T13:03:27.059Z</time></trkpt><trkpt lat="43.5135232" lon="11.7448518"><ele>257.0</ele><time>2026-04-03T13:03:28.043Z</time></trkpt><trkpt lat="43.5134318" lon="11.7446629"><ele>257.0</ele><time>2026-04-03T13:03:29.044Z</time></trkpt><trkpt lat="43.5133359" lon="11.7444729"><ele>257.0</ele><time>2026-04-03T13:03:30.051Z</time></trkpt><trkpt lat="43.5132309" lon="11.744279"><ele>257.0</ele><time>2026-04-03T13:03:31.041Z</time></trkpt><trkpt lat="43.513122" lon="11.7440812"><ele>257.0</ele><time>2026-04-03T13:03:32.047Z</time></trkpt><trkpt lat="43.5130062" lon="11.7438871"><ele>257.0</ele><time>2026-04-03T13:03:33.031Z</time></trkpt><trkpt lat="43.5128883" lon="11.743693"><ele>258.33333333333337</ele><time>2026-04-03T13:03:34.066Z</time></trkpt><trkpt lat="43.5127698" lon="11.7435077"><ele>259.6666666666667</ele><time>2026-04-03T13:03:35.04Z</time></trkpt><trkpt lat="43.512651" lon="11.7433242"><ele>261.0</ele><time>2026-04-03T13:03:36.059Z</time></trkpt><trkpt lat="43.5125276" lon="11.7431458"><ele>261.0</ele><time>2026-04-03T13:03:37.049Z</time></trkpt><trkpt lat="43.5123984" lon="11.7429735"><ele>261.0</ele><time>2026-04-03T13:03:38.051Z</time></trkpt><trkpt lat="43.5122636" lon="11.7428106"><ele>261.0</ele><time>2026-04-03T13:03:39.043Z</time></trkpt><trkpt lat="43.5121313" lon="11.7426474"><ele>263.6666666666667</ele><time>2026-04-03T13:03:40.058Z</time></trkpt><trkpt lat="43.5119996" lon="11.7424815"><ele>266.33333333333337</ele><time>2026-04-03T13:03:41.042Z</time></trkpt><trkpt lat="43.5118737" lon="11.7423123"><ele>269.0</ele><time>2026-04-03T13:03:42.049Z</time></trkpt><trkpt lat="43.5117536" lon="11.7421403"><ele>269.0</ele><time>2026-04-03T13:03:43.044Z</time></trkpt><trkpt lat="43.5116414" lon="11.7419569"><ele>269.0</ele><time>2026-04-03T13:03:44.05Z</time></trkpt><trkpt lat="43.5115341" lon="11.7417657"><ele>269.0</ele><time>2026-04-03T13:03:45.043Z</time></trkpt><trkpt lat="43.5114312" lon="11.7415632"><ele>269.0</ele><time>2026-04-03T13:03:46.058Z</time></trkpt><trkpt lat="43.5113322" lon="11.7413622"><ele>269.0</ele><time>2026-04-03T13:03:47.059Z</time></trkpt><trkpt lat="43.5112328" lon="11.7411575"><ele>269.0</ele><time>2026-04-03T13:03:48.048Z</time></trkpt><trkpt lat="43.5111312" lon="11.7409556"><ele>269.33333333333337</ele><time>2026-04-03T13:03:49.057Z</time></trkpt><trkpt lat="43.5110299" lon="11.7407549"><ele>269.6666666666667</ele><time>2026-04-03T13:03:50.048Z</time></trkpt><trkpt lat="43.5109238" lon="11.7405629"><ele>270.0</ele><time>2026-04-03T13:03:51.045Z</time></trkpt><trkpt lat="43.5108073" lon="11.7403901"><ele>270.0</ele><time>2026-04-03T13:03:52.066Z</time></trkpt><trkpt lat="43.5106771" lon="11.740234"><ele>270.0</ele><time>2026-04-03T13:03:53.042Z</time></trkpt><trkpt lat="43.5105387" lon="11.7400873"><ele>270.0</ele><time>2026-04-03T13:03:54.051Z</time></trkpt><trkpt lat="43.5103994" lon="11.7399389"><ele>269.6666666666667</ele><time>2026-04-03T13:03:55.061Z</time></trkpt><trkpt lat="43.5102656" lon="11.7397901"><ele>269.33333333333337</ele><time>2026-04-03T13:03:56.054Z</time></trkpt><trkpt lat="43.5101365" lon="11.7396581"><ele>269.0</ele><time>2026-04-03T13:03:57.048Z</time></trkpt><trkpt lat="43.510016" lon="11.7395327"><ele>269.0</ele><time>2026-04-03T13:03:58.06Z</time></trkpt><trkpt lat="43.5099045" lon="11.7394134"><ele>269.0</ele><time>2026-04-03T13:03:59.043Z</time></trkpt><trkpt lat="43.5097936" lon="11.7392909"><ele>269.0</ele><time>2026-04-03T13:04:00.061Z</time></trkpt><trkpt lat="43.5096877" lon="11.7391664"><ele>269.0</ele><time>2026-04-03T13:04:01.058Z</time></trkpt><trkpt lat="43.5095884" lon="11.7390545"><ele>268.59999999999997</ele><time>2026-04-03T13:04:02.048Z</time></trkpt><trkpt lat="43.5094999" lon="11.738948"><ele>268.2</ele><time>2026-04-03T13:04:03.06Z</time></trkpt><trkpt lat="43.5094314" lon="11.7388388"><ele>267.79999999999995</ele><time>2026-04-03T13:04:04.05Z</time></trkpt><trkpt lat="43.5093835" lon="11.7387344"><ele>267.4</ele><time>2026-04-03T13:04:05.048Z</time></trkpt><trkpt lat="43.5093499" lon="11.738646"><ele>267.0</ele><time>2026-04-03T13:04:06.053Z</time></trkpt><trkpt lat="43.5092938" lon="11.7385266"><ele>266.6666666666667</ele><time>2026-04-03T13:04:08.056Z</time></trkpt><trkpt lat="43.5092628" lon="11.7384376"><ele>266.3333333333333</ele><time>2026-04-03T13:04:10.053Z</time></trkpt><trkpt lat="43.5092473" lon="11.7383502"><ele>266.0</ele><time>2026-04-03T13:04:11.044Z</time></trkpt><trkpt lat="43.5092368" lon="11.7382318"><ele>265.66666666666663</ele><time>2026-04-03T13:04:12.046Z</time></trkpt><trkpt lat="43.5092266" lon="11.7380928"><ele>265.3333333333333</ele><time>2026-04-03T13:04:13.041Z</time></trkpt><trkpt lat="43.5092213" lon="11.7379279"><ele>265.0</ele><time>2026-04-03T13:04:14.044Z</time></trkpt><trkpt lat="43.5092222" lon="11.7377515"><ele>264.0</ele><time>2026-04-03T13:04:15.049Z</time></trkpt><trkpt lat="43.5092181" lon="11.7375623"><ele>263.0</ele><time>2026-04-03T13:04:16.045Z</time></trkpt><trkpt lat="43.5092115" lon="11.7373622"><ele>262.0</ele><time>2026-04-03T13:04:17.041Z</time></trkpt><trkpt lat="43.5092009" lon="11.737157"><ele>261.0</ele><time>2026-04-03T13:04:18.045Z</time></trkpt><trkpt lat="43.5091922" lon="11.7369452"><ele>259.0</ele><time>2026-04-03T13:04:19.043Z</time></trkpt><trkpt lat="43.5091757" lon="11.7367365"><ele>257.0</ele><time>2026-04-03T13:04:20.051Z</time></trkpt><trkpt lat="43.5091401" lon="11.7365293"><ele>255.0</ele><time>2026-04-03T13:04:21.06Z</time></trkpt><trkpt lat="43.5090807" lon="11.7363296"><ele>255.0</ele><time>2026-04-03T13:04:22.049Z</time></trkpt><trkpt lat="43.5090005" lon="11.7361416"><ele>255.0</ele><time>2026-04-03T13:04:23.046Z</time></trkpt><trkpt lat="43.5089064" lon="11.7359587"><ele>255.0</ele><time>2026-04-03T13:04:24.059Z</time></trkpt><trkpt lat="43.5088039" lon="11.7357762"><ele>253.66666666666669</ele><time>2026-04-03T13:04:25.062Z</time></trkpt><trkpt lat="43.5087013" lon="11.735596"><ele>252.33333333333334</ele><time>2026-04-03T13:04:26.057Z</time></trkpt><trkpt lat="43.508606" lon="11.7354092"><ele>251.0</ele><time>2026-04-03T13:04:27.04Z</time></trkpt><trkpt lat="43.5085287" lon="11.7352038"><ele>249.33333333333334</ele><time>2026-04-03T13:04:28.053Z</time></trkpt><trkpt lat="43.5084659" lon="11.7349904"><ele>247.66666666666669</ele><time>2026-04-03T13:04:29.037Z</time></trkpt><trkpt lat="43.5084098" lon="11.7347796"><ele>246.0</ele><time>2026-04-03T13:04:30.054Z</time></trkpt><trkpt lat="43.5083529" lon="11.7345759"><ele>245.0</ele><time>2026-04-03T13:04:31.037Z</time></trkpt><trkpt lat="43.5082936" lon="11.7343722"><ele>244.0</ele><time>2026-04-03T13:04:32.052Z</time></trkpt><trkpt lat="43.5082337" lon="11.7341693"><ele>243.0</ele><time>2026-04-03T13:04:33.046Z</time></trkpt><trkpt lat="43.5081803" lon="11.733971"><ele>243.0</ele><time>2026-04-03T13:04:34.046Z</time></trkpt><trkpt lat="43.5081418" lon="11.7337656"><ele>243.0</ele><time>2026-04-03T13:04:35.057Z</time></trkpt><trkpt lat="43.5081274" lon="11.7335517"><ele>243.0</ele><time>2026-04-03T13:04:36.04Z</time></trkpt><trkpt lat="43.5081358" lon="11.7333334"><ele>240.0</ele><time>2026-04-03T13:04:37.045Z</time></trkpt><trkpt lat="43.5081678" lon="11.7331093"><ele>237.0</ele><time>2026-04-03T13:04:38.052Z</time></trkpt><trkpt lat="43.5082136" lon="11.7328869"><ele>234.0</ele><time>2026-04-03T13:04:39.049Z</time></trkpt><trkpt lat="43.5082771" lon="11.7326688"><ele>229.66666666666669</ele><time>2026-04-03T13:04:40.046Z</time></trkpt><trkpt lat="43.5083477" lon="11.732461"><ele>225.33333333333334</ele><time>2026-04-03T13:04:41.047Z</time></trkpt><trkpt lat="43.5084304" lon="11.7322771"><ele>221.0</ele><time>2026-04-03T13:04:42.055Z</time></trkpt><trkpt lat="43.5085307" lon="11.7321288"><ele>221.0</ele><time>2026-04-03T13:04:43.054Z</time></trkpt><trkpt lat="43.5086448" lon="11.7320354"><ele>221.0</ele><time>2026-04-03T13:04:44.038Z</time></trkpt><trkpt lat="43.5087722" lon="11.7319825"><ele>221.0</ele><time>2026-04-03T13:04:45.032Z</time></trkpt><trkpt lat="43.508916" lon="11.7319803"><ele>221.0</ele><time>2026-04-03T13:04:46.045Z</time></trkpt><trkpt lat="43.5090538" lon="11.7320356"><ele>219.25</ele><time>2026-04-03T13:04:47.048Z</time></trkpt><trkpt lat="43.5091865" lon="11.7321403"><ele>217.5</ele><time>2026-04-03T13:04:48.047Z</time></trkpt><trkpt lat="43.5093092" lon="11.732232"><ele>215.75</ele><time>2026-04-03T13:04:49.046Z</time></trkpt><trkpt lat="43.5094397" lon="11.7322709"><ele>214.0</ele><time>2026-04-03T13:04:50.059Z</time></trkpt><trkpt lat="43.509571" lon="11.7322461"><ele>210.75</ele><time>2026-04-03T13:04:51.052Z</time></trkpt><trkpt lat="43.5096751" lon="11.7321586"><ele>207.5</ele><time>2026-04-03T13:04:52.055Z</time></trkpt><trkpt lat="43.5097445" lon="11.7320271"><ele>204.25</ele><time>2026-04-03T13:04:53.046Z</time></trkpt><trkpt lat="43.5097578" lon="11.7318762"><ele>201.0</ele><time>2026-04-03T13:04:54.051Z</time></trkpt><trkpt lat="43.5097284" lon="11.7317262"><ele>200.5</ele><time>2026-04-03T13:04:55.055Z</time></trkpt><trkpt lat="43.5096557" lon="11.7316057"><ele>200.0</ele><time>2026-04-03T13:04:56.046Z</time></trkpt><trkpt lat="43.5095459" lon="11.7315274"><ele>199.5</ele><time>2026-04-03T13:04:57.039Z</time></trkpt><trkpt lat="43.5094116" lon="11.7314802"><ele>199.0</ele><time>2026-04-03T13:04:58.051Z</time></trkpt><trkpt lat="43.509269" lon="11.7314447"><ele>201.66666666666666</ele><time>2026-04-03T13:04:59.04Z</time></trkpt><trkpt lat="43.5091183" lon="11.7313988"><ele>204.33333333333331</ele><time>2026-04-03T13:05:00.046Z</time></trkpt><trkpt lat="43.5089667" lon="11.7313534"><ele>207.0</ele><time>2026-04-03T13:05:01.038Z</time></trkpt><trkpt lat="43.5088214" lon="11.7313039"><ele>207.25</ele><time>2026-04-03T13:05:02.043Z</time></trkpt><trkpt lat="43.508687" lon="11.7312343"><ele>207.5</ele><time>2026-04-03T13:05:03.042Z</time></trkpt><trkpt lat="43.5085661" lon="11.7311363"><ele>207.75</ele><time>2026-04-03T13:05:04.055Z</time></trkpt><trkpt lat="43.5084604" lon="11.7310083"><ele>208.0</ele><time>2026-04-03T13:05:05.041Z</time></trkpt><trkpt lat="43.5083786" lon="11.7308447"><ele>205.25</ele><time>2026-04-03T13:05:06.05Z</time></trkpt><trkpt lat="43.5083279" lon="11.7306612"><ele>202.5</ele><time>2026-04-03T13:05:07.048Z</time></trkpt><trkpt lat="43.5083164" lon="11.7304607"><ele>199.75</ele><time>2026-04-03T13:05:08.054Z</time></trkpt><trkpt lat="43.508341" lon="11.7302528"><ele>197.0</ele><time>2026-04-03T13:05:09.04Z</time></trkpt><trkpt lat="43.5083724" lon="11.7300373"><ele>196.0</ele><time>2026-04-03T13:05:10.053Z</time></trkpt><trkpt lat="43.5084131" lon="11.7298218"><ele>195.0</ele><time>2026-04-03T13:05:11.034Z</time></trkpt><trkpt lat="43.5084552" lon="11.7296062"><ele>194.0</ele><time>2026-04-03T13:05:12.074Z</time></trkpt><trkpt lat="43.5085006" lon="11.7293917"><ele>192.0</ele><time>2026-04-03T13:05:13.041Z</time></trkpt><trkpt lat="43.5085425" lon="11.7291735"><ele>190.0</ele><time>2026-04-03T13:05:14.046Z</time></trkpt><trkpt lat="43.5085764" lon="11.7289528"><ele>188.0</ele><time>2026-04-03T13:05:15.042Z</time></trkpt><trkpt lat="43.5086021" lon="11.7287332"><ele>187.0</ele><time>2026-04-03T13:05:16.057Z</time></trkpt><trkpt lat="43.5086102" lon="11.7285154"><ele>186.0</ele><time>2026-04-03T13:05:17.029Z</time></trkpt><trkpt lat="43.5085902" lon="11.7283094"><ele>185.0</ele><time>2026-04-03T13:05:18.057Z</time></trkpt><trkpt lat="43.5085534" lon="11.7281167"><ele>185.0</ele><time>2026-04-03T13:05:19.046Z</time></trkpt><trkpt lat="43.5084995" lon="11.7279496"><ele>185.0</ele><time>2026-04-03T13:05:20.057Z</time></trkpt><trkpt lat="43.5084328" lon="11.7278157"><ele>185.0</ele><time>2026-04-03T13:05:21.051Z</time></trkpt><trkpt lat="43.5083579" lon="11.7276898"><ele>185.0</ele><time>2026-04-03T13:05:22.059Z</time></trkpt><trkpt lat="43.508296" lon="11.7275826"><ele>185.0</ele><time>2026-04-03T13:05:23.054Z</time></trkpt><trkpt lat="43.5082539" lon="11.7274796"><ele>185.0</ele><time>2026-04-03T13:05:24.072Z</time></trkpt><trkpt lat="43.5082217" lon="11.7273887"><ele>185.0</ele><time>2026-04-03T13:05:25.049Z</time></trkpt><trkpt lat="43.5081675" lon="11.7273152"><ele>185.0</ele><time>2026-04-03T13:05:27.055Z</time></trkpt><trkpt lat="43.5081313" lon="11.727407"><ele>185.0</ele><time>2026-04-03T13:05:30.045Z</time></trkpt><trkpt lat="43.5082346" lon="11.727521"><ele>185.0</ele><time>2026-04-03T13:05:32.051Z</time></trkpt><trkpt lat="43.5082972" lon="11.7276096"><ele>185.0</ele><time>2026-04-03T13:05:33.041Z</time></trkpt><trkpt lat="43.5083485" lon="11.7277148"><ele>185.0</ele><time>2026-04-03T13:05:34.042Z</time></trkpt><trkpt lat="43.5084037" lon="11.7278261"><ele>185.0</ele><time>2026-04-03T13:05:35.043Z</time></trkpt><trkpt lat="43.508459" lon="11.7279421"><ele>185.0</ele><time>2026-04-03T13:05:36.044Z</time></trkpt><trkpt lat="43.5085135" lon="11.728067"><ele>185.0</ele><time>2026-04-03T13:05:37.05Z</time></trkpt><trkpt lat="43.5085578" lon="11.7281993"><ele>185.0</ele><time>2026-04-03T13:05:38.039Z</time></trkpt><trkpt lat="43.5085886" lon="11.7283457"><ele>185.0</ele><time>2026-04-03T13:05:39.039Z</time></trkpt><trkpt lat="43.508602" lon="11.7284871"><ele>185.0</ele><time>2026-04-03T13:05:40.054Z</time></trkpt><trkpt lat="43.5086063" lon="11.7286333"><ele>185.0</ele><time>2026-04-03T13:05:41.045Z</time></trkpt><trkpt lat="43.5085937" lon="11.7287829"><ele>185.0</ele><time>2026-04-03T13:05:42.043Z</time></trkpt><trkpt lat="43.5085669" lon="11.7289438"><ele>185.6</ele><time>2026-04-03T13:05:43.051Z</time></trkpt><trkpt lat="43.508543" lon="11.7290971"><ele>186.2</ele><time>2026-04-03T13:05:44.055Z</time></trkpt><trkpt lat="43.5085222" lon="11.7292303"><ele>186.8</ele><time>2026-04-03T13:05:45.053Z</time></trkpt><trkpt lat="43.5085039" lon="11.7293381"><ele>187.4</ele><time>2026-04-03T13:05:46.044Z</time></trkpt><trkpt lat="43.5084279" lon="11.7294298"><ele>188.0</ele><time>2026-04-03T13:05:48.047Z</time></trkpt><trkpt lat="43.5083165" lon="11.7293753"><ele>188.0</ele><time>2026-04-03T13:05:50.044Z</time></trkpt><trkpt lat="43.508265" lon="11.7293123"><ele>188.0</ele><time>2026-04-03T13:05:51.044Z</time></trkpt><trkpt lat="43.5082059" lon="11.7292428"><ele>188.0</ele><time>2026-04-03T13:05:52.046Z</time></trkpt><trkpt lat="43.5081348" lon="11.729165"><ele>188.0</ele><time>2026-04-03T13:05:53.044Z</time></trkpt><trkpt lat="43.5080632" lon="11.7290808"><ele>188.0</ele><time>2026-04-03T13:05:54.057Z</time></trkpt><trkpt lat="43.5079912" lon="11.7289929"><ele>188.0</ele><time>2026-04-03T13:05:55.047Z</time></trkpt><trkpt lat="43.5079199" lon="11.7289023"><ele>188.0</ele><time>2026-04-03T13:05:56.059Z</time></trkpt><trkpt lat="43.5078476" lon="11.7288063"><ele>188.0</ele><time>2026-04-03T13:05:57.042Z</time></trkpt><trkpt lat="43.5077798" lon="11.728704"><ele>188.0</ele><time>2026-04-03T13:05:58.045Z</time></trkpt><trkpt lat="43.5077121" lon="11.7285973"><ele>188.0</ele><time>2026-04-03T13:05:59.047Z</time></trkpt><trkpt lat="43.5076459" lon="11.7284879"><ele>188.0</ele><time>2026-04-03T13:06:00.051Z</time></trkpt><trkpt lat="43.5075778" lon="11.7283699"><ele>188.0</ele><time>2026-04-03T13:06:01.054Z</time></trkpt><trkpt lat="43.5075071" lon="11.7282541"><ele>188.0</ele><time>2026-04-03T13:06:02.043Z</time></trkpt><trkpt lat="43.5074357" lon="11.7281389"><ele>188.0</ele><time>2026-04-03T13:06:03.037Z</time></trkpt><trkpt lat="43.5073604" lon="11.7280413"><ele>188.0</ele><time>2026-04-03T13:06:04.053Z</time></trkpt><trkpt lat="43.5072784" lon="11.7279472"><ele>188.0</ele><time>2026-04-03T13:06:05.057Z</time></trkpt><trkpt lat="43.5071942" lon="11.7278648"><ele>188.0</ele><time>2026-04-03T13:06:06.053Z</time></trkpt><trkpt lat="43.5071086" lon="11.7277782"><ele>188.0</ele><time>2026-04-03T13:06:07.038Z</time></trkpt><trkpt lat="43.5070195" lon="11.727684"><ele>188.0</ele><time>2026-04-03T13:06:08.047Z</time></trkpt><trkpt lat="43.5069341" lon="11.7275903"><ele>188.0</ele><time>2026-04-03T13:06:09.054Z</time></trkpt><trkpt lat="43.5068441" lon="11.7275002"><ele>188.0</ele><time>2026-04-03T13:06:10.052Z</time></trkpt><trkpt lat="43.5067542" lon="11.7274081"><ele>188.0</ele><time>2026-04-03T13:06:11.043Z</time></trkpt><trkpt lat="43.5066717" lon="11.7273058"><ele>188.0</ele><time>2026-04-03T13:06:12.04Z</time></trkpt><trkpt lat="43.5065874" lon="11.7272123"><ele>188.0</ele><time>2026-04-03T13:06:13.05Z</time></trkpt><trkpt lat="43.506506" lon="11.7271201"><ele>188.0</ele><time>2026-04-03T13:06:14.048Z</time></trkpt><trkpt lat="43.5064256" lon="11.7270289"><ele>188.0</ele><time>2026-04-03T13:06:15.04Z</time></trkpt><trkpt lat="43.5063475" lon="11.7269382"><ele>187.66666666666666</ele><time>2026-04-03T13:06:16.058Z</time></trkpt><trkpt lat="43.5062698" lon="11.726852"><ele>187.33333333333331</ele><time>2026-04-03T13:06:17.034Z</time></trkpt><trkpt lat="43.5061999" lon="11.7267761"><ele>187.0</ele><time>2026-04-03T13:06:18.043Z</time></trkpt><trkpt lat="43.5061418" lon="11.7267311"><ele>186.66666666666666</ele><time>2026-04-03T13:06:19.042Z</time></trkpt><trkpt lat="43.5060394" lon="11.7267254"><ele>186.33333333333334</ele><time>2026-04-03T13:06:21.043Z</time></trkpt><trkpt lat="43.5059797" lon="11.7266953"><ele>186.0</ele><time>2026-04-03T13:06:24.061Z</time></trkpt><trkpt lat="43.506038" lon="11.7266395"><ele>186.0</ele><time>2026-04-03T13:06:27.038Z</time></trkpt><trkpt lat="43.5060121" lon="11.7267191"><ele>186.0</ele><time>2026-04-03T13:06:37.049Z</time></trkpt><trkpt lat="43.50594" lon="11.7267932"><ele>186.0</ele><time>2026-04-03T13:06:41.046Z</time></trkpt><trkpt lat="43.5058854" lon="11.7268791"><ele>186.0</ele><time>2026-04-03T13:06:43.042Z</time></trkpt><trkpt lat="43.5058122" lon="11.7269481"><ele>186.0</ele><time>2026-04-03T13:06:45.043Z</time></trkpt><trkpt lat="43.5057378" lon="11.72698"><ele>186.0</ele><time>2026-04-03T13:06:47.048Z</time></trkpt><trkpt lat="43.505668" lon="11.7270011"><ele>187.4</ele><time>2026-04-03T13:06:49.045Z</time></trkpt><trkpt lat="43.5055753" lon="11.7270048"><ele>188.8</ele><time>2026-04-03T13:06:51.044Z</time></trkpt><trkpt lat="43.5054686" lon="11.7269953"><ele>190.20000000000002</ele><time>2026-04-03T13:06:53.036Z</time></trkpt><trkpt lat="43.5053566" lon="11.7269854"><ele>191.60000000000002</ele><time>2026-04-03T13:06:55.043Z</time></trkpt><trkpt lat="43.5052362" lon="11.7269911"><ele>193.0</ele><time>2026-04-03T13:06:57.039Z</time></trkpt><trkpt lat="43.5051107" lon="11.7270159"><ele>193.42857142857144</ele><time>2026-04-03T13:06:59.043Z</time></trkpt><trkpt lat="43.5050451" lon="11.7270367"><ele>193.85714285714286</ele><time>2026-04-03T13:07:00.053Z</time></trkpt><trkpt lat="43.5049794" lon="11.7270638"><ele>194.28571428571428</ele><time>2026-04-03T13:07:01.047Z</time></trkpt><trkpt lat="43.5049137" lon="11.727103"><ele>194.71428571428572</ele><time>2026-04-03T13:07:02.033Z</time></trkpt><trkpt lat="43.5048588" lon="11.7271604"><ele>195.14285714285714</ele><time>2026-04-03T13:07:03.031Z</time></trkpt><trkpt lat="43.5048125" lon="11.7272298"><ele>195.57142857142858</ele><time>2026-04-03T13:07:04.045Z</time></trkpt><trkpt lat="43.504765" lon="11.7272985"><ele>196.0</ele><time>2026-04-03T13:07:05.044Z</time></trkpt><trkpt lat="43.5047129" lon="11.7273537"><ele>195.99999999999997</ele><time>2026-04-03T13:07:06.049Z</time></trkpt><trkpt lat="43.5046563" lon="11.7273995"><ele>196.0</ele><time>2026-04-03T13:07:07.051Z</time></trkpt><trkpt lat="43.5045689" lon="11.7274447"><ele>196.0</ele><time>2026-04-03T13:07:09.045Z</time></trkpt><trkpt lat="43.5045208" lon="11.7273618"><ele>196.0</ele><time>2026-04-03T13:07:12.043Z</time></trkpt><trkpt lat="43.504524" lon="11.7272354"><ele>195.99999999999997</ele><time>2026-04-03T13:07:14.044Z</time></trkpt><trkpt lat="43.5045157" lon="11.7271058"><ele>196.0</ele><time>2026-04-03T13:07:16.044Z</time></trkpt><trkpt lat="43.5045135" lon="11.7269568"><ele>194.66666666666666</ele><time>2026-04-03T13:07:18.045Z</time></trkpt><trkpt lat="43.5045136" lon="11.7268096"><ele>193.33333333333331</ele><time>2026-04-03T13:07:20.046Z</time></trkpt><trkpt lat="43.5045191" lon="11.7267088"><ele>192.0</ele><time>2026-04-03T13:07:22.055Z</time></trkpt><trkpt lat="43.5045092" lon="11.7266202"><ele>190.66666666666666</ele><time>2026-04-03T13:07:24.04Z</time></trkpt><trkpt lat="43.5044659" lon="11.7265539"><ele>189.33333333333331</ele><time>2026-04-03T13:07:26.039Z</time></trkpt><trkpt lat="43.5044387" lon="11.7264536"><ele>188.0</ele><time>2026-04-03T13:07:30.043Z</time></trkpt><trkpt lat="43.5044877" lon="11.7263896"><ele>188.0</ele><time>2026-04-03T13:07:32.053Z</time></trkpt><trkpt lat="43.5045572" lon="11.7264413"><ele>188.0</ele><time>2026-04-03T13:07:35.038Z</time></trkpt><trkpt lat="43.5045722" lon="11.7265546"><ele>188.0</ele><time>2026-04-03T13:07:37.042Z</time></trkpt><trkpt lat="43.504551" lon="11.7266849"><ele>188.0</ele><time>2026-04-03T13:07:39.051Z</time></trkpt><trkpt lat="43.5045241" lon="11.7268098"><ele>188.0</ele><time>2026-04-03T13:07:41.043Z</time></trkpt><trkpt lat="43.5046189" lon="11.7268355"><ele>187.8</ele><time>2026-04-03T13:07:44.051Z</time></trkpt><trkpt lat="43.5047255" lon="11.7268363"><ele>187.60000000000002</ele><time>2026-04-03T13:07:46.049Z</time></trkpt><trkpt lat="43.5048513" lon="11.726851"><ele>187.39999999999998</ele><time>2026-04-03T13:07:48.047Z</time></trkpt><trkpt lat="43.5049715" lon="11.7268513"><ele>187.2</ele><time>2026-04-03T13:07:50.049Z</time></trkpt><trkpt lat="43.5050375" lon="11.7268619"><ele>187.0</ele><time>2026-04-03T13:07:51.04Z</time></trkpt><trkpt lat="43.5051064" lon="11.7268694"><ele>187.0</ele><time>2026-04-03T13:07:52.044Z</time></trkpt><trkpt lat="43.5051763" lon="11.7268672"><ele>187.0</ele><time>2026-04-03T13:07:53.043Z</time></trkpt><trkpt lat="43.5052407" lon="11.7268609"><ele>187.0</ele><time>2026-04-03T13:07:54.042Z</time></trkpt><trkpt lat="43.5053083" lon="11.7268585"><ele>187.0</ele><time>2026-04-03T13:07:55.044Z</time></trkpt><trkpt lat="43.5053765" lon="11.7268577"><ele>187.0</ele><time>2026-04-03T13:07:56.046Z</time></trkpt><trkpt lat="43.5054405" lon="11.7268584"><ele>187.0</ele><time>2026-04-03T13:07:57.037Z</time></trkpt><trkpt lat="43.5055049" lon="11.7268628"><ele>187.0</ele><time>2026-04-03T13:07:58.042Z</time></trkpt><trkpt lat="43.5055735" lon="11.7268697"><ele>186.8</ele><time>2026-04-03T13:07:59.04Z</time></trkpt><trkpt lat="43.5056373" lon="11.7268755"><ele>186.6</ele><time>2026-04-03T13:08:00.048Z</time></trkpt><trkpt lat="43.5057495" lon="11.726859"><ele>186.4</ele><time>2026-04-03T13:08:02.046Z</time></trkpt><trkpt lat="43.5058437" lon="11.726782"><ele>186.20000000000002</ele><time>2026-04-03T13:08:04.057Z</time></trkpt><trkpt lat="43.5059248" lon="11.7266891"><ele>186.0</ele><time>2026-04-03T13:08:06.058Z</time></trkpt><trkpt lat="43.5059843" lon="11.726651"><ele>186.0</ele><time>2026-04-03T13:08:08.043Z</time></trkpt><trkpt lat="43.5059789" lon="11.726561"><ele>186.0</ele><time>2026-04-03T13:08:11.047Z</time></trkpt><trkpt lat="43.5059309" lon="11.7264948"><ele>186.0</ele><time>2026-04-03T13:08:13.052Z</time></trkpt><trkpt lat="43.5059187" lon="11.7263895"><ele>186.0</ele><time>2026-04-03T13:08:15.037Z</time></trkpt><trkpt lat="43.5058705" lon="11.7264503"><ele>186.0</ele><time>2026-04-03T13:08:18.052Z</time></trkpt><trkpt lat="43.5059416" lon="11.7265456"><ele>186.0</ele><time>2026-04-03T13:08:20.046Z</time></trkpt><trkpt lat="43.506052" lon="11.7266439"><ele>186.0</ele><time>2026-04-03T13:08:22.057Z</time></trkpt><trkpt lat="43.5061081" lon="11.726705"><ele>186.0</ele><time>2026-04-03T13:08:23.047Z</time></trkpt><trkpt lat="43.5061745" lon="11.7267744"><ele>186.0</ele><time>2026-04-03T13:08:24.047Z</time></trkpt><trkpt lat="43.5062464" lon="11.726853"><ele>186.0</ele><time>2026-04-03T13:08:25.036Z</time></trkpt><trkpt lat="43.5063194" lon="11.7269382"><ele>186.0</ele><time>2026-04-03T13:08:26.043Z</time></trkpt><trkpt lat="43.5063982" lon="11.7270289"><ele>186.0</ele><time>2026-04-03T13:08:27.038Z</time></trkpt><trkpt lat="43.506479" lon="11.7271191"><ele>186.4</ele><time>2026-04-03T13:08:28.052Z</time></trkpt><trkpt lat="43.5065563" lon="11.7272185"><ele>186.8</ele><time>2026-04-03T13:08:29.041Z</time></trkpt><trkpt lat="43.5066328" lon="11.7273173"><ele>187.20000000000002</ele><time>2026-04-03T13:08:30.037Z</time></trkpt><trkpt lat="43.5067149" lon="11.7274067"><ele>187.60000000000002</ele><time>2026-04-03T13:08:31.043Z</time></trkpt><trkpt lat="43.506798" lon="11.7274924"><ele>188.0</ele><time>2026-04-03T13:08:32.045Z</time></trkpt><trkpt lat="43.5068857" lon="11.7275865"><ele>188.0</ele><time>2026-04-03T13:08:33.041Z</time></trkpt><trkpt lat="43.5069719" lon="11.7276787"><ele>188.0</ele><time>2026-04-03T13:08:34.049Z</time></trkpt><trkpt lat="43.5070603" lon="11.7277671"><ele>188.0</ele><time>2026-04-03T13:08:35.037Z</time></trkpt><trkpt lat="43.5071486" lon="11.7278555"><ele>188.0</ele><time>2026-04-03T13:08:36.045Z</time></trkpt><trkpt lat="43.5072385" lon="11.7279453"><ele>188.0</ele><time>2026-04-03T13:08:37.043Z</time></trkpt><trkpt lat="43.5073265" lon="11.7280353"><ele>188.0</ele><time>2026-04-03T13:08:38.047Z</time></trkpt><trkpt lat="43.5074034" lon="11.7281333"><ele>188.0</ele><time>2026-04-03T13:08:39.043Z</time></trkpt><trkpt lat="43.5074744" lon="11.7282397"><ele>188.0</ele><time>2026-04-03T13:08:40.047Z</time></trkpt><trkpt lat="43.5075446" lon="11.7283622"><ele>188.0</ele><time>2026-04-03T13:08:41.036Z</time></trkpt><trkpt lat="43.5076155" lon="11.7284785"><ele>188.0</ele><time>2026-04-03T13:08:42.056Z</time></trkpt><trkpt lat="43.5076888" lon="11.7285946"><ele>188.0</ele><time>2026-04-03T13:08:43.045Z</time></trkpt><trkpt lat="43.5077634" lon="11.7287102"><ele>188.0</ele><time>2026-04-03T13:08:44.049Z</time></trkpt><trkpt lat="43.5078398" lon="11.7288148"><ele>188.0</ele><time>2026-04-03T13:08:45.038Z</time></trkpt><trkpt lat="43.5079156" lon="11.7289179"><ele>188.0</ele><time>2026-04-03T13:08:46.049Z</time></trkpt><trkpt lat="43.5079948" lon="11.7290183"><ele>188.0</ele><time>2026-04-03T13:08:47.053Z</time></trkpt><trkpt lat="43.5080746" lon="11.7291148"><ele>188.0</ele><time>2026-04-03T13:08:48.061Z</time></trkpt><trkpt lat="43.5081486" lon="11.7292146"><ele>188.0</ele><time>2026-04-03T13:08:49.046Z</time></trkpt><trkpt lat="43.5082214" lon="11.7292983"><ele>188.0</ele><time>2026-04-03T13:08:50.047Z</time></trkpt><trkpt lat="43.5082938" lon="11.7293642"><ele>188.0</ele><time>2026-04-03T13:08:51.042Z</time></trkpt><trkpt lat="43.5083481" lon="11.7294153"><ele>188.0</ele><time>2026-04-03T13:08:52.054Z</time></trkpt><trkpt lat="43.5084317" lon="11.7294501"><ele>188.0</ele><time>2026-04-03T13:08:54.048Z</time></trkpt><trkpt lat="43.508506" lon="11.7293532"><ele>188.0</ele><time>2026-04-03T13:08:57.042Z</time></trkpt><trkpt lat="43.508529" lon="11.7292677"><ele>188.0</ele><time>2026-04-03T13:08:58.053Z</time></trkpt><trkpt lat="43.5085489" lon="11.7291618"><ele>188.0</ele><time>2026-04-03T13:08:59.054Z</time></trkpt><trkpt lat="43.5085677" lon="11.7290343"><ele>188.0</ele><time>2026-04-03T13:09:00.038Z</time></trkpt><trkpt lat="43.5085905" lon="11.7289011"><ele>188.0</ele><time>2026-04-03T13:09:01.044Z</time></trkpt><trkpt lat="43.5086116" lon="11.728757"><ele>188.0</ele><time>2026-04-03T13:09:02.059Z</time></trkpt><trkpt lat="43.5086162" lon="11.7285968"><ele>187.25</ele><time>2026-04-03T13:09:03.049Z</time></trkpt><trkpt lat="43.5086043" lon="11.7284329"><ele>186.5</ele><time>2026-04-03T13:09:04.054Z</time></trkpt><trkpt lat="43.5085786" lon="11.7282716"><ele>185.75</ele><time>2026-04-03T13:09:05.043Z</time></trkpt><trkpt lat="43.5085388" lon="11.7281158"><ele>185.0</ele><time>2026-04-03T13:09:06.047Z</time></trkpt><trkpt lat="43.5084838" lon="11.7279671"><ele>185.0</ele><time>2026-04-03T13:09:07.045Z</time></trkpt><trkpt lat="43.508417" lon="11.7278198"><ele>185.0</ele><time>2026-04-03T13:09:08.046Z</time></trkpt><trkpt lat="43.5083378" lon="11.727687"><ele>185.0</ele><time>2026-04-03T13:09:09.051Z</time></trkpt><trkpt lat="43.50825" lon="11.7275501"><ele>185.0</ele><time>2026-04-03T13:09:10.045Z</time></trkpt><trkpt lat="43.5081579" lon="11.7274017"><ele>185.0</ele><time>2026-04-03T13:09:11.054Z</time></trkpt><trkpt lat="43.5080662" lon="11.7272528"><ele>185.0</ele><time>2026-04-03T13:09:12.048Z</time></trkpt><trkpt lat="43.5079702" lon="11.7270966"><ele>185.0</ele><time>2026-04-03T13:09:13.053Z</time></trkpt><trkpt lat="43.5078772" lon="11.7269383"><ele>185.0</ele><time>2026-04-03T13:09:14.06Z</time></trkpt><trkpt lat="43.5077959" lon="11.7267779"><ele>184.6</ele><time>2026-04-03T13:09:15.037Z</time></trkpt><trkpt lat="43.5077324" lon="11.7266285"><ele>184.2</ele><time>2026-04-03T13:09:16.051Z</time></trkpt><trkpt lat="43.5076873" lon="11.726483"><ele>183.8</ele><time>2026-04-03T13:09:17.048Z</time></trkpt><trkpt lat="43.507659" lon="11.7263414"><ele>183.4</ele><time>2026-04-03T13:09:18.048Z</time></trkpt><trkpt lat="43.5076437" lon="11.7262048"><ele>183.0</ele><time>2026-04-03T13:09:19.06Z</time></trkpt><trkpt lat="43.5076384" lon="11.7260747"><ele>183.4</ele><time>2026-04-03T13:09:20.039Z</time></trkpt><trkpt lat="43.5076418" lon="11.725947"><ele>183.8</ele><time>2026-04-03T13:09:21.048Z</time></trkpt><trkpt lat="43.5076485" lon="11.7258246"><ele>184.2</ele><time>2026-04-03T13:09:22.055Z</time></trkpt><trkpt lat="43.5076559" lon="11.7257054"><ele>184.6</ele><time>2026-04-03T13:09:23.039Z</time></trkpt><trkpt lat="43.5076595" lon="11.7255839"><ele>185.0</ele><time>2026-04-03T13:09:24.048Z</time></trkpt><trkpt lat="43.5076647" lon="11.7254514"><ele>185.0</ele><time>2026-04-03T13:09:25.04Z</time></trkpt><trkpt lat="43.5076747" lon="11.7253051"><ele>185.0</ele><time>2026-04-03T13:09:26.045Z</time></trkpt><trkpt lat="43.5076848" lon="11.7251459"><ele>185.0</ele><time>2026-04-03T13:09:27.044Z</time></trkpt><trkpt lat="43.5076942" lon="11.7249713"><ele>185.0</ele><time>2026-04-03T13:09:28.057Z</time></trkpt><trkpt lat="43.5076995" lon="11.7247826"><ele>185.0</ele><time>2026-04-03T13:09:29.04Z</time></trkpt><trkpt lat="43.507707" lon="11.7245882"><ele>185.0</ele><time>2026-04-03T13:09:30.046Z</time></trkpt><trkpt lat="43.5077148" lon="11.7243882"><ele>185.0</ele><time>2026-04-03T13:09:31.046Z</time></trkpt><trkpt lat="43.5077212" lon="11.7241812"><ele>185.0</ele><time>2026-04-03T13:09:32.052Z</time></trkpt><trkpt lat="43.5077298" lon="11.7239702"><ele>185.0</ele><time>2026-04-03T13:09:33.051Z</time></trkpt><trkpt lat="43.5077394" lon="11.7237571"><ele>185.0</ele><time>2026-04-03T13:09:34.047Z</time></trkpt><trkpt lat="43.5077517" lon="11.7235409"><ele>185.0</ele><time>2026-04-03T13:09:35.044Z</time></trkpt><trkpt lat="43.5077662" lon="11.7233264"><ele>185.0</ele><time>2026-04-03T13:09:36.05Z</time></trkpt><trkpt lat="43.5077767" lon="11.7231115"><ele>185.0</ele><time>2026-04-03T13:09:37.052Z</time></trkpt><trkpt lat="43.5077857" lon="11.7228956"><ele>185.0</ele><time>2026-04-03T13:09:38.047Z</time></trkpt><trkpt lat="43.5077935" lon="11.7226782"><ele>184.33333333333331</ele><time>2026-04-03T13:09:39.031Z</time></trkpt><trkpt lat="43.5078012" lon="11.7224638"><ele>183.66666666666666</ele><time>2026-04-03T13:09:40.048Z</time></trkpt><trkpt lat="43.5078098" lon="11.7222488"><ele>183.0</ele><time>2026-04-03T13:09:41.044Z</time></trkpt><trkpt lat="43.5078197" lon="11.7220334"><ele>183.0</ele><time>2026-04-03T13:09:42.042Z</time></trkpt><trkpt lat="43.5078344" lon="11.7218208"><ele>183.0</ele><time>2026-04-03T13:09:43.043Z</time></trkpt><trkpt lat="43.5078563" lon="11.721609"><ele>183.0</ele><time>2026-04-03T13:09:44.045Z</time></trkpt><trkpt lat="43.5078854" lon="11.7213979"><ele>186.0</ele><time>2026-04-03T13:09:45.053Z</time></trkpt><trkpt lat="43.5079282" lon="11.7211904"><ele>189.0</ele><time>2026-04-03T13:09:46.042Z</time></trkpt><trkpt lat="43.5079763" lon="11.7209869"><ele>192.0</ele><time>2026-04-03T13:09:47.04Z</time></trkpt><trkpt lat="43.5080268" lon="11.7207853"><ele>192.0</ele><time>2026-04-03T13:09:48.053Z</time></trkpt><trkpt lat="43.5080669" lon="11.7205822"><ele>192.0</ele><time>2026-04-03T13:09:49.043Z</time></trkpt><trkpt lat="43.5080888" lon="11.720374"><ele>192.0</ele><time>2026-04-03T13:09:50.043Z</time></trkpt><trkpt lat="43.5080901" lon="11.7201587"><ele>192.0</ele><time>2026-04-03T13:09:51.04Z</time></trkpt><trkpt lat="43.5080789" lon="11.7199362"><ele>192.0</ele><time>2026-04-03T13:09:52.048Z</time></trkpt><trkpt lat="43.5080553" lon="11.7197155"><ele>192.0</ele><time>2026-04-03T13:09:53.041Z</time></trkpt><trkpt lat="43.5080253" lon="11.7194902"><ele>192.33333333333331</ele><time>2026-04-03T13:09:54.047Z</time></trkpt><trkpt lat="43.5079958" lon="11.7192567"><ele>192.66666666666666</ele><time>2026-04-03T13:09:55.047Z</time></trkpt><trkpt lat="43.5079718" lon="11.7190198"><ele>193.0</ele><time>2026-04-03T13:09:56.044Z</time></trkpt><trkpt lat="43.5079432" lon="11.71879"><ele>191.33333333333331</ele><time>2026-04-03T13:09:57.045Z</time></trkpt><trkpt lat="43.5079001" lon="11.7185773"><ele>189.66666666666666</ele><time>2026-04-03T13:09:58.053Z</time></trkpt><trkpt lat="43.5078449" lon="11.7183939"><ele>188.0</ele><time>2026-04-03T13:09:59.05Z</time></trkpt><trkpt lat="43.5077739" lon="11.7182137"><ele>188.0</ele><time>2026-04-03T13:10:00.043Z</time></trkpt><trkpt lat="43.5077012" lon="11.7180154"><ele>188.0</ele><time>2026-04-03T13:10:01.054Z</time></trkpt><trkpt lat="43.5076311" lon="11.7178059"><ele>188.0</ele><time>2026-04-03T13:10:02.043Z</time></trkpt><trkpt lat="43.5075632" lon="11.7175841"><ele>188.33333333333331</ele><time>2026-04-03T13:10:03.06Z</time></trkpt><trkpt lat="43.5074955" lon="11.7173574"><ele>188.66666666666666</ele><time>2026-04-03T13:10:04.05Z</time></trkpt><trkpt lat="43.5074226" lon="11.7171285"><ele>189.0</ele><time>2026-04-03T13:10:05.047Z</time></trkpt><trkpt lat="43.5073481" lon="11.7169015"><ele>189.66666666666666</ele><time>2026-04-03T13:10:06.048Z</time></trkpt><trkpt lat="43.5072735" lon="11.7166759"><ele>190.33333333333331</ele><time>2026-04-03T13:10:07.047Z</time></trkpt><trkpt lat="43.5071913" lon="11.7164585"><ele>191.0</ele><time>2026-04-03T13:10:08.042Z</time></trkpt><trkpt lat="43.507099" lon="11.7162534"><ele>189.66666666666666</ele><time>2026-04-03T13:10:09.043Z</time></trkpt><trkpt lat="43.5069998" lon="11.7160556"><ele>188.33333333333334</ele><time>2026-04-03T13:10:10.051Z</time></trkpt><trkpt lat="43.5069026" lon="11.7158599"><ele>187.0</ele><time>2026-04-03T13:10:11.044Z</time></trkpt><trkpt lat="43.5068144" lon="11.7156666"><ele>187.0</ele><time>2026-04-03T13:10:12.053Z</time></trkpt><trkpt lat="43.5067282" lon="11.7154659"><ele>187.0</ele><time>2026-04-03T13:10:13.042Z</time></trkpt><trkpt lat="43.5066589" lon="11.715264"><ele>187.0</ele><time>2026-04-03T13:10:14.044Z</time></trkpt><trkpt lat="43.506603" lon="11.7150533"><ele>186.0</ele><time>2026-04-03T13:10:15.035Z</time></trkpt><trkpt lat="43.5065527" lon="11.7148396"><ele>185.0</ele><time>2026-04-03T13:10:16.047Z</time></trkpt><trkpt lat="43.5065032" lon="11.7146237"><ele>184.0</ele><time>2026-04-03T13:10:17.047Z</time></trkpt><trkpt lat="43.5064573" lon="11.7144079"><ele>183.5</ele><time>2026-04-03T13:10:18.037Z</time></trkpt><trkpt lat="43.5064132" lon="11.7142118"><ele>183.0</ele><time>2026-04-03T13:10:19.044Z</time></trkpt><trkpt lat="43.5063801" lon="11.714042"><ele>182.5</ele><time>2026-04-03T13:10:20.038Z</time></trkpt><trkpt lat="43.506347" lon="11.7139048"><ele>182.0</ele><time>2026-04-03T13:10:21.05Z</time></trkpt><trkpt lat="43.5063093" lon="11.7138049"><ele>181.39999999999998</ele><time>2026-04-03T13:10:22.054Z</time></trkpt><trkpt lat="43.5062109" lon="11.7137291"><ele>180.79999999999998</ele><time>2026-04-03T13:10:24.052Z</time></trkpt><trkpt lat="43.5061482" lon="11.7137634"><ele>180.2</ele><time>2026-04-03T13:10:25.052Z</time></trkpt><trkpt lat="43.5060789" lon="11.7138295"><ele>179.6</ele><time>2026-04-03T13:10:26.043Z</time></trkpt><trkpt lat="43.5060044" lon="11.7139003"><ele>179.0</ele><time>2026-04-03T13:10:27.043Z</time></trkpt><trkpt lat="43.5059191" lon="11.7139767"><ele>179.0</ele><time>2026-04-03T13:10:28.056Z</time></trkpt><trkpt lat="43.5058232" lon="11.7140518"><ele>179.0</ele><time>2026-04-03T13:10:29.042Z</time></trkpt><trkpt lat="43.5057205" lon="11.7141473"><ele>179.0</ele><time>2026-04-03T13:10:30.056Z</time></trkpt><trkpt lat="43.5056059" lon="11.7142478"><ele>179.0</ele><time>2026-04-03T13:10:31.053Z</time></trkpt><trkpt lat="43.5054795" lon="11.7143481"><ele>177.33333333333331</ele><time>2026-04-03T13:10:32.049Z</time></trkpt><trkpt lat="43.5053483" lon="11.714449"><ele>175.66666666666666</ele><time>2026-04-03T13:10:33.045Z</time></trkpt><trkpt lat="43.5052105" lon="11.7145547"><ele>174.0</ele><time>2026-04-03T13:10:34.05Z</time></trkpt><trkpt lat="43.5050659" lon="11.7146718"><ele>174.0</ele><time>2026-04-03T13:10:35.047Z</time></trkpt><trkpt lat="43.5049188" lon="11.7147905"><ele>174.0</ele><time>2026-04-03T13:10:36.041Z</time></trkpt><trkpt lat="43.504771" lon="11.7149065"><ele>174.0</ele><time>2026-04-03T13:10:37.04Z</time></trkpt><trkpt lat="43.5046232" lon="11.7150147"><ele>173.33333333333334</ele><time>2026-04-03T13:10:38.041Z</time></trkpt><trkpt lat="43.5044764" lon="11.715123"><ele>172.66666666666669</ele><time>2026-04-03T13:10:39.034Z</time></trkpt><trkpt lat="43.5043347" lon="11.715235"><ele>172.0</ele><time>2026-04-03T13:10:40.054Z</time></trkpt><trkpt lat="43.5041938" lon="11.7153509"><ele>173.33333333333334</ele><time>2026-04-03T13:10:41.042Z</time></trkpt><trkpt lat="43.504052" lon="11.7154649"><ele>174.66666666666666</ele><time>2026-04-03T13:10:42.047Z</time></trkpt><trkpt lat="43.5039067" lon="11.71558"><ele>176.0</ele><time>2026-04-03T13:10:43.053Z</time></trkpt><trkpt lat="43.5037603" lon="11.715699"><ele>176.33333333333331</ele><time>2026-04-03T13:10:44.048Z</time></trkpt><trkpt lat="43.5036111" lon="11.7158197"><ele>176.66666666666666</ele><time>2026-04-03T13:10:45.049Z</time></trkpt><trkpt lat="43.5034592" lon="11.7159357"><ele>177.0</ele><time>2026-04-03T13:10:46.052Z</time></trkpt><trkpt lat="43.5033076" lon="11.7160559"><ele>177.33333333333334</ele><time>2026-04-03T13:10:47.042Z</time></trkpt><trkpt lat="43.5031604" lon="11.7161705"><ele>177.66666666666669</ele><time>2026-04-03T13:10:48.055Z</time></trkpt><trkpt lat="43.5030132" lon="11.7162844"><ele>178.0</ele><time>2026-04-03T13:10:49.051Z</time></trkpt><trkpt lat="43.5028725" lon="11.7163951"><ele>178.0</ele><time>2026-04-03T13:10:50.049Z</time></trkpt><trkpt lat="43.5027466" lon="11.7164902"><ele>178.0</ele><time>2026-04-03T13:10:51.046Z</time></trkpt><trkpt lat="43.5026227" lon="11.7165819"><ele>178.0</ele><time>2026-04-03T13:10:52.046Z</time></trkpt><trkpt lat="43.5024986" lon="11.7166767"><ele>178.0</ele><time>2026-04-03T13:10:53.05Z</time></trkpt><trkpt lat="43.5023714" lon="11.716778"><ele>178.0</ele><time>2026-04-03T13:10:54.047Z</time></trkpt><trkpt lat="43.5022433" lon="11.7168802"><ele>178.0</ele><time>2026-04-03T13:10:55.051Z</time></trkpt><trkpt lat="43.5021108" lon="11.7169811"><ele>178.0</ele><time>2026-04-03T13:10:56.055Z</time></trkpt><trkpt lat="43.5019781" lon="11.7170829"><ele>177.66666666666669</ele><time>2026-04-03T13:10:57.051Z</time></trkpt><trkpt lat="43.5018467" lon="11.7171909"><ele>177.33333333333334</ele><time>2026-04-03T13:10:58.057Z</time></trkpt><trkpt lat="43.5017164" lon="11.7172982"><ele>177.0</ele><time>2026-04-03T13:10:59.051Z</time></trkpt><trkpt lat="43.501585" lon="11.7174045"><ele>177.0</ele><time>2026-04-03T13:11:00.05Z</time></trkpt><trkpt lat="43.5014504" lon="11.7175102"><ele>177.0</ele><time>2026-04-03T13:11:01.051Z</time></trkpt><trkpt lat="43.5013164" lon="11.7176122"><ele>177.0</ele><time>2026-04-03T13:11:02.049Z</time></trkpt><trkpt lat="43.5011833" lon="11.7177164"><ele>177.33333333333334</ele><time>2026-04-03T13:11:03.051Z</time></trkpt><trkpt lat="43.5010481" lon="11.7178212"><ele>177.66666666666669</ele><time>2026-04-03T13:11:04.054Z</time></trkpt><trkpt lat="43.5009066" lon="11.7179308"><ele>178.0</ele><time>2026-04-03T13:11:05.054Z</time></trkpt><trkpt lat="43.5007679" lon="11.7180452"><ele>178.0</ele><time>2026-04-03T13:11:06.064Z</time></trkpt><trkpt lat="43.5006343" lon="11.7181482"><ele>178.0</ele><time>2026-04-03T13:11:07.049Z</time></trkpt><trkpt lat="43.5005155" lon="11.7182451"><ele>178.0</ele><time>2026-04-03T13:11:08.055Z</time></trkpt><trkpt lat="43.50041" lon="11.7183424"><ele>178.0</ele><time>2026-04-03T13:11:09.056Z</time></trkpt><trkpt lat="43.5003116" lon="11.7184415"><ele>178.0</ele><time>2026-04-03T13:11:10.043Z</time></trkpt><trkpt lat="43.5002242" lon="11.718551"><ele>178.0</ele><time>2026-04-03T13:11:11.045Z</time></trkpt><trkpt lat="43.5001403" lon="11.7186721"><ele>178.0</ele><time>2026-04-03T13:11:12.041Z</time></trkpt><trkpt lat="43.5000587" lon="11.7188009"><ele>178.0</ele><time>2026-04-03T13:11:13.048Z</time></trkpt><trkpt lat="43.4999759" lon="11.7189303"><ele>177.75</ele><time>2026-04-03T13:11:14.052Z</time></trkpt><trkpt lat="43.4998935" lon="11.7190606"><ele>177.5</ele><time>2026-04-03T13:11:15.039Z</time></trkpt><trkpt lat="43.4998011" lon="11.7191753"><ele>177.25</ele><time>2026-04-03T13:11:16.042Z</time></trkpt><trkpt lat="43.4997012" lon="11.7192727"><ele>177.0</ele><time>2026-04-03T13:11:17.053Z</time></trkpt><trkpt lat="43.4995853" lon="11.7193279"><ele>175.75</ele><time>2026-04-03T13:11:18.054Z</time></trkpt><trkpt lat="43.4994753" lon="11.7193246"><ele>174.5</ele><time>2026-04-03T13:11:19.041Z</time></trkpt><trkpt lat="43.4993657" lon="11.7193073"><ele>173.25</ele><time>2026-04-03T13:11:20.048Z</time></trkpt><trkpt lat="43.4992471" lon="11.7192769"><ele>172.0</ele><time>2026-04-03T13:11:21.052Z</time></trkpt><trkpt lat="43.4991195" lon="11.7192492"><ele>172.0</ele><time>2026-04-03T13:11:22.055Z</time></trkpt><trkpt lat="43.4989823" lon="11.7192224"><ele>172.0</ele><time>2026-04-03T13:11:23.054Z</time></trkpt><trkpt lat="43.4988427" lon="11.719189"><ele>172.0</ele><time>2026-04-03T13:11:24.05Z</time></trkpt><trkpt lat="43.4987053" lon="11.7191579"><ele>172.0</ele><time>2026-04-03T13:11:25.043Z</time></trkpt><trkpt lat="43.4985685" lon="11.7191302"><ele>172.0</ele><time>2026-04-03T13:11:26.06Z</time></trkpt><trkpt lat="43.4984489" lon="11.7191122"><ele>172.0</ele><time>2026-04-03T13:11:27.05Z</time></trkpt><trkpt lat="43.4983539" lon="11.7190958"><ele>172.0</ele><time>2026-04-03T13:11:28.044Z</time></trkpt><trkpt lat="43.4982769" lon="11.7190806"><ele>172.0</ele><time>2026-04-03T13:11:29.048Z</time></trkpt><trkpt lat="43.4982137" lon="11.7190474"><ele>172.0</ele><time>2026-04-03T13:11:30.043Z</time></trkpt><trkpt lat="43.4981685" lon="11.718979"><ele>172.0</ele><time>2026-04-03T13:11:31.043Z</time></trkpt><trkpt lat="43.4981513" lon="11.7188858"><ele>172.0</ele><time>2026-04-03T13:11:32.053Z</time></trkpt><trkpt lat="43.4981511" lon="11.7187936"><ele>172.0</ele><time>2026-04-03T13:11:33.055Z</time></trkpt><trkpt lat="43.4981619" lon="11.7186855"><ele>172.0</ele><time>2026-04-03T13:11:34.053Z</time></trkpt><trkpt lat="43.4981821" lon="11.7185801"><ele>172.0</ele><time>2026-04-03T13:11:35.055Z</time></trkpt><trkpt lat="43.498204" lon="11.7184723"><ele>172.0</ele><time>2026-04-03T13:11:36.061Z</time></trkpt><trkpt lat="43.4982261" lon="11.7183688"><ele>172.0</ele><time>2026-04-03T13:11:37.051Z</time></trkpt><trkpt lat="43.4982449" lon="11.7182678"><ele>171.8</ele><time>2026-04-03T13:11:38.054Z</time></trkpt><trkpt lat="43.4982627" lon="11.7181555"><ele>171.6</ele><time>2026-04-03T13:11:39.037Z</time></trkpt><trkpt lat="43.4982813" lon="11.7180216"><ele>171.4</ele><time>2026-04-03T13:11:40.054Z</time></trkpt><trkpt lat="43.498302" lon="11.7178758"><ele>171.20000000000002</ele><time>2026-04-03T13:11:41.047Z</time></trkpt><trkpt lat="43.4983256" lon="11.717716"><ele>171.0</ele><time>2026-04-03T13:11:42.053Z</time></trkpt><trkpt lat="43.498343" lon="11.7175522"><ele>171.4</ele><time>2026-04-03T13:11:43.057Z</time></trkpt><trkpt lat="43.4983539" lon="11.7173913"><ele>171.8</ele><time>2026-04-03T13:11:44.051Z</time></trkpt><trkpt lat="43.4983601" lon="11.7172405"><ele>172.20000000000002</ele><time>2026-04-03T13:11:45.049Z</time></trkpt><trkpt lat="43.4983726" lon="11.7170929"><ele>172.60000000000002</ele><time>2026-04-03T13:11:46.062Z</time></trkpt><trkpt lat="43.4983871" lon="11.7169435"><ele>173.0</ele><time>2026-04-03T13:11:47.044Z</time></trkpt><trkpt lat="43.4984019" lon="11.7167877"><ele>173.0</ele><time>2026-04-03T13:11:48.053Z</time></trkpt><trkpt lat="43.4984156" lon="11.7166353"><ele>173.0</ele><time>2026-04-03T13:11:49.058Z</time></trkpt><trkpt lat="43.4984312" lon="11.7164982"><ele>173.0</ele><time>2026-04-03T13:11:50.054Z</time></trkpt><trkpt lat="43.4984501" lon="11.7163626"><ele>173.0</ele><time>2026-04-03T13:11:51.043Z</time></trkpt><trkpt lat="43.4984719" lon="11.7162225"><ele>173.0</ele><time>2026-04-03T13:11:52.071Z</time></trkpt><trkpt lat="43.4984942" lon="11.7160825"><ele>172.83333333333331</ele><time>2026-04-03T13:11:53.049Z</time></trkpt><trkpt lat="43.4985119" lon="11.7159568"><ele>172.66666666666666</ele><time>2026-04-03T13:11:54.057Z</time></trkpt><trkpt lat="43.4985253" lon="11.7158474"><ele>172.5</ele><time>2026-04-03T13:11:55.051Z</time></trkpt><trkpt lat="43.4985349" lon="11.7157426"><ele>172.33333333333334</ele><time>2026-04-03T13:11:56.053Z</time></trkpt><trkpt lat="43.4985446" lon="11.7156402"><ele>172.16666666666669</ele><time>2026-04-03T13:11:57.033Z</time></trkpt><trkpt lat="43.4985601" lon="11.715538"><ele>172.0</ele><time>2026-04-03T13:11:58.054Z</time></trkpt><trkpt lat="43.4985718" lon="11.715443"><ele>172.0</ele><time>2026-04-03T13:11:59.049Z</time></trkpt><trkpt lat="43.4985833" lon="11.7153559"><ele>172.0</ele><time>2026-04-03T13:12:00.062Z</time></trkpt><trkpt lat="43.4985964" lon="11.7151938"><ele>172.0</ele><time>2026-04-03T13:12:02.047Z</time></trkpt><trkpt lat="43.4986085" lon="11.7150479"><ele>172.0</ele><time>2026-04-03T13:12:04.056Z</time></trkpt><trkpt lat="43.4986192" lon="11.7148847"><ele>172.0</ele><time>2026-04-03T13:12:06.056Z</time></trkpt><trkpt lat="43.4986278" lon="11.7147101"><ele>171.8</ele><time>2026-04-03T13:12:08.072Z</time></trkpt><trkpt lat="43.4986255" lon="11.714607"><ele>171.6</ele><time>2026-04-03T13:12:09.063Z</time></trkpt><trkpt lat="43.498624" lon="11.7144884"><ele>171.4</ele><time>2026-04-03T13:12:10.062Z</time></trkpt><trkpt lat="43.4986309" lon="11.7143581"><ele>171.20000000000002</ele><time>2026-04-03T13:12:11.043Z</time></trkpt><trkpt lat="43.4986421" lon="11.7142134"><ele>171.0</ele><time>2026-04-03T13:12:12.071Z</time></trkpt><trkpt lat="43.4986568" lon="11.714059"><ele>171.25</ele><time>2026-04-03T13:12:13.043Z</time></trkpt><trkpt lat="43.4986728" lon="11.7138944"><ele>171.5</ele><time>2026-04-03T13:12:14.073Z</time></trkpt><trkpt lat="43.4986884" lon="11.7137225"><ele>171.75</ele><time>2026-04-03T13:12:15.04Z</time></trkpt><trkpt lat="43.4987019" lon="11.7135432"><ele>172.0</ele><time>2026-04-03T13:12:16.055Z</time></trkpt><trkpt lat="43.4987114" lon="11.713358"><ele>172.0</ele><time>2026-04-03T13:12:17.036Z</time></trkpt><trkpt lat="43.4987195" lon="11.7131659"><ele>172.0</ele><time>2026-04-03T13:12:18.035Z</time></trkpt><trkpt lat="43.4987334" lon="11.7129708"><ele>172.0</ele><time>2026-04-03T13:12:19.043Z</time></trkpt><trkpt lat="43.4987516" lon="11.7127791"><ele>172.0</ele><time>2026-04-03T13:12:20.05Z</time></trkpt><trkpt lat="43.4987713" lon="11.712589"><ele>171.75</ele><time>2026-04-03T13:12:21.046Z</time></trkpt><trkpt lat="43.4987898" lon="11.7124128"><ele>171.5</ele><time>2026-04-03T13:12:22.042Z</time></trkpt><trkpt lat="43.4988053" lon="11.7122517"><ele>171.25</ele><time>2026-04-03T13:12:23.037Z</time></trkpt><trkpt lat="43.4988192" lon="11.7120968"><ele>171.0</ele><time>2026-04-03T13:12:24.057Z</time></trkpt><trkpt lat="43.49883" lon="11.7119373"><ele>171.0</ele><time>2026-04-03T13:12:25.048Z</time></trkpt><trkpt lat="43.4988394" lon="11.7117778"><ele>171.0</ele><time>2026-04-03T13:12:26.165Z</time></trkpt><trkpt lat="43.4988596" lon="11.7114761"><ele>171.0</ele><time>2026-04-03T13:12:28.053Z</time></trkpt><trkpt lat="43.4988734" lon="11.7113389"><ele>171.0</ele><time>2026-04-03T13:12:29.055Z</time></trkpt><trkpt lat="43.4988867" lon="11.7112188"><ele>171.0</ele><time>2026-04-03T13:12:30.046Z</time></trkpt><trkpt lat="43.4989004" lon="11.7111012"><ele>171.0</ele><time>2026-04-03T13:12:31.05Z</time></trkpt><trkpt lat="43.4989117" lon="11.7109862"><ele>171.0</ele><time>2026-04-03T13:12:32.054Z</time></trkpt><trkpt lat="43.4989134" lon="11.7108712"><ele>171.0</ele><time>2026-04-03T13:12:33.059Z</time></trkpt><trkpt lat="43.4989061" lon="11.7107654"><ele>171.0</ele><time>2026-04-03T13:12:34.049Z</time></trkpt><trkpt lat="43.4988861" lon="11.7106728"><ele>171.0</ele><time>2026-04-03T13:12:35.045Z</time></trkpt><trkpt lat="43.4988506" lon="11.7105885"><ele>170.8</ele><time>2026-04-03T13:12:36.042Z</time></trkpt><trkpt lat="43.4987959" lon="11.7105287"><ele>170.60000000000002</ele><time>2026-04-03T13:12:37.047Z</time></trkpt><trkpt lat="43.4986936" lon="11.7104613"><ele>170.4</ele><time>2026-04-03T13:12:39.038Z</time></trkpt><trkpt lat="43.4986112" lon="11.7104154"><ele>170.2</ele><time>2026-04-03T13:12:41.041Z</time></trkpt><trkpt lat="43.4985752" lon="11.7103036"><ele>170.0</ele><time>2026-04-03T13:12:43.048Z</time></trkpt><trkpt lat="43.4986077" lon="11.7101379"><ele>170.0</ele><time>2026-04-03T13:12:45.05Z</time></trkpt><trkpt lat="43.4986592" lon="11.7100638"><ele>170.0</ele><time>2026-04-03T13:12:46.058Z</time></trkpt><trkpt lat="43.4987257" lon="11.7099983"><ele>170.0</ele><time>2026-04-03T13:12:47.037Z</time></trkpt><trkpt lat="43.4988052" lon="11.7099292"><ele>170.0</ele><time>2026-04-03T13:12:48.044Z</time></trkpt><trkpt lat="43.4988782" lon="11.7098371"><ele>170.0</ele><time>2026-04-03T13:12:49.055Z</time></trkpt><trkpt lat="43.498936" lon="11.7097176"><ele>170.0</ele><time>2026-04-03T13:12:50.049Z</time></trkpt><trkpt lat="43.4989741" lon="11.7095829"><ele>170.0</ele><time>2026-04-03T13:12:51.058Z</time></trkpt><trkpt lat="43.4989901" lon="11.7094342"><ele>170.0</ele><time>2026-04-03T13:12:52.048Z</time></trkpt><trkpt lat="43.4989963" lon="11.7092913"><ele>170.0</ele><time>2026-04-03T13:12:53.041Z</time></trkpt><trkpt lat="43.4990009" lon="11.7091568"><ele>170.0</ele><time>2026-04-03T13:12:54.041Z</time></trkpt><trkpt lat="43.4990114" lon="11.7090221"><ele>170.6</ele><time>2026-04-03T13:12:55.05Z</time></trkpt><trkpt lat="43.499023" lon="11.7088891"><ele>171.2</ele><time>2026-04-03T13:12:56.046Z</time></trkpt><trkpt lat="43.4990329" lon="11.7087498"><ele>171.8</ele><time>2026-04-03T13:12:57.039Z</time></trkpt><trkpt lat="43.4990471" lon="11.7086078"><ele>172.4</ele><time>2026-04-03T13:12:58.05Z</time></trkpt><trkpt lat="43.4990611" lon="11.7084511"><ele>173.0</ele><time>2026-04-03T13:12:59.052Z</time></trkpt><trkpt lat="43.4990738" lon="11.7082903"><ele>173.0</ele><time>2026-04-03T13:13:00.052Z</time></trkpt><trkpt lat="43.4990884" lon="11.7081273"><ele>173.0</ele><time>2026-04-03T13:13:01.044Z</time></trkpt><trkpt lat="43.4991045" lon="11.7079582"><ele>173.0</ele><time>2026-04-03T13:13:02.045Z</time></trkpt><trkpt lat="43.499119" lon="11.7077896"><ele>173.0</ele><time>2026-04-03T13:13:03.03Z</time></trkpt><trkpt lat="43.499135" lon="11.7076216"><ele>173.0</ele><time>2026-04-03T13:13:04.049Z</time></trkpt><trkpt lat="43.4991488" lon="11.7074533"><ele>173.0</ele><time>2026-04-03T13:13:05.046Z</time></trkpt><trkpt lat="43.499159" lon="11.7072754"><ele>173.0</ele><time>2026-04-03T13:13:06.047Z</time></trkpt><trkpt lat="43.4991719" lon="11.7070907"><ele>173.0</ele><time>2026-04-03T13:13:07.046Z</time></trkpt><trkpt lat="43.4991821" lon="11.7068989"><ele>173.0</ele><time>2026-04-03T13:13:08.05Z</time></trkpt><trkpt lat="43.4991966" lon="11.7067069"><ele>173.0</ele><time>2026-04-03T13:13:09.051Z</time></trkpt><trkpt lat="43.4992064" lon="11.7065137"><ele>173.0</ele><time>2026-04-03T13:13:10.059Z</time></trkpt><trkpt lat="43.4992151" lon="11.7063137"><ele>173.0</ele><time>2026-04-03T13:13:11.055Z</time></trkpt><trkpt lat="43.4992204" lon="11.7061117"><ele>173.0</ele><time>2026-04-03T13:13:12.056Z</time></trkpt><trkpt lat="43.4992325" lon="11.705911"><ele>173.0</ele><time>2026-04-03T13:13:13.052Z</time></trkpt><trkpt lat="43.499243" lon="11.7057081"><ele>173.0</ele><time>2026-04-03T13:13:14.048Z</time></trkpt><trkpt lat="43.4992515" lon="11.7055035"><ele>173.0</ele><time>2026-04-03T13:13:15.045Z</time></trkpt><trkpt lat="43.4992647" lon="11.7053065"><ele>173.75</ele><time>2026-04-03T13:13:16.041Z</time></trkpt><trkpt lat="43.4992712" lon="11.7051041"><ele>174.5</ele><time>2026-04-03T13:13:17.041Z</time></trkpt><trkpt lat="43.499277" lon="11.7048971"><ele>175.25</ele><time>2026-04-03T13:13:18.054Z</time></trkpt><trkpt lat="43.4992832" lon="11.7046895"><ele>176.0</ele><time>2026-04-03T13:13:19.044Z</time></trkpt><trkpt lat="43.4992969" lon="11.7044845"><ele>175.75</ele><time>2026-04-03T13:13:20.042Z</time></trkpt><trkpt lat="43.4993199" lon="11.7042807"><ele>175.5</ele><time>2026-04-03T13:13:21.039Z</time></trkpt><trkpt lat="43.4993381" lon="11.7040797"><ele>175.25</ele><time>2026-04-03T13:13:22.043Z</time></trkpt><trkpt lat="43.4993519" lon="11.703873"><ele>175.0</ele><time>2026-04-03T13:13:23.041Z</time></trkpt><trkpt lat="43.499363" lon="11.7036769"><ele>174.5</ele><time>2026-04-03T13:13:24.048Z</time></trkpt><trkpt lat="43.4993764" lon="11.7034983"><ele>174.0</ele><time>2026-04-03T13:13:25.052Z</time></trkpt><trkpt lat="43.4993946" lon="11.7033286"><ele>173.5</ele><time>2026-04-03T13:13:26.042Z</time></trkpt><trkpt lat="43.499409" lon="11.7031738"><ele>173.0</ele><time>2026-04-03T13:13:27.035Z</time></trkpt><trkpt lat="43.4994139" lon="11.7030411"><ele>173.0</ele><time>2026-04-03T13:13:28.055Z</time></trkpt><trkpt lat="43.4994062" lon="11.7029342"><ele>173.0</ele><time>2026-04-03T13:13:29.038Z</time></trkpt><trkpt lat="43.4993806" lon="11.7028536"><ele>173.0</ele><time>2026-04-03T13:13:30.048Z</time></trkpt><trkpt lat="43.4992739" lon="11.7027783"><ele>173.0</ele><time>2026-04-03T13:13:32.05Z</time></trkpt><trkpt lat="43.4991939" lon="11.7027746"><ele>173.0</ele><time>2026-04-03T13:13:33.045Z</time></trkpt><trkpt lat="43.4990952" lon="11.7027952"><ele>173.0</ele><time>2026-04-03T13:13:34.053Z</time></trkpt><trkpt lat="43.498979" lon="11.7028212"><ele>173.0</ele><time>2026-04-03T13:13:35.041Z</time></trkpt><trkpt lat="43.4988527" lon="11.7028358"><ele>173.0</ele><time>2026-04-03T13:13:36.045Z</time></trkpt><trkpt lat="43.498718" lon="11.7028589"><ele>173.0</ele><time>2026-04-03T13:13:37.048Z</time></trkpt><trkpt lat="43.4985892" lon="11.7028837"><ele>173.0</ele><time>2026-04-03T13:13:38.061Z</time></trkpt><trkpt lat="43.4984704" lon="11.7028977"><ele>172.83333333333331</ele><time>2026-04-03T13:13:39.056Z</time></trkpt><trkpt lat="43.4983674" lon="11.7028993"><ele>172.66666666666666</ele><time>2026-04-03T13:13:40.067Z</time></trkpt><trkpt lat="43.4982776" lon="11.7028853"><ele>172.5</ele><time>2026-04-03T13:13:41.05Z</time></trkpt><trkpt lat="43.4982001" lon="11.7028541"><ele>172.33333333333334</ele><time>2026-04-03T13:13:42.079Z</time></trkpt><trkpt lat="43.4981406" lon="11.7027833"><ele>172.16666666666669</ele><time>2026-04-03T13:13:43.054Z</time></trkpt><trkpt lat="43.4980908" lon="11.7026871"><ele>172.0</ele><time>2026-04-03T13:13:44.052Z</time></trkpt><trkpt lat="43.4980568" lon="11.7025702"><ele>171.8</ele><time>2026-04-03T13:13:45.043Z</time></trkpt><trkpt lat="43.498034" lon="11.7024457"><ele>171.6</ele><time>2026-04-03T13:13:46.052Z</time></trkpt><trkpt lat="43.4979973" lon="11.7023266"><ele>171.4</ele><time>2026-04-03T13:13:47.048Z</time></trkpt><trkpt lat="43.4979562" lon="11.702196"><ele>171.20000000000002</ele><time>2026-04-03T13:13:48.053Z</time></trkpt><trkpt lat="43.4979085" lon="11.7020506"><ele>171.0</ele><time>2026-04-03T13:13:49.044Z</time></trkpt><trkpt lat="43.4978587" lon="11.7018923"><ele>171.5</ele><time>2026-04-03T13:13:50.059Z</time></trkpt><trkpt lat="43.4978063" lon="11.701711"><ele>172.0</ele><time>2026-04-03T13:13:51.041Z</time></trkpt><trkpt lat="43.49775" lon="11.7015345"><ele>172.5</ele><time>2026-04-03T13:13:52.043Z</time></trkpt><trkpt lat="43.4976977" lon="11.7013432"><ele>173.0</ele><time>2026-04-03T13:13:53.052Z</time></trkpt><trkpt lat="43.4976412" lon="11.7011362"><ele>173.0</ele><time>2026-04-03T13:13:54.059Z</time></trkpt><trkpt lat="43.497579" lon="11.7009363"><ele>173.0</ele><time>2026-04-03T13:13:55.044Z</time></trkpt><trkpt lat="43.4975208" lon="11.7007438"><ele>173.0</ele><time>2026-04-03T13:13:56.042Z</time></trkpt><trkpt lat="43.4974657" lon="11.7005535"><ele>173.0</ele><time>2026-04-03T13:13:57.063Z</time></trkpt><trkpt lat="43.4974122" lon="11.7003665"><ele>173.0</ele><time>2026-04-03T13:13:58.053Z</time></trkpt><trkpt lat="43.4973612" lon="11.7001859"><ele>173.0</ele><time>2026-04-03T13:13:59.043Z</time></trkpt><trkpt lat="43.4973144" lon="11.70002"><ele>173.0</ele><time>2026-04-03T13:14:00.065Z</time></trkpt><trkpt lat="43.4972755" lon="11.6998749"><ele>172.83333333333331</ele><time>2026-04-03T13:14:01.047Z</time></trkpt><trkpt lat="43.4972341" lon="11.6997365"><ele>172.66666666666666</ele><time>2026-04-03T13:14:02.057Z</time></trkpt><trkpt lat="43.4971978" lon="11.6996206"><ele>172.5</ele><time>2026-04-03T13:14:03.048Z</time></trkpt><trkpt lat="43.4971648" lon="11.6995218"><ele>172.33333333333334</ele><time>2026-04-03T13:14:04.054Z</time></trkpt><trkpt lat="43.4971266" lon="11.6994528"><ele>172.16666666666669</ele><time>2026-04-03T13:14:05.052Z</time></trkpt><trkpt lat="43.4970344" lon="11.6994381"><ele>172.0</ele><time>2026-04-03T13:14:07.047Z</time></trkpt><trkpt lat="43.4969319" lon="11.699537"><ele>172.0</ele><time>2026-04-03T13:14:09.052Z</time></trkpt><trkpt lat="43.496866" lon="11.6996101"><ele>172.0</ele><time>2026-04-03T13:14:10.053Z</time></trkpt><trkpt lat="43.4968018" lon="11.6996713"><ele>172.0</ele><time>2026-04-03T13:14:11.049Z</time></trkpt><trkpt lat="43.4966982" lon="11.699646"><ele>172.0</ele><time>2026-04-03T13:14:13.051Z</time></trkpt><trkpt lat="43.4966529" lon="11.6995788"><ele>172.0</ele><time>2026-04-03T13:14:14.043Z</time></trkpt><trkpt lat="43.496597" lon="11.6994894"><ele>172.0</ele><time>2026-04-03T13:14:15.052Z</time></trkpt><trkpt lat="43.4965137" lon="11.6994076"><ele>172.0</ele><time>2026-04-03T13:14:16.052Z</time></trkpt><trkpt lat="43.4964229" lon="11.6993198"><ele>172.0</ele><time>2026-04-03T13:14:17.052Z</time></trkpt><trkpt lat="43.4963229" lon="11.6992282"><ele>172.0</ele><time>2026-04-03T13:14:18.047Z</time></trkpt><trkpt lat="43.4962247" lon="11.6991275"><ele>172.0</ele><time>2026-04-03T13:14:19.044Z</time></trkpt><trkpt lat="43.4961266" lon="11.6990291"><ele>174.25</ele><time>2026-04-03T13:14:20.04Z</time></trkpt><trkpt lat="43.496029" lon="11.6989369"><ele>176.5</ele><time>2026-04-03T13:14:21.045Z</time></trkpt><trkpt lat="43.4959285" lon="11.6988502"><ele>178.75</ele><time>2026-04-03T13:14:22.04Z</time></trkpt><trkpt lat="43.4958375" lon="11.6987648"><ele>181.0</ele><time>2026-04-03T13:14:23.05Z</time></trkpt><trkpt lat="43.495748" lon="11.6986777"><ele>181.75</ele><time>2026-04-03T13:14:24.051Z</time></trkpt><trkpt lat="43.4956628" lon="11.6985793"><ele>182.5</ele><time>2026-04-03T13:14:25.043Z</time></trkpt><trkpt lat="43.4955799" lon="11.698469"><ele>183.25</ele><time>2026-04-03T13:14:26.04Z</time></trkpt><trkpt lat="43.4954984" lon="11.6983543"><ele>184.0</ele><time>2026-04-03T13:14:27.045Z</time></trkpt><trkpt lat="43.4954122" lon="11.6982406"><ele>184.0</ele><time>2026-04-03T13:14:28.055Z</time></trkpt><trkpt lat="43.4953161" lon="11.6981312"><ele>184.0</ele><time>2026-04-03T13:14:29.044Z</time></trkpt><trkpt lat="43.4952178" lon="11.6980349"><ele>184.0</ele><time>2026-04-03T13:14:30.049Z</time></trkpt><trkpt lat="43.4951158" lon="11.6979474"><ele>184.0</ele><time>2026-04-03T13:14:31.041Z</time></trkpt><trkpt lat="43.495018" lon="11.6978438"><ele>182.75</ele><time>2026-04-03T13:14:32.052Z</time></trkpt><trkpt lat="43.494917" lon="11.6977349"><ele>181.5</ele><time>2026-04-03T13:14:33.047Z</time></trkpt><trkpt lat="43.4948193" lon="11.6976378"><ele>180.25</ele><time>2026-04-03T13:14:34.051Z</time></trkpt><trkpt lat="43.4947268" lon="11.697544"><ele>179.0</ele><time>2026-04-03T13:14:35.044Z</time></trkpt><trkpt lat="43.4946372" lon="11.6974331"><ele>182.5</ele><time>2026-04-03T13:14:36.047Z</time></trkpt><trkpt lat="43.4945585" lon="11.6972939"><ele>186.0</ele><time>2026-04-03T13:14:37.053Z</time></trkpt><trkpt lat="43.4944949" lon="11.6971495"><ele>189.5</ele><time>2026-04-03T13:14:38.056Z</time></trkpt><trkpt lat="43.4944381" lon="11.6970182"><ele>193.0</ele><time>2026-04-03T13:14:39.041Z</time></trkpt><trkpt lat="43.494361" lon="11.6969259"><ele>193.60000000000002</ele><time>2026-04-03T13:14:40.049Z</time></trkpt><trkpt lat="43.4942738" lon="11.6968564"><ele>194.20000000000002</ele><time>2026-04-03T13:14:41.043Z</time></trkpt><trkpt lat="43.494188" lon="11.6967847"><ele>194.8</ele><time>2026-04-03T13:14:42.056Z</time></trkpt><trkpt lat="43.4941081" lon="11.6967006"><ele>195.4</ele><time>2026-04-03T13:14:43.04Z</time></trkpt><trkpt lat="43.4940506" lon="11.6966084"><ele>196.0</ele><time>2026-04-03T13:14:44.055Z</time></trkpt><trkpt lat="43.4940056" lon="11.6965225"><ele>195.99999999999997</ele><time>2026-04-03T13:14:45.047Z</time></trkpt><trkpt lat="43.49395" lon="11.6964593"><ele>196.0</ele><time>2026-04-03T13:14:46.063Z</time></trkpt><trkpt lat="43.49388" lon="11.6964255"><ele>196.0</ele><time>2026-04-03T13:14:47.05Z</time></trkpt><trkpt lat="43.4938165" lon="11.6964195"><ele>196.0</ele><time>2026-04-03T13:14:48.055Z</time></trkpt><trkpt lat="43.4937095" lon="11.6964642"><ele>195.99999999999997</ele><time>2026-04-03T13:14:50.05Z</time></trkpt><trkpt lat="43.4936529" lon="11.6965892"><ele>196.0</ele><time>2026-04-03T13:14:52.053Z</time></trkpt><trkpt lat="43.4936161" lon="11.6967259"><ele>199.83333333333331</ele><time>2026-04-03T13:14:54.046Z</time></trkpt><trkpt lat="43.493548" lon="11.6968574"><ele>203.66666666666666</ele><time>2026-04-03T13:14:56.049Z</time></trkpt><trkpt lat="43.4934908" lon="11.6969046"><ele>207.5</ele><time>2026-04-03T13:14:57.045Z</time></trkpt><trkpt lat="43.4934181" lon="11.6969183"><ele>211.33333333333331</ele><time>2026-04-03T13:14:58.057Z</time></trkpt><trkpt lat="43.4933459" lon="11.6969117"><ele>215.16666666666666</ele><time>2026-04-03T13:14:59.037Z</time></trkpt><trkpt lat="43.4932724" lon="11.6968978"><ele>219.0</ele><time>2026-04-03T13:15:00.05Z</time></trkpt><trkpt lat="43.4931981" lon="11.6968834"><ele>219.0</ele><time>2026-04-03T13:15:01.042Z</time></trkpt><trkpt lat="43.4931233" lon="11.6968714"><ele>219.0</ele><time>2026-04-03T13:15:02.044Z</time></trkpt><trkpt lat="43.4930501" lon="11.6968636"><ele>219.0</ele><time>2026-04-03T13:15:03.041Z</time></trkpt><trkpt lat="43.4929723" lon="11.6968581"><ele>219.0</ele><time>2026-04-03T13:15:04.051Z</time></trkpt><trkpt lat="43.4928868" lon="11.696855"><ele>219.0</ele><time>2026-04-03T13:15:05.047Z</time></trkpt><trkpt lat="43.4927984" lon="11.6968551"><ele>219.0</ele><time>2026-04-03T13:15:06.048Z</time></trkpt><trkpt lat="43.4927165" lon="11.6968589"><ele>220.16666666666666</ele><time>2026-04-03T13:15:07.049Z</time></trkpt><trkpt lat="43.4926425" lon="11.6968369"><ele>221.33333333333331</ele><time>2026-04-03T13:15:08.055Z</time></trkpt><trkpt lat="43.4925742" lon="11.6967999"><ele>222.5</ele><time>2026-04-03T13:15:09.036Z</time></trkpt><trkpt lat="43.4925195" lon="11.6967309"><ele>223.66666666666666</ele><time>2026-04-03T13:15:10.043Z</time></trkpt><trkpt lat="43.4924718" lon="11.6966414"><ele>224.83333333333331</ele><time>2026-04-03T13:15:11.045Z</time></trkpt><trkpt lat="43.4924374" lon="11.6965442"><ele>226.0</ele><time>2026-04-03T13:15:12.039Z</time></trkpt><trkpt lat="43.4924042" lon="11.6964601"><ele>226.0</ele><time>2026-04-03T13:15:13.047Z</time></trkpt><trkpt lat="43.4923604" lon="11.6963821"><ele>226.00000000000003</ele><time>2026-04-03T13:15:14.05Z</time></trkpt><trkpt lat="43.4922955" lon="11.6963066"><ele>226.00000000000003</ele><time>2026-04-03T13:15:15.042Z</time></trkpt><trkpt lat="43.4922153" lon="11.696235"><ele>226.0</ele><time>2026-04-03T13:15:16.054Z</time></trkpt><trkpt lat="43.4921295" lon="11.6961517"><ele>226.0</ele><time>2026-04-03T13:15:17.046Z</time></trkpt><trkpt lat="43.4920406" lon="11.6960648"><ele>228.25</ele><time>2026-04-03T13:15:18.046Z</time></trkpt><trkpt lat="43.491947" lon="11.695977"><ele>230.5</ele><time>2026-04-03T13:15:19.053Z</time></trkpt><trkpt lat="43.4918527" lon="11.6958794"><ele>232.75</ele><time>2026-04-03T13:15:20.038Z</time></trkpt><trkpt lat="43.4917648" lon="11.6957782"><ele>235.0</ele><time>2026-04-03T13:15:21.062Z</time></trkpt><trkpt lat="43.4916768" lon="11.6956945"><ele>235.0</ele><time>2026-04-03T13:15:22.059Z</time></trkpt><trkpt lat="43.4915933" lon="11.6956291"><ele>235.0</ele><time>2026-04-03T13:15:23.024Z</time></trkpt><trkpt lat="43.4915018" lon="11.6955799"><ele>235.0</ele><time>2026-04-03T13:15:24.038Z</time></trkpt><trkpt lat="43.4914067" lon="11.6955465"><ele>235.0</ele><time>2026-04-03T13:15:25.044Z</time></trkpt><trkpt lat="43.4913065" lon="11.6955107"><ele>235.0</ele><time>2026-04-03T13:15:26.044Z</time></trkpt><trkpt lat="43.4912002" lon="11.6954777"><ele>235.75</ele><time>2026-04-03T13:15:27.038Z</time></trkpt><trkpt lat="43.4910899" lon="11.6954414"><ele>236.5</ele><time>2026-04-03T13:15:28.063Z</time></trkpt><trkpt lat="43.4909768" lon="11.6954094"><ele>237.25</ele><time>2026-04-03T13:15:29.04Z</time></trkpt><trkpt lat="43.4908664" lon="11.6953882"><ele>238.0</ele><time>2026-04-03T13:15:30.054Z</time></trkpt><trkpt lat="43.4907526" lon="11.6953844"><ele>238.0</ele><time>2026-04-03T13:15:31.049Z</time></trkpt><trkpt lat="43.4906429" lon="11.6953975"><ele>238.0</ele><time>2026-04-03T13:15:32.06Z</time></trkpt><trkpt lat="43.4905277" lon="11.695418"><ele>238.0</ele><time>2026-04-03T13:15:33.051Z</time></trkpt><trkpt lat="43.4904107" lon="11.6954485"><ele>238.0</ele><time>2026-04-03T13:15:34.051Z</time></trkpt><trkpt lat="43.4902838" lon="11.6954781"><ele>239.0</ele><time>2026-04-03T13:15:35.037Z</time></trkpt><trkpt lat="43.4901594" lon="11.6955106"><ele>240.0</ele><time>2026-04-03T13:15:36.049Z</time></trkpt><trkpt lat="43.4900431" lon="11.6955399"><ele>241.0</ele><time>2026-04-03T13:15:37.055Z</time></trkpt><trkpt lat="43.4899374" lon="11.6955635"><ele>242.0</ele><time>2026-04-03T13:15:38.055Z</time></trkpt><trkpt lat="43.4898384" lon="11.6955703"><ele>242.0</ele><time>2026-04-03T13:15:39.037Z</time></trkpt><trkpt lat="43.4897426" lon="11.6955505"><ele>242.0</ele><time>2026-04-03T13:15:40.054Z</time></trkpt><trkpt lat="43.4896504" lon="11.695502"><ele>242.0</ele><time>2026-04-03T13:15:41.047Z</time></trkpt><trkpt lat="43.4895571" lon="11.6954218"><ele>242.0</ele><time>2026-04-03T13:15:42.066Z</time></trkpt><trkpt lat="43.4894565" lon="11.6953261"><ele>242.0</ele><time>2026-04-03T13:15:43.037Z</time></trkpt><trkpt lat="43.4893596" lon="11.6952378"><ele>242.75</ele><time>2026-04-03T13:15:44.047Z</time></trkpt><trkpt lat="43.4892555" lon="11.6951826"><ele>243.5</ele><time>2026-04-03T13:15:45.05Z</time></trkpt><trkpt lat="43.4891436" lon="11.6951611"><ele>244.25</ele><time>2026-04-03T13:15:46.062Z</time></trkpt><trkpt lat="43.4890261" lon="11.6951529"><ele>245.0</ele><time>2026-04-03T13:15:47.06Z</time></trkpt><trkpt lat="43.488905" lon="11.6951532"><ele>245.0</ele><time>2026-04-03T13:15:48.049Z</time></trkpt><trkpt lat="43.4887874" lon="11.6951371"><ele>245.0</ele><time>2026-04-03T13:15:49.049Z</time></trkpt><trkpt lat="43.4886777" lon="11.6950997"><ele>245.0</ele><time>2026-04-03T13:15:50.057Z</time></trkpt><trkpt lat="43.488572" lon="11.6950285"><ele>245.0</ele><time>2026-04-03T13:15:51.056Z</time></trkpt><trkpt lat="43.4884813" lon="11.6949318"><ele>245.75</ele><time>2026-04-03T13:15:52.06Z</time></trkpt><trkpt lat="43.4883974" lon="11.6948281"><ele>246.5</ele><time>2026-04-03T13:15:53.052Z</time></trkpt><trkpt lat="43.4883072" lon="11.6947294"><ele>247.25</ele><time>2026-04-03T13:15:54.052Z</time></trkpt><trkpt lat="43.4882079" lon="11.6946583"><ele>248.0</ele><time>2026-04-03T13:15:55.046Z</time></trkpt><trkpt lat="43.4880928" lon="11.6946062"><ele>248.0</ele><time>2026-04-03T13:15:56.06Z</time></trkpt><trkpt lat="43.4879768" lon="11.6945648"><ele>248.0</ele><time>2026-04-03T13:15:57.054Z</time></trkpt><trkpt lat="43.4878584" lon="11.6945234"><ele>248.0</ele><time>2026-04-03T13:15:58.059Z</time></trkpt><trkpt lat="43.4877481" lon="11.6944772"><ele>248.0</ele><time>2026-04-03T13:15:59.047Z</time></trkpt><trkpt lat="43.4876521" lon="11.6944274"><ele>248.2</ele><time>2026-04-03T13:16:00.051Z</time></trkpt><trkpt lat="43.4875625" lon="11.6943804"><ele>248.4</ele><time>2026-04-03T13:16:01.063Z</time></trkpt><trkpt lat="43.4874755" lon="11.6943406"><ele>248.59999999999997</ele><time>2026-04-03T13:16:02.052Z</time></trkpt><trkpt lat="43.4873863" lon="11.6943089"><ele>248.79999999999998</ele><time>2026-04-03T13:16:03.047Z</time></trkpt><trkpt lat="43.4872983" lon="11.6942785"><ele>249.0</ele><time>2026-04-03T13:16:04.061Z</time></trkpt><trkpt lat="43.4872118" lon="11.6942464"><ele>249.0</ele><time>2026-04-03T13:16:05.045Z</time></trkpt><trkpt lat="43.4871298" lon="11.6942161"><ele>249.0</ele><time>2026-04-03T13:16:06.064Z</time></trkpt><trkpt lat="43.4870506" lon="11.6941826"><ele>249.0</ele><time>2026-04-03T13:16:07.042Z</time></trkpt><trkpt lat="43.4869643" lon="11.6941371"><ele>249.0</ele><time>2026-04-03T13:16:08.053Z</time></trkpt><trkpt lat="43.4868825" lon="11.6940761"><ele>249.0</ele><time>2026-04-03T13:16:09.049Z</time></trkpt><trkpt lat="43.4867995" lon="11.6940111"><ele>249.0</ele><time>2026-04-03T13:16:10.054Z</time></trkpt><trkpt lat="43.4867042" lon="11.6939675"><ele>249.25</ele><time>2026-04-03T13:16:11.05Z</time></trkpt><trkpt lat="43.486597" lon="11.6939362"><ele>249.5</ele><time>2026-04-03T13:16:12.06Z</time></trkpt><trkpt lat="43.486477" lon="11.6939125"><ele>249.75</ele><time>2026-04-03T13:16:13.052Z</time></trkpt><trkpt lat="43.4863535" lon="11.6938929"><ele>250.0</ele><time>2026-04-03T13:16:14.06Z</time></trkpt><trkpt lat="43.486231" lon="11.6938784"><ele>251.0</ele><time>2026-04-03T13:16:15.041Z</time></trkpt><trkpt lat="43.4861148" lon="11.6938749"><ele>252.0</ele><time>2026-04-03T13:16:16.057Z</time></trkpt><trkpt lat="43.4860077" lon="11.6938908"><ele>253.0</ele><time>2026-04-03T13:16:17.054Z</time></trkpt><trkpt lat="43.485901" lon="11.693933"><ele>254.0</ele><time>2026-04-03T13:16:18.062Z</time></trkpt><trkpt lat="43.4857944" lon="11.6939923"><ele>254.0</ele><time>2026-04-03T13:16:19.041Z</time></trkpt><trkpt lat="43.4856975" lon="11.6940746"><ele>254.0</ele><time>2026-04-03T13:16:20.053Z</time></trkpt><trkpt lat="43.4856103" lon="11.6941735"><ele>254.0</ele><time>2026-04-03T13:16:21.054Z</time></trkpt><trkpt lat="43.4855232" lon="11.6942768"><ele>254.0</ele><time>2026-04-03T13:16:22.053Z</time></trkpt><trkpt lat="43.4854322" lon="11.6943676"><ele>253.75</ele><time>2026-04-03T13:16:23.05Z</time></trkpt><trkpt lat="43.4853287" lon="11.6944349"><ele>253.5</ele><time>2026-04-03T13:16:24.06Z</time></trkpt><trkpt lat="43.4852154" lon="11.694479"><ele>253.25</ele><time>2026-04-03T13:16:25.036Z</time></trkpt><trkpt lat="43.4850928" lon="11.694504"><ele>253.0</ele><time>2026-04-03T13:16:26.063Z</time></trkpt><trkpt lat="43.4849685" lon="11.6945177"><ele>253.0</ele><time>2026-04-03T13:16:27.044Z</time></trkpt><trkpt lat="43.4848476" lon="11.6945393"><ele>253.0</ele><time>2026-04-03T13:16:28.071Z</time></trkpt><trkpt lat="43.4847337" lon="11.6946009"><ele>253.0</ele><time>2026-04-03T13:16:29.046Z</time></trkpt><trkpt lat="43.4846285" lon="11.6946884"><ele>253.0</ele><time>2026-04-03T13:16:30.046Z</time></trkpt><trkpt lat="43.4845173" lon="11.6947953"><ele>253.4</ele><time>2026-04-03T13:16:31.056Z</time></trkpt><trkpt lat="43.4844124" lon="11.6949073"><ele>253.8</ele><time>2026-04-03T13:16:32.058Z</time></trkpt><trkpt lat="43.4843173" lon="11.6950013"><ele>254.2</ele><time>2026-04-03T13:16:33.039Z</time></trkpt><trkpt lat="43.4842344" lon="11.6950778"><ele>254.6</ele><time>2026-04-03T13:16:34.049Z</time></trkpt><trkpt lat="43.4841471" lon="11.6951099"><ele>255.0</ele><time>2026-04-03T13:16:35.031Z</time></trkpt><trkpt lat="43.4840509" lon="11.6951003"><ele>255.0</ele><time>2026-04-03T13:16:36.055Z</time></trkpt><trkpt lat="43.4839431" lon="11.6950608"><ele>255.0</ele><time>2026-04-03T13:16:37.045Z</time></trkpt><trkpt lat="43.4838293" lon="11.6949982"><ele>255.0</ele><time>2026-04-03T13:16:38.051Z</time></trkpt><trkpt lat="43.4837148" lon="11.6949354"><ele>255.0</ele><time>2026-04-03T13:16:39.051Z</time></trkpt><trkpt lat="43.4835937" lon="11.6948724"><ele>255.5</ele><time>2026-04-03T13:16:40.054Z</time></trkpt><trkpt lat="43.4834608" lon="11.6948153"><ele>256.0</ele><time>2026-04-03T13:16:41.051Z</time></trkpt><trkpt lat="43.4833308" lon="11.6947631"><ele>256.5</ele><time>2026-04-03T13:16:42.044Z</time></trkpt><trkpt lat="43.4831939" lon="11.6947237"><ele>257.0</ele><time>2026-04-03T13:16:43.043Z</time></trkpt><trkpt lat="43.4830429" lon="11.6946911"><ele>257.6666666666667</ele><time>2026-04-03T13:16:44.054Z</time></trkpt><trkpt lat="43.4828847" lon="11.6946542"><ele>258.3333333333333</ele><time>2026-04-03T13:16:45.045Z</time></trkpt><trkpt lat="43.4827328" lon="11.6946178"><ele>259.0</ele><time>2026-04-03T13:16:46.044Z</time></trkpt><trkpt lat="43.4825911" lon="11.6945881"><ele>259.0</ele><time>2026-04-03T13:16:47.032Z</time></trkpt><trkpt lat="43.4824668" lon="11.694561"><ele>259.0</ele><time>2026-04-03T13:16:48.058Z</time></trkpt><trkpt lat="43.4823626" lon="11.6945389"><ele>259.0</ele><time>2026-04-03T13:16:49.036Z</time></trkpt><trkpt lat="43.4822785" lon="11.6945228"><ele>259.0</ele><time>2026-04-03T13:16:50.046Z</time></trkpt><trkpt lat="43.4822027" lon="11.6945058"><ele>259.0</ele><time>2026-04-03T13:16:51.038Z</time></trkpt><trkpt lat="43.4821289" lon="11.6944954"><ele>259.3333333333333</ele><time>2026-04-03T13:16:52.042Z</time></trkpt><trkpt lat="43.4820533" lon="11.6944905"><ele>259.66666666666663</ele><time>2026-04-03T13:16:53.042Z</time></trkpt><trkpt lat="43.48197" lon="11.6944918"><ele>260.0</ele><time>2026-04-03T13:16:54.039Z</time></trkpt><trkpt lat="43.4818868" lon="11.6945048"><ele>260.3333333333333</ele><time>2026-04-03T13:16:55.034Z</time></trkpt><trkpt lat="43.4818053" lon="11.6945173"><ele>260.6666666666667</ele><time>2026-04-03T13:16:56.048Z</time></trkpt><trkpt lat="43.4817247" lon="11.6945319"><ele>261.0</ele><time>2026-04-03T13:16:57.043Z</time></trkpt><trkpt lat="43.4816464" lon="11.6945538"><ele>261.0</ele><time>2026-04-03T13:16:58.05Z</time></trkpt><trkpt lat="43.4815718" lon="11.6945681"><ele>261.0</ele><time>2026-04-03T13:16:59.048Z</time></trkpt><trkpt lat="43.4815014" lon="11.6945804"><ele>261.0</ele><time>2026-04-03T13:17:00.05Z</time></trkpt><trkpt lat="43.481392" lon="11.6945979"><ele>261.0</ele><time>2026-04-03T13:17:02.042Z</time></trkpt><trkpt lat="43.4813256" lon="11.6946071"><ele>261.0</ele><time>2026-04-03T13:17:14.053Z</time></trkpt><trkpt lat="43.4812618" lon="11.6946981"><ele>261.0</ele><time>2026-04-03T13:17:16.057Z</time></trkpt><trkpt lat="43.4812226" lon="11.69478"><ele>260.3333333333333</ele><time>2026-04-03T13:17:17.054Z</time></trkpt><trkpt lat="43.4811643" lon="11.6948503"><ele>259.6666666666667</ele><time>2026-04-03T13:17:18.062Z</time></trkpt><trkpt lat="43.4810828" lon="11.6948895"><ele>259.0</ele><time>2026-04-03T13:17:19.045Z</time></trkpt><trkpt lat="43.481001" lon="11.6949245"><ele>258.33333333333337</ele><time>2026-04-03T13:17:20.049Z</time></trkpt><trkpt lat="43.4809215" lon="11.6949689"><ele>257.6666666666667</ele><time>2026-04-03T13:17:21.047Z</time></trkpt><trkpt lat="43.4808373" lon="11.6950311"><ele>257.0</ele><time>2026-04-03T13:17:22.058Z</time></trkpt><trkpt lat="43.4807433" lon="11.6951031"><ele>257.0</ele><time>2026-04-03T13:17:23.044Z</time></trkpt><trkpt lat="43.480657" lon="11.6951832"><ele>257.0</ele><time>2026-04-03T13:17:24.053Z</time></trkpt><trkpt lat="43.4805653" lon="11.6952623"><ele>257.0</ele><time>2026-04-03T13:17:25.043Z</time></trkpt><trkpt lat="43.480479" lon="11.6953375"><ele>257.0</ele><time>2026-04-03T13:17:26.049Z</time></trkpt><trkpt lat="43.4803908" lon="11.6954096"><ele>257.0</ele><time>2026-04-03T13:17:27.055Z</time></trkpt><trkpt lat="43.4802943" lon="11.6954836"><ele>256.25</ele><time>2026-04-03T13:17:28.046Z</time></trkpt><trkpt lat="43.4801796" lon="11.6955479"><ele>255.5</ele><time>2026-04-03T13:17:29.05Z</time></trkpt><trkpt lat="43.4800552" lon="11.6955887"><ele>254.75</ele><time>2026-04-03T13:17:30.053Z</time></trkpt><trkpt lat="43.4799291" lon="11.6956095"><ele>254.0</ele><time>2026-04-03T13:17:31.046Z</time></trkpt><trkpt lat="43.4798057" lon="11.6956192"><ele>254.0</ele><time>2026-04-03T13:17:32.049Z</time></trkpt><trkpt lat="43.4796788" lon="11.6956168"><ele>254.0</ele><time>2026-04-03T13:17:33.042Z</time></trkpt><trkpt lat="43.4795442" lon="11.6956196"><ele>254.0</ele><time>2026-04-03T13:17:34.052Z</time></trkpt><trkpt lat="43.4794062" lon="11.6956252"><ele>254.0</ele><time>2026-04-03T13:17:35.049Z</time></trkpt><trkpt lat="43.4792757" lon="11.6956308"><ele>254.0</ele><time>2026-04-03T13:17:36.042Z</time></trkpt><trkpt lat="43.4791542" lon="11.6956142"><ele>254.0</ele><time>2026-04-03T13:17:37.049Z</time></trkpt><trkpt lat="43.4790375" lon="11.6955676"><ele>254.0</ele><time>2026-04-03T13:17:38.049Z</time></trkpt><trkpt lat="43.4789321" lon="11.6954919"><ele>254.0</ele><time>2026-04-03T13:17:39.052Z</time></trkpt><trkpt lat="43.4788384" lon="11.695395"><ele>253.75</ele><time>2026-04-03T13:17:40.048Z</time></trkpt><trkpt lat="43.4787658" lon="11.6952761"><ele>253.5</ele><time>2026-04-03T13:17:41.047Z</time></trkpt><trkpt lat="43.4787183" lon="11.695133"><ele>253.25</ele><time>2026-04-03T13:17:42.047Z</time></trkpt><trkpt lat="43.4786829" lon="11.6949863"><ele>253.0</ele><time>2026-04-03T13:17:43.047Z</time></trkpt><trkpt lat="43.478651" lon="11.6948384"><ele>255.0</ele><time>2026-04-03T13:17:44.048Z</time></trkpt><trkpt lat="43.4786083" lon="11.6946961"><ele>257.0</ele><time>2026-04-03T13:17:45.044Z</time></trkpt><trkpt lat="43.4785377" lon="11.694565"><ele>259.0</ele><time>2026-04-03T13:17:46.046Z</time></trkpt><trkpt lat="43.4784514" lon="11.6944387"><ele>261.0</ele><time>2026-04-03T13:17:47.043Z</time></trkpt><trkpt lat="43.4783594" lon="11.6943214"><ele>262.5</ele><time>2026-04-03T13:17:48.043Z</time></trkpt><trkpt lat="43.4782682" lon="11.6942078"><ele>264.0</ele><time>2026-04-03T13:17:49.047Z</time></trkpt><trkpt lat="43.4781753" lon="11.6940964"><ele>265.5</ele><time>2026-04-03T13:17:50.049Z</time></trkpt><trkpt lat="43.478085" lon="11.6939795"><ele>267.0</ele><time>2026-04-03T13:17:51.048Z</time></trkpt><trkpt lat="43.477997" lon="11.6938658"><ele>268.2</ele><time>2026-04-03T13:17:52.056Z</time></trkpt><trkpt lat="43.4779235" lon="11.6937678"><ele>269.4</ele><time>2026-04-03T13:17:53.048Z</time></trkpt><trkpt lat="43.4778533" lon="11.6936758"><ele>270.6</ele><time>2026-04-03T13:17:54.051Z</time></trkpt><trkpt lat="43.477776" lon="11.6935791"><ele>271.8</ele><time>2026-04-03T13:17:55.045Z</time></trkpt><trkpt lat="43.4776951" lon="11.6934737"><ele>273.0</ele><time>2026-04-03T13:17:56.042Z</time></trkpt><trkpt lat="43.4776137" lon="11.6933735"><ele>274.6</ele><time>2026-04-03T13:17:57.046Z</time></trkpt><trkpt lat="43.4775284" lon="11.6932797"><ele>276.20000000000005</ele><time>2026-04-03T13:17:58.041Z</time></trkpt><trkpt lat="43.477438" lon="11.693194"><ele>277.8</ele><time>2026-04-03T13:17:59.047Z</time></trkpt><trkpt lat="43.4773447" lon="11.6931149"><ele>279.40000000000003</ele><time>2026-04-03T13:18:00.051Z</time></trkpt><trkpt lat="43.4772571" lon="11.693034"><ele>281.0</ele><time>2026-04-03T13:18:01.041Z</time></trkpt><trkpt lat="43.4771786" lon="11.6929549"><ele>282.6666666666667</ele><time>2026-04-03T13:18:02.051Z</time></trkpt><trkpt lat="43.477101" lon="11.6928943"><ele>284.33333333333337</ele><time>2026-04-03T13:18:03.032Z</time></trkpt><trkpt lat="43.4770441" lon="11.6928496"><ele>286.0</ele><time>2026-04-03T13:18:04.052Z</time></trkpt><trkpt lat="43.476978" lon="11.6927797"><ele>287.6666666666667</ele><time>2026-04-03T13:18:06.052Z</time></trkpt><trkpt lat="43.4769192" lon="11.6927213"><ele>289.3333333333333</ele><time>2026-04-03T13:18:09.05Z</time></trkpt><trkpt lat="43.4768878" lon="11.6926341"><ele>291.0</ele><time>2026-04-03T13:18:12.047Z</time></trkpt><trkpt lat="43.4769653" lon="11.6925919"><ele>291.0</ele><time>2026-04-03T13:18:15.039Z</time></trkpt><trkpt lat="43.4770446" lon="11.6925619"><ele>291.0</ele><time>2026-04-03T13:18:17.044Z</time></trkpt><trkpt lat="43.4771578" lon="11.692498"><ele>291.0</ele><time>2026-04-03T13:18:19.044Z</time></trkpt><trkpt lat="43.4772169" lon="11.6924566"><ele>291.0</ele><time>2026-04-03T13:18:20.056Z</time></trkpt><trkpt lat="43.4772754" lon="11.6924202"><ele>291.0</ele><time>2026-04-03T13:18:21.046Z</time></trkpt><trkpt lat="43.4773908" lon="11.6923507"><ele>289.85714285714283</ele><time>2026-04-03T13:18:23.049Z</time></trkpt><trkpt lat="43.4774501" lon="11.6923108"><ele>288.71428571428567</ele><time>2026-04-03T13:18:24.056Z</time></trkpt><trkpt lat="43.4775096" lon="11.6922667"><ele>287.57142857142856</ele><time>2026-04-03T13:18:25.052Z</time></trkpt><trkpt lat="43.4775655" lon="11.6922176"><ele>286.42857142857144</ele><time>2026-04-03T13:18:26.051Z</time></trkpt><trkpt lat="43.4776236" lon="11.6921688"><ele>285.28571428571433</ele><time>2026-04-03T13:18:27.049Z</time></trkpt><trkpt lat="43.4776842" lon="11.6921214"><ele>284.14285714285717</ele><time>2026-04-03T13:18:28.076Z</time></trkpt><trkpt lat="43.477748" lon="11.6920745"><ele>283.0</ele><time>2026-04-03T13:18:29.05Z</time></trkpt><trkpt lat="43.4778171" lon="11.6920208"><ele>283.0</ele><time>2026-04-03T13:18:30.071Z</time></trkpt><trkpt lat="43.4778904" lon="11.6919648"><ele>283.0</ele><time>2026-04-03T13:18:31.036Z</time></trkpt><trkpt lat="43.477967" lon="11.6919031"><ele>283.0</ele><time>2026-04-03T13:18:32.049Z</time></trkpt><trkpt lat="43.4780494" lon="11.6918295"><ele>283.0</ele><time>2026-04-03T13:18:33.043Z</time></trkpt><trkpt lat="43.4781284" lon="11.6917649"><ele>283.0</ele><time>2026-04-03T13:18:34.057Z</time></trkpt><trkpt lat="43.4782115" lon="11.691696"><ele>280.8</ele><time>2026-04-03T13:18:35.053Z</time></trkpt><trkpt lat="43.4782968" lon="11.691632"><ele>278.6</ele><time>2026-04-03T13:18:36.043Z</time></trkpt><trkpt lat="43.4783949" lon="11.6915679"><ele>276.4</ele><time>2026-04-03T13:18:37.059Z</time></trkpt><trkpt lat="43.4784923" lon="11.6915023"><ele>274.2</ele><time>2026-04-03T13:18:38.038Z</time></trkpt><trkpt lat="43.4785791" lon="11.691439"><ele>272.0</ele><time>2026-04-03T13:18:39.05Z</time></trkpt><trkpt lat="43.4786648" lon="11.6913846"><ele>272.0</ele><time>2026-04-03T13:18:40.047Z</time></trkpt><trkpt lat="43.4787509" lon="11.691322"><ele>272.0</ele><time>2026-04-03T13:18:41.059Z</time></trkpt><trkpt lat="43.4788386" lon="11.6912577"><ele>272.0</ele><time>2026-04-03T13:18:42.048Z</time></trkpt><trkpt lat="43.4789239" lon="11.6912012"><ele>272.0</ele><time>2026-04-03T13:18:43.049Z</time></trkpt><trkpt lat="43.4790026" lon="11.6911409"><ele>272.0</ele><time>2026-04-03T13:18:44.04Z</time></trkpt><trkpt lat="43.4790869" lon="11.6910821"><ele>270.4</ele><time>2026-04-03T13:18:45.028Z</time></trkpt><trkpt lat="43.4791751" lon="11.6910144"><ele>268.79999999999995</ele><time>2026-04-03T13:18:46.045Z</time></trkpt><trkpt lat="43.4792734" lon="11.6909421"><ele>267.2</ele><time>2026-04-03T13:18:47.042Z</time></trkpt><trkpt lat="43.4793656" lon="11.6908716"><ele>265.59999999999997</ele><time>2026-04-03T13:18:48.042Z</time></trkpt><trkpt lat="43.4794546" lon="11.6908053"><ele>264.0</ele><time>2026-04-03T13:18:49.043Z</time></trkpt><trkpt lat="43.479534" lon="11.6907451"><ele>262.8333333333333</ele><time>2026-04-03T13:18:50.052Z</time></trkpt><trkpt lat="43.4796008" lon="11.6906843"><ele>261.6666666666667</ele><time>2026-04-03T13:18:51.039Z</time></trkpt><trkpt lat="43.4796661" lon="11.6906252"><ele>260.5</ele><time>2026-04-03T13:18:52.048Z</time></trkpt><trkpt lat="43.4797284" lon="11.6905683"><ele>259.33333333333337</ele><time>2026-04-03T13:18:53.047Z</time></trkpt><trkpt lat="43.4797854" lon="11.6905152"><ele>258.1666666666667</ele><time>2026-04-03T13:18:54.041Z</time></trkpt><trkpt lat="43.4798399" lon="11.6904653"><ele>257.0</ele><time>2026-04-03T13:18:55.042Z</time></trkpt><trkpt lat="43.4799195" lon="11.6903393"><ele>256.83333333333337</ele><time>2026-04-03T13:18:57.039Z</time></trkpt><trkpt lat="43.479969" lon="11.6901727"><ele>256.6666666666667</ele><time>2026-04-03T13:18:59.036Z</time></trkpt><trkpt lat="43.4800025" lon="11.6900731"><ele>256.5</ele><time>2026-04-03T13:19:00.055Z</time></trkpt><trkpt lat="43.4800336" lon="11.6899733"><ele>256.3333333333333</ele><time>2026-04-03T13:19:01.048Z</time></trkpt><trkpt lat="43.4800567" lon="11.6898845"><ele>256.16666666666663</ele><time>2026-04-03T13:19:02.045Z</time></trkpt><trkpt lat="43.4800773" lon="11.6897962"><ele>256.0</ele><time>2026-04-03T13:19:03.05Z</time></trkpt><trkpt lat="43.4800951" lon="11.6896953"><ele>256.0</ele><time>2026-04-03T13:19:04.042Z</time></trkpt><trkpt lat="43.4801096" lon="11.6895885"><ele>255.99999999999997</ele><time>2026-04-03T13:19:05.048Z</time></trkpt><trkpt lat="43.4801163" lon="11.6894894"><ele>256.0</ele><time>2026-04-03T13:19:06.035Z</time></trkpt><trkpt lat="43.4801248" lon="11.6893958"><ele>256.0</ele><time>2026-04-03T13:19:07.038Z</time></trkpt><trkpt lat="43.4801227" lon="11.6892997"><ele>255.99999999999997</ele><time>2026-04-03T13:19:08.045Z</time></trkpt><trkpt lat="43.4801134" lon="11.6891981"><ele>256.0</ele><time>2026-04-03T13:19:09.041Z</time></trkpt><trkpt lat="43.4800999" lon="11.6891026"><ele>256.0</ele><time>2026-04-03T13:19:10.047Z</time></trkpt><trkpt lat="43.4800816" lon="11.6890142"><ele>255.0</ele><time>2026-04-03T13:19:11.049Z</time></trkpt><trkpt lat="43.4800417" lon="11.688876"><ele>254.00000000000003</ele><time>2026-04-03T13:19:13.037Z</time></trkpt><trkpt lat="43.4800297" lon="11.6887391"><ele>253.00000000000003</ele><time>2026-04-03T13:19:15.038Z</time></trkpt><trkpt lat="43.480025" lon="11.6885837"><ele>252.0</ele><time>2026-04-03T13:19:17.041Z</time></trkpt><trkpt lat="43.4800555" lon="11.688455"><ele>251.0</ele><time>2026-04-03T13:19:19.055Z</time></trkpt><trkpt lat="43.4801253" lon="11.6883833"><ele>251.00000000000003</ele><time>2026-04-03T13:19:21.037Z</time></trkpt><trkpt lat="43.4802054" lon="11.6883525"><ele>251.0</ele><time>2026-04-03T13:19:23.037Z</time></trkpt><trkpt lat="43.4803238" lon="11.6883319"><ele>251.0</ele><time>2026-04-03T13:19:25.042Z</time></trkpt><trkpt lat="43.4803919" lon="11.6883107"><ele>251.0</ele><time>2026-04-03T13:19:26.06Z</time></trkpt><trkpt lat="43.4804621" lon="11.6882671"><ele>251.00000000000003</ele><time>2026-04-03T13:19:27.041Z</time></trkpt><trkpt lat="43.4805271" lon="11.6882014"><ele>251.0</ele><time>2026-04-03T13:19:28.032Z</time></trkpt><trkpt lat="43.4805894" lon="11.6881072"><ele>250.20000000000002</ele><time>2026-04-03T13:19:29.046Z</time></trkpt><trkpt lat="43.4806427" lon="11.6879875"><ele>249.40000000000003</ele><time>2026-04-03T13:19:30.056Z</time></trkpt><trkpt lat="43.4806762" lon="11.6878494"><ele>248.6</ele><time>2026-04-03T13:19:31.031Z</time></trkpt><trkpt lat="43.4806968" lon="11.6877007"><ele>247.8</ele><time>2026-04-03T13:19:32.041Z</time></trkpt><trkpt lat="43.4807093" lon="11.6875573"><ele>247.0</ele><time>2026-04-03T13:19:33.043Z</time></trkpt><trkpt lat="43.4807184" lon="11.6874042"><ele>249.25</ele><time>2026-04-03T13:19:34.045Z</time></trkpt><trkpt lat="43.4807239" lon="11.6872407"><ele>251.5</ele><time>2026-04-03T13:19:35.038Z</time></trkpt><trkpt lat="43.480715" lon="11.6870736"><ele>253.75</ele><time>2026-04-03T13:19:36.05Z</time></trkpt><trkpt lat="43.4806784" lon="11.686906"><ele>256.0</ele><time>2026-04-03T13:19:37.029Z</time></trkpt><trkpt lat="43.4806046" lon="11.6867527"><ele>257.25</ele><time>2026-04-03T13:19:38.035Z</time></trkpt><trkpt lat="43.4805182" lon="11.6866098"><ele>258.5</ele><time>2026-04-03T13:19:39.046Z</time></trkpt><trkpt lat="43.4804348" lon="11.6864557"><ele>259.75</ele><time>2026-04-03T13:19:40.056Z</time></trkpt><trkpt lat="43.4803661" lon="11.68629"><ele>261.0</ele><time>2026-04-03T13:19:41.035Z</time></trkpt><trkpt lat="43.4803167" lon="11.6861015"><ele>262.3333333333333</ele><time>2026-04-03T13:19:42.046Z</time></trkpt><trkpt lat="43.480274" lon="11.6859088"><ele>263.66666666666663</ele><time>2026-04-03T13:19:43.051Z</time></trkpt><trkpt lat="43.4802199" lon="11.6857121"><ele>265.0</ele><time>2026-04-03T13:19:44.045Z</time></trkpt><trkpt lat="43.4801634" lon="11.6855059"><ele>265.0</ele><time>2026-04-03T13:19:45.053Z</time></trkpt><trkpt lat="43.4801092" lon="11.6852966"><ele>265.0</ele><time>2026-04-03T13:19:46.045Z</time></trkpt><trkpt lat="43.4800573" lon="11.6850799"><ele>265.0</ele><time>2026-04-03T13:19:47.046Z</time></trkpt><trkpt lat="43.4800029" lon="11.6848648"><ele>266.0</ele><time>2026-04-03T13:19:48.05Z</time></trkpt><trkpt lat="43.4799515" lon="11.6846526"><ele>267.0</ele><time>2026-04-03T13:19:49.046Z</time></trkpt><trkpt lat="43.4798932" lon="11.6844485"><ele>268.0</ele><time>2026-04-03T13:19:50.053Z</time></trkpt><trkpt lat="43.4798268" lon="11.6842484"><ele>269.66666666666663</ele><time>2026-04-03T13:19:51.046Z</time></trkpt><trkpt lat="43.4797465" lon="11.68406"><ele>271.3333333333333</ele><time>2026-04-03T13:19:52.052Z</time></trkpt><trkpt lat="43.4796523" lon="11.6838773"><ele>273.0</ele><time>2026-04-03T13:19:53.051Z</time></trkpt><trkpt lat="43.4795499" lon="11.6836925"><ele>275.3333333333333</ele><time>2026-04-03T13:19:54.051Z</time></trkpt><trkpt lat="43.4794488" lon="11.6835071"><ele>277.66666666666663</ele><time>2026-04-03T13:19:55.053Z</time></trkpt><trkpt lat="43.4793482" lon="11.6833183"><ele>280.0</ele><time>2026-04-03T13:19:56.045Z</time></trkpt><trkpt lat="43.4792442" lon="11.6831304"><ele>280.0</ele><time>2026-04-03T13:19:57.055Z</time></trkpt><trkpt lat="43.4791404" lon="11.6829347"><ele>280.0</ele><time>2026-04-03T13:19:58.042Z</time></trkpt><trkpt lat="43.479039" lon="11.6827449"><ele>280.0</ele><time>2026-04-03T13:19:59.045Z</time></trkpt><trkpt lat="43.4789382" lon="11.6825583"><ele>279.3333333333333</ele><time>2026-04-03T13:20:00.049Z</time></trkpt><trkpt lat="43.4788344" lon="11.6823707"><ele>278.6666666666667</ele><time>2026-04-03T13:20:01.042Z</time></trkpt><trkpt lat="43.4787285" lon="11.6821914"><ele>278.0</ele><time>2026-04-03T13:20:02.047Z</time></trkpt><trkpt lat="43.4786295" lon="11.682016"><ele>278.33333333333337</ele><time>2026-04-03T13:20:03.042Z</time></trkpt><trkpt lat="43.4785509" lon="11.681827"><ele>278.6666666666667</ele><time>2026-04-03T13:20:04.06Z</time></trkpt><trkpt lat="43.4785032" lon="11.6816077"><ele>279.0</ele><time>2026-04-03T13:20:05.044Z</time></trkpt><trkpt lat="43.4784926" lon="11.681378"><ele>279.0</ele><time>2026-04-03T13:20:06.056Z</time></trkpt><trkpt lat="43.4785279" lon="11.6811498"><ele>279.0</ele><time>2026-04-03T13:20:07.044Z</time></trkpt><trkpt lat="43.4785909" lon="11.6809241"><ele>279.0</ele><time>2026-04-03T13:20:08.058Z</time></trkpt><trkpt lat="43.4786604" lon="11.6806991"><ele>279.3333333333333</ele><time>2026-04-03T13:20:09.057Z</time></trkpt><trkpt lat="43.4787287" lon="11.6804744"><ele>279.66666666666663</ele><time>2026-04-03T13:20:10.044Z</time></trkpt><trkpt lat="43.4787906" lon="11.6802554"><ele>280.0</ele><time>2026-04-03T13:20:11.039Z</time></trkpt><trkpt lat="43.478852" lon="11.6800335"><ele>280.66666666666663</ele><time>2026-04-03T13:20:12.048Z</time></trkpt><trkpt lat="43.4789092" lon="11.6798066"><ele>281.3333333333333</ele><time>2026-04-03T13:20:13.04Z</time></trkpt><trkpt lat="43.4789612" lon="11.6795814"><ele>282.0</ele><time>2026-04-03T13:20:14.053Z</time></trkpt><trkpt lat="43.4790083" lon="11.6793447"><ele>282.0</ele><time>2026-04-03T13:20:15.045Z</time></trkpt><trkpt lat="43.4790344" lon="11.6791045"><ele>282.0</ele><time>2026-04-03T13:20:16.049Z</time></trkpt><trkpt lat="43.4790517" lon="11.6788556"><ele>282.0</ele><time>2026-04-03T13:20:17.052Z</time></trkpt><trkpt lat="43.4790658" lon="11.6786007"><ele>284.0</ele><time>2026-04-03T13:20:18.046Z</time></trkpt><trkpt lat="43.4790837" lon="11.6783461"><ele>286.0</ele><time>2026-04-03T13:20:19.037Z</time></trkpt><trkpt lat="43.4791009" lon="11.6780957"><ele>288.0</ele><time>2026-04-03T13:20:20.046Z</time></trkpt><trkpt lat="43.479117" lon="11.6778569"><ele>290.0</ele><time>2026-04-03T13:20:21.053Z</time></trkpt><trkpt lat="43.4791289" lon="11.6776204"><ele>292.0</ele><time>2026-04-03T13:20:22.069Z</time></trkpt><trkpt lat="43.4791201" lon="11.6773906"><ele>294.0</ele><time>2026-04-03T13:20:23.042Z</time></trkpt><trkpt lat="43.4790947" lon="11.6771627"><ele>295.3333333333333</ele><time>2026-04-03T13:20:24.056Z</time></trkpt><trkpt lat="43.4790664" lon="11.6769337"><ele>296.66666666666663</ele><time>2026-04-03T13:20:25.06Z</time></trkpt><trkpt lat="43.4790394" lon="11.6767008"><ele>298.0</ele><time>2026-04-03T13:20:26.05Z</time></trkpt><trkpt lat="43.4790146" lon="11.6764825"><ele>298.0</ele><time>2026-04-03T13:20:27.042Z</time></trkpt><trkpt lat="43.4789919" lon="11.6762853"><ele>298.0</ele><time>2026-04-03T13:20:28.035Z</time></trkpt><trkpt lat="43.4789767" lon="11.6760837"><ele>298.0</ele><time>2026-04-03T13:20:29.044Z</time></trkpt><trkpt lat="43.4789765" lon="11.67588"><ele>298.0</ele><time>2026-04-03T13:20:30.058Z</time></trkpt><trkpt lat="43.4790092" lon="11.6756858"><ele>300.3333333333333</ele><time>2026-04-03T13:20:31.039Z</time></trkpt><trkpt lat="43.4790766" lon="11.6754877"><ele>302.6666666666667</ele><time>2026-04-03T13:20:32.043Z</time></trkpt><trkpt lat="43.4791733" lon="11.6753044"><ele>305.0</ele><time>2026-04-03T13:20:33.053Z</time></trkpt><trkpt lat="43.4792767" lon="11.6751236"><ele>306.33333333333337</ele><time>2026-04-03T13:20:34.057Z</time></trkpt><trkpt lat="43.4793858" lon="11.674945"><ele>307.6666666666667</ele><time>2026-04-03T13:20:35.031Z</time></trkpt><trkpt lat="43.4794941" lon="11.6747619"><ele>309.0</ele><time>2026-04-03T13:20:36.033Z</time></trkpt><trkpt lat="43.4795939" lon="11.6745649"><ele>308.0</ele><time>2026-04-03T13:20:37.048Z</time></trkpt><trkpt lat="43.4796817" lon="11.6743482"><ele>307.0</ele><time>2026-04-03T13:20:38.048Z</time></trkpt><trkpt lat="43.4797592" lon="11.6741265"><ele>306.0</ele><time>2026-04-03T13:20:39.039Z</time></trkpt><trkpt lat="43.4798408" lon="11.6739073"><ele>306.0</ele><time>2026-04-03T13:20:40.046Z</time></trkpt><trkpt lat="43.4799213" lon="11.6736913"><ele>306.0</ele><time>2026-04-03T13:20:41.045Z</time></trkpt><trkpt lat="43.4800047" lon="11.673474"><ele>306.0</ele><time>2026-04-03T13:20:42.046Z</time></trkpt><trkpt lat="43.4800877" lon="11.6732519"><ele>305.6666666666667</ele><time>2026-04-03T13:20:43.05Z</time></trkpt><trkpt lat="43.480169" lon="11.6730334"><ele>305.33333333333337</ele><time>2026-04-03T13:20:44.039Z</time></trkpt><trkpt lat="43.4802475" lon="11.6728216"><ele>305.0</ele><time>2026-04-03T13:20:45.038Z</time></trkpt><trkpt lat="43.4803226" lon="11.6726224"><ele>303.6666666666667</ele><time>2026-04-03T13:20:46.047Z</time></trkpt><trkpt lat="43.4803892" lon="11.6724253"><ele>302.3333333333333</ele><time>2026-04-03T13:20:47.041Z</time></trkpt><trkpt lat="43.4804569" lon="11.6722317"><ele>301.0</ele><time>2026-04-03T13:20:48.046Z</time></trkpt><trkpt lat="43.4805223" lon="11.6720482"><ele>300.75</ele><time>2026-04-03T13:20:49.041Z</time></trkpt><trkpt lat="43.4805877" lon="11.6718737"><ele>300.5</ele><time>2026-04-03T13:20:50.034Z</time></trkpt><trkpt lat="43.4806522" lon="11.6717213"><ele>300.25</ele><time>2026-04-03T13:20:51.029Z</time></trkpt><trkpt lat="43.4807233" lon="11.671586"><ele>300.0</ele><time>2026-04-03T13:20:52.045Z</time></trkpt><trkpt lat="43.4807961" lon="11.6714753"><ele>300.0</ele><time>2026-04-03T13:20:53.038Z</time></trkpt><trkpt lat="43.4808645" lon="11.6714006"><ele>300.0</ele><time>2026-04-03T13:20:54.046Z</time></trkpt><trkpt lat="43.4809416" lon="11.6713434"><ele>300.0</ele><time>2026-04-03T13:20:56.049Z</time></trkpt><trkpt lat="43.4809927" lon="11.6712683"><ele>300.0</ele><time>2026-04-03T13:21:03.038Z</time></trkpt><trkpt lat="43.4809923" lon="11.6710949"><ele>300.0</ele><time>2026-04-03T13:21:05.051Z</time></trkpt><trkpt lat="43.4809956" lon="11.6710022"><ele>300.0</ele><time>2026-04-03T13:21:06.045Z</time></trkpt><trkpt lat="43.4810246" lon="11.6709124"><ele>300.5</ele><time>2026-04-03T13:21:07.048Z</time></trkpt><trkpt lat="43.4810632" lon="11.6708248"><ele>301.0</ele><time>2026-04-03T13:21:08.045Z</time></trkpt><trkpt lat="43.4811056" lon="11.6707315"><ele>301.5</ele><time>2026-04-03T13:21:09.047Z</time></trkpt><trkpt lat="43.4811244" lon="11.6706233"><ele>302.0</ele><time>2026-04-03T13:21:10.042Z</time></trkpt><trkpt lat="43.4811137" lon="11.6705099"><ele>302.5</ele><time>2026-04-03T13:21:11.047Z</time></trkpt><trkpt lat="43.4810824" lon="11.6703898"><ele>303.0</ele><time>2026-04-03T13:21:12.044Z</time></trkpt><trkpt lat="43.4810504" lon="11.6702725"><ele>304.0</ele><time>2026-04-03T13:21:13.047Z</time></trkpt><trkpt lat="43.4810214" lon="11.6701502"><ele>305.0</ele><time>2026-04-03T13:21:14.035Z</time></trkpt><trkpt lat="43.4809968" lon="11.6700132"><ele>306.0</ele><time>2026-04-03T13:21:15.034Z</time></trkpt><trkpt lat="43.4809809" lon="11.669872"><ele>307.0</ele><time>2026-04-03T13:21:16.047Z</time></trkpt><trkpt lat="43.4809733" lon="11.6697295"><ele>308.0</ele><time>2026-04-03T13:21:17.039Z</time></trkpt><trkpt lat="43.4809813" lon="11.6695848"><ele>308.8</ele><time>2026-04-03T13:21:18.043Z</time></trkpt><trkpt lat="43.4810013" lon="11.66944"><ele>309.6</ele><time>2026-04-03T13:21:19.037Z</time></trkpt><trkpt lat="43.4810299" lon="11.6692996"><ele>310.4</ele><time>2026-04-03T13:21:20.04Z</time></trkpt><trkpt lat="43.48106" lon="11.6691667"><ele>311.2</ele><time>2026-04-03T13:21:21.048Z</time></trkpt><trkpt lat="43.4810932" lon="11.6690247"><ele>312.0</ele><time>2026-04-03T13:21:22.042Z</time></trkpt><trkpt lat="43.4811214" lon="11.6688796"><ele>312.0</ele><time>2026-04-03T13:21:23.058Z</time></trkpt><trkpt lat="43.4811456" lon="11.6687322"><ele>312.0</ele><time>2026-04-03T13:21:24.047Z</time></trkpt><trkpt lat="43.4811652" lon="11.6685776"><ele>312.0</ele><time>2026-04-03T13:21:25.048Z</time></trkpt><trkpt lat="43.4811859" lon="11.668421"><ele>312.0</ele><time>2026-04-03T13:21:26.049Z</time></trkpt><trkpt lat="43.4812107" lon="11.6682666"><ele>312.6</ele><time>2026-04-03T13:21:27.061Z</time></trkpt><trkpt lat="43.4812421" lon="11.6681231"><ele>313.2</ele><time>2026-04-03T13:21:28.045Z</time></trkpt><trkpt lat="43.4812787" lon="11.6679827"><ele>313.8</ele><time>2026-04-03T13:21:29.051Z</time></trkpt><trkpt lat="43.4813074" lon="11.6678424"><ele>314.4</ele><time>2026-04-03T13:21:30.045Z</time></trkpt><trkpt lat="43.4813038" lon="11.6676826"><ele>315.0</ele><time>2026-04-03T13:21:31.049Z</time></trkpt><trkpt lat="43.4812796" lon="11.6675124"><ele>315.75</ele><time>2026-04-03T13:21:32.046Z</time></trkpt><trkpt lat="43.4812494" lon="11.6673417"><ele>316.5</ele><time>2026-04-03T13:21:33.051Z</time></trkpt><trkpt lat="43.4812177" lon="11.6671723"><ele>317.25</ele><time>2026-04-03T13:21:34.041Z</time></trkpt><trkpt lat="43.481177" lon="11.6670035"><ele>318.0</ele><time>2026-04-03T13:21:35.043Z</time></trkpt><trkpt lat="43.4811337" lon="11.6668393"><ele>320.75</ele><time>2026-04-03T13:21:36.048Z</time></trkpt><trkpt lat="43.4810878" lon="11.6666758"><ele>323.5</ele><time>2026-04-03T13:21:37.045Z</time></trkpt><trkpt lat="43.481037" lon="11.666508"><ele>326.25</ele><time>2026-04-03T13:21:38.048Z</time></trkpt><trkpt lat="43.4809844" lon="11.6663281"><ele>329.0</ele><time>2026-04-03T13:21:39.048Z</time></trkpt><trkpt lat="43.480928" lon="11.6661469"><ele>331.25</ele><time>2026-04-03T13:21:40.042Z</time></trkpt><trkpt lat="43.4808688" lon="11.6659736"><ele>333.5</ele><time>2026-04-03T13:21:41.043Z</time></trkpt><trkpt lat="43.4808095" lon="11.6658038"><ele>335.75</ele><time>2026-04-03T13:21:42.055Z</time></trkpt><trkpt lat="43.4807534" lon="11.6656375"><ele>338.0</ele><time>2026-04-03T13:21:43.045Z</time></trkpt><trkpt lat="43.4806893" lon="11.6654703"><ele>338.0</ele><time>2026-04-03T13:21:44.05Z</time></trkpt><trkpt lat="43.4806354" lon="11.6653025"><ele>338.0</ele><time>2026-04-03T13:21:45.037Z</time></trkpt><trkpt lat="43.480586" lon="11.6651297"><ele>338.0</ele><time>2026-04-03T13:21:46.048Z</time></trkpt><trkpt lat="43.4805361" lon="11.6649505"><ele>338.0</ele><time>2026-04-03T13:21:47.044Z</time></trkpt><trkpt lat="43.4804807" lon="11.6647515"><ele>338.6666666666667</ele><time>2026-04-03T13:21:48.065Z</time></trkpt><trkpt lat="43.4804232" lon="11.6645436"><ele>339.3333333333333</ele><time>2026-04-03T13:21:49.051Z</time></trkpt><trkpt lat="43.4803653" lon="11.6643307"><ele>340.0</ele><time>2026-04-03T13:21:50.051Z</time></trkpt><trkpt lat="43.4803083" lon="11.6641207"><ele>341.3333333333333</ele><time>2026-04-03T13:21:51.05Z</time></trkpt><trkpt lat="43.4802531" lon="11.6639091"><ele>342.6666666666667</ele><time>2026-04-03T13:21:52.049Z</time></trkpt><trkpt lat="43.4802015" lon="11.6637059"><ele>344.0</ele><time>2026-04-03T13:21:53.052Z</time></trkpt><trkpt lat="43.4801562" lon="11.6635106"><ele>344.75</ele><time>2026-04-03T13:21:54.059Z</time></trkpt><trkpt lat="43.480135" lon="11.6633204"><ele>345.5</ele><time>2026-04-03T13:21:55.042Z</time></trkpt><trkpt lat="43.4801356" lon="11.6631393"><ele>346.25</ele><time>2026-04-03T13:21:56.046Z</time></trkpt><trkpt lat="43.4801564" lon="11.6629506"><ele>347.0</ele><time>2026-04-03T13:21:57.042Z</time></trkpt><trkpt lat="43.4801752" lon="11.6627529"><ele>347.0</ele><time>2026-04-03T13:21:58.06Z</time></trkpt><trkpt lat="43.4801784" lon="11.6625428"><ele>347.0</ele><time>2026-04-03T13:21:59.048Z</time></trkpt><trkpt lat="43.4801881" lon="11.66234"><ele>347.0</ele><time>2026-04-03T13:22:00.053Z</time></trkpt><trkpt lat="43.4802106" lon="11.6621339"><ele>347.0</ele><time>2026-04-03T13:22:01.058Z</time></trkpt><trkpt lat="43.4802556" lon="11.66194"><ele>347.0</ele><time>2026-04-03T13:22:02.05Z</time></trkpt><trkpt lat="43.4803111" lon="11.6617597"><ele>347.0</ele><time>2026-04-03T13:22:03.045Z</time></trkpt><trkpt lat="43.4803631" lon="11.6615777"><ele>347.0</ele><time>2026-04-03T13:22:04.057Z</time></trkpt><trkpt lat="43.480423" lon="11.6613933"><ele>349.6666666666667</ele><time>2026-04-03T13:22:05.051Z</time></trkpt><trkpt lat="43.4804664" lon="11.6611972"><ele>352.3333333333333</ele><time>2026-04-03T13:22:06.05Z</time></trkpt><trkpt lat="43.4804978" lon="11.6609931"><ele>355.0</ele><time>2026-04-03T13:22:07.031Z</time></trkpt><trkpt lat="43.4805248" lon="11.6607842"><ele>354.66666666666663</ele><time>2026-04-03T13:22:08.041Z</time></trkpt><trkpt lat="43.4805485" lon="11.660571"><ele>354.3333333333333</ele><time>2026-04-03T13:22:09.037Z</time></trkpt><trkpt lat="43.4805694" lon="11.6603614"><ele>354.0</ele><time>2026-04-03T13:22:10.053Z</time></trkpt><trkpt lat="43.4805904" lon="11.660149"><ele>354.0</ele><time>2026-04-03T13:22:11.028Z</time></trkpt><trkpt lat="43.4806107" lon="11.6599371"><ele>354.0</ele><time>2026-04-03T13:22:12.035Z</time></trkpt><trkpt lat="43.4806218" lon="11.6597288"><ele>354.0</ele><time>2026-04-03T13:22:13.047Z</time></trkpt><trkpt lat="43.4806201" lon="11.6595167"><ele>353.6666666666667</ele><time>2026-04-03T13:22:14.044Z</time></trkpt><trkpt lat="43.4806054" lon="11.6593062"><ele>353.33333333333337</ele><time>2026-04-03T13:22:15.049Z</time></trkpt><trkpt lat="43.4805824" lon="11.659092"><ele>353.0</ele><time>2026-04-03T13:22:16.054Z</time></trkpt><trkpt lat="43.4805613" lon="11.6588808"><ele>353.0</ele><time>2026-04-03T13:22:17.047Z</time></trkpt><trkpt lat="43.4805471" lon="11.6586678"><ele>353.0</ele><time>2026-04-03T13:22:18.058Z</time></trkpt><trkpt lat="43.4805316" lon="11.6584539"><ele>353.0</ele><time>2026-04-03T13:22:19.038Z</time></trkpt><trkpt lat="43.4805113" lon="11.6582582"><ele>353.75</ele><time>2026-04-03T13:22:20.049Z</time></trkpt><trkpt lat="43.4804895" lon="11.6580797"><ele>354.5</ele><time>2026-04-03T13:22:21.052Z</time></trkpt><trkpt lat="43.4804629" lon="11.6579228"><ele>355.25</ele><time>2026-04-03T13:22:22.038Z</time></trkpt><trkpt lat="43.480435" lon="11.6577865"><ele>356.0</ele><time>2026-04-03T13:22:23.052Z</time></trkpt><trkpt lat="43.4804029" lon="11.6576534"><ele>358.6</ele><time>2026-04-03T13:22:24.048Z</time></trkpt><trkpt lat="43.4803687" lon="11.6575185"><ele>361.20000000000005</ele><time>2026-04-03T13:22:25.036Z</time></trkpt><trkpt lat="43.4803333" lon="11.6573754"><ele>363.79999999999995</ele><time>2026-04-03T13:22:26.041Z</time></trkpt><trkpt lat="43.4803088" lon="11.6572226"><ele>366.4</ele><time>2026-04-03T13:22:27.033Z</time></trkpt><trkpt lat="43.4802874" lon="11.6570637"><ele>369.0</ele><time>2026-04-03T13:22:28.047Z</time></trkpt><trkpt lat="43.4802784" lon="11.6569054"><ele>370.79999999999995</ele><time>2026-04-03T13:22:29.036Z</time></trkpt><trkpt lat="43.4802751" lon="11.6567614"><ele>372.59999999999997</ele><time>2026-04-03T13:22:30.041Z</time></trkpt><trkpt lat="43.4802779" lon="11.6566358"><ele>374.4</ele><time>2026-04-03T13:22:31.037Z</time></trkpt><trkpt lat="43.4802823" lon="11.6565389"><ele>376.2</ele><time>2026-04-03T13:22:32.046Z</time></trkpt><trkpt lat="43.4802787" lon="11.6563911"><ele>378.0</ele><time>2026-04-03T13:22:34.045Z</time></trkpt><trkpt lat="43.4802807" lon="11.6562295"><ele>378.0</ele><time>2026-04-03T13:22:36.043Z</time></trkpt><trkpt lat="43.4802862" lon="11.6561312"><ele>378.0</ele><time>2026-04-03T13:22:37.036Z</time></trkpt><trkpt lat="43.4802871" lon="11.6560229"><ele>378.0</ele><time>2026-04-03T13:22:38.039Z</time></trkpt><trkpt lat="43.4802775" lon="11.6559144"><ele>378.0</ele><time>2026-04-03T13:22:39.031Z</time></trkpt><trkpt lat="43.4802677" lon="11.6558091"><ele>378.0</ele><time>2026-04-03T13:22:40.053Z</time></trkpt><trkpt lat="43.4802514" lon="11.6557119"><ele>378.0</ele><time>2026-04-03T13:22:41.036Z</time></trkpt><trkpt lat="43.4802446" lon="11.6556253"><ele>378.0</ele><time>2026-04-03T13:22:42.045Z</time></trkpt><trkpt lat="43.480247" lon="11.6555228"><ele>378.5</ele><time>2026-04-03T13:22:44.046Z</time></trkpt><trkpt lat="43.480252" lon="11.6554194"><ele>379.0</ele><time>2026-04-03T13:22:46.036Z</time></trkpt><trkpt lat="43.4802377" lon="11.6552613"><ele>379.5</ele><time>2026-04-03T13:22:48.041Z</time></trkpt><trkpt lat="43.4802236" lon="11.6551581"><ele>380.0</ele><time>2026-04-03T13:22:49.044Z</time></trkpt><trkpt lat="43.4802144" lon="11.655045"><ele>380.5</ele><time>2026-04-03T13:22:50.034Z</time></trkpt><trkpt lat="43.4802058" lon="11.6549219"><ele>381.0</ele><time>2026-04-03T13:22:51.049Z</time></trkpt><trkpt lat="43.4801968" lon="11.6547922"><ele>381.20000000000005</ele><time>2026-04-03T13:22:52.047Z</time></trkpt><trkpt lat="43.4801925" lon="11.6546592"><ele>381.40000000000003</ele><time>2026-04-03T13:22:53.044Z</time></trkpt><trkpt lat="43.4801867" lon="11.6545189"><ele>381.6</ele><time>2026-04-03T13:22:54.042Z</time></trkpt><trkpt lat="43.480182" lon="11.654377"><ele>381.8</ele><time>2026-04-03T13:22:55.03Z</time></trkpt><trkpt lat="43.4801789" lon="11.6542297"><ele>382.0</ele><time>2026-04-03T13:22:56.052Z</time></trkpt><trkpt lat="43.4801802" lon="11.6540913"><ele>382.20000000000005</ele><time>2026-04-03T13:22:57.044Z</time></trkpt><trkpt lat="43.4801918" lon="11.6539626"><ele>382.4</ele><time>2026-04-03T13:22:58.064Z</time></trkpt><trkpt lat="43.4802166" lon="11.6538419"><ele>382.6</ele><time>2026-04-03T13:22:59.045Z</time></trkpt><trkpt lat="43.4802567" lon="11.6537218"><ele>382.79999999999995</ele><time>2026-04-03T13:23:00.036Z</time></trkpt><trkpt lat="43.4803027" lon="11.653607"><ele>383.0</ele><time>2026-04-03T13:23:01.039Z</time></trkpt><trkpt lat="43.4803475" lon="11.6535051"><ele>383.0</ele><time>2026-04-03T13:23:02.039Z</time></trkpt><trkpt lat="43.4804067" lon="11.6533985"><ele>383.0</ele><time>2026-04-03T13:23:04.045Z</time></trkpt><trkpt lat="43.4804435" lon="11.6535302"><ele>383.0</ele><time>2026-04-03T13:23:07.045Z</time></trkpt><trkpt lat="43.480434" lon="11.6536164"><ele>383.0</ele><time>2026-04-03T13:23:08.047Z</time></trkpt><trkpt lat="43.4804251" lon="11.6537232"><ele>383.0</ele><time>2026-04-03T13:23:09.041Z</time></trkpt><trkpt lat="43.4804272" lon="11.653847"><ele>383.0</ele><time>2026-04-03T13:23:10.058Z</time></trkpt><trkpt lat="43.480439" lon="11.6539786"><ele>382.59999999999997</ele><time>2026-04-03T13:23:11.037Z</time></trkpt><trkpt lat="43.4804652" lon="11.6541091"><ele>382.2</ele><time>2026-04-03T13:23:12.039Z</time></trkpt><trkpt lat="43.4805108" lon="11.6542401"><ele>381.8</ele><time>2026-04-03T13:23:13.044Z</time></trkpt><trkpt lat="43.4805684" lon="11.6543623"><ele>381.4</ele><time>2026-04-03T13:23:14.039Z</time></trkpt><trkpt lat="43.4806341" lon="11.6544673"><ele>381.0</ele><time>2026-04-03T13:23:15.042Z</time></trkpt><trkpt lat="43.4807164" lon="11.6545689"><ele>381.0</ele><time>2026-04-03T13:23:16.05Z</time></trkpt><trkpt lat="43.4808006" lon="11.6546624"><ele>381.0</ele><time>2026-04-03T13:23:17.038Z</time></trkpt><trkpt lat="43.480885" lon="11.6547541"><ele>381.0</ele><time>2026-04-03T13:23:18.044Z</time></trkpt><trkpt lat="43.4809606" lon="11.6548624"><ele>381.0</ele><time>2026-04-03T13:23:19.035Z</time></trkpt><trkpt lat="43.4810326" lon="11.6549649"><ele>381.0</ele><time>2026-04-03T13:23:20.045Z</time></trkpt><trkpt lat="43.4811028" lon="11.6550662"><ele>381.0</ele><time>2026-04-03T13:23:21.045Z</time></trkpt><trkpt lat="43.4811688" lon="11.6551654"><ele>381.0</ele><time>2026-04-03T13:23:22.041Z</time></trkpt><trkpt lat="43.4812351" lon="11.6552482"><ele>381.0</ele><time>2026-04-03T13:23:23.041Z</time></trkpt><trkpt lat="43.4813044" lon="11.6553167"><ele>381.0</ele><time>2026-04-03T13:23:24.04Z</time></trkpt><trkpt lat="43.481378" lon="11.655357"><ele>381.0</ele><time>2026-04-03T13:23:25.035Z</time></trkpt><trkpt lat="43.4814489" lon="11.65537"><ele>381.0</ele><time>2026-04-03T13:23:26.036Z</time></trkpt><trkpt lat="43.4815226" lon="11.6553511"><ele>380.6666666666667</ele><time>2026-04-03T13:23:27.035Z</time></trkpt><trkpt lat="43.48159" lon="11.6552965"><ele>380.3333333333333</ele><time>2026-04-03T13:23:28.046Z</time></trkpt><trkpt lat="43.4816745" lon="11.6552357"><ele>380.0</ele><time>2026-04-03T13:23:29.038Z</time></trkpt><trkpt lat="43.4817559" lon="11.6551845"><ele>379.66666666666663</ele><time>2026-04-03T13:23:30.039Z</time></trkpt><trkpt lat="43.4818374" lon="11.6551312"><ele>379.3333333333333</ele><time>2026-04-03T13:23:31.049Z</time></trkpt><trkpt lat="43.4819187" lon="11.6550768"><ele>379.0</ele><time>2026-04-03T13:23:32.053Z</time></trkpt><trkpt lat="43.4819963" lon="11.6550162"><ele>377.79999999999995</ele><time>2026-04-03T13:23:33.042Z</time></trkpt><trkpt lat="43.4820756" lon="11.6549546"><ele>376.59999999999997</ele><time>2026-04-03T13:23:34.055Z</time></trkpt><trkpt lat="43.4821538" lon="11.6548925"><ele>375.4</ele><time>2026-04-03T13:23:35.035Z</time></trkpt><trkpt lat="43.4822384" lon="11.6548393"><ele>374.2</ele><time>2026-04-03T13:23:36.049Z</time></trkpt><trkpt lat="43.4823292" lon="11.6547982"><ele>373.0</ele><time>2026-04-03T13:23:37.039Z</time></trkpt><trkpt lat="43.482432" lon="11.6547738"><ele>371.75</ele><time>2026-04-03T13:23:38.042Z</time></trkpt><trkpt lat="43.4825352" lon="11.6547601"><ele>370.5</ele><time>2026-04-03T13:23:39.032Z</time></trkpt><trkpt lat="43.4826475" lon="11.6547564"><ele>369.25</ele><time>2026-04-03T13:23:40.056Z</time></trkpt><trkpt lat="43.48277" lon="11.6547561"><ele>368.0</ele><time>2026-04-03T13:23:41.048Z</time></trkpt><trkpt lat="43.4828974" lon="11.6547631"><ele>367.75</ele><time>2026-04-03T13:23:42.045Z</time></trkpt><trkpt lat="43.4830256" lon="11.6547764"><ele>367.5</ele><time>2026-04-03T13:23:43.032Z</time></trkpt><trkpt lat="43.4831503" lon="11.6548031"><ele>367.25</ele><time>2026-04-03T13:23:44.053Z</time></trkpt><trkpt lat="43.4832776" lon="11.654828"><ele>367.0</ele><time>2026-04-03T13:23:45.047Z</time></trkpt><trkpt lat="43.4834076" lon="11.6548572"><ele>367.0</ele><time>2026-04-03T13:23:46.045Z</time></trkpt><trkpt lat="43.4835452" lon="11.6548911"><ele>367.0</ele><time>2026-04-03T13:23:47.046Z</time></trkpt><trkpt lat="43.4836853" lon="11.6549336"><ele>367.0</ele><time>2026-04-03T13:23:48.038Z</time></trkpt><trkpt lat="43.4838278" lon="11.6549706"><ele>367.0</ele><time>2026-04-03T13:23:49.039Z</time></trkpt><trkpt lat="43.4839736" lon="11.6550064"><ele>367.0</ele><time>2026-04-03T13:23:50.052Z</time></trkpt><trkpt lat="43.4840977" lon="11.655039"><ele>367.0</ele><time>2026-04-03T13:23:51.041Z</time></trkpt><trkpt lat="43.4842068" lon="11.6550825"><ele>367.0</ele><time>2026-04-03T13:23:52.056Z</time></trkpt><trkpt lat="43.4843058" lon="11.6551238"><ele>367.0</ele><time>2026-04-03T13:23:53.05Z</time></trkpt><trkpt lat="43.4843883" lon="11.6551446"><ele>367.0</ele><time>2026-04-03T13:23:54.048Z</time></trkpt><trkpt lat="43.4844541" lon="11.6551354"><ele>367.0</ele><time>2026-04-03T13:23:55.044Z</time></trkpt><trkpt lat="43.4845114" lon="11.6550911"><ele>367.0</ele><time>2026-04-03T13:23:56.049Z</time></trkpt><trkpt lat="43.4845552" lon="11.6550147"><ele>367.0</ele><time>2026-04-03T13:23:57.036Z</time></trkpt><trkpt lat="43.4845947" lon="11.6548972"><ele>367.0</ele><time>2026-04-03T13:23:58.045Z</time></trkpt><trkpt lat="43.4846202" lon="11.6547779"><ele>367.0</ele><time>2026-04-03T13:23:59.054Z</time></trkpt><trkpt lat="43.4846837" lon="11.6546785"><ele>367.0</ele><time>2026-04-03T13:24:00.045Z</time></trkpt><trkpt lat="43.4847506" lon="11.6545588"><ele>366.25</ele><time>2026-04-03T13:24:01.039Z</time></trkpt><trkpt lat="43.4847982" lon="11.6544275"><ele>365.5</ele><time>2026-04-03T13:24:02.054Z</time></trkpt><trkpt lat="43.4848362" lon="11.6542823"><ele>364.75</ele><time>2026-04-03T13:24:03.033Z</time></trkpt><trkpt lat="43.4848789" lon="11.6541227"><ele>364.0</ele><time>2026-04-03T13:24:04.045Z</time></trkpt><trkpt lat="43.4849282" lon="11.6539704"><ele>364.0</ele><time>2026-04-03T13:24:05.04Z</time></trkpt><trkpt lat="43.4849921" lon="11.6538291"><ele>364.0</ele><time>2026-04-03T13:24:06.048Z</time></trkpt><trkpt lat="43.4850666" lon="11.6536983"><ele>364.0</ele><time>2026-04-03T13:24:07.039Z</time></trkpt><trkpt lat="43.4851387" lon="11.6535682"><ele>364.0</ele><time>2026-04-03T13:24:08.05Z</time></trkpt><trkpt lat="43.4851977" lon="11.6534378"><ele>364.75</ele><time>2026-04-03T13:24:09.05Z</time></trkpt><trkpt lat="43.4852456" lon="11.6533028"><ele>365.5</ele><time>2026-04-03T13:24:10.051Z</time></trkpt><trkpt lat="43.4852844" lon="11.653153"><ele>366.25</ele><time>2026-04-03T13:24:11.039Z</time></trkpt><trkpt lat="43.4853113" lon="11.6529825"><ele>367.0</ele><time>2026-04-03T13:24:12.038Z</time></trkpt><trkpt lat="43.4853297" lon="11.6528217"><ele>365.75</ele><time>2026-04-03T13:24:13.049Z</time></trkpt><trkpt lat="43.4853278" lon="11.6526755"><ele>364.5</ele><time>2026-04-03T13:24:14.037Z</time></trkpt><trkpt lat="43.4853106" lon="11.6525307"><ele>363.25</ele><time>2026-04-03T13:24:15.043Z</time></trkpt><trkpt lat="43.4852808" lon="11.6523718"><ele>362.0</ele><time>2026-04-03T13:24:16.045Z</time></trkpt><trkpt lat="43.4852531" lon="11.652202"><ele>362.0</ele><time>2026-04-03T13:24:17.041Z</time></trkpt><trkpt lat="43.485237" lon="11.6520213"><ele>362.0</ele><time>2026-04-03T13:24:18.043Z</time></trkpt><trkpt lat="43.4852239" lon="11.6518439"><ele>362.0</ele><time>2026-04-03T13:24:19.037Z</time></trkpt><trkpt lat="43.4852201" lon="11.6516767"><ele>362.0</ele><time>2026-04-03T13:24:20.039Z</time></trkpt><trkpt lat="43.4852104" lon="11.6515088"><ele>360.25</ele><time>2026-04-03T13:24:21.04Z</time></trkpt><trkpt lat="43.4851976" lon="11.6513409"><ele>358.5</ele><time>2026-04-03T13:24:22.046Z</time></trkpt><trkpt lat="43.4851793" lon="11.6511739"><ele>356.75</ele><time>2026-04-03T13:24:23.037Z</time></trkpt><trkpt lat="43.4851619" lon="11.6509942"><ele>355.0</ele><time>2026-04-03T13:24:24.046Z</time></trkpt><trkpt lat="43.4851508" lon="11.6508077"><ele>353.25</ele><time>2026-04-03T13:24:25.034Z</time></trkpt><trkpt lat="43.4851449" lon="11.6506249"><ele>351.5</ele><time>2026-04-03T13:24:26.032Z</time></trkpt><trkpt lat="43.48514" lon="11.6504394"><ele>349.75</ele><time>2026-04-03T13:24:27.036Z</time></trkpt><trkpt lat="43.4851318" lon="11.6502478"><ele>348.0</ele><time>2026-04-03T13:24:28.042Z</time></trkpt><trkpt lat="43.485118" lon="11.6500557"><ele>346.0</ele><time>2026-04-03T13:24:29.038Z</time></trkpt><trkpt lat="43.4851067" lon="11.6498648"><ele>344.0</ele><time>2026-04-03T13:24:30.04Z</time></trkpt><trkpt lat="43.485094" lon="11.6496813"><ele>342.0</ele><time>2026-04-03T13:24:31.037Z</time></trkpt><trkpt lat="43.4850823" lon="11.6495094"><ele>340.0</ele><time>2026-04-03T13:24:32.045Z</time></trkpt><trkpt lat="43.4850621" lon="11.6493435"><ele>338.2</ele><time>2026-04-03T13:24:33.037Z</time></trkpt><trkpt lat="43.4850335" lon="11.6491898"><ele>336.4</ele><time>2026-04-03T13:24:34.044Z</time></trkpt><trkpt lat="43.4849921" lon="11.6490454"><ele>334.6</ele><time>2026-04-03T13:24:35.029Z</time></trkpt><trkpt lat="43.4849452" lon="11.6489045"><ele>332.8</ele><time>2026-04-03T13:24:36.043Z</time></trkpt><trkpt lat="43.4849112" lon="11.6487627"><ele>331.0</ele><time>2026-04-03T13:24:37.04Z</time></trkpt><trkpt lat="43.4848825" lon="11.6486084"><ele>329.8</ele><time>2026-04-03T13:24:38.044Z</time></trkpt><trkpt lat="43.4848587" lon="11.648455"><ele>328.6</ele><time>2026-04-03T13:24:39.04Z</time></trkpt><trkpt lat="43.484847" lon="11.6483087"><ele>327.4</ele><time>2026-04-03T13:24:40.046Z</time></trkpt><trkpt lat="43.4848387" lon="11.6481728"><ele>326.2</ele><time>2026-04-03T13:24:41.038Z</time></trkpt><trkpt lat="43.4848367" lon="11.648051"><ele>325.0</ele><time>2026-04-03T13:24:42.045Z</time></trkpt><trkpt lat="43.4848401" lon="11.6479343"><ele>325.0</ele><time>2026-04-03T13:24:43.04Z</time></trkpt><trkpt lat="43.4848476" lon="11.6478169"><ele>325.0</ele><time>2026-04-03T13:24:44.046Z</time></trkpt><trkpt lat="43.4848487" lon="11.6476973"><ele>325.0</ele><time>2026-04-03T13:24:45.035Z</time></trkpt><trkpt lat="43.4848501" lon="11.6475786"><ele>325.0</ele><time>2026-04-03T13:24:46.051Z</time></trkpt><trkpt lat="43.4848587" lon="11.647459"><ele>325.0</ele><time>2026-04-03T13:24:47.038Z</time></trkpt><trkpt lat="43.4848778" lon="11.6473433"><ele>325.0</ele><time>2026-04-03T13:24:48.047Z</time></trkpt><trkpt lat="43.4849091" lon="11.6472331"><ele>324.5</ele><time>2026-04-03T13:24:49.048Z</time></trkpt><trkpt lat="43.4849465" lon="11.6471302"><ele>324.0</ele><time>2026-04-03T13:24:50.049Z</time></trkpt><trkpt lat="43.4849794" lon="11.6470318"><ele>323.5</ele><time>2026-04-03T13:24:51.046Z</time></trkpt><trkpt lat="43.484981" lon="11.646927"><ele>323.0</ele><time>2026-04-03T13:24:52.043Z</time></trkpt><trkpt lat="43.4849641" lon="11.6468265"><ele>322.5</ele><time>2026-04-03T13:24:53.038Z</time></trkpt><trkpt lat="43.4849292" lon="11.6467321"><ele>322.0</ele><time>2026-04-03T13:24:54.044Z</time></trkpt><trkpt lat="43.4848858" lon="11.6466196"><ele>321.0</ele><time>2026-04-03T13:24:55.035Z</time></trkpt><trkpt lat="43.4848634" lon="11.6465001"><ele>320.0</ele><time>2026-04-03T13:24:56.047Z</time></trkpt><trkpt lat="43.4848714" lon="11.6463763"><ele>319.0</ele><time>2026-04-03T13:24:57.035Z</time></trkpt><trkpt lat="43.4848976" lon="11.6462594"><ele>318.0</ele><time>2026-04-03T13:24:58.032Z</time></trkpt><trkpt lat="43.4849499" lon="11.6461647"><ele>317.0</ele><time>2026-04-03T13:24:59.033Z</time></trkpt><trkpt lat="43.485013" lon="11.6460819"><ele>316.0</ele><time>2026-04-03T13:25:00.046Z</time></trkpt><trkpt lat="43.4850566" lon="11.6459868"><ele>314.0</ele><time>2026-04-03T13:25:01.026Z</time></trkpt><trkpt lat="43.4850736" lon="11.6458341"><ele>312.0</ele><time>2026-04-03T13:25:03.033Z</time></trkpt><trkpt lat="43.4849878" lon="11.6457245"><ele>310.0</ele><time>2026-04-03T13:25:05.041Z</time></trkpt><trkpt lat="43.4848839" lon="11.645702"><ele>308.0</ele><time>2026-04-03T13:25:07.037Z</time></trkpt><trkpt lat="43.4848121" lon="11.6457152"><ele>306.0</ele><time>2026-04-03T13:25:09.031Z</time></trkpt><trkpt lat="43.4847491" lon="11.6457012"><ele>306.0</ele><time>2026-04-03T13:25:11.039Z</time></trkpt><trkpt lat="43.4847005" lon="11.6456122"><ele>306.0</ele><time>2026-04-03T13:25:13.035Z</time></trkpt><trkpt lat="43.4846927" lon="11.6454674"><ele>306.0</ele><time>2026-04-03T13:25:15.048Z</time></trkpt><trkpt lat="43.4847015" lon="11.6453779"><ele>306.0</ele><time>2026-04-03T13:25:16.029Z</time></trkpt><trkpt lat="43.4847075" lon="11.6452867"><ele>306.0</ele><time>2026-04-03T13:25:17.037Z</time></trkpt><trkpt lat="43.4847131" lon="11.6451898"><ele>306.0</ele><time>2026-04-03T13:25:18.041Z</time></trkpt><trkpt lat="43.4847232" lon="11.6450871"><ele>304.0</ele><time>2026-04-03T13:25:19.041Z</time></trkpt><trkpt lat="43.484734" lon="11.644975"><ele>302.0</ele><time>2026-04-03T13:25:20.02Z</time></trkpt><trkpt lat="43.4847518" lon="11.6448667"><ele>300.0</ele><time>2026-04-03T13:25:21.051Z</time></trkpt><trkpt lat="43.4847716" lon="11.6447653"><ele>298.0</ele><time>2026-04-03T13:25:22.033Z</time></trkpt><trkpt lat="43.4847968" lon="11.6446687"><ele>296.0</ele><time>2026-04-03T13:25:23.047Z</time></trkpt><trkpt lat="43.4848334" lon="11.6445758"><ele>294.0</ele><time>2026-04-03T13:25:24.037Z</time></trkpt><trkpt lat="43.4848816" lon="11.6444941"><ele>292.6666666666667</ele><time>2026-04-03T13:25:25.032Z</time></trkpt><trkpt lat="43.4849354" lon="11.6444085"><ele>291.3333333333333</ele><time>2026-04-03T13:25:26.041Z</time></trkpt><trkpt lat="43.4849797" lon="11.6443136"><ele>290.0</ele><time>2026-04-03T13:25:27.042Z</time></trkpt><trkpt lat="43.4850145" lon="11.6442189"><ele>288.66666666666663</ele><time>2026-04-03T13:25:28.039Z</time></trkpt><trkpt lat="43.4850383" lon="11.6441246"><ele>287.3333333333333</ele><time>2026-04-03T13:25:29.036Z</time></trkpt><trkpt lat="43.4850545" lon="11.6440242"><ele>286.0</ele><time>2026-04-03T13:25:30.036Z</time></trkpt><trkpt lat="43.485061" lon="11.6439299"><ele>285.99999999999994</ele><time>2026-04-03T13:25:31.045Z</time></trkpt><trkpt lat="43.485059" lon="11.6438253"><ele>286.0</ele><time>2026-04-03T13:25:32.039Z</time></trkpt><trkpt lat="43.4850652" lon="11.6437201"><ele>286.0</ele><time>2026-04-03T13:25:33.031Z</time></trkpt><trkpt lat="43.4850757" lon="11.6436217"><ele>286.0</ele><time>2026-04-03T13:25:34.037Z</time></trkpt><trkpt lat="43.4850813" lon="11.6435156"><ele>286.0</ele><time>2026-04-03T13:25:35.036Z</time></trkpt><trkpt lat="43.4850866" lon="11.6434112"><ele>285.99999999999994</ele><time>2026-04-03T13:25:36.035Z</time></trkpt><trkpt lat="43.4850886" lon="11.6433161"><ele>286.0</ele><time>2026-04-03T13:25:37.035Z</time></trkpt><trkpt lat="43.4850866" lon="11.643222"><ele>284.40000000000003</ele><time>2026-04-03T13:25:38.038Z</time></trkpt><trkpt lat="43.4850773" lon="11.6431034"><ele>282.8</ele><time>2026-04-03T13:25:39.036Z</time></trkpt><trkpt lat="43.485065" lon="11.6429652"><ele>281.20000000000005</ele><time>2026-04-03T13:25:40.046Z</time></trkpt><trkpt lat="43.4850469" lon="11.6428282"><ele>279.6</ele><time>2026-04-03T13:25:41.036Z</time></trkpt><trkpt lat="43.4850231" lon="11.6426948"><ele>278.0</ele><time>2026-04-03T13:25:42.041Z</time></trkpt><trkpt lat="43.4849827" lon="11.6425818"><ele>277.0</ele><time>2026-04-03T13:25:43.029Z</time></trkpt><trkpt lat="43.4849249" lon="11.6424885"><ele>276.0</ele><time>2026-04-03T13:25:44.029Z</time></trkpt><trkpt lat="43.4848591" lon="11.6424036"><ele>275.0</ele><time>2026-04-03T13:25:45.035Z</time></trkpt><trkpt lat="43.4848119" lon="11.6423027"><ele>274.0</ele><time>2026-04-03T13:25:46.035Z</time></trkpt><trkpt lat="43.4847966" lon="11.6421906"><ele>273.0</ele><time>2026-04-03T13:25:47.04Z</time></trkpt><trkpt lat="43.4848141" lon="11.6420802"><ele>272.0</ele><time>2026-04-03T13:25:48.031Z</time></trkpt><trkpt lat="43.4848477" lon="11.6419816"><ele>270.83333333333337</ele><time>2026-04-03T13:25:49.04Z</time></trkpt><trkpt lat="43.4848911" lon="11.6418828"><ele>269.6666666666667</ele><time>2026-04-03T13:25:51.031Z</time></trkpt><trkpt lat="43.48484" lon="11.6418319"><ele>268.5</ele><time>2026-04-03T13:25:56.055Z</time></trkpt><trkpt lat="43.48476" lon="11.6418861"><ele>267.3333333333333</ele><time>2026-04-03T13:25:59.045Z</time></trkpt><trkpt lat="43.4846745" lon="11.6419187"><ele>266.16666666666663</ele><time>2026-04-03T13:26:01.042Z</time></trkpt><trkpt lat="43.4845794" lon="11.6419521"><ele>265.0</ele><time>2026-04-03T13:26:03.037Z</time></trkpt><trkpt lat="43.4844946" lon="11.641943"><ele>264.6</ele><time>2026-04-03T13:26:05.027Z</time></trkpt><trkpt lat="43.4844409" lon="11.6418139"><ele>264.2</ele><time>2026-04-03T13:26:07.04Z</time></trkpt><trkpt lat="43.4844356" lon="11.6416443"><ele>263.8</ele><time>2026-04-03T13:26:09.034Z</time></trkpt><trkpt lat="43.4844618" lon="11.6414832"><ele>263.4</ele><time>2026-04-03T13:26:11.045Z</time></trkpt><trkpt lat="43.4844792" lon="11.6413912"><ele>263.0</ele><time>2026-04-03T13:26:12.03Z</time></trkpt><trkpt lat="43.4844974" lon="11.641305"><ele>263.0</ele><time>2026-04-03T13:26:13.033Z</time></trkpt><trkpt lat="43.4844872" lon="11.6411615"><ele>263.0</ele><time>2026-04-03T13:26:15.037Z</time></trkpt><trkpt lat="43.4844078" lon="11.6410934"><ele>263.0</ele><time>2026-04-03T13:26:17.031Z</time></trkpt><trkpt lat="43.4843318" lon="11.6411048"><ele>263.0</ele><time>2026-04-03T13:26:18.036Z</time></trkpt><trkpt lat="43.4842454" lon="11.6411244"><ele>263.0</ele><time>2026-04-03T13:26:19.039Z</time></trkpt><trkpt lat="43.4841518" lon="11.6411543"><ele>263.0</ele><time>2026-04-03T13:26:20.044Z</time></trkpt><trkpt lat="43.4840583" lon="11.6412083"><ele>263.0</ele><time>2026-04-03T13:26:21.035Z</time></trkpt><trkpt lat="43.4839744" lon="11.6412873"><ele>263.0</ele><time>2026-04-03T13:26:22.044Z</time></trkpt><trkpt lat="43.4839009" lon="11.6413734"><ele>263.0</ele><time>2026-04-03T13:26:23.033Z</time></trkpt><trkpt lat="43.4838349" lon="11.641432"><ele>263.0</ele><time>2026-04-03T13:26:24.037Z</time></trkpt><trkpt lat="43.483771" lon="11.6414531"><ele>263.0</ele><time>2026-04-03T13:26:25.042Z</time></trkpt><trkpt lat="43.4836591" lon="11.64142"><ele>263.1666666666667</ele><time>2026-04-03T13:26:27.037Z</time></trkpt><trkpt lat="43.4835807" lon="11.6413709"><ele>263.33333333333337</ele><time>2026-04-03T13:26:29.045Z</time></trkpt><trkpt lat="43.4834891" lon="11.6413111"><ele>263.5</ele><time>2026-04-03T13:26:31.04Z</time></trkpt><trkpt lat="43.4833805" lon="11.6412513"><ele>263.6666666666667</ele><time>2026-04-03T13:26:33.037Z</time></trkpt><trkpt lat="43.4833193" lon="11.6412246"><ele>263.8333333333333</ele><time>2026-04-03T13:26:34.039Z</time></trkpt><trkpt lat="43.4832617" lon="11.6411895"><ele>264.0</ele><time>2026-04-03T13:26:35.035Z</time></trkpt><trkpt lat="43.4831879" lon="11.6410931"><ele>264.0</ele><time>2026-04-03T13:26:37.045Z</time></trkpt><trkpt lat="43.4831451" lon="11.6410253"><ele>264.0</ele><time>2026-04-03T13:26:42.043Z</time></trkpt><trkpt lat="43.4831724" lon="11.6411175"><ele>264.0</ele><time>2026-04-03T13:26:50.04Z</time></trkpt><trkpt lat="43.4832357" lon="11.6411737"><ele>264.0</ele><time>2026-04-03T13:26:51.035Z</time></trkpt><trkpt lat="43.4833103" lon="11.6412367"><ele>264.0</ele><time>2026-04-03T13:26:52.037Z</time></trkpt><trkpt lat="43.4833912" lon="11.6412947"><ele>264.0</ele><time>2026-04-03T13:26:53.038Z</time></trkpt><trkpt lat="43.4834655" lon="11.6413444"><ele>264.1666666666667</ele><time>2026-04-03T13:26:54.042Z</time></trkpt><trkpt lat="43.4835319" lon="11.6413875"><ele>264.3333333333333</ele><time>2026-04-03T13:26:55.044Z</time></trkpt><trkpt lat="43.4835904" lon="11.6414242"><ele>264.5</ele><time>2026-04-03T13:26:56.044Z</time></trkpt><trkpt lat="43.4836778" lon="11.6414761"><ele>264.66666666666663</ele><time>2026-04-03T13:26:58.033Z</time></trkpt><trkpt lat="43.4837443" lon="11.6415008"><ele>264.8333333333333</ele><time>2026-04-03T13:27:01.038Z</time></trkpt><trkpt lat="43.4838314" lon="11.6414509"><ele>265.0</ele><time>2026-04-03T13:27:05.042Z</time></trkpt><trkpt lat="43.4839012" lon="11.64137"><ele>264.66666666666663</ele><time>2026-04-03T13:27:07.043Z</time></trkpt><trkpt lat="43.4839964" lon="11.6412538"><ele>264.3333333333333</ele><time>2026-04-03T13:27:09.04Z</time></trkpt><trkpt lat="43.4840578" lon="11.6412121"><ele>264.0</ele><time>2026-04-03T13:27:10.048Z</time></trkpt><trkpt lat="43.4841225" lon="11.6411838"><ele>263.6666666666667</ele><time>2026-04-03T13:27:11.042Z</time></trkpt><trkpt lat="43.4841878" lon="11.6411634"><ele>263.33333333333337</ele><time>2026-04-03T13:27:12.044Z</time></trkpt><trkpt lat="43.4842583" lon="11.6411491"><ele>263.0</ele><time>2026-04-03T13:27:13.039Z</time></trkpt><trkpt lat="43.4843312" lon="11.6411359"><ele>263.0</ele><time>2026-04-03T13:27:14.047Z</time></trkpt><trkpt lat="43.4843991" lon="11.641137"><ele>263.0</ele><time>2026-04-03T13:27:15.04Z</time></trkpt><trkpt lat="43.4844916" lon="11.6411849"><ele>263.0</ele><time>2026-04-03T13:27:17.038Z</time></trkpt><trkpt lat="43.4845068" lon="11.6412837"><ele>263.0</ele><time>2026-04-03T13:27:19.035Z</time></trkpt><trkpt lat="43.4844833" lon="11.6414548"><ele>263.0</ele><time>2026-04-03T13:27:23.041Z</time></trkpt><trkpt lat="43.4844776" lon="11.6415478"><ele>263.0</ele><time>2026-04-03T13:27:24.047Z</time></trkpt><trkpt lat="43.4844797" lon="11.6416409"><ele>263.0</ele><time>2026-04-03T13:27:25.048Z</time></trkpt><trkpt lat="43.4844896" lon="11.6417308"><ele>263.0</ele><time>2026-04-03T13:27:26.044Z</time></trkpt><trkpt lat="43.4845489" lon="11.6418603"><ele>263.0</ele><time>2026-04-03T13:27:28.045Z</time></trkpt><trkpt lat="43.4846501" lon="11.6418722"><ele>263.0</ele><time>2026-04-03T13:27:30.058Z</time></trkpt><trkpt lat="43.4847724" lon="11.6418442"><ele>263.0</ele><time>2026-04-03T13:27:32.052Z</time></trkpt><trkpt lat="43.4848368" lon="11.6418414"><ele>263.33333333333337</ele><time>2026-04-03T13:27:33.036Z</time></trkpt><trkpt lat="43.4849238" lon="11.6418245"><ele>263.6666666666667</ele><time>2026-04-03T13:27:35.047Z</time></trkpt><trkpt lat="43.4849941" lon="11.6417489"><ele>264.0</ele><time>2026-04-03T13:27:37.041Z</time></trkpt><trkpt lat="43.4850399" lon="11.6416676"><ele>264.3333333333333</ele><time>2026-04-03T13:27:38.046Z</time></trkpt><trkpt lat="43.4850829" lon="11.6415666"><ele>264.66666666666663</ele><time>2026-04-03T13:27:39.041Z</time></trkpt><trkpt lat="43.4851316" lon="11.6414529"><ele>265.0</ele><time>2026-04-03T13:27:40.039Z</time></trkpt><trkpt lat="43.485193" lon="11.6413326"><ele>265.0</ele><time>2026-04-03T13:27:41.043Z</time></trkpt><trkpt lat="43.4852563" lon="11.6412022"><ele>265.0</ele><time>2026-04-03T13:27:42.045Z</time></trkpt><trkpt lat="43.4853214" lon="11.6410733"><ele>265.0</ele><time>2026-04-03T13:27:43.036Z</time></trkpt><trkpt lat="43.4853791" lon="11.6409499"><ele>265.0</ele><time>2026-04-03T13:27:44.047Z</time></trkpt><trkpt lat="43.4854323" lon="11.6408362"><ele>265.0</ele><time>2026-04-03T13:27:45.038Z</time></trkpt><trkpt lat="43.4854871" lon="11.6407236"><ele>264.2</ele><time>2026-04-03T13:27:46.035Z</time></trkpt><trkpt lat="43.4855396" lon="11.6406044"><ele>263.4</ele><time>2026-04-03T13:27:47.044Z</time></trkpt><trkpt lat="43.4855881" lon="11.640482"><ele>262.6</ele><time>2026-04-03T13:27:48.034Z</time></trkpt><trkpt lat="43.4856565" lon="11.6403754"><ele>261.8</ele><time>2026-04-03T13:27:49.04Z</time></trkpt><trkpt lat="43.4857402" lon="11.6402933"><ele>261.0</ele><time>2026-04-03T13:27:50.043Z</time></trkpt><trkpt lat="43.4858326" lon="11.6402249"><ele>261.0</ele><time>2026-04-03T13:27:51.03Z</time></trkpt><trkpt lat="43.4859254" lon="11.6401609"><ele>261.0</ele><time>2026-04-03T13:27:52.038Z</time></trkpt><trkpt lat="43.4860161" lon="11.6400984"><ele>261.0</ele><time>2026-04-03T13:27:53.038Z</time></trkpt><trkpt lat="43.4861088" lon="11.6400339"><ele>261.0</ele><time>2026-04-03T13:27:54.039Z</time></trkpt><trkpt lat="43.4862014" lon="11.6399696"><ele>261.0</ele><time>2026-04-03T13:27:55.058Z</time></trkpt><trkpt lat="43.4862925" lon="11.6399205"><ele>260.0</ele><time>2026-04-03T13:27:56.042Z</time></trkpt><trkpt lat="43.486373" lon="11.6398874"><ele>259.0</ele><time>2026-04-03T13:27:57.06Z</time></trkpt><trkpt lat="43.4864468" lon="11.6398696"><ele>258.0</ele><time>2026-04-03T13:27:58.048Z</time></trkpt><trkpt lat="43.4865149" lon="11.639852"><ele>257.0</ele><time>2026-04-03T13:27:59.043Z</time></trkpt><trkpt lat="43.4865775" lon="11.6398345"><ele>256.0</ele><time>2026-04-03T13:28:00.04Z</time></trkpt><trkpt lat="43.4866861" lon="11.6397996"><ele>255.0</ele><time>2026-04-03T13:28:02.039Z</time></trkpt><trkpt lat="43.4867862" lon="11.6397714"><ele>255.0</ele><time>2026-04-03T13:28:04.036Z</time></trkpt><trkpt lat="43.4868803" lon="11.639745"><ele>255.0</ele><time>2026-04-03T13:28:06.036Z</time></trkpt><trkpt lat="43.4869661" lon="11.6397219"><ele>255.0</ele><time>2026-04-03T13:28:08.036Z</time></trkpt><trkpt lat="43.48705" lon="11.6397062"><ele>255.0</ele><time>2026-04-03T13:28:10.038Z</time></trkpt><trkpt lat="43.4871206" lon="11.6396871"><ele>255.0</ele><time>2026-04-03T13:28:12.053Z</time></trkpt><trkpt lat="43.4871992" lon="11.6396634"><ele>255.0</ele><time>2026-04-03T13:28:15.037Z</time></trkpt><trkpt lat="43.4872658" lon="11.6396456"><ele>255.2</ele><time>2026-04-03T13:28:18.052Z</time></trkpt><trkpt lat="43.4873482" lon="11.6396104"><ele>255.4</ele><time>2026-04-03T13:28:22.051Z</time></trkpt><trkpt lat="43.4874244" lon="11.6395544"><ele>255.60000000000002</ele><time>2026-04-03T13:28:24.039Z</time></trkpt><trkpt lat="43.4875361" lon="11.6394731"><ele>255.8</ele><time>2026-04-03T13:28:26.039Z</time></trkpt><trkpt lat="43.4876037" lon="11.6394215"><ele>256.0</ele><time>2026-04-03T13:28:27.036Z</time></trkpt><trkpt lat="43.4876748" lon="11.6393654"><ele>255.99999999999997</ele><time>2026-04-03T13:28:28.043Z</time></trkpt><trkpt lat="43.4877483" lon="11.6393071"><ele>256.0</ele><time>2026-04-03T13:28:29.042Z</time></trkpt><trkpt lat="43.4878226" lon="11.6392456"><ele>256.0</ele><time>2026-04-03T13:28:30.065Z</time></trkpt><trkpt lat="43.4878971" lon="11.6391812"><ele>256.0</ele><time>2026-04-03T13:28:31.041Z</time></trkpt><trkpt lat="43.487976" lon="11.6391174"><ele>255.99999999999997</ele><time>2026-04-03T13:28:32.053Z</time></trkpt><trkpt lat="43.4880595" lon="11.6390527"><ele>256.0</ele><time>2026-04-03T13:28:33.051Z</time></trkpt><trkpt lat="43.4881454" lon="11.6389807"><ele>256.0</ele><time>2026-04-03T13:28:34.053Z</time></trkpt><trkpt lat="43.4882342" lon="11.6389078"><ele>256.0</ele><time>2026-04-03T13:28:35.054Z</time></trkpt><trkpt lat="43.4883273" lon="11.6388306"><ele>256.0</ele><time>2026-04-03T13:28:36.034Z</time></trkpt><trkpt lat="43.4884209" lon="11.6387523"><ele>256.0</ele><time>2026-04-03T13:28:37.05Z</time></trkpt><trkpt lat="43.4885178" lon="11.6386718"><ele>256.0</ele><time>2026-04-03T13:28:38.046Z</time></trkpt><trkpt lat="43.4886167" lon="11.6385939"><ele>256.0</ele><time>2026-04-03T13:28:39.05Z</time></trkpt><trkpt lat="43.4887176" lon="11.638514"><ele>256.0</ele><time>2026-04-03T13:28:40.047Z</time></trkpt><trkpt lat="43.4888224" lon="11.6384333"><ele>256.0</ele><time>2026-04-03T13:28:41.038Z</time></trkpt><trkpt lat="43.4889322" lon="11.6383573"><ele>256.0</ele><time>2026-04-03T13:28:42.049Z</time></trkpt><trkpt lat="43.489046" lon="11.6382964"><ele>255.5</ele><time>2026-04-03T13:28:43.044Z</time></trkpt><trkpt lat="43.4891666" lon="11.6382489"><ele>255.0</ele><time>2026-04-03T13:28:44.042Z</time></trkpt><trkpt lat="43.4892866" lon="11.6382057"><ele>254.5</ele><time>2026-04-03T13:28:45.043Z</time></trkpt><trkpt lat="43.4894029" lon="11.6381666"><ele>254.0</ele><time>2026-04-03T13:28:46.052Z</time></trkpt><trkpt lat="43.4895074" lon="11.6381176"><ele>253.0</ele><time>2026-04-03T13:28:47.043Z</time></trkpt><trkpt lat="43.4896007" lon="11.6380541"><ele>251.99999999999997</ele><time>2026-04-03T13:28:48.055Z</time></trkpt><trkpt lat="43.4896902" lon="11.6379668"><ele>250.99999999999997</ele><time>2026-04-03T13:28:49.051Z</time></trkpt><trkpt lat="43.4897709" lon="11.6378537"><ele>250.0</ele><time>2026-04-03T13:28:50.05Z</time></trkpt><trkpt lat="43.4898448" lon="11.6377434"><ele>249.0</ele><time>2026-04-03T13:28:51.052Z</time></trkpt><trkpt lat="43.4899097" lon="11.6376336"><ele>249.0</ele><time>2026-04-03T13:28:52.048Z</time></trkpt><trkpt lat="43.4899669" lon="11.6375246"><ele>248.99999999999997</ele><time>2026-04-03T13:28:53.054Z</time></trkpt><trkpt lat="43.4900124" lon="11.6374168"><ele>248.99999999999997</ele><time>2026-04-03T13:28:54.051Z</time></trkpt><trkpt lat="43.4900419" lon="11.637307"><ele>249.0</ele><time>2026-04-03T13:28:55.044Z</time></trkpt><trkpt lat="43.4900462" lon="11.637183"><ele>249.0</ele><time>2026-04-03T13:28:56.049Z</time></trkpt><trkpt lat="43.4900388" lon="11.6370464"><ele>248.2</ele><time>2026-04-03T13:28:57.05Z</time></trkpt><trkpt lat="43.4900311" lon="11.636908"><ele>247.39999999999998</ele><time>2026-04-03T13:28:58.055Z</time></trkpt><trkpt lat="43.4900404" lon="11.6367778"><ele>246.6</ele><time>2026-04-03T13:28:59.04Z</time></trkpt><trkpt lat="43.490071" lon="11.6366501"><ele>245.8</ele><time>2026-04-03T13:29:00.048Z</time></trkpt><trkpt lat="43.4901294" lon="11.6365488"><ele>245.0</ele><time>2026-04-03T13:29:01.044Z</time></trkpt><trkpt lat="43.4902038" lon="11.636476"><ele>245.00000000000003</ele><time>2026-04-03T13:29:02.048Z</time></trkpt><trkpt lat="43.4902888" lon="11.6364344"><ele>245.0</ele><time>2026-04-03T13:29:03.042Z</time></trkpt><trkpt lat="43.4903824" lon="11.6364116"><ele>245.0</ele><time>2026-04-03T13:29:04.048Z</time></trkpt><trkpt lat="43.4904671" lon="11.6363702"><ele>245.0</ele><time>2026-04-03T13:29:05.041Z</time></trkpt><trkpt lat="43.4905352" lon="11.6363076"><ele>245.00000000000003</ele><time>2026-04-03T13:29:06.047Z</time></trkpt><trkpt lat="43.4905884" lon="11.6362245"><ele>245.0</ele><time>2026-04-03T13:29:07.039Z</time></trkpt><trkpt lat="43.4906271" lon="11.6361142"><ele>243.6</ele><time>2026-04-03T13:29:08.045Z</time></trkpt><trkpt lat="43.4906542" lon="11.635986"><ele>242.2</ele><time>2026-04-03T13:29:09.043Z</time></trkpt><trkpt lat="43.490684" lon="11.635846"><ele>240.8</ele><time>2026-04-03T13:29:10.043Z</time></trkpt><trkpt lat="43.4907232" lon="11.6356929"><ele>239.4</ele><time>2026-04-03T13:29:11.04Z</time></trkpt><trkpt lat="43.4907774" lon="11.6355401"><ele>238.0</ele><time>2026-04-03T13:29:12.061Z</time></trkpt><trkpt lat="43.4908388" lon="11.6353837"><ele>237.5</ele><time>2026-04-03T13:29:13.043Z</time></trkpt><trkpt lat="43.4909082" lon="11.6352256"><ele>237.0</ele><time>2026-04-03T13:29:14.048Z</time></trkpt><trkpt lat="43.4909854" lon="11.6350687"><ele>236.5</ele><time>2026-04-03T13:29:15.031Z</time></trkpt><trkpt lat="43.4910711" lon="11.6349171"><ele>236.0</ele><time>2026-04-03T13:29:16.043Z</time></trkpt><trkpt lat="43.4911584" lon="11.6347784"><ele>236.0</ele><time>2026-04-03T13:29:17.03Z</time></trkpt><trkpt lat="43.491239" lon="11.6346569"><ele>236.00000000000003</ele><time>2026-04-03T13:29:18.041Z</time></trkpt><trkpt lat="43.4913195" lon="11.6345572"><ele>236.00000000000003</ele><time>2026-04-03T13:29:19.042Z</time></trkpt><trkpt lat="43.4913968" lon="11.6344694"><ele>236.0</ele><time>2026-04-03T13:29:20.051Z</time></trkpt><trkpt lat="43.4914746" lon="11.6343919"><ele>236.0</ele><time>2026-04-03T13:29:21.044Z</time></trkpt><trkpt lat="43.4915477" lon="11.6343207"><ele>235.8</ele><time>2026-04-03T13:29:22.043Z</time></trkpt><trkpt lat="43.4916312" lon="11.634252"><ele>235.60000000000002</ele><time>2026-04-03T13:29:23.044Z</time></trkpt><trkpt lat="43.4917236" lon="11.6341799"><ele>235.4</ele><time>2026-04-03T13:29:24.052Z</time></trkpt><trkpt lat="43.4918244" lon="11.6340982"><ele>235.2</ele><time>2026-04-03T13:29:25.039Z</time></trkpt><trkpt lat="43.491932" lon="11.6340053"><ele>235.0</ele><time>2026-04-03T13:29:26.049Z</time></trkpt><trkpt lat="43.4920418" lon="11.6338993"><ele>235.25</ele><time>2026-04-03T13:29:27.043Z</time></trkpt><trkpt lat="43.4921519" lon="11.6337876"><ele>235.5</ele><time>2026-04-03T13:29:28.049Z</time></trkpt><trkpt lat="43.4922672" lon="11.6336707"><ele>235.75</ele><time>2026-04-03T13:29:29.031Z</time></trkpt><trkpt lat="43.4923863" lon="11.6335521"><ele>236.0</ele><time>2026-04-03T13:29:30.037Z</time></trkpt><trkpt lat="43.4925029" lon="11.6334373"><ele>235.25</ele><time>2026-04-03T13:29:31.041Z</time></trkpt><trkpt lat="43.4926114" lon="11.6333172"><ele>234.5</ele><time>2026-04-03T13:29:32.045Z</time></trkpt><trkpt lat="43.4927073" lon="11.6331821"><ele>233.75</ele><time>2026-04-03T13:29:33.045Z</time></trkpt><trkpt lat="43.4927913" lon="11.6330379"><ele>233.0</ele><time>2026-04-03T13:29:34.041Z</time></trkpt><trkpt lat="43.4928676" lon="11.6328904"><ele>233.5</ele><time>2026-04-03T13:29:35.045Z</time></trkpt><trkpt lat="43.4929428" lon="11.6327458"><ele>234.0</ele><time>2026-04-03T13:29:36.042Z</time></trkpt><trkpt lat="43.4930198" lon="11.632604"><ele>234.5</ele><time>2026-04-03T13:29:37.044Z</time></trkpt><trkpt lat="43.493097" lon="11.6324606"><ele>235.0</ele><time>2026-04-03T13:29:38.037Z</time></trkpt><trkpt lat="43.4931566" lon="11.6323326"><ele>234.99999999999997</ele><time>2026-04-03T13:29:39.04Z</time></trkpt><trkpt lat="43.4932075" lon="11.6322301"><ele>235.0</ele><time>2026-04-03T13:29:40.046Z</time></trkpt><trkpt lat="43.4932468" lon="11.6321538"><ele>235.0</ele><time>2026-04-03T13:29:41.041Z</time></trkpt><trkpt lat="43.4932913" lon="11.6320719"><ele>235.0</ele><time>2026-04-03T13:29:43.036Z</time></trkpt><trkpt lat="43.4932926" lon="11.6319541"><ele>234.99999999999997</ele><time>2026-04-03T13:30:01.038Z</time></trkpt><trkpt lat="43.4932665" lon="11.6318628"><ele>235.0</ele><time>2026-04-03T13:30:02.038Z</time></trkpt><trkpt lat="43.4932154" lon="11.6317618"><ele>234.5</ele><time>2026-04-03T13:30:03.044Z</time></trkpt><trkpt lat="43.4931567" lon="11.6316518"><ele>234.0</ele><time>2026-04-03T13:30:04.06Z</time></trkpt><trkpt lat="43.4930899" lon="11.631524"><ele>233.5</ele><time>2026-04-03T13:30:05.046Z</time></trkpt><trkpt lat="43.4930189" lon="11.6313859"><ele>233.0</ele><time>2026-04-03T13:30:06.054Z</time></trkpt><trkpt lat="43.4929478" lon="11.6312395"><ele>235.25</ele><time>2026-04-03T13:30:07.04Z</time></trkpt><trkpt lat="43.4928727" lon="11.6310842"><ele>237.5</ele><time>2026-04-03T13:30:08.053Z</time></trkpt><trkpt lat="43.4927981" lon="11.6309232"><ele>239.75</ele><time>2026-04-03T13:30:09.043Z</time></trkpt><trkpt lat="43.4927179" lon="11.6307536"><ele>242.0</ele><time>2026-04-03T13:30:10.044Z</time></trkpt><trkpt lat="43.4926355" lon="11.630583"><ele>242.0</ele><time>2026-04-03T13:30:11.043Z</time></trkpt><trkpt lat="43.4925495" lon="11.6304128"><ele>242.0</ele><time>2026-04-03T13:30:12.054Z</time></trkpt><trkpt lat="43.4924604" lon="11.63023"><ele>242.0</ele><time>2026-04-03T13:30:13.046Z</time></trkpt><trkpt lat="43.4923714" lon="11.6300465"><ele>242.0</ele><time>2026-04-03T13:30:14.047Z</time></trkpt><trkpt lat="43.4922832" lon="11.6298642"><ele>242.0</ele><time>2026-04-03T13:30:15.056Z</time></trkpt><trkpt lat="43.4921899" lon="11.6296839"><ele>242.0</ele><time>2026-04-03T13:30:16.052Z</time></trkpt><trkpt lat="43.4920957" lon="11.629503"><ele>240.66666666666669</ele><time>2026-04-03T13:30:17.053Z</time></trkpt><trkpt lat="43.4920048" lon="11.6293118"><ele>239.33333333333331</ele><time>2026-04-03T13:30:18.046Z</time></trkpt><trkpt lat="43.491911" lon="11.6291182"><ele>238.0</ele><time>2026-04-03T13:30:19.047Z</time></trkpt><trkpt lat="43.491815" lon="11.6289226"><ele>238.0</ele><time>2026-04-03T13:30:20.045Z</time></trkpt><trkpt lat="43.4917083" lon="11.6287427"><ele>238.0</ele><time>2026-04-03T13:30:21.045Z</time></trkpt><trkpt lat="43.4915878" lon="11.6285749"><ele>238.0</ele><time>2026-04-03T13:30:22.054Z</time></trkpt><trkpt lat="43.4914513" lon="11.62843"><ele>238.0</ele><time>2026-04-03T13:30:23.042Z</time></trkpt><trkpt lat="43.4913069" lon="11.6283004"><ele>238.0</ele><time>2026-04-03T13:30:24.046Z</time></trkpt><trkpt lat="43.4911628" lon="11.6281735"><ele>238.0</ele><time>2026-04-03T13:30:25.05Z</time></trkpt><trkpt lat="43.4910233" lon="11.6280451"><ele>234.33333333333331</ele><time>2026-04-03T13:30:26.048Z</time></trkpt><trkpt lat="43.490891" lon="11.6279072"><ele>230.66666666666669</ele><time>2026-04-03T13:30:27.041Z</time></trkpt><trkpt lat="43.4907701" lon="11.6277601"><ele>227.0</ele><time>2026-04-03T13:30:28.039Z</time></trkpt><trkpt lat="43.4906613" lon="11.6275942"><ele>227.0</ele><time>2026-04-03T13:30:29.043Z</time></trkpt><trkpt lat="43.4905624" lon="11.6274127"><ele>227.0</ele><time>2026-04-03T13:30:30.041Z</time></trkpt><trkpt lat="43.4904785" lon="11.6272185"><ele>227.0</ele><time>2026-04-03T13:30:31.042Z</time></trkpt><trkpt lat="43.4904164" lon="11.6270162"><ele>222.0</ele><time>2026-04-03T13:30:32.044Z</time></trkpt><trkpt lat="43.490374" lon="11.6268066"><ele>217.0</ele><time>2026-04-03T13:30:33.032Z</time></trkpt><trkpt lat="43.4903487" lon="11.6265855"><ele>212.0</ele><time>2026-04-03T13:30:34.045Z</time></trkpt><trkpt lat="43.4903389" lon="11.6263592"><ele>210.0</ele><time>2026-04-03T13:30:35.037Z</time></trkpt><trkpt lat="43.4903498" lon="11.6261278"><ele>208.0</ele><time>2026-04-03T13:30:36.056Z</time></trkpt><trkpt lat="43.490379" lon="11.625899"><ele>206.0</ele><time>2026-04-03T13:30:37.048Z</time></trkpt><trkpt lat="43.4904277" lon="11.6256685"><ele>209.33333333333334</ele><time>2026-04-03T13:30:38.04Z</time></trkpt><trkpt lat="43.4904943" lon="11.6254367"><ele>212.66666666666669</ele><time>2026-04-03T13:30:39.043Z</time></trkpt><trkpt lat="43.4905632" lon="11.6252027"><ele>216.0</ele><time>2026-04-03T13:30:40.042Z</time></trkpt><trkpt lat="43.4906391" lon="11.6249623"><ele>216.0</ele><time>2026-04-03T13:30:41.043Z</time></trkpt><trkpt lat="43.4907212" lon="11.6247165"><ele>216.0</ele><time>2026-04-03T13:30:42.04Z</time></trkpt><trkpt lat="43.4908052" lon="11.6244697"><ele>216.0</ele><time>2026-04-03T13:30:43.04Z</time></trkpt><trkpt lat="43.4908883" lon="11.62422"><ele>212.33333333333331</ele><time>2026-04-03T13:30:44.043Z</time></trkpt><trkpt lat="43.4909768" lon="11.6239646"><ele>208.66666666666666</ele><time>2026-04-03T13:30:45.038Z</time></trkpt><trkpt lat="43.4910628" lon="11.6237134"><ele>205.0</ele><time>2026-04-03T13:30:46.043Z</time></trkpt><trkpt lat="43.4911438" lon="11.6234534"><ele>203.33333333333331</ele><time>2026-04-03T13:30:47.036Z</time></trkpt><trkpt lat="43.4912036" lon="11.623182"><ele>201.66666666666669</ele><time>2026-04-03T13:30:48.046Z</time></trkpt><trkpt lat="43.4912451" lon="11.6229051"><ele>200.0</ele><time>2026-04-03T13:30:49.046Z</time></trkpt><trkpt lat="43.4912735" lon="11.622625"><ele>200.0</ele><time>2026-04-03T13:30:50.15Z</time></trkpt><trkpt lat="43.4912687" lon="11.6221161"><ele>200.0</ele><time>2026-04-03T13:30:52.055Z</time></trkpt><trkpt lat="43.491239" lon="11.6218872"><ele>194.33333333333334</ele><time>2026-04-03T13:30:53.039Z</time></trkpt><trkpt lat="43.4911902" lon="11.6216634"><ele>188.66666666666669</ele><time>2026-04-03T13:30:54.039Z</time></trkpt><trkpt lat="43.4911374" lon="11.6214517"><ele>183.0</ele><time>2026-04-03T13:30:55.049Z</time></trkpt><trkpt lat="43.4910827" lon="11.6212447"><ele>183.0</ele><time>2026-04-03T13:30:56.045Z</time></trkpt><trkpt lat="43.4910206" lon="11.6210488"><ele>183.0</ele><time>2026-04-03T13:30:57.049Z</time></trkpt><trkpt lat="43.4909566" lon="11.6208697"><ele>183.0</ele><time>2026-04-03T13:30:58.041Z</time></trkpt><trkpt lat="43.4909058" lon="11.6206933"><ele>183.0</ele><time>2026-04-03T13:30:59.054Z</time></trkpt><trkpt lat="43.490878" lon="11.620516"><ele>183.0</ele><time>2026-04-03T13:31:00.039Z</time></trkpt><trkpt lat="43.4908653" lon="11.6203386"><ele>183.0</ele><time>2026-04-03T13:31:01.047Z</time></trkpt><trkpt lat="43.4908597" lon="11.6201607"><ele>183.0</ele><time>2026-04-03T13:31:02.049Z</time></trkpt><trkpt lat="43.4908634" lon="11.6199823"><ele>183.0</ele><time>2026-04-03T13:31:03.041Z</time></trkpt><trkpt lat="43.4908766" lon="11.6198075"><ele>182.25</ele><time>2026-04-03T13:31:04.057Z</time></trkpt><trkpt lat="43.4908987" lon="11.6196414"><ele>181.5</ele><time>2026-04-03T13:31:05.037Z</time></trkpt><trkpt lat="43.4909398" lon="11.6194875"><ele>180.75</ele><time>2026-04-03T13:31:06.067Z</time></trkpt><trkpt lat="43.4909993" lon="11.6193578"><ele>180.0</ele><time>2026-04-03T13:31:07.045Z</time></trkpt><trkpt lat="43.4910863" lon="11.6192536"><ele>179.75</ele><time>2026-04-03T13:31:08.055Z</time></trkpt><trkpt lat="43.4911921" lon="11.6191813"><ele>179.5</ele><time>2026-04-03T13:31:09.054Z</time></trkpt><trkpt lat="43.4913076" lon="11.6191541"><ele>179.25</ele><time>2026-04-03T13:31:10.037Z</time></trkpt><trkpt lat="43.491429" lon="11.6191435"><ele>179.0</ele><time>2026-04-03T13:31:11.04Z</time></trkpt><trkpt lat="43.491556" lon="11.6191254"><ele>179.0</ele><time>2026-04-03T13:31:12.048Z</time></trkpt><trkpt lat="43.4916871" lon="11.6191029"><ele>179.0</ele><time>2026-04-03T13:31:13.032Z</time></trkpt><trkpt lat="43.4918244" lon="11.6190819"><ele>179.0</ele><time>2026-04-03T13:31:14.033Z</time></trkpt><trkpt lat="43.4919538" lon="11.6190392"><ele>179.0</ele><time>2026-04-03T13:31:15.03Z</time></trkpt><trkpt lat="43.4920625" lon="11.6189607"><ele>177.83333333333331</ele><time>2026-04-03T13:31:16.048Z</time></trkpt><trkpt lat="43.4921442" lon="11.6188601"><ele>176.66666666666666</ele><time>2026-04-03T13:31:17.047Z</time></trkpt><trkpt lat="43.4921962" lon="11.6187671"><ele>175.5</ele><time>2026-04-03T13:31:18.042Z</time></trkpt><trkpt lat="43.492228" lon="11.6186888"><ele>174.33333333333334</ele><time>2026-04-03T13:31:19.026Z</time></trkpt><trkpt lat="43.4922591" lon="11.6186074"><ele>173.16666666666669</ele><time>2026-04-03T13:31:21.032Z</time></trkpt><trkpt lat="43.4922648" lon="11.6185154"><ele>172.0</ele><time>2026-04-03T13:31:29.037Z</time></trkpt><trkpt lat="43.4922033" lon="11.6184277"><ele>170.8</ele><time>2026-04-03T13:31:32.039Z</time></trkpt><trkpt lat="43.4921386" lon="11.6183961"><ele>169.6</ele><time>2026-04-03T13:31:33.04Z</time></trkpt><trkpt lat="43.492049" lon="11.61839"><ele>168.4</ele><time>2026-04-03T13:31:34.04Z</time></trkpt><trkpt lat="43.4919387" lon="11.6184083"><ele>167.20000000000002</ele><time>2026-04-03T13:31:35.039Z</time></trkpt><trkpt lat="43.4918171" lon="11.6184264"><ele>166.0</ele><time>2026-04-03T13:31:36.042Z</time></trkpt><trkpt lat="43.4916867" lon="11.6184456"><ele>166.0</ele><time>2026-04-03T13:31:37.04Z</time></trkpt><trkpt lat="43.4915447" lon="11.6184766"><ele>166.0</ele><time>2026-04-03T13:31:38.042Z</time></trkpt><trkpt lat="43.4914131" lon="11.6185054"><ele>166.0</ele><time>2026-04-03T13:31:39.04Z</time></trkpt><trkpt lat="43.4912868" lon="11.618522"><ele>166.0</ele><time>2026-04-03T13:31:40.039Z</time></trkpt><trkpt lat="43.4911604" lon="11.6185214"><ele>165.5</ele><time>2026-04-03T13:31:41.033Z</time></trkpt><trkpt lat="43.4910364" lon="11.6184914"><ele>165.0</ele><time>2026-04-03T13:31:42.041Z</time></trkpt><trkpt lat="43.4909158" lon="11.6184361"><ele>164.5</ele><time>2026-04-03T13:31:43.029Z</time></trkpt><trkpt lat="43.4907926" lon="11.6183651"><ele>164.0</ele><time>2026-04-03T13:31:44.04Z</time></trkpt><trkpt lat="43.490666" lon="11.6183015"><ele>164.0</ele><time>2026-04-03T13:31:45.047Z</time></trkpt><trkpt lat="43.4905205" lon="11.618259"><ele>164.0</ele><time>2026-04-03T13:31:46.047Z</time></trkpt><trkpt lat="43.4903661" lon="11.6182397"><ele>164.0</ele><time>2026-04-03T13:31:47.033Z</time></trkpt><trkpt lat="43.4902109" lon="11.6182483"><ele>165.0</ele><time>2026-04-03T13:31:48.054Z</time></trkpt><trkpt lat="43.4900546" lon="11.6182795"><ele>166.0</ele><time>2026-04-03T13:31:49.037Z</time></trkpt><trkpt lat="43.4899005" lon="11.6183338"><ele>167.0</ele><time>2026-04-03T13:31:50.055Z</time></trkpt><trkpt lat="43.4897576" lon="11.6184105"><ele>167.0</ele><time>2026-04-03T13:31:51.045Z</time></trkpt><trkpt lat="43.4896367" lon="11.6185033"><ele>167.0</ele><time>2026-04-03T13:31:52.037Z</time></trkpt><trkpt lat="43.4895501" lon="11.6186247"><ele>167.0</ele><time>2026-04-03T13:31:53.037Z</time></trkpt><trkpt lat="43.4894955" lon="11.6187542"><ele>167.0</ele><time>2026-04-03T13:31:54.043Z</time></trkpt><trkpt lat="43.489465" lon="11.6188913"><ele>167.25</ele><time>2026-04-03T13:31:55.038Z</time></trkpt><trkpt lat="43.4894558" lon="11.6190391"><ele>167.5</ele><time>2026-04-03T13:31:56.048Z</time></trkpt><trkpt lat="43.4894527" lon="11.6192005"><ele>167.75</ele><time>2026-04-03T13:31:57.044Z</time></trkpt><trkpt lat="43.4894566" lon="11.6193724"><ele>168.0</ele><time>2026-04-03T13:31:58.046Z</time></trkpt><trkpt lat="43.489457" lon="11.6195411"><ele>168.33333333333334</ele><time>2026-04-03T13:31:59.046Z</time></trkpt><trkpt lat="43.4894597" lon="11.6196885"><ele>168.66666666666666</ele><time>2026-04-03T13:32:00.047Z</time></trkpt><trkpt lat="43.4894585" lon="11.6198148"><ele>169.0</ele><time>2026-04-03T13:32:01.042Z</time></trkpt><trkpt lat="43.4894571" lon="11.619921"><ele>169.33333333333331</ele><time>2026-04-03T13:32:02.043Z</time></trkpt><trkpt lat="43.489458" lon="11.6200288"><ele>169.66666666666666</ele><time>2026-04-03T13:32:03.051Z</time></trkpt><trkpt lat="43.489459" lon="11.6201345"><ele>170.0</ele><time>2026-04-03T13:32:04.045Z</time></trkpt><trkpt lat="43.4894584" lon="11.6202411"><ele>170.66666666666666</ele><time>2026-04-03T13:32:05.046Z</time></trkpt><trkpt lat="43.4894596" lon="11.6203568"><ele>171.33333333333331</ele><time>2026-04-03T13:32:06.043Z</time></trkpt><trkpt lat="43.4894622" lon="11.6204768"><ele>172.0</ele><time>2026-04-03T13:32:07.04Z</time></trkpt><trkpt lat="43.4894663" lon="11.6205944"><ele>172.66666666666666</ele><time>2026-04-03T13:32:08.05Z</time></trkpt><trkpt lat="43.4894663" lon="11.6207077"><ele>173.33333333333334</ele><time>2026-04-03T13:32:09.047Z</time></trkpt><trkpt lat="43.4894575" lon="11.620813"><ele>174.0</ele><time>2026-04-03T13:32:10.058Z</time></trkpt><trkpt lat="43.489442" lon="11.6209078"><ele>174.0</ele><time>2026-04-03T13:32:11.048Z</time></trkpt><trkpt lat="43.4894182" lon="11.6210045"><ele>174.0</ele><time>2026-04-03T13:32:12.046Z</time></trkpt><trkpt lat="43.4893839" lon="11.6211045"><ele>174.0</ele><time>2026-04-03T13:32:13.039Z</time></trkpt><trkpt lat="43.4893355" lon="11.6212122"><ele>174.0</ele><time>2026-04-03T13:32:14.043Z</time></trkpt><trkpt lat="43.4892738" lon="11.6213186"><ele>174.0</ele><time>2026-04-03T13:32:15.05Z</time></trkpt><trkpt lat="43.4891952" lon="11.6214245"><ele>177.0</ele><time>2026-04-03T13:32:16.042Z</time></trkpt><trkpt lat="43.4891092" lon="11.6215238"><ele>180.0</ele><time>2026-04-03T13:32:17.047Z</time></trkpt><trkpt lat="43.4890143" lon="11.6216162"><ele>183.0</ele><time>2026-04-03T13:32:18.044Z</time></trkpt><trkpt lat="43.4889148" lon="11.6216925"><ele>186.0</ele><time>2026-04-03T13:32:19.042Z</time></trkpt><trkpt lat="43.4888043" lon="11.62175"><ele>188.25</ele><time>2026-04-03T13:32:20.034Z</time></trkpt><trkpt lat="43.4886857" lon="11.621809"><ele>190.5</ele><time>2026-04-03T13:32:21.048Z</time></trkpt><trkpt lat="43.4885613" lon="11.6218811"><ele>192.75</ele><time>2026-04-03T13:32:22.046Z</time></trkpt><trkpt lat="43.4884311" lon="11.6219522"><ele>195.0</ele><time>2026-04-03T13:32:23.037Z</time></trkpt><trkpt lat="43.4882948" lon="11.6220189"><ele>195.0</ele><time>2026-04-03T13:32:24.048Z</time></trkpt><trkpt lat="43.4881594" lon="11.622088"><ele>195.0</ele><time>2026-04-03T13:32:25.047Z</time></trkpt><trkpt lat="43.4880267" lon="11.6221594"><ele>195.0</ele><time>2026-04-03T13:32:26.046Z</time></trkpt><trkpt lat="43.4879004" lon="11.6222271"><ele>195.0</ele><time>2026-04-03T13:32:27.044Z</time></trkpt><trkpt lat="43.4877867" lon="11.6222807"><ele>193.6</ele><time>2026-04-03T13:32:28.047Z</time></trkpt><trkpt lat="43.4876766" lon="11.6223215"><ele>192.2</ele><time>2026-04-03T13:32:29.038Z</time></trkpt><trkpt lat="43.4875732" lon="11.6223411"><ele>190.8</ele><time>2026-04-03T13:32:30.04Z</time></trkpt><trkpt lat="43.4874676" lon="11.6223373"><ele>189.4</ele><time>2026-04-03T13:32:31.027Z</time></trkpt><trkpt lat="43.4873517" lon="11.6223136"><ele>188.0</ele><time>2026-04-03T13:32:32.035Z</time></trkpt><trkpt lat="43.4872291" lon="11.6222696"><ele>188.0</ele><time>2026-04-03T13:32:33.036Z</time></trkpt><trkpt lat="43.4871068" lon="11.6222226"><ele>188.0</ele><time>2026-04-03T13:32:34.029Z</time></trkpt><trkpt lat="43.4869832" lon="11.6221738"><ele>188.0</ele><time>2026-04-03T13:32:35.036Z</time></trkpt><trkpt lat="43.4868592" lon="11.6221318"><ele>188.0</ele><time>2026-04-03T13:32:36.037Z</time></trkpt><trkpt lat="43.4867285" lon="11.6220868"><ele>189.0</ele><time>2026-04-03T13:32:37.048Z</time></trkpt><trkpt lat="43.4865901" lon="11.6220361"><ele>190.0</ele><time>2026-04-03T13:32:38.037Z</time></trkpt><trkpt lat="43.4864422" lon="11.6219908"><ele>191.0</ele><time>2026-04-03T13:32:39.038Z</time></trkpt><trkpt lat="43.4862969" lon="11.6219463"><ele>192.0</ele><time>2026-04-03T13:32:40.039Z</time></trkpt><trkpt lat="43.4861595" lon="11.6219015"><ele>188.5</ele><time>2026-04-03T13:32:41.034Z</time></trkpt><trkpt lat="43.4860351" lon="11.621842"><ele>185.0</ele><time>2026-04-03T13:32:42.034Z</time></trkpt><trkpt lat="43.4859207" lon="11.6217534"><ele>181.5</ele><time>2026-04-03T13:32:43.031Z</time></trkpt><trkpt lat="43.485811" lon="11.6216299"><ele>178.0</ele><time>2026-04-03T13:32:44.031Z</time></trkpt><trkpt lat="43.4857044" lon="11.6214999"><ele>178.0</ele><time>2026-04-03T13:32:45.025Z</time></trkpt><trkpt lat="43.4855984" lon="11.6213594"><ele>178.0</ele><time>2026-04-03T13:32:46.048Z</time></trkpt><trkpt lat="43.4854957" lon="11.6212242"><ele>178.0</ele><time>2026-04-03T13:32:47.041Z</time></trkpt><trkpt lat="43.4853918" lon="11.6210921"><ele>178.0</ele><time>2026-04-03T13:32:48.038Z</time></trkpt><trkpt lat="43.4852914" lon="11.6209703"><ele>177.5</ele><time>2026-04-03T13:32:49.044Z</time></trkpt><trkpt lat="43.4851932" lon="11.6208473"><ele>177.0</ele><time>2026-04-03T13:32:50.039Z</time></trkpt><trkpt lat="43.4850959" lon="11.620719"><ele>176.5</ele><time>2026-04-03T13:32:51.036Z</time></trkpt><trkpt lat="43.4849977" lon="11.6205971"><ele>176.0</ele><time>2026-04-03T13:32:52.04Z</time></trkpt><trkpt lat="43.4848942" lon="11.6204639"><ele>176.0</ele><time>2026-04-03T13:32:53.028Z</time></trkpt><trkpt lat="43.4847845" lon="11.6203294"><ele>176.0</ele><time>2026-04-03T13:32:54.034Z</time></trkpt><trkpt lat="43.4846767" lon="11.6201951"><ele>176.0</ele><time>2026-04-03T13:32:55.031Z</time></trkpt><trkpt lat="43.4845681" lon="11.6200509"><ele>176.0</ele><time>2026-04-03T13:32:56.041Z</time></trkpt><trkpt lat="43.484453" lon="11.6199096"><ele>176.0</ele><time>2026-04-03T13:32:57.029Z</time></trkpt><trkpt lat="43.4843381" lon="11.6197681"><ele>176.0</ele><time>2026-04-03T13:32:58.034Z</time></trkpt><trkpt lat="43.4842226" lon="11.6196287"><ele>176.0</ele><time>2026-04-03T13:32:59.032Z</time></trkpt><trkpt lat="43.4841142" lon="11.6194952"><ele>175.25</ele><time>2026-04-03T13:33:00.034Z</time></trkpt><trkpt lat="43.48401" lon="11.6193669"><ele>174.5</ele><time>2026-04-03T13:33:01.031Z</time></trkpt><trkpt lat="43.4839075" lon="11.6192383"><ele>173.75</ele><time>2026-04-03T13:33:02.042Z</time></trkpt><trkpt lat="43.4838034" lon="11.6191005"><ele>173.0</ele><time>2026-04-03T13:33:03.036Z</time></trkpt><trkpt lat="43.4836995" lon="11.6189721"><ele>173.0</ele><time>2026-04-03T13:33:04.036Z</time></trkpt><trkpt lat="43.4835956" lon="11.6188545"><ele>173.0</ele><time>2026-04-03T13:33:05.037Z</time></trkpt><trkpt lat="43.4835037" lon="11.6187496"><ele>173.0</ele><time>2026-04-03T13:33:06.038Z</time></trkpt><trkpt lat="43.4834205" lon="11.6186542"><ele>173.0</ele><time>2026-04-03T13:33:07.035Z</time></trkpt><trkpt lat="43.4833466" lon="11.6185676"><ele>174.4</ele><time>2026-04-03T13:33:08.038Z</time></trkpt><trkpt lat="43.4832886" lon="11.618505"><ele>175.8</ele><time>2026-04-03T13:33:09.047Z</time></trkpt><trkpt lat="43.4832338" lon="11.618393"><ele>177.2</ele><time>2026-04-03T13:33:11.032Z</time></trkpt><trkpt lat="43.4832653" lon="11.6182679"><ele>178.6</ele><time>2026-04-03T13:33:13.029Z</time></trkpt><trkpt lat="43.4833954" lon="11.6181849"><ele>180.0</ele><time>2026-04-03T13:33:15.036Z</time></trkpt><trkpt lat="43.4834948" lon="11.6181419"><ele>180.0</ele><time>2026-04-03T13:33:16.041Z</time></trkpt><trkpt lat="43.4836084" lon="11.6181132"><ele>180.0</ele><time>2026-04-03T13:33:17.031Z</time></trkpt><trkpt lat="43.4837337" lon="11.6180967"><ele>180.0</ele><time>2026-04-03T13:33:18.048Z</time></trkpt><trkpt lat="43.4838645" lon="11.6180866"><ele>180.0</ele><time>2026-04-03T13:33:19.043Z</time></trkpt><trkpt lat="43.4839933" lon="11.6180694"><ele>180.0</ele><time>2026-04-03T13:33:20.038Z</time></trkpt><trkpt lat="43.4840962" lon="11.6180576"><ele>180.0</ele><time>2026-04-03T13:33:21.05Z</time></trkpt><trkpt lat="43.4841655" lon="11.6180529"><ele>180.0</ele><time>2026-04-03T13:33:22.041Z</time></trkpt><trkpt lat="43.4842693" lon="11.6180462"><ele>180.0</ele><time>2026-04-03T13:33:24.045Z</time></trkpt><trkpt lat="43.4843781" lon="11.6180239"><ele>180.0</ele><time>2026-04-03T13:33:26.047Z</time></trkpt><trkpt lat="43.4844395" lon="11.6179975"><ele>180.0</ele><time>2026-04-03T13:33:27.037Z</time></trkpt><trkpt lat="43.4845549" lon="11.6179735"><ele>180.0</ele><time>2026-04-03T13:33:29.041Z</time></trkpt><trkpt lat="43.4846707" lon="11.6179763"><ele>180.0</ele><time>2026-04-03T13:33:31.036Z</time></trkpt><trkpt lat="43.4847883" lon="11.6180518"><ele>180.0</ele><time>2026-04-03T13:33:33.045Z</time></trkpt><trkpt lat="43.4848525" lon="11.6181031"><ele>180.0</ele><time>2026-04-03T13:33:34.041Z</time></trkpt><trkpt lat="43.4849117" lon="11.6181595"><ele>180.57142857142856</ele><time>2026-04-03T13:33:35.032Z</time></trkpt><trkpt lat="43.4849658" lon="11.6182132"><ele>181.14285714285717</ele><time>2026-04-03T13:33:36.039Z</time></trkpt><trkpt lat="43.4850214" lon="11.6182733"><ele>181.71428571428572</ele><time>2026-04-03T13:33:37.032Z</time></trkpt><trkpt lat="43.4850748" lon="11.618325"><ele>182.28571428571428</ele><time>2026-04-03T13:33:38.043Z</time></trkpt><trkpt lat="43.4851256" lon="11.6183889"><ele>182.85714285714283</ele><time>2026-04-03T13:33:39.034Z</time></trkpt><trkpt lat="43.4851683" lon="11.6184544"><ele>183.42857142857144</ele><time>2026-04-03T13:33:40.038Z</time></trkpt><trkpt lat="43.4852329" lon="11.6185585"><ele>184.0</ele><time>2026-04-03T13:33:42.051Z</time></trkpt><trkpt lat="43.4852305" lon="11.6184675"><ele>184.0</ele><time>2026-04-03T13:33:52.038Z</time></trkpt><trkpt lat="43.4851772" lon="11.6184003"><ele>184.0</ele><time>2026-04-03T13:33:54.045Z</time></trkpt><trkpt lat="43.4850884" lon="11.6183146"><ele>184.0</ele><time>2026-04-03T13:33:56.041Z</time></trkpt><trkpt lat="43.4850339" lon="11.6182692"><ele>184.0</ele><time>2026-04-03T13:33:57.039Z</time></trkpt><trkpt lat="43.4849748" lon="11.6182128"><ele>184.0</ele><time>2026-04-03T13:33:58.05Z</time></trkpt><trkpt lat="43.4849047" lon="11.618141"><ele>184.0</ele><time>2026-04-03T13:33:59.046Z</time></trkpt><trkpt lat="43.4848244" lon="11.6180814"><ele>184.0</ele><time>2026-04-03T13:34:00.031Z</time></trkpt><trkpt lat="43.4847376" lon="11.6180356"><ele>184.0</ele><time>2026-04-03T13:34:01.043Z</time></trkpt><trkpt lat="43.4846593" lon="11.617995"><ele>184.0</ele><time>2026-04-03T13:34:02.039Z</time></trkpt><trkpt lat="43.4845866" lon="11.6179708"><ele>184.0</ele><time>2026-04-03T13:34:03.034Z</time></trkpt><trkpt lat="43.4845248" lon="11.6179521"><ele>184.0</ele><time>2026-04-03T13:34:04.032Z</time></trkpt><trkpt lat="43.4844587" lon="11.6179609"><ele>184.0</ele><time>2026-04-03T13:34:05.056Z</time></trkpt><trkpt lat="43.4843841" lon="11.6179821"><ele>183.33333333333334</ele><time>2026-04-03T13:34:06.043Z</time></trkpt><trkpt lat="43.4843117" lon="11.6180091"><ele>182.66666666666669</ele><time>2026-04-03T13:34:07.04Z</time></trkpt><trkpt lat="43.4842433" lon="11.6180417"><ele>182.0</ele><time>2026-04-03T13:34:08.038Z</time></trkpt><trkpt lat="43.4841676" lon="11.6180549"><ele>181.33333333333334</ele><time>2026-04-03T13:34:10.041Z</time></trkpt><trkpt lat="43.4841953" lon="11.6179731"><ele>180.66666666666666</ele><time>2026-04-03T13:34:17.032Z</time></trkpt><trkpt lat="43.484254" lon="11.6179097"><ele>180.0</ele><time>2026-04-03T13:34:19.026Z</time></trkpt><trkpt lat="43.4843649" lon="11.6178134"><ele>183.0</ele><time>2026-04-03T13:34:21.035Z</time></trkpt><trkpt lat="43.4844417" lon="11.6177897"><ele>186.0</ele><time>2026-04-03T13:34:22.047Z</time></trkpt><trkpt lat="43.4845219" lon="11.6177876"><ele>189.0</ele><time>2026-04-03T13:34:23.04Z</time></trkpt><trkpt lat="43.4845871" lon="11.6177859"><ele>192.0</ele><time>2026-04-03T13:34:24.042Z</time></trkpt><trkpt lat="43.4846999" lon="11.6177405"><ele>195.0</ele><time>2026-04-03T13:34:26.049Z</time></trkpt><trkpt lat="43.4847887" lon="11.6176397"><ele>195.0</ele><time>2026-04-03T13:34:28.044Z</time></trkpt><trkpt lat="43.4848145" lon="11.6175599"><ele>195.0</ele><time>2026-04-03T13:34:29.033Z</time></trkpt><trkpt lat="43.4848304" lon="11.6174748"><ele>195.0</ele><time>2026-04-03T13:34:30.046Z</time></trkpt><trkpt lat="43.4848469" lon="11.6173835"><ele>195.0</ele><time>2026-04-03T13:34:31.026Z</time></trkpt><trkpt lat="43.484864" lon="11.6172873"><ele>195.0</ele><time>2026-04-03T13:34:32.038Z</time></trkpt><trkpt lat="43.4848804" lon="11.6171839"><ele>195.0</ele><time>2026-04-03T13:34:33.038Z</time></trkpt><trkpt lat="43.4848986" lon="11.6170704"><ele>195.0</ele><time>2026-04-03T13:34:34.039Z</time></trkpt><trkpt lat="43.4849226" lon="11.6169549"><ele>197.8</ele><time>2026-04-03T13:34:35.042Z</time></trkpt><trkpt lat="43.4849491" lon="11.6168308"><ele>200.6</ele><time>2026-04-03T13:34:36.04Z</time></trkpt><trkpt lat="43.4849735" lon="11.6167065"><ele>203.39999999999998</ele><time>2026-04-03T13:34:37.028Z</time></trkpt><trkpt lat="43.4849965" lon="11.6165888"><ele>206.2</ele><time>2026-04-03T13:34:38.056Z</time></trkpt><trkpt lat="43.4850127" lon="11.6164893"><ele>209.0</ele><time>2026-04-03T13:34:39.028Z</time></trkpt><trkpt lat="43.4850158" lon="11.6163458"><ele>209.0</ele><time>2026-04-03T13:34:41.04Z</time></trkpt><trkpt lat="43.4849825" lon="11.6162649"><ele>209.0</ele><time>2026-04-03T13:34:43.035Z</time></trkpt><trkpt lat="43.4849052" lon="11.616207"><ele>209.0</ele><time>2026-04-03T13:34:45.044Z</time></trkpt><trkpt lat="43.4847915" lon="11.6161423"><ele>209.0</ele><time>2026-04-03T13:34:47.032Z</time></trkpt><trkpt lat="43.4846662" lon="11.6160859"><ele>209.0</ele><time>2026-04-03T13:34:49.038Z</time></trkpt><trkpt lat="43.4845952" lon="11.6160607"><ele>211.39999999999998</ele><time>2026-04-03T13:34:50.049Z</time></trkpt><trkpt lat="43.4845288" lon="11.6160329"><ele>213.8</ele><time>2026-04-03T13:34:51.039Z</time></trkpt><trkpt lat="43.4844658" lon="11.6160105"><ele>216.20000000000002</ele><time>2026-04-03T13:34:52.042Z</time></trkpt><trkpt lat="43.4843581" lon="11.6159468"><ele>218.60000000000002</ele><time>2026-04-03T13:34:54.035Z</time></trkpt><trkpt lat="43.4842701" lon="11.615844"><ele>221.0</ele><time>2026-04-03T13:34:56.054Z</time></trkpt><trkpt lat="43.4842151" lon="11.615726"><ele>221.00000000000003</ele><time>2026-04-03T13:34:58.058Z</time></trkpt><trkpt lat="43.48415" lon="11.6156925"><ele>221.0</ele><time>2026-04-03T13:35:00.043Z</time></trkpt><trkpt lat="43.4841273" lon="11.6158114"><ele>221.0</ele><time>2026-04-03T13:35:03.04Z</time></trkpt><trkpt lat="43.4841912" lon="11.615882"><ele>221.0</ele><time>2026-04-03T13:35:05.041Z</time></trkpt><trkpt lat="43.4842704" lon="11.6159486"><ele>221.00000000000003</ele><time>2026-04-03T13:35:07.035Z</time></trkpt><trkpt lat="43.4843667" lon="11.6160365"><ele>221.0</ele><time>2026-04-03T13:35:09.041Z</time></trkpt><trkpt lat="43.4844232" lon="11.6160754"><ele>221.00000000000003</ele><time>2026-04-03T13:35:10.039Z</time></trkpt><trkpt lat="43.484487" lon="11.6161047"><ele>221.0</ele><time>2026-04-03T13:35:11.042Z</time></trkpt><trkpt lat="43.4845545" lon="11.6161278"><ele>221.0</ele><time>2026-04-03T13:35:12.037Z</time></trkpt><trkpt lat="43.4846231" lon="11.6161494"><ele>221.0</ele><time>2026-04-03T13:35:13.052Z</time></trkpt><trkpt lat="43.4846927" lon="11.6161726"><ele>221.0</ele><time>2026-04-03T13:35:14.051Z</time></trkpt><trkpt lat="43.4847574" lon="11.6161978"><ele>221.00000000000003</ele><time>2026-04-03T13:35:15.045Z</time></trkpt><trkpt lat="43.4848492" lon="11.6162434"><ele>221.0</ele><time>2026-04-03T13:35:17.033Z</time></trkpt><trkpt lat="43.4849148" lon="11.6162869"><ele>220.83333333333334</ele><time>2026-04-03T13:35:19.047Z</time></trkpt><trkpt lat="43.4849737" lon="11.6163416"><ele>220.66666666666669</ele><time>2026-04-03T13:35:22.039Z</time></trkpt><trkpt lat="43.4850249" lon="11.6162445"><ele>220.5</ele><time>2026-04-03T13:35:27.038Z</time></trkpt><trkpt lat="43.4850401" lon="11.6161114"><ele>220.33333333333331</ele><time>2026-04-03T13:35:30.035Z</time></trkpt><trkpt lat="43.4850644" lon="11.6160047"><ele>220.16666666666666</ele><time>2026-04-03T13:35:32.033Z</time></trkpt><trkpt lat="43.4850825" lon="11.6158913"><ele>220.0</ele><time>2026-04-03T13:35:34.039Z</time></trkpt><trkpt lat="43.4850969" lon="11.6157935"><ele>219.99999999999997</ele><time>2026-04-03T13:35:36.038Z</time></trkpt><trkpt lat="43.4850689" lon="11.6156969"><ele>220.0</ele><time>2026-04-03T13:35:38.033Z</time></trkpt><trkpt lat="43.4850138" lon="11.6156037"><ele>220.0</ele><time>2026-04-03T13:35:41.049Z</time></trkpt><trkpt lat="43.484944" lon="11.6155525"><ele>220.0</ele><time>2026-04-03T13:35:44.044Z</time></trkpt><trkpt lat="43.4848793" lon="11.6155206"><ele>219.99999999999997</ele><time>2026-04-03T13:35:46.052Z</time></trkpt><trkpt lat="43.484807" lon="11.6155076"><ele>220.0</ele><time>2026-04-03T13:35:48.049Z</time></trkpt><trkpt lat="43.484745" lon="11.6154645"><ele>219.99999999999997</ele><time>2026-04-03T13:35:50.038Z</time></trkpt><trkpt lat="43.4846786" lon="11.6154076"><ele>220.0</ele><time>2026-04-03T13:35:52.048Z</time></trkpt><trkpt lat="43.484608" lon="11.6153563"><ele>220.0</ele><time>2026-04-03T13:35:54.042Z</time></trkpt><trkpt lat="43.4845516" lon="11.6153075"><ele>220.0</ele><time>2026-04-03T13:35:56.038Z</time></trkpt><trkpt lat="43.4844826" lon="11.6152243"><ele>219.99999999999997</ele><time>2026-04-03T13:35:58.039Z</time></trkpt><trkpt lat="43.4843976" lon="11.6151266"><ele>220.0</ele><time>2026-04-03T13:36:00.047Z</time></trkpt><trkpt lat="43.4843421" lon="11.6150798"><ele>221.0</ele><time>2026-04-03T13:36:01.046Z</time></trkpt><trkpt lat="43.4842839" lon="11.6150378"><ele>222.0</ele><time>2026-04-03T13:36:02.042Z</time></trkpt><trkpt lat="43.4842261" lon="11.6149923"><ele>223.0</ele><time>2026-04-03T13:36:03.033Z</time></trkpt><trkpt lat="43.4841665" lon="11.6149447"><ele>224.0</ele><time>2026-04-03T13:36:04.042Z</time></trkpt><trkpt lat="43.484106" lon="11.6148925"><ele>225.00000000000003</ele><time>2026-04-03T13:36:05.037Z</time></trkpt><trkpt lat="43.4840418" lon="11.6148425"><ele>226.0</ele><time>2026-04-03T13:36:06.067Z</time></trkpt><trkpt lat="43.4839788" lon="11.6147917"><ele>227.0</ele><time>2026-04-03T13:36:07.048Z</time></trkpt><trkpt lat="43.4839097" lon="11.6147411"><ele>227.00000000000003</ele><time>2026-04-03T13:36:08.051Z</time></trkpt><trkpt lat="43.4838342" lon="11.6146901"><ele>227.0</ele><time>2026-04-03T13:36:09.047Z</time></trkpt><trkpt lat="43.4837591" lon="11.6146445"><ele>227.0</ele><time>2026-04-03T13:36:10.063Z</time></trkpt><trkpt lat="43.4836784" lon="11.6145939"><ele>227.0</ele><time>2026-04-03T13:36:11.043Z</time></trkpt><trkpt lat="43.483595" lon="11.6145513"><ele>227.00000000000003</ele><time>2026-04-03T13:36:12.051Z</time></trkpt><trkpt lat="43.4835141" lon="11.6145026"><ele>227.0</ele><time>2026-04-03T13:36:13.04Z</time></trkpt><trkpt lat="43.483439" lon="11.61445"><ele>228.16666666666669</ele><time>2026-04-03T13:36:14.053Z</time></trkpt><trkpt lat="43.483354" lon="11.6144086"><ele>229.33333333333334</ele><time>2026-04-03T13:36:15.04Z</time></trkpt><trkpt lat="43.4832653" lon="11.6143631"><ele>230.5</ele><time>2026-04-03T13:36:16.047Z</time></trkpt><trkpt lat="43.4831862" lon="11.6143034"><ele>231.66666666666669</ele><time>2026-04-03T13:36:17.042Z</time></trkpt><trkpt lat="43.4831212" lon="11.6142267"><ele>232.83333333333334</ele><time>2026-04-03T13:36:18.049Z</time></trkpt><trkpt lat="43.4830731" lon="11.6141473"><ele>234.0</ele><time>2026-04-03T13:36:19.039Z</time></trkpt><trkpt lat="43.4829857" lon="11.6140457"><ele>236.2</ele><time>2026-04-03T13:36:21.038Z</time></trkpt><trkpt lat="43.482864" lon="11.6140639"><ele>238.39999999999998</ele><time>2026-04-03T13:36:23.039Z</time></trkpt><trkpt lat="43.48279" lon="11.6140968"><ele>240.6</ele><time>2026-04-03T13:36:24.044Z</time></trkpt><trkpt lat="43.4827118" lon="11.6141347"><ele>242.8</ele><time>2026-04-03T13:36:25.029Z</time></trkpt><trkpt lat="43.4826232" lon="11.6141667"><ele>245.0</ele><time>2026-04-03T13:36:26.046Z</time></trkpt><trkpt lat="43.482537" lon="11.614181"><ele>245.0</ele><time>2026-04-03T13:36:27.033Z</time></trkpt><trkpt lat="43.4824547" lon="11.6141763"><ele>245.0</ele><time>2026-04-03T13:36:28.06Z</time></trkpt><trkpt lat="43.4823743" lon="11.614171"><ele>245.0</ele><time>2026-04-03T13:36:29.032Z</time></trkpt><trkpt lat="43.4823032" lon="11.61416"><ele>245.0</ele><time>2026-04-03T13:36:30.043Z</time></trkpt><trkpt lat="43.4822395" lon="11.6141278"><ele>245.0</ele><time>2026-04-03T13:36:31.042Z</time></trkpt><trkpt lat="43.4821774" lon="11.6140796"><ele>245.0</ele><time>2026-04-03T13:36:32.04Z</time></trkpt><trkpt lat="43.482116" lon="11.6140271"><ele>245.0</ele><time>2026-04-03T13:36:33.04Z</time></trkpt><trkpt lat="43.4820467" lon="11.6139759"><ele>245.33333333333334</ele><time>2026-04-03T13:36:34.038Z</time></trkpt><trkpt lat="43.4819831" lon="11.613912"><ele>245.66666666666669</ele><time>2026-04-03T13:36:35.036Z</time></trkpt><trkpt lat="43.4819208" lon="11.6138422"><ele>246.0</ele><time>2026-04-03T13:36:36.039Z</time></trkpt><trkpt lat="43.481853" lon="11.6137811"><ele>246.33333333333331</ele><time>2026-04-03T13:36:37.033Z</time></trkpt><trkpt lat="43.4817865" lon="11.6137193"><ele>246.66666666666666</ele><time>2026-04-03T13:36:38.038Z</time></trkpt><trkpt lat="43.4817162" lon="11.6136507"><ele>247.0</ele><time>2026-04-03T13:36:39.044Z</time></trkpt><trkpt lat="43.481636" lon="11.6135737"><ele>247.2</ele><time>2026-04-03T13:36:40.038Z</time></trkpt><trkpt lat="43.4815587" lon="11.6134963"><ele>247.39999999999998</ele><time>2026-04-03T13:36:41.037Z</time></trkpt><trkpt lat="43.4814762" lon="11.6134139"><ele>247.60000000000002</ele><time>2026-04-03T13:36:42.061Z</time></trkpt><trkpt lat="43.4813905" lon="11.6133299"><ele>247.8</ele><time>2026-04-03T13:36:43.044Z</time></trkpt><trkpt lat="43.4812997" lon="11.6132501"><ele>248.0</ele><time>2026-04-03T13:36:44.05Z</time></trkpt><trkpt lat="43.4812149" lon="11.6131709"><ele>247.4</ele><time>2026-04-03T13:36:45.047Z</time></trkpt><trkpt lat="43.4811334" lon="11.6130931"><ele>246.8</ele><time>2026-04-03T13:36:46.047Z</time></trkpt><trkpt lat="43.481051" lon="11.6130118"><ele>246.2</ele><time>2026-04-03T13:36:47.048Z</time></trkpt><trkpt lat="43.4809738" lon="11.61293"><ele>245.6</ele><time>2026-04-03T13:36:48.048Z</time></trkpt><trkpt lat="43.4809026" lon="11.6128477"><ele>245.0</ele><time>2026-04-03T13:36:49.046Z</time></trkpt><trkpt lat="43.4808197" lon="11.612774"><ele>245.0</ele><time>2026-04-03T13:36:50.04Z</time></trkpt><trkpt lat="43.4807163" lon="11.6127103"><ele>245.0</ele><time>2026-04-03T13:36:51.037Z</time></trkpt><trkpt lat="43.4806097" lon="11.6126666"><ele>245.0</ele><time>2026-04-03T13:36:52.045Z</time></trkpt><trkpt lat="43.4804982" lon="11.6126294"><ele>245.0</ele><time>2026-04-03T13:36:53.041Z</time></trkpt><trkpt lat="43.4803949" lon="11.6126088"><ele>245.0</ele><time>2026-04-03T13:36:54.038Z</time></trkpt><trkpt lat="43.4802977" lon="11.6126244"><ele>244.6</ele><time>2026-04-03T13:36:55.036Z</time></trkpt><trkpt lat="43.4801967" lon="11.6126688"><ele>244.2</ele><time>2026-04-03T13:36:56.04Z</time></trkpt><trkpt lat="43.4800995" lon="11.6127453"><ele>243.8</ele><time>2026-04-03T13:36:57.044Z</time></trkpt><trkpt lat="43.4800127" lon="11.612828"><ele>243.4</ele><time>2026-04-03T13:36:58.042Z</time></trkpt><trkpt lat="43.4799133" lon="11.6129114"><ele>243.0</ele><time>2026-04-03T13:36:59.042Z</time></trkpt><trkpt lat="43.479813" lon="11.6129785"><ele>243.0</ele><time>2026-04-03T13:37:00.042Z</time></trkpt><trkpt lat="43.4797207" lon="11.6130259"><ele>243.0</ele><time>2026-04-03T13:37:01.043Z</time></trkpt><trkpt lat="43.4796434" lon="11.6130631"><ele>243.0</ele><time>2026-04-03T13:37:02.041Z</time></trkpt><trkpt lat="43.4795729" lon="11.6131006"><ele>243.0</ele><time>2026-04-03T13:37:03.047Z</time></trkpt><trkpt lat="43.4795109" lon="11.613126"><ele>243.0</ele><time>2026-04-03T13:37:04.04Z</time></trkpt><trkpt lat="43.4793921" lon="11.6130802"><ele>243.0</ele><time>2026-04-03T13:37:06.039Z</time></trkpt><trkpt lat="43.4793428" lon="11.6129915"><ele>243.5</ele><time>2026-04-03T13:37:07.043Z</time></trkpt><trkpt lat="43.4792965" lon="11.6129017"><ele>244.0</ele><time>2026-04-03T13:37:08.041Z</time></trkpt><trkpt lat="43.4792405" lon="11.6128414"><ele>244.5</ele><time>2026-04-03T13:37:09.048Z</time></trkpt><trkpt lat="43.4791558" lon="11.6128564"><ele>245.0</ele><time>2026-04-03T13:37:10.05Z</time></trkpt><trkpt lat="43.4790672" lon="11.6129143"><ele>245.5</ele><time>2026-04-03T13:37:11.051Z</time></trkpt><trkpt lat="43.478988" lon="11.6129216"><ele>246.0</ele><time>2026-04-03T13:37:12.043Z</time></trkpt><trkpt lat="43.4789205" lon="11.6128637"><ele>244.66666666666666</ele><time>2026-04-03T13:37:13.052Z</time></trkpt><trkpt lat="43.4788885" lon="11.6127829"><ele>243.33333333333331</ele><time>2026-04-03T13:37:14.045Z</time></trkpt><trkpt lat="43.4788895" lon="11.6126922"><ele>242.0</ele><time>2026-04-03T13:37:16.029Z</time></trkpt><trkpt lat="43.4788284" lon="11.6126202"><ele>240.66666666666666</ele><time>2026-04-03T13:37:21.047Z</time></trkpt><trkpt lat="43.4787574" lon="11.612533"><ele>239.33333333333331</ele><time>2026-04-03T13:37:23.044Z</time></trkpt><trkpt lat="43.4786767" lon="11.6124092"><ele>238.0</ele><time>2026-04-03T13:37:25.036Z</time></trkpt><trkpt lat="43.4786264" lon="11.6123192"><ele>236.8</ele><time>2026-04-03T13:37:26.037Z</time></trkpt><trkpt lat="43.4785685" lon="11.6122106"><ele>235.60000000000002</ele><time>2026-04-03T13:37:27.037Z</time></trkpt><trkpt lat="43.4785058" lon="11.6121006"><ele>234.39999999999998</ele><time>2026-04-03T13:37:28.045Z</time></trkpt><trkpt lat="43.4784427" lon="11.6119738"><ele>233.2</ele><time>2026-04-03T13:37:29.027Z</time></trkpt><trkpt lat="43.4783812" lon="11.6118346"><ele>232.0</ele><time>2026-04-03T13:37:30.036Z</time></trkpt><trkpt lat="43.4783291" lon="11.6116867"><ele>230.83333333333331</ele><time>2026-04-03T13:37:31.039Z</time></trkpt><trkpt lat="43.4782816" lon="11.6115578"><ele>229.66666666666666</ele><time>2026-04-03T13:37:32.031Z</time></trkpt><trkpt lat="43.4782275" lon="11.6114454"><ele>228.5</ele><time>2026-04-03T13:37:33.03Z</time></trkpt><trkpt lat="43.4781708" lon="11.611377"><ele>227.33333333333331</ele><time>2026-04-03T13:37:34.031Z</time></trkpt><trkpt lat="43.4781006" lon="11.6113465"><ele>226.16666666666666</ele><time>2026-04-03T13:37:35.05Z</time></trkpt><trkpt lat="43.4780353" lon="11.6113347"><ele>225.0</ele><time>2026-04-03T13:37:36.041Z</time></trkpt><trkpt lat="43.4779663" lon="11.6113032"><ele>225.2</ele><time>2026-04-03T13:37:38.033Z</time></trkpt><trkpt lat="43.4779245" lon="11.611212"><ele>225.4</ele><time>2026-04-03T13:37:45.036Z</time></trkpt><trkpt lat="43.4779131" lon="11.61106"><ele>225.60000000000002</ele><time>2026-04-03T13:37:47.03Z</time></trkpt><trkpt lat="43.4779188" lon="11.6109498"><ele>225.8</ele><time>2026-04-03T13:37:48.037Z</time></trkpt><trkpt lat="43.4779243" lon="11.610826"><ele>226.0</ele><time>2026-04-03T13:37:49.032Z</time></trkpt><trkpt lat="43.4779204" lon="11.6106841"><ele>227.25</ele><time>2026-04-03T13:37:50.047Z</time></trkpt><trkpt lat="43.4779141" lon="11.6105393"><ele>228.5</ele><time>2026-04-03T13:37:51.035Z</time></trkpt><trkpt lat="43.4779051" lon="11.6103825"><ele>229.75</ele><time>2026-04-03T13:37:52.036Z</time></trkpt><trkpt lat="43.4778987" lon="11.6102222"><ele>231.0</ele><time>2026-04-03T13:37:53.039Z</time></trkpt><trkpt lat="43.4778933" lon="11.6100578"><ele>232.0</ele><time>2026-04-03T13:37:54.039Z</time></trkpt><trkpt lat="43.4778884" lon="11.6098899"><ele>233.0</ele><time>2026-04-03T13:37:55.042Z</time></trkpt><trkpt lat="43.4778786" lon="11.60972"><ele>234.0</ele><time>2026-04-03T13:37:56.034Z</time></trkpt><trkpt lat="43.4778683" lon="11.6095404"><ele>235.0</ele><time>2026-04-03T13:37:57.044Z</time></trkpt><trkpt lat="43.4778587" lon="11.6093609"><ele>235.5</ele><time>2026-04-03T13:37:58.03Z</time></trkpt><trkpt lat="43.4778442" lon="11.6091801"><ele>236.0</ele><time>2026-04-03T13:37:59.038Z</time></trkpt><trkpt lat="43.4778189" lon="11.6090032"><ele>236.5</ele><time>2026-04-03T13:38:00.033Z</time></trkpt><trkpt lat="43.4777883" lon="11.6088258"><ele>237.0</ele><time>2026-04-03T13:38:01.026Z</time></trkpt><trkpt lat="43.4777567" lon="11.6086549"><ele>237.75</ele><time>2026-04-03T13:38:02.038Z</time></trkpt><trkpt lat="43.4777247" lon="11.6084944"><ele>238.5</ele><time>2026-04-03T13:38:03.044Z</time></trkpt><trkpt lat="43.4776892" lon="11.608343"><ele>239.25</ele><time>2026-04-03T13:38:04.048Z</time></trkpt><trkpt lat="43.4776435" lon="11.6081957"><ele>240.0</ele><time>2026-04-03T13:38:05.038Z</time></trkpt><trkpt lat="43.4775882" lon="11.6080454"><ele>240.0</ele><time>2026-04-03T13:38:06.055Z</time></trkpt><trkpt lat="43.4775257" lon="11.6078996"><ele>240.0</ele><time>2026-04-03T13:38:07.04Z</time></trkpt><trkpt lat="43.4774578" lon="11.6077555"><ele>240.0</ele><time>2026-04-03T13:38:08.052Z</time></trkpt><trkpt lat="43.4773901" lon="11.6076001"><ele>240.0</ele><time>2026-04-03T13:38:09.059Z</time></trkpt><trkpt lat="43.4773192" lon="11.6074322"><ele>241.5</ele><time>2026-04-03T13:38:10.05Z</time></trkpt><trkpt lat="43.4772422" lon="11.6072707"><ele>243.0</ele><time>2026-04-03T13:38:11.044Z</time></trkpt><trkpt lat="43.4771664" lon="11.6071085"><ele>244.5</ele><time>2026-04-03T13:38:12.048Z</time></trkpt><trkpt lat="43.4770884" lon="11.6069319"><ele>246.0</ele><time>2026-04-03T13:38:13.046Z</time></trkpt><trkpt lat="43.4770052" lon="11.606748"><ele>247.33333333333331</ele><time>2026-04-03T13:38:14.043Z</time></trkpt><trkpt lat="43.4769194" lon="11.6065636"><ele>248.66666666666666</ele><time>2026-04-03T13:38:15.038Z</time></trkpt><trkpt lat="43.4768307" lon="11.6063715"><ele>250.0</ele><time>2026-04-03T13:38:16.036Z</time></trkpt><trkpt lat="43.47674" lon="11.6061773"><ele>251.0</ele><time>2026-04-03T13:38:17.018Z</time></trkpt><trkpt lat="43.4766491" lon="11.6059791"><ele>252.0</ele><time>2026-04-03T13:38:18.029Z</time></trkpt><trkpt lat="43.4765591" lon="11.6057809"><ele>253.0</ele><time>2026-04-03T13:38:19.039Z</time></trkpt><trkpt lat="43.4764717" lon="11.6055733"><ele>253.0</ele><time>2026-04-03T13:38:20.049Z</time></trkpt><trkpt lat="43.4763848" lon="11.6053658"><ele>253.0</ele><time>2026-04-03T13:38:21.042Z</time></trkpt><trkpt lat="43.4762974" lon="11.6051567"><ele>253.0</ele><time>2026-04-03T13:38:22.037Z</time></trkpt><trkpt lat="43.476209" lon="11.6049493"><ele>253.0</ele><time>2026-04-03T13:38:23.034Z</time></trkpt><trkpt lat="43.4761218" lon="11.6047461"><ele>253.0</ele><time>2026-04-03T13:38:24.046Z</time></trkpt><trkpt lat="43.4760408" lon="11.6045528"><ele>253.0</ele><time>2026-04-03T13:38:25.048Z</time></trkpt><trkpt lat="43.4759723" lon="11.6043754"><ele>252.99999999999997</ele><time>2026-04-03T13:38:26.042Z</time></trkpt><trkpt lat="43.4759204" lon="11.6042232"><ele>253.0</ele><time>2026-04-03T13:38:27.047Z</time></trkpt><trkpt lat="43.4758832" lon="11.6041006"><ele>253.0</ele><time>2026-04-03T13:38:28.04Z</time></trkpt><trkpt lat="43.4758524" lon="11.6040059"><ele>253.0</ele><time>2026-04-03T13:38:29.046Z</time></trkpt><trkpt lat="43.4758219" lon="11.6039192"><ele>252.99999999999997</ele><time>2026-04-03T13:38:30.053Z</time></trkpt><trkpt lat="43.4757727" lon="11.6038324"><ele>253.0</ele><time>2026-04-03T13:38:31.042Z</time></trkpt><trkpt lat="43.4757054" lon="11.6037496"><ele>253.2</ele><time>2026-04-03T13:38:32.041Z</time></trkpt><trkpt lat="43.4756404" lon="11.603656"><ele>253.4</ele><time>2026-04-03T13:38:33.024Z</time></trkpt><trkpt lat="43.4755727" lon="11.6035532"><ele>253.59999999999997</ele><time>2026-04-03T13:38:34.042Z</time></trkpt><trkpt lat="43.4755052" lon="11.6034749"><ele>253.79999999999998</ele><time>2026-04-03T13:38:35.038Z</time></trkpt><trkpt lat="43.4754365" lon="11.6034083"><ele>254.0</ele><time>2026-04-03T13:38:36.05Z</time></trkpt><trkpt lat="43.4753644" lon="11.6033337"><ele>254.0</ele><time>2026-04-03T13:38:37.044Z</time></trkpt><trkpt lat="43.475291" lon="11.6032398"><ele>253.99999999999997</ele><time>2026-04-03T13:38:38.052Z</time></trkpt><trkpt lat="43.4752248" lon="11.6031223"><ele>253.99999999999997</ele><time>2026-04-03T13:38:39.036Z</time></trkpt><trkpt lat="43.4751717" lon="11.602994"><ele>254.0</ele><time>2026-04-03T13:38:40.036Z</time></trkpt><trkpt lat="43.4751209" lon="11.6028832"><ele>254.0</ele><time>2026-04-03T13:38:41.038Z</time></trkpt><trkpt lat="43.4750465" lon="11.602817"><ele>254.0</ele><time>2026-04-03T13:38:42.037Z</time></trkpt><trkpt lat="43.4749517" lon="11.6027956"><ele>253.99999999999997</ele><time>2026-04-03T13:38:43.042Z</time></trkpt><trkpt lat="43.4748478" lon="11.6027799"><ele>253.99999999999997</ele><time>2026-04-03T13:38:44.043Z</time></trkpt><trkpt lat="43.4747553" lon="11.6027673"><ele>254.0</ele><time>2026-04-03T13:38:45.033Z</time></trkpt><trkpt lat="43.4746734" lon="11.6027636"><ele>254.0</ele><time>2026-04-03T13:38:46.038Z</time></trkpt><trkpt lat="43.4745938" lon="11.6027961"><ele>253.83333333333334</ele><time>2026-04-03T13:38:47.036Z</time></trkpt><trkpt lat="43.4745313" lon="11.602862"><ele>253.66666666666669</ele><time>2026-04-03T13:38:48.036Z</time></trkpt><trkpt lat="43.4744702" lon="11.6029506"><ele>253.5</ele><time>2026-04-03T13:38:49.032Z</time></trkpt><trkpt lat="43.474408" lon="11.6030475"><ele>253.33333333333331</ele><time>2026-04-03T13:38:50.035Z</time></trkpt><trkpt lat="43.4743466" lon="11.603141"><ele>253.16666666666666</ele><time>2026-04-03T13:38:51.047Z</time></trkpt><trkpt lat="43.4742886" lon="11.6032416"><ele>253.0</ele><time>2026-04-03T13:38:52.041Z</time></trkpt><trkpt lat="43.4742236" lon="11.6033452"><ele>253.0</ele><time>2026-04-03T13:38:53.039Z</time></trkpt><trkpt lat="43.4741556" lon="11.6034409"><ele>253.0</ele><time>2026-04-03T13:38:54.041Z</time></trkpt><trkpt lat="43.4740874" lon="11.6035395"><ele>253.0</ele><time>2026-04-03T13:38:55.042Z</time></trkpt><trkpt lat="43.4740224" lon="11.6036454"><ele>253.0</ele><time>2026-04-03T13:38:56.05Z</time></trkpt><trkpt lat="43.4739587" lon="11.6037441"><ele>253.0</ele><time>2026-04-03T13:38:57.045Z</time></trkpt><trkpt lat="43.4738816" lon="11.6038117"><ele>252.0</ele><time>2026-04-03T13:38:58.046Z</time></trkpt><trkpt lat="43.4737893" lon="11.6038493"><ele>251.0</ele><time>2026-04-03T13:38:59.044Z</time></trkpt><trkpt lat="43.473697" lon="11.6038943"><ele>250.0</ele><time>2026-04-03T13:39:00.04Z</time></trkpt><trkpt lat="43.4736173" lon="11.6039433"><ele>249.0</ele><time>2026-04-03T13:39:01.043Z</time></trkpt><trkpt lat="43.4735445" lon="11.6040268"><ele>248.0</ele><time>2026-04-03T13:39:02.05Z</time></trkpt><trkpt lat="43.4734745" lon="11.6041106"><ele>248.0</ele><time>2026-04-03T13:39:03.026Z</time></trkpt><trkpt lat="43.4734068" lon="11.6042012"><ele>248.0</ele><time>2026-04-03T13:39:04.043Z</time></trkpt><trkpt lat="43.4733571" lon="11.6043017"><ele>248.0</ele><time>2026-04-03T13:39:05.047Z</time></trkpt><trkpt lat="43.4733362" lon="11.6044201"><ele>248.0</ele><time>2026-04-03T13:39:06.056Z</time></trkpt><trkpt lat="43.4733336" lon="11.6045618"><ele>248.0</ele><time>2026-04-03T13:39:07.047Z</time></trkpt><trkpt lat="43.4733343" lon="11.6047167"><ele>247.5</ele><time>2026-04-03T13:39:08.041Z</time></trkpt><trkpt lat="43.4733288" lon="11.6048803"><ele>247.0</ele><time>2026-04-03T13:39:09.04Z</time></trkpt><trkpt lat="43.4733263" lon="11.6050482"><ele>246.5</ele><time>2026-04-03T13:39:10.051Z</time></trkpt><trkpt lat="43.4733287" lon="11.6052106"><ele>246.0</ele><time>2026-04-03T13:39:11.035Z</time></trkpt><trkpt lat="43.4733236" lon="11.6053766"><ele>245.75</ele><time>2026-04-03T13:39:12.044Z</time></trkpt><trkpt lat="43.4733173" lon="11.6055441"><ele>245.5</ele><time>2026-04-03T13:39:13.045Z</time></trkpt><trkpt lat="43.4733178" lon="11.6057122"><ele>245.25</ele><time>2026-04-03T13:39:14.054Z</time></trkpt><trkpt lat="43.4733133" lon="11.6058731"><ele>245.0</ele><time>2026-04-03T13:39:15.055Z</time></trkpt><trkpt lat="43.4733109" lon="11.6060303"><ele>245.4</ele><time>2026-04-03T13:39:16.064Z</time></trkpt><trkpt lat="43.4733093" lon="11.6061855"><ele>245.8</ele><time>2026-04-03T13:39:17.034Z</time></trkpt><trkpt lat="43.4733112" lon="11.6063328"><ele>246.2</ele><time>2026-04-03T13:39:18.044Z</time></trkpt><trkpt lat="43.4733119" lon="11.606469"><ele>246.6</ele><time>2026-04-03T13:39:19.039Z</time></trkpt><trkpt lat="43.4733092" lon="11.6065968"><ele>247.0</ele><time>2026-04-03T13:39:20.038Z</time></trkpt><trkpt lat="43.4733006" lon="11.6067094"><ele>246.99999999999997</ele><time>2026-04-03T13:39:21.046Z</time></trkpt><trkpt lat="43.4732887" lon="11.6068165"><ele>247.0</ele><time>2026-04-03T13:39:22.032Z</time></trkpt><trkpt lat="43.4732773" lon="11.6069236"><ele>247.0</ele><time>2026-04-03T13:39:23.033Z</time></trkpt><trkpt lat="43.4732662" lon="11.6070288"><ele>247.0</ele><time>2026-04-03T13:39:24.045Z</time></trkpt><trkpt lat="43.473256" lon="11.60713"><ele>246.99999999999997</ele><time>2026-04-03T13:39:25.046Z</time></trkpt><trkpt lat="43.4732451" lon="11.6072339"><ele>247.0</ele><time>2026-04-03T13:39:26.047Z</time></trkpt><trkpt lat="43.4732478" lon="11.607337"><ele>247.0</ele><time>2026-04-03T13:39:27.031Z</time></trkpt><trkpt lat="43.473265" lon="11.6074366"><ele>247.0</ele><time>2026-04-03T13:39:28.043Z</time></trkpt><trkpt lat="43.473286" lon="11.6075313"><ele>247.0</ele><time>2026-04-03T13:39:29.039Z</time></trkpt><trkpt lat="43.4733109" lon="11.6076901"><ele>247.0</ele><time>2026-04-03T13:39:31.032Z</time></trkpt><trkpt lat="43.4732774" lon="11.6078398"><ele>247.0</ele><time>2026-04-03T13:39:33.035Z</time></trkpt><trkpt lat="43.4732335" lon="11.6079247"><ele>247.0</ele><time>2026-04-03T13:39:34.051Z</time></trkpt><trkpt lat="43.473191" lon="11.6080115"><ele>247.0</ele><time>2026-04-03T13:39:35.048Z</time></trkpt><trkpt lat="43.4731463" lon="11.6081378"><ele>247.0</ele><time>2026-04-03T13:39:36.053Z</time></trkpt><trkpt lat="43.4731059" lon="11.6082779"><ele>247.0</ele><time>2026-04-03T13:39:37.04Z</time></trkpt><trkpt lat="43.4730701" lon="11.6084104"><ele>247.0</ele><time>2026-04-03T13:39:38.038Z</time></trkpt><trkpt lat="43.4730357" lon="11.6085199"><ele>246.99999999999997</ele><time>2026-04-03T13:39:39.046Z</time></trkpt><trkpt lat="43.4729914" lon="11.6086248"><ele>247.0</ele><time>2026-04-03T13:39:40.033Z</time></trkpt><trkpt lat="43.4729525" lon="11.6087176"><ele>247.0</ele><time>2026-04-03T13:39:41.054Z</time></trkpt><trkpt lat="43.4729151" lon="11.6088071"><ele>247.0</ele><time>2026-04-03T13:39:42.034Z</time></trkpt><trkpt lat="43.4728827" lon="11.6088923"><ele>246.99999999999997</ele><time>2026-04-03T13:39:43.037Z</time></trkpt><trkpt lat="43.4728352" lon="11.6090112"><ele>247.0</ele><time>2026-04-03T13:39:45.035Z</time></trkpt><trkpt lat="43.4727978" lon="11.6091017"><ele>244.99999999999997</ele><time>2026-04-03T13:39:47.035Z</time></trkpt><trkpt lat="43.4727353" lon="11.6091684"><ele>243.0</ele><time>2026-04-03T13:39:49.034Z</time></trkpt><trkpt lat="43.4726623" lon="11.6091453"><ele>241.0</ele><time>2026-04-03T13:39:51.031Z</time></trkpt><trkpt lat="43.4725851" lon="11.6090949"><ele>239.0</ele><time>2026-04-03T13:39:54.035Z</time></trkpt><trkpt lat="43.4724962" lon="11.6091088"><ele>236.99999999999997</ele><time>2026-04-03T13:39:57.031Z</time></trkpt><trkpt lat="43.4724328" lon="11.6090876"><ele>235.0</ele><time>2026-04-03T13:39:59.039Z</time></trkpt><trkpt lat="43.4723686" lon="11.6090631"><ele>234.99999999999997</ele><time>2026-04-03T13:40:01.04Z</time></trkpt><trkpt lat="43.4722925" lon="11.6090563"><ele>235.0</ele><time>2026-04-03T13:40:03.049Z</time></trkpt><trkpt lat="43.4722081" lon="11.609071"><ele>235.0</ele><time>2026-04-03T13:40:05.048Z</time></trkpt><trkpt lat="43.4721217" lon="11.6090578"><ele>235.0</ele><time>2026-04-03T13:40:07.027Z</time></trkpt><trkpt lat="43.472048" lon="11.609044"><ele>234.99999999999997</ele><time>2026-04-03T13:40:09.042Z</time></trkpt><trkpt lat="43.4719407" lon="11.6090387"><ele>235.0</ele><time>2026-04-03T13:40:11.039Z</time></trkpt><trkpt lat="43.4718723" lon="11.6090304"><ele>234.6</ele><time>2026-04-03T13:40:12.027Z</time></trkpt><trkpt lat="43.4717979" lon="11.6090137"><ele>234.2</ele><time>2026-04-03T13:40:13.039Z</time></trkpt><trkpt lat="43.4717102" lon="11.6089919"><ele>233.8</ele><time>2026-04-03T13:40:14.038Z</time></trkpt><trkpt lat="43.4716133" lon="11.6089646"><ele>233.4</ele><time>2026-04-03T13:40:15.04Z</time></trkpt><trkpt lat="43.4715125" lon="11.6089206"><ele>233.0</ele><time>2026-04-03T13:40:16.034Z</time></trkpt><trkpt lat="43.4714098" lon="11.6088671"><ele>233.0</ele><time>2026-04-03T13:40:17.046Z</time></trkpt><trkpt lat="43.4713067" lon="11.6088045"><ele>233.0</ele><time>2026-04-03T13:40:18.051Z</time></trkpt><trkpt lat="43.4712026" lon="11.6087324"><ele>233.0</ele><time>2026-04-03T13:40:19.038Z</time></trkpt><trkpt lat="43.4711095" lon="11.6086559"><ele>233.0</ele><time>2026-04-03T13:40:20.031Z</time></trkpt><trkpt lat="43.471024" lon="11.6085762"><ele>233.0</ele><time>2026-04-03T13:40:21.034Z</time></trkpt><trkpt lat="43.470943" lon="11.6085021"><ele>233.33333333333334</ele><time>2026-04-03T13:40:22.038Z</time></trkpt><trkpt lat="43.4708736" lon="11.6084284"><ele>233.66666666666669</ele><time>2026-04-03T13:40:23.045Z</time></trkpt><trkpt lat="43.4708068" lon="11.6083612"><ele>234.0</ele><time>2026-04-03T13:40:24.039Z</time></trkpt><trkpt lat="43.4707371" lon="11.6082927"><ele>234.33333333333331</ele><time>2026-04-03T13:40:25.034Z</time></trkpt><trkpt lat="43.4706709" lon="11.6082224"><ele>234.66666666666666</ele><time>2026-04-03T13:40:26.048Z</time></trkpt><trkpt lat="43.4706036" lon="11.6081494"><ele>235.0</ele><time>2026-04-03T13:40:27.048Z</time></trkpt><trkpt lat="43.4705343" lon="11.6080715"><ele>235.0</ele><time>2026-04-03T13:40:28.045Z</time></trkpt><trkpt lat="43.470459" lon="11.6079922"><ele>235.0</ele><time>2026-04-03T13:40:29.038Z</time></trkpt><trkpt lat="43.4703898" lon="11.6079172"><ele>235.0</ele><time>2026-04-03T13:40:30.036Z</time></trkpt><trkpt lat="43.4703024" lon="11.6078538"><ele>235.0</ele><time>2026-04-03T13:40:32.051Z</time></trkpt><trkpt lat="43.4702243" lon="11.6078908"><ele>235.0</ele><time>2026-04-03T13:40:35.033Z</time></trkpt><trkpt lat="43.4702021" lon="11.6080629"><ele>234.8</ele><time>2026-04-03T13:40:37.039Z</time></trkpt><trkpt lat="43.4701953" lon="11.6081794"><ele>234.6</ele><time>2026-04-03T13:40:38.036Z</time></trkpt><trkpt lat="43.4701797" lon="11.6083077"><ele>234.39999999999998</ele><time>2026-04-03T13:40:39.038Z</time></trkpt><trkpt lat="43.47015" lon="11.6084616"><ele>234.2</ele><time>2026-04-03T13:40:40.052Z</time></trkpt><trkpt lat="43.470109" lon="11.6086239"><ele>234.0</ele><time>2026-04-03T13:40:41.038Z</time></trkpt><trkpt lat="43.470068" lon="11.6087931"><ele>233.5</ele><time>2026-04-03T13:40:42.05Z</time></trkpt><trkpt lat="43.4700272" lon="11.6089729"><ele>233.0</ele><time>2026-04-03T13:40:43.044Z</time></trkpt><trkpt lat="43.469983" lon="11.6091563"><ele>232.5</ele><time>2026-04-03T13:40:44.04Z</time></trkpt><trkpt lat="43.4699399" lon="11.6093312"><ele>232.0</ele><time>2026-04-03T13:40:45.038Z</time></trkpt><trkpt lat="43.469903" lon="11.6094872"><ele>232.33333333333331</ele><time>2026-04-03T13:40:46.042Z</time></trkpt><trkpt lat="43.4698698" lon="11.6096199"><ele>232.66666666666666</ele><time>2026-04-03T13:40:47.035Z</time></trkpt><trkpt lat="43.4698252" lon="11.6097165"><ele>233.0</ele><time>2026-04-03T13:40:48.035Z</time></trkpt><trkpt lat="43.4697609" lon="11.6097522"><ele>233.33333333333331</ele><time>2026-04-03T13:40:49.032Z</time></trkpt><trkpt lat="43.4696812" lon="11.6097381"><ele>233.66666666666666</ele><time>2026-04-03T13:40:50.034Z</time></trkpt><trkpt lat="43.4695877" lon="11.609683"><ele>234.0</ele><time>2026-04-03T13:40:51.03Z</time></trkpt><trkpt lat="43.4694812" lon="11.609611"><ele>234.0</ele><time>2026-04-03T13:40:52.025Z</time></trkpt><trkpt lat="43.4693737" lon="11.6095336"><ele>234.0</ele><time>2026-04-03T13:40:53.036Z</time></trkpt><trkpt lat="43.4692657" lon="11.609447"><ele>234.0</ele><time>2026-04-03T13:40:54.053Z</time></trkpt><trkpt lat="43.4691586" lon="11.6093534"><ele>234.0</ele><time>2026-04-03T13:40:55.048Z</time></trkpt><trkpt lat="43.4690496" lon="11.6092631"><ele>234.0</ele><time>2026-04-03T13:40:56.044Z</time></trkpt><trkpt lat="43.468944" lon="11.6091753"><ele>234.0</ele><time>2026-04-03T13:40:57.043Z</time></trkpt><trkpt lat="43.4688359" lon="11.60909"><ele>234.0</ele><time>2026-04-03T13:40:58.04Z</time></trkpt><trkpt lat="43.468728" lon="11.6089973"><ele>234.0</ele><time>2026-04-03T13:40:59.04Z</time></trkpt><trkpt lat="43.4686177" lon="11.608899"><ele>235.0</ele><time>2026-04-03T13:41:00.056Z</time></trkpt><trkpt lat="43.4685057" lon="11.6088083"><ele>236.0</ele><time>2026-04-03T13:41:01.046Z</time></trkpt><trkpt lat="43.4683918" lon="11.6087221"><ele>237.0</ele><time>2026-04-03T13:41:02.047Z</time></trkpt><trkpt lat="43.4682796" lon="11.6086371"><ele>238.0</ele><time>2026-04-03T13:41:03.047Z</time></trkpt><trkpt lat="43.4681683" lon="11.6085475"><ele>238.0</ele><time>2026-04-03T13:41:04.053Z</time></trkpt><trkpt lat="43.4680595" lon="11.6084482"><ele>238.0</ele><time>2026-04-03T13:41:05.063Z</time></trkpt><trkpt lat="43.4679585" lon="11.608343"><ele>238.0</ele><time>2026-04-03T13:41:06.049Z</time></trkpt><trkpt lat="43.4678581" lon="11.6082327"><ele>238.0</ele><time>2026-04-03T13:41:07.033Z</time></trkpt><trkpt lat="43.467754" lon="11.6081258"><ele>239.75</ele><time>2026-04-03T13:41:08.036Z</time></trkpt><trkpt lat="43.4676529" lon="11.6080132"><ele>241.5</ele><time>2026-04-03T13:41:09.049Z</time></trkpt><trkpt lat="43.4675433" lon="11.6079096"><ele>243.25</ele><time>2026-04-03T13:41:10.055Z</time></trkpt><trkpt lat="43.4674294" lon="11.6078069"><ele>245.0</ele><time>2026-04-03T13:41:11.044Z</time></trkpt><trkpt lat="43.4673125" lon="11.607707"><ele>245.5</ele><time>2026-04-03T13:41:12.054Z</time></trkpt><trkpt lat="43.4671954" lon="11.607604"><ele>246.0</ele><time>2026-04-03T13:41:13.049Z</time></trkpt><trkpt lat="43.4670729" lon="11.6074976"><ele>246.5</ele><time>2026-04-03T13:41:14.047Z</time></trkpt><trkpt lat="43.4669487" lon="11.6073958"><ele>247.0</ele><time>2026-04-03T13:41:15.044Z</time></trkpt><trkpt lat="43.466821" lon="11.6072945"><ele>248.0</ele><time>2026-04-03T13:41:16.048Z</time></trkpt><trkpt lat="43.4666931" lon="11.6071886"><ele>249.0</ele><time>2026-04-03T13:41:17.035Z</time></trkpt><trkpt lat="43.4665693" lon="11.6070792"><ele>250.0</ele><time>2026-04-03T13:41:18.041Z</time></trkpt><trkpt lat="43.466454" lon="11.6069646"><ele>251.0</ele><time>2026-04-03T13:41:19.045Z</time></trkpt><trkpt lat="43.4663385" lon="11.6068606"><ele>251.75</ele><time>2026-04-03T13:41:20.044Z</time></trkpt><trkpt lat="43.4662271" lon="11.6067631"><ele>252.5</ele><time>2026-04-03T13:41:21.042Z</time></trkpt><trkpt lat="43.4661165" lon="11.6066863"><ele>253.25</ele><time>2026-04-03T13:41:22.043Z</time></trkpt><trkpt lat="43.4659986" lon="11.606646"><ele>254.0</ele><time>2026-04-03T13:41:23.034Z</time></trkpt><trkpt lat="43.465867" lon="11.6066524"><ele>254.0</ele><time>2026-04-03T13:41:24.043Z</time></trkpt><trkpt lat="43.4657357" lon="11.6067009"><ele>254.0</ele><time>2026-04-03T13:41:25.046Z</time></trkpt><trkpt lat="43.465604" lon="11.6067649"><ele>254.0</ele><time>2026-04-03T13:41:26.047Z</time></trkpt><trkpt lat="43.465477" lon="11.6068515"><ele>254.0</ele><time>2026-04-03T13:41:27.041Z</time></trkpt><trkpt lat="43.4653524" lon="11.6069319"><ele>253.75</ele><time>2026-04-03T13:41:28.041Z</time></trkpt><trkpt lat="43.4652242" lon="11.6070131"><ele>253.5</ele><time>2026-04-03T13:41:29.047Z</time></trkpt><trkpt lat="43.4650903" lon="11.6070853"><ele>253.25</ele><time>2026-04-03T13:41:30.043Z</time></trkpt><trkpt lat="43.4649541" lon="11.607143"><ele>253.0</ele><time>2026-04-03T13:41:31.042Z</time></trkpt><trkpt lat="43.4648119" lon="11.6071785"><ele>253.0</ele><time>2026-04-03T13:41:32.061Z</time></trkpt><trkpt lat="43.4646689" lon="11.6071906"><ele>253.0</ele><time>2026-04-03T13:41:33.043Z</time></trkpt><trkpt lat="43.4645259" lon="11.6071687"><ele>253.0</ele><time>2026-04-03T13:41:34.039Z</time></trkpt><trkpt lat="43.4643826" lon="11.6071418"><ele>253.0</ele><time>2026-04-03T13:41:35.042Z</time></trkpt><trkpt lat="43.464244" lon="11.6071025"><ele>253.5</ele><time>2026-04-03T13:41:36.053Z</time></trkpt><trkpt lat="43.4641035" lon="11.6070485"><ele>254.0</ele><time>2026-04-03T13:41:37.04Z</time></trkpt><trkpt lat="43.4639661" lon="11.606979"><ele>254.5</ele><time>2026-04-03T13:41:38.047Z</time></trkpt><trkpt lat="43.4638342" lon="11.6068941"><ele>255.0</ele><time>2026-04-03T13:41:39.039Z</time></trkpt><trkpt lat="43.4637033" lon="11.6067992"><ele>252.0</ele><time>2026-04-03T13:41:40.05Z</time></trkpt><trkpt lat="43.4635729" lon="11.6066991"><ele>249.0</ele><time>2026-04-03T13:41:41.04Z</time></trkpt><trkpt lat="43.46345" lon="11.6065846"><ele>246.0</ele><time>2026-04-03T13:41:42.036Z</time></trkpt><trkpt lat="43.4633333" lon="11.6064612"><ele>243.0</ele><time>2026-04-03T13:41:43.032Z</time></trkpt><trkpt lat="43.4632157" lon="11.6063303"><ele>243.0</ele><time>2026-04-03T13:41:44.032Z</time></trkpt><trkpt lat="43.4630967" lon="11.6062009"><ele>243.0</ele><time>2026-04-03T13:41:45.035Z</time></trkpt><trkpt lat="43.4629781" lon="11.6060585"><ele>243.0</ele><time>2026-04-03T13:41:46.043Z</time></trkpt><trkpt lat="43.4628587" lon="11.6059144"><ele>240.33333333333331</ele><time>2026-04-03T13:41:47.04Z</time></trkpt><trkpt lat="43.4627351" lon="11.6057749"><ele>237.66666666666666</ele><time>2026-04-03T13:41:48.042Z</time></trkpt><trkpt lat="43.4626142" lon="11.6056338"><ele>235.0</ele><time>2026-04-03T13:41:49.035Z</time></trkpt><trkpt lat="43.4624987" lon="11.6054939"><ele>235.0</ele><time>2026-04-03T13:41:50.048Z</time></trkpt><trkpt lat="43.4623832" lon="11.6053557"><ele>235.0</ele><time>2026-04-03T13:41:51.032Z</time></trkpt><trkpt lat="43.4622712" lon="11.6052197"><ele>235.0</ele><time>2026-04-03T13:41:52.041Z</time></trkpt><trkpt lat="43.4621604" lon="11.6050934"><ele>235.0</ele><time>2026-04-03T13:41:53.04Z</time></trkpt><trkpt lat="43.4620522" lon="11.6049775"><ele>237.25</ele><time>2026-04-03T13:41:54.04Z</time></trkpt><trkpt lat="43.4619522" lon="11.604862"><ele>239.5</ele><time>2026-04-03T13:41:55.034Z</time></trkpt><trkpt lat="43.461855" lon="11.6047444"><ele>241.75</ele><time>2026-04-03T13:41:56.04Z</time></trkpt><trkpt lat="43.4617534" lon="11.6046197"><ele>244.0</ele><time>2026-04-03T13:41:57.043Z</time></trkpt><trkpt lat="43.4616467" lon="11.6044937"><ele>244.5</ele><time>2026-04-03T13:41:58.042Z</time></trkpt><trkpt lat="43.4615395" lon="11.6043647"><ele>245.0</ele><time>2026-04-03T13:41:59.033Z</time></trkpt><trkpt lat="43.4614342" lon="11.6042335"><ele>245.5</ele><time>2026-04-03T13:42:00.042Z</time></trkpt><trkpt lat="43.4613277" lon="11.6041045"><ele>246.0</ele><time>2026-04-03T13:42:01.034Z</time></trkpt><trkpt lat="43.4612225" lon="11.6039756"><ele>247.5</ele><time>2026-04-03T13:42:02.046Z</time></trkpt><trkpt lat="43.4611202" lon="11.6038439"><ele>249.0</ele><time>2026-04-03T13:42:03.04Z</time></trkpt><trkpt lat="43.4610138" lon="11.6037088"><ele>250.5</ele><time>2026-04-03T13:42:04.057Z</time></trkpt><trkpt lat="43.460909" lon="11.6035716"><ele>252.0</ele><time>2026-04-03T13:42:05.038Z</time></trkpt><trkpt lat="43.460802" lon="11.6034325"><ele>253.0</ele><time>2026-04-03T13:42:06.05Z</time></trkpt><trkpt lat="43.460694" lon="11.6032844"><ele>254.0</ele><time>2026-04-03T13:42:07.052Z</time></trkpt><trkpt lat="43.4605871" lon="11.6031396"><ele>255.0</ele><time>2026-04-03T13:42:08.049Z</time></trkpt><trkpt lat="43.4604753" lon="11.6029967"><ele>253.66666666666669</ele><time>2026-04-03T13:42:09.043Z</time></trkpt><trkpt lat="43.4603582" lon="11.6028521"><ele>252.33333333333334</ele><time>2026-04-03T13:42:10.055Z</time></trkpt><trkpt lat="43.4602417" lon="11.6027086"><ele>251.0</ele><time>2026-04-03T13:42:11.046Z</time></trkpt><trkpt lat="43.4601275" lon="11.6025656"><ele>253.0</ele><time>2026-04-03T13:42:12.049Z</time></trkpt><trkpt lat="43.4600163" lon="11.6024235"><ele>255.0</ele><time>2026-04-03T13:42:13.044Z</time></trkpt><trkpt lat="43.4599011" lon="11.6022906"><ele>257.0</ele><time>2026-04-03T13:42:14.063Z</time></trkpt><trkpt lat="43.459782" lon="11.602172"><ele>259.0</ele><time>2026-04-03T13:42:15.044Z</time></trkpt><trkpt lat="43.4596558" lon="11.6020819"><ele>259.25</ele><time>2026-04-03T13:42:16.052Z</time></trkpt><trkpt lat="43.4595189" lon="11.6020445"><ele>259.5</ele><time>2026-04-03T13:42:17.042Z</time></trkpt><trkpt lat="43.4593849" lon="11.6020265"><ele>259.75</ele><time>2026-04-03T13:42:18.033Z</time></trkpt><trkpt lat="43.4592583" lon="11.6020081"><ele>260.0</ele><time>2026-04-03T13:42:19.038Z</time></trkpt><trkpt lat="43.4591406" lon="11.6019672"><ele>260.0</ele><time>2026-04-03T13:42:20.043Z</time></trkpt><trkpt lat="43.4590351" lon="11.6018754"><ele>260.0</ele><time>2026-04-03T13:42:21.046Z</time></trkpt><trkpt lat="43.4589535" lon="11.6017332"><ele>260.0</ele><time>2026-04-03T13:42:22.042Z</time></trkpt><trkpt lat="43.4588746" lon="11.6015674"><ele>260.0</ele><time>2026-04-03T13:42:23.029Z</time></trkpt><trkpt lat="43.4587909" lon="11.6013937"><ele>259.6666666666667</ele><time>2026-04-03T13:42:24.044Z</time></trkpt><trkpt lat="43.4587053" lon="11.6012136"><ele>259.3333333333333</ele><time>2026-04-03T13:42:25.04Z</time></trkpt><trkpt lat="43.4586209" lon="11.6010273"><ele>259.0</ele><time>2026-04-03T13:42:26.035Z</time></trkpt><trkpt lat="43.4585284" lon="11.6008318"><ele>259.0</ele><time>2026-04-03T13:42:27.035Z</time></trkpt><trkpt lat="43.4584349" lon="11.6006409"><ele>259.0</ele><time>2026-04-03T13:42:28.055Z</time></trkpt><trkpt lat="43.4583415" lon="11.6004437"><ele>259.0</ele><time>2026-04-03T13:42:29.042Z</time></trkpt><trkpt lat="43.4582483" lon="11.600244"><ele>260.3333333333333</ele><time>2026-04-03T13:42:30.048Z</time></trkpt><trkpt lat="43.4581536" lon="11.6000475"><ele>261.6666666666667</ele><time>2026-04-03T13:42:31.032Z</time></trkpt><trkpt lat="43.4580592" lon="11.5998546"><ele>263.0</ele><time>2026-04-03T13:42:32.051Z</time></trkpt><trkpt lat="43.4579659" lon="11.5996616"><ele>264.6666666666667</ele><time>2026-04-03T13:42:33.04Z</time></trkpt><trkpt lat="43.4578779" lon="11.5994804"><ele>266.3333333333333</ele><time>2026-04-03T13:42:34.04Z</time></trkpt><trkpt lat="43.4577921" lon="11.5993011"><ele>268.0</ele><time>2026-04-03T13:42:35.046Z</time></trkpt><trkpt lat="43.4577139" lon="11.5991216"><ele>268.0</ele><time>2026-04-03T13:42:36.042Z</time></trkpt><trkpt lat="43.457639" lon="11.5989495"><ele>268.0</ele><time>2026-04-03T13:42:37.041Z</time></trkpt><trkpt lat="43.4575684" lon="11.5987779"><ele>268.0</ele><time>2026-04-03T13:42:38.027Z</time></trkpt><trkpt lat="43.4575064" lon="11.5986007"><ele>268.0</ele><time>2026-04-03T13:42:39.023Z</time></trkpt><trkpt lat="43.4574517" lon="11.5984236"><ele>267.5</ele><time>2026-04-03T13:42:40.027Z</time></trkpt><trkpt lat="43.4574073" lon="11.5982519"><ele>267.0</ele><time>2026-04-03T13:42:41.033Z</time></trkpt><trkpt lat="43.4573514" lon="11.5980983"><ele>266.5</ele><time>2026-04-03T13:42:42.03Z</time></trkpt><trkpt lat="43.4572727" lon="11.5979672"><ele>266.0</ele><time>2026-04-03T13:42:43.024Z</time></trkpt><trkpt lat="43.4571798" lon="11.5978351"><ele>267.40000000000003</ele><time>2026-04-03T13:42:44.039Z</time></trkpt><trkpt lat="43.4570939" lon="11.597715"><ele>268.8</ele><time>2026-04-03T13:42:45.033Z</time></trkpt><trkpt lat="43.4570264" lon="11.5976066"><ele>270.20000000000005</ele><time>2026-04-03T13:42:46.048Z</time></trkpt><trkpt lat="43.4569736" lon="11.5975141"><ele>271.6</ele><time>2026-04-03T13:42:47.037Z</time></trkpt><trkpt lat="43.4569269" lon="11.5974474"><ele>273.0</ele><time>2026-04-03T13:42:48.036Z</time></trkpt><trkpt lat="43.4568501" lon="11.5973788"><ele>273.0</ele><time>2026-04-03T13:42:50.034Z</time></trkpt><trkpt lat="43.456761" lon="11.5974006"><ele>273.0</ele><time>2026-04-03T13:42:52.037Z</time></trkpt><trkpt lat="43.4567042" lon="11.5974495"><ele>273.0</ele><time>2026-04-03T13:42:53.035Z</time></trkpt><trkpt lat="43.456639" lon="11.5975212"><ele>273.0</ele><time>2026-04-03T13:42:54.028Z</time></trkpt><trkpt lat="43.4565628" lon="11.5975967"><ele>273.0</ele><time>2026-04-03T13:42:55.037Z</time></trkpt><trkpt lat="43.456476" lon="11.5976792"><ele>273.0</ele><time>2026-04-03T13:42:56.044Z</time></trkpt><trkpt lat="43.4563851" lon="11.5977677"><ele>273.0</ele><time>2026-04-03T13:42:57.04Z</time></trkpt><trkpt lat="43.4562936" lon="11.5978663"><ele>273.0</ele><time>2026-04-03T13:42:58.049Z</time></trkpt><trkpt lat="43.4562062" lon="11.5979815"><ele>273.0</ele><time>2026-04-03T13:42:59.042Z</time></trkpt><trkpt lat="43.4561284" lon="11.5981198"><ele>273.0</ele><time>2026-04-03T13:43:00.047Z</time></trkpt><trkpt lat="43.4560493" lon="11.5982754"><ele>273.0</ele><time>2026-04-03T13:43:01.048Z</time></trkpt><trkpt lat="43.4559613" lon="11.5984344"><ele>273.0</ele><time>2026-04-03T13:43:02.039Z</time></trkpt><trkpt lat="43.4558629" lon="11.5985795"><ele>273.0</ele><time>2026-04-03T13:43:03.037Z</time></trkpt><trkpt lat="43.4557468" lon="11.5987085"><ele>273.0</ele><time>2026-04-03T13:43:04.047Z</time></trkpt><trkpt lat="43.4556234" lon="11.5988238"><ele>271.6666666666667</ele><time>2026-04-03T13:43:05.038Z</time></trkpt><trkpt lat="43.4554933" lon="11.5989376"><ele>270.33333333333337</ele><time>2026-04-03T13:43:06.039Z</time></trkpt><trkpt lat="43.4553686" lon="11.5990534"><ele>269.0</ele><time>2026-04-03T13:43:07.046Z</time></trkpt><trkpt lat="43.4552409" lon="11.5991596"><ele>269.0</ele><time>2026-04-03T13:43:08.04Z</time></trkpt><trkpt lat="43.4551067" lon="11.5992312"><ele>269.0</ele><time>2026-04-03T13:43:09.029Z</time></trkpt><trkpt lat="43.4549658" lon="11.5992665"><ele>269.0</ele><time>2026-04-03T13:43:10.043Z</time></trkpt><trkpt lat="43.4548327" lon="11.5992669"><ele>269.0</ele><time>2026-04-03T13:43:11.037Z</time></trkpt><trkpt lat="43.4546971" lon="11.5992348"><ele>268.75</ele><time>2026-04-03T13:43:12.048Z</time></trkpt><trkpt lat="43.4545641" lon="11.5991762"><ele>268.5</ele><time>2026-04-03T13:43:13.042Z</time></trkpt><trkpt lat="43.4544407" lon="11.5991188"><ele>268.25</ele><time>2026-04-03T13:43:14.043Z</time></trkpt><trkpt lat="43.4543234" lon="11.599076"><ele>268.0</ele><time>2026-04-03T13:43:15.013Z</time></trkpt><trkpt lat="43.4542141" lon="11.5990559"><ele>268.0</ele><time>2026-04-03T13:43:16.044Z</time></trkpt><trkpt lat="43.4541079" lon="11.599079"><ele>268.0</ele><time>2026-04-03T13:43:17.047Z</time></trkpt><trkpt lat="43.4540026" lon="11.5991259"><ele>268.0</ele><time>2026-04-03T13:43:18.043Z</time></trkpt><trkpt lat="43.4538938" lon="11.5991965"><ele>268.0</ele><time>2026-04-03T13:43:19.044Z</time></trkpt><trkpt lat="43.4537822" lon="11.5992822"><ele>266.75</ele><time>2026-04-03T13:43:20.045Z</time></trkpt><trkpt lat="43.4536592" lon="11.5993595"><ele>265.5</ele><time>2026-04-03T13:43:21.04Z</time></trkpt><trkpt lat="43.4535426" lon="11.5994288"><ele>264.25</ele><time>2026-04-03T13:43:22.044Z</time></trkpt><trkpt lat="43.4534296" lon="11.5994841"><ele>263.0</ele><time>2026-04-03T13:43:23.036Z</time></trkpt><trkpt lat="43.4533194" lon="11.5995183"><ele>263.0</ele><time>2026-04-03T13:43:24.053Z</time></trkpt><trkpt lat="43.4532228" lon="11.5995315"><ele>263.0</ele><time>2026-04-03T13:43:25.037Z</time></trkpt><trkpt lat="43.4531344" lon="11.5995025"><ele>263.0</ele><time>2026-04-03T13:43:26.035Z</time></trkpt><trkpt lat="43.4530459" lon="11.5994497"><ele>263.0</ele><time>2026-04-03T13:43:27.038Z</time></trkpt><trkpt lat="43.4529566" lon="11.5994016"><ele>263.0</ele><time>2026-04-03T13:43:28.034Z</time></trkpt><trkpt lat="43.45288" lon="11.5993612"><ele>262.83333333333337</ele><time>2026-04-03T13:43:29.042Z</time></trkpt><trkpt lat="43.4528162" lon="11.5993109"><ele>262.6666666666667</ele><time>2026-04-03T13:43:30.048Z</time></trkpt><trkpt lat="43.4527496" lon="11.5992619"><ele>262.5</ele><time>2026-04-03T13:43:31.045Z</time></trkpt><trkpt lat="43.4526839" lon="11.599212"><ele>262.3333333333333</ele><time>2026-04-03T13:43:32.04Z</time></trkpt><trkpt lat="43.4526192" lon="11.5991488"><ele>262.16666666666663</ele><time>2026-04-03T13:43:33.041Z</time></trkpt><trkpt lat="43.4525544" lon="11.5990716"><ele>262.0</ele><time>2026-04-03T13:43:34.031Z</time></trkpt><trkpt lat="43.4525011" lon="11.5989779"><ele>262.0</ele><time>2026-04-03T13:43:35.031Z</time></trkpt><trkpt lat="43.452452" lon="11.5988708"><ele>262.0</ele><time>2026-04-03T13:43:36.037Z</time></trkpt><trkpt lat="43.4524051" lon="11.5987671"><ele>262.0</ele><time>2026-04-03T13:43:37.028Z</time></trkpt><trkpt lat="43.452367" lon="11.5986721"><ele>262.0</ele><time>2026-04-03T13:43:38.033Z</time></trkpt><trkpt lat="43.4523273" lon="11.5985871"><ele>262.0</ele><time>2026-04-03T13:43:39.031Z</time></trkpt><trkpt lat="43.4522767" lon="11.5985132"><ele>262.0</ele><time>2026-04-03T13:43:40.038Z</time></trkpt><trkpt lat="43.4522092" lon="11.5984755"><ele>262.3333333333333</ele><time>2026-04-03T13:43:41.031Z</time></trkpt><trkpt lat="43.4521377" lon="11.5984737"><ele>262.66666666666663</ele><time>2026-04-03T13:43:42.048Z</time></trkpt><trkpt lat="43.45206" lon="11.598477"><ele>263.0</ele><time>2026-04-03T13:43:43.038Z</time></trkpt><trkpt lat="43.4519848" lon="11.5984926"><ele>263.3333333333333</ele><time>2026-04-03T13:43:44.039Z</time></trkpt><trkpt lat="43.451924" lon="11.5985516"><ele>263.6666666666667</ele><time>2026-04-03T13:43:45.043Z</time></trkpt><trkpt lat="43.4518728" lon="11.5986384"><ele>264.0</ele><time>2026-04-03T13:43:46.032Z</time></trkpt><trkpt lat="43.4518092" lon="11.5987346"><ele>264.0</ele><time>2026-04-03T13:43:47.031Z</time></trkpt><trkpt lat="43.4517453" lon="11.5988334"><ele>264.0</ele><time>2026-04-03T13:43:48.026Z</time></trkpt><trkpt lat="43.4516815" lon="11.5989339"><ele>264.0</ele><time>2026-04-03T13:43:49.026Z</time></trkpt><trkpt lat="43.4516132" lon="11.5990457"><ele>264.0</ele><time>2026-04-03T13:43:50.039Z</time></trkpt><trkpt lat="43.4515453" lon="11.5991685"><ele>264.0</ele><time>2026-04-03T13:43:51.03Z</time></trkpt><trkpt lat="43.4514812" lon="11.5992997"><ele>264.0</ele><time>2026-04-03T13:43:52.046Z</time></trkpt><trkpt lat="43.4514283" lon="11.5994443"><ele>264.0</ele><time>2026-04-03T13:43:53.035Z</time></trkpt><trkpt lat="43.4513877" lon="11.599602"><ele>264.0</ele><time>2026-04-03T13:43:54.027Z</time></trkpt><trkpt lat="43.451352" lon="11.5997716"><ele>264.0</ele><time>2026-04-03T13:43:55.019Z</time></trkpt><trkpt lat="43.4513136" lon="11.5999414"><ele>263.75</ele><time>2026-04-03T13:43:56.035Z</time></trkpt><trkpt lat="43.4512667" lon="11.6001083"><ele>263.5</ele><time>2026-04-03T13:43:57.023Z</time></trkpt><trkpt lat="43.4512196" lon="11.6002807"><ele>263.25</ele><time>2026-04-03T13:43:58.046Z</time></trkpt><trkpt lat="43.4511628" lon="11.6004491"><ele>263.0</ele><time>2026-04-03T13:43:59.034Z</time></trkpt><trkpt lat="43.4511048" lon="11.6006101"><ele>264.0</ele><time>2026-04-03T13:44:00.025Z</time></trkpt><trkpt lat="43.4510506" lon="11.6007687"><ele>265.0</ele><time>2026-04-03T13:44:01.042Z</time></trkpt><trkpt lat="43.451003" lon="11.6009279"><ele>266.0</ele><time>2026-04-03T13:44:02.032Z</time></trkpt><trkpt lat="43.4509626" lon="11.6010819"><ele>267.0</ele><time>2026-04-03T13:44:03.037Z</time></trkpt><trkpt lat="43.4509313" lon="11.60124"><ele>267.6666666666667</ele><time>2026-04-03T13:44:04.034Z</time></trkpt><trkpt lat="43.4509304" lon="11.6013996"><ele>268.3333333333333</ele><time>2026-04-03T13:44:05.038Z</time></trkpt><trkpt lat="43.4509521" lon="11.6015251"><ele>269.0</ele><time>2026-04-03T13:44:06.026Z</time></trkpt><trkpt lat="43.4509774" lon="11.6016224"><ele>269.66666666666663</ele><time>2026-04-03T13:44:07.034Z</time></trkpt><trkpt lat="43.4509939" lon="11.6017096"><ele>270.3333333333333</ele><time>2026-04-03T13:44:08.037Z</time></trkpt><trkpt lat="43.4510041" lon="11.6017964"><ele>271.0</ele><time>2026-04-03T13:44:09.023Z</time></trkpt><trkpt lat="43.4510098" lon="11.6019675"><ele>270.6</ele><time>2026-04-03T13:44:11.031Z</time></trkpt><trkpt lat="43.4510046" lon="11.6020695"><ele>270.20000000000005</ele><time>2026-04-03T13:44:12.033Z</time></trkpt><trkpt lat="43.4510015" lon="11.6021663"><ele>269.79999999999995</ele><time>2026-04-03T13:44:13.032Z</time></trkpt><trkpt lat="43.4509544" lon="11.6022646"><ele>269.4</ele><time>2026-04-03T13:44:15.027Z</time></trkpt><trkpt lat="43.4508657" lon="11.6022159"><ele>269.0</ele><time>2026-04-03T13:44:17.035Z</time></trkpt><trkpt lat="43.4507681" lon="11.6020904"><ele>269.0</ele><time>2026-04-03T13:44:19.029Z</time></trkpt><trkpt lat="43.4507091" lon="11.6020161"><ele>269.0</ele><time>2026-04-03T13:44:20.038Z</time></trkpt><trkpt lat="43.4506477" lon="11.6019463"><ele>269.0</ele><time>2026-04-03T13:44:21.036Z</time></trkpt><trkpt lat="43.4505842" lon="11.6018643"><ele>269.0</ele><time>2026-04-03T13:44:22.047Z</time></trkpt><trkpt lat="43.4505132" lon="11.6017872"><ele>269.0</ele><time>2026-04-03T13:44:23.037Z</time></trkpt><trkpt lat="43.4504407" lon="11.6017172"><ele>269.0</ele><time>2026-04-03T13:44:24.034Z</time></trkpt><trkpt lat="43.4503604" lon="11.6016493"><ele>270.8</ele><time>2026-04-03T13:44:25.036Z</time></trkpt><trkpt lat="43.4502767" lon="11.6015913"><ele>272.59999999999997</ele><time>2026-04-03T13:44:26.029Z</time></trkpt><trkpt lat="43.4501871" lon="11.6015391"><ele>274.4</ele><time>2026-04-03T13:44:27.039Z</time></trkpt><trkpt lat="43.4500961" lon="11.6014753"><ele>276.2</ele><time>2026-04-03T13:44:28.048Z</time></trkpt><trkpt lat="43.450003" lon="11.601401"><ele>278.0</ele><time>2026-04-03T13:44:29.029Z</time></trkpt><trkpt lat="43.4499064" lon="11.6013324"><ele>278.0</ele><time>2026-04-03T13:44:30.04Z</time></trkpt><trkpt lat="43.4498165" lon="11.6012694"><ele>278.0</ele><time>2026-04-03T13:44:31.04Z</time></trkpt><trkpt lat="43.4497265" lon="11.6012114"><ele>278.0</ele><time>2026-04-03T13:44:32.052Z</time></trkpt><trkpt lat="43.4496375" lon="11.6011396"><ele>278.0</ele><time>2026-04-03T13:44:33.031Z</time></trkpt><trkpt lat="43.4495529" lon="11.601073"><ele>278.0</ele><time>2026-04-03T13:44:34.04Z</time></trkpt><trkpt lat="43.4494667" lon="11.6010006"><ele>280.75</ele><time>2026-04-03T13:44:35.033Z</time></trkpt><trkpt lat="43.4493904" lon="11.600904"><ele>283.5</ele><time>2026-04-03T13:44:36.043Z</time></trkpt><trkpt lat="43.4493163" lon="11.600788"><ele>286.25</ele><time>2026-04-03T13:44:37.028Z</time></trkpt><trkpt lat="43.4492455" lon="11.6006578"><ele>289.0</ele><time>2026-04-03T13:44:38.048Z</time></trkpt><trkpt lat="43.4491771" lon="11.6005284"><ele>289.0</ele><time>2026-04-03T13:44:39.037Z</time></trkpt><trkpt lat="43.4490942" lon="11.6004044"><ele>289.0</ele><time>2026-04-03T13:44:40.042Z</time></trkpt><trkpt lat="43.4490018" lon="11.6002803"><ele>289.0</ele><time>2026-04-03T13:44:41.036Z</time></trkpt><trkpt lat="43.4489082" lon="11.6001439"><ele>289.0</ele><time>2026-04-03T13:44:42.041Z</time></trkpt><trkpt lat="43.4488231" lon="11.6000067"><ele>293.5</ele><time>2026-04-03T13:44:43.036Z</time></trkpt><trkpt lat="43.4487396" lon="11.5998854"><ele>298.0</ele><time>2026-04-03T13:44:44.037Z</time></trkpt><trkpt lat="43.4486462" lon="11.5997717"><ele>302.5</ele><time>2026-04-03T13:44:45.038Z</time></trkpt><trkpt lat="43.4485381" lon="11.599657"><ele>307.0</ele><time>2026-04-03T13:44:46.039Z</time></trkpt><trkpt lat="43.4484185" lon="11.5995506"><ele>308.0</ele><time>2026-04-03T13:44:47.036Z</time></trkpt><trkpt lat="43.4483015" lon="11.5994527"><ele>309.0</ele><time>2026-04-03T13:44:48.039Z</time></trkpt><trkpt lat="43.4481822" lon="11.59937"><ele>310.0</ele><time>2026-04-03T13:44:49.024Z</time></trkpt><trkpt lat="43.4480623" lon="11.5992856"><ele>311.0</ele><time>2026-04-03T13:44:50.035Z</time></trkpt><trkpt lat="43.4479471" lon="11.5991952"><ele>311.0</ele><time>2026-04-03T13:44:51.034Z</time></trkpt><trkpt lat="43.4478413" lon="11.5991117"><ele>311.0</ele><time>2026-04-03T13:44:52.039Z</time></trkpt><trkpt lat="43.4477401" lon="11.599033"><ele>311.0</ele><time>2026-04-03T13:44:53.026Z</time></trkpt><trkpt lat="43.4476205" lon="11.5989603"><ele>311.0</ele><time>2026-04-03T13:44:54.033Z</time></trkpt><trkpt lat="43.4474924" lon="11.598895"><ele>311.0</ele><time>2026-04-03T13:44:55.034Z</time></trkpt><trkpt lat="43.4473562" lon="11.598826"><ele>311.0</ele><time>2026-04-03T13:44:56.041Z</time></trkpt><trkpt lat="43.4472135" lon="11.59875"><ele>311.0</ele><time>2026-04-03T13:44:57.041Z</time></trkpt><trkpt lat="43.4470807" lon="11.598669"><ele>311.0</ele><time>2026-04-03T13:44:58.033Z</time></trkpt><trkpt lat="43.4469569" lon="11.5985956"><ele>309.0</ele><time>2026-04-03T13:44:59.033Z</time></trkpt><trkpt lat="43.4468345" lon="11.5985437"><ele>307.0</ele><time>2026-04-03T13:45:00.037Z</time></trkpt><trkpt lat="43.4467158" lon="11.5984957"><ele>305.0</ele><time>2026-04-03T13:45:01.032Z</time></trkpt><trkpt lat="43.4466036" lon="11.5984361"><ele>303.0</ele><time>2026-04-03T13:45:02.035Z</time></trkpt><trkpt lat="43.4464834" lon="11.5983749"><ele>303.0</ele><time>2026-04-03T13:45:03.028Z</time></trkpt><trkpt lat="43.4463599" lon="11.598317"><ele>303.0</ele><time>2026-04-03T13:45:04.032Z</time></trkpt><trkpt lat="43.4462368" lon="11.5982539"><ele>303.0</ele><time>2026-04-03T13:45:05.018Z</time></trkpt><trkpt lat="43.4461132" lon="11.5981939"><ele>303.0</ele><time>2026-04-03T13:45:06.052Z</time></trkpt><trkpt lat="43.4459918" lon="11.5981275"><ele>303.0</ele><time>2026-04-03T13:45:07.037Z</time></trkpt><trkpt lat="43.4458705" lon="11.5980642"><ele>303.0</ele><time>2026-04-03T13:45:08.052Z</time></trkpt><trkpt lat="43.4457447" lon="11.5980017"><ele>303.0</ele><time>2026-04-03T13:45:09.042Z</time></trkpt><trkpt lat="43.4456185" lon="11.5979395"><ele>303.0</ele><time>2026-04-03T13:45:10.052Z</time></trkpt><trkpt lat="43.4454933" lon="11.5978904"><ele>304.5</ele><time>2026-04-03T13:45:11.032Z</time></trkpt><trkpt lat="43.4453663" lon="11.5978486"><ele>306.0</ele><time>2026-04-03T13:45:12.04Z</time></trkpt><trkpt lat="43.445245" lon="11.5978025"><ele>307.5</ele><time>2026-04-03T13:45:13.036Z</time></trkpt><trkpt lat="43.4451229" lon="11.5977502"><ele>309.0</ele><time>2026-04-03T13:45:14.035Z</time></trkpt><trkpt lat="43.4450011" lon="11.5976772"><ele>311.25</ele><time>2026-04-03T13:45:15.035Z</time></trkpt><trkpt lat="43.4448841" lon="11.5975922"><ele>313.5</ele><time>2026-04-03T13:45:16.044Z</time></trkpt><trkpt lat="43.4447613" lon="11.5975106"><ele>315.75</ele><time>2026-04-03T13:45:17.041Z</time></trkpt><trkpt lat="43.444637" lon="11.5974283"><ele>318.0</ele><time>2026-04-03T13:45:18.045Z</time></trkpt><trkpt lat="43.4445133" lon="11.5973489"><ele>318.5</ele><time>2026-04-03T13:45:19.031Z</time></trkpt><trkpt lat="43.4443928" lon="11.5972538"><ele>319.0</ele><time>2026-04-03T13:45:20.042Z</time></trkpt><trkpt lat="43.444289" lon="11.5971418"><ele>319.5</ele><time>2026-04-03T13:45:21.026Z</time></trkpt><trkpt lat="43.4442062" lon="11.5970001"><ele>320.0</ele><time>2026-04-03T13:45:22.042Z</time></trkpt><trkpt lat="43.4441253" lon="11.5968258"><ele>324.0</ele><time>2026-04-03T13:45:23.032Z</time></trkpt><trkpt lat="43.4440372" lon="11.5966473"><ele>328.0</ele><time>2026-04-03T13:45:24.035Z</time></trkpt><trkpt lat="43.4439363" lon="11.59648"><ele>332.0</ele><time>2026-04-03T13:45:25.038Z</time></trkpt><trkpt lat="43.4438373" lon="11.5963188"><ele>334.25</ele><time>2026-04-03T13:45:26.034Z</time></trkpt><trkpt lat="43.443754" lon="11.5961505"><ele>336.5</ele><time>2026-04-03T13:45:27.048Z</time></trkpt><trkpt lat="43.4436967" lon="11.5959691"><ele>338.75</ele><time>2026-04-03T13:45:28.043Z</time></trkpt><trkpt lat="43.443675" lon="11.5957714"><ele>341.0</ele><time>2026-04-03T13:45:29.034Z</time></trkpt><trkpt lat="43.443672" lon="11.5955601"><ele>341.0</ele><time>2026-04-03T13:45:30.035Z</time></trkpt><trkpt lat="43.4436591" lon="11.5953718"><ele>341.0</ele><time>2026-04-03T13:45:31.036Z</time></trkpt><trkpt lat="43.4436167" lon="11.5952257"><ele>341.0</ele><time>2026-04-03T13:45:32.058Z</time></trkpt><trkpt lat="43.4435338" lon="11.5950926"><ele>341.0</ele><time>2026-04-03T13:45:33.027Z</time></trkpt><trkpt lat="43.4434289" lon="11.594957"><ele>343.5</ele><time>2026-04-03T13:45:34.04Z</time></trkpt><trkpt lat="43.4433312" lon="11.5948134"><ele>346.0</ele><time>2026-04-03T13:45:35.036Z</time></trkpt><trkpt lat="43.4432824" lon="11.5946463"><ele>348.5</ele><time>2026-04-03T13:45:36.047Z</time></trkpt><trkpt lat="43.4432824" lon="11.5944526"><ele>351.0</ele><time>2026-04-03T13:45:37.036Z</time></trkpt><trkpt lat="43.4432932" lon="11.5942534"><ele>353.0</ele><time>2026-04-03T13:45:38.045Z</time></trkpt><trkpt lat="43.4433016" lon="11.594079"><ele>355.0</ele><time>2026-04-03T13:45:39.037Z</time></trkpt><trkpt lat="43.4432943" lon="11.5939324"><ele>357.0</ele><time>2026-04-03T13:45:40.035Z</time></trkpt><trkpt lat="43.4432483" lon="11.5937952"><ele>359.0</ele><time>2026-04-03T13:45:41.038Z</time></trkpt><trkpt lat="43.4431617" lon="11.5936828"><ele>358.5</ele><time>2026-04-03T13:45:42.032Z</time></trkpt><trkpt lat="43.4430422" lon="11.5935891"><ele>358.0</ele><time>2026-04-03T13:45:43.025Z</time></trkpt><trkpt lat="43.4429177" lon="11.5934793"><ele>357.5</ele><time>2026-04-03T13:45:44.047Z</time></trkpt><trkpt lat="43.4427988" lon="11.5933801"><ele>357.0</ele><time>2026-04-03T13:45:45.033Z</time></trkpt><trkpt lat="43.4426719" lon="11.5932958"><ele>361.25</ele><time>2026-04-03T13:45:46.045Z</time></trkpt><trkpt lat="43.4425412" lon="11.5932166"><ele>365.5</ele><time>2026-04-03T13:45:47.036Z</time></trkpt><trkpt lat="43.442412" lon="11.5931481"><ele>369.75</ele><time>2026-04-03T13:45:48.033Z</time></trkpt><trkpt lat="43.4422935" lon="11.5930902"><ele>374.0</ele><time>2026-04-03T13:45:49.037Z</time></trkpt><trkpt lat="43.4421824" lon="11.5930518"><ele>376.0</ele><time>2026-04-03T13:45:50.042Z</time></trkpt><trkpt lat="43.4420857" lon="11.5930267"><ele>378.0</ele><time>2026-04-03T13:45:51.037Z</time></trkpt><trkpt lat="43.4420072" lon="11.593036"><ele>380.0</ele><time>2026-04-03T13:45:52.034Z</time></trkpt><trkpt lat="43.4419415" lon="11.5930617"><ele>382.0</ele><time>2026-04-03T13:45:53.033Z</time></trkpt><trkpt lat="43.4418345" lon="11.5930941"><ele>384.0</ele><time>2026-04-03T13:45:55.033Z</time></trkpt><trkpt lat="43.4417057" lon="11.5930707"><ele>384.0</ele><time>2026-04-03T13:45:57.032Z</time></trkpt><trkpt lat="43.4416262" lon="11.5930405"><ele>384.0</ele><time>2026-04-03T13:45:58.039Z</time></trkpt><trkpt lat="43.4415381" lon="11.5929899"><ele>384.0</ele><time>2026-04-03T13:45:59.031Z</time></trkpt><trkpt lat="43.4414418" lon="11.5929296"><ele>384.0</ele><time>2026-04-03T13:46:00.039Z</time></trkpt><trkpt lat="43.4413357" lon="11.5928728"><ele>384.0</ele><time>2026-04-03T13:46:01.048Z</time></trkpt><trkpt lat="43.4412265" lon="11.5928188"><ele>386.5</ele><time>2026-04-03T13:46:02.04Z</time></trkpt><trkpt lat="43.4411191" lon="11.5927721"><ele>389.0</ele><time>2026-04-03T13:46:03.03Z</time></trkpt><trkpt lat="43.4410131" lon="11.5927691"><ele>391.5</ele><time>2026-04-03T13:46:04.033Z</time></trkpt><trkpt lat="43.4409134" lon="11.5928281"><ele>394.0</ele><time>2026-04-03T13:46:05.034Z</time></trkpt><trkpt lat="43.4408215" lon="11.5929504"><ele>394.0</ele><time>2026-04-03T13:46:06.04Z</time></trkpt><trkpt lat="43.440722" lon="11.5931125"><ele>394.0</ele><time>2026-04-03T13:46:07.039Z</time></trkpt><trkpt lat="43.4406025" lon="11.5932827"><ele>394.0</ele><time>2026-04-03T13:46:08.047Z</time></trkpt><trkpt lat="43.4404733" lon="11.5934472"><ele>396.25</ele><time>2026-04-03T13:46:09.024Z</time></trkpt><trkpt lat="43.4403469" lon="11.5935823"><ele>398.5</ele><time>2026-04-03T13:46:10.047Z</time></trkpt><trkpt lat="43.4402365" lon="11.5936854"><ele>400.75</ele><time>2026-04-03T13:46:11.032Z</time></trkpt><trkpt lat="43.4401333" lon="11.5937453"><ele>403.0</ele><time>2026-04-03T13:46:12.03Z</time></trkpt><trkpt lat="43.4400357" lon="11.5937532"><ele>403.0</ele><time>2026-04-03T13:46:13.028Z</time></trkpt><trkpt lat="43.4399576" lon="11.5937081"><ele>403.0</ele><time>2026-04-03T13:46:14.042Z</time></trkpt><trkpt lat="43.4398912" lon="11.5936231"><ele>403.0</ele><time>2026-04-03T13:46:15.022Z</time></trkpt><trkpt lat="43.4398459" lon="11.5934855"><ele>403.0</ele><time>2026-04-03T13:46:16.025Z</time></trkpt><trkpt lat="43.4398192" lon="11.5933052"><ele>403.0</ele><time>2026-04-03T13:46:17.026Z</time></trkpt><trkpt lat="43.4397892" lon="11.5930989"><ele>405.25</ele><time>2026-04-03T13:46:18.039Z</time></trkpt><trkpt lat="43.4397522" lon="11.5928897"><ele>407.5</ele><time>2026-04-03T13:46:19.024Z</time></trkpt><trkpt lat="43.439707" lon="11.5927147"><ele>409.75</ele><time>2026-04-03T13:46:20.03Z</time></trkpt><trkpt lat="43.4396298" lon="11.5925728"><ele>412.0</ele><time>2026-04-03T13:46:21.035Z</time></trkpt><trkpt lat="43.4395366" lon="11.5924532"><ele>413.83333333333337</ele><time>2026-04-03T13:46:22.029Z</time></trkpt><trkpt lat="43.4394576" lon="11.592352"><ele>415.6666666666667</ele><time>2026-04-03T13:46:23.03Z</time></trkpt><trkpt lat="43.439393" lon="11.5922452"><ele>417.5</ele><time>2026-04-03T13:46:24.027Z</time></trkpt><trkpt lat="43.4393283" lon="11.5921741"><ele>419.33333333333337</ele><time>2026-04-03T13:46:25.041Z</time></trkpt><trkpt lat="43.4392624" lon="11.5921263"><ele>421.1666666666667</ele><time>2026-04-03T13:46:26.027Z</time></trkpt><trkpt lat="43.4391952" lon="11.5920882"><ele>423.0</ele><time>2026-04-03T13:46:27.033Z</time></trkpt><trkpt lat="43.4391173" lon="11.5920463"><ele>427.0</ele><time>2026-04-03T13:46:28.038Z</time></trkpt><trkpt lat="43.4390335" lon="11.5920037"><ele>431.0</ele><time>2026-04-03T13:46:29.024Z</time></trkpt><trkpt lat="43.4389468" lon="11.591961"><ele>434.99999999999994</ele><time>2026-04-03T13:46:30.034Z</time></trkpt><trkpt lat="43.4388529" lon="11.5919179"><ele>439.0</ele><time>2026-04-03T13:46:31.023Z</time></trkpt><trkpt lat="43.4387549" lon="11.5918615"><ele>443.0</ele><time>2026-04-03T13:46:32.03Z</time></trkpt><trkpt lat="43.4386537" lon="11.5917892"><ele>443.0</ele><time>2026-04-03T13:46:33.038Z</time></trkpt><trkpt lat="43.4385498" lon="11.5917172"><ele>443.0</ele><time>2026-04-03T13:46:34.029Z</time></trkpt><trkpt lat="43.4384418" lon="11.5916338"><ele>443.0</ele><time>2026-04-03T13:46:35.034Z</time></trkpt><trkpt lat="43.4383273" lon="11.5915472"><ele>443.0</ele><time>2026-04-03T13:46:36.028Z</time></trkpt><trkpt lat="43.4382086" lon="11.5914643"><ele>443.0</ele><time>2026-04-03T13:46:37.033Z</time></trkpt><trkpt lat="43.4380865" lon="11.5913849"><ele>443.0</ele><time>2026-04-03T13:46:38.03Z</time></trkpt><trkpt lat="43.4379648" lon="11.5913073"><ele>443.0</ele><time>2026-04-03T13:46:39.02Z</time></trkpt><trkpt lat="43.4378477" lon="11.5912385"><ele>443.0</ele><time>2026-04-03T13:46:40.037Z</time></trkpt><trkpt lat="43.4377345" lon="11.5911777"><ele>446.25</ele><time>2026-04-03T13:46:41.034Z</time></trkpt><trkpt lat="43.4376254" lon="11.5911181"><ele>449.5</ele><time>2026-04-03T13:46:42.029Z</time></trkpt><trkpt lat="43.4375208" lon="11.5910488"><ele>452.75</ele><time>2026-04-03T13:46:43.03Z</time></trkpt><trkpt lat="43.437415" lon="11.5909736"><ele>456.0</ele><time>2026-04-03T13:46:44.03Z</time></trkpt><trkpt lat="43.4373048" lon="11.5908929"><ele>456.0</ele><time>2026-04-03T13:46:45.026Z</time></trkpt><trkpt lat="43.4371951" lon="11.5908088"><ele>456.0</ele><time>2026-04-03T13:46:46.036Z</time></trkpt><trkpt lat="43.4370988" lon="11.5907358"><ele>456.0</ele><time>2026-04-03T13:46:47.035Z</time></trkpt><trkpt lat="43.4370225" lon="11.5906772"><ele>456.0</ele><time>2026-04-03T13:46:48.037Z</time></trkpt><trkpt lat="43.436974" lon="11.5906183"><ele>456.0</ele><time>2026-04-03T13:46:49.032Z</time></trkpt><trkpt lat="43.4369633" lon="11.5905154"><ele>456.0</ele><time>2026-04-03T13:46:51.024Z</time></trkpt><trkpt lat="43.4370626" lon="11.5904357"><ele>456.0</ele><time>2026-04-03T13:46:53.035Z</time></trkpt><trkpt lat="43.4371444" lon="11.5904132"><ele>456.0</ele><time>2026-04-03T13:46:54.041Z</time></trkpt><trkpt lat="43.437237" lon="11.5903843"><ele>456.0</ele><time>2026-04-03T13:46:55.026Z</time></trkpt><trkpt lat="43.437337" lon="11.5903441"><ele>456.0</ele><time>2026-04-03T13:46:56.038Z</time></trkpt><trkpt lat="43.4374403" lon="11.5903006"><ele>456.8</ele><time>2026-04-03T13:46:57.039Z</time></trkpt><trkpt lat="43.4375429" lon="11.5902584"><ele>457.6</ele><time>2026-04-03T13:46:58.049Z</time></trkpt><trkpt lat="43.4376426" lon="11.5902196"><ele>458.4</ele><time>2026-04-03T13:46:59.028Z</time></trkpt><trkpt lat="43.4377333" lon="11.5901708"><ele>459.2</ele><time>2026-04-03T13:47:00.045Z</time></trkpt><trkpt lat="43.4378186" lon="11.5901283"><ele>460.0</ele><time>2026-04-03T13:47:01.041Z</time></trkpt><trkpt lat="43.4378953" lon="11.5900914"><ele>460.0</ele><time>2026-04-03T13:47:02.044Z</time></trkpt><trkpt lat="43.4379549" lon="11.5900617"><ele>460.0</ele><time>2026-04-03T13:47:03.039Z</time></trkpt><trkpt lat="43.4380477" lon="11.5899997"><ele>460.0</ele><time>2026-04-03T13:47:05.03Z</time></trkpt><trkpt lat="43.4381175" lon="11.5898957"><ele>460.0</ele><time>2026-04-03T13:47:07.028Z</time></trkpt><trkpt lat="43.4381709" lon="11.5897473"><ele>460.0</ele><time>2026-04-03T13:47:09.041Z</time></trkpt><trkpt lat="43.438221" lon="11.5896779"><ele>461.33333333333337</ele><time>2026-04-03T13:47:10.037Z</time></trkpt><trkpt lat="43.4382814" lon="11.5896267"><ele>462.6666666666667</ele><time>2026-04-03T13:47:11.035Z</time></trkpt><trkpt lat="43.4383434" lon="11.5895903"><ele>464.0</ele><time>2026-04-03T13:47:12.032Z</time></trkpt><trkpt lat="43.4384112" lon="11.5895602"><ele>465.33333333333337</ele><time>2026-04-03T13:47:13.025Z</time></trkpt><trkpt lat="43.4384746" lon="11.5895305"><ele>466.6666666666667</ele><time>2026-04-03T13:47:14.045Z</time></trkpt><trkpt lat="43.4385438" lon="11.5895074"><ele>468.0</ele><time>2026-04-03T13:47:15.035Z</time></trkpt><trkpt lat="43.4386555" lon="11.5894838"><ele>468.0</ele><time>2026-04-03T13:47:17.027Z</time></trkpt><trkpt lat="43.4387366" lon="11.5895062"><ele>467.99999999999994</ele><time>2026-04-03T13:47:19.036Z</time></trkpt><trkpt lat="43.4388202" lon="11.5894817"><ele>467.99999999999994</ele><time>2026-04-03T13:47:21.048Z</time></trkpt><trkpt lat="43.4388774" lon="11.5894118"><ele>468.0</ele><time>2026-04-03T13:47:23.035Z</time></trkpt><trkpt lat="43.438906" lon="11.589293"><ele>468.0</ele><time>2026-04-03T13:47:25.032Z</time></trkpt><trkpt lat="43.4388813" lon="11.5891209"><ele>466.3333333333333</ele><time>2026-04-03T13:47:27.028Z</time></trkpt><trkpt lat="43.4388816" lon="11.5890218"><ele>464.66666666666663</ele><time>2026-04-03T13:47:28.033Z</time></trkpt><trkpt lat="43.4388951" lon="11.5889213"><ele>463.0</ele><time>2026-04-03T13:47:29.034Z</time></trkpt><trkpt lat="43.4389315" lon="11.5888293"><ele>461.3333333333333</ele><time>2026-04-03T13:47:30.027Z</time></trkpt><trkpt lat="43.4389652" lon="11.5887395"><ele>459.66666666666663</ele><time>2026-04-03T13:47:31.02Z</time></trkpt><trkpt lat="43.4389864" lon="11.5886348"><ele>458.0</ele><time>2026-04-03T13:47:32.032Z</time></trkpt><trkpt lat="43.4389943" lon="11.5885164"><ele>457.4</ele><time>2026-04-03T13:47:33.04Z</time></trkpt><trkpt lat="43.4389927" lon="11.5883991"><ele>456.79999999999995</ele><time>2026-04-03T13:47:34.018Z</time></trkpt><trkpt lat="43.4389901" lon="11.5882729"><ele>456.2</ele><time>2026-04-03T13:47:35.043Z</time></trkpt><trkpt lat="43.4389799" lon="11.5881473"><ele>455.6</ele><time>2026-04-03T13:47:36.033Z</time></trkpt><trkpt lat="43.4389557" lon="11.5880238"><ele>455.0</ele><time>2026-04-03T13:47:37.027Z</time></trkpt><trkpt lat="43.4389212" lon="11.5879062"><ele>455.3333333333333</ele><time>2026-04-03T13:47:38.032Z</time></trkpt><trkpt lat="43.4388754" lon="11.5878022"><ele>455.66666666666663</ele><time>2026-04-03T13:47:39.026Z</time></trkpt><trkpt lat="43.4388253" lon="11.5876972"><ele>456.0</ele><time>2026-04-03T13:47:40.034Z</time></trkpt><trkpt lat="43.4387765" lon="11.5875997"><ele>456.33333333333337</ele><time>2026-04-03T13:47:41.041Z</time></trkpt><trkpt lat="43.4387359" lon="11.5875009"><ele>456.6666666666667</ele><time>2026-04-03T13:47:42.047Z</time></trkpt><trkpt lat="43.4387004" lon="11.5874051"><ele>457.0</ele><time>2026-04-03T13:47:43.033Z</time></trkpt><trkpt lat="43.4386775" lon="11.5873121"><ele>457.00000000000006</ele><time>2026-04-03T13:47:44.018Z</time></trkpt><trkpt lat="43.4386756" lon="11.5872209"><ele>457.0</ele><time>2026-04-03T13:47:45.027Z</time></trkpt><trkpt lat="43.4386892" lon="11.5871232"><ele>457.0</ele><time>2026-04-03T13:47:46.043Z</time></trkpt><trkpt lat="43.4387082" lon="11.5870073"><ele>457.0</ele><time>2026-04-03T13:47:47.032Z</time></trkpt><trkpt lat="43.4387262" lon="11.5868784"><ele>457.00000000000006</ele><time>2026-04-03T13:47:48.034Z</time></trkpt><trkpt lat="43.4387457" lon="11.5867453"><ele>457.0</ele><time>2026-04-03T13:47:49.031Z</time></trkpt><trkpt lat="43.4387604" lon="11.5866083"><ele>457.20000000000005</ele><time>2026-04-03T13:47:50.024Z</time></trkpt><trkpt lat="43.4387789" lon="11.5864741"><ele>457.40000000000003</ele><time>2026-04-03T13:47:51.036Z</time></trkpt><trkpt lat="43.4388122" lon="11.5863369"><ele>457.59999999999997</ele><time>2026-04-03T13:47:52.032Z</time></trkpt><trkpt lat="43.4388533" lon="11.5862043"><ele>457.79999999999995</ele><time>2026-04-03T13:47:53.025Z</time></trkpt><trkpt lat="43.4389052" lon="11.5860735"><ele>458.0</ele><time>2026-04-03T13:47:54.035Z</time></trkpt><trkpt lat="43.4389697" lon="11.5859473"><ele>459.25</ele><time>2026-04-03T13:47:55.03Z</time></trkpt><trkpt lat="43.4390203" lon="11.5858168"><ele>460.5</ele><time>2026-04-03T13:47:56.035Z</time></trkpt><trkpt lat="43.4390616" lon="11.5856731"><ele>461.75</ele><time>2026-04-03T13:47:57.027Z</time></trkpt><trkpt lat="43.4390777" lon="11.5855154"><ele>463.0</ele><time>2026-04-03T13:47:58.032Z</time></trkpt><trkpt lat="43.4390863" lon="11.5853574"><ele>464.79999999999995</ele><time>2026-04-03T13:47:59.031Z</time></trkpt><trkpt lat="43.439099" lon="11.5852006"><ele>466.59999999999997</ele><time>2026-04-03T13:48:00.039Z</time></trkpt><trkpt lat="43.4391324" lon="11.5850562"><ele>468.40000000000003</ele><time>2026-04-03T13:48:01.024Z</time></trkpt><trkpt lat="43.4391883" lon="11.5849298"><ele>470.20000000000005</ele><time>2026-04-03T13:48:02.023Z</time></trkpt><trkpt lat="43.4392608" lon="11.5848242"><ele>472.0</ele><time>2026-04-03T13:48:03.025Z</time></trkpt><trkpt lat="43.4393427" lon="11.5847368"><ele>472.0</ele><time>2026-04-03T13:48:04.038Z</time></trkpt><trkpt lat="43.4394168" lon="11.5846471"><ele>472.0</ele><time>2026-04-03T13:48:05.032Z</time></trkpt><trkpt lat="43.4395108" lon="11.5845482"><ele>472.0</ele><time>2026-04-03T13:48:06.044Z</time></trkpt><trkpt lat="43.4396069" lon="11.5844205"><ele>472.0</ele><time>2026-04-03T13:48:07.019Z</time></trkpt><trkpt lat="43.4396901" lon="11.5842702"><ele>473.0</ele><time>2026-04-03T13:48:08.041Z</time></trkpt><trkpt lat="43.4397653" lon="11.5840918"><ele>474.0</ele><time>2026-04-03T13:48:09.04Z</time></trkpt><trkpt lat="43.4398402" lon="11.5839095"><ele>475.0</ele><time>2026-04-03T13:48:10.036Z</time></trkpt><trkpt lat="43.4399132" lon="11.5837409"><ele>476.0</ele><time>2026-04-03T13:48:11.029Z</time></trkpt><trkpt lat="43.4399855" lon="11.583589"><ele>476.0</ele><time>2026-04-03T13:48:12.03Z</time></trkpt><trkpt lat="43.4400703" lon="11.5834505"><ele>476.0</ele><time>2026-04-03T13:48:13.036Z</time></trkpt><trkpt lat="43.4401837" lon="11.5833391"><ele>476.0</ele><time>2026-04-03T13:48:14.026Z</time></trkpt><trkpt lat="43.4403214" lon="11.5832496"><ele>476.0</ele><time>2026-04-03T13:48:15.031Z</time></trkpt><trkpt lat="43.4404516" lon="11.5831697"><ele>476.0</ele><time>2026-04-03T13:48:16.037Z</time></trkpt><trkpt lat="43.4405704" lon="11.5831015"><ele>476.0</ele><time>2026-04-03T13:48:17.032Z</time></trkpt><trkpt lat="43.4406853" lon="11.5830522"><ele>476.0</ele><time>2026-04-03T13:48:18.024Z</time></trkpt><trkpt lat="43.4407816" lon="11.5830256"><ele>476.0</ele><time>2026-04-03T13:48:19.03Z</time></trkpt><trkpt lat="43.4408557" lon="11.5830277"><ele>476.0</ele><time>2026-04-03T13:48:20.033Z</time></trkpt><trkpt lat="43.4409421" lon="11.5830635"><ele>476.0</ele><time>2026-04-03T13:48:22.033Z</time></trkpt><trkpt lat="43.4410177" lon="11.5831233"><ele>476.0</ele><time>2026-04-03T13:48:24.029Z</time></trkpt><trkpt lat="43.441119" lon="11.5832441"><ele>476.0</ele><time>2026-04-03T13:48:26.015Z</time></trkpt><trkpt lat="43.4412297" lon="11.5832951"><ele>476.0</ele><time>2026-04-03T13:48:28.024Z</time></trkpt><trkpt lat="43.4413011" lon="11.5832409"><ele>476.0</ele><time>2026-04-03T13:48:30.036Z</time></trkpt><trkpt lat="43.4412657" lon="11.5831455"><ele>476.0</ele><time>2026-04-03T13:48:32.037Z</time></trkpt><trkpt lat="43.4411915" lon="11.5830661"><ele>476.0</ele><time>2026-04-03T13:48:34.048Z</time></trkpt><trkpt lat="43.4411447" lon="11.5829886"><ele>476.0</ele><time>2026-04-03T13:48:36.044Z</time></trkpt><trkpt lat="43.4411221" lon="11.5828683"><ele>476.0</ele><time>2026-04-03T13:48:38.025Z</time></trkpt><trkpt lat="43.4410843" lon="11.5827106"><ele>476.0</ele><time>2026-04-03T13:48:40.046Z</time></trkpt><trkpt lat="43.4410702" lon="11.5826129"><ele>478.3333333333333</ele><time>2026-04-03T13:48:41.025Z</time></trkpt><trkpt lat="43.441058" lon="11.5825024"><ele>480.66666666666663</ele><time>2026-04-03T13:48:42.027Z</time></trkpt><trkpt lat="43.4410508" lon="11.5823923"><ele>483.0</ele><time>2026-04-03T13:48:43.023Z</time></trkpt><trkpt lat="43.44106" lon="11.5822798"><ele>485.33333333333337</ele><time>2026-04-03T13:48:44.03Z</time></trkpt><trkpt lat="43.4410876" lon="11.582181"><ele>487.6666666666667</ele><time>2026-04-03T13:48:45.027Z</time></trkpt><trkpt lat="43.4411106" lon="11.5821002"><ele>490.0</ele><time>2026-04-03T13:48:46.022Z</time></trkpt><trkpt lat="43.4411001" lon="11.5819927"><ele>491.33333333333337</ele><time>2026-04-03T13:48:48.021Z</time></trkpt><trkpt lat="43.4411018" lon="11.5818768"><ele>492.6666666666667</ele><time>2026-04-03T13:48:54.033Z</time></trkpt><trkpt lat="43.4411279" lon="11.5817843"><ele>494.0</ele><time>2026-04-03T13:48:55.024Z</time></trkpt><trkpt lat="43.4411673" lon="11.5816752"><ele>495.33333333333337</ele><time>2026-04-03T13:48:56.028Z</time></trkpt><trkpt lat="43.4412063" lon="11.5815614"><ele>496.6666666666667</ele><time>2026-04-03T13:48:57.038Z</time></trkpt><trkpt lat="43.4412496" lon="11.5814548"><ele>498.0</ele><time>2026-04-03T13:48:58.031Z</time></trkpt><trkpt lat="43.4412795" lon="11.581346"><ele>498.0</ele><time>2026-04-03T13:48:59.027Z</time></trkpt><trkpt lat="43.4412921" lon="11.5812335"><ele>498.0</ele><time>2026-04-03T13:49:00.039Z</time></trkpt><trkpt lat="43.4412917" lon="11.5811093"><ele>498.0</ele><time>2026-04-03T13:49:01.035Z</time></trkpt><trkpt lat="43.4412872" lon="11.5809851"><ele>498.0</ele><time>2026-04-03T13:49:02.035Z</time></trkpt><trkpt lat="43.4412668" lon="11.5808759"><ele>498.0</ele><time>2026-04-03T13:49:03.034Z</time></trkpt><trkpt lat="43.441221" lon="11.5807745"><ele>498.0</ele><time>2026-04-03T13:49:04.042Z</time></trkpt><trkpt lat="43.4411509" lon="11.5806787"><ele>498.5</ele><time>2026-04-03T13:49:05.031Z</time></trkpt><trkpt lat="43.4410718" lon="11.5805961"><ele>499.0</ele><time>2026-04-03T13:49:06.033Z</time></trkpt><trkpt lat="43.4409414" lon="11.5804364"><ele>499.5</ele><time>2026-04-03T13:49:08.02Z</time></trkpt><trkpt lat="43.4409099" lon="11.5803223"><ele>500.0</ele><time>2026-04-03T13:49:09.025Z</time></trkpt><trkpt lat="43.4408979" lon="11.5801877"><ele>498.0</ele><time>2026-04-03T13:49:10.028Z</time></trkpt><trkpt lat="43.4409068" lon="11.5800432"><ele>496.0</ele><time>2026-04-03T13:49:11.034Z</time></trkpt><trkpt lat="43.4409109" lon="11.5799023"><ele>494.0</ele><time>2026-04-03T13:49:12.029Z</time></trkpt><trkpt lat="43.4409126" lon="11.5797823"><ele>492.0</ele><time>2026-04-03T13:49:13.035Z</time></trkpt><trkpt lat="43.4408757" lon="11.5796559"><ele>490.0</ele><time>2026-04-03T13:49:14.035Z</time></trkpt><trkpt lat="43.4408294" lon="11.5795287"><ele>489.2</ele><time>2026-04-03T13:49:15.027Z</time></trkpt><trkpt lat="43.4407689" lon="11.5794096"><ele>488.4</ele><time>2026-04-03T13:49:16.018Z</time></trkpt><trkpt lat="43.4407129" lon="11.5793046"><ele>487.6</ele><time>2026-04-03T13:49:17.018Z</time></trkpt><trkpt lat="43.4406698" lon="11.5792049"><ele>486.8</ele><time>2026-04-03T13:49:18.034Z</time></trkpt><trkpt lat="43.4406712" lon="11.5791176"><ele>486.0</ele><time>2026-04-03T13:49:19.01Z</time></trkpt><trkpt lat="43.4407691" lon="11.5790436"><ele>486.0</ele><time>2026-04-03T13:49:21.025Z</time></trkpt><trkpt lat="43.4408879" lon="11.5790572"><ele>486.0</ele><time>2026-04-03T13:49:23.03Z</time></trkpt><trkpt lat="43.440958" lon="11.5790774"><ele>486.0</ele><time>2026-04-03T13:49:24.032Z</time></trkpt><trkpt lat="43.4410311" lon="11.5791097"><ele>486.0</ele><time>2026-04-03T13:49:25.019Z</time></trkpt><trkpt lat="43.4411128" lon="11.579146"><ele>486.0</ele><time>2026-04-03T13:49:26.017Z</time></trkpt><trkpt lat="43.4411951" lon="11.5791751"><ele>486.0</ele><time>2026-04-03T13:49:27.017Z</time></trkpt><trkpt lat="43.4412792" lon="11.5791982"><ele>484.0</ele><time>2026-04-03T13:49:28.036Z</time></trkpt><trkpt lat="43.4413603" lon="11.5791864"><ele>482.0</ele><time>2026-04-03T13:49:29.033Z</time></trkpt><trkpt lat="43.441429" lon="11.5791392"><ele>480.0</ele><time>2026-04-03T13:49:30.02Z</time></trkpt><trkpt lat="43.4414786" lon="11.5790672"><ele>478.0</ele><time>2026-04-03T13:49:31.028Z</time></trkpt><trkpt lat="43.4415119" lon="11.5789723"><ele>476.0</ele><time>2026-04-03T13:49:32.029Z</time></trkpt><trkpt lat="43.4415361" lon="11.5788773"><ele>474.0</ele><time>2026-04-03T13:49:33.023Z</time></trkpt><trkpt lat="43.4415974" lon="11.5787784"><ele>474.0</ele><time>2026-04-03T13:49:35.017Z</time></trkpt><trkpt lat="43.4416628" lon="11.5787808"><ele>474.0</ele><time>2026-04-03T13:49:36.026Z</time></trkpt><trkpt lat="43.441727" lon="11.5787554"><ele>474.0</ele><time>2026-04-03T13:49:37.039Z</time></trkpt><trkpt lat="43.4417981" lon="11.5787227"><ele>474.0</ele><time>2026-04-03T13:49:38.028Z</time></trkpt><trkpt lat="43.4418654" lon="11.5786598"><ele>474.0</ele><time>2026-04-03T13:49:39.028Z</time></trkpt><trkpt lat="43.4419196" lon="11.578563"><ele>474.0</ele><time>2026-04-03T13:49:40.032Z</time></trkpt><trkpt lat="43.4419671" lon="11.578455"><ele>471.8571428571428</ele><time>2026-04-03T13:49:41.024Z</time></trkpt><trkpt lat="43.4420132" lon="11.5783542"><ele>469.71428571428567</ele><time>2026-04-03T13:49:42.027Z</time></trkpt><trkpt lat="43.4420568" lon="11.5782573"><ele>467.57142857142856</ele><time>2026-04-03T13:49:43.015Z</time></trkpt><trkpt lat="43.4420883" lon="11.5781632"><ele>465.4285714285714</ele><time>2026-04-03T13:49:44.036Z</time></trkpt><trkpt lat="43.4421186" lon="11.5780757"><ele>463.2857142857142</ele><time>2026-04-03T13:49:45.022Z</time></trkpt><trkpt lat="43.4421449" lon="11.5779918"><ele>461.14285714285717</ele><time>2026-04-03T13:49:46.031Z</time></trkpt><trkpt lat="43.4421637" lon="11.5779041"><ele>459.0</ele><time>2026-04-03T13:49:47.037Z</time></trkpt><trkpt lat="43.4421728" lon="11.5778166"><ele>459.0</ele><time>2026-04-03T13:49:48.03Z</time></trkpt><trkpt lat="43.4421756" lon="11.5776472"><ele>459.0</ele><time>2026-04-03T13:49:50.038Z</time></trkpt><trkpt lat="43.4421707" lon="11.5775511"><ele>459.0</ele><time>2026-04-03T13:49:51.031Z</time></trkpt><trkpt lat="43.4421761" lon="11.5774492"><ele>459.0</ele><time>2026-04-03T13:49:52.024Z</time></trkpt><trkpt lat="43.4421926" lon="11.5773531"><ele>459.0</ele><time>2026-04-03T13:49:53.024Z</time></trkpt><trkpt lat="43.4422222" lon="11.5772654"><ele>459.0</ele><time>2026-04-03T13:49:54.032Z</time></trkpt><trkpt lat="43.4422764" lon="11.5771362"><ele>459.0</ele><time>2026-04-03T13:49:56.036Z</time></trkpt><trkpt lat="43.4423244" lon="11.57703"><ele>459.0</ele><time>2026-04-03T13:49:58.027Z</time></trkpt><trkpt lat="43.4423617" lon="11.5769086"><ele>459.0</ele><time>2026-04-03T13:50:00.033Z</time></trkpt><trkpt lat="43.442368" lon="11.5767915"><ele>459.0</ele><time>2026-04-03T13:50:02.03Z</time></trkpt><trkpt lat="43.4423335" lon="11.5766829"><ele>459.0</ele><time>2026-04-03T13:50:04.022Z</time></trkpt><trkpt lat="43.4422782" lon="11.5765741"><ele>459.3333333333333</ele><time>2026-04-03T13:50:06.035Z</time></trkpt><trkpt lat="43.4422297" lon="11.5765119"><ele>459.66666666666663</ele><time>2026-04-03T13:50:07.029Z</time></trkpt><trkpt lat="43.4421801" lon="11.5764292"><ele>460.0</ele><time>2026-04-03T13:50:08.033Z</time></trkpt><trkpt lat="43.4421305" lon="11.5763337"><ele>460.3333333333333</ele><time>2026-04-03T13:50:09.023Z</time></trkpt><trkpt lat="43.4420868" lon="11.5762438"><ele>460.66666666666663</ele><time>2026-04-03T13:50:10.042Z</time></trkpt><trkpt lat="43.4420475" lon="11.5761637"><ele>461.0</ele><time>2026-04-03T13:50:11.032Z</time></trkpt><trkpt lat="43.4420076" lon="11.5760256"><ele>459.20000000000005</ele><time>2026-04-03T13:50:13.021Z</time></trkpt><trkpt lat="43.4420519" lon="11.5758747"><ele>457.40000000000003</ele><time>2026-04-03T13:50:15.031Z</time></trkpt><trkpt lat="43.4420916" lon="11.5758029"><ele>455.6</ele><time>2026-04-03T13:50:16.033Z</time></trkpt><trkpt lat="43.4421317" lon="11.5756496"><ele>453.8</ele><time>2026-04-03T13:50:18.032Z</time></trkpt><trkpt lat="43.44212" lon="11.5755513"><ele>452.0</ele><time>2026-04-03T13:50:19.024Z</time></trkpt><trkpt lat="43.4420998" lon="11.5754502"><ele>456.20000000000005</ele><time>2026-04-03T13:50:20.037Z</time></trkpt><trkpt lat="43.4420706" lon="11.5753344"><ele>460.40000000000003</ele><time>2026-04-03T13:50:21.036Z</time></trkpt><trkpt lat="43.4420315" lon="11.5752065"><ele>464.59999999999997</ele><time>2026-04-03T13:50:22.034Z</time></trkpt><trkpt lat="43.441994" lon="11.5750808"><ele>468.79999999999995</ele><time>2026-04-03T13:50:23.025Z</time></trkpt><trkpt lat="43.441959" lon="11.5749543"><ele>473.0</ele><time>2026-04-03T13:50:24.038Z</time></trkpt><trkpt lat="43.441926" lon="11.574834"><ele>473.0</ele><time>2026-04-03T13:50:25.025Z</time></trkpt><trkpt lat="43.4418915" lon="11.5747193"><ele>472.99999999999994</ele><time>2026-04-03T13:50:26.033Z</time></trkpt><trkpt lat="43.4418623" lon="11.574603"><ele>472.99999999999994</ele><time>2026-04-03T13:50:27.031Z</time></trkpt><trkpt lat="43.4418394" lon="11.5744816"><ele>473.0</ele><time>2026-04-03T13:50:28.039Z</time></trkpt><trkpt lat="43.4418135" lon="11.5743396"><ele>473.0</ele><time>2026-04-03T13:50:29.021Z</time></trkpt><trkpt lat="43.441791" lon="11.5741912"><ele>470.59999999999997</ele><time>2026-04-03T13:50:30.034Z</time></trkpt><trkpt lat="43.4417557" lon="11.5740504"><ele>468.19999999999993</ele><time>2026-04-03T13:50:31.024Z</time></trkpt><trkpt lat="43.4417128" lon="11.5739086"><ele>465.8</ele><time>2026-04-03T13:50:32.026Z</time></trkpt><trkpt lat="43.4416588" lon="11.5737789"><ele>463.4</ele><time>2026-04-03T13:50:33.024Z</time></trkpt><trkpt lat="43.441603" lon="11.5736529"><ele>461.0</ele><time>2026-04-03T13:50:34.021Z</time></trkpt><trkpt lat="43.4415628" lon="11.5735182"><ele>459.0</ele><time>2026-04-03T13:50:35.03Z</time></trkpt><trkpt lat="43.4415278" lon="11.5733841"><ele>457.0</ele><time>2026-04-03T13:50:36.032Z</time></trkpt><trkpt lat="43.441503" lon="11.5732545"><ele>455.0</ele><time>2026-04-03T13:50:37.023Z</time></trkpt><trkpt lat="43.4414701" lon="11.5731341"><ele>453.0</ele><time>2026-04-03T13:50:38.034Z</time></trkpt><trkpt lat="43.4414391" lon="11.5730252"><ele>451.0</ele><time>2026-04-03T13:50:39.034Z</time></trkpt><trkpt lat="43.441406" lon="11.5729262"><ele>451.83333333333337</ele><time>2026-04-03T13:50:40.028Z</time></trkpt><trkpt lat="43.4413862" lon="11.5728316"><ele>452.6666666666667</ele><time>2026-04-03T13:50:41.016Z</time></trkpt><trkpt lat="43.4413968" lon="11.5727376"><ele>453.5</ele><time>2026-04-03T13:50:42.036Z</time></trkpt><trkpt lat="43.4414154" lon="11.5726536"><ele>454.33333333333337</ele><time>2026-04-03T13:50:43.02Z</time></trkpt><trkpt lat="43.4413877" lon="11.5725082"><ele>455.1666666666667</ele><time>2026-04-03T13:50:45.028Z</time></trkpt><trkpt lat="43.4413375" lon="11.5724299"><ele>456.0</ele><time>2026-04-03T13:50:46.035Z</time></trkpt><trkpt lat="43.4412911" lon="11.5723261"><ele>458.0</ele><time>2026-04-03T13:50:47.041Z</time></trkpt><trkpt lat="43.441252" lon="11.5721957"><ele>460.0</ele><time>2026-04-03T13:50:48.038Z</time></trkpt><trkpt lat="43.4412207" lon="11.5720538"><ele>462.0</ele><time>2026-04-03T13:50:49.031Z</time></trkpt><trkpt lat="43.4411989" lon="11.5719204"><ele>464.0</ele><time>2026-04-03T13:50:50.038Z</time></trkpt><trkpt lat="43.4411857" lon="11.5718119"><ele>466.0</ele><time>2026-04-03T13:50:51.024Z</time></trkpt><trkpt lat="43.4412106" lon="11.5716952"><ele>466.00000000000006</ele><time>2026-04-03T13:50:53.035Z</time></trkpt><trkpt lat="43.4412678" lon="11.5717357"><ele>466.0</ele><time>2026-04-03T13:50:55.021Z</time></trkpt><trkpt lat="43.4413125" lon="11.5718738"><ele>466.0</ele><time>2026-04-03T13:50:57.026Z</time></trkpt><trkpt lat="43.4413585" lon="11.5719546"><ele>466.0</ele><time>2026-04-03T13:50:58.021Z</time></trkpt><trkpt lat="43.4414234" lon="11.5720294"><ele>466.00000000000006</ele><time>2026-04-03T13:50:59.025Z</time></trkpt><trkpt lat="43.441494" lon="11.5721055"><ele>466.0</ele><time>2026-04-03T13:51:00.029Z</time></trkpt><trkpt lat="43.4415607" lon="11.5721699"><ele>467.33333333333337</ele><time>2026-04-03T13:51:01.028Z</time></trkpt><trkpt lat="43.441626" lon="11.5722148"><ele>468.6666666666667</ele><time>2026-04-03T13:51:02.031Z</time></trkpt><trkpt lat="43.4417038" lon="11.57219"><ele>470.0</ele><time>2026-04-03T13:51:04.018Z</time></trkpt><trkpt lat="43.4416955" lon="11.5720744"><ele>471.33333333333337</ele><time>2026-04-03T13:51:06.015Z</time></trkpt><trkpt lat="43.4416107" lon="11.5719956"><ele>472.6666666666667</ele><time>2026-04-03T13:51:08.031Z</time></trkpt><trkpt lat="43.4415648" lon="11.5719292"><ele>474.0</ele><time>2026-04-03T13:51:09.027Z</time></trkpt><trkpt lat="43.4415288" lon="11.5718338"><ele>474.0</ele><time>2026-04-03T13:51:10.037Z</time></trkpt><trkpt lat="43.44151" lon="11.5717368"><ele>474.0</ele><time>2026-04-03T13:51:11.023Z</time></trkpt><trkpt lat="43.4415566" lon="11.5716361"><ele>474.0</ele><time>2026-04-03T13:51:13.024Z</time></trkpt><trkpt lat="43.4416243" lon="11.571664"><ele>474.0</ele><time>2026-04-03T13:51:15.033Z</time></trkpt><trkpt lat="43.4416928" lon="11.5717682"><ele>474.0</ele><time>2026-04-03T13:51:17.033Z</time></trkpt><trkpt lat="43.4418005" lon="11.5718181"><ele>474.0</ele><time>2026-04-03T13:51:19.016Z</time></trkpt><trkpt lat="43.4418842" lon="11.5718019"><ele>474.0</ele><time>2026-04-03T13:51:21.019Z</time></trkpt><trkpt lat="43.4418893" lon="11.5717075"><ele>474.0</ele><time>2026-04-03T13:51:23.019Z</time></trkpt><trkpt lat="43.4418142" lon="11.5716133"><ele>474.0</ele><time>2026-04-03T13:51:25.034Z</time></trkpt><trkpt lat="43.4417593" lon="11.571541"><ele>474.0</ele><time>2026-04-03T13:51:26.038Z</time></trkpt><trkpt lat="43.4417218" lon="11.5714646"><ele>474.0</ele><time>2026-04-03T13:51:27.022Z</time></trkpt><trkpt lat="43.4416415" lon="11.5713374"><ele>474.0</ele><time>2026-04-03T13:51:29.023Z</time></trkpt><trkpt lat="43.4415633" lon="11.5712392"><ele>474.0</ele><time>2026-04-03T13:51:31.036Z</time></trkpt><trkpt lat="43.4415663" lon="11.5711406"><ele>474.0</ele><time>2026-04-03T13:51:33.025Z</time></trkpt><trkpt lat="43.44166" lon="11.5711463"><ele>474.0</ele><time>2026-04-03T13:51:36.028Z</time></trkpt><trkpt lat="43.441721" lon="11.5711913"><ele>474.0</ele><time>2026-04-03T13:51:38.046Z</time></trkpt><trkpt lat="43.4417686" lon="11.5712566"><ele>474.0</ele><time>2026-04-03T13:51:40.026Z</time></trkpt><trkpt lat="43.44185" lon="11.5713427"><ele>474.0</ele><time>2026-04-03T13:51:42.025Z</time></trkpt><trkpt lat="43.4419516" lon="11.571427"><ele>474.0</ele><time>2026-04-03T13:51:44.032Z</time></trkpt><trkpt lat="43.4420647" lon="11.5714296"><ele>474.0</ele><time>2026-04-03T13:51:46.034Z</time></trkpt><trkpt lat="43.4421369" lon="11.5713468"><ele>474.0</ele><time>2026-04-03T13:51:48.039Z</time></trkpt><trkpt lat="43.4421217" lon="11.5712556"><ele>474.0</ele><time>2026-04-03T13:51:50.028Z</time></trkpt><trkpt lat="43.4420511" lon="11.5712337"><ele>474.0</ele><time>2026-04-03T13:51:52.035Z</time></trkpt><trkpt lat="43.4419488" lon="11.5711913"><ele>477.6</ele><time>2026-04-03T13:51:54.034Z</time></trkpt><trkpt lat="43.4418653" lon="11.5710807"><ele>481.2</ele><time>2026-04-03T13:51:56.03Z</time></trkpt><trkpt lat="43.441798" lon="11.5709559"><ele>484.80000000000007</ele><time>2026-04-03T13:51:58.032Z</time></trkpt><trkpt lat="43.4417591" lon="11.5708135"><ele>488.40000000000003</ele><time>2026-04-03T13:52:00.026Z</time></trkpt><trkpt lat="43.4417512" lon="11.5706728"><ele>492.0</ele><time>2026-04-03T13:52:02.036Z</time></trkpt><trkpt lat="43.4417872" lon="11.5705891"><ele>492.0</ele><time>2026-04-03T13:52:04.038Z</time></trkpt><trkpt lat="43.4418494" lon="11.5706245"><ele>492.0</ele><time>2026-04-03T13:52:06.04Z</time></trkpt><trkpt lat="43.44188" lon="11.5707281"><ele>492.0</ele><time>2026-04-03T13:52:08.031Z</time></trkpt><trkpt lat="43.4419399" lon="11.5707954"><ele>492.0</ele><time>2026-04-03T13:52:11.031Z</time></trkpt><trkpt lat="43.4419607" lon="11.5707077"><ele>492.0</ele><time>2026-04-03T13:52:16.028Z</time></trkpt><trkpt lat="43.4419077" lon="11.5705859"><ele>492.0</ele><time>2026-04-03T13:52:19.025Z</time></trkpt><trkpt lat="43.4418606" lon="11.5705096"><ele>492.0</ele><time>2026-04-03T13:52:21.029Z</time></trkpt><trkpt lat="43.4418387" lon="11.5703962"><ele>492.0</ele><time>2026-04-03T13:52:24.031Z</time></trkpt><trkpt lat="43.4418312" lon="11.5703087"><ele>492.0</ele><time>2026-04-03T13:52:26.043Z</time></trkpt><trkpt lat="43.4418225" lon="11.5702195"><ele>492.0</ele><time>2026-04-03T13:52:29.017Z</time></trkpt><trkpt lat="43.4418604" lon="11.570139"><ele>492.0</ele><time>2026-04-03T13:52:37.044Z</time></trkpt><trkpt lat="43.4419335" lon="11.570219"><ele>492.0</ele><time>2026-04-03T13:52:40.033Z</time></trkpt><trkpt lat="43.4419529" lon="11.570335"><ele>492.0</ele><time>2026-04-03T13:52:42.034Z</time></trkpt><trkpt lat="43.4420281" lon="11.5703676"><ele>492.00000000000006</ele><time>2026-04-03T13:52:45.036Z</time></trkpt><trkpt lat="43.4420509" lon="11.5702562"><ele>492.00000000000006</ele><time>2026-04-03T13:52:48.036Z</time></trkpt><trkpt lat="43.4420221" lon="11.5701442"><ele>492.0</ele><time>2026-04-03T13:52:50.03Z</time></trkpt><trkpt lat="43.4419835" lon="11.5700118"><ele>492.0</ele><time>2026-04-03T13:52:52.031Z</time></trkpt><trkpt lat="43.441953" lon="11.5698746"><ele>494.3333333333333</ele><time>2026-04-03T13:52:54.025Z</time></trkpt><trkpt lat="43.4419048" lon="11.5697128"><ele>496.66666666666663</ele><time>2026-04-03T13:52:56.03Z</time></trkpt><trkpt lat="43.4418762" lon="11.5696166"><ele>499.0</ele><time>2026-04-03T13:52:57.026Z</time></trkpt><trkpt lat="43.4418527" lon="11.5695047"><ele>501.3333333333333</ele><time>2026-04-03T13:52:58.034Z</time></trkpt><trkpt lat="43.4418288" lon="11.5694099"><ele>503.66666666666663</ele><time>2026-04-03T13:52:59.04Z</time></trkpt><trkpt lat="43.4417967" lon="11.5693106"><ele>506.0</ele><time>2026-04-03T13:53:01.028Z</time></trkpt><trkpt lat="43.4418578" lon="11.5694298"><ele>505.99999999999994</ele><time>2026-04-03T13:53:09.023Z</time></trkpt><trkpt lat="43.4418705" lon="11.5695282"><ele>506.0</ele><time>2026-04-03T13:53:10.034Z</time></trkpt><trkpt lat="43.4418917" lon="11.5696514"><ele>506.0</ele><time>2026-04-03T13:53:11.024Z</time></trkpt><trkpt lat="43.4419188" lon="11.5697715"><ele>506.0</ele><time>2026-04-03T13:53:12.036Z</time></trkpt><trkpt lat="43.4419485" lon="11.5698892"><ele>505.99999999999994</ele><time>2026-04-03T13:53:13.032Z</time></trkpt><trkpt lat="43.4419757" lon="11.5700039"><ele>506.0</ele><time>2026-04-03T13:53:14.025Z</time></trkpt><trkpt lat="43.4420052" lon="11.5701127"><ele>505.99999999999994</ele><time>2026-04-03T13:53:15.027Z</time></trkpt><trkpt lat="43.4420246" lon="11.5702054"><ele>506.0</ele><time>2026-04-03T13:53:16.045Z</time></trkpt><trkpt lat="43.4420545" lon="11.5703401"><ele>506.0</ele><time>2026-04-03T13:53:18.031Z</time></trkpt><trkpt lat="43.442025" lon="11.5704305"><ele>506.0</ele><time>2026-04-03T13:53:20.03Z</time></trkpt><trkpt lat="43.4420179" lon="11.5703263"><ele>505.99999999999994</ele><time>2026-04-03T13:56:49.032Z</time></trkpt><trkpt lat="43.4420036" lon="11.5702081"><ele>506.0</ele><time>2026-04-03T13:56:51.018Z</time></trkpt><trkpt lat="43.4419861" lon="11.5701212"><ele>505.99999999999994</ele><time>2026-04-03T13:56:52.035Z</time></trkpt><trkpt lat="43.4419696" lon="11.570032"><ele>506.0</ele><time>2026-04-03T13:56:53.036Z</time></trkpt><trkpt lat="43.44195" lon="11.569933"><ele>506.0</ele><time>2026-04-03T13:56:54.031Z</time></trkpt><trkpt lat="43.4419263" lon="11.569823"><ele>506.0</ele><time>2026-04-03T13:56:55.031Z</time></trkpt><trkpt lat="43.4419041" lon="11.5697102"><ele>505.99999999999994</ele><time>2026-04-03T13:56:56.03Z</time></trkpt><trkpt lat="43.4418807" lon="11.5696041"><ele>506.0</ele><time>2026-04-03T13:56:57.024Z</time></trkpt><trkpt lat="43.4418552" lon="11.5695139"><ele>505.99999999999994</ele><time>2026-04-03T13:56:58.045Z</time></trkpt><trkpt lat="43.4418154" lon="11.5693789"><ele>506.0</ele><time>2026-04-03T13:57:00.032Z</time></trkpt><trkpt lat="43.4418197" lon="11.5692757"><ele>506.0</ele><time>2026-04-03T13:57:02.02Z</time></trkpt><trkpt lat="43.44188" lon="11.569232"><ele>506.0</ele><time>2026-04-03T13:57:04.028Z</time></trkpt><trkpt lat="43.4419666" lon="11.5693461"><ele>505.99999999999994</ele><time>2026-04-03T13:57:07.024Z</time></trkpt><trkpt lat="43.4419935" lon="11.569439"><ele>506.0</ele><time>2026-04-03T13:57:08.027Z</time></trkpt><trkpt lat="43.4420377" lon="11.5695505"><ele>505.99999999999994</ele><time>2026-04-03T13:57:09.025Z</time></trkpt><trkpt lat="43.4420921" lon="11.5696456"><ele>506.0</ele><time>2026-04-03T13:57:10.033Z</time></trkpt><trkpt lat="43.4421442" lon="11.5697221"><ele>506.0</ele><time>2026-04-03T13:57:11.027Z</time></trkpt><trkpt lat="43.4422196" lon="11.5697901"><ele>506.0</ele><time>2026-04-03T13:57:13.023Z</time></trkpt><trkpt lat="43.4422849" lon="11.5697405"><ele>505.99999999999994</ele><time>2026-04-03T13:57:16.028Z</time></trkpt><trkpt lat="43.4422329" lon="11.5696612"><ele>506.0</ele><time>2026-04-03T13:57:18.029Z</time></trkpt><trkpt lat="43.4421444" lon="11.5695457"><ele>508.16666666666663</ele><time>2026-04-03T13:57:20.036Z</time></trkpt><trkpt lat="43.4421065" lon="11.5694693"><ele>510.3333333333333</ele><time>2026-04-03T13:57:21.035Z</time></trkpt><trkpt lat="43.4421058" lon="11.5693679"><ele>512.5</ele><time>2026-04-03T13:57:23.024Z</time></trkpt><trkpt lat="43.4421737" lon="11.5693504"><ele>514.6666666666666</ele><time>2026-04-03T13:57:25.034Z</time></trkpt><trkpt lat="43.4422442" lon="11.5694136"><ele>516.8333333333334</ele><time>2026-04-03T13:57:27.023Z</time></trkpt><trkpt lat="43.4423285" lon="11.5694114"><ele>519.0</ele><time>2026-04-03T13:57:29.032Z</time></trkpt><trkpt lat="43.442388" lon="11.5693125"><ele>522.0</ele><time>2026-04-03T13:57:31.024Z</time></trkpt><trkpt lat="43.4424265" lon="11.5691945"><ele>525.0</ele><time>2026-04-03T13:57:33.031Z</time></trkpt><trkpt lat="43.442389" lon="11.5690898"><ele>528.0</ele><time>2026-04-03T13:57:35.035Z</time></trkpt><trkpt lat="43.4423201" lon="11.5689533"><ele>531.0</ele><time>2026-04-03T13:57:37.031Z</time></trkpt><trkpt lat="43.4422973" lon="11.5688696"><ele>534.0</ele><time>2026-04-03T13:57:38.029Z</time></trkpt><trkpt lat="43.44229" lon="11.5687772"><ele>537.0</ele><time>2026-04-03T13:57:39.026Z</time></trkpt><trkpt lat="43.4422909" lon="11.5686727"><ele>539.0</ele><time>2026-04-03T13:57:40.034Z</time></trkpt><trkpt lat="43.4422947" lon="11.5685699"><ele>541.0</ele><time>2026-04-03T13:57:41.027Z</time></trkpt><trkpt lat="43.442309" lon="11.568456"><ele>543.0</ele><time>2026-04-03T13:57:42.041Z</time></trkpt><trkpt lat="43.4423178" lon="11.5683526"><ele>545.0</ele><time>2026-04-03T13:57:43.033Z</time></trkpt><trkpt lat="43.442331" lon="11.5682306"><ele>547.0</ele><time>2026-04-03T13:57:45.029Z</time></trkpt><trkpt lat="43.4423953" lon="11.5681804"><ele>549.0</ele><time>2026-04-03T13:57:48.025Z</time></trkpt><trkpt lat="43.4424663" lon="11.5682337"><ele>549.0</ele><time>2026-04-03T13:57:50.034Z</time></trkpt><trkpt lat="43.4425469" lon="11.568318"><ele>549.0</ele><time>2026-04-03T13:57:52.029Z</time></trkpt><trkpt lat="43.4426139" lon="11.568333"><ele>549.0</ele><time>2026-04-03T13:57:53.026Z</time></trkpt><trkpt lat="43.4426952" lon="11.5683252"><ele>549.0</ele><time>2026-04-03T13:57:54.031Z</time></trkpt><trkpt lat="43.4427808" lon="11.5683022"><ele>549.0</ele><time>2026-04-03T13:57:55.023Z</time></trkpt><trkpt lat="43.4428718" lon="11.5682728"><ele>549.0</ele><time>2026-04-03T13:57:56.043Z</time></trkpt><trkpt lat="43.4429613" lon="11.5682587"><ele>549.3333333333334</ele><time>2026-04-03T13:57:57.04Z</time></trkpt><trkpt lat="43.443049" lon="11.5682388"><ele>549.6666666666666</ele><time>2026-04-03T13:57:58.039Z</time></trkpt><trkpt lat="43.4431302" lon="11.568223"><ele>550.0</ele><time>2026-04-03T13:57:59.035Z</time></trkpt><trkpt lat="43.443198" lon="11.5681962"><ele>550.3333333333333</ele><time>2026-04-03T13:58:00.031Z</time></trkpt><trkpt lat="43.4432778" lon="11.5681465"><ele>550.6666666666666</ele><time>2026-04-03T13:58:02.031Z</time></trkpt><trkpt lat="43.4432781" lon="11.568044"><ele>551.0</ele><time>2026-04-03T13:58:05.032Z</time></trkpt><trkpt lat="43.443185" lon="11.5680087"><ele>550.9999999999999</ele><time>2026-04-03T13:58:07.035Z</time></trkpt><trkpt lat="43.4431266" lon="11.567974"><ele>551.0</ele><time>2026-04-03T13:58:08.034Z</time></trkpt><trkpt lat="43.4430724" lon="11.5679115"><ele>551.0</ele><time>2026-04-03T13:58:09.037Z</time></trkpt><trkpt lat="43.4430298" lon="11.5678398"><ele>551.0</ele><time>2026-04-03T13:58:10.031Z</time></trkpt><trkpt lat="43.4429992" lon="11.5677529"><ele>551.0</ele><time>2026-04-03T13:58:11.032Z</time></trkpt><trkpt lat="43.4429701" lon="11.5676455"><ele>550.9999999999999</ele><time>2026-04-03T13:58:12.037Z</time></trkpt><trkpt lat="43.4429475" lon="11.5675225"><ele>551.0</ele><time>2026-04-03T13:58:13.031Z</time></trkpt><trkpt lat="43.4429279" lon="11.5673979"><ele>552.0</ele><time>2026-04-03T13:58:14.042Z</time></trkpt><trkpt lat="43.4429152" lon="11.5672718"><ele>553.0</ele><time>2026-04-03T13:58:15.037Z</time></trkpt><trkpt lat="43.4429075" lon="11.5671431"><ele>554.0</ele><time>2026-04-03T13:58:16.034Z</time></trkpt><trkpt lat="43.4429067" lon="11.5670089"><ele>555.0</ele><time>2026-04-03T13:58:17.035Z</time></trkpt><trkpt lat="43.4429099" lon="11.5668719"><ele>556.0</ele><time>2026-04-03T13:58:18.027Z</time></trkpt><trkpt lat="43.4429127" lon="11.5667497"><ele>557.0</ele><time>2026-04-03T13:58:19.034Z</time></trkpt><trkpt lat="43.442916" lon="11.5666366"><ele>558.0</ele><time>2026-04-03T13:58:20.026Z</time></trkpt><trkpt lat="43.4429247" lon="11.5665274"><ele>559.0</ele><time>2026-04-03T13:58:21.032Z</time></trkpt><trkpt lat="43.4429355" lon="11.5664022"><ele>560.0</ele><time>2026-04-03T13:58:22.044Z</time></trkpt><trkpt lat="43.442951" lon="11.5662565"><ele>561.0</ele><time>2026-04-03T13:58:23.028Z</time></trkpt><trkpt lat="43.4429654" lon="11.5660967"><ele>561.5</ele><time>2026-04-03T13:58:24.028Z</time></trkpt><trkpt lat="43.4429741" lon="11.5659286"><ele>562.0</ele><time>2026-04-03T13:58:25.027Z</time></trkpt><trkpt lat="43.4429767" lon="11.565759"><ele>562.5</ele><time>2026-04-03T13:58:26.034Z</time></trkpt><trkpt lat="43.442979" lon="11.5655818"><ele>563.0</ele><time>2026-04-03T13:58:27.024Z</time></trkpt><trkpt lat="43.4429827" lon="11.5654015"><ele>563.5</ele><time>2026-04-03T13:58:28.038Z</time></trkpt><trkpt lat="43.4429872" lon="11.5652215"><ele>564.0</ele><time>2026-04-03T13:58:29.031Z</time></trkpt><trkpt lat="43.4429916" lon="11.5650462"><ele>564.5</ele><time>2026-04-03T13:58:30.034Z</time></trkpt><trkpt lat="43.4429959" lon="11.5648678"><ele>565.0</ele><time>2026-04-03T13:58:31.032Z</time></trkpt><trkpt lat="43.4430029" lon="11.5646927"><ele>565.0</ele><time>2026-04-03T13:58:32.032Z</time></trkpt><trkpt lat="43.4430106" lon="11.5645313"><ele>565.0</ele><time>2026-04-03T13:58:33.027Z</time></trkpt><trkpt lat="43.4430144" lon="11.5643752"><ele>565.0</ele><time>2026-04-03T13:58:34.041Z</time></trkpt><trkpt lat="43.4430197" lon="11.5642176"><ele>565.0</ele><time>2026-04-03T13:58:35.036Z</time></trkpt><trkpt lat="43.4430283" lon="11.5640631"><ele>565.8333333333334</ele><time>2026-04-03T13:58:36.043Z</time></trkpt><trkpt lat="43.4430347" lon="11.5639228"><ele>566.6666666666667</ele><time>2026-04-03T13:58:37.023Z</time></trkpt><trkpt lat="43.4430358" lon="11.5637993"><ele>567.5</ele><time>2026-04-03T13:58:38.024Z</time></trkpt><trkpt lat="43.4430184" lon="11.5636909"><ele>568.3333333333334</ele><time>2026-04-03T13:58:39.027Z</time></trkpt><trkpt lat="43.4429923" lon="11.5635955"><ele>569.1666666666666</ele><time>2026-04-03T13:58:40.038Z</time></trkpt><trkpt lat="43.4429673" lon="11.5634937"><ele>570.0</ele><time>2026-04-03T13:58:41.031Z</time></trkpt><trkpt lat="43.442963" lon="11.5633792"><ele>572.6</ele><time>2026-04-03T13:58:42.031Z</time></trkpt><trkpt lat="43.4429605" lon="11.563259"><ele>575.2</ele><time>2026-04-03T13:58:43.032Z</time></trkpt><trkpt lat="43.4429603" lon="11.5631332"><ele>577.8</ele><time>2026-04-03T13:58:44.03Z</time></trkpt><trkpt lat="43.4429524" lon="11.563"><ele>580.4</ele><time>2026-04-03T13:58:45.024Z</time></trkpt><trkpt lat="43.442939" lon="11.5628605"><ele>583.0</ele><time>2026-04-03T13:58:46.031Z</time></trkpt><trkpt lat="43.4429334" lon="11.5627215"><ele>584.8333333333334</ele><time>2026-04-03T13:58:47.02Z</time></trkpt><trkpt lat="43.4429331" lon="11.5625788"><ele>586.6666666666667</ele><time>2026-04-03T13:58:48.037Z</time></trkpt><trkpt lat="43.442934" lon="11.5624466"><ele>588.5</ele><time>2026-04-03T13:58:49.036Z</time></trkpt><trkpt lat="43.442932" lon="11.5623256"><ele>590.3333333333334</ele><time>2026-04-03T13:58:50.031Z</time></trkpt><trkpt lat="43.4429243" lon="11.5622135"><ele>592.1666666666666</ele><time>2026-04-03T13:58:51.02Z</time></trkpt><trkpt lat="43.4429037" lon="11.5621189"><ele>594.0</ele><time>2026-04-03T13:58:52.034Z</time></trkpt><trkpt lat="43.442874" lon="11.5620225"><ele>595.6</ele><time>2026-04-03T13:58:53.023Z</time></trkpt><trkpt lat="43.4428463" lon="11.5619172"><ele>597.2</ele><time>2026-04-03T13:58:54.018Z</time></trkpt><trkpt lat="43.4428198" lon="11.5618044"><ele>598.8000000000001</ele><time>2026-04-03T13:58:55.027Z</time></trkpt><trkpt lat="43.4427869" lon="11.5616877"><ele>600.4</ele><time>2026-04-03T13:58:56.037Z</time></trkpt><trkpt lat="43.4427472" lon="11.5615646"><ele>602.0</ele><time>2026-04-03T13:58:57.035Z</time></trkpt><trkpt lat="43.4427031" lon="11.5614404"><ele>602.0</ele><time>2026-04-03T13:58:58.014Z</time></trkpt><trkpt lat="43.4426543" lon="11.5613108"><ele>602.0</ele><time>2026-04-03T13:58:59.028Z</time></trkpt><trkpt lat="43.4426111" lon="11.561172"><ele>602.0</ele><time>2026-04-03T13:59:00.035Z</time></trkpt><trkpt lat="43.4425734" lon="11.561043"><ele>602.0</ele><time>2026-04-03T13:59:01.033Z</time></trkpt><trkpt lat="43.442527" lon="11.5609277"><ele>602.0</ele><time>2026-04-03T13:59:02.029Z</time></trkpt><trkpt lat="43.4424814" lon="11.5608313"><ele>603.3333333333333</ele><time>2026-04-03T13:59:03.012Z</time></trkpt><trkpt lat="43.4424446" lon="11.5607544"><ele>604.6666666666666</ele><time>2026-04-03T13:59:04.037Z</time></trkpt><trkpt lat="43.4423943" lon="11.5606578"><ele>606.0</ele><time>2026-04-03T13:59:06.028Z</time></trkpt><trkpt lat="43.4424193" lon="11.5605677"><ele>607.3333333333334</ele><time>2026-04-03T13:59:08.036Z</time></trkpt><trkpt lat="43.442516" lon="11.5605389"><ele>608.6666666666667</ele><time>2026-04-03T13:59:10.021Z</time></trkpt><trkpt lat="43.4425817" lon="11.5605294"><ele>610.0</ele><time>2026-04-03T13:59:11.044Z</time></trkpt><trkpt lat="43.4426534" lon="11.5605117"><ele>610.0</ele><time>2026-04-03T13:59:12.039Z</time></trkpt><trkpt lat="43.4427336" lon="11.5604644"><ele>610.0</ele><time>2026-04-03T13:59:13.038Z</time></trkpt><trkpt lat="43.4428189" lon="11.5604133"><ele>610.0</ele><time>2026-04-03T13:59:14.04Z</time></trkpt><trkpt lat="43.4429085" lon="11.5603442"><ele>610.0</ele><time>2026-04-03T13:59:15.031Z</time></trkpt><trkpt lat="43.4430044" lon="11.5602727"><ele>610.0</ele><time>2026-04-03T13:59:16.043Z</time></trkpt><trkpt lat="43.4431049" lon="11.5601912"><ele>609.0</ele><time>2026-04-03T13:59:17.04Z</time></trkpt><trkpt lat="43.4432057" lon="11.5600934"><ele>608.0</ele><time>2026-04-03T13:59:18.036Z</time></trkpt><trkpt lat="43.4432896" lon="11.5599866"><ele>607.0</ele><time>2026-04-03T13:59:19.032Z</time></trkpt><trkpt lat="43.443367" lon="11.5598728"><ele>606.0</ele><time>2026-04-03T13:59:20.028Z</time></trkpt><trkpt lat="43.4434393" lon="11.5597601"><ele>606.0</ele><time>2026-04-03T13:59:21.025Z</time></trkpt><trkpt lat="43.4435004" lon="11.5596486"><ele>606.0</ele><time>2026-04-03T13:59:22.035Z</time></trkpt><trkpt lat="43.4435466" lon="11.5595268"><ele>606.0</ele><time>2026-04-03T13:59:23.044Z</time></trkpt><trkpt lat="43.4435786" lon="11.5594142"><ele>606.0</ele><time>2026-04-03T13:59:24.031Z</time></trkpt><trkpt lat="43.4435994" lon="11.5593056"><ele>606.0</ele><time>2026-04-03T13:59:25.023Z</time></trkpt><trkpt lat="43.443609" lon="11.5592056"><ele>606.0</ele><time>2026-04-03T13:59:26.035Z</time></trkpt><trkpt lat="43.4435985" lon="11.5591189"><ele>606.5</ele><time>2026-04-03T13:59:27.042Z</time></trkpt><trkpt lat="43.4435452" lon="11.5589627"><ele>607.0</ele><time>2026-04-03T13:59:29.024Z</time></trkpt><trkpt lat="43.4427869" lon="11.5616877"><ele>607.6</ele><time>2026-04-03T13:58:56.037Z</time></trkpt><trkpt lat="43.4427472" lon="11.5615646"><ele>608.2</ele><time>2026-04-03T13:58:57.035Z</time></trkpt><trkpt lat="43.4427031" lon="11.5614404"><ele>608.8</ele><time>2026-04-03T13:58:58.014Z</time></trkpt><trkpt lat="43.4426543" lon="11.5613108"><ele>609.4</ele><time>2026-04-03T13:58:59.028Z</time></trkpt><trkpt lat="43.4426111" lon="11.561172"><ele>610.0</ele><time>2026-04-03T13:59:00.035Z</time></trkpt><trkpt lat="43.4425734" lon="11.561043"><ele>610.0</ele><time>2026-04-03T13:59:01.033Z</time></trkpt><trkpt lat="43.442527" lon="11.5609277"><ele>610.0</ele><time>2026-04-03T13:59:02.029Z</time></trkpt><trkpt lat="43.4424814" lon="11.5608313"><ele>610.0</ele><time>2026-04-03T13:59:03.012Z</time></trkpt><trkpt lat="43.4424446" lon="11.5607544"><ele>610.0</ele><time>2026-04-03T13:59:04.037Z</time></trkpt><trkpt lat="43.4423943" lon="11.5606578"><ele>610.0</ele><time>2026-04-03T13:59:06.028Z</time></trkpt><trkpt lat="43.4424193" lon="11.5605677"><ele>610.0</ele><time>2026-04-03T13:59:08.036Z</time></trkpt><trkpt lat="43.442516" lon="11.5605389"><ele>610.0</ele><time>2026-04-03T13:59:10.021Z</time></trkpt><trkpt lat="43.4425817" lon="11.5605294"><ele>610.0</ele><time>2026-04-03T13:59:11.044Z</time></trkpt><trkpt lat="43.4426534" lon="11.5605117"><ele>610.0</ele><time>2026-04-03T13:59:12.039Z</time></trkpt><trkpt lat="43.4427336" lon="11.5604644"><ele>610.0</ele><time>2026-04-03T13:59:13.038Z</time></trkpt><trkpt lat="43.4428189" lon="11.5604133"><ele>610.0</ele><time>2026-04-03T13:59:14.04Z</time></trkpt><trkpt lat="43.4429085" lon="11.5603442"><ele>610.0</ele><time>2026-04-03T13:59:15.031Z</time></trkpt><trkpt lat="43.4430044" lon="11.5602727"><ele>609.0</ele><time>2026-04-03T13:59:16.043Z</time></trkpt><trkpt lat="43.4431049" lon="11.5601912"><ele>608.0</ele><time>2026-04-03T13:59:17.04Z</time></trkpt><trkpt lat="43.4432057" lon="11.5600934"><ele>607.0</ele><time>2026-04-03T13:59:18.036Z</time></trkpt><trkpt lat="43.4432896" lon="11.5599866"><ele>606.0</ele><time>2026-04-03T13:59:19.032Z</time></trkpt><trkpt lat="43.443367" lon="11.5598728"><ele>606.0</ele><time>2026-04-03T13:59:20.028Z</time></trkpt><trkpt lat="43.4434393" lon="11.5597601"><ele>606.0</ele><time>2026-04-03T13:59:21.025Z</time></trkpt><trkpt lat="43.4435004" lon="11.5596486"><ele>606.0</ele><time>2026-04-03T13:59:22.035Z</time></trkpt><trkpt lat="43.4435466" lon="11.5595268"><ele>606.0</ele><time>2026-04-03T13:59:23.044Z</time></trkpt><trkpt lat="43.4435786" lon="11.5594142"><ele>606.0</ele><time>2026-04-03T13:59:24.031Z</time></trkpt><trkpt lat="43.4435994" lon="11.5593056"><ele>606.1666666666666</ele><time>2026-04-03T13:59:25.023Z</time></trkpt><trkpt lat="43.443609" lon="11.5592056"><ele>606.3333333333334</ele><time>2026-04-03T13:59:26.035Z</time></trkpt><trkpt lat="43.4435985" lon="11.5591189"><ele>606.5</ele><time>2026-04-03T13:59:27.042Z</time></trkpt><trkpt lat="43.4435452" lon="11.5589627"><ele>606.6666666666667</ele><time>2026-04-03T13:59:29.024Z</time></trkpt><trkpt lat="43.4435015" lon="11.5588767"><ele>606.8333333333334</ele><time>2026-04-03T13:59:30.038Z</time></trkpt><trkpt lat="43.4434572" lon="11.5587749"><ele>607.0</ele><time>2026-04-03T13:59:31.036Z</time></trkpt><trkpt lat="43.4434217" lon="11.5586759"><ele>606.0</ele><time>2026-04-03T13:59:32.039Z</time></trkpt><trkpt lat="43.443396" lon="11.5585848"><ele>605.0</ele><time>2026-04-03T13:59:33.028Z</time></trkpt><trkpt lat="43.4433779" lon="11.5584016"><ele>604.0</ele><time>2026-04-03T13:59:35.037Z</time></trkpt><trkpt lat="43.4433796" lon="11.5583017"><ele>603.0</ele><time>2026-04-03T13:59:36.032Z</time></trkpt><trkpt lat="43.4433764" lon="11.5581939"><ele>602.0</ele><time>2026-04-03T13:59:37.036Z</time></trkpt><trkpt lat="43.4433618" lon="11.5580791"><ele>601.0</ele><time>2026-04-03T13:59:38.028Z</time></trkpt><trkpt lat="43.4433378" lon="11.5579665"><ele>601.5</ele><time>2026-04-03T13:59:39.03Z</time></trkpt><trkpt lat="43.4433312" lon="11.5578571"><ele>602.0</ele><time>2026-04-03T13:59:40.031Z</time></trkpt><trkpt lat="43.4433402" lon="11.5577587"><ele>602.5</ele><time>2026-04-03T13:59:41.03Z</time></trkpt><trkpt lat="43.4433681" lon="11.557663"><ele>603.0</ele><time>2026-04-03T13:59:42.023Z</time></trkpt><trkpt lat="43.4434186" lon="11.557573"><ele>603.5</ele><time>2026-04-03T13:59:43.028Z</time></trkpt><trkpt lat="43.4434744" lon="11.55748"><ele>604.0</ele><time>2026-04-03T13:59:44.029Z</time></trkpt><trkpt lat="43.4435446" lon="11.5573926"><ele>604.0</ele><time>2026-04-03T13:59:45.022Z</time></trkpt><trkpt lat="43.4436285" lon="11.5573134"><ele>604.0</ele><time>2026-04-03T13:59:46.019Z</time></trkpt><trkpt lat="43.4437215" lon="11.5572433"><ele>604.0</ele><time>2026-04-03T13:59:47.021Z</time></trkpt><trkpt lat="43.4438221" lon="11.5571997"><ele>604.0</ele><time>2026-04-03T13:59:48.03Z</time></trkpt><trkpt lat="43.4439226" lon="11.5571569"><ele>604.0</ele><time>2026-04-03T13:59:49.026Z</time></trkpt><trkpt lat="43.444016" lon="11.5571159"><ele>604.2</ele><time>2026-04-03T13:59:50.031Z</time></trkpt><trkpt lat="43.4441024" lon="11.5570811"><ele>604.4</ele><time>2026-04-03T13:59:51.015Z</time></trkpt><trkpt lat="43.4441754" lon="11.5570549"><ele>604.6</ele><time>2026-04-03T13:59:52.019Z</time></trkpt><trkpt lat="43.4442651" lon="11.5570009"><ele>604.8</ele><time>2026-04-03T13:59:54.038Z</time></trkpt><trkpt lat="43.444351" lon="11.5568823"><ele>605.0</ele><time>2026-04-03T13:59:56.026Z</time></trkpt><trkpt lat="43.4444114" lon="11.5568108"><ele>606.3333333333333</ele><time>2026-04-03T13:59:57.03Z</time></trkpt><trkpt lat="43.4444602" lon="11.5567246"><ele>607.6666666666666</ele><time>2026-04-03T13:59:58.036Z</time></trkpt><trkpt lat="43.4445011" lon="11.5566287"><ele>609.0</ele><time>2026-04-03T13:59:59.022Z</time></trkpt><trkpt lat="43.4445295" lon="11.5565255"><ele>610.3333333333334</ele><time>2026-04-03T14:00:00.033Z</time></trkpt><trkpt lat="43.4445427" lon="11.5564275"><ele>611.6666666666667</ele><time>2026-04-03T14:00:01.027Z</time></trkpt><trkpt lat="43.4445535" lon="11.55633"><ele>613.0</ele><time>2026-04-03T14:00:02.035Z</time></trkpt><trkpt lat="43.4445674" lon="11.5562348"><ele>612.5</ele><time>2026-04-03T14:00:03.019Z</time></trkpt><trkpt lat="43.4445786" lon="11.5561361"><ele>612.0</ele><time>2026-04-03T14:00:04.025Z</time></trkpt><trkpt lat="43.4445807" lon="11.5560422"><ele>611.5</ele><time>2026-04-03T14:00:05.021Z</time></trkpt><trkpt lat="43.4445851" lon="11.5559513"><ele>611.0</ele><time>2026-04-03T14:00:06.036Z</time></trkpt><trkpt lat="43.4445584" lon="11.5557955"><ele>610.5</ele><time>2026-04-03T14:00:08.03Z</time></trkpt><trkpt lat="43.4445014" lon="11.5556573"><ele>610.0</ele><time>2026-04-03T14:00:10.027Z</time></trkpt><trkpt lat="43.4444212" lon="11.5555304"><ele>610.0</ele><time>2026-04-03T14:00:12.028Z</time></trkpt><trkpt lat="43.4443757" lon="11.5554645"><ele>610.0</ele><time>2026-04-03T14:00:13.032Z</time></trkpt><trkpt lat="43.4443326" lon="11.5553938"><ele>610.0</ele><time>2026-04-03T14:00:14.025Z</time></trkpt><trkpt lat="43.4442946" lon="11.555312"><ele>610.0</ele><time>2026-04-03T14:00:15.025Z</time></trkpt><trkpt lat="43.4442604" lon="11.5552206"><ele>610.0</ele><time>2026-04-03T14:00:16.03Z</time></trkpt><trkpt lat="43.4442297" lon="11.5551218"><ele>610.0</ele><time>2026-04-03T14:00:17.024Z</time></trkpt><trkpt lat="43.4441897" lon="11.5550127"><ele>610.0</ele><time>2026-04-03T14:00:18.037Z</time></trkpt><trkpt lat="43.4441391" lon="11.5549093"><ele>608.3333333333334</ele><time>2026-04-03T14:00:19.031Z</time></trkpt><trkpt lat="43.4440817" lon="11.5548077"><ele>606.6666666666667</ele><time>2026-04-03T14:00:20.031Z</time></trkpt><trkpt lat="43.4440375" lon="11.5547014"><ele>605.0</ele><time>2026-04-03T14:00:21.025Z</time></trkpt><trkpt lat="43.4439996" lon="11.5546008"><ele>603.3333333333334</ele><time>2026-04-03T14:00:22.031Z</time></trkpt><trkpt lat="43.4439572" lon="11.5544984"><ele>601.6666666666666</ele><time>2026-04-03T14:00:23.032Z</time></trkpt><trkpt lat="43.4439135" lon="11.5543957"><ele>600.0</ele><time>2026-04-03T14:00:24.029Z</time></trkpt><trkpt lat="43.4438743" lon="11.5542876"><ele>597.8</ele><time>2026-04-03T14:00:25.021Z</time></trkpt><trkpt lat="43.443842" lon="11.554172"><ele>595.6</ele><time>2026-04-03T14:00:26.036Z</time></trkpt><trkpt lat="43.4438076" lon="11.55405"><ele>593.4</ele><time>2026-04-03T14:00:27.029Z</time></trkpt><trkpt lat="43.4437689" lon="11.5539241"><ele>591.2</ele><time>2026-04-03T14:00:28.028Z</time></trkpt><trkpt lat="43.4437365" lon="11.5538027"><ele>589.0</ele><time>2026-04-03T14:00:29.021Z</time></trkpt><trkpt lat="43.4437142" lon="11.5536935"><ele>592.2857142857142</ele><time>2026-04-03T14:00:30.034Z</time></trkpt><trkpt lat="43.4436986" lon="11.5535914"><ele>595.5714285714286</ele><time>2026-04-03T14:00:31.023Z</time></trkpt><trkpt lat="43.4436851" lon="11.5534951"><ele>598.8571428571429</ele><time>2026-04-03T14:00:32.028Z</time></trkpt><trkpt lat="43.4436724" lon="11.5534073"><ele>602.1428571428571</ele><time>2026-04-03T14:00:33.026Z</time></trkpt><trkpt lat="43.4436553" lon="11.5533118"><ele>605.4285714285714</ele><time>2026-04-03T14:00:34.03Z</time></trkpt><trkpt lat="43.4436228" lon="11.5532081"><ele>608.7142857142857</ele><time>2026-04-03T14:00:35.026Z</time></trkpt><trkpt lat="43.443578" lon="11.5531149"><ele>612.0</ele><time>2026-04-03T14:00:36.021Z</time></trkpt><trkpt lat="43.4435228" lon="11.5530242"><ele>612.0</ele><time>2026-04-03T14:00:37.026Z</time></trkpt><trkpt lat="43.4434715" lon="11.5529202"><ele>612.0</ele><time>2026-04-03T14:00:38.028Z</time></trkpt><trkpt lat="43.4434278" lon="11.552819"><ele>612.0</ele><time>2026-04-03T14:00:39.016Z</time></trkpt><trkpt lat="43.4433919" lon="11.5527175"><ele>612.0</ele><time>2026-04-03T14:00:40.025Z</time></trkpt><trkpt lat="43.443363" lon="11.5526278"><ele>612.0</ele><time>2026-04-03T14:00:41.025Z</time></trkpt><trkpt lat="43.4433375" lon="11.5525416"><ele>612.0</ele><time>2026-04-03T14:00:42.026Z</time></trkpt><trkpt lat="43.443302" lon="11.5524658"><ele>608.8333333333334</ele><time>2026-04-03T14:00:43.021Z</time></trkpt><trkpt lat="43.4432669" lon="11.552385"><ele>605.6666666666666</ele><time>2026-04-03T14:00:44.026Z</time></trkpt><trkpt lat="43.4432367" lon="11.5522828"><ele>602.5</ele><time>2026-04-03T14:00:45.019Z</time></trkpt><trkpt lat="43.4432009" lon="11.5521782"><ele>599.3333333333333</ele><time>2026-04-03T14:00:46.031Z</time></trkpt><trkpt lat="43.4431593" lon="11.5520812"><ele>596.1666666666666</ele><time>2026-04-03T14:00:47.021Z</time></trkpt><trkpt lat="43.443109" lon="11.5520037"><ele>593.0</ele><time>2026-04-03T14:00:48.03Z</time></trkpt><trkpt lat="43.4430576" lon="11.5519434"><ele>593.2857142857142</ele><time>2026-04-03T14:00:49.04Z</time></trkpt><trkpt lat="43.4430033" lon="11.5518846"><ele>593.5714285714286</ele><time>2026-04-03T14:00:50.035Z</time></trkpt><trkpt lat="43.442955" lon="11.5518145"><ele>593.8571428571429</ele><time>2026-04-03T14:00:51.034Z</time></trkpt><trkpt lat="43.4429127" lon="11.5517372"><ele>594.1428571428571</ele><time>2026-04-03T14:00:52.033Z</time></trkpt><trkpt lat="43.4428757" lon="11.5516385"><ele>594.4285714285714</ele><time>2026-04-03T14:00:53.037Z</time></trkpt><trkpt lat="43.4428363" lon="11.5515404"><ele>594.7142857142857</ele><time>2026-04-03T14:00:54.032Z</time></trkpt><trkpt lat="43.4427968" lon="11.5514484"><ele>595.0</ele><time>2026-04-03T14:00:55.018Z</time></trkpt><trkpt lat="43.4427525" lon="11.5513749"><ele>595.0</ele><time>2026-04-03T14:00:56.035Z</time></trkpt><trkpt lat="43.4426956" lon="11.5513002"><ele>595.0</ele><time>2026-04-03T14:00:57.035Z</time></trkpt><trkpt lat="43.4426254" lon="11.5512239"><ele>595.0</ele><time>2026-04-03T14:00:58.037Z</time></trkpt><trkpt lat="43.4425521" lon="11.5511454"><ele>595.0</ele><time>2026-04-03T14:00:59.031Z</time></trkpt><trkpt lat="43.4424929" lon="11.5510694"><ele>595.0</ele><time>2026-04-03T14:01:00.036Z</time></trkpt><trkpt lat="43.4424542" lon="11.5509804"><ele>595.0</ele><time>2026-04-03T14:01:01.032Z</time></trkpt><trkpt lat="43.4424136" lon="11.5508672"><ele>594.4</ele><time>2026-04-03T14:01:02.032Z</time></trkpt><trkpt lat="43.4423785" lon="11.5507414"><ele>593.8</ele><time>2026-04-03T14:01:03.032Z</time></trkpt><trkpt lat="43.4423356" lon="11.5506115"><ele>593.2</ele><time>2026-04-03T14:01:04.04Z</time></trkpt><trkpt lat="43.4422817" lon="11.550488"><ele>592.6</ele><time>2026-04-03T14:01:05.025Z</time></trkpt><trkpt lat="43.4422269" lon="11.5503731"><ele>592.0</ele><time>2026-04-03T14:01:06.031Z</time></trkpt><trkpt lat="43.4421833" lon="11.5502772"><ele>592.0</ele><time>2026-04-03T14:01:07.039Z</time></trkpt><trkpt lat="43.4421564" lon="11.5501958"><ele>592.0</ele><time>2026-04-03T14:01:08.037Z</time></trkpt><trkpt lat="43.4421598" lon="11.5500223"><ele>592.0</ele><time>2026-04-03T14:01:10.046Z</time></trkpt><trkpt lat="43.4421913" lon="11.5499339"><ele>592.0</ele><time>2026-04-03T14:01:11.028Z</time></trkpt><trkpt lat="43.4422329" lon="11.5498403"><ele>592.0</ele><time>2026-04-03T14:01:12.043Z</time></trkpt><trkpt lat="43.4422822" lon="11.5497423"><ele>592.0</ele><time>2026-04-03T14:01:13.035Z</time></trkpt><trkpt lat="43.4423168" lon="11.5496322"><ele>592.4</ele><time>2026-04-03T14:01:14.029Z</time></trkpt><trkpt lat="43.4423334" lon="11.5495171"><ele>592.8000000000001</ele><time>2026-04-03T14:01:15.03Z</time></trkpt><trkpt lat="43.4423372" lon="11.5493936"><ele>593.2</ele><time>2026-04-03T14:01:16.034Z</time></trkpt><trkpt lat="43.4423371" lon="11.5492676"><ele>593.6</ele><time>2026-04-03T14:01:17.03Z</time></trkpt><trkpt lat="43.4423439" lon="11.5491298"><ele>594.0</ele><time>2026-04-03T14:01:18.037Z</time></trkpt><trkpt lat="43.4423499" lon="11.548992"><ele>594.0</ele><time>2026-04-03T14:01:19.033Z</time></trkpt><trkpt lat="43.442345" lon="11.5488631"><ele>594.0</ele><time>2026-04-03T14:01:20.03Z</time></trkpt><trkpt lat="43.442333" lon="11.5487362"><ele>594.0</ele><time>2026-04-03T14:01:21.027Z</time></trkpt><trkpt lat="43.4423234" lon="11.5486092"><ele>594.0</ele><time>2026-04-03T14:01:22.028Z</time></trkpt><trkpt lat="43.4423235" lon="11.5484876"><ele>594.0</ele><time>2026-04-03T14:01:23.03Z</time></trkpt><trkpt lat="43.4423285" lon="11.5483776"><ele>594.0</ele><time>2026-04-03T14:01:24.031Z</time></trkpt><trkpt lat="43.4423302" lon="11.5482611"><ele>593.6666666666666</ele><time>2026-04-03T14:01:25.035Z</time></trkpt><trkpt lat="43.4423317" lon="11.5481387"><ele>593.3333333333334</ele><time>2026-04-03T14:01:26.026Z</time></trkpt><trkpt lat="43.4423313" lon="11.5480228"><ele>593.0</ele><time>2026-04-03T14:01:27.033Z</time></trkpt><trkpt lat="43.4423206" lon="11.547913"><ele>592.6666666666667</ele><time>2026-04-03T14:01:28.031Z</time></trkpt><trkpt lat="43.4423016" lon="11.547813"><ele>592.3333333333334</ele><time>2026-04-03T14:01:29.036Z</time></trkpt><trkpt lat="43.442274" lon="11.5477189"><ele>592.0</ele><time>2026-04-03T14:01:30.033Z</time></trkpt><trkpt lat="43.442247" lon="11.5476153"><ele>592.0</ele><time>2026-04-03T14:01:31.027Z</time></trkpt><trkpt lat="43.4422154" lon="11.5475348"><ele>592.0</ele><time>2026-04-03T14:01:32.042Z</time></trkpt><trkpt lat="43.4421793" lon="11.5473958"><ele>592.0</ele><time>2026-04-03T14:01:34.041Z</time></trkpt><trkpt lat="43.4421833" lon="11.5472232"><ele>592.0</ele><time>2026-04-03T14:01:36.037Z</time></trkpt><trkpt lat="43.4421905" lon="11.5471359"><ele>592.0</ele><time>2026-04-03T14:01:37.033Z</time></trkpt><trkpt lat="43.4422392" lon="11.5469923"><ele>593.5</ele><time>2026-04-03T14:01:39.021Z</time></trkpt><trkpt lat="43.4422827" lon="11.5468677"><ele>595.0</ele><time>2026-04-03T14:01:41.025Z</time></trkpt><trkpt lat="43.4423359" lon="11.5467262"><ele>596.5</ele><time>2026-04-03T14:01:43.034Z</time></trkpt><trkpt lat="43.4423737" lon="11.546649"><ele>598.0</ele><time>2026-04-03T14:01:44.032Z</time></trkpt><trkpt lat="43.4424175" lon="11.54657"><ele>599.5</ele><time>2026-04-03T14:01:45.033Z</time></trkpt><trkpt lat="43.4424732" lon="11.5464936"><ele>601.0</ele><time>2026-04-03T14:01:46.031Z</time></trkpt><trkpt lat="43.4425295" lon="11.5464375"><ele>601.0</ele><time>2026-04-03T14:01:47.039Z</time></trkpt><trkpt lat="43.4426064" lon="11.546366"><ele>601.0</ele><time>2026-04-03T14:01:49.031Z</time></trkpt><trkpt lat="43.4426616" lon="11.5463212"><ele>601.0</ele><time>2026-04-03T14:01:52.03Z</time></trkpt><trkpt lat="43.4427061" lon="11.5462078"><ele>601.0</ele><time>2026-04-03T14:02:07.015Z</time></trkpt><trkpt lat="43.4427651" lon="11.5461588"><ele>601.0</ele><time>2026-04-03T14:02:08.03Z</time></trkpt><trkpt lat="43.4428387" lon="11.5460395"><ele>601.0</ele><time>2026-04-03T14:02:10.045Z</time></trkpt><trkpt lat="43.4428778" lon="11.5459326"><ele>601.0</ele><time>2026-04-03T14:02:12.021Z</time></trkpt><trkpt lat="43.442925" lon="11.5458372"><ele>601.0</ele><time>2026-04-03T14:02:14.043Z</time></trkpt><trkpt lat="43.4429354" lon="11.545729"><ele>601.0</ele><time>2026-04-03T14:02:16.049Z</time></trkpt><trkpt lat="43.4429254" lon="11.5455961"><ele>601.0</ele><time>2026-04-03T14:02:18.041Z</time></trkpt><trkpt lat="43.4428698" lon="11.54544"><ele>601.0</ele><time>2026-04-03T14:02:20.04Z</time></trkpt><trkpt lat="43.4428115" lon="11.5453027"><ele>601.0</ele><time>2026-04-03T14:02:22.039Z</time></trkpt><trkpt lat="43.4427619" lon="11.5451903"><ele>601.0</ele><time>2026-04-03T14:02:24.043Z</time></trkpt><trkpt lat="43.4427281" lon="11.5450829"><ele>601.0</ele><time>2026-04-03T14:02:26.043Z</time></trkpt><trkpt lat="43.442692" lon="11.5450004"><ele>601.0</ele><time>2026-04-03T14:02:28.032Z</time></trkpt><trkpt lat="43.4426398" lon="11.5448961"><ele>601.0</ele><time>2026-04-03T14:02:30.043Z</time></trkpt><trkpt lat="43.442584" lon="11.5447696"><ele>601.0</ele><time>2026-04-03T14:02:32.023Z</time></trkpt><trkpt lat="43.442535" lon="11.5446673"><ele>601.0</ele><time>2026-04-03T14:02:34.027Z</time></trkpt><trkpt lat="43.4424938" lon="11.5445789"><ele>601.0</ele><time>2026-04-03T14:02:36.03Z</time></trkpt><trkpt lat="43.4424539" lon="11.5444887"><ele>601.0</ele><time>2026-04-03T14:02:38.031Z</time></trkpt><trkpt lat="43.4424349" lon="11.5443864"><ele>601.0</ele><time>2026-04-03T14:02:40.03Z</time></trkpt><trkpt lat="43.4424082" lon="11.5442784"><ele>601.0</ele><time>2026-04-03T14:02:42.032Z</time></trkpt><trkpt lat="43.4423875" lon="11.5441803"><ele>598.8</ele><time>2026-04-03T14:02:44.032Z</time></trkpt><trkpt lat="43.4423714" lon="11.5440626"><ele>596.6</ele><time>2026-04-03T14:02:46.031Z</time></trkpt><trkpt lat="43.4423338" lon="11.5439264"><ele>594.4</ele><time>2026-04-03T14:02:48.03Z</time></trkpt><trkpt lat="43.4422919" lon="11.5437833"><ele>592.2</ele><time>2026-04-03T14:02:50.032Z</time></trkpt><trkpt lat="43.4422839" lon="11.5436478"><ele>590.0</ele><time>2026-04-03T14:02:52.042Z</time></trkpt><trkpt lat="43.4422957" lon="11.5434934"><ele>589.0</ele><time>2026-04-03T14:02:54.035Z</time></trkpt><trkpt lat="43.442309" lon="11.5433222"><ele>588.0</ele><time>2026-04-03T14:02:56.032Z</time></trkpt><trkpt lat="43.4423477" lon="11.5431561"><ele>587.0</ele><time>2026-04-03T14:02:58.037Z</time></trkpt><trkpt lat="43.4423821" lon="11.5430042"><ele>586.0</ele><time>2026-04-03T14:03:00.032Z</time></trkpt><trkpt lat="43.4423942" lon="11.5428563"><ele>585.6</ele><time>2026-04-03T14:03:02.034Z</time></trkpt><trkpt lat="43.4423592" lon="11.5427057"><ele>585.2</ele><time>2026-04-03T14:03:04.028Z</time></trkpt><trkpt lat="43.4423079" lon="11.5425699"><ele>584.8</ele><time>2026-04-03T14:03:06.028Z</time></trkpt><trkpt lat="43.4422559" lon="11.5424649"><ele>584.4</ele><time>2026-04-03T14:03:08.031Z</time></trkpt><trkpt lat="43.4421847" lon="11.5423684"><ele>584.0</ele><time>2026-04-03T14:03:10.025Z</time></trkpt><trkpt lat="43.4421328" lon="11.5422509"><ele>582.8</ele><time>2026-04-03T14:03:12.032Z</time></trkpt><trkpt lat="43.4420861" lon="11.5421573"><ele>581.5999999999999</ele><time>2026-04-03T14:03:14.029Z</time></trkpt><trkpt lat="43.4420232" lon="11.5420477"><ele>580.4</ele><time>2026-04-03T14:03:16.039Z</time></trkpt><trkpt lat="43.4419301" lon="11.5419582"><ele>579.1999999999999</ele><time>2026-04-03T14:03:18.032Z</time></trkpt><trkpt lat="43.4418681" lon="11.5419177"><ele>578.0</ele><time>2026-04-03T14:03:19.028Z</time></trkpt><trkpt lat="43.4417609" lon="11.5418429"><ele>581.8</ele><time>2026-04-03T14:03:21.031Z</time></trkpt><trkpt lat="43.4416469" lon="11.5417641"><ele>585.5999999999999</ele><time>2026-04-03T14:03:23.037Z</time></trkpt><trkpt lat="43.4415857" lon="11.5417236"><ele>589.4000000000001</ele><time>2026-04-03T14:03:24.038Z</time></trkpt><trkpt lat="43.441498" lon="11.5416489"><ele>593.2</ele><time>2026-04-03T14:03:26.031Z</time></trkpt><trkpt lat="43.4414341" lon="11.5415692"><ele>597.0</ele><time>2026-04-03T14:03:28.031Z</time></trkpt><trkpt lat="43.4413624" lon="11.5414765"><ele>596.0</ele><time>2026-04-03T14:03:30.033Z</time></trkpt><trkpt lat="43.4412795" lon="11.5413526"><ele>595.0</ele><time>2026-04-03T14:03:32.042Z</time></trkpt><trkpt lat="43.4411937" lon="11.5412366"><ele>594.0</ele><time>2026-04-03T14:03:34.024Z</time></trkpt><trkpt lat="43.4411133" lon="11.5411331"><ele>593.0</ele><time>2026-04-03T14:03:36.035Z</time></trkpt><trkpt lat="43.4410441" lon="11.5410325"><ele>593.0</ele><time>2026-04-03T14:03:38.032Z</time></trkpt><trkpt lat="43.4409665" lon="11.54094"><ele>593.0</ele><time>2026-04-03T14:03:40.039Z</time></trkpt><trkpt lat="43.4408745" lon="11.5408252"><ele>593.0</ele><time>2026-04-03T14:03:42.031Z</time></trkpt><trkpt lat="43.4408125" lon="11.5407574"><ele>593.0</ele><time>2026-04-03T14:03:43.029Z</time></trkpt><trkpt lat="43.4407485" lon="11.5406917"><ele>593.0</ele><time>2026-04-03T14:03:44.037Z</time></trkpt><trkpt lat="43.4406929" lon="11.5406338"><ele>593.0</ele><time>2026-04-03T14:03:45.018Z</time></trkpt><trkpt lat="43.4406062" lon="11.5405342"><ele>593.0</ele><time>2026-04-03T14:03:47.024Z</time></trkpt><trkpt lat="43.4405665" lon="11.5404567"><ele>593.0</ele><time>2026-04-03T14:03:49.027Z</time></trkpt><trkpt lat="43.4406063" lon="11.5403489"><ele>593.0</ele><time>2026-04-03T14:04:09.035Z</time></trkpt><trkpt lat="43.4406822" lon="11.540278"><ele>593.0</ele><time>2026-04-03T14:04:12.037Z</time></trkpt><trkpt lat="43.4407654" lon="11.5402205"><ele>592.6666666666666</ele><time>2026-04-03T14:04:14.039Z</time></trkpt><trkpt lat="43.440829" lon="11.5401838"><ele>592.3333333333333</ele><time>2026-04-03T14:04:15.032Z</time></trkpt><trkpt lat="43.4408916" lon="11.5401535"><ele>592.0</ele><time>2026-04-03T14:04:16.04Z</time></trkpt><trkpt lat="43.4409894" lon="11.5401261"><ele>591.6666666666666</ele><time>2026-04-03T14:04:18.038Z</time></trkpt><trkpt lat="43.4410971" lon="11.5400759"><ele>591.3333333333334</ele><time>2026-04-03T14:04:20.038Z</time></trkpt><trkpt lat="43.4411605" lon="11.5400257"><ele>591.0</ele><time>2026-04-03T14:04:21.04Z</time></trkpt><trkpt lat="43.4412141" lon="11.539974"><ele>591.0</ele><time>2026-04-03T14:04:22.031Z</time></trkpt><trkpt lat="43.4412926" lon="11.5398705"><ele>591.0</ele><time>2026-04-03T14:04:24.037Z</time></trkpt><trkpt lat="43.4413212" lon="11.5397925"><ele>591.0</ele><time>2026-04-03T14:04:25.032Z</time></trkpt><trkpt lat="43.4413435" lon="11.5397021"><ele>591.0</ele><time>2026-04-03T14:04:26.03Z</time></trkpt><trkpt lat="43.4413746" lon="11.5395317"><ele>591.0</ele><time>2026-04-03T14:04:28.043Z</time></trkpt><trkpt lat="43.4413858" lon="11.5394395"><ele>591.0</ele><time>2026-04-03T14:04:29.011Z</time></trkpt><trkpt lat="43.4413887" lon="11.5393317"><ele>594.3333333333334</ele><time>2026-04-03T14:04:30.039Z</time></trkpt><trkpt lat="43.4413881" lon="11.5392213"><ele>597.6666666666666</ele><time>2026-04-03T14:04:31.035Z</time></trkpt><trkpt lat="43.4413924" lon="11.5391281"><ele>601.0</ele><time>2026-04-03T14:04:32.021Z</time></trkpt><trkpt lat="43.4413885" lon="11.5390389"><ele>604.3333333333333</ele><time>2026-04-03T14:04:33.029Z</time></trkpt><trkpt lat="43.4413879" lon="11.5389506"><ele>607.6666666666666</ele><time>2026-04-03T14:04:34.022Z</time></trkpt><trkpt lat="43.4413787" lon="11.5388307"><ele>611.0</ele><time>2026-04-03T14:04:36.031Z</time></trkpt><trkpt lat="43.4413619" lon="11.5387008"><ele>611.0</ele><time>2026-04-03T14:04:39.027Z</time></trkpt><trkpt lat="43.4413354" lon="11.5385666"><ele>611.0</ele><time>2026-04-03T14:04:41.021Z</time></trkpt><trkpt lat="43.4413279" lon="11.5384757"><ele>611.0</ele><time>2026-04-03T14:04:42.027Z</time></trkpt><trkpt lat="43.4413326" lon="11.5383832"><ele>611.0</ele><time>2026-04-03T14:04:43.018Z</time></trkpt><trkpt lat="43.4413492" lon="11.5382965"><ele>611.0</ele><time>2026-04-03T14:04:44.04Z</time></trkpt><trkpt lat="43.4413964" lon="11.538172"><ele>611.0</ele><time>2026-04-03T14:04:46.024Z</time></trkpt><trkpt lat="43.4414087" lon="11.5380238"><ele>611.0</ele><time>2026-04-03T14:04:48.032Z</time></trkpt><trkpt lat="43.4414021" lon="11.5379167"><ele>611.0</ele><time>2026-04-03T14:04:49.036Z</time></trkpt><trkpt lat="43.4414097" lon="11.5377985"><ele>611.0</ele><time>2026-04-03T14:04:50.038Z</time></trkpt><trkpt lat="43.4414207" lon="11.537672"><ele>611.0</ele><time>2026-04-03T14:04:51.03Z</time></trkpt><trkpt lat="43.4414348" lon="11.5375535"><ele>611.0</ele><time>2026-04-03T14:04:52.035Z</time></trkpt><trkpt lat="43.4414471" lon="11.5374601"><ele>611.0</ele><time>2026-04-03T14:04:53.036Z</time></trkpt><trkpt lat="43.4414467" lon="11.5372936"><ele>611.5</ele><time>2026-04-03T14:04:55.017Z</time></trkpt><trkpt lat="43.4414131" lon="11.5372109"><ele>612.0</ele><time>2026-04-03T14:04:56.045Z</time></trkpt><trkpt lat="43.4413585" lon="11.537144"><ele>612.5</ele><time>2026-04-03T14:04:57.019Z</time></trkpt><trkpt lat="43.4413049" lon="11.5370765"><ele>613.0</ele><time>2026-04-03T14:04:58.032Z</time></trkpt><trkpt lat="43.4412598" lon="11.5369966"><ele>613.5</ele><time>2026-04-03T14:04:59.02Z</time></trkpt><trkpt lat="43.4412317" lon="11.5369149"><ele>614.0</ele><time>2026-04-03T14:05:00.04Z</time></trkpt><trkpt lat="43.4412351" lon="11.5367602"><ele>609.2</ele><time>2026-04-03T14:05:02.03Z</time></trkpt><trkpt lat="43.4412518" lon="11.5365875"><ele>604.4</ele><time>2026-04-03T14:05:04.035Z</time></trkpt><trkpt lat="43.4412428" lon="11.5364965"><ele>599.6</ele><time>2026-04-03T14:05:05.023Z</time></trkpt><trkpt lat="43.4412473" lon="11.5363322"><ele>594.8</ele><time>2026-04-03T14:05:07.025Z</time></trkpt><trkpt lat="43.4412665" lon="11.536158"><ele>590.0</ele><time>2026-04-03T14:05:09.031Z</time></trkpt><trkpt lat="43.4412712" lon="11.536052"><ele>590.0</ele><time>2026-04-03T14:05:10.03Z</time></trkpt><trkpt lat="43.4412622" lon="11.5359423"><ele>590.0</ele><time>2026-04-03T14:05:11.029Z</time></trkpt><trkpt lat="43.4412458" lon="11.5358509"><ele>590.0</ele><time>2026-04-03T14:05:12.038Z</time></trkpt><trkpt lat="43.4412282" lon="11.535689"><ele>590.0</ele><time>2026-04-03T14:05:14.027Z</time></trkpt><trkpt lat="43.4412252" lon="11.535591"><ele>590.0</ele><time>2026-04-03T14:05:15.022Z</time></trkpt><trkpt lat="43.4412213" lon="11.5354968"><ele>590.0</ele><time>2026-04-03T14:05:16.036Z</time></trkpt><trkpt lat="43.4411962" lon="11.5353403"><ele>595.0</ele><time>2026-04-03T14:05:18.027Z</time></trkpt><trkpt lat="43.4411215" lon="11.5352264"><ele>600.0</ele><time>2026-04-03T14:05:20.023Z</time></trkpt><trkpt lat="43.4410195" lon="11.5351107"><ele>605.0</ele><time>2026-04-03T14:05:22.03Z</time></trkpt><trkpt lat="43.4409525" lon="11.5350555"><ele>610.0</ele><time>2026-04-03T14:05:23.019Z</time></trkpt><trkpt lat="43.4408708" lon="11.535018"><ele>615.0</ele><time>2026-04-03T14:05:24.032Z</time></trkpt><trkpt lat="43.4407974" lon="11.5349803"><ele>615.0</ele><time>2026-04-03T14:05:25.016Z</time></trkpt><trkpt lat="43.4407336" lon="11.5349383"><ele>615.0</ele><time>2026-04-03T14:05:26.017Z</time></trkpt><trkpt lat="43.4406688" lon="11.5349068"><ele>615.0</ele><time>2026-04-03T14:05:27.013Z</time></trkpt><trkpt lat="43.4405465" lon="11.5348855"><ele>615.0</ele><time>2026-04-03T14:05:29.013Z</time></trkpt><trkpt lat="43.4404229" lon="11.5348803"><ele>615.0</ele><time>2026-04-03T14:05:31.023Z</time></trkpt><trkpt lat="43.4403191" lon="11.5348592"><ele>616.3333333333334</ele><time>2026-04-03T14:05:33.022Z</time></trkpt><trkpt lat="43.4402293" lon="11.5347597"><ele>617.6666666666666</ele><time>2026-04-03T14:05:35.018Z</time></trkpt><trkpt lat="43.440196" lon="11.5346825"><ele>619.0</ele><time>2026-04-03T14:05:36.021Z</time></trkpt><trkpt lat="43.4401283" lon="11.5345498"><ele>620.3333333333333</ele><time>2026-04-03T14:05:38.038Z</time></trkpt><trkpt lat="43.4400675" lon="11.5345162"><ele>621.6666666666666</ele><time>2026-04-03T14:05:39.014Z</time></trkpt><trkpt lat="43.4399894" lon="11.5345017"><ele>623.0</ele><time>2026-04-03T14:05:40.029Z</time></trkpt><trkpt lat="43.4398982" lon="11.5344935"><ele>623.0</ele><time>2026-04-03T14:05:41.026Z</time></trkpt><trkpt lat="43.4398115" lon="11.5344767"><ele>623.0</ele><time>2026-04-03T14:05:42.021Z</time></trkpt><trkpt lat="43.4397415" lon="11.5344601"><ele>623.0</ele><time>2026-04-03T14:05:43.087Z</time></trkpt><trkpt lat="43.4396538" lon="11.5344242"><ele>623.0</ele><time>2026-04-03T14:05:45.025Z</time></trkpt><trkpt lat="43.4395893" lon="11.5344123"><ele>623.0</ele><time>2026-04-03T14:05:49.036Z</time></trkpt><trkpt lat="43.4395286" lon="11.5343862"><ele>623.0</ele><time>2026-04-03T14:06:43.024Z</time></trkpt><trkpt lat="43.4394685" lon="11.5343318"><ele>620.0</ele><time>2026-04-03T14:06:47.03Z</time></trkpt><trkpt lat="43.439388" lon="11.5342947"><ele>617.0</ele><time>2026-04-03T14:06:56.041Z</time></trkpt><trkpt lat="43.4393193" lon="11.5342479"><ele>614.0</ele><time>2026-04-03T14:06:59.021Z</time></trkpt><trkpt lat="43.4392514" lon="11.5342051"><ele>611.0</ele><time>2026-04-03T14:07:02.026Z</time></trkpt><trkpt lat="43.4391743" lon="11.5341637"><ele>608.0</ele><time>2026-04-03T14:07:05.041Z</time></trkpt><trkpt lat="43.4391161" lon="11.5341174"><ele>605.0</ele><time>2026-04-03T14:07:08.03Z</time></trkpt><trkpt lat="43.439044" lon="11.5340681"><ele>605.0</ele><time>2026-04-03T14:07:12.035Z</time></trkpt><trkpt lat="43.4390013" lon="11.533993"><ele>605.0</ele><time>2026-04-03T14:07:15.024Z</time></trkpt><trkpt lat="43.4389695" lon="11.5339096"><ele>605.0</ele><time>2026-04-03T14:07:18.024Z</time></trkpt><trkpt lat="43.4389769" lon="11.533778"><ele>605.0</ele><time>2026-04-03T14:07:21.032Z</time></trkpt><trkpt lat="43.4390177" lon="11.5337087"><ele>605.0</ele><time>2026-04-03T14:07:23.026Z</time></trkpt><trkpt lat="43.4390593" lon="11.5336429"><ele>605.0</ele><time>2026-04-03T14:07:26.028Z</time></trkpt><trkpt lat="43.4391392" lon="11.5335895"><ele>604.1666666666666</ele><time>2026-04-03T14:07:53.033Z</time></trkpt><trkpt lat="43.4392114" lon="11.5335475"><ele>603.3333333333333</ele><time>2026-04-03T14:07:55.032Z</time></trkpt><trkpt lat="43.4392901" lon="11.5335225"><ele>602.5</ele><time>2026-04-03T14:08:35.028Z</time></trkpt><trkpt lat="43.4393484" lon="11.5334523"><ele>601.6666666666666</ele><time>2026-04-03T14:08:37.038Z</time></trkpt><trkpt lat="43.4394041" lon="11.5333612"><ele>600.8333333333334</ele><time>2026-04-03T14:08:39.032Z</time></trkpt><trkpt lat="43.4394803" lon="11.5332556"><ele>600.0</ele><time>2026-04-03T14:08:41.034Z</time></trkpt><trkpt lat="43.4395807" lon="11.5331693"><ele>603.1666666666666</ele><time>2026-04-03T14:08:43.025Z</time></trkpt><trkpt lat="43.4396817" lon="11.5330873"><ele>606.3333333333334</ele><time>2026-04-03T14:08:45.031Z</time></trkpt><trkpt lat="43.4397635" lon="11.5329738"><ele>609.5</ele><time>2026-04-03T14:08:47.035Z</time></trkpt><trkpt lat="43.4398024" lon="11.5329024"><ele>612.6666666666667</ele><time>2026-04-03T14:08:48.008Z</time></trkpt><trkpt lat="43.4398455" lon="11.5328311"><ele>615.8333333333334</ele><time>2026-04-03T14:08:49.028Z</time></trkpt><trkpt lat="43.4398992" lon="11.5327582"><ele>619.0</ele><time>2026-04-03T14:08:50.032Z</time></trkpt><trkpt lat="43.4399551" lon="11.5326788"><ele>619.0</ele><time>2026-04-03T14:08:51.023Z</time></trkpt><trkpt lat="43.4400135" lon="11.5325989"><ele>619.0</ele><time>2026-04-03T14:08:52.035Z</time></trkpt><trkpt lat="43.440074" lon="11.5325208"><ele>619.0</ele><time>2026-04-03T14:08:53.028Z</time></trkpt><trkpt lat="43.4401326" lon="11.532444"><ele>619.0</ele><time>2026-04-03T14:08:54.033Z</time></trkpt><trkpt lat="43.4401809" lon="11.5323615"><ele>619.0</ele><time>2026-04-03T14:08:55.038Z</time></trkpt><trkpt lat="43.4402116" lon="11.5322717"><ele>619.0</ele><time>2026-04-03T14:08:56.03Z</time></trkpt><trkpt lat="43.4402188" lon="11.5321803"><ele>619.0</ele><time>2026-04-03T14:08:57.031Z</time></trkpt><trkpt lat="43.4402008" lon="11.5320954"><ele>619.0</ele><time>2026-04-03T14:08:58.035Z</time></trkpt><trkpt lat="43.440168" lon="11.5320186"><ele>619.0</ele><time>2026-04-03T14:08:59.023Z</time></trkpt><trkpt lat="43.4401189" lon="11.5319544"><ele>619.0</ele><time>2026-04-03T14:09:00.039Z</time></trkpt><trkpt lat="43.4400635" lon="11.5318897"><ele>619.0</ele><time>2026-04-03T14:09:01.015Z</time></trkpt><trkpt lat="43.4400022" lon="11.5318319"><ele>619.0</ele><time>2026-04-03T14:09:02.036Z</time></trkpt><trkpt lat="43.4399388" lon="11.5317716"><ele>619.0</ele><time>2026-04-03T14:09:03.028Z</time></trkpt><trkpt lat="43.4398885" lon="11.5317015"><ele>619.3333333333334</ele><time>2026-04-03T14:09:04.04Z</time></trkpt><trkpt lat="43.4398634" lon="11.5316166"><ele>619.6666666666667</ele><time>2026-04-03T14:09:05.028Z</time></trkpt><trkpt lat="43.4398594" lon="11.5315275"><ele>620.0</ele><time>2026-04-03T14:09:06.034Z</time></trkpt><trkpt lat="43.4399251" lon="11.5313905"><ele>620.3333333333334</ele><time>2026-04-03T14:09:08.042Z</time></trkpt><trkpt lat="43.4399886" lon="11.5313529"><ele>620.6666666666666</ele><time>2026-04-03T14:09:09.029Z</time></trkpt><trkpt lat="43.440053" lon="11.5313144"><ele>621.0</ele><time>2026-04-03T14:09:10.032Z</time></trkpt><trkpt lat="43.4401145" lon="11.5312676"><ele>620.8333333333334</ele><time>2026-04-03T14:09:11.031Z</time></trkpt><trkpt lat="43.440179" lon="11.5312224"><ele>620.6666666666666</ele><time>2026-04-03T14:09:12.04Z</time></trkpt><trkpt lat="43.4402459" lon="11.5311758"><ele>620.5</ele><time>2026-04-03T14:09:13.033Z</time></trkpt><trkpt lat="43.4403115" lon="11.531121"><ele>620.3333333333333</ele><time>2026-04-03T14:09:14.045Z</time></trkpt><trkpt lat="43.4403748" lon="11.5310509"><ele>620.1666666666666</ele><time>2026-04-03T14:09:15.037Z</time></trkpt><trkpt lat="43.4404206" lon="11.5309575"><ele>620.0</ele><time>2026-04-03T14:09:16.027Z</time></trkpt><trkpt lat="43.4404468" lon="11.5308494"><ele>620.0</ele><time>2026-04-03T14:09:17.034Z</time></trkpt><trkpt lat="43.4404593" lon="11.5307236"><ele>620.0</ele><time>2026-04-03T14:09:18.02Z</time></trkpt><trkpt lat="43.440475" lon="11.5306147"><ele>620.0</ele><time>2026-04-03T14:09:19.028Z</time></trkpt><trkpt lat="43.4404977" lon="11.5305032"><ele>620.0</ele><time>2026-04-03T14:09:20.034Z</time></trkpt><trkpt lat="43.4405349" lon="11.5304001"><ele>620.0</ele><time>2026-04-03T14:09:21.024Z</time></trkpt><trkpt lat="43.440584" lon="11.5303183"><ele>620.0</ele><time>2026-04-03T14:09:22.026Z</time></trkpt><trkpt lat="43.4406362" lon="11.5302597"><ele>621.8333333333333</ele><time>2026-04-03T14:09:23.026Z</time></trkpt><trkpt lat="43.4406843" lon="11.5301901"><ele>623.6666666666666</ele><time>2026-04-03T14:09:24.029Z</time></trkpt><trkpt lat="43.440726" lon="11.5300985"><ele>625.5</ele><time>2026-04-03T14:09:25.024Z</time></trkpt><trkpt lat="43.440768" lon="11.5299995"><ele>627.3333333333334</ele><time>2026-04-03T14:09:26.022Z</time></trkpt><trkpt lat="43.4408034" lon="11.5299044"><ele>629.1666666666667</ele><time>2026-04-03T14:09:27.027Z</time></trkpt><trkpt lat="43.4408342" lon="11.5298159"><ele>631.0</ele><time>2026-04-03T14:09:28.038Z</time></trkpt><trkpt lat="43.4408663" lon="11.5297275"><ele>631.0</ele><time>2026-04-03T14:09:29.033Z</time></trkpt><trkpt lat="43.4408922" lon="11.5296306"><ele>631.0</ele><time>2026-04-03T14:09:30.039Z</time></trkpt><trkpt lat="43.440901" lon="11.5295278"><ele>631.0</ele><time>2026-04-03T14:09:31.023Z</time></trkpt><trkpt lat="43.4408906" lon="11.5294102"><ele>631.0</ele><time>2026-04-03T14:09:32.026Z</time></trkpt><trkpt lat="43.4408753" lon="11.5292885"><ele>631.0</ele><time>2026-04-03T14:09:33.022Z</time></trkpt><trkpt lat="43.4408595" lon="11.5291619"><ele>631.0</ele><time>2026-04-03T14:09:34.039Z</time></trkpt><trkpt lat="43.4408536" lon="11.529047"><ele>629.7142857142858</ele><time>2026-04-03T14:09:35.041Z</time></trkpt><trkpt lat="43.4408487" lon="11.5289455"><ele>628.4285714285713</ele><time>2026-04-03T14:09:36.033Z</time></trkpt><trkpt lat="43.4408516" lon="11.5288514"><ele>627.1428571428571</ele><time>2026-04-03T14:09:37.02Z</time></trkpt><trkpt lat="43.4408641" lon="11.5287556"><ele>625.8571428571429</ele><time>2026-04-03T14:09:38.031Z</time></trkpt><trkpt lat="43.4408784" lon="11.5286539"><ele>624.5714285714287</ele><time>2026-04-03T14:09:39.023Z</time></trkpt><trkpt lat="43.4409108" lon="11.5285575"><ele>623.2857142857142</ele><time>2026-04-03T14:09:40.038Z</time></trkpt><trkpt lat="43.4409492" lon="11.5284584"><ele>622.0</ele><time>2026-04-03T14:09:41.021Z</time></trkpt><trkpt lat="43.4409856" lon="11.528351"><ele>622.0</ele><time>2026-04-03T14:09:42.036Z</time></trkpt><trkpt lat="43.4410239" lon="11.5282431"><ele>622.0</ele><time>2026-04-03T14:09:43.03Z</time></trkpt><trkpt lat="43.4410715" lon="11.5281413"><ele>622.0</ele><time>2026-04-03T14:09:44.029Z</time></trkpt><trkpt lat="43.4411229" lon="11.5280421"><ele>622.0</ele><time>2026-04-03T14:09:45.022Z</time></trkpt><trkpt lat="43.4411764" lon="11.5279446"><ele>622.0</ele><time>2026-04-03T14:09:46.036Z</time></trkpt><trkpt lat="43.441232" lon="11.5278453"><ele>622.0</ele><time>2026-04-03T14:09:47.032Z</time></trkpt><trkpt lat="43.4412871" lon="11.5277576"><ele>620.5714285714286</ele><time>2026-04-03T14:09:48.047Z</time></trkpt><trkpt lat="43.4413437" lon="11.5276896"><ele>619.1428571428572</ele><time>2026-04-03T14:09:49.028Z</time></trkpt><trkpt lat="43.4413979" lon="11.5276324"><ele>617.7142857142858</ele><time>2026-04-03T14:09:50.035Z</time></trkpt><trkpt lat="43.4414535" lon="11.5275775"><ele>616.2857142857142</ele><time>2026-04-03T14:09:51.024Z</time></trkpt><trkpt lat="43.4415204" lon="11.5275307"><ele>614.8571428571429</ele><time>2026-04-03T14:09:52.021Z</time></trkpt><trkpt lat="43.4415938" lon="11.5274925"><ele>613.4285714285714</ele><time>2026-04-03T14:09:53.028Z</time></trkpt><trkpt lat="43.4416677" lon="11.527454"><ele>612.0</ele><time>2026-04-03T14:09:54.026Z</time></trkpt><trkpt lat="43.4417441" lon="11.5274122"><ele>612.0</ele><time>2026-04-03T14:09:55.029Z</time></trkpt><trkpt lat="43.4418284" lon="11.5273638"><ele>612.0</ele><time>2026-04-03T14:09:56.035Z</time></trkpt><trkpt lat="43.4419108" lon="11.5273071"><ele>612.0</ele><time>2026-04-03T14:09:57.033Z</time></trkpt><trkpt lat="43.4419928" lon="11.5272453"><ele>612.0</ele><time>2026-04-03T14:09:58.04Z</time></trkpt><trkpt lat="43.442073" lon="11.527201"><ele>612.0</ele><time>2026-04-03T14:09:59.034Z</time></trkpt><trkpt lat="43.4421586" lon="11.527183"><ele>611.4</ele><time>2026-04-03T14:10:00.032Z</time></trkpt><trkpt lat="43.4422479" lon="11.5271858"><ele>610.8000000000001</ele><time>2026-04-03T14:10:01.027Z</time></trkpt><trkpt lat="43.4423412" lon="11.5272083"><ele>610.2</ele><time>2026-04-03T14:10:02.039Z</time></trkpt><trkpt lat="43.4424308" lon="11.5272272"><ele>609.6</ele><time>2026-04-03T14:10:03.028Z</time></trkpt><trkpt lat="43.4425269" lon="11.5272398"><ele>609.0</ele><time>2026-04-03T14:10:04.046Z</time></trkpt><trkpt lat="43.4426196" lon="11.5272491"><ele>609.0</ele><time>2026-04-03T14:10:05.033Z</time></trkpt><trkpt lat="43.4427165" lon="11.5272488"><ele>609.0</ele><time>2026-04-03T14:10:06.035Z</time></trkpt><trkpt lat="43.4428074" lon="11.5272371"><ele>609.0</ele><time>2026-04-03T14:10:07.037Z</time></trkpt><trkpt lat="43.4428946" lon="11.5272061"><ele>609.0</ele><time>2026-04-03T14:10:08.034Z</time></trkpt><trkpt lat="43.442966" lon="11.5271574"><ele>609.0</ele><time>2026-04-03T14:10:09.042Z</time></trkpt><trkpt lat="43.4430209" lon="11.5270916"><ele>609.0</ele><time>2026-04-03T14:10:10.042Z</time></trkpt><trkpt lat="43.4430703" lon="11.5270086"><ele>610.3333333333334</ele><time>2026-04-03T14:10:11.039Z</time></trkpt><trkpt lat="43.443108" lon="11.5269121"><ele>611.6666666666666</ele><time>2026-04-03T14:10:12.044Z</time></trkpt><trkpt lat="43.4431475" lon="11.5268126"><ele>613.0</ele><time>2026-04-03T14:10:13.03Z</time></trkpt><trkpt lat="43.4431826" lon="11.5267109"><ele>614.3333333333333</ele><time>2026-04-03T14:10:14.027Z</time></trkpt><trkpt lat="43.4432073" lon="11.5266011"><ele>615.6666666666666</ele><time>2026-04-03T14:10:15.029Z</time></trkpt><trkpt lat="43.4432164" lon="11.5264855"><ele>617.0</ele><time>2026-04-03T14:10:16.028Z</time></trkpt><trkpt lat="43.4432116" lon="11.5263687"><ele>617.0</ele><time>2026-04-03T14:10:17.022Z</time></trkpt><trkpt lat="43.4431953" lon="11.5262489"><ele>617.0</ele><time>2026-04-03T14:10:18.024Z</time></trkpt><trkpt lat="43.4431689" lon="11.5261348"><ele>617.0</ele><time>2026-04-03T14:10:19.026Z</time></trkpt><trkpt lat="43.4431368" lon="11.5260188"><ele>617.0</ele><time>2026-04-03T14:10:20.026Z</time></trkpt><trkpt lat="43.4431049" lon="11.5259074"><ele>617.0</ele><time>2026-04-03T14:10:21.032Z</time></trkpt><trkpt lat="43.4430755" lon="11.5257978"><ele>617.0</ele><time>2026-04-03T14:10:22.031Z</time></trkpt><trkpt lat="43.4430476" lon="11.5256901"><ele>616.8333333333333</ele><time>2026-04-03T14:10:23.028Z</time></trkpt><trkpt lat="43.4430204" lon="11.525582"><ele>616.6666666666666</ele><time>2026-04-03T14:10:24.029Z</time></trkpt><trkpt lat="43.4429866" lon="11.5254797"><ele>616.5</ele><time>2026-04-03T14:10:25.036Z</time></trkpt><trkpt lat="43.4429514" lon="11.5253808"><ele>616.3333333333334</ele><time>2026-04-03T14:10:26.023Z</time></trkpt><trkpt lat="43.4429147" lon="11.5252869"><ele>616.1666666666667</ele><time>2026-04-03T14:10:27.018Z</time></trkpt><trkpt lat="43.4428727" lon="11.5251874"><ele>616.0</ele><time>2026-04-03T14:10:28.03Z</time></trkpt><trkpt lat="43.4428402" lon="11.5250815"><ele>616.8</ele><time>2026-04-03T14:10:29.031Z</time></trkpt><trkpt lat="43.4428033" lon="11.524969"><ele>617.6</ele><time>2026-04-03T14:10:30.027Z</time></trkpt><trkpt lat="43.4427588" lon="11.5248636"><ele>618.4</ele><time>2026-04-03T14:10:31.016Z</time></trkpt><trkpt lat="43.4427006" lon="11.5247714"><ele>619.2</ele><time>2026-04-03T14:10:32.021Z</time></trkpt><trkpt lat="43.4426321" lon="11.5246865"><ele>620.0</ele><time>2026-04-03T14:10:33.026Z</time></trkpt><trkpt lat="43.4425517" lon="11.5246046"><ele>622.6666666666666</ele><time>2026-04-03T14:10:34.034Z</time></trkpt><trkpt lat="43.4424738" lon="11.5245265"><ele>625.3333333333333</ele><time>2026-04-03T14:10:35.019Z</time></trkpt><trkpt lat="43.4424067" lon="11.5244349"><ele>628.0</ele><time>2026-04-03T14:10:36.014Z</time></trkpt><trkpt lat="43.4423569" lon="11.5243304"><ele>630.6666666666666</ele><time>2026-04-03T14:10:37.028Z</time></trkpt><trkpt lat="43.4423283" lon="11.5242299"><ele>633.3333333333334</ele><time>2026-04-03T14:10:38.022Z</time></trkpt><trkpt lat="43.4423183" lon="11.5241272"><ele>636.0</ele><time>2026-04-03T14:10:39.033Z</time></trkpt><trkpt lat="43.4423292" lon="11.5240307"><ele>636.0</ele><time>2026-04-03T14:10:40.019Z</time></trkpt><trkpt lat="43.4423323" lon="11.5239352"><ele>636.0</ele><time>2026-04-03T14:10:41.008Z</time></trkpt><trkpt lat="43.4423264" lon="11.5238453"><ele>636.0</ele><time>2026-04-03T14:10:42.024Z</time></trkpt><trkpt lat="43.4422321" lon="11.523726"><ele>636.0</ele><time>2026-04-03T14:10:44.023Z</time></trkpt><trkpt lat="43.4421639" lon="11.5237087"><ele>636.0</ele><time>2026-04-03T14:10:45.019Z</time></trkpt><trkpt lat="43.4420932" lon="11.5236846"><ele>636.0</ele><time>2026-04-03T14:10:46.033Z</time></trkpt><trkpt lat="43.4420175" lon="11.5236507"><ele>637.0</ele><time>2026-04-03T14:10:47.019Z</time></trkpt><trkpt lat="43.441939" lon="11.5235962"><ele>638.0</ele><time>2026-04-03T14:10:48.023Z</time></trkpt><trkpt lat="43.4418601" lon="11.523521"><ele>639.0</ele><time>2026-04-03T14:10:49.031Z</time></trkpt><trkpt lat="43.441779" lon="11.5234516"><ele>640.0</ele><time>2026-04-03T14:10:50.024Z</time></trkpt><trkpt lat="43.441693" lon="11.5233982"><ele>641.0</ele><time>2026-04-03T14:10:51.021Z</time></trkpt><trkpt lat="43.4416179" lon="11.5233455"><ele>641.0</ele><time>2026-04-03T14:10:52.026Z</time></trkpt><trkpt lat="43.441546" lon="11.5232982"><ele>641.0</ele><time>2026-04-03T14:10:53.023Z</time></trkpt><trkpt lat="43.4414878" lon="11.523254"><ele>641.0</ele><time>2026-04-03T14:10:54.023Z</time></trkpt><trkpt lat="43.4414551" lon="11.5231253"><ele>641.0</ele><time>2026-04-03T14:10:56.031Z</time></trkpt><trkpt lat="43.4415097" lon="11.5229745"><ele>641.0</ele><time>2026-04-03T14:10:58.027Z</time></trkpt><trkpt lat="43.4415508" lon="11.52289"><ele>641.0</ele><time>2026-04-03T14:10:59.033Z</time></trkpt><trkpt lat="43.4415916" lon="11.5228029"><ele>642.1666666666666</ele><time>2026-04-03T14:11:00.04Z</time></trkpt><trkpt lat="43.4416218" lon="11.5226942"><ele>643.3333333333333</ele><time>2026-04-03T14:11:01.028Z</time></trkpt><trkpt lat="43.4416388" lon="11.5225785"><ele>644.5</ele><time>2026-04-03T14:11:02.032Z</time></trkpt><trkpt lat="43.4416488" lon="11.5224659"><ele>645.6666666666666</ele><time>2026-04-03T14:11:03.027Z</time></trkpt><trkpt lat="43.4416617" lon="11.5223701"><ele>646.8333333333334</ele><time>2026-04-03T14:11:04.036Z</time></trkpt><trkpt lat="43.4417148" lon="11.5222274"><ele>648.0</ele><time>2026-04-03T14:11:06.047Z</time></trkpt><trkpt lat="43.4417687" lon="11.5221674"><ele>648.0</ele><time>2026-04-03T14:11:07.038Z</time></trkpt><trkpt lat="43.4418351" lon="11.5221161"><ele>648.0</ele><time>2026-04-03T14:11:08.037Z</time></trkpt><trkpt lat="43.4419071" lon="11.5220589"><ele>648.0</ele><time>2026-04-03T14:11:09.007Z</time></trkpt><trkpt lat="43.4419783" lon="11.521993"><ele>648.0</ele><time>2026-04-03T14:11:10.034Z</time></trkpt><trkpt lat="43.4420448" lon="11.5219243"><ele>648.0</ele><time>2026-04-03T14:11:11.021Z</time></trkpt><trkpt lat="43.4421124" lon="11.5218571"><ele>648.0</ele><time>2026-04-03T14:11:12.041Z</time></trkpt><trkpt lat="43.4421816" lon="11.5217934"><ele>648.6666666666666</ele><time>2026-04-03T14:11:13.029Z</time></trkpt><trkpt lat="43.442252" lon="11.521732"><ele>649.3333333333334</ele><time>2026-04-03T14:11:14.034Z</time></trkpt><trkpt lat="43.4423243" lon="11.5216615"><ele>650.0</ele><time>2026-04-03T14:11:15.023Z</time></trkpt><trkpt lat="43.4423947" lon="11.5215921"><ele>650.6666666666667</ele><time>2026-04-03T14:11:16.037Z</time></trkpt><trkpt lat="43.442462" lon="11.5215199"><ele>651.3333333333334</ele><time>2026-04-03T14:11:17.031Z</time></trkpt><trkpt lat="43.442527" lon="11.5214422"><ele>652.0</ele><time>2026-04-03T14:11:18.033Z</time></trkpt><trkpt lat="43.4425876" lon="11.5213588"><ele>652.0</ele><time>2026-04-03T14:11:19.022Z</time></trkpt><trkpt lat="43.4426434" lon="11.5212672"><ele>652.0</ele><time>2026-04-03T14:11:20.037Z</time></trkpt><trkpt lat="43.442696" lon="11.5211572"><ele>652.0</ele><time>2026-04-03T14:11:21.022Z</time></trkpt><trkpt lat="43.442742" lon="11.521036"><ele>652.0</ele><time>2026-04-03T14:11:22.028Z</time></trkpt><trkpt lat="43.4427827" lon="11.5209081"><ele>652.0</ele><time>2026-04-03T14:11:23.037Z</time></trkpt><trkpt lat="43.4428231" lon="11.5207813"><ele>652.2</ele><time>2026-04-03T14:11:24.037Z</time></trkpt><trkpt lat="43.4428685" lon="11.5206526"><ele>652.4000000000001</ele><time>2026-04-03T14:11:25.028Z</time></trkpt><trkpt lat="43.442919" lon="11.5205196"><ele>652.5999999999999</ele><time>2026-04-03T14:11:26.03Z</time></trkpt><trkpt lat="43.4429697" lon="11.520386"><ele>652.8</ele><time>2026-04-03T14:11:27.029Z</time></trkpt><trkpt lat="43.4430232" lon="11.5202514"><ele>653.0</ele><time>2026-04-03T14:11:28.04Z</time></trkpt><trkpt lat="43.4430758" lon="11.5201224"><ele>653.0</ele><time>2026-04-03T14:11:29.027Z</time></trkpt><trkpt lat="43.4431337" lon="11.5200058"><ele>653.0</ele><time>2026-04-03T14:11:30.033Z</time></trkpt><trkpt lat="43.4431904" lon="11.51991"><ele>653.0</ele><time>2026-04-03T14:11:31.025Z</time></trkpt><trkpt lat="43.4432536" lon="11.5198399"><ele>653.0</ele><time>2026-04-03T14:11:32.025Z</time></trkpt><trkpt lat="43.4433188" lon="11.5197691"><ele>653.0</ele><time>2026-04-03T14:11:33.039Z</time></trkpt><trkpt lat="43.4433771" lon="11.5196871"><ele>653.0</ele><time>2026-04-03T14:11:34.026Z</time></trkpt><trkpt lat="43.4434244" lon="11.5195878"><ele>655.0</ele><time>2026-04-03T14:11:35.024Z</time></trkpt><trkpt lat="43.4434597" lon="11.5194816"><ele>657.0</ele><time>2026-04-03T14:11:36.043Z</time></trkpt><trkpt lat="43.4434841" lon="11.5193674"><ele>659.0</ele><time>2026-04-03T14:11:37.032Z</time></trkpt><trkpt lat="43.4435005" lon="11.5192496"><ele>661.0</ele><time>2026-04-03T14:11:38.025Z</time></trkpt><trkpt lat="43.4435179" lon="11.5191324"><ele>663.0</ele><time>2026-04-03T14:11:39.028Z</time></trkpt><trkpt lat="43.4435339" lon="11.519014"><ele>665.0</ele><time>2026-04-03T14:11:40.028Z</time></trkpt><trkpt lat="43.4435509" lon="11.5188965"><ele>665.0</ele><time>2026-04-03T14:11:41.028Z</time></trkpt><trkpt lat="43.4435604" lon="11.5187752"><ele>665.0</ele><time>2026-04-03T14:11:42.032Z</time></trkpt><trkpt lat="43.4435619" lon="11.5186506"><ele>665.0</ele><time>2026-04-03T14:11:43.021Z</time></trkpt><trkpt lat="43.4435672" lon="11.5185341"><ele>665.0</ele><time>2026-04-03T14:11:44.029Z</time></trkpt><trkpt lat="43.4435853" lon="11.5184304"><ele>665.0</ele><time>2026-04-03T14:11:45.031Z</time></trkpt><trkpt lat="43.4436209" lon="11.5183388"><ele>665.0</ele><time>2026-04-03T14:11:46.027Z</time></trkpt><trkpt lat="43.4436632" lon="11.5182636"><ele>665.0</ele><time>2026-04-03T14:11:47.036Z</time></trkpt><trkpt lat="43.4437193" lon="11.5181834"><ele>665.0</ele><time>2026-04-03T14:11:48.022Z</time></trkpt><trkpt lat="43.4437884" lon="11.5181005"><ele>665.0</ele><time>2026-04-03T14:11:49.027Z</time></trkpt><trkpt lat="43.4438689" lon="11.5180328"><ele>665.0</ele><time>2026-04-03T14:11:50.029Z</time></trkpt><trkpt lat="43.4439443" lon="11.5179825"><ele>665.0</ele><time>2026-04-03T14:11:51.028Z</time></trkpt><trkpt lat="43.4440147" lon="11.5179312"><ele>665.0</ele><time>2026-04-03T14:11:52.025Z</time></trkpt><trkpt lat="43.4440662" lon="11.5178642"><ele>666.8333333333333</ele><time>2026-04-03T14:11:53.03Z</time></trkpt><trkpt lat="43.4440978" lon="11.5177764"><ele>668.6666666666666</ele><time>2026-04-03T14:11:54.033Z</time></trkpt><trkpt lat="43.4441179" lon="11.517671"><ele>670.5</ele><time>2026-04-03T14:11:55.018Z</time></trkpt><trkpt lat="43.4441249" lon="11.5175602"><ele>672.3333333333334</ele><time>2026-04-03T14:11:56.034Z</time></trkpt><trkpt lat="43.4441272" lon="11.5174518"><ele>674.1666666666667</ele><time>2026-04-03T14:11:57.019Z</time></trkpt><trkpt lat="43.4441187" lon="11.5173396"><ele>676.0</ele><time>2026-04-03T14:11:58.021Z</time></trkpt><trkpt lat="43.4441138" lon="11.5172281"><ele>676.0</ele><time>2026-04-03T14:11:59.031Z</time></trkpt><trkpt lat="43.4441348" lon="11.5171259"><ele>676.0</ele><time>2026-04-03T14:12:00.031Z</time></trkpt><trkpt lat="43.4441806" lon="11.5170301"><ele>676.0</ele><time>2026-04-03T14:12:01.021Z</time></trkpt><trkpt lat="43.4442396" lon="11.516941"><ele>676.0</ele><time>2026-04-03T14:12:02.029Z</time></trkpt><trkpt lat="43.4443019" lon="11.5168446"><ele>676.0</ele><time>2026-04-03T14:12:03.02Z</time></trkpt><trkpt lat="43.4443624" lon="11.5167614"><ele>676.0</ele><time>2026-04-03T14:12:04.025Z</time></trkpt><trkpt lat="43.4444178" lon="11.5167046"><ele>676.0</ele><time>2026-04-03T14:12:05.025Z</time></trkpt><trkpt lat="43.4444776" lon="11.516676"><ele>676.0</ele><time>2026-04-03T14:12:06.038Z</time></trkpt><trkpt lat="43.4445696" lon="11.5167621"><ele>676.0</ele><time>2026-04-03T14:12:08.018Z</time></trkpt><trkpt lat="43.4445834" lon="11.5168633"><ele>676.0</ele><time>2026-04-03T14:12:09.015Z</time></trkpt><trkpt lat="43.4446029" lon="11.5169683"><ele>676.0</ele><time>2026-04-03T14:12:10.024Z</time></trkpt><trkpt lat="43.4446068" lon="11.5170747"><ele>676.0</ele><time>2026-04-03T14:12:11.019Z</time></trkpt><trkpt lat="43.4446218" lon="11.5171915"><ele>678.8</ele><time>2026-04-03T14:12:12.02Z</time></trkpt><trkpt lat="43.444659" lon="11.5173005"><ele>681.5999999999999</ele><time>2026-04-03T14:12:13.014Z</time></trkpt><trkpt lat="43.4447076" lon="11.5174012"><ele>684.4</ele><time>2026-04-03T14:12:14.032Z</time></trkpt><trkpt lat="43.4447616" lon="11.5175089"><ele>687.2</ele><time>2026-04-03T14:12:15.013Z</time></trkpt><trkpt lat="43.4448272" lon="11.5176275"><ele>690.0</ele><time>2026-04-03T14:12:16.026Z</time></trkpt><trkpt lat="43.4448817" lon="11.5177363"><ele>690.0</ele><time>2026-04-03T14:12:17.024Z</time></trkpt><trkpt lat="43.4449475" lon="11.517821"><ele>690.0</ele><time>2026-04-03T14:12:18.018Z</time></trkpt><trkpt lat="43.4450242" lon="11.5178917"><ele>690.0</ele><time>2026-04-03T14:12:19.02Z</time></trkpt><trkpt lat="43.445105" lon="11.517957"><ele>690.0</ele><time>2026-04-03T14:12:20.028Z</time></trkpt><trkpt lat="43.4451891" lon="11.5180189"><ele>690.0</ele><time>2026-04-03T14:12:21.02Z</time></trkpt><trkpt lat="43.4452723" lon="11.5180968"><ele>690.6</ele><time>2026-04-03T14:12:22.023Z</time></trkpt><trkpt lat="43.4453531" lon="11.5181662"><ele>691.2</ele><time>2026-04-03T14:12:23.019Z</time></trkpt><trkpt lat="43.4454295" lon="11.5182388"><ele>691.8</ele><time>2026-04-03T14:12:24.021Z</time></trkpt><trkpt lat="43.445505" lon="11.5182923"><ele>692.4</ele><time>2026-04-03T14:12:25.028Z</time></trkpt><trkpt lat="43.4455736" lon="11.5183379"><ele>693.0</ele><time>2026-04-03T14:12:26.025Z</time></trkpt><trkpt lat="43.4456815" lon="11.5183936"><ele>693.0</ele><time>2026-04-03T14:12:28.025Z</time></trkpt><trkpt lat="43.4457846" lon="11.5184193"><ele>693.0</ele><time>2026-04-03T14:12:30.023Z</time></trkpt><trkpt lat="43.4459007" lon="11.5184339"><ele>693.0</ele><time>2026-04-03T14:12:32.018Z</time></trkpt><trkpt lat="43.4459677" lon="11.5184438"><ele>693.0</ele><time>2026-04-03T14:12:33.022Z</time></trkpt><trkpt lat="43.4460461" lon="11.5184449"><ele>693.0</ele><time>2026-04-03T14:12:34.024Z</time></trkpt><trkpt lat="43.446134" lon="11.5184496"><ele>693.0</ele><time>2026-04-03T14:12:35.019Z</time></trkpt><trkpt lat="43.4462311" lon="11.5184505"><ele>693.0</ele><time>2026-04-03T14:12:36.027Z</time></trkpt><trkpt lat="43.4463282" lon="11.5184527"><ele>693.0</ele><time>2026-04-03T14:12:37.022Z</time></trkpt><trkpt lat="43.4464204" lon="11.5184668"><ele>693.0</ele><time>2026-04-03T14:12:38.031Z</time></trkpt><trkpt lat="43.4465087" lon="11.5184944"><ele>693.0</ele><time>2026-04-03T14:12:39.025Z</time></trkpt><trkpt lat="43.4465911" lon="11.5185362"><ele>692.5999999999999</ele><time>2026-04-03T14:12:40.027Z</time></trkpt><trkpt lat="43.4466644" lon="11.5185796"><ele>692.1999999999999</ele><time>2026-04-03T14:12:41.026Z</time></trkpt><trkpt lat="43.4467294" lon="11.518624"><ele>691.8</ele><time>2026-04-03T14:12:42.026Z</time></trkpt><trkpt lat="43.4467932" lon="11.5186597"><ele>691.4</ele><time>2026-04-03T14:12:43.012Z</time></trkpt><trkpt lat="43.4469107" lon="11.5186759"><ele>691.0</ele><time>2026-04-03T14:12:45.033Z</time></trkpt><trkpt lat="43.4470113" lon="11.5185909"><ele>691.0</ele><time>2026-04-03T14:12:47.017Z</time></trkpt><trkpt lat="43.447081" lon="11.5184529"><ele>691.0</ele><time>2026-04-03T14:12:49.023Z</time></trkpt><trkpt lat="43.4471228" lon="11.5183035"><ele>691.0</ele><time>2026-04-03T14:12:51.016Z</time></trkpt><trkpt lat="43.4471152" lon="11.5181842"><ele>691.0</ele><time>2026-04-03T14:12:53.031Z</time></trkpt><trkpt lat="43.4470722" lon="11.5180666"><ele>691.0</ele><time>2026-04-03T14:12:55.017Z</time></trkpt><trkpt lat="43.4470636" lon="11.5179259"><ele>694.8</ele><time>2026-04-03T14:12:57.023Z</time></trkpt><trkpt lat="43.4471209" lon="11.517802"><ele>698.5999999999999</ele><time>2026-04-03T14:12:59.021Z</time></trkpt><trkpt lat="43.4471688" lon="11.5176872"><ele>702.4</ele><time>2026-04-03T14:13:01.019Z</time></trkpt><trkpt lat="43.4471902" lon="11.5175454"><ele>706.2</ele><time>2026-04-03T14:13:03.023Z</time></trkpt><trkpt lat="43.4471875" lon="11.5173655"><ele>710.0</ele><time>2026-04-03T14:13:05.033Z</time></trkpt><trkpt lat="43.4471946" lon="11.5172646"><ele>704.0</ele><time>2026-04-03T14:13:06.03Z</time></trkpt><trkpt lat="43.4472004" lon="11.5171598"><ele>698.0</ele><time>2026-04-03T14:13:07.015Z</time></trkpt><trkpt lat="43.4472089" lon="11.5170468"><ele>692.0</ele><time>2026-04-03T14:13:08.028Z</time></trkpt><trkpt lat="43.4472226" lon="11.5169279"><ele>686.0</ele><time>2026-04-03T14:13:09.026Z</time></trkpt><trkpt lat="43.4472381" lon="11.5168058"><ele>680.0</ele><time>2026-04-03T14:13:10.029Z</time></trkpt><trkpt lat="43.4472358" lon="11.5166808"><ele>674.0</ele><time>2026-04-03T14:13:11.028Z</time></trkpt><trkpt lat="43.4472184" lon="11.5165515"><ele>674.0</ele><time>2026-04-03T14:13:12.026Z</time></trkpt><trkpt lat="43.4471802" lon="11.516434"><ele>674.0</ele><time>2026-04-03T14:13:13.023Z</time></trkpt><trkpt lat="43.4471181" lon="11.5163256"><ele>674.0</ele><time>2026-04-03T14:13:14.019Z</time></trkpt><trkpt lat="43.4470383" lon="11.5162284"><ele>674.0</ele><time>2026-04-03T14:13:15.014Z</time></trkpt><trkpt lat="43.4469516" lon="11.5161401"><ele>674.0</ele><time>2026-04-03T14:13:16.037Z</time></trkpt><trkpt lat="43.4468655" lon="11.5160434"><ele>682.0</ele><time>2026-04-03T14:13:17.034Z</time></trkpt><trkpt lat="43.4467726" lon="11.5159565"><ele>690.0</ele><time>2026-04-03T14:13:18.024Z</time></trkpt><trkpt lat="43.4466777" lon="11.5158723"><ele>698.0</ele><time>2026-04-03T14:13:19.026Z</time></trkpt><trkpt lat="43.4465807" lon="11.5157847"><ele>706.0</ele><time>2026-04-03T14:13:20.025Z</time></trkpt><trkpt lat="43.4464836" lon="11.5156943"><ele>706.0</ele><time>2026-04-03T14:13:21.035Z</time></trkpt><trkpt lat="43.4463929" lon="11.5155986"><ele>706.0</ele><time>2026-04-03T14:13:22.043Z</time></trkpt><trkpt lat="43.4463103" lon="11.5154911"><ele>706.0</ele><time>2026-04-03T14:13:23.032Z</time></trkpt><trkpt lat="43.4462438" lon="11.5153602"><ele>706.0</ele><time>2026-04-03T14:13:24.021Z</time></trkpt><trkpt lat="43.4462056" lon="11.5152044"><ele>711.75</ele><time>2026-04-03T14:13:25.028Z</time></trkpt><trkpt lat="43.446181" lon="11.5150401"><ele>717.5</ele><time>2026-04-03T14:13:26.028Z</time></trkpt><trkpt lat="43.4461468" lon="11.5148776"><ele>723.25</ele><time>2026-04-03T14:13:27.026Z</time></trkpt><trkpt lat="43.4460941" lon="11.5147236"><ele>729.0</ele><time>2026-04-03T14:13:28.028Z</time></trkpt><trkpt lat="43.4460144" lon="11.5145906"><ele>725.75</ele><time>2026-04-03T14:13:29.024Z</time></trkpt><trkpt lat="43.4459199" lon="11.5144738"><ele>722.5</ele><time>2026-04-03T14:13:30.021Z</time></trkpt><trkpt lat="43.4458311" lon="11.5143551"><ele>719.25</ele><time>2026-04-03T14:13:31.016Z</time></trkpt><trkpt lat="43.4457538" lon="11.5142296"><ele>716.0</ele><time>2026-04-03T14:13:32.029Z</time></trkpt><trkpt lat="43.445698" lon="11.5140881"><ele>716.0</ele><time>2026-04-03T14:13:33.025Z</time></trkpt><trkpt lat="43.4456799" lon="11.5139209"><ele>716.0</ele><time>2026-04-03T14:13:34.036Z</time></trkpt><trkpt lat="43.445693" lon="11.5137479"><ele>716.0</ele><time>2026-04-03T14:13:35.02Z</time></trkpt><trkpt lat="43.4457289" lon="11.5135755"><ele>716.0</ele><time>2026-04-03T14:13:36.027Z</time></trkpt><trkpt lat="43.4457699" lon="11.5134114"><ele>714.75</ele><time>2026-04-03T14:13:37.006Z</time></trkpt><trkpt lat="43.4458091" lon="11.5132543"><ele>713.5</ele><time>2026-04-03T14:13:38.023Z</time></trkpt><trkpt lat="43.4458354" lon="11.5130998"><ele>712.25</ele><time>2026-04-03T14:13:39.019Z</time></trkpt><trkpt lat="43.445827" lon="11.5129497"><ele>711.0</ele><time>2026-04-03T14:13:40.028Z</time></trkpt><trkpt lat="43.4457757" lon="11.5128031"><ele>710.75</ele><time>2026-04-03T14:13:41.033Z</time></trkpt><trkpt lat="43.4456952" lon="11.5126702"><ele>710.5</ele><time>2026-04-03T14:13:42.022Z</time></trkpt><trkpt lat="43.4456198" lon="11.5125329"><ele>710.25</ele><time>2026-04-03T14:13:43.021Z</time></trkpt><trkpt lat="43.4455767" lon="11.5123644"><ele>710.0</ele><time>2026-04-03T14:13:44.027Z</time></trkpt><trkpt lat="43.4455613" lon="11.5121791"><ele>712.0</ele><time>2026-04-03T14:13:45.018Z</time></trkpt><trkpt lat="43.4455725" lon="11.5119888"><ele>714.0</ele><time>2026-04-03T14:13:46.044Z</time></trkpt><trkpt lat="43.4455886" lon="11.5117922"><ele>716.0</ele><time>2026-04-03T14:13:47.012Z</time></trkpt><trkpt lat="43.4455984" lon="11.5116049"><ele>718.0</ele><time>2026-04-03T14:13:48.023Z</time></trkpt><trkpt lat="43.4456097" lon="11.5114218"><ele>718.0</ele><time>2026-04-03T14:13:49.029Z</time></trkpt><trkpt lat="43.445617" lon="11.5112422"><ele>718.0</ele><time>2026-04-03T14:13:50.03Z</time></trkpt><trkpt lat="43.4456178" lon="11.511071"><ele>718.0</ele><time>2026-04-03T14:13:51.02Z</time></trkpt><trkpt lat="43.4456066" lon="11.5108977"><ele>718.0</ele><time>2026-04-03T14:13:52.029Z</time></trkpt><trkpt lat="43.4455825" lon="11.5107291"><ele>721.25</ele><time>2026-04-03T14:13:53.019Z</time></trkpt><trkpt lat="43.4455514" lon="11.5105642"><ele>724.5</ele><time>2026-04-03T14:13:54.021Z</time></trkpt><trkpt lat="43.4455134" lon="11.5103978"><ele>727.75</ele><time>2026-04-03T14:13:55.021Z</time></trkpt><trkpt lat="43.4454707" lon="11.5102246"><ele>731.0</ele><time>2026-04-03T14:13:56.026Z</time></trkpt><trkpt lat="43.445444" lon="11.510048"><ele>731.25</ele><time>2026-04-03T14:13:57.014Z</time></trkpt><trkpt lat="43.445417" lon="11.5098638"><ele>731.5</ele><time>2026-04-03T14:13:58.032Z</time></trkpt><trkpt lat="43.4453814" lon="11.5096807"><ele>731.75</ele><time>2026-04-03T14:13:59.021Z</time></trkpt><trkpt lat="43.4453238" lon="11.509501"><ele>732.0</ele><time>2026-04-03T14:14:00.026Z</time></trkpt><trkpt lat="43.4452516" lon="11.5093259"><ele>738.0</ele><time>2026-04-03T14:14:01.019Z</time></trkpt><trkpt lat="43.4451739" lon="11.5091551"><ele>744.0</ele><time>2026-04-03T14:14:02.036Z</time></trkpt><trkpt lat="43.4450965" lon="11.508987"><ele>750.0</ele><time>2026-04-03T14:14:03.022Z</time></trkpt><trkpt lat="43.4450216" lon="11.5088231"><ele>756.0</ele><time>2026-04-03T14:14:04.032Z</time></trkpt><trkpt lat="43.4449412" lon="11.5086733"><ele>762.75</ele><time>2026-04-03T14:14:05.029Z</time></trkpt><trkpt lat="43.4448408" lon="11.5085603"><ele>769.5</ele><time>2026-04-03T14:14:06.021Z</time></trkpt><trkpt lat="43.4447203" lon="11.508493"><ele>776.25</ele><time>2026-04-03T14:14:07.023Z</time></trkpt><trkpt lat="43.44459" lon="11.5084554"><ele>783.0</ele><time>2026-04-03T14:14:08.03Z</time></trkpt><trkpt lat="43.4444415" lon="11.508454"><ele>783.0</ele><time>2026-04-03T14:14:09.023Z</time></trkpt><trkpt lat="43.4442905" lon="11.5084793"><ele>783.0</ele><time>2026-04-03T14:14:10.016Z</time></trkpt><trkpt lat="43.4441531" lon="11.5084939"><ele>783.0</ele><time>2026-04-03T14:14:11.013Z</time></trkpt><trkpt lat="43.4440301" lon="11.5084883"><ele>783.0</ele><time>2026-04-03T14:14:12.022Z</time></trkpt><trkpt lat="43.4439192" lon="11.5084326"><ele>783.0</ele><time>2026-04-03T14:14:13.03Z</time></trkpt><trkpt lat="43.4438193" lon="11.5083364"><ele>783.0</ele><time>2026-04-03T14:14:14.016Z</time></trkpt><trkpt lat="43.4437234" lon="11.5082194"><ele>783.0</ele><time>2026-04-03T14:14:15.003Z</time></trkpt><trkpt lat="43.4435985" lon="11.5081587"><ele>783.0</ele><time>2026-04-03T14:14:16.017Z</time></trkpt><trkpt lat="43.4434592" lon="11.5081306"><ele>780.5</ele><time>2026-04-03T14:14:17.011Z</time></trkpt><trkpt lat="43.4433242" lon="11.5081065"><ele>778.0</ele><time>2026-04-03T14:14:18.019Z</time></trkpt><trkpt lat="43.4431989" lon="11.508069"><ele>775.5</ele><time>2026-04-03T14:14:19.027Z</time></trkpt><trkpt lat="43.4430879" lon="11.5080247"><ele>773.0</ele><time>2026-04-03T14:14:20.013Z</time></trkpt><trkpt lat="43.4430089" lon="11.5079198"><ele>777.0</ele><time>2026-04-03T14:14:21.03Z</time></trkpt><trkpt lat="43.4429541" lon="11.5077739"><ele>781.0</ele><time>2026-04-03T14:14:22.026Z</time></trkpt><trkpt lat="43.4429003" lon="11.507629"><ele>785.0</ele><time>2026-04-03T14:14:23.019Z</time></trkpt><trkpt lat="43.4428581" lon="11.5074783"><ele>789.0</ele><time>2026-04-03T14:14:24.016Z</time></trkpt><trkpt lat="43.4428225" lon="11.507331"><ele>789.0</ele><time>2026-04-03T14:14:25.02Z</time></trkpt><trkpt lat="43.4427871" lon="11.5071913"><ele>789.0</ele><time>2026-04-03T14:14:26.023Z</time></trkpt><trkpt lat="43.442769" lon="11.5070509"><ele>789.0</ele><time>2026-04-03T14:14:27.013Z</time></trkpt><trkpt lat="43.4427612" lon="11.5069378"><ele>789.0</ele><time>2026-04-03T14:14:28.024Z</time></trkpt><trkpt lat="43.4427607" lon="11.5068479"><ele>789.0</ele><time>2026-04-03T14:14:29.016Z</time></trkpt><trkpt lat="43.4427621" lon="11.5067611"><ele>789.0</ele><time>2026-04-03T14:14:30.026Z</time></trkpt><trkpt lat="43.4427711" lon="11.5066604"><ele>787.8000000000001</ele><time>2026-04-03T14:14:31.025Z</time></trkpt><trkpt lat="43.4427877" lon="11.506551"><ele>786.6</ele><time>2026-04-03T14:14:32.034Z</time></trkpt><trkpt lat="43.4428466" lon="11.5064417"><ele>785.4</ele><time>2026-04-03T14:14:33.02Z</time></trkpt><trkpt lat="43.4429314" lon="11.5063196"><ele>784.2</ele><time>2026-04-03T14:14:34.031Z</time></trkpt><trkpt lat="43.4430219" lon="11.5062099"><ele>783.0</ele><time>2026-04-03T14:14:35.035Z</time></trkpt><trkpt lat="43.4431182" lon="11.5061267"><ele>783.0</ele><time>2026-04-03T14:14:36.04Z</time></trkpt><trkpt lat="43.4432277" lon="11.5060583"><ele>783.0</ele><time>2026-04-03T14:14:37.035Z</time></trkpt><trkpt lat="43.443344" lon="11.5059784"><ele>783.0</ele><time>2026-04-03T14:14:38.022Z</time></trkpt><trkpt lat="43.4434573" lon="11.5058945"><ele>783.0</ele><time>2026-04-03T14:14:39.021Z</time></trkpt><trkpt lat="43.4435649" lon="11.5058219"><ele>783.0</ele><time>2026-04-03T14:14:40.029Z</time></trkpt><trkpt lat="43.4436677" lon="11.505772"><ele>783.0</ele><time>2026-04-03T14:14:41.024Z</time></trkpt><trkpt lat="43.4437795" lon="11.5057513"><ele>783.0</ele><time>2026-04-03T14:14:42.026Z</time></trkpt><trkpt lat="43.4438897" lon="11.5057729"><ele>783.0</ele><time>2026-04-03T14:14:43.025Z</time></trkpt><trkpt lat="43.4440009" lon="11.5058398"><ele>782.25</ele><time>2026-04-03T14:14:44.023Z</time></trkpt><trkpt lat="43.444122" lon="11.5059174"><ele>781.5</ele><time>2026-04-03T14:14:45.02Z</time></trkpt><trkpt lat="43.4442441" lon="11.5059876"><ele>780.75</ele><time>2026-04-03T14:14:46.02Z</time></trkpt><trkpt lat="43.4443663" lon="11.5060055"><ele>780.0</ele><time>2026-04-03T14:14:47.026Z</time></trkpt><trkpt lat="43.4444756" lon="11.5059681"><ele>780.0</ele><time>2026-04-03T14:14:48.026Z</time></trkpt><trkpt lat="43.444572" lon="11.5058758"><ele>780.0</ele><time>2026-04-03T14:14:49.02Z</time></trkpt><trkpt lat="43.4446541" lon="11.5057535"><ele>780.0</ele><time>2026-04-03T14:14:50.022Z</time></trkpt><trkpt lat="43.4447268" lon="11.5056203"><ele>780.0</ele><time>2026-04-03T14:14:51.011Z</time></trkpt><trkpt lat="43.4447892" lon="11.5054695"><ele>778.75</ele><time>2026-04-03T14:14:52.019Z</time></trkpt><trkpt lat="43.4448643" lon="11.5053368"><ele>777.5</ele><time>2026-04-03T14:14:53.017Z</time></trkpt><trkpt lat="43.444949" lon="11.5052187"><ele>776.25</ele><time>2026-04-03T14:14:54.026Z</time></trkpt><trkpt lat="43.4450572" lon="11.5051242"><ele>775.0</ele><time>2026-04-03T14:14:55.026Z</time></trkpt><trkpt lat="43.4451744" lon="11.5050649"><ele>775.0</ele><time>2026-04-03T14:14:56.025Z</time></trkpt><trkpt lat="43.4453031" lon="11.505042"><ele>775.0</ele><time>2026-04-03T14:14:57.018Z</time></trkpt><trkpt lat="43.445437" lon="11.5050522"><ele>775.0</ele><time>2026-04-03T14:14:58.028Z</time></trkpt><trkpt lat="43.4455602" lon="11.5050767"><ele>775.0</ele><time>2026-04-03T14:14:59.003Z</time></trkpt><trkpt lat="43.4456841" lon="11.5050814"><ele>779.5</ele><time>2026-04-03T14:15:00.028Z</time></trkpt><trkpt lat="43.4458" lon="11.5050519"><ele>784.0</ele><time>2026-04-03T14:15:01.035Z</time></trkpt><trkpt lat="43.4458957" lon="11.504956"><ele>788.5</ele><time>2026-04-03T14:15:02.031Z</time></trkpt><trkpt lat="43.4459653" lon="11.5048066"><ele>793.0</ele><time>2026-04-03T14:15:03.016Z</time></trkpt><trkpt lat="43.4460172" lon="11.5046328"><ele>789.0</ele><time>2026-04-03T14:15:04.022Z</time></trkpt><trkpt lat="43.4460601" lon="11.5044618"><ele>785.0</ele><time>2026-04-03T14:15:05.022Z</time></trkpt><trkpt lat="43.4461026" lon="11.504315"><ele>781.0</ele><time>2026-04-03T14:15:06.011Z</time></trkpt><trkpt lat="43.4461807" lon="11.5042024"><ele>777.0</ele><time>2026-04-03T14:15:07.022Z</time></trkpt><trkpt lat="43.4462845" lon="11.5040955"><ele>776.75</ele><time>2026-04-03T14:15:08.023Z</time></trkpt><trkpt lat="43.4463923" lon="11.5040039"><ele>776.5</ele><time>2026-04-03T14:15:09.012Z</time></trkpt><trkpt lat="43.4465021" lon="11.5038981"><ele>776.25</ele><time>2026-04-03T14:15:10.024Z</time></trkpt><trkpt lat="43.4465907" lon="11.503754"><ele>776.0</ele><time>2026-04-03T14:15:11.025Z</time></trkpt><trkpt lat="43.4466752" lon="11.5035838"><ele>776.0</ele><time>2026-04-03T14:15:12.027Z</time></trkpt><trkpt lat="43.4467455" lon="11.5034252"><ele>776.0</ele><time>2026-04-03T14:15:13.02Z</time></trkpt><trkpt lat="43.4468236" lon="11.5032874"><ele>776.0</ele><time>2026-04-03T14:15:14.027Z</time></trkpt><trkpt lat="43.4469076" lon="11.5031697"><ele>776.0</ele><time>2026-04-03T14:15:15.018Z</time></trkpt><trkpt lat="43.4469928" lon="11.5030674"><ele>776.0</ele><time>2026-04-03T14:15:16.027Z</time></trkpt><trkpt lat="43.4470981" lon="11.5030151"><ele>776.0</ele><time>2026-04-03T14:15:17.013Z</time></trkpt><trkpt lat="43.4472158" lon="11.5030141"><ele>776.0</ele><time>2026-04-03T14:15:18.019Z</time></trkpt><trkpt lat="43.4473285" lon="11.5030389"><ele>776.0</ele><time>2026-04-03T14:15:19.016Z</time></trkpt><trkpt lat="43.4474559" lon="11.5031008"><ele>775.75</ele><time>2026-04-03T14:15:20.022Z</time></trkpt><trkpt lat="43.4475871" lon="11.5031843"><ele>775.5</ele><time>2026-04-03T14:15:21.02Z</time></trkpt><trkpt lat="43.4477297" lon="11.5032693"><ele>775.25</ele><time>2026-04-03T14:15:22.016Z</time></trkpt><trkpt lat="43.4478689" lon="11.503344"><ele>775.0</ele><time>2026-04-03T14:15:23.008Z</time></trkpt><trkpt lat="43.4480079" lon="11.5033941"><ele>775.0</ele><time>2026-04-03T14:15:24.016Z</time></trkpt><trkpt lat="43.448139" lon="11.5034309"><ele>775.0</ele><time>2026-04-03T14:15:25.008Z</time></trkpt><trkpt lat="43.4482649" lon="11.5034121"><ele>775.0</ele><time>2026-04-03T14:15:26.026Z</time></trkpt><trkpt lat="43.4483845" lon="11.5033543"><ele>775.0</ele><time>2026-04-03T14:15:27.014Z</time></trkpt><trkpt lat="43.4484845" lon="11.503254"><ele>775.0</ele><time>2026-04-03T14:15:28.011Z</time></trkpt><trkpt lat="43.4485578" lon="11.5031165"><ele>775.0</ele><time>2026-04-03T14:15:29.02Z</time></trkpt><trkpt lat="43.4486358" lon="11.5029874"><ele>775.0</ele><time>2026-04-03T14:15:30.007Z</time></trkpt><trkpt lat="43.4487205" lon="11.5028658"><ele>775.0</ele><time>2026-04-03T14:15:31.016Z</time></trkpt><trkpt lat="43.4488278" lon="11.5027662"><ele>770.8</ele><time>2026-04-03T14:15:32.017Z</time></trkpt><trkpt lat="43.4489525" lon="11.5026875"><ele>766.6</ele><time>2026-04-03T14:15:33.03Z</time></trkpt><trkpt lat="43.4490733" lon="11.502625"><ele>762.4000000000001</ele><time>2026-04-03T14:15:34.023Z</time></trkpt><trkpt lat="43.4491683" lon="11.5025845"><ele>758.2</ele><time>2026-04-03T14:15:35.03Z</time></trkpt><trkpt lat="43.4492473" lon="11.502555"><ele>754.0</ele><time>2026-04-03T14:15:36.018Z</time></trkpt><trkpt lat="43.4493378" lon="11.5025317"><ele>754.0</ele><time>2026-04-03T14:15:37.021Z</time></trkpt><trkpt lat="43.4494383" lon="11.5025016"><ele>754.0</ele><time>2026-04-03T14:15:38.019Z</time></trkpt><trkpt lat="43.4495417" lon="11.502462"><ele>754.0</ele><time>2026-04-03T14:15:39.018Z</time></trkpt><trkpt lat="43.4496415" lon="11.5024248"><ele>754.0</ele><time>2026-04-03T14:15:40.03Z</time></trkpt><trkpt lat="43.4497419" lon="11.5024054"><ele>754.0</ele><time>2026-04-03T14:15:41.01Z</time></trkpt><trkpt lat="43.4498479" lon="11.5024165"><ele>756.2</ele><time>2026-04-03T14:15:42.032Z</time></trkpt><trkpt lat="43.4499562" lon="11.5024496"><ele>758.4000000000001</ele><time>2026-04-03T14:15:43.019Z</time></trkpt><trkpt lat="43.4500647" lon="11.5024887"><ele>760.6</ele><time>2026-04-03T14:15:44.026Z</time></trkpt><trkpt lat="43.4501708" lon="11.5025204"><ele>762.8</ele><time>2026-04-03T14:15:45.024Z</time></trkpt><trkpt lat="43.4502782" lon="11.5025419"><ele>765.0</ele><time>2026-04-03T14:15:46.024Z</time></trkpt><trkpt lat="43.450377" lon="11.5025484"><ele>766.0</ele><time>2026-04-03T14:15:47.027Z</time></trkpt><trkpt lat="43.4504656" lon="11.5025286"><ele>767.0</ele><time>2026-04-03T14:15:48.033Z</time></trkpt><trkpt lat="43.4505498" lon="11.5024947"><ele>768.0</ele><time>2026-04-03T14:15:49.026Z</time></trkpt><trkpt lat="43.4506248" lon="11.5024287"><ele>769.0</ele><time>2026-04-03T14:15:50.032Z</time></trkpt><trkpt lat="43.4507043" lon="11.5023488"><ele>770.0</ele><time>2026-04-03T14:15:51.014Z</time></trkpt><trkpt lat="43.4507852" lon="11.5022555"><ele>770.0</ele><time>2026-04-03T14:15:52.024Z</time></trkpt><trkpt lat="43.4508737" lon="11.5021634"><ele>770.0</ele><time>2026-04-03T14:15:53.029Z</time></trkpt><trkpt lat="43.4509682" lon="11.5020659"><ele>770.0</ele><time>2026-04-03T14:15:54.022Z</time></trkpt><trkpt lat="43.4510656" lon="11.501959"><ele>770.0</ele><time>2026-04-03T14:15:55.019Z</time></trkpt><trkpt lat="43.4511649" lon="11.5018578"><ele>772.0</ele><time>2026-04-03T14:15:56.024Z</time></trkpt><trkpt lat="43.4512739" lon="11.5017651"><ele>774.0</ele><time>2026-04-03T14:15:57.016Z</time></trkpt><trkpt lat="43.4513924" lon="11.50169"><ele>776.0</ele><time>2026-04-03T14:15:58.023Z</time></trkpt><trkpt lat="43.4515131" lon="11.5016447"><ele>778.0</ele><time>2026-04-03T14:15:59.022Z</time></trkpt><trkpt lat="43.4516363" lon="11.5016164"><ele>779.25</ele><time>2026-04-03T14:16:00.033Z</time></trkpt><trkpt lat="43.4517526" lon="11.5015693"><ele>780.5</ele><time>2026-04-03T14:16:01.022Z</time></trkpt><trkpt lat="43.4518545" lon="11.5014841"><ele>781.75</ele><time>2026-04-03T14:16:02.041Z</time></trkpt><trkpt lat="43.4519473" lon="11.5013723"><ele>783.0</ele><time>2026-04-03T14:16:03.03Z</time></trkpt><trkpt lat="43.4520383" lon="11.5012513"><ele>786.25</ele><time>2026-04-03T14:16:04.019Z</time></trkpt><trkpt lat="43.4521372" lon="11.5011452"><ele>789.5</ele><time>2026-04-03T14:16:05.021Z</time></trkpt><trkpt lat="43.4522476" lon="11.5010788"><ele>792.75</ele><time>2026-04-03T14:16:06.034Z</time></trkpt><trkpt lat="43.4523653" lon="11.5010597"><ele>796.0</ele><time>2026-04-03T14:16:07.02Z</time></trkpt><trkpt lat="43.4524887" lon="11.5010531"><ele>796.0</ele><time>2026-04-03T14:16:08.038Z</time></trkpt><trkpt lat="43.4526117" lon="11.5010473"><ele>796.0</ele><time>2026-04-03T14:16:09.02Z</time></trkpt><trkpt lat="43.4527345" lon="11.5010501"><ele>796.0</ele><time>2026-04-03T14:16:10.03Z</time></trkpt><trkpt lat="43.4528568" lon="11.5010912"><ele>796.0</ele><time>2026-04-03T14:16:11.034Z</time></trkpt><trkpt lat="43.4529758" lon="11.5011533"><ele>794.5</ele><time>2026-04-03T14:16:12.034Z</time></trkpt><trkpt lat="43.4530887" lon="11.5012232"><ele>793.0</ele><time>2026-04-03T14:16:13.028Z</time></trkpt><trkpt lat="43.4531982" lon="11.5012985"><ele>791.5</ele><time>2026-04-03T14:16:14.029Z</time></trkpt><trkpt lat="43.4533088" lon="11.501361"><ele>790.0</ele><time>2026-04-03T14:16:15.033Z</time></trkpt><trkpt lat="43.4534125" lon="11.5014033"><ele>790.0</ele><time>2026-04-03T14:16:16.031Z</time></trkpt><trkpt lat="43.4535091" lon="11.5014019"><ele>790.0</ele><time>2026-04-03T14:16:17.031Z</time></trkpt><trkpt lat="43.453598" lon="11.5013607"><ele>790.0</ele><time>2026-04-03T14:16:18.032Z</time></trkpt><trkpt lat="43.4536895" lon="11.501279"><ele>790.0</ele><time>2026-04-03T14:16:19.016Z</time></trkpt><trkpt lat="43.4537904" lon="11.5011982"><ele>790.0</ele><time>2026-04-03T14:16:20.022Z</time></trkpt><trkpt lat="43.4538873" lon="11.5011278"><ele>790.5</ele><time>2026-04-03T14:16:21.015Z</time></trkpt><trkpt lat="43.4539879" lon="11.5010705"><ele>791.0</ele><time>2026-04-03T14:16:22.021Z</time></trkpt><trkpt lat="43.4540982" lon="11.5010168"><ele>791.5</ele><time>2026-04-03T14:16:23.007Z</time></trkpt><trkpt lat="43.4542232" lon="11.5009762"><ele>792.0</ele><time>2026-04-03T14:16:24.014Z</time></trkpt><trkpt lat="43.4543591" lon="11.5009384"><ele>792.0</ele><time>2026-04-03T14:16:25.028Z</time></trkpt><trkpt lat="43.4544891" lon="11.5008945"><ele>792.0</ele><time>2026-04-03T14:16:26.018Z</time></trkpt><trkpt lat="43.4546105" lon="11.5008432"><ele>792.0</ele><time>2026-04-03T14:16:27.026Z</time></trkpt><trkpt lat="43.4547112" lon="11.5007929"><ele>792.0</ele><time>2026-04-03T14:16:28.028Z</time></trkpt><trkpt lat="43.4548005" lon="11.5007505"><ele>792.0</ele><time>2026-04-03T14:16:29.027Z</time></trkpt><trkpt lat="43.4548915" lon="11.5007332"><ele>792.0</ele><time>2026-04-03T14:16:30.028Z</time></trkpt><trkpt lat="43.4549777" lon="11.5007473"><ele>792.0</ele><time>2026-04-03T14:16:31.021Z</time></trkpt><trkpt lat="43.4550583" lon="11.5007868"><ele>792.0</ele><time>2026-04-03T14:16:32.026Z</time></trkpt><trkpt lat="43.4551364" lon="11.5008393"><ele>792.0</ele><time>2026-04-03T14:16:33.016Z</time></trkpt><trkpt lat="43.4552284" lon="11.5008804"><ele>792.0</ele><time>2026-04-03T14:16:34.031Z</time></trkpt><trkpt lat="43.4553328" lon="11.5008908"><ele>792.0</ele><time>2026-04-03T14:16:35.029Z</time></trkpt><trkpt lat="43.455428" lon="11.5008739"><ele>792.0</ele><time>2026-04-03T14:16:36.028Z</time></trkpt><trkpt lat="43.4555164" lon="11.5008403"><ele>792.0</ele><time>2026-04-03T14:16:37.026Z</time></trkpt><trkpt lat="43.4555993" lon="11.500804"><ele>792.0</ele><time>2026-04-03T14:16:38.012Z</time></trkpt><trkpt lat="43.4556775" lon="11.5007706"><ele>792.0</ele><time>2026-04-03T14:16:39.029Z</time></trkpt><trkpt lat="43.4557595" lon="11.5007429"><ele>792.0</ele><time>2026-04-03T14:16:40.044Z</time></trkpt><trkpt lat="43.4558306" lon="11.5007222"><ele>792.1666666666666</ele><time>2026-04-03T14:16:41.023Z</time></trkpt><trkpt lat="43.4559573" lon="11.5007239"><ele>792.3333333333333</ele><time>2026-04-03T14:16:43.02Z</time></trkpt><trkpt lat="43.456021" lon="11.5007268"><ele>792.5</ele><time>2026-04-03T14:16:44.033Z</time></trkpt><trkpt lat="43.4560904" lon="11.5007197"><ele>792.6666666666666</ele><time>2026-04-03T14:16:45.02Z</time></trkpt><trkpt lat="43.456158" lon="11.5006905"><ele>792.8333333333333</ele><time>2026-04-03T14:16:46.03Z</time></trkpt><trkpt lat="43.4562199" lon="11.5006394"><ele>793.0</ele><time>2026-04-03T14:16:47.015Z</time></trkpt><trkpt lat="43.4562914" lon="11.5005686"><ele>794.5999999999999</ele><time>2026-04-03T14:16:48.029Z</time></trkpt><trkpt lat="43.4563791" lon="11.5004891"><ele>796.1999999999999</ele><time>2026-04-03T14:16:49.02Z</time></trkpt><trkpt lat="43.4564695" lon="11.5004166"><ele>797.8</ele><time>2026-04-03T14:16:50.02Z</time></trkpt><trkpt lat="43.456575" lon="11.5003703"><ele>799.4</ele><time>2026-04-03T14:16:51.021Z</time></trkpt><trkpt lat="43.4566887" lon="11.5003287"><ele>801.0</ele><time>2026-04-03T14:16:52.022Z</time></trkpt><trkpt lat="43.4567959" lon="11.5002778"><ele>797.0</ele><time>2026-04-03T14:16:53.02Z</time></trkpt><trkpt lat="43.4568964" lon="11.5002095"><ele>793.0</ele><time>2026-04-03T14:16:54.033Z</time></trkpt><trkpt lat="43.4569951" lon="11.5001548"><ele>789.0</ele><time>2026-04-03T14:16:55.015Z</time></trkpt><trkpt lat="43.4570965" lon="11.5001224"><ele>785.0</ele><time>2026-04-03T14:16:56.015Z</time></trkpt><trkpt lat="43.4572021" lon="11.5001253"><ele>781.0</ele><time>2026-04-03T14:16:57.029Z</time></trkpt><trkpt lat="43.4572996" lon="11.5001535"><ele>781.0</ele><time>2026-04-03T14:16:58.035Z</time></trkpt><trkpt lat="43.4574041" lon="11.5002035"><ele>781.0</ele><time>2026-04-03T14:16:59.02Z</time></trkpt><trkpt lat="43.4575139" lon="11.5002738"><ele>781.0</ele><time>2026-04-03T14:17:00.037Z</time></trkpt><trkpt lat="43.4576336" lon="11.5003339"><ele>781.0</ele><time>2026-04-03T14:17:01.024Z</time></trkpt><trkpt lat="43.4577502" lon="11.5003861"><ele>779.5999999999999</ele><time>2026-04-03T14:17:02.033Z</time></trkpt><trkpt lat="43.4578645" lon="11.5004404"><ele>778.2</ele><time>2026-04-03T14:17:03.029Z</time></trkpt><trkpt lat="43.4579734" lon="11.5004738"><ele>776.8</ele><time>2026-04-03T14:17:04.028Z</time></trkpt><trkpt lat="43.4580651" lon="11.5004834"><ele>775.4000000000001</ele><time>2026-04-03T14:17:05.029Z</time></trkpt><trkpt lat="43.4581374" lon="11.5004798"><ele>774.0</ele><time>2026-04-03T14:17:06.024Z</time></trkpt><trkpt lat="43.4582068" lon="11.5004601"><ele>774.0</ele><time>2026-04-03T14:17:07.021Z</time></trkpt><trkpt lat="43.4583156" lon="11.5004189"><ele>774.0</ele><time>2026-04-03T14:17:09.035Z</time></trkpt><trkpt lat="43.4584212" lon="11.5004063"><ele>774.0</ele><time>2026-04-03T14:17:11.034Z</time></trkpt><trkpt lat="43.4585525" lon="11.5004555"><ele>774.0</ele><time>2026-04-03T14:17:13.021Z</time></trkpt><trkpt lat="43.4586284" lon="11.5004741"><ele>774.0</ele><time>2026-04-03T14:17:14.021Z</time></trkpt><trkpt lat="43.4587128" lon="11.5004772"><ele>772.1666666666666</ele><time>2026-04-03T14:17:15.021Z</time></trkpt><trkpt lat="43.4587964" lon="11.5004802"><ele>770.3333333333334</ele><time>2026-04-03T14:17:16.037Z</time></trkpt><trkpt lat="43.4588639" lon="11.5004706"><ele>768.5</ele><time>2026-04-03T14:17:17.03Z</time></trkpt><trkpt lat="43.458964" lon="11.5004553"><ele>766.6666666666667</ele><time>2026-04-03T14:17:19.038Z</time></trkpt><trkpt lat="43.4590741" lon="11.5004607"><ele>764.8333333333334</ele><time>2026-04-03T14:17:21.031Z</time></trkpt><trkpt lat="43.4591387" lon="11.5004654"><ele>763.0</ele><time>2026-04-03T14:17:22.043Z</time></trkpt><trkpt lat="43.4592055" lon="11.5004735"><ele>763.0</ele><time>2026-04-03T14:17:23.028Z</time></trkpt><trkpt lat="43.4592739" lon="11.5004808"><ele>763.0</ele><time>2026-04-03T14:17:24.029Z</time></trkpt><trkpt lat="43.4593425" lon="11.5004878"><ele>763.0</ele><time>2026-04-03T14:17:25.028Z</time></trkpt><trkpt lat="43.4594152" lon="11.5004995"><ele>763.0</ele><time>2026-04-03T14:17:26.032Z</time></trkpt><trkpt lat="43.4594916" lon="11.5005259"><ele>763.0</ele><time>2026-04-03T14:17:27.019Z</time></trkpt><trkpt lat="43.4595766" lon="11.5005522"><ele>763.0</ele><time>2026-04-03T14:17:28.047Z</time></trkpt><trkpt lat="43.4596684" lon="11.5005691"><ele>761.6666666666667</ele><time>2026-04-03T14:17:29.039Z</time></trkpt><trkpt lat="43.4597622" lon="11.500579"><ele>760.3333333333334</ele><time>2026-04-03T14:17:30.032Z</time></trkpt><trkpt lat="43.4598527" lon="11.5005876"><ele>759.0</ele><time>2026-04-03T14:17:31.018Z</time></trkpt><trkpt lat="43.4599281" lon="11.5005928"><ele>757.6666666666666</ele><time>2026-04-03T14:17:32.032Z</time></trkpt><trkpt lat="43.4599913" lon="11.5006042"><ele>756.3333333333333</ele><time>2026-04-03T14:17:33.025Z</time></trkpt><trkpt lat="43.460072" lon="11.5006529"><ele>755.0</ele><time>2026-04-03T14:17:35.029Z</time></trkpt><trkpt lat="43.4601124" lon="11.5007322"><ele>755.0</ele><time>2026-04-03T14:17:37.023Z</time></trkpt><trkpt lat="43.4601376" lon="11.5008118"><ele>755.0</ele><time>2026-04-03T14:17:39.024Z</time></trkpt><trkpt lat="43.4601872" lon="11.5008724"><ele>755.0</ele><time>2026-04-03T14:17:41.027Z</time></trkpt><trkpt lat="43.4602509" lon="11.5009407"><ele>755.0</ele><time>2026-04-03T14:17:43.019Z</time></trkpt><trkpt lat="43.4603004" lon="11.5010341"><ele>755.0</ele><time>2026-04-03T14:17:45.016Z</time></trkpt><trkpt lat="43.4603528" lon="11.5011424"><ele>755.0</ele><time>2026-04-03T14:17:47.029Z</time></trkpt><trkpt lat="43.4604109" lon="11.5012309"><ele>755.8</ele><time>2026-04-03T14:17:49.032Z</time></trkpt><trkpt lat="43.4604844" lon="11.5012829"><ele>756.6</ele><time>2026-04-03T14:17:51.021Z</time></trkpt><trkpt lat="43.4605652" lon="11.5012561"><ele>757.4000000000001</ele><time>2026-04-03T14:17:53.027Z</time></trkpt><trkpt lat="43.4606422" lon="11.5011638"><ele>758.2</ele><time>2026-04-03T14:17:55.03Z</time></trkpt><trkpt lat="43.4606755" lon="11.5010515"><ele>759.0</ele><time>2026-04-03T14:17:57.02Z</time></trkpt><trkpt lat="43.4606906" lon="11.5008861"><ele>759.3333333333334</ele><time>2026-04-03T14:17:59.023Z</time></trkpt><trkpt lat="43.4607115" lon="11.5007914"><ele>759.6666666666666</ele><time>2026-04-03T14:18:00.025Z</time></trkpt><trkpt lat="43.4607379" lon="11.5007053"><ele>760.0</ele><time>2026-04-03T14:18:01.025Z</time></trkpt><trkpt lat="43.4607985" lon="11.5006058"><ele>760.3333333333333</ele><time>2026-04-03T14:18:03.019Z</time></trkpt><trkpt lat="43.460855" lon="11.5005135"><ele>760.6666666666666</ele><time>2026-04-03T14:18:05.02Z</time></trkpt><trkpt lat="43.4609324" lon="11.5003788"><ele>761.0</ele><time>2026-04-03T14:18:07.021Z</time></trkpt><trkpt lat="43.4609823" lon="11.5003166"><ele>761.0</ele><time>2026-04-03T14:18:08.019Z</time></trkpt><trkpt lat="43.4610573" lon="11.5002002"><ele>761.0</ele><time>2026-04-03T14:18:10.021Z</time></trkpt><trkpt lat="43.4611177" lon="11.5001275"><ele>761.0</ele><time>2026-04-03T14:18:12.033Z</time></trkpt><trkpt lat="43.4611925" lon="11.5000567"><ele>761.0</ele><time>2026-04-03T14:18:40.037Z</time></trkpt><trkpt lat="43.4612924" lon="11.49998"><ele>761.0</ele><time>2026-04-03T14:18:42.024Z</time></trkpt><trkpt lat="43.4613572" lon="11.4999346"><ele>763.1666666666666</ele><time>2026-04-03T14:18:43.015Z</time></trkpt><trkpt lat="43.4614267" lon="11.4999061"><ele>765.3333333333333</ele><time>2026-04-03T14:18:44.035Z</time></trkpt><trkpt lat="43.461498" lon="11.4998959"><ele>767.5</ele><time>2026-04-03T14:18:45.023Z</time></trkpt><trkpt lat="43.4615854" lon="11.4998907"><ele>769.6666666666666</ele><time>2026-04-03T14:18:46.035Z</time></trkpt><trkpt lat="43.4616786" lon="11.4998596"><ele>771.8333333333334</ele><time>2026-04-03T14:18:47.025Z</time></trkpt><trkpt lat="43.4617649" lon="11.4997991"><ele>774.0</ele><time>2026-04-03T14:18:48.023Z</time></trkpt><trkpt lat="43.461834" lon="11.4997464"><ele>774.0</ele><time>2026-04-03T14:18:49.026Z</time></trkpt><trkpt lat="43.461892" lon="11.4996915"><ele>774.0</ele><time>2026-04-03T14:18:50.02Z</time></trkpt><trkpt lat="43.4619501" lon="11.4996231"><ele>774.0</ele><time>2026-04-03T14:18:51.022Z</time></trkpt><trkpt lat="43.4620074" lon="11.4995417"><ele>774.0</ele><time>2026-04-03T14:18:52.024Z</time></trkpt><trkpt lat="43.4620633" lon="11.4994675"><ele>774.0</ele><time>2026-04-03T14:18:53.017Z</time></trkpt><trkpt lat="43.4621207" lon="11.4993972"><ele>774.0</ele><time>2026-04-03T14:18:54.024Z</time></trkpt><trkpt lat="43.4621744" lon="11.4993495"><ele>774.0</ele><time>2026-04-03T14:18:55.019Z</time></trkpt><trkpt lat="43.4622462" lon="11.4993426"><ele>775.0</ele><time>2026-04-03T14:18:57.023Z</time></trkpt><trkpt lat="43.4623113" lon="11.49937"><ele>776.0</ele><time>2026-04-03T14:18:59.023Z</time></trkpt><trkpt lat="43.4624233" lon="11.499416"><ele>777.0</ele><time>2026-04-03T14:19:01.03Z</time></trkpt><trkpt lat="43.462486" lon="11.4994246"><ele>778.0</ele><time>2026-04-03T14:19:02.026Z</time></trkpt><trkpt lat="43.4625917" lon="11.4994546"><ele>779.0</ele><time>2026-04-03T14:19:04.034Z</time></trkpt><trkpt lat="43.4626722" lon="11.4994568"><ele>780.0</ele><time>2026-04-03T14:19:06.035Z</time></trkpt><trkpt lat="43.4627947" lon="11.4994642"><ele>780.0</ele><time>2026-04-03T14:19:08.042Z</time></trkpt><trkpt lat="43.4628701" lon="11.4994527"><ele>780.0</ele><time>2026-04-03T14:19:09.024Z</time></trkpt><trkpt lat="43.4629433" lon="11.4994268"><ele>780.0</ele><time>2026-04-03T14:19:10.038Z</time></trkpt><trkpt lat="43.4630149" lon="11.4993949"><ele>780.0</ele><time>2026-04-03T14:19:11.032Z</time></trkpt><trkpt lat="43.4630826" lon="11.499358"><ele>780.0</ele><time>2026-04-03T14:19:12.035Z</time></trkpt><trkpt lat="43.4631538" lon="11.4993191"><ele>780.0</ele><time>2026-04-03T14:19:13.038Z</time></trkpt><trkpt lat="43.4632267" lon="11.4992766"><ele>780.3333333333334</ele><time>2026-04-03T14:19:14.028Z</time></trkpt><trkpt lat="43.4633003" lon="11.499225"><ele>780.6666666666667</ele><time>2026-04-03T14:19:15.022Z</time></trkpt><trkpt lat="43.4633714" lon="11.499168"><ele>781.0</ele><time>2026-04-03T14:19:16.027Z</time></trkpt><trkpt lat="43.4634295" lon="11.4991245"><ele>781.3333333333334</ele><time>2026-04-03T14:19:17.026Z</time></trkpt><trkpt lat="43.463503" lon="11.4990444"><ele>781.6666666666667</ele><time>2026-04-03T14:19:19.032Z</time></trkpt><trkpt lat="43.4635684" lon="11.4989574"><ele>782.0</ele><time>2026-04-03T14:19:21.014Z</time></trkpt><trkpt lat="43.4636344" lon="11.4988819"><ele>782.0</ele><time>2026-04-03T14:19:23.015Z</time></trkpt><trkpt lat="43.4636927" lon="11.4988029"><ele>782.0</ele><time>2026-04-03T14:19:25.021Z</time></trkpt><trkpt lat="43.4637538" lon="11.498679"><ele>782.0</ele><time>2026-04-03T14:19:27.026Z</time></trkpt><trkpt lat="43.4638031" lon="11.4985585"><ele>782.0</ele><time>2026-04-03T14:19:29.021Z</time></trkpt><trkpt lat="43.4638834" lon="11.4984774"><ele>782.0</ele><time>2026-04-03T14:19:31.025Z</time></trkpt><trkpt lat="43.4639921" lon="11.4984357"><ele>781.75</ele><time>2026-04-03T14:19:33.019Z</time></trkpt><trkpt lat="43.4641084" lon="11.498395"><ele>781.5</ele><time>2026-04-03T14:19:35.024Z</time></trkpt><trkpt lat="43.4642205" lon="11.4983626"><ele>781.25</ele><time>2026-04-03T14:19:37.02Z</time></trkpt><trkpt lat="43.4643375" lon="11.4983176"><ele>781.0</ele><time>2026-04-03T14:19:39.024Z</time></trkpt><trkpt lat="43.4644494" lon="11.4982825"><ele>781.0</ele><time>2026-04-03T14:19:41.023Z</time></trkpt><trkpt lat="43.4645664" lon="11.4982847"><ele>781.0</ele><time>2026-04-03T14:19:43.024Z</time></trkpt><trkpt lat="43.4646758" lon="11.4982579"><ele>781.0</ele><time>2026-04-03T14:19:45.03Z</time></trkpt><trkpt lat="43.4647531" lon="11.4981868"><ele>781.0</ele><time>2026-04-03T14:19:47.022Z</time></trkpt><trkpt lat="43.4648364" lon="11.4981088"><ele>781.0</ele><time>2026-04-03T14:19:49.032Z</time></trkpt><trkpt lat="43.4649503" lon="11.4980589"><ele>779.9999999999999</ele><time>2026-04-03T14:19:51.021Z</time></trkpt><trkpt lat="43.4650222" lon="11.4980443"><ele>779.0</ele><time>2026-04-03T14:19:52.023Z</time></trkpt><trkpt lat="43.4650997" lon="11.4980411"><ele>778.0</ele><time>2026-04-03T14:19:53.017Z</time></trkpt><trkpt lat="43.4651835" lon="11.4980372"><ele>777.0</ele><time>2026-04-03T14:19:54.039Z</time></trkpt><trkpt lat="43.4652632" lon="11.4980363"><ele>775.9999999999999</ele><time>2026-04-03T14:19:55.025Z</time></trkpt><trkpt lat="43.4653428" lon="11.4980418"><ele>775.0</ele><time>2026-04-03T14:19:56.03Z</time></trkpt><trkpt lat="43.4654225" lon="11.4980673"><ele>775.8</ele><time>2026-04-03T14:19:57.029Z</time></trkpt><trkpt lat="43.4655036" lon="11.4981135"><ele>776.6</ele><time>2026-04-03T14:19:58.036Z</time></trkpt><trkpt lat="43.4655883" lon="11.4981643"><ele>777.4000000000001</ele><time>2026-04-03T14:19:59.026Z</time></trkpt><trkpt lat="43.465673" lon="11.4982194"><ele>778.2</ele><time>2026-04-03T14:20:00.049Z</time></trkpt><trkpt lat="43.4657517" lon="11.4982764"><ele>779.0</ele><time>2026-04-03T14:20:01.027Z</time></trkpt><trkpt lat="43.4658351" lon="11.4983267"><ele>779.0000000000001</ele><time>2026-04-03T14:20:02.027Z</time></trkpt><trkpt lat="43.4659152" lon="11.4983656"><ele>779.0</ele><time>2026-04-03T14:20:03.016Z</time></trkpt><trkpt lat="43.4660022" lon="11.4983963"><ele>779.0</ele><time>2026-04-03T14:20:04.029Z</time></trkpt><trkpt lat="43.4660924" lon="11.4984145"><ele>779.0</ele><time>2026-04-03T14:20:05.014Z</time></trkpt><trkpt lat="43.4661814" lon="11.498428"><ele>779.0000000000001</ele><time>2026-04-03T14:20:06.034Z</time></trkpt><trkpt lat="43.4662706" lon="11.4984317"><ele>779.0</ele><time>2026-04-03T14:20:07.013Z</time></trkpt><trkpt lat="43.4663543" lon="11.49842"><ele>779.3333333333334</ele><time>2026-04-03T14:20:08.015Z</time></trkpt><trkpt lat="43.4664373" lon="11.4984089"><ele>779.6666666666667</ele><time>2026-04-03T14:20:09.031Z</time></trkpt><trkpt lat="43.4665151" lon="11.4983963"><ele>780.0</ele><time>2026-04-03T14:20:10.018Z</time></trkpt><trkpt lat="43.4665871" lon="11.4983851"><ele>780.3333333333333</ele><time>2026-04-03T14:20:11.023Z</time></trkpt><trkpt lat="43.4666689" lon="11.4983725"><ele>780.6666666666666</ele><time>2026-04-03T14:20:12.013Z</time></trkpt><trkpt lat="43.4667552" lon="11.4983514"><ele>781.0</ele><time>2026-04-03T14:20:13.019Z</time></trkpt><trkpt lat="43.4668476" lon="11.4983249"><ele>780.9999999999999</ele><time>2026-04-03T14:20:14.022Z</time></trkpt><trkpt lat="43.466938" lon="11.4983006"><ele>781.0</ele><time>2026-04-03T14:20:15.011Z</time></trkpt><trkpt lat="43.4670297" lon="11.4982819"><ele>781.0</ele><time>2026-04-03T14:20:16.021Z</time></trkpt><trkpt lat="43.4671159" lon="11.4982511"><ele>781.0</ele><time>2026-04-03T14:20:17.02Z</time></trkpt><trkpt lat="43.4672006" lon="11.4982203"><ele>780.9999999999999</ele><time>2026-04-03T14:20:18.028Z</time></trkpt><trkpt lat="43.467272" lon="11.4981992"><ele>781.0</ele><time>2026-04-03T14:20:19.028Z</time></trkpt><trkpt lat="43.467336" lon="11.4981883"><ele>779.4</ele><time>2026-04-03T14:20:20.021Z</time></trkpt><trkpt lat="43.4674504" lon="11.4981748"><ele>777.8</ele><time>2026-04-03T14:20:22.021Z</time></trkpt><trkpt lat="43.4675649" lon="11.4981851"><ele>776.1999999999999</ele><time>2026-04-03T14:20:24.014Z</time></trkpt><trkpt lat="43.4676845" lon="11.4981653"><ele>774.5999999999999</ele><time>2026-04-03T14:20:26.025Z</time></trkpt><trkpt lat="43.4677541" lon="11.4981411"><ele>773.0</ele><time>2026-04-03T14:20:28.016Z</time></trkpt><trkpt lat="43.4678409" lon="11.4980953"><ele>773.0000000000001</ele><time>2026-04-03T14:20:31.024Z</time></trkpt><trkpt lat="43.4679225" lon="11.4980658"><ele>773.0</ele><time>2026-04-03T14:20:34.025Z</time></trkpt><trkpt lat="43.4679901" lon="11.4980478"><ele>773.0</ele><time>2026-04-03T14:20:36.03Z</time></trkpt><trkpt lat="43.4680545" lon="11.4979803"><ele>773.0</ele><time>2026-04-03T14:20:38.022Z</time></trkpt><trkpt lat="43.468109" lon="11.497884"><ele>773.0000000000001</ele><time>2026-04-03T14:20:40.031Z</time></trkpt><trkpt lat="43.4681618" lon="11.4977952"><ele>773.0</ele><time>2026-04-03T14:20:42.024Z</time></trkpt><trkpt lat="43.4682035" lon="11.497679"><ele>769.6666666666667</ele><time>2026-04-03T14:20:44.026Z</time></trkpt><trkpt lat="43.4682343" lon="11.4975339"><ele>766.3333333333334</ele><time>2026-04-03T14:20:46.02Z</time></trkpt><trkpt lat="43.468245" lon="11.4974478"><ele>763.0</ele><time>2026-04-03T14:20:47.016Z</time></trkpt><trkpt lat="43.4682581" lon="11.4973578"><ele>759.6666666666667</ele><time>2026-04-03T14:20:48.021Z</time></trkpt><trkpt lat="43.468268" lon="11.4972708"><ele>756.3333333333334</ele><time>2026-04-03T14:20:49.019Z</time></trkpt><trkpt lat="43.4682673" lon="11.497184"><ele>753.0</ele><time>2026-04-03T14:20:50.01Z</time></trkpt><trkpt lat="43.4682093" lon="11.4970423"><ele>750.5999999999999</ele><time>2026-04-03T14:20:52.03Z</time></trkpt><trkpt lat="43.468139" lon="11.4969132"><ele>748.1999999999999</ele><time>2026-04-03T14:20:54.028Z</time></trkpt><trkpt lat="43.4681053" lon="11.4967542"><ele>745.8</ele><time>2026-04-03T14:20:56.021Z</time></trkpt><trkpt lat="43.468092" lon="11.4966685"><ele>743.4</ele><time>2026-04-03T14:20:57.013Z</time></trkpt><trkpt lat="43.468076" lon="11.4965824"><ele>741.0</ele><time>2026-04-03T14:20:58.012Z</time></trkpt><trkpt lat="43.468052" lon="11.4964248"><ele>741.0</ele><time>2026-04-03T14:21:00.019Z</time></trkpt><trkpt lat="43.4680477" lon="11.4962951"><ele>741.0</ele><time>2026-04-03T14:21:02.008Z</time></trkpt><trkpt lat="43.4680486" lon="11.4961754"><ele>741.0</ele><time>2026-04-03T14:21:04.018Z</time></trkpt><trkpt lat="43.468065" lon="11.4960518"><ele>741.0</ele><time>2026-04-03T14:21:06.024Z</time></trkpt><trkpt lat="43.4680844" lon="11.4959409"><ele>741.0</ele><time>2026-04-03T14:21:08.013Z</time></trkpt><trkpt lat="43.468091" lon="11.4958308"><ele>741.0</ele><time>2026-04-03T14:21:10.022Z</time></trkpt><trkpt lat="43.4680841" lon="11.4957022"><ele>740.6666666666666</ele><time>2026-04-03T14:21:12.021Z</time></trkpt><trkpt lat="43.4680906" lon="11.4955863"><ele>740.3333333333334</ele><time>2026-04-03T14:21:14.024Z</time></trkpt><trkpt lat="43.4680809" lon="11.4954608"><ele>740.0</ele><time>2026-04-03T14:21:17.012Z</time></trkpt><trkpt lat="43.4680805" lon="11.495367"><ele>739.6666666666667</ele><time>2026-04-03T14:21:19.007Z</time></trkpt><trkpt lat="43.4680587" lon="11.4952648"><ele>739.3333333333334</ele><time>2026-04-03T14:21:21.022Z</time></trkpt><trkpt lat="43.4680461" lon="11.4951393"><ele>739.0</ele><time>2026-04-03T14:21:23.028Z</time></trkpt><trkpt lat="43.4680315" lon="11.4950154"><ele>738.8333333333334</ele><time>2026-04-03T14:21:25.012Z</time></trkpt><trkpt lat="43.4680104" lon="11.4949053"><ele>738.6666666666667</ele><time>2026-04-03T14:21:27.017Z</time></trkpt><trkpt lat="43.4679594" lon="11.4947923"><ele>738.5</ele><time>2026-04-03T14:21:30.032Z</time></trkpt><trkpt lat="43.4679224" lon="11.4946965"><ele>738.3333333333334</ele><time>2026-04-03T14:21:32.029Z</time></trkpt><trkpt lat="43.4679279" lon="11.4945762"><ele>738.1666666666666</ele><time>2026-04-03T14:21:35.021Z</time></trkpt><trkpt lat="43.4679713" lon="11.4945095"><ele>738.0</ele><time>2026-04-03T14:25:09.014Z</time></trkpt><trkpt lat="43.4680199" lon="11.4944493"><ele>738.0</ele><time>2026-04-03T14:25:20.046Z</time></trkpt><trkpt lat="43.4680828" lon="11.4944655"><ele>738.0</ele><time>2026-04-03T14:25:24.021Z</time></trkpt><trkpt lat="43.4681537" lon="11.4945063"><ele>738.0</ele><time>2026-04-03T14:25:29.02Z</time></trkpt><trkpt lat="43.4682325" lon="11.4945406"><ele>738.0</ele><time>2026-04-03T14:25:33.019Z</time></trkpt><trkpt lat="43.4682918" lon="11.4945869"><ele>738.0</ele><time>2026-04-03T14:25:37.02Z</time></trkpt><trkpt lat="43.4683678" lon="11.4946597"><ele>738.0</ele><time>2026-04-03T14:25:41.01Z</time></trkpt><trkpt lat="43.4684334" lon="11.4947191"><ele>738.0</ele><time>2026-04-03T14:25:44.022Z</time></trkpt><trkpt lat="43.4685167" lon="11.4947577"><ele>738.0</ele><time>2026-04-03T14:26:32.027Z</time></trkpt><trkpt lat="43.4685871" lon="11.4947987"><ele>738.0</ele><time>2026-04-03T14:26:34.018Z</time></trkpt><trkpt lat="43.4686816" lon="11.494865"><ele>738.0</ele><time>2026-04-03T14:26:36.023Z</time></trkpt><trkpt lat="43.4687814" lon="11.4949507"><ele>738.0</ele><time>2026-04-03T14:26:38.021Z</time></trkpt><trkpt lat="43.4688456" lon="11.4950115"><ele>734.5999999999999</ele><time>2026-04-03T14:26:39.021Z</time></trkpt><trkpt lat="43.4689309" lon="11.4950809"><ele>731.1999999999999</ele><time>2026-04-03T14:26:40.028Z</time></trkpt><trkpt lat="43.4690008" lon="11.495187"><ele>727.8</ele><time>2026-04-03T14:26:41.02Z</time></trkpt><trkpt lat="43.4690695" lon="11.4952939"><ele>724.4</ele><time>2026-04-03T14:26:42.023Z</time></trkpt><trkpt lat="43.4691393" lon="11.4954068"><ele>721.0</ele><time>2026-04-03T14:26:43.011Z</time></trkpt><trkpt lat="43.4692071" lon="11.4955215"><ele>720.8333333333334</ele><time>2026-04-03T14:26:44.006Z</time></trkpt><trkpt lat="43.4692621" lon="11.4956303"><ele>720.6666666666667</ele><time>2026-04-03T14:26:45.02Z</time></trkpt><trkpt lat="43.4693162" lon="11.4957308"><ele>720.5</ele><time>2026-04-03T14:26:46.025Z</time></trkpt><trkpt lat="43.4693597" lon="11.4958192"><ele>720.3333333333334</ele><time>2026-04-03T14:26:47.017Z</time></trkpt><trkpt lat="43.4693948" lon="11.4959014"><ele>720.1666666666666</ele><time>2026-04-03T14:26:48.029Z</time></trkpt><trkpt lat="43.4694363" lon="11.4959742"><ele>720.0</ele><time>2026-04-03T14:26:49.015Z</time></trkpt><trkpt lat="43.4694835" lon="11.4960339"><ele>720.0</ele><time>2026-04-03T14:26:50.022Z</time></trkpt><trkpt lat="43.4695319" lon="11.4960908"><ele>720.0</ele><time>2026-04-03T14:26:51.029Z</time></trkpt><trkpt lat="43.469628" lon="11.4961633"><ele>720.0</ele><time>2026-04-03T14:26:53.025Z</time></trkpt><trkpt lat="43.4697159" lon="11.4961714"><ele>720.0</ele><time>2026-04-03T14:26:55.018Z</time></trkpt><trkpt lat="43.4697828" lon="11.4961342"><ele>720.0</ele><time>2026-04-03T14:26:57.016Z</time></trkpt><trkpt lat="43.4698531" lon="11.4960517"><ele>720.0</ele><time>2026-04-03T14:26:59.024Z</time></trkpt><trkpt lat="43.4699171" lon="11.4959382"><ele>715.25</ele><time>2026-04-03T14:27:01.024Z</time></trkpt><trkpt lat="43.4699826" lon="11.4958091"><ele>710.5</ele><time>2026-04-03T14:27:03.005Z</time></trkpt><trkpt lat="43.4700334" lon="11.4956512"><ele>705.75</ele><time>2026-04-03T14:27:05.015Z</time></trkpt><trkpt lat="43.4700734" lon="11.4954904"><ele>701.0</ele><time>2026-04-03T14:27:07.014Z</time></trkpt><trkpt lat="43.4701011" lon="11.4953414"><ele>701.0</ele><time>2026-04-03T14:27:09.02Z</time></trkpt><trkpt lat="43.4701352" lon="11.4952227"><ele>701.0</ele><time>2026-04-03T14:27:11.017Z</time></trkpt><trkpt lat="43.4701876" lon="11.4951253"><ele>701.0</ele><time>2026-04-03T14:27:13.017Z</time></trkpt><trkpt lat="43.4702503" lon="11.4950802"><ele>701.0</ele><time>2026-04-03T14:27:15.017Z</time></trkpt><trkpt lat="43.4703276" lon="11.4950618"><ele>701.0</ele><time>2026-04-03T14:27:17.02Z</time></trkpt><trkpt lat="43.4704103" lon="11.4950583"><ele>701.0</ele><time>2026-04-03T14:27:19.023Z</time></trkpt><trkpt lat="43.4704929" lon="11.4950539"><ele>699.7142857142858</ele><time>2026-04-03T14:27:21.024Z</time></trkpt><trkpt lat="43.470581" lon="11.4950215"><ele>698.4285714285713</ele><time>2026-04-03T14:27:23.028Z</time></trkpt><trkpt lat="43.4706408" lon="11.4949877"><ele>697.1428571428571</ele><time>2026-04-03T14:27:25.023Z</time></trkpt><trkpt lat="43.4707206" lon="11.4949831"><ele>695.8571428571429</ele><time>2026-04-03T14:27:28.028Z</time></trkpt><trkpt lat="43.4707872" lon="11.4949939"><ele>694.5714285714287</ele><time>2026-04-03T14:27:31.019Z</time></trkpt><trkpt lat="43.470853" lon="11.4949744"><ele>693.2857142857142</ele><time>2026-04-03T14:27:34.028Z</time></trkpt><trkpt lat="43.4709244" lon="11.4949314"><ele>692.0</ele><time>2026-04-03T14:27:37.023Z</time></trkpt><trkpt lat="43.4709905" lon="11.4948464"><ele>692.0</ele><time>2026-04-03T14:27:40.034Z</time></trkpt><trkpt lat="43.47103" lon="11.4947603"><ele>692.0</ele><time>2026-04-03T14:27:42.013Z</time></trkpt><trkpt lat="43.4710872" lon="11.4947037"><ele>692.0</ele><time>2026-04-03T14:27:44.04Z</time></trkpt><trkpt lat="43.4711672" lon="11.4947118"><ele>692.0</ele><time>2026-04-03T14:27:52.039Z</time></trkpt><trkpt lat="43.471239" lon="11.4946489"><ele>692.0</ele><time>2026-04-03T14:27:55.023Z</time></trkpt><trkpt lat="43.4712902" lon="11.4945597"><ele>692.0</ele><time>2026-04-03T14:27:58.02Z</time></trkpt><trkpt lat="43.4713507" lon="11.4944935"><ele>691.0</ele><time>2026-04-03T14:28:01.02Z</time></trkpt><trkpt lat="43.471423" lon="11.4944307"><ele>690.0</ele><time>2026-04-03T14:28:04.02Z</time></trkpt><trkpt lat="43.4715041" lon="11.4943451"><ele>689.0</ele><time>2026-04-03T14:28:07.034Z</time></trkpt><trkpt lat="43.4715948" lon="11.49428"><ele>688.0</ele><time>2026-04-03T14:28:09.032Z</time></trkpt><trkpt lat="43.4717097" lon="11.4942039"><ele>687.0</ele><time>2026-04-03T14:28:11.024Z</time></trkpt><trkpt lat="43.4717735" lon="11.494163"><ele>687.0</ele><time>2026-04-03T14:28:12.029Z</time></trkpt><trkpt lat="43.4718376" lon="11.4941252"><ele>687.0</ele><time>2026-04-03T14:28:13.016Z</time></trkpt><trkpt lat="43.4719051" lon="11.4940907"><ele>687.0</ele><time>2026-04-03T14:28:14.027Z</time></trkpt><trkpt lat="43.4719729" lon="11.4940574"><ele>687.0</ele><time>2026-04-03T14:28:15.025Z</time></trkpt><trkpt lat="43.4720407" lon="11.4940254"><ele>687.0</ele><time>2026-04-03T14:28:16.026Z</time></trkpt><trkpt lat="43.4721168" lon="11.4939871"><ele>687.0</ele><time>2026-04-03T14:28:17.022Z</time></trkpt><trkpt lat="43.4721958" lon="11.4939375"><ele>686.5</ele><time>2026-04-03T14:28:18.041Z</time></trkpt><trkpt lat="43.4722776" lon="11.4938779"><ele>686.0</ele><time>2026-04-03T14:28:19.026Z</time></trkpt><trkpt lat="43.472345" lon="11.4938115"><ele>685.5</ele><time>2026-04-03T14:28:20.039Z</time></trkpt><trkpt lat="43.4723922" lon="11.4937348"><ele>685.0</ele><time>2026-04-03T14:28:21.021Z</time></trkpt><trkpt lat="43.4724183" lon="11.4936433"><ele>684.5</ele><time>2026-04-03T14:28:22.028Z</time></trkpt><trkpt lat="43.4724359" lon="11.4935552"><ele>684.0</ele><time>2026-04-03T14:28:23.016Z</time></trkpt><trkpt lat="43.4724775" lon="11.4934175"><ele>684.0</ele><time>2026-04-03T14:28:25.024Z</time></trkpt><trkpt lat="43.4725421" lon="11.4932701"><ele>684.0</ele><time>2026-04-03T14:28:27.018Z</time></trkpt><trkpt lat="43.4725715" lon="11.4931921"><ele>684.0</ele><time>2026-04-03T14:28:28.019Z</time></trkpt><trkpt lat="43.4726025" lon="11.4930977"><ele>684.0</ele><time>2026-04-03T14:28:29.018Z</time></trkpt><trkpt lat="43.4726243" lon="11.4930002"><ele>684.0</ele><time>2026-04-03T14:28:30.032Z</time></trkpt><trkpt lat="43.4726482" lon="11.4928997"><ele>684.0</ele><time>2026-04-03T14:28:31.02Z</time></trkpt><trkpt lat="43.4727168" lon="11.4927532"><ele>684.0</ele><time>2026-04-03T14:28:33.031Z</time></trkpt><trkpt lat="43.4727611" lon="11.4926837"><ele>684.0</ele><time>2026-04-03T14:28:34.026Z</time></trkpt><trkpt lat="43.4728151" lon="11.49261"><ele>684.0</ele><time>2026-04-03T14:28:35.023Z</time></trkpt><trkpt lat="43.4728785" lon="11.4925432"><ele>684.0</ele><time>2026-04-03T14:28:36.027Z</time></trkpt><trkpt lat="43.4729471" lon="11.4924771"><ele>684.0</ele><time>2026-04-03T14:28:37.025Z</time></trkpt><trkpt lat="43.4730178" lon="11.4924147"><ele>684.0</ele><time>2026-04-03T14:28:38.033Z</time></trkpt><trkpt lat="43.4730922" lon="11.4923559"><ele>684.1666666666666</ele><time>2026-04-03T14:28:39.022Z</time></trkpt><trkpt lat="43.4731674" lon="11.4922997"><ele>684.3333333333334</ele><time>2026-04-03T14:28:40.029Z</time></trkpt><trkpt lat="43.4732394" lon="11.4922474"><ele>684.5</ele><time>2026-04-03T14:28:41.025Z</time></trkpt><trkpt lat="43.4733112" lon="11.4922068"><ele>684.6666666666667</ele><time>2026-04-03T14:28:42.03Z</time></trkpt><trkpt lat="43.4733844" lon="11.4921997"><ele>684.8333333333334</ele><time>2026-04-03T14:28:43.014Z</time></trkpt><trkpt lat="43.4734544" lon="11.4921947"><ele>685.0</ele><time>2026-04-03T14:28:44.035Z</time></trkpt><trkpt lat="43.4735196" lon="11.4921839"><ele>685.0</ele><time>2026-04-03T14:28:45.026Z</time></trkpt><trkpt lat="43.4736473" lon="11.4921443"><ele>685.0</ele><time>2026-04-03T14:28:47.036Z</time></trkpt><trkpt lat="43.4737103" lon="11.4921091"><ele>685.0</ele><time>2026-04-03T14:28:48.033Z</time></trkpt><trkpt lat="43.4737752" lon="11.4920657"><ele>685.0</ele><time>2026-04-03T14:28:49.032Z</time></trkpt><trkpt lat="43.4738362" lon="11.4920098"><ele>685.0</ele><time>2026-04-03T14:28:50.026Z</time></trkpt><trkpt lat="43.4739001" lon="11.4919404"><ele>685.0</ele><time>2026-04-03T14:28:51.027Z</time></trkpt><trkpt lat="43.4739594" lon="11.4918632"><ele>684.4285714285714</ele><time>2026-04-03T14:28:52.025Z</time></trkpt><trkpt lat="43.4740105" lon="11.4917742"><ele>683.8571428571429</ele><time>2026-04-03T14:28:53.027Z</time></trkpt><trkpt lat="43.4740461" lon="11.4916797"><ele>683.2857142857143</ele><time>2026-04-03T14:28:54.026Z</time></trkpt><trkpt lat="43.4740804" lon="11.4915912"><ele>682.7142857142858</ele><time>2026-04-03T14:28:55.019Z</time></trkpt><trkpt lat="43.4741164" lon="11.4915055"><ele>682.1428571428571</ele><time>2026-04-03T14:28:56.016Z</time></trkpt><trkpt lat="43.4741495" lon="11.491425"><ele>681.5714285714287</ele><time>2026-04-03T14:28:57.015Z</time></trkpt><trkpt lat="43.4741807" lon="11.4913461"><ele>681.0</ele><time>2026-04-03T14:28:58.033Z</time></trkpt><trkpt lat="43.4742091" lon="11.4912636"><ele>680.4285714285714</ele><time>2026-04-03T14:28:59.015Z</time></trkpt><trkpt lat="43.4742409" lon="11.4911809"><ele>679.8571428571429</ele><time>2026-04-03T14:29:00.027Z</time></trkpt><trkpt lat="43.4742856" lon="11.4911081"><ele>679.2857142857142</ele><time>2026-04-03T14:29:01.035Z</time></trkpt><trkpt lat="43.4743402" lon="11.4910465"><ele>678.7142857142858</ele><time>2026-04-03T14:29:02.024Z</time></trkpt><trkpt lat="43.4744025" lon="11.4909948"><ele>678.1428571428571</ele><time>2026-04-03T14:29:03.016Z</time></trkpt><trkpt lat="43.474472" lon="11.4909508"><ele>677.5714285714286</ele><time>2026-04-03T14:29:04.03Z</time></trkpt><trkpt lat="43.4745446" lon="11.4909146"><ele>677.0</ele><time>2026-04-03T14:29:05.019Z</time></trkpt><trkpt lat="43.4746196" lon="11.4908856"><ele>675.8333333333333</ele><time>2026-04-03T14:29:06.021Z</time></trkpt><trkpt lat="43.4746917" lon="11.4908464"><ele>674.6666666666666</ele><time>2026-04-03T14:29:07.032Z</time></trkpt><trkpt lat="43.4747623" lon="11.4908075"><ele>673.5</ele><time>2026-04-03T14:29:08.021Z</time></trkpt><trkpt lat="43.4748413" lon="11.4907625"><ele>672.3333333333334</ele><time>2026-04-03T14:29:09.025Z</time></trkpt><trkpt lat="43.4749176" lon="11.4907254"><ele>671.1666666666667</ele><time>2026-04-03T14:29:10.028Z</time></trkpt><trkpt lat="43.4749878" lon="11.4906853"><ele>670.0</ele><time>2026-04-03T14:29:11.022Z</time></trkpt><trkpt lat="43.475052" lon="11.4906467"><ele>669.9999999999999</ele><time>2026-04-03T14:29:12.032Z</time></trkpt><trkpt lat="43.4751138" lon="11.4906097"><ele>670.0</ele><time>2026-04-03T14:29:13.02Z</time></trkpt><trkpt lat="43.4751706" lon="11.4905702"><ele>670.0</ele><time>2026-04-03T14:29:14.033Z</time></trkpt><trkpt lat="43.4752281" lon="11.4905337"><ele>670.0</ele><time>2026-04-03T14:29:15.027Z</time></trkpt><trkpt lat="43.4752855" lon="11.4904859"><ele>670.0</ele><time>2026-04-03T14:29:16.029Z</time></trkpt><trkpt lat="43.4753412" lon="11.4904205"><ele>669.9999999999999</ele><time>2026-04-03T14:29:17.017Z</time></trkpt><trkpt lat="43.4753852" lon="11.4903362"><ele>670.0</ele><time>2026-04-03T14:29:18.021Z</time></trkpt><trkpt lat="43.4754169" lon="11.4902444"><ele>668.1428571428571</ele><time>2026-04-03T14:29:19.027Z</time></trkpt><trkpt lat="43.4754438" lon="11.4901462"><ele>666.2857142857142</ele><time>2026-04-03T14:29:20.023Z</time></trkpt><trkpt lat="43.4754637" lon="11.4900509"><ele>664.4285714285713</ele><time>2026-04-03T14:29:21.019Z</time></trkpt><trkpt lat="43.4754886" lon="11.4899584"><ele>662.5714285714286</ele><time>2026-04-03T14:29:22.024Z</time></trkpt><trkpt lat="43.4755266" lon="11.4898743"><ele>660.7142857142858</ele><time>2026-04-03T14:29:23.026Z</time></trkpt><trkpt lat="43.475576" lon="11.4898031"><ele>658.8571428571428</ele><time>2026-04-03T14:29:24.022Z</time></trkpt><trkpt lat="43.4756339" lon="11.4897444"><ele>657.0</ele><time>2026-04-03T14:29:25.021Z</time></trkpt><trkpt lat="43.4756944" lon="11.489702"><ele>657.0</ele><time>2026-04-03T14:29:26.026Z</time></trkpt><trkpt lat="43.4757648" lon="11.4896631"><ele>657.0</ele><time>2026-04-03T14:29:27.019Z</time></trkpt><trkpt lat="43.4758455" lon="11.4896286"><ele>657.0</ele><time>2026-04-03T14:29:28.028Z</time></trkpt><trkpt lat="43.4759365" lon="11.4895915"><ele>657.0</ele><time>2026-04-03T14:29:29.025Z</time></trkpt><trkpt lat="43.4760292" lon="11.4895391"><ele>657.0</ele><time>2026-04-03T14:29:30.033Z</time></trkpt><trkpt lat="43.4761224" lon="11.4894861"><ele>656.4000000000001</ele><time>2026-04-03T14:29:31.022Z</time></trkpt><trkpt lat="43.4762174" lon="11.4894561"><ele>655.8000000000001</ele><time>2026-04-03T14:29:32.017Z</time></trkpt><trkpt lat="43.4763116" lon="11.4894447"><ele>655.2</ele><time>2026-04-03T14:29:33.021Z</time></trkpt><trkpt lat="43.4764056" lon="11.489437"><ele>654.6</ele><time>2026-04-03T14:29:34.022Z</time></trkpt><trkpt lat="43.4765043" lon="11.489425"><ele>654.0</ele><time>2026-04-03T14:29:35.021Z</time></trkpt><trkpt lat="43.4766091" lon="11.4894002"><ele>654.0</ele><time>2026-04-03T14:29:36.029Z</time></trkpt><trkpt lat="43.4767164" lon="11.4893655"><ele>654.0</ele><time>2026-04-03T14:29:37.016Z</time></trkpt><trkpt lat="43.4768197" lon="11.489325"><ele>654.0</ele><time>2026-04-03T14:29:38.031Z</time></trkpt><trkpt lat="43.4769169" lon="11.4892665"><ele>654.0</ele><time>2026-04-03T14:29:39.021Z</time></trkpt><trkpt lat="43.4770081" lon="11.4891998"><ele>654.0</ele><time>2026-04-03T14:29:40.02Z</time></trkpt><trkpt lat="43.4770904" lon="11.4891269"><ele>653.8000000000001</ele><time>2026-04-03T14:29:41.03Z</time></trkpt><trkpt lat="43.477157" lon="11.4890446"><ele>653.6</ele><time>2026-04-03T14:29:42.037Z</time></trkpt><trkpt lat="43.4772213" lon="11.4889487"><ele>653.4</ele><time>2026-04-03T14:29:43.023Z</time></trkpt><trkpt lat="43.4772847" lon="11.4888448"><ele>653.2</ele><time>2026-04-03T14:29:44.03Z</time></trkpt><trkpt lat="43.4773452" lon="11.4887312"><ele>653.0</ele><time>2026-04-03T14:29:45.019Z</time></trkpt><trkpt lat="43.4773942" lon="11.4886049"><ele>653.0</ele><time>2026-04-03T14:29:46.023Z</time></trkpt><trkpt lat="43.4774407" lon="11.4884685"><ele>653.0</ele><time>2026-04-03T14:29:47.025Z</time></trkpt><trkpt lat="43.4774914" lon="11.4883345"><ele>653.0</ele><time>2026-04-03T14:29:48.036Z</time></trkpt><trkpt lat="43.4775427" lon="11.4882099"><ele>653.0</ele><time>2026-04-03T14:29:49.023Z</time></trkpt><trkpt lat="43.4775881" lon="11.4881016"><ele>653.0</ele><time>2026-04-03T14:29:50.034Z</time></trkpt><trkpt lat="43.4776229" lon="11.4879892"><ele>653.2</ele><time>2026-04-03T14:29:51.024Z</time></trkpt><trkpt lat="43.4776545" lon="11.4878632"><ele>653.4</ele><time>2026-04-03T14:29:52.031Z</time></trkpt><trkpt lat="43.4776779" lon="11.4877253"><ele>653.6</ele><time>2026-04-03T14:29:53.02Z</time></trkpt><trkpt lat="43.4776771" lon="11.4875868"><ele>653.8000000000001</ele><time>2026-04-03T14:29:54.031Z</time></trkpt><trkpt lat="43.477653" lon="11.4874457"><ele>654.0</ele><time>2026-04-03T14:29:55.022Z</time></trkpt><trkpt lat="43.4776141" lon="11.4873027"><ele>654.0</ele><time>2026-04-03T14:29:56.025Z</time></trkpt><trkpt lat="43.4775668" lon="11.4871657"><ele>654.0</ele><time>2026-04-03T14:29:57.028Z</time></trkpt><trkpt lat="43.477512" lon="11.48704"><ele>654.0</ele><time>2026-04-03T14:29:58.026Z</time></trkpt><trkpt lat="43.4774606" lon="11.4869187"><ele>654.0</ele><time>2026-04-03T14:29:59.022Z</time></trkpt><trkpt lat="43.4774237" lon="11.4867885"><ele>654.0</ele><time>2026-04-03T14:30:00.037Z</time></trkpt><trkpt lat="43.4774044" lon="11.4866494"><ele>654.6</ele><time>2026-04-03T14:30:01.036Z</time></trkpt><trkpt lat="43.4774072" lon="11.4865033"><ele>655.2</ele><time>2026-04-03T14:30:02.033Z</time></trkpt><trkpt lat="43.4774302" lon="11.4863553"><ele>655.8000000000001</ele><time>2026-04-03T14:30:03.023Z</time></trkpt><trkpt lat="43.4774549" lon="11.4862131"><ele>656.4000000000001</ele><time>2026-04-03T14:30:04.021Z</time></trkpt><trkpt lat="43.4774618" lon="11.4860644"><ele>657.0</ele><time>2026-04-03T14:30:05.023Z</time></trkpt><trkpt lat="43.4774586" lon="11.4859117"><ele>657.0</ele><time>2026-04-03T14:30:06.026Z</time></trkpt><trkpt lat="43.4774459" lon="11.4857598"><ele>657.0</ele><time>2026-04-03T14:30:07.017Z</time></trkpt><trkpt lat="43.477429" lon="11.4856156"><ele>657.0</ele><time>2026-04-03T14:30:08.023Z</time></trkpt><trkpt lat="43.4773993" lon="11.4854902"><ele>657.0</ele><time>2026-04-03T14:30:09.027Z</time></trkpt><trkpt lat="43.4773589" lon="11.4853772"><ele>657.0</ele><time>2026-04-03T14:30:10.025Z</time></trkpt><trkpt lat="43.4772977" lon="11.4852734"><ele>655.8</ele><time>2026-04-03T14:30:11.022Z</time></trkpt><trkpt lat="43.4772149" lon="11.4851926"><ele>654.6</ele><time>2026-04-03T14:30:12.02Z</time></trkpt><trkpt lat="43.4771196" lon="11.4851375"><ele>653.4</ele><time>2026-04-03T14:30:13.026Z</time></trkpt><trkpt lat="43.4770214" lon="11.4851083"><ele>652.1999999999999</ele><time>2026-04-03T14:30:14.028Z</time></trkpt><trkpt lat="43.4769299" lon="11.4850701"><ele>651.0</ele><time>2026-04-03T14:30:15.025Z</time></trkpt><trkpt lat="43.4768453" lon="11.4849996"><ele>649.8333333333334</ele><time>2026-04-03T14:30:16.019Z</time></trkpt><trkpt lat="43.4767809" lon="11.4849098"><ele>648.6666666666666</ele><time>2026-04-03T14:30:17.02Z</time></trkpt><trkpt lat="43.4767366" lon="11.484801"><ele>647.5</ele><time>2026-04-03T14:30:18.032Z</time></trkpt><trkpt lat="43.4767126" lon="11.4846868"><ele>646.3333333333333</ele><time>2026-04-03T14:30:19.019Z</time></trkpt><trkpt lat="43.4767139" lon="11.4845775"><ele>645.1666666666666</ele><time>2026-04-03T14:30:20.026Z</time></trkpt><trkpt lat="43.4767435" lon="11.4844861"><ele>644.0</ele><time>2026-04-03T14:30:21.02Z</time></trkpt><trkpt lat="43.4767923" lon="11.4844248"><ele>643.0</ele><time>2026-04-03T14:30:22.032Z</time></trkpt><trkpt lat="43.4768614" lon="11.4843844"><ele>642.0</ele><time>2026-04-03T14:30:23.017Z</time></trkpt><trkpt lat="43.4769416" lon="11.4843886"><ele>641.0</ele><time>2026-04-03T14:30:24.02Z</time></trkpt><trkpt lat="43.4770266" lon="11.4844142"><ele>640.0</ele><time>2026-04-03T14:30:25.016Z</time></trkpt><trkpt lat="43.4771159" lon="11.4844542"><ele>639.0</ele><time>2026-04-03T14:30:26.025Z</time></trkpt><trkpt lat="43.477211" lon="11.4844902"><ele>638.0</ele><time>2026-04-03T14:30:27.01Z</time></trkpt><trkpt lat="43.4773084" lon="11.4845193"><ele>638.0</ele><time>2026-04-03T14:30:28.035Z</time></trkpt><trkpt lat="43.4774181" lon="11.4845416"><ele>638.0</ele><time>2026-04-03T14:30:29.026Z</time></trkpt><trkpt lat="43.4775269" lon="11.4845505"><ele>638.0</ele><time>2026-04-03T14:30:30.024Z</time></trkpt><trkpt lat="43.4776276" lon="11.4845378"><ele>638.0</ele><time>2026-04-03T14:30:31.016Z</time></trkpt><trkpt lat="43.477711" lon="11.4844935"><ele>638.0</ele><time>2026-04-03T14:30:32.045Z</time></trkpt><trkpt lat="43.4777775" lon="11.4844285"><ele>638.0</ele><time>2026-04-03T14:30:33.031Z</time></trkpt><trkpt lat="43.4778368" lon="11.4843417"><ele>638.0</ele><time>2026-04-03T14:30:34.031Z</time></trkpt><trkpt lat="43.4778915" lon="11.4842388"><ele>638.0</ele><time>2026-04-03T14:30:35.01Z</time></trkpt><trkpt lat="43.4779547" lon="11.4841367"><ele>638.0</ele><time>2026-04-03T14:30:36.025Z</time></trkpt><trkpt lat="43.4780247" lon="11.484044"><ele>638.0</ele><time>2026-04-03T14:30:37.019Z</time></trkpt><trkpt lat="43.4780934" lon="11.4839504"><ele>637.8</ele><time>2026-04-03T14:30:38.036Z</time></trkpt><trkpt lat="43.478166" lon="11.4838545"><ele>637.5999999999999</ele><time>2026-04-03T14:30:39.02Z</time></trkpt><trkpt lat="43.4782336" lon="11.4837543"><ele>637.4000000000001</ele><time>2026-04-03T14:30:40.012Z</time></trkpt><trkpt lat="43.4782992" lon="11.483646"><ele>637.2</ele><time>2026-04-03T14:30:41.026Z</time></trkpt><trkpt lat="43.4783568" lon="11.4835347"><ele>637.0</ele><time>2026-04-03T14:30:42.021Z</time></trkpt><trkpt lat="43.4784115" lon="11.4834196"><ele>636.0</ele><time>2026-04-03T14:30:43.029Z</time></trkpt><trkpt lat="43.4784558" lon="11.4833033"><ele>635.0</ele><time>2026-04-03T14:30:44.03Z</time></trkpt><trkpt lat="43.4784871" lon="11.4831735"><ele>634.0</ele><time>2026-04-03T14:30:45.019Z</time></trkpt><trkpt lat="43.4785031" lon="11.4830319"><ele>633.0</ele><time>2026-04-03T14:30:46.028Z</time></trkpt><trkpt lat="43.4785104" lon="11.4828846"><ele>632.0</ele><time>2026-04-03T14:30:47.023Z</time></trkpt><trkpt lat="43.4785177" lon="11.4827355"><ele>631.0</ele><time>2026-04-03T14:30:48.026Z</time></trkpt><trkpt lat="43.4785282" lon="11.4825796"><ele>630.0</ele><time>2026-04-03T14:30:49.015Z</time></trkpt><trkpt lat="43.4785443" lon="11.4824347"><ele>629.0</ele><time>2026-04-03T14:30:50.032Z</time></trkpt><trkpt lat="43.4785677" lon="11.4823058"><ele>628.0</ele><time>2026-04-03T14:30:51.017Z</time></trkpt><trkpt lat="43.4785905" lon="11.4821856"><ele>627.0</ele><time>2026-04-03T14:30:52.028Z</time></trkpt><trkpt lat="43.4786161" lon="11.4820765"><ele>626.8333333333334</ele><time>2026-04-03T14:30:53.02Z</time></trkpt><trkpt lat="43.4786481" lon="11.4819735"><ele>626.6666666666666</ele><time>2026-04-03T14:30:54.028Z</time></trkpt><trkpt lat="43.4786833" lon="11.4818797"><ele>626.5</ele><time>2026-04-03T14:30:55.024Z</time></trkpt><trkpt lat="43.4787075" lon="11.4817784"><ele>626.3333333333333</ele><time>2026-04-03T14:30:56.027Z</time></trkpt><trkpt lat="43.478718" lon="11.4816913"><ele>626.1666666666666</ele><time>2026-04-03T14:30:57.021Z</time></trkpt><trkpt lat="43.4787012" lon="11.4815968"><ele>626.0</ele><time>2026-04-03T14:30:58.025Z</time></trkpt><trkpt lat="43.4786552" lon="11.4814914"><ele>626.0</ele><time>2026-04-03T14:30:59.011Z</time></trkpt><trkpt lat="43.4786083" lon="11.4813799"><ele>626.0</ele><time>2026-04-03T14:31:00.031Z</time></trkpt><trkpt lat="43.4785637" lon="11.4812544"><ele>626.0</ele><time>2026-04-03T14:31:01.02Z</time></trkpt><trkpt lat="43.4785328" lon="11.4811211"><ele>626.0</ele><time>2026-04-03T14:31:02.029Z</time></trkpt><trkpt lat="43.4785277" lon="11.4809727"><ele>626.0</ele><time>2026-04-03T14:31:03.013Z</time></trkpt><trkpt lat="43.478537" lon="11.4808233"><ele>625.6</ele><time>2026-04-03T14:31:04.036Z</time></trkpt><trkpt lat="43.4785604" lon="11.4806805"><ele>625.2</ele><time>2026-04-03T14:31:05.028Z</time></trkpt><trkpt lat="43.4786059" lon="11.4805581"><ele>624.8</ele><time>2026-04-03T14:31:06.03Z</time></trkpt><trkpt lat="43.4786489" lon="11.4804239"><ele>624.4</ele><time>2026-04-03T14:31:07.025Z</time></trkpt><trkpt lat="43.4786847" lon="11.4802874"><ele>624.0</ele><time>2026-04-03T14:31:08.026Z</time></trkpt><trkpt lat="43.4787222" lon="11.4801461"><ele>623.8</ele><time>2026-04-03T14:31:09.025Z</time></trkpt><trkpt lat="43.4787518" lon="11.4800036"><ele>623.5999999999999</ele><time>2026-04-03T14:31:10.039Z</time></trkpt><trkpt lat="43.4787737" lon="11.4798697"><ele>623.4</ele><time>2026-04-03T14:31:11.028Z</time></trkpt><trkpt lat="43.4787895" lon="11.4797504"><ele>623.1999999999999</ele><time>2026-04-03T14:31:12.032Z</time></trkpt><trkpt lat="43.4788149" lon="11.4796407"><ele>623.0</ele><time>2026-04-03T14:31:13.019Z</time></trkpt><trkpt lat="43.478859" lon="11.4795399"><ele>623.0</ele><time>2026-04-03T14:31:14.02Z</time></trkpt><trkpt lat="43.4789156" lon="11.4794508"><ele>623.0</ele><time>2026-04-03T14:31:15.019Z</time></trkpt><trkpt lat="43.4789784" lon="11.4793704"><ele>623.0</ele><time>2026-04-03T14:31:16.015Z</time></trkpt><trkpt lat="43.4790398" lon="11.4792816"><ele>623.0</ele><time>2026-04-03T14:31:17.018Z</time></trkpt><trkpt lat="43.4791072" lon="11.4791953"><ele>623.0</ele><time>2026-04-03T14:31:18.022Z</time></trkpt><trkpt lat="43.4791835" lon="11.479114"><ele>623.0</ele><time>2026-04-03T14:31:19.023Z</time></trkpt><trkpt lat="43.4792575" lon="11.479025"><ele>623.0</ele><time>2026-04-03T14:31:20.017Z</time></trkpt><trkpt lat="43.4793282" lon="11.478926"><ele>623.0</ele><time>2026-04-03T14:31:21.021Z</time></trkpt><trkpt lat="43.4794022" lon="11.4788396"><ele>623.0</ele><time>2026-04-03T14:31:22.029Z</time></trkpt><trkpt lat="43.4794752" lon="11.4787482"><ele>623.0</ele><time>2026-04-03T14:31:23.023Z</time></trkpt><trkpt lat="43.4795392" lon="11.4786483"><ele>623.0</ele><time>2026-04-03T14:31:24.029Z</time></trkpt><trkpt lat="43.4795935" lon="11.4785324"><ele>621.1999999999999</ele><time>2026-04-03T14:31:25.028Z</time></trkpt><trkpt lat="43.479653" lon="11.4784079"><ele>619.4</ele><time>2026-04-03T14:31:26.024Z</time></trkpt><trkpt lat="43.4797148" lon="11.4782868"><ele>617.5999999999999</ele><time>2026-04-03T14:31:27.018Z</time></trkpt><trkpt lat="43.4797699" lon="11.4781675"><ele>615.8</ele><time>2026-04-03T14:31:28.03Z</time></trkpt><trkpt lat="43.479814" lon="11.4780437"><ele>614.0</ele><time>2026-04-03T14:31:29.027Z</time></trkpt><trkpt lat="43.4798538" lon="11.4779221"><ele>613.0</ele><time>2026-04-03T14:31:30.031Z</time></trkpt><trkpt lat="43.4798873" lon="11.477805"><ele>612.0</ele><time>2026-04-03T14:31:31.018Z</time></trkpt><trkpt lat="43.4785443" lon="11.4824347"><ele>614.3333333333334</ele><time>2026-04-03T14:30:50.032Z</time></trkpt><trkpt lat="43.4785677" lon="11.4823058"><ele>616.6666666666666</ele><time>2026-04-03T14:30:51.017Z</time></trkpt><trkpt lat="43.4785905" lon="11.4821856"><ele>619.0</ele><time>2026-04-03T14:30:52.028Z</time></trkpt><trkpt lat="43.4786161" lon="11.4820765"><ele>621.3333333333333</ele><time>2026-04-03T14:30:53.02Z</time></trkpt><trkpt lat="43.4786481" lon="11.4819735"><ele>623.6666666666666</ele><time>2026-04-03T14:30:54.028Z</time></trkpt><trkpt lat="43.4786833" lon="11.4818797"><ele>626.0</ele><time>2026-04-03T14:30:55.024Z</time></trkpt><trkpt lat="43.4787075" lon="11.4817784"><ele>626.0</ele><time>2026-04-03T14:30:56.027Z</time></trkpt><trkpt lat="43.478718" lon="11.4816913"><ele>626.0</ele><time>2026-04-03T14:30:57.021Z</time></trkpt><trkpt lat="43.4787012" lon="11.4815968"><ele>626.0</ele><time>2026-04-03T14:30:58.025Z</time></trkpt><trkpt lat="43.4786552" lon="11.4814914"><ele>626.0</ele><time>2026-04-03T14:30:59.011Z</time></trkpt><trkpt lat="43.4786083" lon="11.4813799"><ele>626.0</ele><time>2026-04-03T14:31:00.031Z</time></trkpt><trkpt lat="43.4785637" lon="11.4812544"><ele>626.0</ele><time>2026-04-03T14:31:01.02Z</time></trkpt><trkpt lat="43.4785328" lon="11.4811211"><ele>625.6</ele><time>2026-04-03T14:31:02.029Z</time></trkpt><trkpt lat="43.4785277" lon="11.4809727"><ele>625.2</ele><time>2026-04-03T14:31:03.013Z</time></trkpt><trkpt lat="43.478537" lon="11.4808233"><ele>624.8</ele><time>2026-04-03T14:31:04.036Z</time></trkpt><trkpt lat="43.4785604" lon="11.4806805"><ele>624.4</ele><time>2026-04-03T14:31:05.028Z</time></trkpt><trkpt lat="43.4786059" lon="11.4805581"><ele>624.0</ele><time>2026-04-03T14:31:06.03Z</time></trkpt><trkpt lat="43.4786489" lon="11.4804239"><ele>623.8</ele><time>2026-04-03T14:31:07.025Z</time></trkpt><trkpt lat="43.4786847" lon="11.4802874"><ele>623.5999999999999</ele><time>2026-04-03T14:31:08.026Z</time></trkpt><trkpt lat="43.4787222" lon="11.4801461"><ele>623.4</ele><time>2026-04-03T14:31:09.025Z</time></trkpt><trkpt lat="43.4787518" lon="11.4800036"><ele>623.1999999999999</ele><time>2026-04-03T14:31:10.039Z</time></trkpt><trkpt lat="43.4787737" lon="11.4798697"><ele>623.0</ele><time>2026-04-03T14:31:11.028Z</time></trkpt><trkpt lat="43.4787895" lon="11.4797504"><ele>623.0</ele><time>2026-04-03T14:31:12.032Z</time></trkpt><trkpt lat="43.4788149" lon="11.4796407"><ele>623.0</ele><time>2026-04-03T14:31:13.019Z</time></trkpt><trkpt lat="43.478859" lon="11.4795399"><ele>623.0</ele><time>2026-04-03T14:31:14.02Z</time></trkpt><trkpt lat="43.4789156" lon="11.4794508"><ele>623.0</ele><time>2026-04-03T14:31:15.019Z</time></trkpt><trkpt lat="43.4789784" lon="11.4793704"><ele>623.0</ele><time>2026-04-03T14:31:16.015Z</time></trkpt><trkpt lat="43.4790398" lon="11.4792816"><ele>623.0</ele><time>2026-04-03T14:31:17.018Z</time></trkpt><trkpt lat="43.4791072" lon="11.4791953"><ele>623.0</ele><time>2026-04-03T14:31:18.022Z</time></trkpt><trkpt lat="43.4791835" lon="11.479114"><ele>623.0</ele><time>2026-04-03T14:31:19.023Z</time></trkpt><trkpt lat="43.4792575" lon="11.479025"><ele>623.0</ele><time>2026-04-03T14:31:20.017Z</time></trkpt><trkpt lat="43.4793282" lon="11.478926"><ele>623.0</ele><time>2026-04-03T14:31:21.021Z</time></trkpt><trkpt lat="43.4794022" lon="11.4788396"><ele>623.0</ele><time>2026-04-03T14:31:22.029Z</time></trkpt><trkpt lat="43.4794752" lon="11.4787482"><ele>621.6</ele><time>2026-04-03T14:31:23.023Z</time></trkpt><trkpt lat="43.4795392" lon="11.4786483"><ele>620.1999999999999</ele><time>2026-04-03T14:31:24.029Z</time></trkpt><trkpt lat="43.4795935" lon="11.4785324"><ele>618.8</ele><time>2026-04-03T14:31:25.028Z</time></trkpt><trkpt lat="43.479653" lon="11.4784079"><ele>617.4</ele><time>2026-04-03T14:31:26.024Z</time></trkpt><trkpt lat="43.4797148" lon="11.4782868"><ele>616.0</ele><time>2026-04-03T14:31:27.018Z</time></trkpt><trkpt lat="43.4797699" lon="11.4781675"><ele>615.6</ele><time>2026-04-03T14:31:28.03Z</time></trkpt><trkpt lat="43.479814" lon="11.4780437"><ele>615.2</ele><time>2026-04-03T14:31:29.027Z</time></trkpt><trkpt lat="43.4798538" lon="11.4779221"><ele>614.8</ele><time>2026-04-03T14:31:30.031Z</time></trkpt><trkpt lat="43.4798873" lon="11.477805"><ele>614.4</ele><time>2026-04-03T14:31:31.018Z</time></trkpt><trkpt lat="43.4799098" lon="11.4776909"><ele>614.0</ele><time>2026-04-03T14:31:32.033Z</time></trkpt><trkpt lat="43.4799174" lon="11.4775788"><ele>613.6</ele><time>2026-04-03T14:31:33.016Z</time></trkpt><trkpt lat="43.4799106" lon="11.4774607"><ele>613.2</ele><time>2026-04-03T14:31:34.042Z</time></trkpt><trkpt lat="43.4798958" lon="11.4773417"><ele>612.8000000000001</ele><time>2026-04-03T14:31:35.028Z</time></trkpt><trkpt lat="43.4798682" lon="11.4772186"><ele>612.4</ele><time>2026-04-03T14:31:36.03Z</time></trkpt><trkpt lat="43.4798203" lon="11.4770927"><ele>612.0</ele><time>2026-04-03T14:31:37.024Z</time></trkpt><trkpt lat="43.4797572" lon="11.4769764"><ele>612.6</ele><time>2026-04-03T14:31:38.014Z</time></trkpt><trkpt lat="43.4797" lon="11.4768564"><ele>613.2</ele><time>2026-04-03T14:31:39.029Z</time></trkpt><trkpt lat="43.4796518" lon="11.4767274"><ele>613.8</ele><time>2026-04-03T14:31:40.026Z</time></trkpt><trkpt lat="43.4795936" lon="11.4766001"><ele>614.4</ele><time>2026-04-03T14:31:41.013Z</time></trkpt><trkpt lat="43.4795347" lon="11.4764808"><ele>615.0</ele><time>2026-04-03T14:31:42.038Z</time></trkpt><trkpt lat="43.4794773" lon="11.4763619"><ele>615.8333333333334</ele><time>2026-04-03T14:31:43.023Z</time></trkpt><trkpt lat="43.4794218" lon="11.4762392"><ele>616.6666666666666</ele><time>2026-04-03T14:31:44.02Z</time></trkpt><trkpt lat="43.4793677" lon="11.4761251"><ele>617.5</ele><time>2026-04-03T14:31:45.027Z</time></trkpt><trkpt lat="43.4793181" lon="11.4760179"><ele>618.3333333333333</ele><time>2026-04-03T14:31:46.024Z</time></trkpt><trkpt lat="43.4792744" lon="11.4759284"><ele>619.1666666666666</ele><time>2026-04-03T14:31:47.009Z</time></trkpt><trkpt lat="43.4792322" lon="11.475855"><ele>620.0</ele><time>2026-04-03T14:31:48.013Z</time></trkpt><trkpt lat="43.47919" lon="11.4757844"><ele>620.0</ele><time>2026-04-03T14:31:49.016Z</time></trkpt><trkpt lat="43.4791475" lon="11.4757096"><ele>620.0</ele><time>2026-04-03T14:31:50.014Z</time></trkpt><trkpt lat="43.4791136" lon="11.4756234"><ele>620.0</ele><time>2026-04-03T14:31:51.001Z</time></trkpt><trkpt lat="43.4790855" lon="11.4755392"><ele>620.0</ele><time>2026-04-03T14:31:52.005Z</time></trkpt><trkpt lat="43.4790631" lon="11.4754497"><ele>620.0</ele><time>2026-04-03T14:31:53.012Z</time></trkpt><trkpt lat="43.4790552" lon="11.4753584"><ele>620.0</ele><time>2026-04-03T14:31:54.01Z</time></trkpt><trkpt lat="43.4790711" lon="11.4752679"><ele>620.0</ele><time>2026-04-03T14:31:55.031Z</time></trkpt><trkpt lat="43.4791044" lon="11.4751904"><ele>623.0</ele><time>2026-04-03T14:31:56.018Z</time></trkpt><trkpt lat="43.4792244" lon="11.4751084"><ele>626.0</ele><time>2026-04-03T14:31:58.014Z</time></trkpt><trkpt lat="43.4792932" lon="11.4751139"><ele>629.0</ele><time>2026-04-03T14:31:59.022Z</time></trkpt><trkpt lat="43.4793618" lon="11.4751554"><ele>632.0</ele><time>2026-04-03T14:32:00.027Z</time></trkpt><trkpt lat="43.4794223" lon="11.4752102"><ele>635.0</ele><time>2026-04-03T14:32:01.012Z</time></trkpt><trkpt lat="43.4794931" lon="11.4752836"><ele>638.0</ele><time>2026-04-03T14:32:02.012Z</time></trkpt><trkpt lat="43.4795828" lon="11.4753439"><ele>635.6</ele><time>2026-04-03T14:32:03.018Z</time></trkpt><trkpt lat="43.4796635" lon="11.4754024"><ele>633.1999999999999</ele><time>2026-04-03T14:32:04.016Z</time></trkpt><trkpt lat="43.4797513" lon="11.4754581"><ele>630.8</ele><time>2026-04-03T14:32:05.015Z</time></trkpt><trkpt lat="43.4798458" lon="11.4754926"><ele>628.4</ele><time>2026-04-03T14:32:06.017Z</time></trkpt><trkpt lat="43.4799338" lon="11.4755081"><ele>626.0</ele><time>2026-04-03T14:32:07.012Z</time></trkpt><trkpt lat="43.4800157" lon="11.4755122"><ele>626.0</ele><time>2026-04-03T14:32:08.01Z</time></trkpt><trkpt lat="43.4800901" lon="11.475499"><ele>626.0</ele><time>2026-04-03T14:32:09.005Z</time></trkpt><trkpt lat="43.4801998" lon="11.4753962"><ele>626.0</ele><time>2026-04-03T14:32:11.006Z</time></trkpt><trkpt lat="43.4802246" lon="11.4753051"><ele>626.0</ele><time>2026-04-03T14:32:12.012Z</time></trkpt><trkpt lat="43.4802382" lon="11.4752054"><ele>626.0</ele><time>2026-04-03T14:32:13.013Z</time></trkpt><trkpt lat="43.4802263" lon="11.4751069"><ele>626.0</ele><time>2026-04-03T14:32:14.023Z</time></trkpt><trkpt lat="43.4802043" lon="11.4750144"><ele>626.0</ele><time>2026-04-03T14:32:15.006Z</time></trkpt><trkpt lat="43.4802226" lon="11.4748612"><ele>626.0</ele><time>2026-04-03T14:32:17.015Z</time></trkpt><trkpt lat="43.4803362" lon="11.4748816"><ele>626.0</ele><time>2026-04-03T14:32:19.01Z</time></trkpt><trkpt lat="43.4804092" lon="11.4749555"><ele>626.0</ele><time>2026-04-03T14:32:20.014Z</time></trkpt><trkpt lat="43.4804897" lon="11.4750305"><ele>626.0</ele><time>2026-04-03T14:32:21.012Z</time></trkpt><trkpt lat="43.4805785" lon="11.4750957"><ele>625.4</ele><time>2026-04-03T14:32:22.013Z</time></trkpt><trkpt lat="43.4806748" lon="11.4751535"><ele>624.8</ele><time>2026-04-03T14:32:23.008Z</time></trkpt><trkpt lat="43.48077" lon="11.4752197"><ele>624.1999999999999</ele><time>2026-04-03T14:32:24.018Z</time></trkpt><trkpt lat="43.4808521" lon="11.4752999"><ele>623.6</ele><time>2026-04-03T14:32:25.018Z</time></trkpt><trkpt lat="43.4809266" lon="11.4753858"><ele>623.0</ele><time>2026-04-03T14:32:26.022Z</time></trkpt><trkpt lat="43.4809989" lon="11.4754775"><ele>621.8</ele><time>2026-04-03T14:32:27.007Z</time></trkpt><trkpt lat="43.4810715" lon="11.4755672"><ele>620.5999999999999</ele><time>2026-04-03T14:32:28.024Z</time></trkpt><trkpt lat="43.4811383" lon="11.4756483"><ele>619.4000000000001</ele><time>2026-04-03T14:32:29.008Z</time></trkpt><trkpt lat="43.4812121" lon="11.4757318"><ele>618.2</ele><time>2026-04-03T14:32:30.015Z</time></trkpt><trkpt lat="43.4812842" lon="11.4758192"><ele>617.0</ele><time>2026-04-03T14:32:31.015Z</time></trkpt><trkpt lat="43.4813693" lon="11.4759017"><ele>617.0</ele><time>2026-04-03T14:32:32.023Z</time></trkpt><trkpt lat="43.481448" lon="11.4759727"><ele>617.0</ele><time>2026-04-03T14:32:33.021Z</time></trkpt><trkpt lat="43.4815094" lon="11.4760246"><ele>617.0</ele><time>2026-04-03T14:32:34.015Z</time></trkpt><trkpt lat="43.481606" lon="11.4760298"><ele>617.0</ele><time>2026-04-03T14:32:36.025Z</time></trkpt><trkpt lat="43.4816537" lon="11.4759013"><ele>617.0</ele><time>2026-04-03T14:32:38.014Z</time></trkpt><trkpt lat="43.481653" lon="11.4758117"><ele>617.0</ele><time>2026-04-03T14:32:39.017Z</time></trkpt><trkpt lat="43.4816388" lon="11.4757157"><ele>617.0</ele><time>2026-04-03T14:32:40.022Z</time></trkpt><trkpt lat="43.4816113" lon="11.4756203"><ele>617.0</ele><time>2026-04-03T14:32:41.016Z</time></trkpt><trkpt lat="43.4815757" lon="11.475519"><ele>617.0</ele><time>2026-04-03T14:32:42.026Z</time></trkpt><trkpt lat="43.4815405" lon="11.4754084"><ele>617.0</ele><time>2026-04-03T14:32:43.022Z</time></trkpt><trkpt lat="43.4815139" lon="11.4752926"><ele>617.0</ele><time>2026-04-03T14:32:44.037Z</time></trkpt><trkpt lat="43.4814935" lon="11.4751655"><ele>617.0</ele><time>2026-04-03T14:32:45.026Z</time></trkpt><trkpt lat="43.4815003" lon="11.4750397"><ele>618.3333333333333</ele><time>2026-04-03T14:32:46.018Z</time></trkpt><trkpt lat="43.481524" lon="11.4749196"><ele>619.6666666666666</ele><time>2026-04-03T14:32:47.038Z</time></trkpt><trkpt lat="43.4815637" lon="11.4748104"><ele>621.0</ele><time>2026-04-03T14:32:48.033Z</time></trkpt><trkpt lat="43.4816089" lon="11.4747115"><ele>622.3333333333334</ele><time>2026-04-03T14:32:49.023Z</time></trkpt><trkpt lat="43.4816677" lon="11.4746296"><ele>623.6666666666667</ele><time>2026-04-03T14:32:50.012Z</time></trkpt><trkpt lat="43.4817433" lon="11.4745735"><ele>625.0</ele><time>2026-04-03T14:32:51.016Z</time></trkpt><trkpt lat="43.4818323" lon="11.4745287"><ele>624.6</ele><time>2026-04-03T14:32:52.02Z</time></trkpt><trkpt lat="43.4819224" lon="11.4744804"><ele>624.2</ele><time>2026-04-03T14:32:53.014Z</time></trkpt><trkpt lat="43.4820093" lon="11.4744205"><ele>623.8</ele><time>2026-04-03T14:32:54.024Z</time></trkpt><trkpt lat="43.4820864" lon="11.4743512"><ele>623.4</ele><time>2026-04-03T14:32:55.012Z</time></trkpt><trkpt lat="43.4821509" lon="11.4742749"><ele>623.0</ele><time>2026-04-03T14:32:56.026Z</time></trkpt><trkpt lat="43.4822048" lon="11.4741867"><ele>623.0</ele><time>2026-04-03T14:32:57.021Z</time></trkpt><trkpt lat="43.4822293" lon="11.4740782"><ele>623.0</ele><time>2026-04-03T14:32:58.03Z</time></trkpt><trkpt lat="43.4822208" lon="11.4739711"><ele>623.0</ele><time>2026-04-03T14:32:59.029Z</time></trkpt><trkpt lat="43.4821929" lon="11.4738833"><ele>623.0</ele><time>2026-04-03T14:33:00.021Z</time></trkpt><trkpt lat="43.4821546" lon="11.4737975"><ele>623.0</ele><time>2026-04-03T14:33:01.015Z</time></trkpt><trkpt lat="43.4820965" lon="11.4737031"><ele>623.0</ele><time>2026-04-03T14:33:02.019Z</time></trkpt><trkpt lat="43.4820551" lon="11.4735847"><ele>626.0</ele><time>2026-04-03T14:33:03.026Z</time></trkpt><trkpt lat="43.482028" lon="11.4734444"><ele>629.0</ele><time>2026-04-03T14:33:04.018Z</time></trkpt><trkpt lat="43.4820049" lon="11.4732955"><ele>632.0</ele><time>2026-04-03T14:33:05.009Z</time></trkpt><trkpt lat="43.4819704" lon="11.4731563"><ele>635.0</ele><time>2026-04-03T14:33:06.021Z</time></trkpt><trkpt lat="43.4819194" lon="11.4730316"><ele>638.0</ele><time>2026-04-03T14:33:07.023Z</time></trkpt><trkpt lat="43.4818539" lon="11.4729281"><ele>638.0</ele><time>2026-04-03T14:33:08.032Z</time></trkpt><trkpt lat="43.4817743" lon="11.4728375"><ele>638.0</ele><time>2026-04-03T14:33:09.027Z</time></trkpt><trkpt lat="43.4816994" lon="11.4727415"><ele>638.0</ele><time>2026-04-03T14:33:10.023Z</time></trkpt><trkpt lat="43.4816388" lon="11.4726219"><ele>638.0</ele><time>2026-04-03T14:33:11.004Z</time></trkpt><trkpt lat="43.4815944" lon="11.4724912"><ele>638.0</ele><time>2026-04-03T14:33:12.031Z</time></trkpt><trkpt lat="43.481577" lon="11.4723617"><ele>638.0</ele><time>2026-04-03T14:33:13.023Z</time></trkpt><trkpt lat="43.4815893" lon="11.4722409"><ele>638.0</ele><time>2026-04-03T14:33:14.025Z</time></trkpt><trkpt lat="43.4816203" lon="11.4721268"><ele>638.0</ele><time>2026-04-03T14:33:15.011Z</time></trkpt><trkpt lat="43.481664" lon="11.4720138"><ele>638.0</ele><time>2026-04-03T14:33:16.017Z</time></trkpt><trkpt lat="43.4817335" lon="11.471896"><ele>638.0</ele><time>2026-04-03T14:33:17.01Z</time></trkpt><trkpt lat="43.4817976" lon="11.4717809"><ele>637.8</ele><time>2026-04-03T14:33:18.019Z</time></trkpt><trkpt lat="43.4818482" lon="11.4716444"><ele>637.5999999999999</ele><time>2026-04-03T14:33:19.011Z</time></trkpt><trkpt lat="43.4818831" lon="11.4715011"><ele>637.4000000000001</ele><time>2026-04-03T14:33:20.026Z</time></trkpt><trkpt lat="43.4819106" lon="11.4713748"><ele>637.2</ele><time>2026-04-03T14:33:21.022Z</time></trkpt><trkpt lat="43.4819203" lon="11.4712646"><ele>637.0</ele><time>2026-04-03T14:33:22.019Z</time></trkpt><trkpt lat="43.4819324" lon="11.4711491"><ele>636.5</ele><time>2026-04-03T14:33:23.013Z</time></trkpt><trkpt lat="43.4819683" lon="11.4710336"><ele>636.0</ele><time>2026-04-03T14:33:24.024Z</time></trkpt><trkpt lat="43.482017" lon="11.4709301"><ele>635.5</ele><time>2026-04-03T14:33:25.019Z</time></trkpt><trkpt lat="43.4820819" lon="11.4708507"><ele>635.0</ele><time>2026-04-03T14:33:26.02Z</time></trkpt><trkpt lat="43.4821434" lon="11.4707761"><ele>634.5</ele><time>2026-04-03T14:33:27.028Z</time></trkpt><trkpt lat="43.4822073" lon="11.4707053"><ele>634.0</ele><time>2026-04-03T14:33:28.023Z</time></trkpt><trkpt lat="43.4822678" lon="11.470638"><ele>634.0</ele><time>2026-04-03T14:33:29.024Z</time></trkpt><trkpt lat="43.4823338" lon="11.4705684"><ele>634.0</ele><time>2026-04-03T14:33:30.021Z</time></trkpt><trkpt lat="43.4824073" lon="11.4704862"><ele>634.0</ele><time>2026-04-03T14:33:31.018Z</time></trkpt><trkpt lat="43.4824956" lon="11.4704285"><ele>634.0</ele><time>2026-04-03T14:33:32.01Z</time></trkpt><trkpt lat="43.4825974" lon="11.4703713"><ele>634.0</ele><time>2026-04-03T14:33:33.027Z</time></trkpt><trkpt lat="43.4827033" lon="11.4703139"><ele>633.4</ele><time>2026-04-03T14:33:34.02Z</time></trkpt><trkpt lat="43.4828055" lon="11.4702521"><ele>632.8</ele><time>2026-04-03T14:33:35.015Z</time></trkpt><trkpt lat="43.4829059" lon="11.4701978"><ele>632.2</ele><time>2026-04-03T14:33:36.05Z</time></trkpt><trkpt lat="43.4830059" lon="11.4701582"><ele>631.6</ele><time>2026-04-03T14:33:37.027Z</time></trkpt><trkpt lat="43.4831067" lon="11.4701429"><ele>631.0</ele><time>2026-04-03T14:33:38.024Z</time></trkpt><trkpt lat="43.4832067" lon="11.4701514"><ele>632.75</ele><time>2026-04-03T14:33:39.021Z</time></trkpt><trkpt lat="43.4833133" lon="11.4701808"><ele>634.5</ele><time>2026-04-03T14:33:40.029Z</time></trkpt><trkpt lat="43.4834257" lon="11.4701994"><ele>636.25</ele><time>2026-04-03T14:33:41.019Z</time></trkpt><trkpt lat="43.4835508" lon="11.4701906"><ele>638.0</ele><time>2026-04-03T14:33:42.029Z</time></trkpt><trkpt lat="43.4836742" lon="11.4701734"><ele>638.5999999999999</ele><time>2026-04-03T14:33:43.016Z</time></trkpt><trkpt lat="43.4837935" lon="11.4701574"><ele>639.1999999999999</ele><time>2026-04-03T14:33:44.019Z</time></trkpt><trkpt lat="43.4838984" lon="11.4701186"><ele>639.8</ele><time>2026-04-03T14:33:45.038Z</time></trkpt><trkpt lat="43.4839918" lon="11.4700611"><ele>640.4</ele><time>2026-04-03T14:33:46.027Z</time></trkpt><trkpt lat="43.4840787" lon="11.4699815"><ele>641.0</ele><time>2026-04-03T14:33:47.014Z</time></trkpt><trkpt lat="43.4841431" lon="11.4698921"><ele>641.0</ele><time>2026-04-03T14:33:48.031Z</time></trkpt><trkpt lat="43.4841995" lon="11.4698117"><ele>641.0</ele><time>2026-04-03T14:33:49.022Z</time></trkpt><trkpt lat="43.4842479" lon="11.4697105"><ele>641.0</ele><time>2026-04-03T14:33:50.031Z</time></trkpt><trkpt lat="43.4842836" lon="11.469592"><ele>641.0</ele><time>2026-04-03T14:33:51.017Z</time></trkpt><trkpt lat="43.4842974" lon="11.469461"><ele>641.0</ele><time>2026-04-03T14:33:52.025Z</time></trkpt><trkpt lat="43.4842865" lon="11.4693215"><ele>640.1666666666666</ele><time>2026-04-03T14:33:53.016Z</time></trkpt><trkpt lat="43.4842589" lon="11.4692028"><ele>639.3333333333333</ele><time>2026-04-03T14:33:54.025Z</time></trkpt><trkpt lat="43.4842307" lon="11.4691055"><ele>638.5</ele><time>2026-04-03T14:33:55.029Z</time></trkpt><trkpt lat="43.4842035" lon="11.4690184"><ele>637.6666666666666</ele><time>2026-04-03T14:33:56.027Z</time></trkpt><trkpt lat="43.4841806" lon="11.4689212"><ele>636.8333333333334</ele><time>2026-04-03T14:33:57.015Z</time></trkpt><trkpt lat="43.484151" lon="11.4688209"><ele>636.0</ele><time>2026-04-03T14:33:58.027Z</time></trkpt><trkpt lat="43.4841098" lon="11.4687206"><ele>635.8</ele><time>2026-04-03T14:33:59.024Z</time></trkpt><trkpt lat="43.4840645" lon="11.4686173"><ele>635.6</ele><time>2026-04-03T14:34:00.025Z</time></trkpt><trkpt lat="43.4840199" lon="11.4685115"><ele>635.4</ele><time>2026-04-03T14:34:01.022Z</time></trkpt><trkpt lat="43.4839706" lon="11.4684154"><ele>635.2</ele><time>2026-04-03T14:34:02.026Z</time></trkpt><trkpt lat="43.4839269" lon="11.4683349"><ele>635.0</ele><time>2026-04-03T14:34:03.019Z</time></trkpt><trkpt lat="43.4838555" lon="11.4682025"><ele>635.0</ele><time>2026-04-03T14:34:05.027Z</time></trkpt><trkpt lat="43.4837916" lon="11.4680578"><ele>635.0</ele><time>2026-04-03T14:34:07.015Z</time></trkpt><trkpt lat="43.4837571" lon="11.4679799"><ele>635.0</ele><time>2026-04-03T14:34:08.028Z</time></trkpt><trkpt lat="43.4837255" lon="11.4678835"><ele>635.0</ele><time>2026-04-03T14:34:09.028Z</time></trkpt><trkpt lat="43.4837082" lon="11.4677617"><ele>635.0</ele><time>2026-04-03T14:34:10.007Z</time></trkpt><trkpt lat="43.4837076" lon="11.467622"><ele>634.8</ele><time>2026-04-03T14:34:11.025Z</time></trkpt><trkpt lat="43.4837135" lon="11.4674754"><ele>634.6</ele><time>2026-04-03T14:34:12.015Z</time></trkpt><trkpt lat="43.4837317" lon="11.4673425"><ele>634.4</ele><time>2026-04-03T14:34:13.019Z</time></trkpt><trkpt lat="43.4837655" lon="11.4672144"><ele>634.2</ele><time>2026-04-03T14:34:14.022Z</time></trkpt><trkpt lat="43.483821" lon="11.4671026"><ele>634.0</ele><time>2026-04-03T14:34:15.024Z</time></trkpt><trkpt lat="43.483886" lon="11.4669986"><ele>636.0</ele><time>2026-04-03T14:34:16.023Z</time></trkpt><trkpt lat="43.4839572" lon="11.4669057"><ele>638.0</ele><time>2026-04-03T14:34:17.027Z</time></trkpt><trkpt lat="43.4840391" lon="11.4668387"><ele>640.0</ele><time>2026-04-03T14:34:18.017Z</time></trkpt><trkpt lat="43.4841323" lon="11.4667942"><ele>642.0</ele><time>2026-04-03T14:34:19.023Z</time></trkpt><trkpt lat="43.4842179" lon="11.4667424"><ele>644.0</ele><time>2026-04-03T14:34:20.026Z</time></trkpt><trkpt lat="43.4842935" lon="11.4666818"><ele>644.0</ele><time>2026-04-03T14:34:21.033Z</time></trkpt><trkpt lat="43.4843718" lon="11.4666129"><ele>644.0</ele><time>2026-04-03T14:34:22.023Z</time></trkpt><trkpt lat="43.4844522" lon="11.4665416"><ele>644.0</ele><time>2026-04-03T14:34:23.023Z</time></trkpt><trkpt lat="43.4845193" lon="11.4664619"><ele>644.0</ele><time>2026-04-03T14:34:24.032Z</time></trkpt><trkpt lat="43.4845521" lon="11.4663647"><ele>644.0</ele><time>2026-04-03T14:34:25.027Z</time></trkpt><trkpt lat="43.4845518" lon="11.4662637"><ele>644.0</ele><time>2026-04-03T14:34:26.021Z</time></trkpt><trkpt lat="43.4845351" lon="11.4661685"><ele>643.8000000000001</ele><time>2026-04-03T14:34:27.017Z</time></trkpt><trkpt lat="43.484489" lon="11.4660723"><ele>643.6</ele><time>2026-04-03T14:34:28.027Z</time></trkpt><trkpt lat="43.484434" lon="11.4659712"><ele>643.4</ele><time>2026-04-03T14:34:29.019Z</time></trkpt><trkpt lat="43.4843682" lon="11.4658656"><ele>643.2</ele><time>2026-04-03T14:34:30.029Z</time></trkpt><trkpt lat="43.4842966" lon="11.4657546"><ele>643.0</ele><time>2026-04-03T14:34:31.025Z</time></trkpt><trkpt lat="43.484219" lon="11.4656411"><ele>643.0</ele><time>2026-04-03T14:34:32.008Z</time></trkpt><trkpt lat="43.4841377" lon="11.4655287"><ele>643.0</ele><time>2026-04-03T14:34:33.022Z</time></trkpt><trkpt lat="43.4840798" lon="11.4654032"><ele>643.0</ele><time>2026-04-03T14:34:34.027Z</time></trkpt><trkpt lat="43.4840447" lon="11.4652819"><ele>643.0</ele><time>2026-04-03T14:34:35.01Z</time></trkpt><trkpt lat="43.4840278" lon="11.4651646"><ele>643.0</ele><time>2026-04-03T14:34:36.015Z</time></trkpt><trkpt lat="43.4840437" lon="11.4650527"><ele>641.8</ele><time>2026-04-03T14:34:37.027Z</time></trkpt><trkpt lat="43.484093" lon="11.4649481"><ele>640.5999999999999</ele><time>2026-04-03T14:34:38.032Z</time></trkpt><trkpt lat="43.4841698" lon="11.4648675"><ele>639.4000000000001</ele><time>2026-04-03T14:34:39.021Z</time></trkpt><trkpt lat="43.4842702" lon="11.4648043"><ele>638.2</ele><time>2026-04-03T14:34:40.022Z</time></trkpt><trkpt lat="43.4843894" lon="11.4647427"><ele>637.0</ele><time>2026-04-03T14:34:41.022Z</time></trkpt><trkpt lat="43.4845065" lon="11.4646792"><ele>636.5</ele><time>2026-04-03T14:34:42.02Z</time></trkpt><trkpt lat="43.4846124" lon="11.4646055"><ele>636.0</ele><time>2026-04-03T14:34:43.029Z</time></trkpt><trkpt lat="43.4847014" lon="11.4645155"><ele>635.5</ele><time>2026-04-03T14:34:44.032Z</time></trkpt><trkpt lat="43.4847668" lon="11.4643915"><ele>635.0</ele><time>2026-04-03T14:34:45.024Z</time></trkpt><trkpt lat="43.4848273" lon="11.4642377"><ele>635.0</ele><time>2026-04-03T14:34:46.032Z</time></trkpt><trkpt lat="43.4848756" lon="11.4640775"><ele>635.0</ele><time>2026-04-03T14:34:47.022Z</time></trkpt><trkpt lat="43.4849127" lon="11.4639032"><ele>635.0</ele><time>2026-04-03T14:34:48.031Z</time></trkpt><trkpt lat="43.4849249" lon="11.463692"><ele>635.0</ele><time>2026-04-03T14:34:49.019Z</time></trkpt><trkpt lat="43.4849529" lon="11.4634712"><ele>637.5</ele><time>2026-04-03T14:34:50.028Z</time></trkpt><trkpt lat="43.4849854" lon="11.4632616"><ele>640.0</ele><time>2026-04-03T14:34:51.016Z</time></trkpt><trkpt lat="43.4850352" lon="11.4631001"><ele>642.5</ele><time>2026-04-03T14:34:52.021Z</time></trkpt><trkpt lat="43.4851023" lon="11.4629463"><ele>645.0</ele><time>2026-04-03T14:34:53.031Z</time></trkpt><trkpt lat="43.4851664" lon="11.4628102"><ele>646.1666666666666</ele><time>2026-04-03T14:34:54.014Z</time></trkpt><trkpt lat="43.4852279" lon="11.4626929"><ele>647.3333333333334</ele><time>2026-04-03T14:34:55.022Z</time></trkpt><trkpt lat="43.4852773" lon="11.462589"><ele>648.5</ele><time>2026-04-03T14:34:56.018Z</time></trkpt><trkpt lat="43.4853243" lon="11.4625004"><ele>649.6666666666667</ele><time>2026-04-03T14:34:57.022Z</time></trkpt><trkpt lat="43.4853608" lon="11.4624035"><ele>650.8333333333334</ele><time>2026-04-03T14:34:58.03Z</time></trkpt><trkpt lat="43.4853783" lon="11.4622944"><ele>652.0</ele><time>2026-04-03T14:34:59.018Z</time></trkpt><trkpt lat="43.4853788" lon="11.4621859"><ele>649.5</ele><time>2026-04-03T14:35:00.026Z</time></trkpt><trkpt lat="43.4853582" lon="11.4620601"><ele>647.0</ele><time>2026-04-03T14:35:01.021Z</time></trkpt><trkpt lat="43.4853102" lon="11.4619048"><ele>644.5</ele><time>2026-04-03T14:35:02.02Z</time></trkpt><trkpt lat="43.4852563" lon="11.4617517"><ele>642.0</ele><time>2026-04-03T14:35:03.009Z</time></trkpt><trkpt lat="43.4851793" lon="11.4615883"><ele>642.0</ele><time>2026-04-03T14:35:04.018Z</time></trkpt><trkpt lat="43.4850635" lon="11.4614329"><ele>642.0</ele><time>2026-04-03T14:35:05.019Z</time></trkpt><trkpt lat="43.4849412" lon="11.4612992"><ele>642.0</ele><time>2026-04-03T14:35:06.026Z</time></trkpt><trkpt lat="43.484834" lon="11.4611946"><ele>642.0</ele><time>2026-04-03T14:35:07.012Z</time></trkpt><trkpt lat="43.4847273" lon="11.461114"><ele>641.6</ele><time>2026-04-03T14:35:08.027Z</time></trkpt><trkpt lat="43.4846234" lon="11.4610522"><ele>641.2</ele><time>2026-04-03T14:35:09.013Z</time></trkpt><trkpt lat="43.4845397" lon="11.4610089"><ele>640.8</ele><time>2026-04-03T14:35:10.022Z</time></trkpt><trkpt lat="43.4844455" lon="11.4609603"><ele>640.4</ele><time>2026-04-03T14:35:11.012Z</time></trkpt><trkpt lat="43.4843451" lon="11.4609065"><ele>640.0</ele><time>2026-04-03T14:35:12.024Z</time></trkpt><trkpt lat="43.4842481" lon="11.4608569"><ele>640.0</ele><time>2026-04-03T14:35:13.016Z</time></trkpt><trkpt lat="43.4841384" lon="11.4608098"><ele>640.0</ele><time>2026-04-03T14:35:14.012Z</time></trkpt><trkpt lat="43.4840281" lon="11.4607638"><ele>640.0</ele><time>2026-04-03T14:35:15.017Z</time></trkpt><trkpt lat="43.483918" lon="11.4607141"><ele>640.0</ele><time>2026-04-03T14:35:16.026Z</time></trkpt><trkpt lat="43.4838109" lon="11.4606557"><ele>639.0</ele><time>2026-04-03T14:35:17.022Z</time></trkpt><trkpt lat="43.4837091" lon="11.4605964"><ele>638.0</ele><time>2026-04-03T14:35:18.021Z</time></trkpt><trkpt lat="43.4836169" lon="11.4605365"><ele>637.0</ele><time>2026-04-03T14:35:19.023Z</time></trkpt><trkpt lat="43.4835173" lon="11.4604889"><ele>636.0</ele><time>2026-04-03T14:35:20.016Z</time></trkpt><trkpt lat="43.4834153" lon="11.460431"><ele>635.0</ele><time>2026-04-03T14:35:21.019Z</time></trkpt><trkpt lat="43.4833117" lon="11.4603748"><ele>635.0</ele><time>2026-04-03T14:35:22.024Z</time></trkpt><trkpt lat="43.4832063" lon="11.4603222"><ele>635.0</ele><time>2026-04-03T14:35:23.02Z</time></trkpt><trkpt lat="43.4831015" lon="11.4602748"><ele>635.0</ele><time>2026-04-03T14:35:24.022Z</time></trkpt><trkpt lat="43.4829997" lon="11.4602152"><ele>635.0</ele><time>2026-04-03T14:35:25.009Z</time></trkpt><trkpt lat="43.4828977" lon="11.4601429"><ele>635.0</ele><time>2026-04-03T14:35:26.027Z</time></trkpt><trkpt lat="43.4827938" lon="11.4600547"><ele>636.2</ele><time>2026-04-03T14:35:27.018Z</time></trkpt><trkpt lat="43.4827007" lon="11.4599673"><ele>637.4</ele><time>2026-04-03T14:35:28.039Z</time></trkpt><trkpt lat="43.4826208" lon="11.4599005"><ele>638.5999999999999</ele><time>2026-04-03T14:35:29.026Z</time></trkpt><trkpt lat="43.482551" lon="11.4598293"><ele>639.8</ele><time>2026-04-03T14:35:30.03Z</time></trkpt><trkpt lat="43.4824806" lon="11.4597404"><ele>641.0</ele><time>2026-04-03T14:35:31.013Z</time></trkpt><trkpt lat="43.4824264" lon="11.4596383"><ele>640.0</ele><time>2026-04-03T14:35:32.023Z</time></trkpt><trkpt lat="43.4823941" lon="11.4595213"><ele>639.0</ele><time>2026-04-03T14:35:33.023Z</time></trkpt><trkpt lat="43.4823763" lon="11.4594026"><ele>638.0</ele><time>2026-04-03T14:35:34.028Z</time></trkpt><trkpt lat="43.4823773" lon="11.4592833"><ele>637.0</ele><time>2026-04-03T14:35:35.031Z</time></trkpt><trkpt lat="43.4823952" lon="11.4591583"><ele>636.0</ele><time>2026-04-03T14:35:36.026Z</time></trkpt><trkpt lat="43.4824273" lon="11.4590368"><ele>636.0</ele><time>2026-04-03T14:35:37.03Z</time></trkpt><trkpt lat="43.4824403" lon="11.458908"><ele>636.0</ele><time>2026-04-03T14:35:38.031Z</time></trkpt><trkpt lat="43.482431" lon="11.4587835"><ele>636.0</ele><time>2026-04-03T14:35:39.03Z</time></trkpt><trkpt lat="43.482403" lon="11.4586885"><ele>636.0</ele><time>2026-04-03T14:35:40.026Z</time></trkpt><trkpt lat="43.482356" lon="11.458617"><ele>636.0</ele><time>2026-04-03T14:35:41.025Z</time></trkpt><trkpt lat="43.4822913" lon="11.4585522"><ele>636.0</ele><time>2026-04-03T14:35:42.027Z</time></trkpt><trkpt lat="43.4822176" lon="11.4584846"><ele>634.8333333333334</ele><time>2026-04-03T14:35:43.018Z</time></trkpt><trkpt lat="43.4821564" lon="11.4584043"><ele>633.6666666666666</ele><time>2026-04-03T14:35:44.023Z</time></trkpt><trkpt lat="43.4821236" lon="11.4582983"><ele>632.5</ele><time>2026-04-03T14:35:45.023Z</time></trkpt><trkpt lat="43.4821102" lon="11.4581775"><ele>631.3333333333333</ele><time>2026-04-03T14:35:46.034Z</time></trkpt><trkpt lat="43.4821037" lon="11.4580498"><ele>630.1666666666666</ele><time>2026-04-03T14:35:47.033Z</time></trkpt><trkpt lat="43.4821076" lon="11.457927"><ele>629.0</ele><time>2026-04-03T14:35:48.038Z</time></trkpt><trkpt lat="43.4821193" lon="11.4578045"><ele>628.3333333333333</ele><time>2026-04-03T14:35:49.03Z</time></trkpt><trkpt lat="43.4821266" lon="11.4576967"><ele>627.6666666666666</ele><time>2026-04-03T14:35:50.035Z</time></trkpt><trkpt lat="43.4821288" lon="11.4576081"><ele>627.0</ele><time>2026-04-03T14:35:51.034Z</time></trkpt><trkpt lat="43.4821099" lon="11.4574903"><ele>626.3333333333334</ele><time>2026-04-03T14:35:53.017Z</time></trkpt><trkpt lat="43.482086" lon="11.4573509"><ele>625.6666666666667</ele><time>2026-04-03T14:35:55.021Z</time></trkpt><trkpt lat="43.482074" lon="11.4572645"><ele>625.0</ele><time>2026-04-03T14:35:56.015Z</time></trkpt><trkpt lat="43.4820518" lon="11.4571796"><ele>625.7142857142858</ele><time>2026-04-03T14:35:57.009Z</time></trkpt><trkpt lat="43.4820269" lon="11.4570939"><ele>626.4285714285714</ele><time>2026-04-03T14:35:58.034Z</time></trkpt><trkpt lat="43.4820054" lon="11.4570086"><ele>627.1428571428571</ele><time>2026-04-03T14:35:59.027Z</time></trkpt><trkpt lat="43.4819807" lon="11.4569196"><ele>627.8571428571429</ele><time>2026-04-03T14:36:00.025Z</time></trkpt><trkpt lat="43.4819536" lon="11.4568339"><ele>628.5714285714286</ele><time>2026-04-03T14:36:01.034Z</time></trkpt><trkpt lat="43.4819259" lon="11.456743"><ele>629.2857142857143</ele><time>2026-04-03T14:36:02.03Z</time></trkpt><trkpt lat="43.4818995" lon="11.4566531"><ele>630.0</ele><time>2026-04-03T14:36:03.025Z</time></trkpt><trkpt lat="43.4818746" lon="11.4565679"><ele>630.0</ele><time>2026-04-03T14:36:04.035Z</time></trkpt><trkpt lat="43.4818401" lon="11.4564014"><ele>630.0</ele><time>2026-04-03T14:36:06.032Z</time></trkpt><trkpt lat="43.4818285" lon="11.4563102"><ele>630.0</ele><time>2026-04-03T14:36:07.029Z</time></trkpt><trkpt lat="43.481827" lon="11.4562108"><ele>630.0</ele><time>2026-04-03T14:36:08.036Z</time></trkpt><trkpt lat="43.4818344" lon="11.4561163"><ele>630.0</ele><time>2026-04-03T14:36:09.024Z</time></trkpt><trkpt lat="43.4818514" lon="11.4560243"><ele>630.0</ele><time>2026-04-03T14:36:10.029Z</time></trkpt><trkpt lat="43.4819107" lon="11.4558722"><ele>630.2</ele><time>2026-04-03T14:36:12.024Z</time></trkpt><trkpt lat="43.4819735" lon="11.4557246"><ele>630.4</ele><time>2026-04-03T14:36:14.045Z</time></trkpt><trkpt lat="43.4819937" lon="11.4556406"><ele>630.6</ele><time>2026-04-03T14:36:15.018Z</time></trkpt><trkpt lat="43.4820074" lon="11.4554698"><ele>630.8</ele><time>2026-04-03T14:36:17.023Z</time></trkpt><trkpt lat="43.4819886" lon="11.4553081"><ele>631.0</ele><time>2026-04-03T14:36:19.031Z</time></trkpt><trkpt lat="43.4819599" lon="11.4551855"><ele>631.1666666666667</ele><time>2026-04-03T14:36:21.02Z</time></trkpt><trkpt lat="43.4819124" lon="11.4550816"><ele>631.3333333333334</ele><time>2026-04-03T14:36:24.031Z</time></trkpt><trkpt lat="43.4818842" lon="11.454978"><ele>631.5</ele><time>2026-04-03T14:36:27.022Z</time></trkpt><trkpt lat="43.4818541" lon="11.4548844"><ele>631.6666666666666</ele><time>2026-04-03T14:36:30.019Z</time></trkpt><trkpt lat="43.4818313" lon="11.4548005"><ele>631.8333333333333</ele><time>2026-04-03T14:36:33.031Z</time></trkpt><trkpt lat="43.4817996" lon="11.454696"><ele>632.0</ele><time>2026-04-03T14:36:36.038Z</time></trkpt><trkpt lat="43.4817693" lon="11.4546064"><ele>632.0</ele><time>2026-04-03T14:36:38.011Z</time></trkpt><trkpt lat="43.4817333" lon="11.4544878"><ele>632.0</ele><time>2026-04-03T14:36:41.023Z</time></trkpt><trkpt lat="43.4817169" lon="11.4543864"><ele>632.0</ele><time>2026-04-03T14:36:43.029Z</time></trkpt><trkpt lat="43.4817095" lon="11.4542792"><ele>632.0</ele><time>2026-04-03T14:36:45.026Z</time></trkpt><trkpt lat="43.4817005" lon="11.4541521"><ele>632.0</ele><time>2026-04-03T14:36:47.029Z</time></trkpt><trkpt lat="43.4817016" lon="11.4540503"><ele>632.0</ele><time>2026-04-03T14:36:49.029Z</time></trkpt><trkpt lat="43.4817073" lon="11.4539636"><ele>632.0</ele><time>2026-04-03T14:37:12.031Z</time></trkpt><trkpt lat="43.4817071" lon="11.4538465"><ele>632.0</ele><time>2026-04-03T14:37:14.031Z</time></trkpt><trkpt lat="43.4816946" lon="11.4537037"><ele>632.0</ele><time>2026-04-03T14:37:16.013Z</time></trkpt><trkpt lat="43.4816269" lon="11.4535724"><ele>632.0</ele><time>2026-04-03T14:37:18.021Z</time></trkpt><trkpt lat="43.4815117" lon="11.4534961"><ele>632.0</ele><time>2026-04-03T14:37:20.023Z</time></trkpt><trkpt lat="43.4814524" lon="11.4534604"><ele>633.1666666666666</ele><time>2026-04-03T14:37:21.017Z</time></trkpt><trkpt lat="43.4813882" lon="11.4534291"><ele>634.3333333333333</ele><time>2026-04-03T14:37:22.035Z</time></trkpt><trkpt lat="43.4813152" lon="11.453401"><ele>635.5</ele><time>2026-04-03T14:37:23.017Z</time></trkpt><trkpt lat="43.4812439" lon="11.453369"><ele>636.6666666666666</ele><time>2026-04-03T14:37:24.03Z</time></trkpt><trkpt lat="43.4811615" lon="11.4533399"><ele>637.8333333333334</ele><time>2026-04-03T14:37:25.024Z</time></trkpt><trkpt lat="43.4810753" lon="11.4533119"><ele>639.0</ele><time>2026-04-03T14:37:26.012Z</time></trkpt><trkpt lat="43.480988" lon="11.4532843"><ele>639.0</ele><time>2026-04-03T14:37:27.012Z</time></trkpt><trkpt lat="43.4809018" lon="11.4532508"><ele>639.0</ele><time>2026-04-03T14:37:28.021Z</time></trkpt><trkpt lat="43.4808179" lon="11.4532037"><ele>639.0</ele><time>2026-04-03T14:37:29.025Z</time></trkpt><trkpt lat="43.480741" lon="11.4531296"><ele>639.0</ele><time>2026-04-03T14:37:30.025Z</time></trkpt><trkpt lat="43.4806776" lon="11.4530256"><ele>639.0</ele><time>2026-04-03T14:37:31.022Z</time></trkpt><trkpt lat="43.4806519" lon="11.4528849"><ele>641.2</ele><time>2026-04-03T14:37:32.027Z</time></trkpt><trkpt lat="43.4806578" lon="11.4527338"><ele>643.4</ele><time>2026-04-03T14:37:33.018Z</time></trkpt><trkpt lat="43.4806642" lon="11.4525827"><ele>645.6</ele><time>2026-04-03T14:37:34.028Z</time></trkpt><trkpt lat="43.4806781" lon="11.4524355"><ele>647.8</ele><time>2026-04-03T14:37:35.013Z</time></trkpt><trkpt lat="43.4806885" lon="11.4522999"><ele>650.0</ele><time>2026-04-03T14:37:36.018Z</time></trkpt><trkpt lat="43.4807068" lon="11.4521889"><ele>645.8</ele><time>2026-04-03T14:37:37.022Z</time></trkpt><trkpt lat="43.4807482" lon="11.4520918"><ele>641.6</ele><time>2026-04-03T14:37:38.026Z</time></trkpt><trkpt lat="43.48082" lon="11.45202"><ele>637.4</ele><time>2026-04-03T14:37:39.027Z</time></trkpt><trkpt lat="43.4809193" lon="11.4519737"><ele>633.2</ele><time>2026-04-03T14:37:40.025Z</time></trkpt><trkpt lat="43.4810316" lon="11.4519468"><ele>629.0</ele><time>2026-04-03T14:37:41.013Z</time></trkpt><trkpt lat="43.4811525" lon="11.4519264"><ele>632.5</ele><time>2026-04-03T14:37:42.018Z</time></trkpt><trkpt lat="43.4812849" lon="11.451904"><ele>636.0</ele><time>2026-04-03T14:37:43.017Z</time></trkpt><trkpt lat="43.4814206" lon="11.4518666"><ele>639.5</ele><time>2026-04-03T14:37:44.023Z</time></trkpt><trkpt lat="43.4815541" lon="11.451814"><ele>643.0</ele><time>2026-04-03T14:37:45.012Z</time></trkpt><trkpt lat="43.4816914" lon="11.4517519"><ele>643.0</ele><time>2026-04-03T14:37:46.03Z</time></trkpt><trkpt lat="43.4818313" lon="11.4516769"><ele>643.0</ele><time>2026-04-03T14:37:47.017Z</time></trkpt><trkpt lat="43.481972" lon="11.451589"><ele>643.0</ele><time>2026-04-03T14:37:48.029Z</time></trkpt><trkpt lat="43.4821092" lon="11.4514935"><ele>642.6666666666667</ele><time>2026-04-03T14:37:49.022Z</time></trkpt><trkpt lat="43.4822428" lon="11.4513901"><ele>642.3333333333334</ele><time>2026-04-03T14:37:50.022Z</time></trkpt><trkpt lat="43.4823707" lon="11.4512781"><ele>642.0</ele><time>2026-04-03T14:37:51.024Z</time></trkpt><trkpt lat="43.4825058" lon="11.4511741"><ele>642.0</ele><time>2026-04-03T14:37:52.026Z</time></trkpt><trkpt lat="43.4826408" lon="11.4510722"><ele>642.0</ele><time>2026-04-03T14:37:53.021Z</time></trkpt><trkpt lat="43.4827734" lon="11.4509683"><ele>642.0</ele><time>2026-04-03T14:37:54.028Z</time></trkpt><trkpt lat="43.4829027" lon="11.4508792"><ele>644.75</ele><time>2026-04-03T14:37:55.013Z</time></trkpt><trkpt lat="43.4830204" lon="11.4507959"><ele>647.5</ele><time>2026-04-03T14:37:56.028Z</time></trkpt><trkpt lat="43.4831349" lon="11.4507305"><ele>650.25</ele><time>2026-04-03T14:37:57.021Z</time></trkpt><trkpt lat="43.4832487" lon="11.4506861"><ele>653.0</ele><time>2026-04-03T14:37:58.022Z</time></trkpt><trkpt lat="43.4833709" lon="11.4506605"><ele>653.0</ele><time>2026-04-03T14:37:59.021Z</time></trkpt><trkpt lat="43.4835034" lon="11.4506462"><ele>653.0</ele><time>2026-04-03T14:38:00.03Z</time></trkpt><trkpt lat="43.4836452" lon="11.450638"><ele>653.0</ele><time>2026-04-03T14:38:01.01Z</time></trkpt><trkpt lat="43.4837903" lon="11.4506346"><ele>653.0</ele><time>2026-04-03T14:38:02.027Z</time></trkpt><trkpt lat="43.4839333" lon="11.4506468"><ele>651.5</ele><time>2026-04-03T14:38:03.016Z</time></trkpt><trkpt lat="43.4840765" lon="11.4506717"><ele>650.0</ele><time>2026-04-03T14:38:04.031Z</time></trkpt><trkpt lat="43.484222" lon="11.4507095"><ele>648.5</ele><time>2026-04-03T14:38:05.011Z</time></trkpt><trkpt lat="43.484371" lon="11.4507652"><ele>647.0</ele><time>2026-04-03T14:38:06.028Z</time></trkpt><trkpt lat="43.4845264" lon="11.4508248"><ele>643.0</ele><time>2026-04-03T14:38:07.032Z</time></trkpt><trkpt lat="43.4846877" lon="11.450883"><ele>639.0</ele><time>2026-04-03T14:38:08.033Z</time></trkpt><trkpt lat="43.4848556" lon="11.4509404"><ele>635.0</ele><time>2026-04-03T14:38:09.023Z</time></trkpt><trkpt lat="43.4850233" lon="11.4510051"><ele>635.0</ele><time>2026-04-03T14:38:10.031Z</time></trkpt><trkpt lat="43.4851903" lon="11.4510566"><ele>635.0</ele><time>2026-04-03T14:38:11.017Z</time></trkpt><trkpt lat="43.4853575" lon="11.4510875"><ele>635.0</ele><time>2026-04-03T14:38:12.033Z</time></trkpt><trkpt lat="43.4855275" lon="11.4511068"><ele>631.3333333333333</ele><time>2026-04-03T14:38:13.024Z</time></trkpt><trkpt lat="43.485697" lon="11.4511326"><ele>627.6666666666666</ele><time>2026-04-03T14:38:14.023Z</time></trkpt><trkpt lat="43.485862" lon="11.4511629"><ele>624.0</ele><time>2026-04-03T14:38:15.023Z</time></trkpt><trkpt lat="43.4860208" lon="11.4511959"><ele>624.0</ele><time>2026-04-03T14:38:16.021Z</time></trkpt><trkpt lat="43.4861755" lon="11.4512332"><ele>624.0</ele><time>2026-04-03T14:38:17.023Z</time></trkpt><trkpt lat="43.4863246" lon="11.4512681"><ele>624.0</ele><time>2026-04-03T14:38:18.024Z</time></trkpt><trkpt lat="43.4864699" lon="11.4512981"><ele>621.5</ele><time>2026-04-03T14:38:19.015Z</time></trkpt><trkpt lat="43.4866119" lon="11.4513197"><ele>619.0</ele><time>2026-04-03T14:38:20.024Z</time></trkpt><trkpt lat="43.4867522" lon="11.4513471"><ele>616.5</ele><time>2026-04-03T14:38:21.027Z</time></trkpt><trkpt lat="43.4868904" lon="11.4513896"><ele>614.0</ele><time>2026-04-03T14:38:22.034Z</time></trkpt><trkpt lat="43.4870348" lon="11.4514446"><ele>613.6666666666666</ele><time>2026-04-03T14:38:23.028Z</time></trkpt><trkpt lat="43.4871785" lon="11.4515071"><ele>613.3333333333334</ele><time>2026-04-03T14:38:24.03Z</time></trkpt><trkpt lat="43.4873268" lon="11.4515769"><ele>613.0</ele><time>2026-04-03T14:38:25.029Z</time></trkpt><trkpt lat="43.4874741" lon="11.4516434"><ele>613.0</ele><time>2026-04-03T14:38:26.028Z</time></trkpt><trkpt lat="43.4876221" lon="11.4517111"><ele>613.0</ele><time>2026-04-03T14:38:27.016Z</time></trkpt><trkpt lat="43.4877713" lon="11.4517705"><ele>613.0</ele><time>2026-04-03T14:38:28.013Z</time></trkpt><trkpt lat="43.4879136" lon="11.4518057"><ele>611.75</ele><time>2026-04-03T14:38:29.02Z</time></trkpt><trkpt lat="43.4880511" lon="11.4518274"><ele>610.5</ele><time>2026-04-03T14:38:30.015Z</time></trkpt><trkpt lat="43.4881751" lon="11.451813"><ele>609.25</ele><time>2026-04-03T14:38:31.01Z</time></trkpt><trkpt lat="43.4882853" lon="11.451753"><ele>608.0</ele><time>2026-04-03T14:38:32.037Z</time></trkpt><trkpt lat="43.4883834" lon="11.4516524"><ele>608.0</ele><time>2026-04-03T14:38:33.018Z</time></trkpt><trkpt lat="43.4884745" lon="11.4515302"><ele>608.0</ele><time>2026-04-03T14:38:34.032Z</time></trkpt><trkpt lat="43.4885728" lon="11.4514087"><ele>608.0</ele><time>2026-04-03T14:38:35.014Z</time></trkpt><trkpt lat="43.4886748" lon="11.4513018"><ele>608.0</ele><time>2026-04-03T14:38:36.019Z</time></trkpt><trkpt lat="43.4887809" lon="11.451214"><ele>604.25</ele><time>2026-04-03T14:38:37.016Z</time></trkpt><trkpt lat="43.4888861" lon="11.4511422"><ele>600.5</ele><time>2026-04-03T14:38:38.017Z</time></trkpt><trkpt lat="43.4889935" lon="11.4510803"><ele>596.75</ele><time>2026-04-03T14:38:39.014Z</time></trkpt><trkpt lat="43.4890989" lon="11.4510288"><ele>593.0</ele><time>2026-04-03T14:38:40.016Z</time></trkpt><trkpt lat="43.4891969" lon="11.4509812"><ele>593.0</ele><time>2026-04-03T14:38:41.012Z</time></trkpt><trkpt lat="43.4892837" lon="11.450954"><ele>593.0</ele><time>2026-04-03T14:38:42.028Z</time></trkpt><trkpt lat="43.4893507" lon="11.4509329"><ele>593.0</ele><time>2026-04-03T14:38:43.021Z</time></trkpt><trkpt lat="43.4894244" lon="11.4508933"><ele>593.0</ele><time>2026-04-03T14:38:45.018Z</time></trkpt><trkpt lat="43.489457" lon="11.4508114"><ele>593.0</ele><time>2026-04-03T14:38:48.026Z</time></trkpt><trkpt lat="43.4894748" lon="11.4506846"><ele>593.0</ele><time>2026-04-03T14:38:50.02Z</time></trkpt><trkpt lat="43.4894516" lon="11.4505896"><ele>593.0</ele><time>2026-04-03T14:38:51.017Z</time></trkpt><trkpt lat="43.489417" lon="11.4504854"><ele>593.0</ele><time>2026-04-03T14:38:52.022Z</time></trkpt><trkpt lat="43.4893769" lon="11.4503794"><ele>593.0</ele><time>2026-04-03T14:38:53.019Z</time></trkpt><trkpt lat="43.4893316" lon="11.4502577"><ele>593.0</ele><time>2026-04-03T14:38:54.019Z</time></trkpt><trkpt lat="43.4892796" lon="11.450129"><ele>593.0</ele><time>2026-04-03T14:38:55.011Z</time></trkpt><trkpt lat="43.4892212" lon="11.4499923"><ele>593.5</ele><time>2026-04-03T14:38:56.019Z</time></trkpt><trkpt lat="43.4891586" lon="11.4498478"><ele>594.0</ele><time>2026-04-03T14:38:57.016Z</time></trkpt><trkpt lat="43.4890843" lon="11.4496999"><ele>594.5</ele><time>2026-04-03T14:38:58.018Z</time></trkpt><trkpt lat="43.4890016" lon="11.4495465"><ele>595.0</ele><time>2026-04-03T14:38:59.022Z</time></trkpt><trkpt lat="43.4889059" lon="11.4493879"><ele>596.0</ele><time>2026-04-03T14:39:00.022Z</time></trkpt><trkpt lat="43.4888049" lon="11.4492338"><ele>597.0</ele><time>2026-04-03T14:39:01.015Z</time></trkpt><trkpt lat="43.4887006" lon="11.4490823"><ele>598.0</ele><time>2026-04-03T14:39:02.022Z</time></trkpt><trkpt lat="43.4885967" lon="11.4489467"><ele>599.0</ele><time>2026-04-03T14:39:03.017Z</time></trkpt><trkpt lat="43.4884992" lon="11.4488257"><ele>598.0</ele><time>2026-04-03T14:39:04.016Z</time></trkpt><trkpt lat="43.4884047" lon="11.4487192"><ele>597.0</ele><time>2026-04-03T14:39:05.01Z</time></trkpt><trkpt lat="43.4883122" lon="11.4486185"><ele>596.0</ele><time>2026-04-03T14:39:06.014Z</time></trkpt><trkpt lat="43.4882232" lon="11.4485237"><ele>595.0</ele><time>2026-04-03T14:39:07.024Z</time></trkpt><trkpt lat="43.4881306" lon="11.4484352"><ele>595.0</ele><time>2026-04-03T14:39:08.012Z</time></trkpt><trkpt lat="43.488035" lon="11.4483351"><ele>595.0</ele><time>2026-04-03T14:39:09.014Z</time></trkpt><trkpt lat="43.4879333" lon="11.4482328"><ele>595.0</ele><time>2026-04-03T14:39:10.019Z</time></trkpt><trkpt lat="43.4878294" lon="11.4481239"><ele>595.0</ele><time>2026-04-03T14:39:11.016Z</time></trkpt><trkpt lat="43.4877312" lon="11.4480043"><ele>593.0</ele><time>2026-04-03T14:39:12.017Z</time></trkpt><trkpt lat="43.4876459" lon="11.4478748"><ele>591.0</ele><time>2026-04-03T14:39:13.022Z</time></trkpt><trkpt lat="43.4875664" lon="11.4477377"><ele>589.0</ele><time>2026-04-03T14:39:14.028Z</time></trkpt><trkpt lat="43.4874904" lon="11.4475981"><ele>587.0</ele><time>2026-04-03T14:39:15.013Z</time></trkpt><trkpt lat="43.487422" lon="11.4474614"><ele>587.0</ele><time>2026-04-03T14:39:16.017Z</time></trkpt><trkpt lat="43.4873552" lon="11.4473325"><ele>587.0</ele><time>2026-04-03T14:39:17.022Z</time></trkpt><trkpt lat="43.4872815" lon="11.4471977"><ele>587.0</ele><time>2026-04-03T14:39:18.021Z</time></trkpt><trkpt lat="43.4872014" lon="11.447061"><ele>587.0</ele><time>2026-04-03T14:39:19.013Z</time></trkpt><trkpt lat="43.4871171" lon="11.4469306"><ele>583.5</ele><time>2026-04-03T14:39:20.021Z</time></trkpt><trkpt lat="43.4870358" lon="11.4468068"><ele>580.0</ele><time>2026-04-03T14:39:21.026Z</time></trkpt><trkpt lat="43.4869692" lon="11.4466806"><ele>576.5</ele><time>2026-04-03T14:39:22.025Z</time></trkpt><trkpt lat="43.4869202" lon="11.4465319"><ele>573.0</ele><time>2026-04-03T14:39:23.016Z</time></trkpt><trkpt lat="43.4868959" lon="11.4463682"><ele>575.25</ele><time>2026-04-03T14:39:24.016Z</time></trkpt><trkpt lat="43.4868767" lon="11.4462044"><ele>577.5</ele><time>2026-04-03T14:39:25.004Z</time></trkpt><trkpt lat="43.4868473" lon="11.446049"><ele>579.75</ele><time>2026-04-03T14:39:26.02Z</time></trkpt><trkpt lat="43.4867985" lon="11.4459006"><ele>582.0</ele><time>2026-04-03T14:39:27.015Z</time></trkpt><trkpt lat="43.4867234" lon="11.4457653"><ele>582.0</ele><time>2026-04-03T14:39:28.017Z</time></trkpt><trkpt lat="43.4866323" lon="11.4456324"><ele>582.0</ele><time>2026-04-03T14:39:29.004Z</time></trkpt><trkpt lat="43.4865342" lon="11.4455159"><ele>582.0</ele><time>2026-04-03T14:39:30.013Z</time></trkpt><trkpt lat="43.4864301" lon="11.4454253"><ele>582.0</ele><time>2026-04-03T14:39:31.015Z</time></trkpt><trkpt lat="43.48632" lon="11.4453573"><ele>581.75</ele><time>2026-04-03T14:39:32.016Z</time></trkpt><trkpt lat="43.4861928" lon="11.4453073"><ele>581.5</ele><time>2026-04-03T14:39:33.021Z</time></trkpt><trkpt lat="43.4860584" lon="11.4452619"><ele>581.25</ele><time>2026-04-03T14:39:34.019Z</time></trkpt><trkpt lat="43.4859309" lon="11.4452063"><ele>581.0</ele><time>2026-04-03T14:39:35.013Z</time></trkpt><trkpt lat="43.4858131" lon="11.4451316"><ele>581.0</ele><time>2026-04-03T14:39:36.014Z</time></trkpt><trkpt lat="43.4857062" lon="11.4450354"><ele>581.0</ele><time>2026-04-03T14:39:37.018Z</time></trkpt><trkpt lat="43.4856098" lon="11.444906"><ele>581.0</ele><time>2026-04-03T14:39:38.017Z</time></trkpt><trkpt lat="43.4855152" lon="11.4447634"><ele>581.0</ele><time>2026-04-03T14:39:39.011Z</time></trkpt><trkpt lat="43.4854304" lon="11.444597"><ele>575.5</ele><time>2026-04-03T14:39:40.025Z</time></trkpt><trkpt lat="43.4853583" lon="11.4444256"><ele>570.0</ele><time>2026-04-03T14:39:41.011Z</time></trkpt><trkpt lat="43.4853139" lon="11.4442474"><ele>564.5</ele><time>2026-04-03T14:39:42.025Z</time></trkpt><trkpt lat="43.4852836" lon="11.4440682"><ele>559.0</ele><time>2026-04-03T14:39:43.018Z</time></trkpt><trkpt lat="43.4852615" lon="11.4438899"><ele>558.5</ele><time>2026-04-03T14:39:44.032Z</time></trkpt><trkpt lat="43.4852341" lon="11.4437147"><ele>558.0</ele><time>2026-04-03T14:39:45.024Z</time></trkpt><trkpt lat="43.4852059" lon="11.443536"><ele>557.5</ele><time>2026-04-03T14:39:46.014Z</time></trkpt><trkpt lat="43.4851741" lon="11.4433568"><ele>557.0</ele><time>2026-04-03T14:39:47.03Z</time></trkpt><trkpt lat="43.4851404" lon="11.4431746"><ele>557.0</ele><time>2026-04-03T14:39:48.034Z</time></trkpt><trkpt lat="43.4851139" lon="11.4429982"><ele>557.0</ele><time>2026-04-03T14:39:49.03Z</time></trkpt><trkpt lat="43.4850985" lon="11.4428356"><ele>557.0</ele><time>2026-04-03T14:39:50.029Z</time></trkpt><trkpt lat="43.485109" lon="11.4426844"><ele>557.0</ele><time>2026-04-03T14:39:51.021Z</time></trkpt><trkpt lat="43.485162" lon="11.4425578"><ele>555.25</ele><time>2026-04-03T14:39:52.025Z</time></trkpt><trkpt lat="43.4852568" lon="11.4424672"><ele>553.5</ele><time>2026-04-03T14:39:53.026Z</time></trkpt><trkpt lat="43.4853791" lon="11.4424146"><ele>551.75</ele><time>2026-04-03T14:39:54.03Z</time></trkpt><trkpt lat="43.4855155" lon="11.4423799"><ele>550.0</ele><time>2026-04-03T14:39:55.013Z</time></trkpt><trkpt lat="43.4856449" lon="11.4423358"><ele>549.25</ele><time>2026-04-03T14:39:56.024Z</time></trkpt><trkpt lat="43.4857637" lon="11.4422642"><ele>548.5</ele><time>2026-04-03T14:39:57.025Z</time></trkpt><trkpt lat="43.485876" lon="11.4421798"><ele>547.75</ele><time>2026-04-03T14:39:58.021Z</time></trkpt><trkpt lat="43.4859771" lon="11.4420954"><ele>547.0</ele><time>2026-04-03T14:39:59.016Z</time></trkpt><trkpt lat="43.4860561" lon="11.4420298"><ele>547.0</ele><time>2026-04-03T14:40:00.008Z</time></trkpt><trkpt lat="43.4861137" lon="11.4419769"><ele>547.0</ele><time>2026-04-03T14:40:01.022Z</time></trkpt><trkpt lat="43.4861119" lon="11.4418887"><ele>547.0</ele><time>2026-04-03T14:40:07.015Z</time></trkpt><trkpt lat="43.4860641" lon="11.4419552"><ele>547.0</ele><time>2026-04-03T14:40:12.023Z</time></trkpt><trkpt lat="43.4859841" lon="11.4420689"><ele>547.0</ele><time>2026-04-03T14:40:26.036Z</time></trkpt><trkpt lat="43.485933" lon="11.4421351"><ele>547.0</ele><time>2026-04-03T14:40:27.013Z</time></trkpt><trkpt lat="43.4858504" lon="11.4422099"><ele>547.75</ele><time>2026-04-03T14:40:28.025Z</time></trkpt><trkpt lat="43.4857447" lon="11.4422786"><ele>548.5</ele><time>2026-04-03T14:40:29.009Z</time></trkpt><trkpt lat="43.4856192" lon="11.4423405"><ele>549.25</ele><time>2026-04-03T14:40:30.005Z</time></trkpt><trkpt lat="43.485484" lon="11.4423905"><ele>550.0</ele><time>2026-04-03T14:40:31.021Z</time></trkpt><trkpt lat="43.4853429" lon="11.4424397"><ele>550.0</ele><time>2026-04-03T14:40:32.016Z</time></trkpt><trkpt lat="43.4852186" lon="11.4425099"><ele>550.0</ele><time>2026-04-03T14:40:33.025Z</time></trkpt><trkpt lat="43.48513" lon="11.4426137"><ele>550.0</ele><time>2026-04-03T14:40:34.019Z</time></trkpt><trkpt lat="43.485102" lon="11.442769"><ele>550.0</ele><time>2026-04-03T14:40:35.025Z</time></trkpt><trkpt lat="43.4851036" lon="11.4429851"><ele>552.3333333333334</ele><time>2026-04-03T14:40:36.016Z</time></trkpt><trkpt lat="43.4851359" lon="11.4432184"><ele>554.6666666666666</ele><time>2026-04-03T14:40:37.018Z</time></trkpt><trkpt lat="43.4851793" lon="11.4434694"><ele>557.0</ele><time>2026-04-03T14:40:38.026Z</time></trkpt><trkpt lat="43.4852177" lon="11.4437348"><ele>557.6666666666666</ele><time>2026-04-03T14:40:39.023Z</time></trkpt><trkpt lat="43.4852508" lon="11.443982"><ele>558.3333333333334</ele><time>2026-04-03T14:40:40.03Z</time></trkpt><trkpt lat="43.485279" lon="11.4442063"><ele>559.0</ele><time>2026-04-03T14:40:41.023Z</time></trkpt><trkpt lat="43.4853242" lon="11.4444347"><ele>556.6666666666667</ele><time>2026-04-03T14:40:42.02Z</time></trkpt><trkpt lat="43.485394" lon="11.4446425"><ele>554.3333333333334</ele><time>2026-04-03T14:40:43.018Z</time></trkpt><trkpt lat="43.4855012" lon="11.4448321"><ele>552.0</ele><time>2026-04-03T14:40:44.031Z</time></trkpt><trkpt lat="43.4856368" lon="11.4450128"><ele>561.6666666666666</ele><time>2026-04-03T14:40:45.017Z</time></trkpt><trkpt lat="43.4857726" lon="11.4451708"><ele>571.3333333333333</ele><time>2026-04-03T14:40:46.019Z</time></trkpt><trkpt lat="43.4859306" lon="11.4452851"><ele>581.0</ele><time>2026-04-03T14:40:47.018Z</time></trkpt><trkpt lat="43.486106" lon="11.4453494"><ele>581.3333333333333</ele><time>2026-04-03T14:40:48.015Z</time></trkpt><trkpt lat="43.4862922" lon="11.4454056"><ele>581.6666666666666</ele><time>2026-04-03T14:40:49.009Z</time></trkpt><trkpt lat="43.4864557" lon="11.4454883"><ele>582.0</ele><time>2026-04-03T14:40:50.069Z</time></trkpt><trkpt lat="43.486595" lon="11.4456117"><ele>582.0</ele><time>2026-04-03T14:40:51.01Z</time></trkpt><trkpt lat="43.4867076" lon="11.4457795"><ele>582.0</ele><time>2026-04-03T14:40:52.012Z</time></trkpt><trkpt lat="43.4867894" lon="11.4459664"><ele>582.0</ele><time>2026-04-03T14:40:53.017Z</time></trkpt><trkpt lat="43.4868455" lon="11.4461493"><ele>579.75</ele><time>2026-04-03T14:40:54.029Z</time></trkpt><trkpt lat="43.4868799" lon="11.4463279"><ele>577.5</ele><time>2026-04-03T14:40:55.017Z</time></trkpt><trkpt lat="43.4869022" lon="11.4465048"><ele>575.25</ele><time>2026-04-03T14:40:56.03Z</time></trkpt><trkpt lat="43.4869394" lon="11.4466838"><ele>573.0</ele><time>2026-04-03T14:40:57.02Z</time></trkpt><trkpt lat="43.4870148" lon="11.4468443"><ele>577.6666666666666</ele><time>2026-04-03T14:40:58.023Z</time></trkpt><trkpt lat="43.4871177" lon="11.4469923"><ele>582.3333333333333</ele><time>2026-04-03T14:40:59.018Z</time></trkpt><trkpt lat="43.4872236" lon="11.4471442"><ele>587.0</ele><time>2026-04-03T14:41:00.024Z</time></trkpt><trkpt lat="43.4873225" lon="11.4473136"><ele>587.0</ele><time>2026-04-03T14:41:01.008Z</time></trkpt><trkpt lat="43.4874189" lon="11.4474968"><ele>587.0</ele><time>2026-04-03T14:41:02.021Z</time></trkpt><trkpt lat="43.4875143" lon="11.447685"><ele>587.0</ele><time>2026-04-03T14:41:03.002Z</time></trkpt><trkpt lat="43.4876156" lon="11.4478639"><ele>586.6666666666666</ele><time>2026-04-03T14:41:04.025Z</time></trkpt><trkpt lat="43.4877286" lon="11.4480318"><ele>586.3333333333334</ele><time>2026-04-03T14:41:05.019Z</time></trkpt><trkpt lat="43.4878493" lon="11.4481896"><ele>586.0</ele><time>2026-04-03T14:41:06.016Z</time></trkpt><trkpt lat="43.4879742" lon="11.4483359"><ele>589.0</ele><time>2026-04-03T14:41:07.016Z</time></trkpt><trkpt lat="43.4881004" lon="11.4484736"><ele>592.0</ele><time>2026-04-03T14:41:08.034Z</time></trkpt><trkpt lat="43.48823" lon="11.4486032"><ele>595.0</ele><time>2026-04-03T14:41:09.015Z</time></trkpt><trkpt lat="43.4883552" lon="11.4487322"><ele>593.6</ele><time>2026-04-03T14:41:10.029Z</time></trkpt><trkpt lat="43.4884599" lon="11.4488508"><ele>592.2</ele><time>2026-04-03T14:41:11.029Z</time></trkpt><trkpt lat="43.4885492" lon="11.4489397"><ele>590.8</ele><time>2026-04-03T14:41:12.03Z</time></trkpt><trkpt lat="43.488611" lon="11.4490211"><ele>589.4</ele><time>2026-04-03T14:41:13.032Z</time></trkpt><trkpt lat="43.4886094" lon="11.4491116"><ele>588.0</ele><time>2026-04-03T14:41:16.021Z</time></trkpt><trkpt lat="43.4885207" lon="11.4490563"><ele>588.0</ele><time>2026-04-03T14:41:18.026Z</time></trkpt><trkpt lat="43.4884603" lon="11.4489804"><ele>588.0</ele><time>2026-04-03T14:41:19.024Z</time></trkpt><trkpt lat="43.4883747" lon="11.4489117"><ele>588.0</ele><time>2026-04-03T14:41:20.017Z</time></trkpt><trkpt lat="43.4882705" lon="11.4488268"><ele>588.0</ele><time>2026-04-03T14:41:21.014Z</time></trkpt><trkpt lat="43.4881728" lon="11.4487469"><ele>588.0</ele><time>2026-04-03T14:41:22.018Z</time></trkpt><trkpt lat="43.4880677" lon="11.4486765"><ele>587.5</ele><time>2026-04-03T14:41:23.018Z</time></trkpt><trkpt lat="43.4879623" lon="11.4486079"><ele>587.0</ele><time>2026-04-03T14:41:24.012Z</time></trkpt><trkpt lat="43.4878544" lon="11.4485411"><ele>586.5</ele><time>2026-04-03T14:41:25.012Z</time></trkpt><trkpt lat="43.4877521" lon="11.448469"><ele>586.0</ele><time>2026-04-03T14:41:26.014Z</time></trkpt><trkpt lat="43.4876582" lon="11.4483943"><ele>586.0</ele><time>2026-04-03T14:41:27.005Z</time></trkpt><trkpt lat="43.4875668" lon="11.4483117"><ele>586.0</ele><time>2026-04-03T14:41:28.014Z</time></trkpt><trkpt lat="43.4874801" lon="11.4482194"><ele>586.0</ele><time>2026-04-03T14:41:29.005Z</time></trkpt><trkpt lat="43.4874019" lon="11.4481107"><ele>586.0</ele><time>2026-04-03T14:41:30.026Z</time></trkpt><trkpt lat="43.4873293" lon="11.4479918"><ele>586.0</ele><time>2026-04-03T14:41:31.016Z</time></trkpt><trkpt lat="43.4872624" lon="11.4478755"><ele>586.2</ele><time>2026-04-03T14:41:32.03Z</time></trkpt><trkpt lat="43.4871967" lon="11.4477728"><ele>586.4000000000001</ele><time>2026-04-03T14:41:33.019Z</time></trkpt><trkpt lat="43.4871158" lon="11.4477055"><ele>586.6</ele><time>2026-04-03T14:41:34.023Z</time></trkpt><trkpt lat="43.4870199" lon="11.4476672"><ele>586.8000000000001</ele><time>2026-04-03T14:41:35.022Z</time></trkpt><trkpt lat="43.4869067" lon="11.4476447"><ele>587.0</ele><time>2026-04-03T14:41:36.015Z</time></trkpt><trkpt lat="43.4867877" lon="11.4476296"><ele>584.8000000000001</ele><time>2026-04-03T14:41:37.019Z</time></trkpt><trkpt lat="43.4866766" lon="11.447608"><ele>582.6</ele><time>2026-04-03T14:41:38.021Z</time></trkpt><trkpt lat="43.4865744" lon="11.4475705"><ele>580.4000000000001</ele><time>2026-04-03T14:41:39.014Z</time></trkpt><trkpt lat="43.4864876" lon="11.4475087"><ele>578.2</ele><time>2026-04-03T14:41:40.025Z</time></trkpt><trkpt lat="43.4864126" lon="11.4474246"><ele>576.0</ele><time>2026-04-03T14:41:41.026Z</time></trkpt><trkpt lat="43.4863459" lon="11.4473051"><ele>576.0</ele><time>2026-04-03T14:41:42.012Z</time></trkpt><trkpt lat="43.4862694" lon="11.4471718"><ele>576.0</ele><time>2026-04-03T14:41:43.025Z</time></trkpt><trkpt lat="43.4861912" lon="11.4470321"><ele>576.0</ele><time>2026-04-03T14:41:44.011Z</time></trkpt><trkpt lat="43.4861145" lon="11.4469043"><ele>576.0</ele><time>2026-04-03T14:41:45.012Z</time></trkpt><trkpt lat="43.4860271" lon="11.4467852"><ele>573.0</ele><time>2026-04-03T14:41:46.021Z</time></trkpt><trkpt lat="43.4859301" lon="11.446684"><ele>570.0</ele><time>2026-04-03T14:41:47.01Z</time></trkpt><trkpt lat="43.4858263" lon="11.4465907"><ele>567.0</ele><time>2026-04-03T14:41:48.025Z</time></trkpt><trkpt lat="43.4857134" lon="11.4465025"><ele>564.0</ele><time>2026-04-03T14:41:49.008Z</time></trkpt><trkpt lat="43.4856005" lon="11.4464072"><ele>564.0</ele><time>2026-04-03T14:41:50.013Z</time></trkpt><trkpt lat="43.4854848" lon="11.4463201"><ele>564.0</ele><time>2026-04-03T14:41:51.028Z</time></trkpt><trkpt lat="43.485364" lon="11.4462323"><ele>564.0</ele><time>2026-04-03T14:41:52.018Z</time></trkpt><trkpt lat="43.4852461" lon="11.4461437"><ele>564.0</ele><time>2026-04-03T14:41:53.017Z</time></trkpt><trkpt lat="43.485117" lon="11.4460505"><ele>560.5</ele><time>2026-04-03T14:41:54.022Z</time></trkpt><trkpt lat="43.4849991" lon="11.4459399"><ele>557.0</ele><time>2026-04-03T14:41:55.019Z</time></trkpt><trkpt lat="43.484885" lon="11.4458218"><ele>553.5</ele><time>2026-04-03T14:41:56.018Z</time></trkpt><trkpt lat="43.4847804" lon="11.4457122"><ele>550.0</ele><time>2026-04-03T14:41:57.015Z</time></trkpt><trkpt lat="43.4846827" lon="11.4456054"><ele>550.0</ele><time>2026-04-03T14:41:58.014Z</time></trkpt><trkpt lat="43.4845971" lon="11.4455073"><ele>550.0</ele><time>2026-04-03T14:41:59.017Z</time></trkpt><trkpt lat="43.4845243" lon="11.4454062"><ele>550.0</ele><time>2026-04-03T14:42:00.014Z</time></trkpt><trkpt lat="43.4844722" lon="11.4452725"><ele>550.0</ele><time>2026-04-03T14:42:01.015Z</time></trkpt><trkpt lat="43.4844441" lon="11.4451238"><ele>550.0</ele><time>2026-04-03T14:42:02.012Z</time></trkpt><trkpt lat="43.4844321" lon="11.4449599"><ele>550.6</ele><time>2026-04-03T14:42:03.014Z</time></trkpt><trkpt lat="43.4844132" lon="11.4448053"><ele>551.2</ele><time>2026-04-03T14:42:04.007Z</time></trkpt><trkpt lat="43.484388" lon="11.4446702"><ele>551.8</ele><time>2026-04-03T14:42:05.011Z</time></trkpt><trkpt lat="43.4843422" lon="11.4445416"><ele>552.4</ele><time>2026-04-03T14:42:06.019Z</time></trkpt><trkpt lat="43.4842968" lon="11.4444129"><ele>553.0</ele><time>2026-04-03T14:42:07.014Z</time></trkpt><trkpt lat="43.4842411" lon="11.4442843"><ele>551.5</ele><time>2026-04-03T14:42:08.013Z</time></trkpt><trkpt lat="43.4841746" lon="11.4441551"><ele>550.0</ele><time>2026-04-03T14:42:09.008Z</time></trkpt><trkpt lat="43.4840976" lon="11.444041"><ele>548.5</ele><time>2026-04-03T14:42:10.015Z</time></trkpt><trkpt lat="43.4839799" lon="11.4439577"><ele>547.0</ele><time>2026-04-03T14:42:11.009Z</time></trkpt><trkpt lat="43.4838593" lon="11.443896"><ele>545.75</ele><time>2026-04-03T14:42:12.027Z</time></trkpt><trkpt lat="43.4837355" lon="11.4438541"><ele>544.5</ele><time>2026-04-03T14:42:13.015Z</time></trkpt><trkpt lat="43.48362" lon="11.443823"><ele>543.25</ele><time>2026-04-03T14:42:14.021Z</time></trkpt><trkpt lat="43.4835094" lon="11.4438023"><ele>542.0</ele><time>2026-04-03T14:42:15.018Z</time></trkpt><trkpt lat="43.4834049" lon="11.4437964"><ele>540.3333333333333</ele><time>2026-04-03T14:42:16.025Z</time></trkpt><trkpt lat="43.4833211" lon="11.4438102"><ele>538.6666666666666</ele><time>2026-04-03T14:42:17.005Z</time></trkpt><trkpt lat="43.4832379" lon="11.4438189"><ele>537.0</ele><time>2026-04-03T14:42:18.04Z</time></trkpt><trkpt lat="43.4831539" lon="11.4438235"><ele>535.3333333333334</ele><time>2026-04-03T14:42:19.026Z</time></trkpt><trkpt lat="43.4830827" lon="11.4438277"><ele>533.6666666666667</ele><time>2026-04-03T14:42:20.027Z</time></trkpt><trkpt lat="43.4829792" lon="11.4438122"><ele>532.0</ele><time>2026-04-03T14:42:22.035Z</time></trkpt><trkpt lat="43.4829141" lon="11.4437918"><ele>532.0</ele><time>2026-04-03T14:42:24.027Z</time></trkpt><trkpt lat="43.4828347" lon="11.4437946"><ele>532.0</ele><time>2026-04-03T14:42:27.016Z</time></trkpt><trkpt lat="43.4827491" lon="11.4437907"><ele>532.0</ele><time>2026-04-03T14:42:30.031Z</time></trkpt><trkpt lat="43.4826791" lon="11.4437679"><ele>532.0</ele><time>2026-04-03T14:42:32.007Z</time></trkpt><trkpt lat="43.4825902" lon="11.4437547"><ele>532.0</ele><time>2026-04-03T14:42:34.019Z</time></trkpt><trkpt lat="43.482466" lon="11.4437361"><ele>532.0</ele><time>2026-04-03T14:42:36.026Z</time></trkpt><trkpt lat="43.4823833" lon="11.4437261"><ele>532.0</ele><time>2026-04-03T14:42:37.021Z</time></trkpt><trkpt lat="43.482296" lon="11.4437182"><ele>532.0</ele><time>2026-04-03T14:42:38.028Z</time></trkpt><trkpt lat="43.4822033" lon="11.4437293"><ele>532.0</ele><time>2026-04-03T14:42:39.022Z</time></trkpt><trkpt lat="43.4821063" lon="11.4437583"><ele>532.0</ele><time>2026-04-03T14:42:40.033Z</time></trkpt><trkpt lat="43.482007" lon="11.4437927"><ele>535.0</ele><time>2026-04-03T14:42:41.009Z</time></trkpt><trkpt lat="43.4818948" lon="11.4438278"><ele>538.0</ele><time>2026-04-03T14:42:42.029Z</time></trkpt><trkpt lat="43.4817856" lon="11.4438567"><ele>541.0</ele><time>2026-04-03T14:42:43.019Z</time></trkpt><trkpt lat="43.4816747" lon="11.4438779"><ele>544.0</ele><time>2026-04-03T14:42:44.035Z</time></trkpt><trkpt lat="43.4815628" lon="11.4438919"><ele>544.0</ele><time>2026-04-03T14:42:45.015Z</time></trkpt><trkpt lat="43.481455" lon="11.443901"><ele>544.0</ele><time>2026-04-03T14:42:46.026Z</time></trkpt><trkpt lat="43.4813512" lon="11.4439021"><ele>544.0</ele><time>2026-04-03T14:42:47.017Z</time></trkpt><trkpt lat="43.4812427" lon="11.4439068"><ele>544.0</ele><time>2026-04-03T14:42:48.029Z</time></trkpt><trkpt lat="43.4811348" lon="11.4439204"><ele>544.0</ele><time>2026-04-03T14:42:49.021Z</time></trkpt><trkpt lat="43.4810273" lon="11.443953"><ele>541.0</ele><time>2026-04-03T14:42:50.023Z</time></trkpt><trkpt lat="43.4809211" lon="11.4439874"><ele>538.0</ele><time>2026-04-03T14:42:51.023Z</time></trkpt><trkpt lat="43.4808091" lon="11.4440279"><ele>535.0</ele><time>2026-04-03T14:42:52.02Z</time></trkpt><trkpt lat="43.4806924" lon="11.4440751"><ele>532.0</ele><time>2026-04-03T14:42:53.017Z</time></trkpt><trkpt lat="43.4805736" lon="11.444123"><ele>532.0</ele><time>2026-04-03T14:42:54.021Z</time></trkpt><trkpt lat="43.4804586" lon="11.4441666"><ele>532.0</ele><time>2026-04-03T14:42:55.015Z</time></trkpt><trkpt lat="43.4803442" lon="11.44422"><ele>532.0</ele><time>2026-04-03T14:42:56.018Z</time></trkpt><trkpt lat="43.4802346" lon="11.4442671"><ele>532.0</ele><time>2026-04-03T14:42:57.007Z</time></trkpt><trkpt lat="43.4801159" lon="11.4443048"><ele>528.75</ele><time>2026-04-03T14:42:58.016Z</time></trkpt><trkpt lat="43.479996" lon="11.4443452"><ele>525.5</ele><time>2026-04-03T14:42:59.022Z</time></trkpt><trkpt lat="43.4798813" lon="11.4443883"><ele>522.25</ele><time>2026-04-03T14:43:00.013Z</time></trkpt><trkpt lat="43.479774" lon="11.4444286"><ele>519.0</ele><time>2026-04-03T14:43:01.011Z</time></trkpt><trkpt lat="43.4796707" lon="11.4444578"><ele>519.5</ele><time>2026-04-03T14:43:02.006Z</time></trkpt><trkpt lat="43.4795762" lon="11.4444694"><ele>520.0</ele><time>2026-04-03T14:43:03.015Z</time></trkpt><trkpt lat="43.4794911" lon="11.444452"><ele>520.5</ele><time>2026-04-03T14:43:04.023Z</time></trkpt><trkpt lat="43.4794221" lon="11.4443989"><ele>521.0</ele><time>2026-04-03T14:43:05.003Z</time></trkpt><trkpt lat="43.4793682" lon="11.444319"><ele>521.5</ele><time>2026-04-03T14:43:05.994Z</time></trkpt><trkpt lat="43.4793256" lon="11.4442311"><ele>522.0</ele><time>2026-04-03T14:43:07.005Z</time></trkpt><trkpt lat="43.4792788" lon="11.4441535"><ele>522.0</ele><time>2026-04-03T14:43:08.011Z</time></trkpt><trkpt lat="43.4791839" lon="11.4440519"><ele>522.0</ele><time>2026-04-03T14:43:10.023Z</time></trkpt><trkpt lat="43.4791163" lon="11.4440277"><ele>522.0</ele><time>2026-04-03T14:43:11.019Z</time></trkpt><trkpt lat="43.4790378" lon="11.4440253"><ele>522.0</ele><time>2026-04-03T14:43:12.019Z</time></trkpt><trkpt lat="43.4789452" lon="11.4440339"><ele>522.0</ele><time>2026-04-03T14:43:13.021Z</time></trkpt><trkpt lat="43.4788443" lon="11.4440679"><ele>522.6</ele><time>2026-04-03T14:43:14.027Z</time></trkpt><trkpt lat="43.4787425" lon="11.4441071"><ele>523.2</ele><time>2026-04-03T14:43:15.013Z</time></trkpt><trkpt lat="43.4786311" lon="11.4441307"><ele>523.8</ele><time>2026-04-03T14:43:16.024Z</time></trkpt><trkpt lat="43.478528" lon="11.4441448"><ele>524.4</ele><time>2026-04-03T14:43:17.013Z</time></trkpt><trkpt lat="43.4784228" lon="11.4441753"><ele>525.0</ele><time>2026-04-03T14:43:18.019Z</time></trkpt><trkpt lat="43.4783257" lon="11.4442058"><ele>525.0</ele><time>2026-04-03T14:43:19.025Z</time></trkpt><trkpt lat="43.4782345" lon="11.4442354"><ele>525.0</ele><time>2026-04-03T14:43:20.023Z</time></trkpt><trkpt lat="43.4781423" lon="11.4442649"><ele>525.0</ele><time>2026-04-03T14:43:21.011Z</time></trkpt><trkpt lat="43.4780469" lon="11.4442932"><ele>525.0</ele><time>2026-04-03T14:43:22.017Z</time></trkpt><trkpt lat="43.4779524" lon="11.4443243"><ele>525.0</ele><time>2026-04-03T14:43:23.004Z</time></trkpt><trkpt lat="43.4778593" lon="11.4443759"><ele>524.1666666666666</ele><time>2026-04-03T14:43:24.025Z</time></trkpt><trkpt lat="43.4777792" lon="11.4444347"><ele>523.3333333333334</ele><time>2026-04-03T14:43:25.006Z</time></trkpt><trkpt lat="43.4777003" lon="11.4444875"><ele>522.5</ele><time>2026-04-03T14:43:26.02Z</time></trkpt><trkpt lat="43.4776223" lon="11.4445292"><ele>521.6666666666667</ele><time>2026-04-03T14:43:27.005Z</time></trkpt><trkpt lat="43.477537" lon="11.4445566"><ele>520.8333333333334</ele><time>2026-04-03T14:43:28.023Z</time></trkpt><trkpt lat="43.4774402" lon="11.4445783"><ele>520.0</ele><time>2026-04-03T14:43:29.013Z</time></trkpt><trkpt lat="43.4773334" lon="11.444599"><ele>520.0</ele><time>2026-04-03T14:43:30.022Z</time></trkpt><trkpt lat="43.4772386" lon="11.4446187"><ele>520.0</ele><time>2026-04-03T14:43:31.023Z</time></trkpt><trkpt lat="43.4771547" lon="11.4446375"><ele>520.0</ele><time>2026-04-03T14:43:32.023Z</time></trkpt><trkpt lat="43.477089" lon="11.4446394"><ele>520.0</ele><time>2026-04-03T14:43:33.007Z</time></trkpt><trkpt lat="43.4769817" lon="11.4445684"><ele>520.0</ele><time>2026-04-03T14:43:35.015Z</time></trkpt><trkpt lat="43.4769429" lon="11.4444852"><ele>520.0</ele><time>2026-04-03T14:43:36.016Z</time></trkpt><trkpt lat="43.4769058" lon="11.444383"><ele>520.5</ele><time>2026-04-03T14:43:37.017Z</time></trkpt><trkpt lat="43.476858" lon="11.4442728"><ele>521.0</ele><time>2026-04-03T14:43:38.02Z</time></trkpt><trkpt lat="43.4767945" lon="11.4441612"><ele>521.5</ele><time>2026-04-03T14:43:39.02Z</time></trkpt><trkpt lat="43.4767202" lon="11.44405"><ele>522.0</ele><time>2026-04-03T14:43:40.02Z</time></trkpt><trkpt lat="43.4791839" lon="11.4440519"><ele>522.0</ele><time>2026-04-03T14:43:10.023Z</time></trkpt><trkpt lat="43.4791163" lon="11.4440277"><ele>522.0</ele><time>2026-04-03T14:43:11.019Z</time></trkpt><trkpt lat="43.4790378" lon="11.4440253"><ele>522.0</ele><time>2026-04-03T14:43:12.019Z</time></trkpt><trkpt lat="43.4789452" lon="11.4440339"><ele>522.0</ele><time>2026-04-03T14:43:13.021Z</time></trkpt><trkpt lat="43.4788443" lon="11.4440679"><ele>522.0</ele><time>2026-04-03T14:43:14.027Z</time></trkpt><trkpt lat="43.4787425" lon="11.4441071"><ele>522.6</ele><time>2026-04-03T14:43:15.013Z</time></trkpt><trkpt lat="43.4786311" lon="11.4441307"><ele>523.2</ele><time>2026-04-03T14:43:16.024Z</time></trkpt><trkpt lat="43.478528" lon="11.4441448"><ele>523.8</ele><time>2026-04-03T14:43:17.013Z</time></trkpt><trkpt lat="43.4784228" lon="11.4441753"><ele>524.4</ele><time>2026-04-03T14:43:18.019Z</time></trkpt><trkpt lat="43.4783257" lon="11.4442058"><ele>525.0</ele><time>2026-04-03T14:43:19.025Z</time></trkpt><trkpt lat="43.4782345" lon="11.4442354"><ele>525.0</ele><time>2026-04-03T14:43:20.023Z</time></trkpt><trkpt lat="43.4781423" lon="11.4442649"><ele>525.0</ele><time>2026-04-03T14:43:21.011Z</time></trkpt><trkpt lat="43.4780469" lon="11.4442932"><ele>525.0</ele><time>2026-04-03T14:43:22.017Z</time></trkpt><trkpt lat="43.4779524" lon="11.4443243"><ele>525.0</ele><time>2026-04-03T14:43:23.004Z</time></trkpt><trkpt lat="43.4778593" lon="11.4443759"><ele>525.0</ele><time>2026-04-03T14:43:24.025Z</time></trkpt><trkpt lat="43.4777792" lon="11.4444347"><ele>524.0</ele><time>2026-04-03T14:43:25.006Z</time></trkpt><trkpt lat="43.4777003" lon="11.4444875"><ele>523.0</ele><time>2026-04-03T14:43:26.02Z</time></trkpt><trkpt lat="43.4776223" lon="11.4445292"><ele>522.0</ele><time>2026-04-03T14:43:27.005Z</time></trkpt><trkpt lat="43.477537" lon="11.4445566"><ele>521.0</ele><time>2026-04-03T14:43:28.023Z</time></trkpt><trkpt lat="43.4774402" lon="11.4445783"><ele>520.0</ele><time>2026-04-03T14:43:29.013Z</time></trkpt><trkpt lat="43.4773334" lon="11.444599"><ele>520.0</ele><time>2026-04-03T14:43:30.022Z</time></trkpt><trkpt lat="43.4772386" lon="11.4446187"><ele>520.0</ele><time>2026-04-03T14:43:31.023Z</time></trkpt><trkpt lat="43.4771547" lon="11.4446375"><ele>520.0</ele><time>2026-04-03T14:43:32.023Z</time></trkpt><trkpt lat="43.477089" lon="11.4446394"><ele>520.0</ele><time>2026-04-03T14:43:33.007Z</time></trkpt><trkpt lat="43.4769817" lon="11.4445684"><ele>520.0</ele><time>2026-04-03T14:43:35.015Z</time></trkpt><trkpt lat="43.4769429" lon="11.4444852"><ele>520.0</ele><time>2026-04-03T14:43:36.016Z</time></trkpt><trkpt lat="43.4769058" lon="11.444383"><ele>515.2</ele><time>2026-04-03T14:43:37.017Z</time></trkpt><trkpt lat="43.476858" lon="11.4442728"><ele>510.4</ele><time>2026-04-03T14:43:38.02Z</time></trkpt><trkpt lat="43.4767945" lon="11.4441612"><ele>505.6</ele><time>2026-04-03T14:43:39.02Z</time></trkpt><trkpt lat="43.4767202" lon="11.44405"><ele>500.8</ele><time>2026-04-03T14:43:40.02Z</time></trkpt><trkpt lat="43.4766425" lon="11.4439462"><ele>496.0</ele><time>2026-04-03T14:43:41.016Z</time></trkpt><trkpt lat="43.4765625" lon="11.4438479"><ele>494.20000000000005</ele><time>2026-04-03T14:43:42.031Z</time></trkpt><trkpt lat="43.4764796" lon="11.4437541"><ele>492.40000000000003</ele><time>2026-04-03T14:43:43.016Z</time></trkpt><trkpt lat="43.4763913" lon="11.4436734"><ele>490.6</ele><time>2026-04-03T14:43:44.022Z</time></trkpt><trkpt lat="43.4763029" lon="11.4436147"><ele>488.8</ele><time>2026-04-03T14:43:45.03Z</time></trkpt><trkpt lat="43.4762287" lon="11.4435533"><ele>487.0</ele><time>2026-04-03T14:43:46.032Z</time></trkpt><trkpt lat="43.4761535" lon="11.4434973"><ele>487.0</ele><time>2026-04-03T14:43:47.021Z</time></trkpt><trkpt lat="43.4760711" lon="11.4434384"><ele>487.00000000000006</ele><time>2026-04-03T14:43:48.013Z</time></trkpt><trkpt lat="43.4759859" lon="11.4433627"><ele>487.00000000000006</ele><time>2026-04-03T14:43:49.026Z</time></trkpt><trkpt lat="43.4758988" lon="11.4432733"><ele>487.0</ele><time>2026-04-03T14:43:50.022Z</time></trkpt><trkpt lat="43.47581" lon="11.4431859"><ele>487.0</ele><time>2026-04-03T14:43:51.018Z</time></trkpt><trkpt lat="43.4757266" lon="11.4431079"><ele>487.0</ele><time>2026-04-03T14:43:52.025Z</time></trkpt><trkpt lat="43.4756398" lon="11.4430372"><ele>487.00000000000006</ele><time>2026-04-03T14:43:53.011Z</time></trkpt><trkpt lat="43.475544" lon="11.4429986"><ele>487.00000000000006</ele><time>2026-04-03T14:43:54.022Z</time></trkpt><trkpt lat="43.4754441" lon="11.4429951"><ele>487.0</ele><time>2026-04-03T14:43:55.014Z</time></trkpt><trkpt lat="43.4753431" lon="11.4429989"><ele>487.0</ele><time>2026-04-03T14:43:56.015Z</time></trkpt><trkpt lat="43.4752486" lon="11.443002"><ele>484.6666666666667</ele><time>2026-04-03T14:43:57.012Z</time></trkpt><trkpt lat="43.4751618" lon="11.4429994"><ele>482.33333333333337</ele><time>2026-04-03T14:43:58.029Z</time></trkpt><trkpt lat="43.4750823" lon="11.4429905"><ele>480.0</ele><time>2026-04-03T14:43:59.01Z</time></trkpt><trkpt lat="43.4750077" lon="11.4429629"><ele>477.66666666666663</ele><time>2026-04-03T14:44:00.02Z</time></trkpt><trkpt lat="43.4749308" lon="11.4429121"><ele>475.3333333333333</ele><time>2026-04-03T14:44:01.024Z</time></trkpt><trkpt lat="43.4748468" lon="11.4428535"><ele>473.0</ele><time>2026-04-03T14:44:02.022Z</time></trkpt><trkpt lat="43.4747465" lon="11.4428027"><ele>473.0</ele><time>2026-04-03T14:44:03.026Z</time></trkpt><trkpt lat="43.4746316" lon="11.4427727"><ele>473.0</ele><time>2026-04-03T14:44:04.015Z</time></trkpt><trkpt lat="43.4745126" lon="11.4427491"><ele>473.0</ele><time>2026-04-03T14:44:05.026Z</time></trkpt><trkpt lat="43.4744015" lon="11.4427373"><ele>473.0</ele><time>2026-04-03T14:44:06.025Z</time></trkpt><trkpt lat="43.4742925" lon="11.4427342"><ele>469.25</ele><time>2026-04-03T14:44:07.013Z</time></trkpt><trkpt lat="43.474178" lon="11.4427348"><ele>465.5</ele><time>2026-04-03T14:44:08.025Z</time></trkpt><trkpt lat="43.4740519" lon="11.442741"><ele>461.75</ele><time>2026-04-03T14:44:09.032Z</time></trkpt><trkpt lat="43.4739228" lon="11.4427627"><ele>458.0</ele><time>2026-04-03T14:44:10.028Z</time></trkpt><trkpt lat="43.4737898" lon="11.4427803"><ele>454.75</ele><time>2026-04-03T14:44:11.018Z</time></trkpt><trkpt lat="43.4736564" lon="11.4427925"><ele>451.5</ele><time>2026-04-03T14:44:12.029Z</time></trkpt><trkpt lat="43.4735284" lon="11.442806"><ele>448.25</ele><time>2026-04-03T14:44:13.018Z</time></trkpt><trkpt lat="43.4734008" lon="11.442816"><ele>445.0</ele><time>2026-04-03T14:44:14.023Z</time></trkpt><trkpt lat="43.4732795" lon="11.4428281"><ele>445.0</ele><time>2026-04-03T14:44:15.019Z</time></trkpt><trkpt lat="43.4731588" lon="11.4428422"><ele>445.0</ele><time>2026-04-03T14:44:16.017Z</time></trkpt><trkpt lat="43.4730369" lon="11.442854"><ele>445.0</ele><time>2026-04-03T14:44:17.015Z</time></trkpt><trkpt lat="43.4729197" lon="11.4428709"><ele>445.0</ele><time>2026-04-03T14:44:18.04Z</time></trkpt><trkpt lat="43.472811" lon="11.4428813"><ele>444.0</ele><time>2026-04-03T14:44:19.015Z</time></trkpt><trkpt lat="43.4727027" lon="11.4428859"><ele>443.0</ele><time>2026-04-03T14:44:20.035Z</time></trkpt><trkpt lat="43.4726009" lon="11.442875"><ele>442.0</ele><time>2026-04-03T14:44:21.014Z</time></trkpt><trkpt lat="43.4725017" lon="11.4428442"><ele>441.0</ele><time>2026-04-03T14:44:22.021Z</time></trkpt><trkpt lat="43.4724095" lon="11.4427907"><ele>440.0</ele><time>2026-04-03T14:44:23.031Z</time></trkpt><trkpt lat="43.4723212" lon="11.4427118"><ele>440.0</ele><time>2026-04-03T14:44:24.045Z</time></trkpt><trkpt lat="43.4722352" lon="11.4426232"><ele>440.0</ele><time>2026-04-03T14:44:25.029Z</time></trkpt><trkpt lat="43.4721625" lon="11.4425008"><ele>440.0</ele><time>2026-04-03T14:44:26.03Z</time></trkpt><trkpt lat="43.4720984" lon="11.4423728"><ele>440.0</ele><time>2026-04-03T14:44:27.006Z</time></trkpt><trkpt lat="43.4720274" lon="11.4422518"><ele>440.0</ele><time>2026-04-03T14:44:28.03Z</time></trkpt><trkpt lat="43.4719553" lon="11.4421291"><ele>440.6</ele><time>2026-04-03T14:44:29.015Z</time></trkpt><trkpt lat="43.4718801" lon="11.4420129"><ele>441.2</ele><time>2026-04-03T14:44:30.025Z</time></trkpt><trkpt lat="43.4718098" lon="11.4419193"><ele>441.79999999999995</ele><time>2026-04-03T14:44:31.018Z</time></trkpt><trkpt lat="43.4717433" lon="11.441842"><ele>442.4</ele><time>2026-04-03T14:44:32.014Z</time></trkpt><trkpt lat="43.4716806" lon="11.4417753"><ele>443.0</ele><time>2026-04-03T14:44:33.01Z</time></trkpt><trkpt lat="43.4716132" lon="11.4417188"><ele>442.99999999999994</ele><time>2026-04-03T14:44:34.02Z</time></trkpt><trkpt lat="43.4715455" lon="11.4416645"><ele>443.0</ele><time>2026-04-03T14:44:35.022Z</time></trkpt><trkpt lat="43.471478" lon="11.4416054"><ele>443.0</ele><time>2026-04-03T14:44:36.035Z</time></trkpt><trkpt lat="43.4714129" lon="11.4415408"><ele>443.0</ele><time>2026-04-03T14:44:37.026Z</time></trkpt><trkpt lat="43.4713455" lon="11.4414857"><ele>442.99999999999994</ele><time>2026-04-03T14:44:38.016Z</time></trkpt><trkpt lat="43.4712841" lon="11.4414256"><ele>443.0</ele><time>2026-04-03T14:44:39.013Z</time></trkpt><trkpt lat="43.471237" lon="11.4413537"><ele>444.3333333333333</ele><time>2026-04-03T14:44:40.031Z</time></trkpt><trkpt lat="43.4712063" lon="11.44127"><ele>445.66666666666663</ele><time>2026-04-03T14:44:41.028Z</time></trkpt><trkpt lat="43.4711911" lon="11.4411843"><ele>447.0</ele><time>2026-04-03T14:44:42.018Z</time></trkpt><trkpt lat="43.4711777" lon="11.4410226"><ele>448.33333333333337</ele><time>2026-04-03T14:44:44.029Z</time></trkpt><trkpt lat="43.4711648" lon="11.4408741"><ele>449.6666666666667</ele><time>2026-04-03T14:44:46.031Z</time></trkpt><trkpt lat="43.4711386" lon="11.4407564"><ele>451.0</ele><time>2026-04-03T14:44:48.027Z</time></trkpt><trkpt lat="43.4710971" lon="11.4406633"><ele>451.00000000000006</ele><time>2026-04-03T14:44:50.015Z</time></trkpt><trkpt lat="43.4710236" lon="11.440563"><ele>451.0</ele><time>2026-04-03T14:44:52.03Z</time></trkpt><trkpt lat="43.4709357" lon="11.4404372"><ele>451.0</ele><time>2026-04-03T14:44:54.027Z</time></trkpt><trkpt lat="43.4708885" lon="11.4403691"><ele>451.0</ele><time>2026-04-03T14:44:55.021Z</time></trkpt><trkpt lat="43.4708407" lon="11.4402996"><ele>451.00000000000006</ele><time>2026-04-03T14:44:56.029Z</time></trkpt><trkpt lat="43.470789" lon="11.440229"><ele>451.0</ele><time>2026-04-03T14:44:57.018Z</time></trkpt><trkpt lat="43.4707361" lon="11.4401509"><ele>449.33333333333337</ele><time>2026-04-03T14:44:58.033Z</time></trkpt><trkpt lat="43.4706904" lon="11.4400684"><ele>447.6666666666667</ele><time>2026-04-03T14:44:59.017Z</time></trkpt><trkpt lat="43.4706454" lon="11.4399912"><ele>446.0</ele><time>2026-04-03T14:45:00.055Z</time></trkpt><trkpt lat="43.4705991" lon="11.4399135"><ele>444.33333333333337</ele><time>2026-04-03T14:45:01.026Z</time></trkpt><trkpt lat="43.4705553" lon="11.4398356"><ele>442.6666666666667</ele><time>2026-04-03T14:45:02.026Z</time></trkpt><trkpt lat="43.4705158" lon="11.4397623"><ele>441.0</ele><time>2026-04-03T14:45:03.023Z</time></trkpt><trkpt lat="43.4704488" lon="11.4396433"><ele>441.6666666666667</ele><time>2026-04-03T14:45:05.032Z</time></trkpt><trkpt lat="43.4704022" lon="11.4395"><ele>442.33333333333337</ele><time>2026-04-03T14:45:07.03Z</time></trkpt><trkpt lat="43.4703899" lon="11.4394103"><ele>443.0</ele><time>2026-04-03T14:45:08.023Z</time></trkpt><trkpt lat="43.4703924" lon="11.4393118"><ele>443.6666666666667</ele><time>2026-04-03T14:45:09.027Z</time></trkpt><trkpt lat="43.4704045" lon="11.4392086"><ele>444.33333333333337</ele><time>2026-04-03T14:45:10.031Z</time></trkpt><trkpt lat="43.4704219" lon="11.4390977"><ele>445.0</ele><time>2026-04-03T14:45:11.015Z</time></trkpt><trkpt lat="43.4704347" lon="11.4389794"><ele>442.83333333333337</ele><time>2026-04-03T14:45:12.048Z</time></trkpt><trkpt lat="43.4704426" lon="11.4388718"><ele>440.6666666666667</ele><time>2026-04-03T14:45:13.017Z</time></trkpt><trkpt lat="43.470448" lon="11.4387695"><ele>438.5</ele><time>2026-04-03T14:45:14.027Z</time></trkpt><trkpt lat="43.4704443" lon="11.4386695"><ele>436.33333333333337</ele><time>2026-04-03T14:45:15.007Z</time></trkpt><trkpt lat="43.4704315" lon="11.4385603"><ele>434.1666666666667</ele><time>2026-04-03T14:45:16.019Z</time></trkpt><trkpt lat="43.4704138" lon="11.4384382"><ele>432.0</ele><time>2026-04-03T14:45:17.024Z</time></trkpt><trkpt lat="43.4703967" lon="11.43831"><ele>431.8</ele><time>2026-04-03T14:45:18.035Z</time></trkpt><trkpt lat="43.4703772" lon="11.4381802"><ele>431.6</ele><time>2026-04-03T14:45:19.018Z</time></trkpt><trkpt lat="43.4703554" lon="11.4380531"><ele>431.40000000000003</ele><time>2026-04-03T14:45:20.023Z</time></trkpt><trkpt lat="43.4703403" lon="11.4379224"><ele>431.20000000000005</ele><time>2026-04-03T14:45:21.027Z</time></trkpt><trkpt lat="43.470338" lon="11.4377898"><ele>431.0</ele><time>2026-04-03T14:45:22.018Z</time></trkpt><trkpt lat="43.4703435" lon="11.4376655"><ele>429.7142857142857</ele><time>2026-04-03T14:45:23.031Z</time></trkpt><trkpt lat="43.4703554" lon="11.4375462"><ele>428.4285714285714</ele><time>2026-04-03T14:45:24.026Z</time></trkpt><trkpt lat="43.4703709" lon="11.4374401"><ele>427.1428571428571</ele><time>2026-04-03T14:45:25.03Z</time></trkpt><trkpt lat="43.4703874" lon="11.4373458"><ele>425.8571428571429</ele><time>2026-04-03T14:45:26.019Z</time></trkpt><trkpt lat="43.470388" lon="11.437253"><ele>424.57142857142856</ele><time>2026-04-03T14:45:27.025Z</time></trkpt><trkpt lat="43.4703615" lon="11.437167"><ele>423.2857142857143</ele><time>2026-04-03T14:45:28.014Z</time></trkpt><trkpt lat="43.4703018" lon="11.4371047"><ele>422.0</ele><time>2026-04-03T14:45:29.023Z</time></trkpt><trkpt lat="43.4702298" lon="11.4370662"><ele>421.99999999999994</ele><time>2026-04-03T14:45:30.021Z</time></trkpt><trkpt lat="43.4701553" lon="11.4370278"><ele>422.0</ele><time>2026-04-03T14:45:31.017Z</time></trkpt><trkpt lat="43.4700793" lon="11.4370036"><ele>422.0</ele><time>2026-04-03T14:45:32.031Z</time></trkpt><trkpt lat="43.470011" lon="11.4370191"><ele>422.0</ele><time>2026-04-03T14:45:33.011Z</time></trkpt><trkpt lat="43.4699371" lon="11.4370719"><ele>421.99999999999994</ele><time>2026-04-03T14:45:34.024Z</time></trkpt><trkpt lat="43.4698702" lon="11.4371527"><ele>422.0</ele><time>2026-04-03T14:45:35.018Z</time></trkpt><trkpt lat="43.4697977" lon="11.4372439"><ele>421.99999999999994</ele><time>2026-04-03T14:45:36.027Z</time></trkpt><trkpt lat="43.4697217" lon="11.4373362"><ele>422.0</ele><time>2026-04-03T14:45:37.025Z</time></trkpt><trkpt lat="43.469657" lon="11.4374147"><ele>422.0</ele><time>2026-04-03T14:45:38.016Z</time></trkpt><trkpt lat="43.4696035" lon="11.4374795"><ele>422.0</ele><time>2026-04-03T14:45:39.009Z</time></trkpt><trkpt lat="43.4695031" lon="11.4375463"><ele>421.99999999999994</ele><time>2026-04-03T14:45:41.014Z</time></trkpt><trkpt lat="43.4694365" lon="11.437526"><ele>422.0</ele><time>2026-04-03T14:45:42.018Z</time></trkpt><trkpt lat="43.469382" lon="11.4374383"><ele>419.6</ele><time>2026-04-03T14:45:43.011Z</time></trkpt><trkpt lat="43.4693643" lon="11.437295"><ele>417.20000000000005</ele><time>2026-04-03T14:45:44.042Z</time></trkpt><trkpt lat="43.4693479" lon="11.4371601"><ele>414.8</ele><time>2026-04-03T14:45:45.019Z</time></trkpt><trkpt lat="43.4693317" lon="11.4370195"><ele>412.4</ele><time>2026-04-03T14:45:46.007Z</time></trkpt><trkpt lat="43.4693254" lon="11.4368795"><ele>410.0</ele><time>2026-04-03T14:45:47.019Z</time></trkpt><trkpt lat="43.4693198" lon="11.4367388"><ele>408.0</ele><time>2026-04-03T14:45:48.022Z</time></trkpt><trkpt lat="43.46932" lon="11.43659"><ele>406.0</ele><time>2026-04-03T14:45:49.022Z</time></trkpt><trkpt lat="43.4693239" lon="11.4364418"><ele>404.0</ele><time>2026-04-03T14:45:50.016Z</time></trkpt><trkpt lat="43.4693265" lon="11.436301"><ele>402.0</ele><time>2026-04-03T14:45:51.012Z</time></trkpt><trkpt lat="43.4693306" lon="11.4361646"><ele>400.0</ele><time>2026-04-03T14:45:52.014Z</time></trkpt><trkpt lat="43.4693341" lon="11.4360305"><ele>397.8</ele><time>2026-04-03T14:45:53.028Z</time></trkpt><trkpt lat="43.4693344" lon="11.435898"><ele>395.6</ele><time>2026-04-03T14:45:54.02Z</time></trkpt><trkpt lat="43.4693307" lon="11.4357646"><ele>393.4</ele><time>2026-04-03T14:45:55.021Z</time></trkpt><trkpt lat="43.469328" lon="11.4356325"><ele>391.2</ele><time>2026-04-03T14:45:56.02Z</time></trkpt><trkpt lat="43.469326" lon="11.4355027"><ele>389.0</ele><time>2026-04-03T14:45:57.025Z</time></trkpt><trkpt lat="43.4693183" lon="11.4353815"><ele>386.8333333333333</ele><time>2026-04-03T14:45:58.02Z</time></trkpt><trkpt lat="43.4693109" lon="11.4352723"><ele>384.66666666666663</ele><time>2026-04-03T14:45:59.028Z</time></trkpt><trkpt lat="43.4693035" lon="11.4351647"><ele>382.5</ele><time>2026-04-03T14:46:00.032Z</time></trkpt><trkpt lat="43.469293" lon="11.435066"><ele>380.3333333333333</ele><time>2026-04-03T14:46:01.019Z</time></trkpt><trkpt lat="43.4692397" lon="11.4349169"><ele>378.16666666666663</ele><time>2026-04-03T14:46:03.011Z</time></trkpt><trkpt lat="43.4691758" lon="11.4348951"><ele>376.0</ele><time>2026-04-03T14:46:04.025Z</time></trkpt><trkpt lat="43.4690996" lon="11.4349178"><ele>376.0</ele><time>2026-04-03T14:46:05.009Z</time></trkpt><trkpt lat="43.4690147" lon="11.4349778"><ele>376.0</ele><time>2026-04-03T14:46:06.017Z</time></trkpt><trkpt lat="43.4689312" lon="11.435048"><ele>376.0</ele><time>2026-04-03T14:46:07.016Z</time></trkpt><trkpt lat="43.4688622" lon="11.4351078"><ele>376.0</ele><time>2026-04-03T14:46:08.02Z</time></trkpt><trkpt lat="43.468814" lon="11.4351637"><ele>376.0</ele><time>2026-04-03T14:46:09.014Z</time></trkpt><trkpt lat="43.4687607" lon="11.4352155"><ele>376.0</ele><time>2026-04-03T14:46:11.01Z</time></trkpt><trkpt lat="43.4687069" lon="11.4351282"><ele>376.0</ele><time>2026-04-03T14:46:14.026Z</time></trkpt><trkpt lat="43.4687467" lon="11.4350095"><ele>376.0</ele><time>2026-04-03T14:46:16.016Z</time></trkpt><trkpt lat="43.4688112" lon="11.4348857"><ele>376.0</ele><time>2026-04-03T14:46:18.016Z</time></trkpt><trkpt lat="43.4688408" lon="11.4348019"><ele>376.0</ele><time>2026-04-03T14:46:19.016Z</time></trkpt><trkpt lat="43.4688627" lon="11.4347066"><ele>376.0</ele><time>2026-04-03T14:46:20.021Z</time></trkpt><trkpt lat="43.4688843" lon="11.4346149"><ele>376.0</ele><time>2026-04-03T14:46:21.025Z</time></trkpt><trkpt lat="43.4689157" lon="11.4345247"><ele>374.0</ele><time>2026-04-03T14:46:22.021Z</time></trkpt><trkpt lat="43.4689543" lon="11.4344397"><ele>372.0</ele><time>2026-04-03T14:46:23.007Z</time></trkpt><trkpt lat="43.46899" lon="11.4343575"><ele>370.0</ele><time>2026-04-03T14:46:24.018Z</time></trkpt><trkpt lat="43.4690269" lon="11.4342832"><ele>368.0</ele><time>2026-04-03T14:46:25.014Z</time></trkpt><trkpt lat="43.4690617" lon="11.4342107"><ele>366.0</ele><time>2026-04-03T14:46:26.017Z</time></trkpt><trkpt lat="43.4691338" lon="11.434077"><ele>364.0</ele><time>2026-04-03T14:46:28.012Z</time></trkpt><trkpt lat="43.4691948" lon="11.4339415"><ele>363.0</ele><time>2026-04-03T14:46:30.015Z</time></trkpt><trkpt lat="43.4692113" lon="11.4338011"><ele>362.0</ele><time>2026-04-03T14:46:32.013Z</time></trkpt><trkpt lat="43.4691652" lon="11.4336413"><ele>361.0</ele><time>2026-04-03T14:46:34.017Z</time></trkpt><trkpt lat="43.4691153" lon="11.4335056"><ele>360.0</ele><time>2026-04-03T14:46:36.002Z</time></trkpt><trkpt lat="43.469108" lon="11.4334182"><ele>359.0</ele><time>2026-04-03T14:46:38.011Z</time></trkpt><trkpt lat="43.4691515" lon="11.4333354"><ele>359.0</ele><time>2026-04-03T14:46:42.012Z</time></trkpt><trkpt lat="43.4692337" lon="11.4333483"><ele>359.0</ele><time>2026-04-03T14:46:45.008Z</time></trkpt><trkpt lat="43.4692996" lon="11.4333262"><ele>359.0</ele><time>2026-04-03T14:46:49.017Z</time></trkpt><trkpt lat="43.469342" lon="11.4332262"><ele>359.0</ele><time>2026-04-03T14:46:52.014Z</time></trkpt><trkpt lat="43.4694073" lon="11.4331843"><ele>359.0</ele><time>2026-04-03T15:05:21.011Z</time></trkpt><trkpt lat="43.4693067" lon="11.4331341"><ele>359.0</ele><time>2026-04-03T15:05:24.008Z</time></trkpt><trkpt lat="43.4692417" lon="11.4332017"><ele>359.0</ele><time>2026-04-03T15:05:27.01Z</time></trkpt><trkpt lat="43.4693223" lon="11.4331996"><ele>359.0</ele><time>2026-04-03T15:05:32.014Z</time></trkpt><trkpt lat="43.4694174" lon="11.4332183"><ele>359.0</ele><time>2026-04-03T15:05:34.004Z</time></trkpt><trkpt lat="43.469489" lon="11.4332361"><ele>359.0</ele><time>2026-04-03T15:05:35.005Z</time></trkpt><trkpt lat="43.4695647" lon="11.4332631"><ele>359.0</ele><time>2026-04-03T15:05:36.011Z</time></trkpt><trkpt lat="43.4696478" lon="11.4332867"><ele>359.0</ele><time>2026-04-03T15:05:37.007Z</time></trkpt><trkpt lat="43.4697284" lon="11.4333"><ele>359.5</ele><time>2026-04-03T15:05:38.008Z</time></trkpt><trkpt lat="43.4698064" lon="11.4332955"><ele>360.0</ele><time>2026-04-03T15:05:39.01Z</time></trkpt><trkpt lat="43.4698939" lon="11.4332815"><ele>360.5</ele><time>2026-04-03T15:05:40.021Z</time></trkpt><trkpt lat="43.4699762" lon="11.4332608"><ele>361.0</ele><time>2026-04-03T15:05:41.004Z</time></trkpt><trkpt lat="43.4700561" lon="11.4332478"><ele>361.5</ele><time>2026-04-03T15:05:42.026Z</time></trkpt><trkpt lat="43.4701364" lon="11.4332475"><ele>362.0</ele><time>2026-04-03T15:05:43.005Z</time></trkpt><trkpt lat="43.4702172" lon="11.4332445"><ele>362.0</ele><time>2026-04-03T15:05:44.01Z</time></trkpt><trkpt lat="43.4702966" lon="11.4332425"><ele>362.0</ele><time>2026-04-03T15:05:45.001Z</time></trkpt><trkpt lat="43.4703797" lon="11.4332316"><ele>362.0</ele><time>2026-04-03T15:05:46.009Z</time></trkpt><trkpt lat="43.4704613" lon="11.4332143"><ele>362.0</ele><time>2026-04-03T15:05:47.01Z</time></trkpt><trkpt lat="43.4705373" lon="11.4331811"><ele>362.0</ele><time>2026-04-03T15:05:48.016Z</time></trkpt><trkpt lat="43.4705965" lon="11.4331448"><ele>362.0</ele><time>2026-04-03T15:05:49.011Z</time></trkpt><trkpt lat="43.4706249" lon="11.4330228"><ele>363.6666666666667</ele><time>2026-04-03T15:05:51.004Z</time></trkpt><trkpt lat="43.4705887" lon="11.4328888"><ele>365.33333333333337</ele><time>2026-04-03T15:05:53.01Z</time></trkpt><trkpt lat="43.4705666" lon="11.4328058"><ele>367.0</ele><time>2026-04-03T15:05:54.014Z</time></trkpt><trkpt lat="43.4705543" lon="11.4327037"><ele>368.6666666666667</ele><time>2026-04-03T15:05:55.021Z</time></trkpt><trkpt lat="43.4705535" lon="11.4325951"><ele>370.3333333333333</ele><time>2026-04-03T15:05:56.011Z</time></trkpt><trkpt lat="43.470566" lon="11.4324942"><ele>372.0</ele><time>2026-04-03T15:05:57.021Z</time></trkpt><trkpt lat="43.4705931" lon="11.4324119"><ele>372.0</ele><time>2026-04-03T15:05:58.013Z</time></trkpt><trkpt lat="43.4706436" lon="11.4323543"><ele>372.0</ele><time>2026-04-03T15:05:59.015Z</time></trkpt><trkpt lat="43.470708" lon="11.43232"><ele>372.0</ele><time>2026-04-03T15:06:00.013Z</time></trkpt><trkpt lat="43.47079" lon="11.4322946"><ele>372.0</ele><time>2026-04-03T15:06:01.007Z</time></trkpt><trkpt lat="43.4708762" lon="11.43227"><ele>372.0</ele><time>2026-04-03T15:06:02.015Z</time></trkpt><trkpt lat="43.4709672" lon="11.4322366"><ele>372.0</ele><time>2026-04-03T15:06:03.012Z</time></trkpt><trkpt lat="43.4710616" lon="11.4321935"><ele>373.20000000000005</ele><time>2026-04-03T15:06:04.023Z</time></trkpt><trkpt lat="43.4711561" lon="11.4321267"><ele>374.4</ele><time>2026-04-03T15:06:05.026Z</time></trkpt><trkpt lat="43.4712441" lon="11.4320493"><ele>375.6</ele><time>2026-04-03T15:06:06.01Z</time></trkpt><trkpt lat="43.4713271" lon="11.4319637"><ele>376.79999999999995</ele><time>2026-04-03T15:06:07.009Z</time></trkpt><trkpt lat="43.4714151" lon="11.4318824"><ele>378.0</ele><time>2026-04-03T15:06:08.013Z</time></trkpt><trkpt lat="43.4715019" lon="11.4318031"><ele>380.79999999999995</ele><time>2026-04-03T15:06:09.014Z</time></trkpt><trkpt lat="43.4715945" lon="11.4317346"><ele>383.6</ele><time>2026-04-03T15:06:10.017Z</time></trkpt><trkpt lat="43.4716909" lon="11.4317061"><ele>386.4</ele><time>2026-04-03T15:06:11.003Z</time></trkpt><trkpt lat="43.4717892" lon="11.4317248"><ele>389.20000000000005</ele><time>2026-04-03T15:06:12.02Z</time></trkpt><trkpt lat="43.4718827" lon="11.4317737"><ele>392.0</ele><time>2026-04-03T15:06:13.017Z</time></trkpt><trkpt lat="43.4719661" lon="11.4317902"><ele>392.0</ele><time>2026-04-03T15:06:14.015Z</time></trkpt><trkpt lat="43.4720458" lon="11.4317611"><ele>392.0</ele><time>2026-04-03T15:06:15.004Z</time></trkpt><trkpt lat="43.4721306" lon="11.4317102"><ele>392.0</ele><time>2026-04-03T15:06:16.019Z</time></trkpt><trkpt lat="43.4722246" lon="11.4316553"><ele>392.0</ele><time>2026-04-03T15:06:17.01Z</time></trkpt><trkpt lat="43.4723251" lon="11.431607"><ele>392.0</ele><time>2026-04-03T15:06:18.025Z</time></trkpt><trkpt lat="43.4724262" lon="11.4315798"><ele>394.20000000000005</ele><time>2026-04-03T15:06:19.01Z</time></trkpt><trkpt lat="43.4725351" lon="11.431583"><ele>396.4</ele><time>2026-04-03T15:06:20.013Z</time></trkpt><trkpt lat="43.4726426" lon="11.4315687"><ele>398.6</ele><time>2026-04-03T15:06:21.02Z</time></trkpt><trkpt lat="43.4727359" lon="11.4314984"><ele>400.79999999999995</ele><time>2026-04-03T15:06:22.015Z</time></trkpt><trkpt lat="43.4728257" lon="11.4313903"><ele>403.0</ele><time>2026-04-03T15:06:23.009Z</time></trkpt><trkpt lat="43.4729063" lon="11.4312724"><ele>407.25</ele><time>2026-04-03T15:06:24.008Z</time></trkpt><trkpt lat="43.4729857" lon="11.4311499"><ele>411.5</ele><time>2026-04-03T15:06:25.014Z</time></trkpt><trkpt lat="43.4730612" lon="11.4310356"><ele>415.75</ele><time>2026-04-03T15:06:26.018Z</time></trkpt><trkpt lat="43.4731474" lon="11.4309265"><ele>420.0</ele><time>2026-04-03T15:06:27.018Z</time></trkpt><trkpt lat="43.4732292" lon="11.4308232"><ele>420.0</ele><time>2026-04-03T15:06:28.019Z</time></trkpt><trkpt lat="43.4733061" lon="11.4307312"><ele>420.0</ele><time>2026-04-03T15:06:29.009Z</time></trkpt><trkpt lat="43.4733769" lon="11.4306365"><ele>420.0</ele><time>2026-04-03T15:06:30.013Z</time></trkpt><trkpt lat="43.4734417" lon="11.4305437"><ele>420.0</ele><time>2026-04-03T15:06:31.013Z</time></trkpt><trkpt lat="43.4735027" lon="11.4304417"><ele>420.0</ele><time>2026-04-03T15:06:32.021Z</time></trkpt><trkpt lat="43.4735634" lon="11.4303221"><ele>420.0</ele><time>2026-04-03T15:06:33.013Z</time></trkpt><trkpt lat="43.473624" lon="11.4301993"><ele>420.0</ele><time>2026-04-03T15:06:34.017Z</time></trkpt><trkpt lat="43.4736789" lon="11.4300718"><ele>420.0</ele><time>2026-04-03T15:06:35.012Z</time></trkpt><trkpt lat="43.473726" lon="11.4299538"><ele>420.0</ele><time>2026-04-03T15:06:36.007Z</time></trkpt><trkpt lat="43.4737807" lon="11.4298434"><ele>420.0</ele><time>2026-04-03T15:06:37.007Z</time></trkpt><trkpt lat="43.4738286" lon="11.4297342"><ele>421.6</ele><time>2026-04-03T15:06:38.009Z</time></trkpt><trkpt lat="43.4738737" lon="11.4296327"><ele>423.2</ele><time>2026-04-03T15:06:39.011Z</time></trkpt><trkpt lat="43.4739148" lon="11.429529"><ele>424.79999999999995</ele><time>2026-04-03T15:06:40.028Z</time></trkpt><trkpt lat="43.4739576" lon="11.4294166"><ele>426.4</ele><time>2026-04-03T15:06:41.011Z</time></trkpt><trkpt lat="43.4740032" lon="11.4292973"><ele>428.0</ele><time>2026-04-03T15:06:42.015Z</time></trkpt><trkpt lat="43.4740526" lon="11.4291825"><ele>428.0</ele><time>2026-04-03T15:06:43.004Z</time></trkpt><trkpt lat="43.4741097" lon="11.4290551"><ele>428.0</ele><time>2026-04-03T15:06:44.032Z</time></trkpt><trkpt lat="43.4741721" lon="11.428919"><ele>428.0</ele><time>2026-04-03T15:06:45.011Z</time></trkpt><trkpt lat="43.4742392" lon="11.4287783"><ele>428.0</ele><time>2026-04-03T15:06:46.025Z</time></trkpt><trkpt lat="43.4743148" lon="11.4286253"><ele>428.25</ele><time>2026-04-03T15:06:47.006Z</time></trkpt><trkpt lat="43.4743994" lon="11.4284815"><ele>428.5</ele><time>2026-04-03T15:06:48.02Z</time></trkpt><trkpt lat="43.4744919" lon="11.4283446"><ele>428.75</ele><time>2026-04-03T15:06:49.02Z</time></trkpt><trkpt lat="43.4745816" lon="11.4282061"><ele>429.0</ele><time>2026-04-03T15:06:50.013Z</time></trkpt><trkpt lat="43.4746676" lon="11.4280755"><ele>432.75</ele><time>2026-04-03T15:06:51.016Z</time></trkpt><trkpt lat="43.4747482" lon="11.4279607"><ele>436.5</ele><time>2026-04-03T15:06:52.016Z</time></trkpt><trkpt lat="43.4748339" lon="11.4278648"><ele>440.25</ele><time>2026-04-03T15:06:53.018Z</time></trkpt><trkpt lat="43.4749311" lon="11.4277663"><ele>444.0</ele><time>2026-04-03T15:06:54.022Z</time></trkpt><trkpt lat="43.4750353" lon="11.4276696"><ele>444.0</ele><time>2026-04-03T15:06:55.012Z</time></trkpt><trkpt lat="43.4751438" lon="11.4275875"><ele>444.0</ele><time>2026-04-03T15:06:56.016Z</time></trkpt><trkpt lat="43.4752501" lon="11.4275088"><ele>444.0</ele><time>2026-04-03T15:06:57.012Z</time></trkpt><trkpt lat="43.4753492" lon="11.4274345"><ele>444.0</ele><time>2026-04-03T15:06:58.024Z</time></trkpt><trkpt lat="43.4754394" lon="11.4273579"><ele>447.2</ele><time>2026-04-03T15:06:59.006Z</time></trkpt><trkpt lat="43.4755206" lon="11.4272728"><ele>450.4</ele><time>2026-04-03T15:07:00.02Z</time></trkpt><trkpt lat="43.4755914" lon="11.4271657"><ele>453.6</ele><time>2026-04-03T15:07:01.013Z</time></trkpt><trkpt lat="43.4756473" lon="11.4270359"><ele>456.8</ele><time>2026-04-03T15:07:02.023Z</time></trkpt><trkpt lat="43.4757049" lon="11.4269206"><ele>460.0</ele><time>2026-04-03T15:07:03.011Z</time></trkpt><trkpt lat="43.475768" lon="11.4268103"><ele>461.0</ele><time>2026-04-03T15:07:04.022Z</time></trkpt><trkpt lat="43.4758413" lon="11.4267166"><ele>462.0</ele><time>2026-04-03T15:07:05.019Z</time></trkpt><trkpt lat="43.4759214" lon="11.4266255"><ele>463.0</ele><time>2026-04-03T15:07:06.008Z</time></trkpt><trkpt lat="43.4760029" lon="11.4265328"><ele>464.0</ele><time>2026-04-03T15:07:07.02Z</time></trkpt><trkpt lat="43.476089" lon="11.4264589"><ele>465.0</ele><time>2026-04-03T15:07:08.018Z</time></trkpt><trkpt lat="43.4761802" lon="11.4263966"><ele>468.0</ele><time>2026-04-03T15:07:09.012Z</time></trkpt><trkpt lat="43.4762763" lon="11.4263518"><ele>471.0</ele><time>2026-04-03T15:07:10.009Z</time></trkpt><trkpt lat="43.476379" lon="11.4263272"><ele>474.0</ele><time>2026-04-03T15:07:11.015Z</time></trkpt><trkpt lat="43.4764863" lon="11.426327"><ele>477.0</ele><time>2026-04-03T15:07:12.022Z</time></trkpt><trkpt lat="43.4765981" lon="11.4263324"><ele>480.0</ele><time>2026-04-03T15:07:13.016Z</time></trkpt><trkpt lat="43.4767195" lon="11.4263473"><ele>480.0</ele><time>2026-04-03T15:07:14.014Z</time></trkpt><trkpt lat="43.4768474" lon="11.4263656"><ele>480.0</ele><time>2026-04-03T15:07:15.004Z</time></trkpt><trkpt lat="43.4769767" lon="11.4263827"><ele>480.0</ele><time>2026-04-03T15:07:16.009Z</time></trkpt><trkpt lat="43.4771031" lon="11.4264018"><ele>480.0</ele><time>2026-04-03T15:07:17.022Z</time></trkpt><trkpt lat="43.4772235" lon="11.426422"><ele>482.6</ele><time>2026-04-03T15:07:18.021Z</time></trkpt><trkpt lat="43.477334" lon="11.4264433"><ele>485.2</ele><time>2026-04-03T15:07:19.008Z</time></trkpt><trkpt lat="43.4774353" lon="11.4264438"><ele>487.79999999999995</ele><time>2026-04-03T15:07:20.019Z</time></trkpt><trkpt lat="43.4775223" lon="11.4264262"><ele>490.4</ele><time>2026-04-03T15:07:21.016Z</time></trkpt><trkpt lat="43.4776034" lon="11.4263957"><ele>493.0</ele><time>2026-04-03T15:07:22.005Z</time></trkpt><trkpt lat="43.4776746" lon="11.4263546"><ele>494.50000000000006</ele><time>2026-04-03T15:07:22.999Z</time></trkpt><trkpt lat="43.4777282" lon="11.4262997"><ele>496.0</ele><time>2026-04-03T15:07:24.003Z</time></trkpt><trkpt lat="43.4777764" lon="11.4261464"><ele>497.5</ele><time>2026-04-03T15:07:26.011Z</time></trkpt><trkpt lat="43.4777717" lon="11.4260531"><ele>499.0</ele><time>2026-04-03T15:07:27.01Z</time></trkpt><trkpt lat="43.477771" lon="11.4259591"><ele>500.50000000000006</ele><time>2026-04-03T15:07:28.014Z</time></trkpt><trkpt lat="43.4777692" lon="11.4258539"><ele>502.0</ele><time>2026-04-03T15:07:29.011Z</time></trkpt><trkpt lat="43.4777694" lon="11.4257237"><ele>502.0</ele><time>2026-04-03T15:07:30.022Z</time></trkpt><trkpt lat="43.4777731" lon="11.4255844"><ele>502.00000000000006</ele><time>2026-04-03T15:07:31.006Z</time></trkpt><trkpt lat="43.4777735" lon="11.4254364"><ele>502.00000000000006</ele><time>2026-04-03T15:07:32.017Z</time></trkpt><trkpt lat="43.4777893" lon="11.4252966"><ele>502.0</ele><time>2026-04-03T15:07:32.998Z</time></trkpt><trkpt lat="43.4778184" lon="11.4251703"><ele>502.0</ele><time>2026-04-03T15:07:34.02Z</time></trkpt><trkpt lat="43.4778657" lon="11.4250575"><ele>502.8</ele><time>2026-04-03T15:07:35.01Z</time></trkpt><trkpt lat="43.4779193" lon="11.424955"><ele>503.6</ele><time>2026-04-03T15:07:36.013Z</time></trkpt><trkpt lat="43.4779794" lon="11.4248724"><ele>504.40000000000003</ele><time>2026-04-03T15:07:37.012Z</time></trkpt><trkpt lat="43.4780584" lon="11.4247991"><ele>505.20000000000005</ele><time>2026-04-03T15:07:38.014Z</time></trkpt><trkpt lat="43.4781411" lon="11.4247409"><ele>506.0</ele><time>2026-04-03T15:07:39.016Z</time></trkpt><trkpt lat="43.4782323" lon="11.4246854"><ele>510.0</ele><time>2026-04-03T15:07:40.02Z</time></trkpt><trkpt lat="43.4783268" lon="11.4246107"><ele>514.0</ele><time>2026-04-03T15:07:41.008Z</time></trkpt><trkpt lat="43.4784227" lon="11.4245274"><ele>518.0</ele><time>2026-04-03T15:07:42.021Z</time></trkpt><trkpt lat="43.4785229" lon="11.4244449"><ele>522.0</ele><time>2026-04-03T15:07:43.006Z</time></trkpt><trkpt lat="43.4786296" lon="11.4243702"><ele>522.0</ele><time>2026-04-03T15:07:44.021Z</time></trkpt><trkpt lat="43.4787423" lon="11.4242972"><ele>522.0</ele><time>2026-04-03T15:07:45.012Z</time></trkpt><trkpt lat="43.4788553" lon="11.4242125"><ele>522.0</ele><time>2026-04-03T15:07:46.006Z</time></trkpt><trkpt lat="43.4789565" lon="11.4241071"><ele>522.0</ele><time>2026-04-03T15:07:47.022Z</time></trkpt><trkpt lat="43.4790509" lon="11.4239906"><ele>523.5</ele><time>2026-04-03T15:07:48.02Z</time></trkpt><trkpt lat="43.4791395" lon="11.4238701"><ele>525.0</ele><time>2026-04-03T15:07:49.006Z</time></trkpt><trkpt lat="43.4792209" lon="11.4237477"><ele>526.5</ele><time>2026-04-03T15:07:50.019Z</time></trkpt><trkpt lat="43.4792948" lon="11.4236243"><ele>528.0</ele><time>2026-04-03T15:07:51.008Z</time></trkpt><trkpt lat="43.4793674" lon="11.4234802"><ele>527.5</ele><time>2026-04-03T15:07:52.02Z</time></trkpt><trkpt lat="43.4794353" lon="11.4233355"><ele>527.0</ele><time>2026-04-03T15:07:53.009Z</time></trkpt><trkpt lat="43.4795104" lon="11.4231902"><ele>526.5</ele><time>2026-04-03T15:07:54.018Z</time></trkpt><trkpt lat="43.4796024" lon="11.4230418"><ele>526.0</ele><time>2026-04-03T15:07:55.008Z</time></trkpt><trkpt lat="43.4797064" lon="11.4229025"><ele>528.3333333333334</ele><time>2026-04-03T15:07:56.012Z</time></trkpt><trkpt lat="43.4798246" lon="11.4227604"><ele>530.6666666666666</ele><time>2026-04-03T15:07:57.004Z</time></trkpt><trkpt lat="43.4799416" lon="11.4226239"><ele>533.0</ele><time>2026-04-03T15:07:58.016Z</time></trkpt><trkpt lat="43.4800594" lon="11.4224865"><ele>533.0</ele><time>2026-04-03T15:07:59.017Z</time></trkpt><trkpt lat="43.4801791" lon="11.4223497"><ele>533.0</ele><time>2026-04-03T15:08:00.015Z</time></trkpt><trkpt lat="43.4803019" lon="11.4222306"><ele>533.0</ele><time>2026-04-03T15:08:01.011Z</time></trkpt><trkpt lat="43.4804338" lon="11.4221287"><ele>534.6666666666666</ele><time>2026-04-03T15:08:02.002Z</time></trkpt><trkpt lat="43.4805718" lon="11.4220346"><ele>536.3333333333334</ele><time>2026-04-03T15:08:03.011Z</time></trkpt><trkpt lat="43.4807117" lon="11.4219367"><ele>538.0</ele><time>2026-04-03T15:08:04.009Z</time></trkpt><trkpt lat="43.480856" lon="11.4218335"><ele>538.0</ele><time>2026-04-03T15:08:04.999Z</time></trkpt><trkpt lat="43.4810029" lon="11.4217343"><ele>538.0</ele><time>2026-04-03T15:08:06.022Z</time></trkpt><trkpt lat="43.4811456" lon="11.4216342"><ele>538.0</ele><time>2026-04-03T15:08:07.003Z</time></trkpt><trkpt lat="43.4812799" lon="11.421525"><ele>537.6666666666667</ele><time>2026-04-03T15:08:08.006Z</time></trkpt><trkpt lat="43.4814098" lon="11.4214038"><ele>537.3333333333334</ele><time>2026-04-03T15:08:09.006Z</time></trkpt><trkpt lat="43.4815371" lon="11.421265"><ele>537.0</ele><time>2026-04-03T15:08:10.022Z</time></trkpt><trkpt lat="43.4816701" lon="11.4211553"><ele>537.0</ele><time>2026-04-03T15:08:11.013Z</time></trkpt><trkpt lat="43.4818016" lon="11.4210468"><ele>537.0</ele><time>2026-04-03T15:08:12.01Z</time></trkpt><trkpt lat="43.48193" lon="11.4209488"><ele>537.0</ele><time>2026-04-03T15:08:13.011Z</time></trkpt><trkpt lat="43.4820468" lon="11.4208591"><ele>537.0</ele><time>2026-04-03T15:08:14.035Z</time></trkpt><trkpt lat="43.4821578" lon="11.420781"><ele>536.75</ele><time>2026-04-03T15:08:15.009Z</time></trkpt><trkpt lat="43.4822701" lon="11.420698"><ele>536.5</ele><time>2026-04-03T15:08:16.027Z</time></trkpt><trkpt lat="43.4823878" lon="11.4206112"><ele>536.25</ele><time>2026-04-03T15:08:17.016Z</time></trkpt><trkpt lat="43.4825116" lon="11.4205212"><ele>536.0</ele><time>2026-04-03T15:08:18.006Z</time></trkpt><trkpt lat="43.4826391" lon="11.4204287"><ele>536.0</ele><time>2026-04-03T15:08:19.006Z</time></trkpt><trkpt lat="43.4827679" lon="11.4203385"><ele>536.0</ele><time>2026-04-03T15:08:20.016Z</time></trkpt><trkpt lat="43.4829036" lon="11.4202535"><ele>536.0</ele><time>2026-04-03T15:08:21.014Z</time></trkpt><trkpt lat="43.4830424" lon="11.4201675"><ele>536.0</ele><time>2026-04-03T15:08:22.02Z</time></trkpt><trkpt lat="43.4831832" lon="11.4200789"><ele>539.0</ele><time>2026-04-03T15:08:23.011Z</time></trkpt><trkpt lat="43.4833252" lon="11.4199844"><ele>542.0</ele><time>2026-04-03T15:08:24.013Z</time></trkpt><trkpt lat="43.4834672" lon="11.4198985"><ele>545.0</ele><time>2026-04-03T15:08:25.007Z</time></trkpt><trkpt lat="43.4836054" lon="11.4198125"><ele>545.0</ele><time>2026-04-03T15:08:26.015Z</time></trkpt><trkpt lat="43.4837419" lon="11.4197208"><ele>545.0</ele><time>2026-04-03T15:08:27.009Z</time></trkpt><trkpt lat="43.48387" lon="11.4196355"><ele>545.0</ele><time>2026-04-03T15:08:28.018Z</time></trkpt><trkpt lat="43.4839887" lon="11.4195674"><ele>545.0</ele><time>2026-04-03T15:08:29.01Z</time></trkpt><trkpt lat="43.48409" lon="11.4195148"><ele>545.5</ele><time>2026-04-03T15:08:30.02Z</time></trkpt><trkpt lat="43.4841746" lon="11.4194705"><ele>546.0</ele><time>2026-04-03T15:08:31.01Z</time></trkpt><trkpt lat="43.4842413" lon="11.4194363"><ele>546.5</ele><time>2026-04-03T15:08:32.013Z</time></trkpt><trkpt lat="43.484325" lon="11.4193662"><ele>547.0</ele><time>2026-04-03T15:08:34.022Z</time></trkpt><trkpt lat="43.4843291" lon="11.4192342"><ele>547.5</ele><time>2026-04-03T15:08:36.023Z</time></trkpt><trkpt lat="43.4843226" lon="11.4191255"><ele>548.0</ele><time>2026-04-03T15:08:37.018Z</time></trkpt><trkpt lat="43.4843101" lon="11.4189774"><ele>548.25</ele><time>2026-04-03T15:08:38.021Z</time></trkpt><trkpt lat="43.4842975" lon="11.4188061"><ele>548.5</ele><time>2026-04-03T15:08:39.007Z</time></trkpt><trkpt lat="43.4842796" lon="11.4186237"><ele>548.75</ele><time>2026-04-03T15:08:40.022Z</time></trkpt><trkpt lat="43.4842625" lon="11.4184327"><ele>549.0</ele><time>2026-04-03T15:08:41.015Z</time></trkpt><trkpt lat="43.4842505" lon="11.4182446"><ele>549.0</ele><time>2026-04-03T15:08:42.025Z</time></trkpt><trkpt lat="43.4842393" lon="11.4180742"><ele>549.0</ele><time>2026-04-03T15:08:43.009Z</time></trkpt><trkpt lat="43.484229" lon="11.4179204"><ele>549.0</ele><time>2026-04-03T15:08:44.026Z</time></trkpt><trkpt lat="43.4842239" lon="11.417787"><ele>549.0</ele><time>2026-04-03T15:08:45.021Z</time></trkpt><trkpt lat="43.4842165" lon="11.4176613"><ele>549.0</ele><time>2026-04-03T15:08:46.019Z</time></trkpt><trkpt lat="43.4842049" lon="11.4175373"><ele>548.8</ele><time>2026-04-03T15:08:47.015Z</time></trkpt><trkpt lat="43.4841801" lon="11.4174263"><ele>548.5999999999999</ele><time>2026-04-03T15:08:48.032Z</time></trkpt><trkpt lat="43.4841458" lon="11.4173116"><ele>548.4</ele><time>2026-04-03T15:08:49.01Z</time></trkpt><trkpt lat="43.484107" lon="11.4172004"><ele>548.1999999999999</ele><time>2026-04-03T15:08:50.014Z</time></trkpt><trkpt lat="43.4840703" lon="11.4170908"><ele>548.0</ele><time>2026-04-03T15:08:51.014Z</time></trkpt><trkpt lat="43.4840254" lon="11.4169656"><ele>547.8</ele><time>2026-04-03T15:08:52.012Z</time></trkpt><trkpt lat="43.483973" lon="11.4168325"><ele>547.5999999999999</ele><time>2026-04-03T15:08:53.01Z</time></trkpt><trkpt lat="43.4839184" lon="11.4166984"><ele>547.4000000000001</ele><time>2026-04-03T15:08:54.015Z</time></trkpt><trkpt lat="43.4838626" lon="11.4165702"><ele>547.2</ele><time>2026-04-03T15:08:55.011Z</time></trkpt><trkpt lat="43.4837989" lon="11.4164463"><ele>547.0</ele><time>2026-04-03T15:08:56.004Z</time></trkpt><trkpt lat="43.4837303" lon="11.4163219"><ele>549.6</ele><time>2026-04-03T15:08:57.009Z</time></trkpt><trkpt lat="43.4836607" lon="11.4161955"><ele>552.2</ele><time>2026-04-03T15:08:58.015Z</time></trkpt><trkpt lat="43.48359" lon="11.4160644"><ele>554.8</ele><time>2026-04-03T15:08:59.01Z</time></trkpt><trkpt lat="43.4835288" lon="11.4159468"><ele>557.4</ele><time>2026-04-03T15:09:00.008Z</time></trkpt><trkpt lat="43.4834693" lon="11.415849"><ele>560.0</ele><time>2026-04-03T15:09:01.017Z</time></trkpt><trkpt lat="43.4834094" lon="11.415775"><ele>560.0</ele><time>2026-04-03T15:09:02.004Z</time></trkpt><trkpt lat="43.4833358" lon="11.4156977"><ele>560.0</ele><time>2026-04-03T15:09:03.006Z</time></trkpt><trkpt lat="43.483254" lon="11.415611"><ele>560.0</ele><time>2026-04-03T15:09:04.017Z</time></trkpt><trkpt lat="43.4831704" lon="11.4155221"><ele>560.0</ele><time>2026-04-03T15:09:05.015Z</time></trkpt><trkpt lat="43.4830883" lon="11.4154428"><ele>560.0</ele><time>2026-04-03T15:09:06.019Z</time></trkpt><trkpt lat="43.4830019" lon="11.4153583"><ele>561.75</ele><time>2026-04-03T15:09:07.017Z</time></trkpt><trkpt lat="43.4829159" lon="11.4152684"><ele>563.5</ele><time>2026-04-03T15:09:08.021Z</time></trkpt><trkpt lat="43.4828287" lon="11.4151748"><ele>565.25</ele><time>2026-04-03T15:09:09.03Z</time></trkpt><trkpt lat="43.4827388" lon="11.4150834"><ele>567.0</ele><time>2026-04-03T15:09:10.002Z</time></trkpt><trkpt lat="43.4826396" lon="11.4149916"><ele>567.0</ele><time>2026-04-03T15:09:11.005Z</time></trkpt><trkpt lat="43.4825333" lon="11.4149013"><ele>567.0</ele><time>2026-04-03T15:09:12.027Z</time></trkpt><trkpt lat="43.4824253" lon="11.4148049"><ele>567.0</ele><time>2026-04-03T15:09:13.008Z</time></trkpt><trkpt lat="43.4823204" lon="11.4147074"><ele>567.0</ele><time>2026-04-03T15:09:14.005Z</time></trkpt><trkpt lat="43.4822224" lon="11.4146137"><ele>568.0</ele><time>2026-04-03T15:09:15Z</time></trkpt><trkpt lat="43.4821289" lon="11.4145275"><ele>569.0</ele><time>2026-04-03T15:09:16.016Z</time></trkpt><trkpt lat="43.4820686" lon="11.4144558"><ele>570.0</ele><time>2026-04-03T15:09:17.01Z</time></trkpt><trkpt lat="43.482029" lon="11.4143809"><ele>571.0</ele><time>2026-04-03T15:09:18.012Z</time></trkpt><trkpt lat="43.4819967" lon="11.4142994"><ele>572.0</ele><time>2026-04-03T15:09:19.004Z</time></trkpt><trkpt lat="43.4819663" lon="11.4142126"><ele>573.0</ele><time>2026-04-03T15:09:20.016Z</time></trkpt><trkpt lat="43.4819444" lon="11.414111"><ele>573.0</ele><time>2026-04-03T15:09:21.013Z</time></trkpt><trkpt lat="43.4819275" lon="11.4139951"><ele>573.0</ele><time>2026-04-03T15:09:22.018Z</time></trkpt><trkpt lat="43.4819107" lon="11.4138779"><ele>573.0</ele><time>2026-04-03T15:09:23.018Z</time></trkpt><trkpt lat="43.4819017" lon="11.4137661"><ele>573.0</ele><time>2026-04-03T15:09:24.012Z</time></trkpt><trkpt lat="43.4818959" lon="11.4136513"><ele>573.0</ele><time>2026-04-03T15:09:25.007Z</time></trkpt><trkpt lat="43.4818907" lon="11.4135304"><ele>573.0</ele><time>2026-04-03T15:09:26.017Z</time></trkpt><trkpt lat="43.4818777" lon="11.4134025"><ele>574.6</ele><time>2026-04-03T15:09:27.016Z</time></trkpt><trkpt lat="43.481864" lon="11.413278"><ele>576.1999999999999</ele><time>2026-04-03T15:09:28.015Z</time></trkpt><trkpt lat="43.4818429" lon="11.413147"><ele>577.8</ele><time>2026-04-03T15:09:29.016Z</time></trkpt><trkpt lat="43.4818164" lon="11.4130023"><ele>579.4</ele><time>2026-04-03T15:09:30.006Z</time></trkpt><trkpt lat="43.4817857" lon="11.412846"><ele>581.0</ele><time>2026-04-03T15:09:31.009Z</time></trkpt><trkpt lat="43.4817653" lon="11.4126808"><ele>581.4</ele><time>2026-04-03T15:09:32.008Z</time></trkpt><trkpt lat="43.4817514" lon="11.4125152"><ele>581.8</ele><time>2026-04-03T15:09:33.013Z</time></trkpt><trkpt lat="43.4817396" lon="11.4123611"><ele>582.1999999999999</ele><time>2026-04-03T15:09:34.02Z</time></trkpt><trkpt lat="43.481727" lon="11.412225"><ele>582.6</ele><time>2026-04-03T15:09:35.011Z</time></trkpt><trkpt lat="43.4817092" lon="11.4120909"><ele>583.0</ele><time>2026-04-03T15:09:36.01Z</time></trkpt><trkpt lat="43.4816833" lon="11.4119607"><ele>583.0</ele><time>2026-04-03T15:09:37.008Z</time></trkpt><trkpt lat="43.481639" lon="11.4118198"><ele>583.0</ele><time>2026-04-03T15:09:38.025Z</time></trkpt><trkpt lat="43.4815811" lon="11.4116712"><ele>583.0</ele><time>2026-04-03T15:09:38.983Z</time></trkpt><trkpt lat="43.4815279" lon="11.4114978"><ele>583.0</ele><time>2026-04-03T15:09:40.023Z</time></trkpt><trkpt lat="43.4814871" lon="11.4113234"><ele>582.0</ele><time>2026-04-03T15:09:41.007Z</time></trkpt><trkpt lat="43.4814518" lon="11.4111371"><ele>581.0</ele><time>2026-04-03T15:09:42.013Z</time></trkpt><trkpt lat="43.4814287" lon="11.4109575"><ele>580.0</ele><time>2026-04-03T15:09:43.006Z</time></trkpt><trkpt lat="43.4814135" lon="11.4107606"><ele>579.0</ele><time>2026-04-03T15:09:44.024Z</time></trkpt><trkpt lat="43.4814165" lon="11.4105813"><ele>580.0</ele><time>2026-04-03T15:09:45.008Z</time></trkpt><trkpt lat="43.4814282" lon="11.410398"><ele>581.0</ele><time>2026-04-03T15:09:46.021Z</time></trkpt><trkpt lat="43.4814464" lon="11.4102125"><ele>582.0</ele><time>2026-04-03T15:09:47.003Z</time></trkpt><trkpt lat="43.4814683" lon="11.4100322"><ele>583.0</ele><time>2026-04-03T15:09:48.031Z</time></trkpt><trkpt lat="43.481502" lon="11.4098476"><ele>583.0</ele><time>2026-04-03T15:09:49.01Z</time></trkpt><trkpt lat="43.4815444" lon="11.409663"><ele>583.0</ele><time>2026-04-03T15:09:50.022Z</time></trkpt><trkpt lat="43.481592" lon="11.4094729"><ele>583.0</ele><time>2026-04-03T15:09:51.01Z</time></trkpt><trkpt lat="43.4816427" lon="11.4093021"><ele>583.0</ele><time>2026-04-03T15:09:52.03Z</time></trkpt><trkpt lat="43.4816843" lon="11.4091463"><ele>583.1999999999999</ele><time>2026-04-03T15:09:53.014Z</time></trkpt><trkpt lat="43.4817215" lon="11.4090044"><ele>583.4</ele><time>2026-04-03T15:09:54.033Z</time></trkpt><trkpt lat="43.4817664" lon="11.4088666"><ele>583.5999999999999</ele><time>2026-04-03T15:09:55.015Z</time></trkpt><trkpt lat="43.4818137" lon="11.4087346"><ele>583.8</ele><time>2026-04-03T15:09:56.016Z</time></trkpt><trkpt lat="43.4818613" lon="11.408614"><ele>584.0</ele><time>2026-04-03T15:09:57.022Z</time></trkpt><trkpt lat="43.4819092" lon="11.4085105"><ele>582.8571428571429</ele><time>2026-04-03T15:09:58.027Z</time></trkpt><trkpt lat="43.4819542" lon="11.4084239"><ele>581.7142857142858</ele><time>2026-04-03T15:09:58.995Z</time></trkpt><trkpt lat="43.4819953" lon="11.4083455"><ele>580.5714285714287</ele><time>2026-04-03T15:10:00.024Z</time></trkpt><trkpt lat="43.4820435" lon="11.4082747"><ele>579.4285714285714</ele><time>2026-04-03T15:10:00.989Z</time></trkpt><trkpt lat="43.4820973" lon="11.4082089"><ele>578.2857142857143</ele><time>2026-04-03T15:10:02.023Z</time></trkpt><trkpt lat="43.4821467" lon="11.4081467"><ele>577.1428571428572</ele><time>2026-04-03T15:10:03.018Z</time></trkpt><trkpt lat="43.4821937" lon="11.4080866"><ele>576.0</ele><time>2026-04-03T15:10:04.008Z</time></trkpt><trkpt lat="43.4822418" lon="11.4080184"><ele>574.7142857142858</ele><time>2026-04-03T15:10:05.014Z</time></trkpt><trkpt lat="43.4822899" lon="11.4079374"><ele>573.4285714285714</ele><time>2026-04-03T15:10:06.032Z</time></trkpt><trkpt lat="43.4823242" lon="11.4078563"><ele>572.1428571428571</ele><time>2026-04-03T15:10:07.004Z</time></trkpt><trkpt lat="43.4823597" lon="11.40777"><ele>570.8571428571429</ele><time>2026-04-03T15:10:08.018Z</time></trkpt><trkpt lat="43.4823954" lon="11.4076841"><ele>569.5714285714286</ele><time>2026-04-03T15:10:09.019Z</time></trkpt><trkpt lat="43.4824222" lon="11.4075981"><ele>568.2857142857143</ele><time>2026-04-03T15:10:10.012Z</time></trkpt><trkpt lat="43.4824487" lon="11.4075014"><ele>567.0</ele><time>2026-04-03T15:10:11.016Z</time></trkpt><trkpt lat="43.482471" lon="11.4074002"><ele>567.0</ele><time>2026-04-03T15:10:12.012Z</time></trkpt><trkpt lat="43.4824964" lon="11.4072976"><ele>567.0</ele><time>2026-04-03T15:10:13.005Z</time></trkpt><trkpt lat="43.4825224" lon="11.4071952"><ele>567.0</ele><time>2026-04-03T15:10:14.005Z</time></trkpt><trkpt lat="43.4825567" lon="11.4071016"><ele>567.0</ele><time>2026-04-03T15:10:15.007Z</time></trkpt><trkpt lat="43.4825889" lon="11.407022"><ele>567.0</ele><time>2026-04-03T15:10:16.012Z</time></trkpt><trkpt lat="43.4826722" lon="11.4069155"><ele>567.0</ele><time>2026-04-03T15:10:18.007Z</time></trkpt><trkpt lat="43.4827641" lon="11.4068233"><ele>566.4</ele><time>2026-04-03T15:10:20.015Z</time></trkpt><trkpt lat="43.4828231" lon="11.4067124"><ele>565.8000000000001</ele><time>2026-04-03T15:10:22.011Z</time></trkpt><trkpt lat="43.4828234" lon="11.4065549"><ele>565.2</ele><time>2026-04-03T15:10:24.007Z</time></trkpt><trkpt lat="43.4828118" lon="11.4064382"><ele>564.6</ele><time>2026-04-03T15:10:25.014Z</time></trkpt><trkpt lat="43.4827936" lon="11.4063025"><ele>564.0</ele><time>2026-04-03T15:10:26.014Z</time></trkpt><trkpt lat="43.4827719" lon="11.4061629"><ele>562.6</ele><time>2026-04-03T15:10:27.005Z</time></trkpt><trkpt lat="43.4827457" lon="11.4060207"><ele>561.2</ele><time>2026-04-03T15:10:28.02Z</time></trkpt><trkpt lat="43.4827232" lon="11.405873"><ele>559.8000000000001</ele><time>2026-04-03T15:10:29.011Z</time></trkpt><trkpt lat="43.4827047" lon="11.4057296"><ele>558.4</ele><time>2026-04-03T15:10:30.022Z</time></trkpt><trkpt lat="43.4826908" lon="11.4055972"><ele>557.0</ele><time>2026-04-03T15:10:31.02Z</time></trkpt><trkpt lat="43.4826797" lon="11.4054887"><ele>553.5</ele><time>2026-04-03T15:10:32.019Z</time></trkpt><trkpt lat="43.4826496" lon="11.4053375"><ele>550.0</ele><time>2026-04-03T15:10:34.017Z</time></trkpt><trkpt lat="43.4825811" lon="11.4052037"><ele>546.5</ele><time>2026-04-03T15:10:36.02Z</time></trkpt><trkpt lat="43.4824933" lon="11.4051194"><ele>543.0</ele><time>2026-04-03T15:10:38.015Z</time></trkpt><trkpt lat="43.4823803" lon="11.4050456"><ele>543.0</ele><time>2026-04-03T15:10:40.001Z</time></trkpt><trkpt lat="43.4822744" lon="11.4049737"><ele>543.0</ele><time>2026-04-03T15:10:42.018Z</time></trkpt><trkpt lat="43.4822142" lon="11.4049313"><ele>543.0</ele><time>2026-04-03T15:10:43.001Z</time></trkpt><trkpt lat="43.4821512" lon="11.4048949"><ele>543.0</ele><time>2026-04-03T15:10:44.005Z</time></trkpt><trkpt lat="43.4820831" lon="11.4048754"><ele>543.0</ele><time>2026-04-03T15:10:45.025Z</time></trkpt><trkpt lat="43.4820095" lon="11.4048555"><ele>543.0</ele><time>2026-04-03T15:10:46.032Z</time></trkpt><trkpt lat="43.4819448" lon="11.4048185"><ele>543.3333333333334</ele><time>2026-04-03T15:10:47.011Z</time></trkpt><trkpt lat="43.4818832" lon="11.4047525"><ele>543.6666666666666</ele><time>2026-04-03T15:10:48.007Z</time></trkpt><trkpt lat="43.481812" lon="11.4046882"><ele>544.0</ele><time>2026-04-03T15:10:49.004Z</time></trkpt><trkpt lat="43.4817486" lon="11.4046356"><ele>544.3333333333333</ele><time>2026-04-03T15:10:50.004Z</time></trkpt><trkpt lat="43.4816835" lon="11.4045842"><ele>544.6666666666666</ele><time>2026-04-03T15:10:51.008Z</time></trkpt><trkpt lat="43.481609" lon="11.4045256"><ele>545.0</ele><time>2026-04-03T15:10:52.021Z</time></trkpt><trkpt lat="43.4815387" lon="11.4044693"><ele>542.1428571428571</ele><time>2026-04-03T15:10:53.008Z</time></trkpt><trkpt lat="43.4814701" lon="11.4044064"><ele>539.2857142857143</ele><time>2026-04-03T15:10:54.012Z</time></trkpt><trkpt lat="43.4814018" lon="11.4043425"><ele>536.4285714285714</ele><time>2026-04-03T15:10:55Z</time></trkpt><trkpt lat="43.4813431" lon="11.4042982"><ele>533.5714285714286</ele><time>2026-04-03T15:10:56.014Z</time></trkpt><trkpt lat="43.481286" lon="11.4042591"><ele>530.7142857142858</ele><time>2026-04-03T15:10:57.014Z</time></trkpt><trkpt lat="43.4812261" lon="11.4042155"><ele>527.8571428571429</ele><time>2026-04-03T15:10:58.019Z</time></trkpt><trkpt lat="43.4811621" lon="11.4041705"><ele>525.0</ele><time>2026-04-03T15:10:59.003Z</time></trkpt><trkpt lat="43.4810948" lon="11.4041176"><ele>524.6666666666666</ele><time>2026-04-03T15:11:00.03Z</time></trkpt><trkpt lat="43.4809846" lon="11.4040563"><ele>524.3333333333334</ele><time>2026-04-03T15:11:02.02Z</time></trkpt><trkpt lat="43.4809088" lon="11.4040149"><ele>524.0</ele><time>2026-04-03T15:11:04.009Z</time></trkpt><trkpt lat="43.4808767" lon="11.4039046"><ele>523.6666666666667</ele><time>2026-04-03T15:11:07.002Z</time></trkpt><trkpt lat="43.4808955" lon="11.4037935"><ele>523.3333333333334</ele><time>2026-04-03T15:11:08.998Z</time></trkpt><trkpt lat="43.4809262" lon="11.4037169"><ele>523.0</ele><time>2026-04-03T15:11:11.016Z</time></trkpt><trkpt lat="43.4809875" lon="11.4036874"><ele>522.0</ele><time>2026-04-03T15:11:13.002Z</time></trkpt><trkpt lat="43.4810682" lon="11.4037101"><ele>521.0</ele><time>2026-04-03T15:11:14.996Z</time></trkpt><trkpt lat="43.4811524" lon="11.4036716"><ele>520.0</ele><time>2026-04-03T15:11:18.016Z</time></trkpt><trkpt lat="43.4811334" lon="11.4035719"><ele>519.0</ele><time>2026-04-03T15:11:21.005Z</time></trkpt><trkpt lat="43.4810544" lon="11.4035325"><ele>518.0</ele><time>2026-04-03T15:11:24.023Z</time></trkpt><trkpt lat="43.4810303" lon="11.4034376"><ele>517.0</ele><time>2026-04-03T15:11:28.012Z</time></trkpt><trkpt lat="43.4810919" lon="11.4033656"><ele>517.0</ele><time>2026-04-03T15:11:32.016Z</time></trkpt><trkpt lat="43.4811575" lon="11.4033483"><ele>517.0</ele><time>2026-04-03T15:11:34.001Z</time></trkpt><trkpt lat="43.4812245" lon="11.4033244"><ele>517.0</ele><time>2026-04-03T15:11:36.014Z</time></trkpt><trkpt lat="43.4813063" lon="11.4032976"><ele>517.0</ele><time>2026-04-03T15:11:38.008Z</time></trkpt><trkpt lat="43.481398" lon="11.4032841"><ele>517.0</ele><time>2026-04-03T15:11:41.008Z</time></trkpt><trkpt lat="43.4814875" lon="11.403264"><ele>517.0</ele><time>2026-04-03T15:11:44.003Z</time></trkpt><trkpt lat="43.4815602" lon="11.4032331"><ele>516.0</ele><time>2026-04-03T15:11:46.01Z</time></trkpt><trkpt lat="43.4816736" lon="11.4032018"><ele>515.0</ele><time>2026-04-03T15:11:48.015Z</time></trkpt><trkpt lat="43.4817736" lon="11.4031843"><ele>514.0</ele><time>2026-04-03T15:11:50.02Z</time></trkpt><trkpt lat="43.4818522" lon="11.4031706"><ele>513.0</ele><time>2026-04-03T15:11:52.01Z</time></trkpt><trkpt lat="43.4819225" lon="11.4031573"><ele>512.0</ele><time>2026-04-03T15:11:54.016Z</time></trkpt><trkpt lat="43.4820055" lon="11.4031271"><ele>512.5</ele><time>2026-04-03T15:11:56.015Z</time></trkpt><trkpt lat="43.4821088" lon="11.4030927"><ele>513.0</ele><time>2026-04-03T15:11:58.006Z</time></trkpt><trkpt lat="43.4822193" lon="11.403048"><ele>513.5</ele><time>2026-04-03T15:12:00.006Z</time></trkpt><trkpt lat="43.4822809" lon="11.4030279"><ele>514.0</ele><time>2026-04-03T15:12:01.021Z</time></trkpt><trkpt lat="43.4823477" lon="11.4030091"><ele>514.5</ele><time>2026-04-03T15:12:02.015Z</time></trkpt><trkpt lat="43.4824197" lon="11.4029901"><ele>515.0</ele><time>2026-04-03T15:12:03.005Z</time></trkpt><trkpt lat="43.4824985" lon="11.4029805"><ele>511.4</ele><time>2026-04-03T15:12:04.023Z</time></trkpt><trkpt lat="43.4825885" lon="11.4029671"><ele>507.8</ele><time>2026-04-03T15:12:05.001Z</time></trkpt><trkpt lat="43.4826783" lon="11.4029526"><ele>504.20000000000005</ele><time>2026-04-03T15:12:06.02Z</time></trkpt><trkpt lat="43.4827681" lon="11.4029329"><ele>500.6</ele><time>2026-04-03T15:12:07.008Z</time></trkpt><trkpt lat="43.4828603" lon="11.4029132"><ele>497.0</ele><time>2026-04-03T15:12:08.026Z</time></trkpt><trkpt lat="43.4829521" lon="11.4028881"><ele>496.20000000000005</ele><time>2026-04-03T15:12:09.012Z</time></trkpt><trkpt lat="43.4830506" lon="11.4028606"><ele>495.40000000000003</ele><time>2026-04-03T15:12:10.023Z</time></trkpt><trkpt lat="43.4831481" lon="11.4028357"><ele>494.59999999999997</ele><time>2026-04-03T15:12:11.01Z</time></trkpt><trkpt lat="43.4832393" lon="11.4028149"><ele>493.79999999999995</ele><time>2026-04-03T15:12:12.013Z</time></trkpt><trkpt lat="43.4833205" lon="11.4028038"><ele>493.0</ele><time>2026-04-03T15:12:13.005Z</time></trkpt><trkpt lat="43.4833986" lon="11.4027971"><ele>493.0</ele><time>2026-04-03T15:12:14.023Z</time></trkpt><trkpt lat="43.4834688" lon="11.4027973"><ele>493.0</ele><time>2026-04-03T15:12:15.012Z</time></trkpt><trkpt lat="43.4835346" lon="11.4028246"><ele>493.0</ele><time>2026-04-03T15:12:16.006Z</time></trkpt><trkpt lat="43.4835984" lon="11.4028713"><ele>493.0</ele><time>2026-04-03T15:12:17.008Z</time></trkpt><trkpt lat="43.483656" lon="11.4029313"><ele>493.0</ele><time>2026-04-03T15:12:18.015Z</time></trkpt><trkpt lat="43.4837044" lon="11.4030054"><ele>493.0</ele><time>2026-04-03T15:12:19.002Z</time></trkpt><trkpt lat="43.4837582" lon="11.4030925"><ele>493.0</ele><time>2026-04-03T15:12:20.018Z</time></trkpt><trkpt lat="43.4838148" lon="11.4032"><ele>492.33333333333337</ele><time>2026-04-03T15:12:21.012Z</time></trkpt><trkpt lat="43.4838735" lon="11.4033099"><ele>491.6666666666667</ele><time>2026-04-03T15:12:22.013Z</time></trkpt><trkpt lat="43.4839327" lon="11.403408"><ele>491.0</ele><time>2026-04-03T15:12:23.006Z</time></trkpt><trkpt lat="43.483993" lon="11.4034921"><ele>490.33333333333337</ele><time>2026-04-03T15:12:24.019Z</time></trkpt><trkpt lat="43.4840504" lon="11.4035702"><ele>489.6666666666667</ele><time>2026-04-03T15:12:25.019Z</time></trkpt><trkpt lat="43.4841062" lon="11.4036472"><ele>489.0</ele><time>2026-04-03T15:12:26.023Z</time></trkpt><trkpt lat="43.4841538" lon="11.4037311"><ele>489.0</ele><time>2026-04-03T15:12:27.009Z</time></trkpt><trkpt lat="43.4841967" lon="11.4038085"><ele>489.0</ele><time>2026-04-03T15:12:28.026Z</time></trkpt><trkpt lat="43.4842397" lon="11.4038873"><ele>489.0</ele><time>2026-04-03T15:12:29.007Z</time></trkpt><trkpt lat="43.4842899" lon="11.4040434"><ele>489.0</ele><time>2026-04-03T15:12:31.013Z</time></trkpt><trkpt lat="43.4843077" lon="11.4041284"><ele>489.0</ele><time>2026-04-03T15:12:32.021Z</time></trkpt><trkpt lat="43.4843309" lon="11.4042206"><ele>489.0</ele><time>2026-04-03T15:12:33.006Z</time></trkpt><trkpt lat="43.4843658" lon="11.4043072"><ele>490.3333333333333</ele><time>2026-04-03T15:12:34.016Z</time></trkpt><trkpt lat="43.4843918" lon="11.4043911"><ele>491.66666666666663</ele><time>2026-04-03T15:12:35.003Z</time></trkpt><trkpt lat="43.4844275" lon="11.4044771"><ele>493.0</ele><time>2026-04-03T15:12:36.016Z</time></trkpt><trkpt lat="43.4844759" lon="11.4045542"><ele>494.3333333333333</ele><time>2026-04-03T15:12:37.01Z</time></trkpt><trkpt lat="43.4845342" lon="11.4046257"><ele>495.66666666666663</ele><time>2026-04-03T15:12:38.019Z</time></trkpt><trkpt lat="43.4845965" lon="11.4047098"><ele>497.0</ele><time>2026-04-03T15:12:38.998Z</time></trkpt><trkpt lat="43.4846503" lon="11.4048027"><ele>493.49999999999994</ele><time>2026-04-03T15:12:40.015Z</time></trkpt><trkpt lat="43.4847084" lon="11.4048942"><ele>490.0</ele><time>2026-04-03T15:12:41.01Z</time></trkpt><trkpt lat="43.4847574" lon="11.4049892"><ele>486.5</ele><time>2026-04-03T15:12:42.012Z</time></trkpt><trkpt lat="43.4848056" lon="11.4050748"><ele>483.0</ele><time>2026-04-03T15:12:43.024Z</time></trkpt><trkpt lat="43.484852" lon="11.4051618"><ele>479.49999999999994</ele><time>2026-04-03T15:12:44.009Z</time></trkpt><trkpt lat="43.4848965" lon="11.4052523"><ele>476.0</ele><time>2026-04-03T15:12:45.004Z</time></trkpt><trkpt lat="43.4849342" lon="11.4053388"><ele>476.0</ele><time>2026-04-03T15:12:46.017Z</time></trkpt><trkpt lat="43.4849565" lon="11.4054322"><ele>476.0</ele><time>2026-04-03T15:12:47.003Z</time></trkpt><trkpt lat="43.4849718" lon="11.405529"><ele>476.0</ele><time>2026-04-03T15:12:48.017Z</time></trkpt><trkpt lat="43.4849809" lon="11.4056272"><ele>476.0</ele><time>2026-04-03T15:12:48.999Z</time></trkpt><trkpt lat="43.484984" lon="11.4057285"><ele>476.0</ele><time>2026-04-03T15:12:50.019Z</time></trkpt><trkpt lat="43.4849871" lon="11.4058363"><ele>476.0</ele><time>2026-04-03T15:12:51.002Z</time></trkpt><trkpt lat="43.4849979" lon="11.4059415"><ele>476.0</ele><time>2026-04-03T15:12:52.014Z</time></trkpt><trkpt lat="43.4850241" lon="11.4060355"><ele>476.66666666666663</ele><time>2026-04-03T15:12:53.016Z</time></trkpt><trkpt lat="43.4850631" lon="11.406128"><ele>477.3333333333333</ele><time>2026-04-03T15:12:54.014Z</time></trkpt><trkpt lat="43.4851072" lon="11.4062152"><ele>478.0</ele><time>2026-04-03T15:12:55.006Z</time></trkpt><trkpt lat="43.4851504" lon="11.4062953"><ele>478.66666666666663</ele><time>2026-04-03T15:12:56.015Z</time></trkpt><trkpt lat="43.4851892" lon="11.4063802"><ele>479.3333333333333</ele><time>2026-04-03T15:12:57.008Z</time></trkpt><trkpt lat="43.4852258" lon="11.4064793"><ele>480.0</ele><time>2026-04-03T15:12:58.013Z</time></trkpt><trkpt lat="43.4852554" lon="11.4065925"><ele>480.8333333333333</ele><time>2026-04-03T15:12:58.994Z</time></trkpt><trkpt lat="43.485266" lon="11.4067098"><ele>481.66666666666663</ele><time>2026-04-03T15:13:00.016Z</time></trkpt><trkpt lat="43.4852681" lon="11.4068159"><ele>482.5</ele><time>2026-04-03T15:13:01.002Z</time></trkpt><trkpt lat="43.4852727" lon="11.4069101"><ele>483.3333333333333</ele><time>2026-04-03T15:13:02.022Z</time></trkpt><trkpt lat="43.4853271" lon="11.4070459"><ele>484.16666666666663</ele><time>2026-04-03T15:13:04.034Z</time></trkpt><trkpt lat="43.4853961" lon="11.4070717"><ele>485.0</ele><time>2026-04-03T15:13:05.007Z</time></trkpt><trkpt lat="43.4854652" lon="11.4070889"><ele>483.49999999999994</ele><time>2026-04-03T15:13:06.012Z</time></trkpt><trkpt lat="43.4855369" lon="11.4070987"><ele>482.0</ele><time>2026-04-03T15:13:06.997Z</time></trkpt><trkpt lat="43.4856114" lon="11.4071263"><ele>480.5</ele><time>2026-04-03T15:13:08.013Z</time></trkpt><trkpt lat="43.4856762" lon="11.4071702"><ele>479.0</ele><time>2026-04-03T15:13:09.01Z</time></trkpt><trkpt lat="43.485746" lon="11.407331"><ele>477.49999999999994</ele><time>2026-04-03T15:13:10.997Z</time></trkpt><trkpt lat="43.4857576" lon="11.4074428"><ele>476.0</ele><time>2026-04-03T15:13:12.012Z</time></trkpt><trkpt lat="43.4857646" lon="11.4075498"><ele>475.99999999999994</ele><time>2026-04-03T15:13:13.003Z</time></trkpt><trkpt lat="43.4857877" lon="11.4076507"><ele>476.0</ele><time>2026-04-03T15:13:13.992Z</time></trkpt><trkpt lat="43.4858208" lon="11.4077374"><ele>476.0</ele><time>2026-04-03T15:13:14.999Z</time></trkpt><trkpt lat="43.4858531" lon="11.4078161"><ele>476.0</ele><time>2026-04-03T15:13:16Z</time></trkpt><trkpt lat="43.4859263" lon="11.40796"><ele>475.99999999999994</ele><time>2026-04-03T15:13:18.011Z</time></trkpt><trkpt lat="43.4859722" lon="11.4080451"><ele>476.0</ele><time>2026-04-03T15:13:19.005Z</time></trkpt><trkpt lat="43.4860086" lon="11.4081263"><ele>476.42857142857144</ele><time>2026-04-03T15:13:20.013Z</time></trkpt><trkpt lat="43.4860415" lon="11.4082193"><ele>476.8571428571429</ele><time>2026-04-03T15:13:21.012Z</time></trkpt><trkpt lat="43.4860632" lon="11.4083149"><ele>477.2857142857143</ele><time>2026-04-03T15:13:22.016Z</time></trkpt><trkpt lat="43.4860785" lon="11.4084112"><ele>477.7142857142857</ele><time>2026-04-03T15:13:23.014Z</time></trkpt><trkpt lat="43.486087" lon="11.4085115"><ele>478.14285714285717</ele><time>2026-04-03T15:13:24.012Z</time></trkpt><trkpt lat="43.4860989" lon="11.4086136"><ele>478.57142857142856</ele><time>2026-04-03T15:13:25.003Z</time></trkpt><trkpt lat="43.4861259" lon="11.4087062"><ele>479.0</ele><time>2026-04-03T15:13:26.012Z</time></trkpt><trkpt lat="43.4861611" lon="11.4087817"><ele>478.99999999999994</ele><time>2026-04-03T15:13:26.998Z</time></trkpt><trkpt lat="43.4862491" lon="11.4088595"><ele>479.0</ele><time>2026-04-03T15:13:29.004Z</time></trkpt><trkpt lat="43.4863331" lon="11.4088008"><ele>479.0</ele><time>2026-04-03T15:13:30.995Z</time></trkpt><trkpt lat="43.486344" lon="11.4086635"><ele>479.0</ele><time>2026-04-03T15:13:33.009Z</time></trkpt><trkpt lat="43.4863345" lon="11.4085698"><ele>478.99999999999994</ele><time>2026-04-03T15:13:34.016Z</time></trkpt><trkpt lat="43.4863291" lon="11.408461"><ele>479.0</ele><time>2026-04-03T15:13:35.007Z</time></trkpt><trkpt lat="43.4863367" lon="11.408343"><ele>479.79999999999995</ele><time>2026-04-03T15:13:36.031Z</time></trkpt><trkpt lat="43.4863488" lon="11.4082162"><ele>480.59999999999997</ele><time>2026-04-03T15:13:37Z</time></trkpt><trkpt lat="43.4863629" lon="11.4080834"><ele>481.4</ele><time>2026-04-03T15:13:38.008Z</time></trkpt><trkpt lat="43.4863816" lon="11.4079472"><ele>482.2</ele><time>2026-04-03T15:13:39.007Z</time></trkpt><trkpt lat="43.4864098" lon="11.4078108"><ele>483.0</ele><time>2026-04-03T15:13:39.996Z</time></trkpt><trkpt lat="43.4864492" lon="11.407692"><ele>483.0</ele><time>2026-04-03T15:13:41.004Z</time></trkpt><trkpt lat="43.4864976" lon="11.407581"><ele>483.0</ele><time>2026-04-03T15:13:42.034Z</time></trkpt><trkpt lat="43.4865569" lon="11.407485"><ele>483.0</ele><time>2026-04-03T15:13:43.005Z</time></trkpt><trkpt lat="43.4866205" lon="11.407395"><ele>483.0</ele><time>2026-04-03T15:13:44.018Z</time></trkpt><trkpt lat="43.4866691" lon="11.4073096"><ele>483.0</ele><time>2026-04-03T15:13:45.011Z</time></trkpt><trkpt lat="43.4867109" lon="11.4072196"><ele>483.0</ele><time>2026-04-03T15:13:46.011Z</time></trkpt><trkpt lat="43.4867289" lon="11.4071212"><ele>483.0</ele><time>2026-04-03T15:13:47.02Z</time></trkpt><trkpt lat="43.48671" lon="11.4070351"><ele>483.0</ele><time>2026-04-03T15:13:48.022Z</time></trkpt><trkpt lat="43.4866532" lon="11.4069478"><ele>483.0</ele><time>2026-04-03T15:13:49.017Z</time></trkpt><trkpt lat="43.4865941" lon="11.4068516"><ele>483.0</ele><time>2026-04-03T15:13:50.012Z</time></trkpt><trkpt lat="43.4865426" lon="11.4067461"><ele>483.0</ele><time>2026-04-03T15:13:50.999Z</time></trkpt><trkpt lat="43.4865059" lon="11.4066285"><ele>483.0</ele><time>2026-04-03T15:13:52.011Z</time></trkpt><trkpt lat="43.4864748" lon="11.4065009"><ele>483.0</ele><time>2026-04-03T15:13:53.012Z</time></trkpt><trkpt lat="43.4864513" lon="11.4063602"><ele>482.99999999999994</ele><time>2026-04-03T15:13:54.013Z</time></trkpt><trkpt lat="43.4864375" lon="11.4062174"><ele>482.99999999999994</ele><time>2026-04-03T15:13:55.016Z</time></trkpt><trkpt lat="43.4864351" lon="11.4060771"><ele>483.0</ele><time>2026-04-03T15:13:56.009Z</time></trkpt><trkpt lat="43.4864408" lon="11.4059475"><ele>483.0</ele><time>2026-04-03T15:13:57.013Z</time></trkpt><trkpt lat="43.4864472" lon="11.4058133"><ele>484.4</ele><time>2026-04-03T15:13:58.025Z</time></trkpt><trkpt lat="43.4864521" lon="11.4056905"><ele>485.79999999999995</ele><time>2026-04-03T15:13:59.003Z</time></trkpt><trkpt lat="43.4864605" lon="11.4055729"><ele>487.2</ele><time>2026-04-03T15:14:00.021Z</time></trkpt><trkpt lat="43.4864717" lon="11.4054483"><ele>488.6</ele><time>2026-04-03T15:14:01.003Z</time></trkpt><trkpt lat="43.4864776" lon="11.4053143"><ele>490.0</ele><time>2026-04-03T15:14:02.022Z</time></trkpt><trkpt lat="43.4864818" lon="11.4051782"><ele>490.6</ele><time>2026-04-03T15:14:03.004Z</time></trkpt><trkpt lat="43.486488" lon="11.4050397"><ele>491.2</ele><time>2026-04-03T15:14:04.026Z</time></trkpt><trkpt lat="43.4865041" lon="11.4049046"><ele>491.79999999999995</ele><time>2026-04-03T15:14:05Z</time></trkpt><trkpt lat="43.4865261" lon="11.4047671"><ele>492.4</ele><time>2026-04-03T15:14:06.019Z</time></trkpt><trkpt lat="43.4865517" lon="11.4046224"><ele>493.0</ele><time>2026-04-03T15:14:07.004Z</time></trkpt><trkpt lat="43.486583" lon="11.4044808"><ele>493.25</ele><time>2026-04-03T15:14:07.996Z</time></trkpt><trkpt lat="43.4866168" lon="11.4043345"><ele>493.5</ele><time>2026-04-03T15:14:08.989Z</time></trkpt><trkpt lat="43.4866646" lon="11.4041854"><ele>493.75</ele><time>2026-04-03T15:14:09.988Z</time></trkpt><trkpt lat="43.4867247" lon="11.4040337"><ele>494.0</ele><time>2026-04-03T15:14:10.998Z</time></trkpt><trkpt lat="43.4867743" lon="11.403875"><ele>494.6</ele><time>2026-04-03T15:14:12.018Z</time></trkpt><trkpt lat="43.4868019" lon="11.4037337"><ele>495.2</ele><time>2026-04-03T15:14:13.009Z</time></trkpt><trkpt lat="43.4867982" lon="11.4036117"><ele>495.80000000000007</ele><time>2026-04-03T15:14:14.018Z</time></trkpt><trkpt lat="43.4867823" lon="11.4034913"><ele>496.40000000000003</ele><time>2026-04-03T15:14:15Z</time></trkpt><trkpt lat="43.4867434" lon="11.4033596"><ele>497.0</ele><time>2026-04-03T15:14:16.019Z</time></trkpt><trkpt lat="43.4867069" lon="11.4032182"><ele>497.0</ele><time>2026-04-03T15:14:17.014Z</time></trkpt><trkpt lat="43.4866788" lon="11.4030627"><ele>497.00000000000006</ele><time>2026-04-03T15:14:18.006Z</time></trkpt><trkpt lat="43.4866644" lon="11.4029124"><ele>497.00000000000006</ele><time>2026-04-03T15:14:19.002Z</time></trkpt><trkpt lat="43.4866598" lon="11.402777"><ele>497.0</ele><time>2026-04-03T15:14:20.008Z</time></trkpt><trkpt lat="43.4866538" lon="11.4026406"><ele>497.0</ele><time>2026-04-03T15:14:21.018Z</time></trkpt><trkpt lat="43.4866601" lon="11.4025122"><ele>497.20000000000005</ele><time>2026-04-03T15:14:22.021Z</time></trkpt><trkpt lat="43.4866683" lon="11.4023921"><ele>497.40000000000003</ele><time>2026-04-03T15:14:23.017Z</time></trkpt><trkpt lat="43.4866898" lon="11.4022677"><ele>497.59999999999997</ele><time>2026-04-03T15:14:24.03Z</time></trkpt><trkpt lat="43.4867149" lon="11.4021456"><ele>497.79999999999995</ele><time>2026-04-03T15:14:25.005Z</time></trkpt><trkpt lat="43.4867411" lon="11.4020252"><ele>498.0</ele><time>2026-04-03T15:14:26.013Z</time></trkpt><trkpt lat="43.4867845" lon="11.4019076"><ele>498.0</ele><time>2026-04-03T15:14:27.013Z</time></trkpt><trkpt lat="43.4868428" lon="11.4018054"><ele>497.99999999999994</ele><time>2026-04-03T15:14:28.015Z</time></trkpt><trkpt lat="43.4869107" lon="11.4017188"><ele>497.99999999999994</ele><time>2026-04-03T15:14:29.005Z</time></trkpt><trkpt lat="43.4869889" lon="11.4016372"><ele>498.0</ele><time>2026-04-03T15:14:30.004Z</time></trkpt><trkpt lat="43.4870699" lon="11.4015508"><ele>498.0</ele><time>2026-04-03T15:14:31.011Z</time></trkpt><trkpt lat="43.4871456" lon="11.4014606"><ele>499.4</ele><time>2026-04-03T15:14:32.001Z</time></trkpt><trkpt lat="43.4872148" lon="11.4013643"><ele>500.79999999999995</ele><time>2026-04-03T15:14:33.011Z</time></trkpt><trkpt lat="43.4872757" lon="11.4012461"><ele>502.2</ele><time>2026-04-03T15:14:34.007Z</time></trkpt><trkpt lat="43.4873334" lon="11.4011206"><ele>503.6</ele><time>2026-04-03T15:14:35.013Z</time></trkpt><trkpt lat="43.487381" lon="11.400998"><ele>505.0</ele><time>2026-04-03T15:14:36.007Z</time></trkpt><trkpt lat="43.4874117" lon="11.4008789"><ele>505.0</ele><time>2026-04-03T15:14:37.018Z</time></trkpt><trkpt lat="43.4874281" lon="11.4007534"><ele>505.0</ele><time>2026-04-03T15:14:38.014Z</time></trkpt><trkpt lat="43.4874341" lon="11.4006186"><ele>505.0</ele><time>2026-04-03T15:14:39.01Z</time></trkpt><trkpt lat="43.4874381" lon="11.4004828"><ele>505.0</ele><time>2026-04-03T15:14:40.01Z</time></trkpt><trkpt lat="43.4874391" lon="11.4003538"><ele>505.0</ele><time>2026-04-03T15:14:41.014Z</time></trkpt><trkpt lat="43.4874348" lon="11.4002336"><ele>505.33333333333337</ele><time>2026-04-03T15:14:42.006Z</time></trkpt><trkpt lat="43.4874344" lon="11.4001208"><ele>505.6666666666667</ele><time>2026-04-03T15:14:43.013Z</time></trkpt><trkpt lat="43.4874396" lon="11.4000216"><ele>506.0</ele><time>2026-04-03T15:14:44.021Z</time></trkpt><trkpt lat="43.4874373" lon="11.3998842"><ele>506.33333333333337</ele><time>2026-04-03T15:14:46.018Z</time></trkpt><trkpt lat="43.4874298" lon="11.3997873"><ele>506.6666666666667</ele><time>2026-04-03T15:14:49.02Z</time></trkpt><trkpt lat="43.4874194" lon="11.3996681"><ele>507.0</ele><time>2026-04-03T15:14:53.017Z</time></trkpt><trkpt lat="43.4873634" lon="11.3995286"><ele>507.0</ele><time>2026-04-03T15:14:55.008Z</time></trkpt><trkpt lat="43.4872939" lon="11.3994098"><ele>507.0</ele><time>2026-04-03T15:14:56.015Z</time></trkpt><trkpt lat="43.4872062" lon="11.3992741"><ele>507.0</ele><time>2026-04-03T15:14:57.009Z</time></trkpt><trkpt lat="43.4871309" lon="11.3991472"><ele>507.0</ele><time>2026-04-03T15:14:58.025Z</time></trkpt><trkpt lat="43.4870822" lon="11.3990307"><ele>506.8</ele><time>2026-04-03T15:14:59.009Z</time></trkpt><trkpt lat="43.4870457" lon="11.3989186"><ele>506.6</ele><time>2026-04-03T15:15:00.015Z</time></trkpt><trkpt lat="43.487023" lon="11.3988156"><ele>506.40000000000003</ele><time>2026-04-03T15:15:01.003Z</time></trkpt><trkpt lat="43.4870097" lon="11.3987017"><ele>506.20000000000005</ele><time>2026-04-03T15:15:02.008Z</time></trkpt><trkpt lat="43.4870037" lon="11.3985691"><ele>506.0</ele><time>2026-04-03T15:15:03.012Z</time></trkpt><trkpt lat="43.4870051" lon="11.398417"><ele>506.0</ele><time>2026-04-03T15:15:04.015Z</time></trkpt><trkpt lat="43.486987" lon="11.3982361"><ele>506.0</ele><time>2026-04-03T15:15:05.009Z</time></trkpt><trkpt lat="43.4869641" lon="11.3980563"><ele>506.0</ele><time>2026-04-03T15:15:06.01Z</time></trkpt><trkpt lat="43.4869469" lon="11.3978969"><ele>506.0</ele><time>2026-04-03T15:15:07.019Z</time></trkpt><trkpt lat="43.4869263" lon="11.397755"><ele>506.20000000000005</ele><time>2026-04-03T15:15:08.013Z</time></trkpt><trkpt lat="43.4869075" lon="11.3976112"><ele>506.40000000000003</ele><time>2026-04-03T15:15:09.003Z</time></trkpt><trkpt lat="43.4868998" lon="11.397466"><ele>506.6</ele><time>2026-04-03T15:15:10.009Z</time></trkpt><trkpt lat="43.4868859" lon="11.3973166"><ele>506.8</ele><time>2026-04-03T15:15:11.007Z</time></trkpt><trkpt lat="43.4868527" lon="11.3971646"><ele>507.0</ele><time>2026-04-03T15:15:12.017Z</time></trkpt><trkpt lat="43.4868012" lon="11.3970026"><ele>507.5</ele><time>2026-04-03T15:15:13.012Z</time></trkpt><trkpt lat="43.4867405" lon="11.3968282"><ele>508.0</ele><time>2026-04-03T15:15:14.009Z</time></trkpt><trkpt lat="43.4866745" lon="11.3966592"><ele>508.5</ele><time>2026-04-03T15:15:15.017Z</time></trkpt><trkpt lat="43.486613" lon="11.396511"><ele>509.0</ele><time>2026-04-03T15:15:16.023Z</time></trkpt><trkpt lat="43.4865689" lon="11.3964101"><ele>508.99999999999994</ele><time>2026-04-03T15:15:17.005Z</time></trkpt><trkpt lat="43.4865086" lon="11.3963138"><ele>509.0</ele><time>2026-04-03T15:15:19.005Z</time></trkpt><trkpt lat="43.4864609" lon="11.3962145"><ele>509.0</ele><time>2026-04-03T15:15:22.005Z</time></trkpt><trkpt lat="43.4864171" lon="11.3961098"><ele>509.0</ele><time>2026-04-03T15:15:25.009Z</time></trkpt><trkpt lat="43.4863666" lon="11.3960487"><ele>508.99999999999994</ele><time>2026-04-03T15:15:27.01Z</time></trkpt><trkpt lat="43.4862899" lon="11.3959649"><ele>509.0</ele><time>2026-04-03T15:15:29.011Z</time></trkpt><trkpt lat="43.4862082" lon="11.3958418"><ele>508.99999999999994</ele><time>2026-04-03T15:15:31.014Z</time></trkpt><trkpt lat="43.4861305" lon="11.3957569"><ele>509.0</ele><time>2026-04-03T15:15:33.005Z</time></trkpt><trkpt lat="43.4860631" lon="11.3956935"><ele>509.0</ele><time>2026-04-03T15:15:35.012Z</time></trkpt><trkpt lat="43.4860038" lon="11.3956241"><ele>509.0</ele><time>2026-04-03T15:15:37.014Z</time></trkpt><trkpt lat="43.4859401" lon="11.395555"><ele>508.99999999999994</ele><time>2026-04-03T15:15:39Z</time></trkpt><trkpt lat="43.4858721" lon="11.3954829"><ele>509.0</ele><time>2026-04-03T15:15:41.025Z</time></trkpt><trkpt lat="43.4858098" lon="11.3953963"><ele>508.6</ele><time>2026-04-03T15:15:43.004Z</time></trkpt><trkpt lat="43.4857534" lon="11.3953024"><ele>508.2</ele><time>2026-04-03T15:15:45.014Z</time></trkpt><trkpt lat="43.4857064" lon="11.3952047"><ele>507.80000000000007</ele><time>2026-04-03T15:15:47.011Z</time></trkpt><trkpt lat="43.485653" lon="11.3950898"><ele>507.40000000000003</ele><time>2026-04-03T15:15:49Z</time></trkpt><trkpt lat="43.4855819" lon="11.3949386"><ele>507.0</ele><time>2026-04-03T15:15:51.003Z</time></trkpt><trkpt lat="43.4855475" lon="11.3948513"><ele>507.0</ele><time>2026-04-03T15:15:52.023Z</time></trkpt><trkpt lat="43.4855153" lon="11.3947576"><ele>507.0</ele><time>2026-04-03T15:15:53.007Z</time></trkpt><trkpt lat="43.4854879" lon="11.3946639"><ele>507.0</ele><time>2026-04-03T15:15:54.014Z</time></trkpt><trkpt lat="43.4854626" lon="11.3945828"><ele>507.0</ele><time>2026-04-03T15:15:55.011Z</time></trkpt><trkpt lat="43.4854289" lon="11.3944468"><ele>507.0</ele><time>2026-04-03T15:15:57.016Z</time></trkpt><trkpt lat="43.4854189" lon="11.3943543"><ele>507.0</ele><time>2026-04-03T15:15:58.02Z</time></trkpt><trkpt lat="43.4854105" lon="11.394237"><ele>508.0</ele><time>2026-04-03T15:15:59.023Z</time></trkpt><trkpt lat="43.4854" lon="11.3941025"><ele>509.00000000000006</ele><time>2026-04-03T15:16:00.021Z</time></trkpt><trkpt lat="43.4853849" lon="11.3939606"><ele>510.00000000000006</ele><time>2026-04-03T15:16:01.021Z</time></trkpt><trkpt lat="43.4853692" lon="11.3938343"><ele>511.0</ele><time>2026-04-03T15:16:02.019Z</time></trkpt><trkpt lat="43.4853498" lon="11.3937482"><ele>512.0</ele><time>2026-04-03T15:16:03.011Z</time></trkpt><trkpt lat="43.4853569" lon="11.3939073"><ele>512.0</ele><time>2026-04-03T15:16:12.004Z</time></trkpt><trkpt lat="43.4853727" lon="11.3940484"><ele>512.0</ele><time>2026-04-03T15:16:13.005Z</time></trkpt><trkpt lat="43.4853769" lon="11.3942169"><ele>512.0</ele><time>2026-04-03T15:16:14Z</time></trkpt><trkpt lat="43.4853878" lon="11.3943753"><ele>512.0</ele><time>2026-04-03T15:16:15.004Z</time></trkpt><trkpt lat="43.4854009" lon="11.3945223"><ele>512.0</ele><time>2026-04-03T15:16:16.023Z</time></trkpt><trkpt lat="43.4854335" lon="11.3946566"><ele>511.0</ele><time>2026-04-03T15:16:17.01Z</time></trkpt><trkpt lat="43.4854659" lon="11.3947644"><ele>510.00000000000006</ele><time>2026-04-03T15:16:18.019Z</time></trkpt><trkpt lat="43.4854989" lon="11.3948435"><ele>509.00000000000006</ele><time>2026-04-03T15:16:19.007Z</time></trkpt><trkpt lat="43.4855713" lon="11.394993"><ele>508.0</ele><time>2026-04-03T15:16:21.008Z</time></trkpt><trkpt lat="43.485619" lon="11.3950902"><ele>507.0</ele><time>2026-04-03T15:16:22.014Z</time></trkpt><trkpt lat="43.485671" lon="11.3952006"><ele>507.0</ele><time>2026-04-03T15:16:23.008Z</time></trkpt><trkpt lat="43.485727" lon="11.3953212"><ele>507.00000000000006</ele><time>2026-04-03T15:16:24.019Z</time></trkpt><trkpt lat="43.48579" lon="11.3954317"><ele>507.00000000000006</ele><time>2026-04-03T15:16:25.013Z</time></trkpt><trkpt lat="43.4858606" lon="11.3955289"><ele>507.0</ele><time>2026-04-03T15:16:26.02Z</time></trkpt><trkpt lat="43.4859424" lon="11.3956206"><ele>507.0</ele><time>2026-04-03T15:16:27.013Z</time></trkpt><trkpt lat="43.4860314" lon="11.3957082"><ele>507.5</ele><time>2026-04-03T15:16:28.009Z</time></trkpt><trkpt lat="43.4861258" lon="11.3958018"><ele>508.0</ele><time>2026-04-03T15:16:29.01Z</time></trkpt><trkpt lat="43.4862082" lon="11.3959068"><ele>508.5</ele><time>2026-04-03T15:16:30.005Z</time></trkpt><trkpt lat="43.4862877" lon="11.396018"><ele>509.0</ele><time>2026-04-03T15:16:31.017Z</time></trkpt><trkpt lat="43.4863637" lon="11.396134"><ele>509.0</ele><time>2026-04-03T15:16:32.006Z</time></trkpt><trkpt lat="43.4864291" lon="11.3962506"><ele>509.0</ele><time>2026-04-03T15:16:33.009Z</time></trkpt><trkpt lat="43.4864857" lon="11.3963616"><ele>509.0</ele><time>2026-04-03T15:16:34.007Z</time></trkpt><trkpt lat="43.486534" lon="11.3964699"><ele>509.0</ele><time>2026-04-03T15:16:35.003Z</time></trkpt><trkpt lat="43.4865844" lon="11.3965831"><ele>509.0</ele><time>2026-04-03T15:16:36.014Z</time></trkpt><trkpt lat="43.4866341" lon="11.3967064"><ele>509.0</ele><time>2026-04-03T15:16:37.008Z</time></trkpt><trkpt lat="43.4866839" lon="11.3968348"><ele>509.0</ele><time>2026-04-03T15:16:38.004Z</time></trkpt><trkpt lat="43.4867355" lon="11.3969631"><ele>509.0</ele><time>2026-04-03T15:16:39.001Z</time></trkpt><trkpt lat="43.486785" lon="11.3970962"><ele>509.0</ele><time>2026-04-03T15:16:40.006Z</time></trkpt><trkpt lat="43.4868285" lon="11.3972277"><ele>509.0</ele><time>2026-04-03T15:16:41.025Z</time></trkpt><trkpt lat="43.4868591" lon="11.3973645"><ele>508.6</ele><time>2026-04-03T15:16:42.003Z</time></trkpt><trkpt lat="43.4868799" lon="11.3975093"><ele>508.2</ele><time>2026-04-03T15:16:43.016Z</time></trkpt><trkpt lat="43.4868965" lon="11.3976616"><ele>507.80000000000007</ele><time>2026-04-03T15:16:44.005Z</time></trkpt><trkpt lat="43.4869105" lon="11.3978158"><ele>507.40000000000003</ele><time>2026-04-03T15:16:45.014Z</time></trkpt><trkpt lat="43.4869265" lon="11.3979748"><ele>507.0</ele><time>2026-04-03T15:16:46.015Z</time></trkpt><trkpt lat="43.4869456" lon="11.3981384"><ele>506.8</ele><time>2026-04-03T15:16:46.992Z</time></trkpt><trkpt lat="43.4869602" lon="11.3983012"><ele>506.6</ele><time>2026-04-03T15:16:48.012Z</time></trkpt><trkpt lat="43.4869705" lon="11.3984512"><ele>506.40000000000003</ele><time>2026-04-03T15:16:49.005Z</time></trkpt><trkpt lat="43.4869748" lon="11.3985774"><ele>506.20000000000005</ele><time>2026-04-03T15:16:50.01Z</time></trkpt><trkpt lat="43.4869778" lon="11.3986752"><ele>506.0</ele><time>2026-04-03T15:16:51.004Z</time></trkpt><trkpt lat="43.4869866" lon="11.3987638"><ele>506.16666666666663</ele><time>2026-04-03T15:16:52.013Z</time></trkpt><trkpt lat="43.4870148" lon="11.3989143"><ele>506.3333333333333</ele><time>2026-04-03T15:16:54.013Z</time></trkpt><trkpt lat="43.4870441" lon="11.3990054"><ele>506.5</ele><time>2026-04-03T15:16:56.005Z</time></trkpt><trkpt lat="43.4870829" lon="11.3991192"><ele>506.66666666666663</ele><time>2026-04-03T15:16:59.004Z</time></trkpt><trkpt lat="43.4871349" lon="11.399213"><ele>506.8333333333333</ele><time>2026-04-03T15:17:01Z</time></trkpt><trkpt lat="43.4871923" lon="11.3992972"><ele>507.0</ele><time>2026-04-03T15:17:02.004Z</time></trkpt><trkpt lat="43.4872632" lon="11.3993933"><ele>507.0</ele><time>2026-04-03T15:17:03.012Z</time></trkpt><trkpt lat="43.4873293" lon="11.3994943"><ele>507.00000000000006</ele><time>2026-04-03T15:17:04.012Z</time></trkpt><trkpt lat="43.4873843" lon="11.3995832"><ele>507.00000000000006</ele><time>2026-04-03T15:17:05.009Z</time></trkpt><trkpt lat="43.4874287" lon="11.399676"><ele>507.0</ele><time>2026-04-03T15:17:07Z</time></trkpt><trkpt lat="43.4875211" lon="11.3997267"><ele>507.0</ele><time>2026-04-03T15:17:09.014Z</time></trkpt><trkpt lat="43.487611" lon="11.3997771"><ele>506.1666666666667</ele><time>2026-04-03T15:17:11.007Z</time></trkpt><trkpt lat="43.4876916" lon="11.3997883"><ele>505.33333333333337</ele><time>2026-04-03T15:17:20.005Z</time></trkpt><trkpt lat="43.4877646" lon="11.3997795"><ele>504.5</ele><time>2026-04-03T15:17:21.008Z</time></trkpt><trkpt lat="43.4878439" lon="11.399772"><ele>503.6666666666667</ele><time>2026-04-03T15:17:22.019Z</time></trkpt><trkpt lat="43.487923" lon="11.399771"><ele>502.83333333333337</ele><time>2026-04-03T15:17:23.002Z</time></trkpt><trkpt lat="43.4880119" lon="11.399762"><ele>502.0</ele><time>2026-04-03T15:17:24.016Z</time></trkpt><trkpt lat="43.4881084" lon="11.3997336"><ele>502.0</ele><time>2026-04-03T15:17:25.017Z</time></trkpt><trkpt lat="43.4882105" lon="11.3996875"><ele>502.0</ele><time>2026-04-03T15:17:26.008Z</time></trkpt><trkpt lat="43.4883096" lon="11.3996165"><ele>502.0</ele><time>2026-04-03T15:17:27.003Z</time></trkpt><trkpt lat="43.4884026" lon="11.3995192"><ele>502.0</ele><time>2026-04-03T15:17:28.012Z</time></trkpt><trkpt lat="43.4884815" lon="11.3993937"><ele>501.33333333333337</ele><time>2026-04-03T15:17:29.002Z</time></trkpt><trkpt lat="43.4885544" lon="11.3992328"><ele>500.66666666666663</ele><time>2026-04-03T15:17:30.013Z</time></trkpt><trkpt lat="43.4886313" lon="11.3990571"><ele>500.0</ele><time>2026-04-03T15:17:31.002Z</time></trkpt><trkpt lat="43.488725" lon="11.398856"><ele>494.66666666666663</ele><time>2026-04-03T15:17:32.004Z</time></trkpt><trkpt lat="43.4888301" lon="11.398647"><ele>489.33333333333337</ele><time>2026-04-03T15:17:33.007Z</time></trkpt><trkpt lat="43.4889368" lon="11.3984318"><ele>484.0</ele><time>2026-04-03T15:17:34.001Z</time></trkpt><trkpt lat="43.4890441" lon="11.3982095"><ele>486.0</ele><time>2026-04-03T15:17:35.012Z</time></trkpt><trkpt lat="43.4891514" lon="11.397989"><ele>488.0</ele><time>2026-04-03T15:17:36.017Z</time></trkpt><trkpt lat="43.489257" lon="11.3977813"><ele>490.0</ele><time>2026-04-03T15:17:37.007Z</time></trkpt><trkpt lat="43.4893544" lon="11.397579"><ele>490.0</ele><time>2026-04-03T15:17:38.005Z</time></trkpt><trkpt lat="43.4894493" lon="11.3973885"><ele>490.0</ele><time>2026-04-03T15:17:38.997Z</time></trkpt><trkpt lat="43.4895375" lon="11.397199"><ele>490.0</ele><time>2026-04-03T15:17:40.012Z</time></trkpt><trkpt lat="43.4896225" lon="11.397014"><ele>485.75</ele><time>2026-04-03T15:17:41.006Z</time></trkpt><trkpt lat="43.48971" lon="11.3968432"><ele>481.5</ele><time>2026-04-03T15:17:42.013Z</time></trkpt><trkpt lat="43.4898028" lon="11.396691"><ele>477.25</ele><time>2026-04-03T15:17:43.008Z</time></trkpt><trkpt lat="43.4899023" lon="11.3965613"><ele>473.0</ele><time>2026-04-03T15:17:44.012Z</time></trkpt><trkpt lat="43.489991" lon="11.3964301"><ele>473.0</ele><time>2026-04-03T15:17:45Z</time></trkpt><trkpt lat="43.490056" lon="11.396263"><ele>473.0</ele><time>2026-04-03T15:17:46.012Z</time></trkpt><trkpt lat="43.490099" lon="11.3960537"><ele>473.0</ele><time>2026-04-03T15:17:47.025Z</time></trkpt><trkpt lat="43.490127" lon="11.3958272"><ele>473.0</ele><time>2026-04-03T15:17:48Z</time></trkpt><trkpt lat="43.4901467" lon="11.3956"><ele>473.0</ele><time>2026-04-03T15:17:49.006Z</time></trkpt><trkpt lat="43.4901524" lon="11.3953887"><ele>473.0</ele><time>2026-04-03T15:17:50.014Z</time></trkpt><trkpt lat="43.4901474" lon="11.3951969"><ele>472.0</ele><time>2026-04-03T15:17:51.008Z</time></trkpt><trkpt lat="43.4901356" lon="11.395023"><ele>471.0</ele><time>2026-04-03T15:17:52.01Z</time></trkpt><trkpt lat="43.4901226" lon="11.3948595"><ele>470.0</ele><time>2026-04-03T15:17:53.009Z</time></trkpt><trkpt lat="43.4901122" lon="11.3946981"><ele>469.0</ele><time>2026-04-03T15:17:54.016Z</time></trkpt><trkpt lat="43.4901181" lon="11.3945405"><ele>467.75</ele><time>2026-04-03T15:17:55.012Z</time></trkpt><trkpt lat="43.4901415" lon="11.3943787"><ele>466.5</ele><time>2026-04-03T15:17:56.018Z</time></trkpt><trkpt lat="43.4901824" lon="11.3942211"><ele>465.25</ele><time>2026-04-03T15:17:57.005Z</time></trkpt><trkpt lat="43.4902449" lon="11.3940629"><ele>464.0</ele><time>2026-04-03T15:17:58.016Z</time></trkpt><trkpt lat="43.490314" lon="11.3939021"><ele>463.0</ele><time>2026-04-03T15:17:59.006Z</time></trkpt><trkpt lat="43.4903787" lon="11.3937338"><ele>462.0</ele><time>2026-04-03T15:18:00.004Z</time></trkpt><trkpt lat="43.4904238" lon="11.3935604"><ele>461.0</ele><time>2026-04-03T15:18:01.017Z</time></trkpt><trkpt lat="43.4904412" lon="11.3933911"><ele>460.0</ele><time>2026-04-03T15:18:02.007Z</time></trkpt><trkpt lat="43.4904324" lon="11.3932201"><ele>460.0</ele><time>2026-04-03T15:18:03.019Z</time></trkpt><trkpt lat="43.4903954" lon="11.3930472"><ele>460.0</ele><time>2026-04-03T15:18:04.004Z</time></trkpt><trkpt lat="43.4903435" lon="11.3928758"><ele>460.0</ele><time>2026-04-03T15:18:05.004Z</time></trkpt><trkpt lat="43.4902912" lon="11.3927004"><ele>460.0</ele><time>2026-04-03T15:18:06.016Z</time></trkpt><trkpt lat="43.4902472" lon="11.3925119"><ele>459.0</ele><time>2026-04-03T15:18:07.008Z</time></trkpt><trkpt lat="43.4902196" lon="11.3923115"><ele>458.0</ele><time>2026-04-03T15:18:08.008Z</time></trkpt><trkpt lat="43.490209" lon="11.3921033"><ele>457.0</ele><time>2026-04-03T15:18:09.005Z</time></trkpt><trkpt lat="43.4902113" lon="11.39189"><ele>456.75</ele><time>2026-04-03T15:18:10.007Z</time></trkpt><trkpt lat="43.4902243" lon="11.3916822"><ele>456.5</ele><time>2026-04-03T15:18:11.005Z</time></trkpt><trkpt lat="43.4902262" lon="11.3914861"><ele>456.25</ele><time>2026-04-03T15:18:12.016Z</time></trkpt><trkpt lat="43.4901972" lon="11.3913091"><ele>456.0</ele><time>2026-04-03T15:18:12.99Z</time></trkpt><trkpt lat="43.4901269" lon="11.3911598"><ele>456.75</ele><time>2026-04-03T15:18:14.011Z</time></trkpt><trkpt lat="43.4900351" lon="11.3910291"><ele>457.5</ele><time>2026-04-03T15:18:15.014Z</time></trkpt><trkpt lat="43.4899365" lon="11.3909132"><ele>458.25</ele><time>2026-04-03T15:18:16.003Z</time></trkpt><trkpt lat="43.489849" lon="11.3907866"><ele>459.0</ele><time>2026-04-03T15:18:17.001Z</time></trkpt><trkpt lat="43.4897781" lon="11.39065"><ele>459.0</ele><time>2026-04-03T15:18:18.018Z</time></trkpt><trkpt lat="43.4897178" lon="11.3905125"><ele>459.0</ele><time>2026-04-03T15:18:19.002Z</time></trkpt><trkpt lat="43.4896668" lon="11.3903615"><ele>459.0</ele><time>2026-04-03T15:18:20.017Z</time></trkpt><trkpt lat="43.4896183" lon="11.3902094"><ele>459.0</ele><time>2026-04-03T15:18:21Z</time></trkpt><trkpt lat="43.4895734" lon="11.3900731"><ele>458.3333333333333</ele><time>2026-04-03T15:18:22.012Z</time></trkpt><trkpt lat="43.4895318" lon="11.3899623"><ele>457.66666666666663</ele><time>2026-04-03T15:18:23.004Z</time></trkpt><trkpt lat="43.4894949" lon="11.3898599"><ele>457.0</ele><time>2026-04-03T15:18:24.01Z</time></trkpt><trkpt lat="43.4894605" lon="11.3897612"><ele>456.3333333333333</ele><time>2026-04-03T15:18:24.999Z</time></trkpt><trkpt lat="43.4894348" lon="11.3896746"><ele>455.66666666666663</ele><time>2026-04-03T15:18:26Z</time></trkpt><trkpt lat="43.4893917" lon="11.3895278"><ele>455.0</ele><time>2026-04-03T15:18:28.013Z</time></trkpt><trkpt lat="43.4893632" lon="11.3894454"><ele>454.99999999999994</ele><time>2026-04-03T15:18:29.011Z</time></trkpt><trkpt lat="43.4893328" lon="11.3893548"><ele>455.0</ele><time>2026-04-03T15:18:30.016Z</time></trkpt><trkpt lat="43.4893114" lon="11.3892402"><ele>455.0</ele><time>2026-04-03T15:18:31.007Z</time></trkpt><trkpt lat="43.4893013" lon="11.3891135"><ele>455.0</ele><time>2026-04-03T15:18:32.01Z</time></trkpt><trkpt lat="43.4893153" lon="11.3889858"><ele>454.99999999999994</ele><time>2026-04-03T15:18:33.012Z</time></trkpt><trkpt lat="43.489351" lon="11.3888549"><ele>455.0</ele><time>2026-04-03T15:18:34.012Z</time></trkpt><trkpt lat="43.4893866" lon="11.3887039"><ele>454.0</ele><time>2026-04-03T15:18:35.005Z</time></trkpt><trkpt lat="43.489421" lon="11.3885493"><ele>453.0</ele><time>2026-04-03T15:18:36.003Z</time></trkpt><trkpt lat="43.4894499" lon="11.3884294"><ele>452.0</ele><time>2026-04-03T15:18:37.006Z</time></trkpt><trkpt lat="43.4895441" lon="11.3883186"><ele>451.0</ele><time>2026-04-03T15:18:39.002Z</time></trkpt><trkpt lat="43.4896215" lon="11.3881942"><ele>450.50000000000006</ele><time>2026-04-03T15:18:41.012Z</time></trkpt><trkpt lat="43.489636" lon="11.3880794"><ele>450.0</ele><time>2026-04-03T15:18:42.014Z</time></trkpt><trkpt lat="43.4896418" lon="11.3879717"><ele>449.5</ele><time>2026-04-03T15:18:43.011Z</time></trkpt><trkpt lat="43.4896233" lon="11.3878195"><ele>449.0</ele><time>2026-04-03T15:18:45.009Z</time></trkpt><trkpt lat="43.489563" lon="11.3877478"><ele>448.50000000000006</ele><time>2026-04-03T15:18:47.02Z</time></trkpt><trkpt lat="43.4894972" lon="11.3877864"><ele>448.0</ele><time>2026-04-03T15:19:02.004Z</time></trkpt><trkpt lat="43.4894483" lon="11.3879403"><ele>448.50000000000006</ele><time>2026-04-03T15:19:04.008Z</time></trkpt><trkpt lat="43.489436" lon="11.3880303"><ele>449.0</ele><time>2026-04-03T15:19:05Z</time></trkpt><trkpt lat="43.4894252" lon="11.3881303"><ele>449.5</ele><time>2026-04-03T15:19:06.003Z</time></trkpt><trkpt lat="43.4894127" lon="11.3882341"><ele>450.0</ele><time>2026-04-03T15:19:07.004Z</time></trkpt><trkpt lat="43.4893999" lon="11.3883294"><ele>450.50000000000006</ele><time>2026-04-03T15:19:08.012Z</time></trkpt><trkpt lat="43.4893905" lon="11.3884379"><ele>451.0</ele><time>2026-04-03T15:19:09.002Z</time></trkpt><trkpt lat="43.4893789" lon="11.3885712"><ele>451.0</ele><time>2026-04-03T15:19:10.009Z</time></trkpt><trkpt lat="43.489358" lon="11.3887124"><ele>451.0</ele><time>2026-04-03T15:19:11.015Z</time></trkpt><trkpt lat="43.489328" lon="11.3888579"><ele>451.0</ele><time>2026-04-03T15:19:12.003Z</time></trkpt><trkpt lat="43.4892935" lon="11.3890007"><ele>451.0</ele><time>2026-04-03T15:19:13.015Z</time></trkpt><trkpt lat="43.4892691" lon="11.3891443"><ele>451.0</ele><time>2026-04-03T15:19:14.013Z</time></trkpt><trkpt lat="43.4892702" lon="11.3892806"><ele>451.4</ele><time>2026-04-03T15:19:15.015Z</time></trkpt><trkpt lat="43.4892925" lon="11.3893878"><ele>451.8</ele><time>2026-04-03T15:19:16.008Z</time></trkpt><trkpt lat="43.4893208" lon="11.3894749"><ele>452.19999999999993</ele><time>2026-04-03T15:19:17.006Z</time></trkpt><trkpt lat="43.4893666" lon="11.3896267"><ele>452.59999999999997</ele><time>2026-04-03T15:19:19.011Z</time></trkpt><trkpt lat="43.4894078" lon="11.3897531"><ele>453.0</ele><time>2026-04-03T15:19:21.01Z</time></trkpt><trkpt lat="43.489469" lon="11.3899015"><ele>453.0</ele><time>2026-04-03T15:19:23.005Z</time></trkpt><trkpt lat="43.4895101" lon="11.3899988"><ele>453.0</ele><time>2026-04-03T15:19:24.015Z</time></trkpt><trkpt lat="43.4895423" lon="11.3900924"><ele>453.0</ele><time>2026-04-03T15:19:25.007Z</time></trkpt><trkpt lat="43.489591" lon="11.3901731"><ele>453.0</ele><time>2026-04-03T15:19:26.999Z</time></trkpt><trkpt lat="43.4896732" lon="11.390128"><ele>453.0</ele><time>2026-04-03T15:19:29.006Z</time></trkpt><trkpt lat="43.4897526" lon="11.3900696"><ele>453.0</ele><time>2026-04-03T15:19:31.002Z</time></trkpt><trkpt lat="43.4898686" lon="11.3899859"><ele>455.0</ele><time>2026-04-03T15:19:33Z</time></trkpt><trkpt lat="43.4899289" lon="11.3899165"><ele>457.0</ele><time>2026-04-03T15:19:34.001Z</time></trkpt><trkpt lat="43.4899866" lon="11.3898393"><ele>459.0</ele><time>2026-04-03T15:19:35.005Z</time></trkpt><trkpt lat="43.4900509" lon="11.3897582"><ele>461.0</ele><time>2026-04-03T15:19:36Z</time></trkpt><trkpt lat="43.4901203" lon="11.3896903"><ele>463.0</ele><time>2026-04-03T15:19:37.001Z</time></trkpt><trkpt lat="43.4901996" lon="11.38964"><ele>465.0</ele><time>2026-04-03T15:19:38.013Z</time></trkpt><trkpt lat="43.4902814" lon="11.3896009"><ele>465.6</ele><time>2026-04-03T15:19:38.996Z</time></trkpt><trkpt lat="43.4903569" lon="11.3895586"><ele>466.2</ele><time>2026-04-03T15:19:40.001Z</time></trkpt><trkpt lat="43.4904308" lon="11.389472"><ele>466.79999999999995</ele><time>2026-04-03T15:19:42.004Z</time></trkpt><trkpt lat="43.4904817" lon="11.3893465"><ele>467.4</ele><time>2026-04-03T15:19:44.002Z</time></trkpt><trkpt lat="43.490523" lon="11.3892082"><ele>468.0</ele><time>2026-04-03T15:19:45.995Z</time></trkpt><trkpt lat="43.4905945" lon="11.3890703"><ele>469.8333333333333</ele><time>2026-04-03T15:19:47.999Z</time></trkpt><trkpt lat="43.490644" lon="11.3889859"><ele>471.66666666666663</ele><time>2026-04-03T15:19:48.996Z</time></trkpt><trkpt lat="43.4906848" lon="11.3889129"><ele>473.5</ele><time>2026-04-03T15:19:50.003Z</time></trkpt><trkpt lat="43.4907243" lon="11.3888337"><ele>475.3333333333333</ele><time>2026-04-03T15:19:51.01Z</time></trkpt><trkpt lat="43.4907765" lon="11.3887259"><ele>477.16666666666663</ele><time>2026-04-03T15:19:52.008Z</time></trkpt><trkpt lat="43.4908434" lon="11.388594"><ele>479.0</ele><time>2026-04-03T15:19:53.005Z</time></trkpt><trkpt lat="43.4909102" lon="11.3884649"><ele>478.99999999999994</ele><time>2026-04-03T15:19:54.005Z</time></trkpt><trkpt lat="43.4909639" lon="11.3883576"><ele>479.0</ele><time>2026-04-03T15:19:55.006Z</time></trkpt><trkpt lat="43.4910197" lon="11.3882892"><ele>479.0</ele><time>2026-04-03T15:19:56.008Z</time></trkpt><trkpt lat="43.4910952" lon="11.3882274"><ele>479.0</ele><time>2026-04-03T15:19:58.004Z</time></trkpt><trkpt lat="43.4911548" lon="11.3881764"><ele>478.99999999999994</ele><time>2026-04-03T15:20:00.982Z</time></trkpt><trkpt lat="43.4911765" lon="11.3880327"><ele>479.0</ele><time>2026-04-03T15:20:04.995Z</time></trkpt><trkpt lat="43.4911517" lon="11.3879209"><ele>478.0</ele><time>2026-04-03T15:20:06.01Z</time></trkpt><trkpt lat="43.4911104" lon="11.3877929"><ele>477.0</ele><time>2026-04-03T15:20:07.002Z</time></trkpt><trkpt lat="43.4910698" lon="11.3876407"><ele>476.0</ele><time>2026-04-03T15:20:08.011Z</time></trkpt><trkpt lat="43.4910304" lon="11.3874699"><ele>475.0</ele><time>2026-04-03T15:20:09.011Z</time></trkpt><trkpt lat="43.4909903" lon="11.3872843"><ele>473.25</ele><time>2026-04-03T15:20:10.004Z</time></trkpt><trkpt lat="43.4909501" lon="11.3871051"><ele>471.5</ele><time>2026-04-03T15:20:11.01Z</time></trkpt><trkpt lat="43.4909088" lon="11.3869331"><ele>469.75</ele><time>2026-04-03T15:20:12.015Z</time></trkpt><trkpt lat="43.4908713" lon="11.3867664"><ele>468.0</ele><time>2026-04-03T15:20:13.011Z</time></trkpt><trkpt lat="43.4908375" lon="11.3866186"><ele>468.0</ele><time>2026-04-03T15:20:13.997Z</time></trkpt><trkpt lat="43.4908106" lon="11.3864859"><ele>467.99999999999994</ele><time>2026-04-03T15:20:14.994Z</time></trkpt><trkpt lat="43.4907863" lon="11.3863916"><ele>467.99999999999994</ele><time>2026-04-03T15:20:16.01Z</time></trkpt><trkpt lat="43.4907652" lon="11.3862437"><ele>468.0</ele><time>2026-04-03T15:20:18.007Z</time></trkpt><trkpt lat="43.490745" lon="11.3861239"><ele>468.0</ele><time>2026-04-03T15:20:19.008Z</time></trkpt><trkpt lat="43.4907037" lon="11.3859847"><ele>467.2</ele><time>2026-04-03T15:20:20.004Z</time></trkpt><trkpt lat="43.4906541" lon="11.3858468"><ele>466.4</ele><time>2026-04-03T15:20:21.003Z</time></trkpt><trkpt lat="43.4906002" lon="11.3857163"><ele>465.59999999999997</ele><time>2026-04-03T15:20:22.011Z</time></trkpt><trkpt lat="43.4905539" lon="11.3855966"><ele>464.79999999999995</ele><time>2026-04-03T15:20:23.004Z</time></trkpt><trkpt lat="43.4905108" lon="11.3854877"><ele>464.0</ele><time>2026-04-03T15:20:24.012Z</time></trkpt><trkpt lat="43.4904762" lon="11.3853959"><ele>462.99999999999994</ele><time>2026-04-03T15:20:25.008Z</time></trkpt><trkpt lat="43.4904143" lon="11.3852843"><ele>462.0</ele><time>2026-04-03T15:20:27.003Z</time></trkpt><trkpt lat="43.4903709" lon="11.3852138"><ele>461.0</ele><time>2026-04-03T15:20:29.006Z</time></trkpt><trkpt lat="43.4903264" lon="11.3851356"><ele>460.0</ele><time>2026-04-03T15:20:36.006Z</time></trkpt><trkpt lat="43.4902878" lon="11.3850636"><ele>458.99999999999994</ele><time>2026-04-03T15:20:37.002Z</time></trkpt><trkpt lat="43.4902347" lon="11.3849781"><ele>458.0</ele><time>2026-04-03T15:20:38.012Z</time></trkpt><trkpt lat="43.4901784" lon="11.3848831"><ele>458.0</ele><time>2026-04-03T15:20:39.011Z</time></trkpt><trkpt lat="43.4901278" lon="11.3847654"><ele>457.99999999999994</ele><time>2026-04-03T15:20:40.019Z</time></trkpt><trkpt lat="43.4900958" lon="11.3846382"><ele>457.99999999999994</ele><time>2026-04-03T15:20:41.022Z</time></trkpt><trkpt lat="43.4900782" lon="11.3845071"><ele>458.0</ele><time>2026-04-03T15:20:42.027Z</time></trkpt><trkpt lat="43.490066" lon="11.3843685"><ele>458.0</ele><time>2026-04-03T15:20:43.01Z</time></trkpt><trkpt lat="43.490051" lon="11.3842191"><ele>459.25</ele><time>2026-04-03T15:20:44.011Z</time></trkpt><trkpt lat="43.4900159" lon="11.3840659"><ele>460.5</ele><time>2026-04-03T15:20:45.004Z</time></trkpt><trkpt lat="43.4899555" lon="11.3839185"><ele>461.75</ele><time>2026-04-03T15:20:46.019Z</time></trkpt><trkpt lat="43.4898717" lon="11.3837772"><ele>463.0</ele><time>2026-04-03T15:20:47.002Z</time></trkpt><trkpt lat="43.4897694" lon="11.3836463"><ele>463.0</ele><time>2026-04-03T15:20:48.018Z</time></trkpt><trkpt lat="43.48966" lon="11.3835246"><ele>463.0</ele><time>2026-04-03T15:20:49.019Z</time></trkpt><trkpt lat="43.4895486" lon="11.3834107"><ele>463.0</ele><time>2026-04-03T15:20:50.026Z</time></trkpt><trkpt lat="43.4894344" lon="11.3832908"><ele>463.0</ele><time>2026-04-03T15:20:51.016Z</time></trkpt><trkpt lat="43.4893135" lon="11.3831651"><ele>465.33333333333337</ele><time>2026-04-03T15:20:52.018Z</time></trkpt><trkpt lat="43.4891888" lon="11.3830428"><ele>467.66666666666663</ele><time>2026-04-03T15:20:53.026Z</time></trkpt><trkpt lat="43.489062" lon="11.3829232"><ele>470.0</ele><time>2026-04-03T15:20:54.023Z</time></trkpt><trkpt lat="43.4889318" lon="11.3828131"><ele>472.0</ele><time>2026-04-03T15:20:55.009Z</time></trkpt><trkpt lat="43.4888058" lon="11.3826994"><ele>474.0</ele><time>2026-04-03T15:20:56.022Z</time></trkpt><trkpt lat="43.4886947" lon="11.3825733"><ele>476.0</ele><time>2026-04-03T15:20:57.01Z</time></trkpt><trkpt lat="43.4885925" lon="11.3824388"><ele>478.0</ele><time>2026-04-03T15:20:58.02Z</time></trkpt><trkpt lat="43.4885012" lon="11.382299"><ele>480.0</ele><time>2026-04-03T15:20:59.012Z</time></trkpt><trkpt lat="43.4884268" lon="11.3821563"><ele>482.0</ele><time>2026-04-03T15:21:00.026Z</time></trkpt><trkpt lat="43.4883614" lon="11.3820168"><ele>484.0</ele><time>2026-04-03T15:21:01.011Z</time></trkpt><trkpt lat="43.4883013" lon="11.381882"><ele>486.0</ele><time>2026-04-03T15:21:02.017Z</time></trkpt><trkpt lat="43.4882422" lon="11.3817498"><ele>486.0</ele><time>2026-04-03T15:21:03Z</time></trkpt><trkpt lat="43.4881893" lon="11.381609"><ele>486.0</ele><time>2026-04-03T15:21:04.011Z</time></trkpt><trkpt lat="43.4881372" lon="11.3814634"><ele>486.0</ele><time>2026-04-03T15:21:05.017Z</time></trkpt><trkpt lat="43.4880856" lon="11.3813168"><ele>486.0</ele><time>2026-04-03T15:21:06.016Z</time></trkpt><trkpt lat="43.4880362" lon="11.3811674"><ele>485.25</ele><time>2026-04-03T15:21:07.008Z</time></trkpt><trkpt lat="43.4879926" lon="11.3810111"><ele>484.5</ele><time>2026-04-03T15:21:08.017Z</time></trkpt><trkpt lat="43.4879573" lon="11.3808516"><ele>483.75</ele><time>2026-04-03T15:21:08.999Z</time></trkpt><trkpt lat="43.4879328" lon="11.3806947"><ele>483.0</ele><time>2026-04-03T15:21:10.007Z</time></trkpt><trkpt lat="43.4879133" lon="11.3805391"><ele>487.0</ele><time>2026-04-03T15:21:11.008Z</time></trkpt><trkpt lat="43.4878973" lon="11.3803882"><ele>490.99999999999994</ele><time>2026-04-03T15:21:12.016Z</time></trkpt><trkpt lat="43.4878857" lon="11.3802501"><ele>494.99999999999994</ele><time>2026-04-03T15:21:13.009Z</time></trkpt><trkpt lat="43.4878754" lon="11.3801207"><ele>499.0</ele><time>2026-04-03T15:21:14.027Z</time></trkpt><trkpt lat="43.4878617" lon="11.3799988"><ele>503.0</ele><time>2026-04-03T15:21:15.001Z</time></trkpt><trkpt lat="43.487844" lon="11.3798772"><ele>502.99999999999994</ele><time>2026-04-03T15:21:16.008Z</time></trkpt><trkpt lat="43.4878109" lon="11.3797603"><ele>503.0</ele><time>2026-04-03T15:21:16.999Z</time></trkpt><trkpt lat="43.4877602" lon="11.3796668"><ele>503.0</ele><time>2026-04-03T15:21:18.008Z</time></trkpt><trkpt lat="43.4877015" lon="11.3795996"><ele>503.0</ele><time>2026-04-03T15:21:19.02Z</time></trkpt><trkpt lat="43.4876429" lon="11.3795452"><ele>502.99999999999994</ele><time>2026-04-03T15:21:20.01Z</time></trkpt><trkpt lat="43.4875779" lon="11.3794796"><ele>503.0</ele><time>2026-04-03T15:21:21.014Z</time></trkpt><trkpt lat="43.487513" lon="11.3794079"><ele>503.59999999999997</ele><time>2026-04-03T15:21:22.021Z</time></trkpt><trkpt lat="43.4874505" lon="11.3793238"><ele>504.19999999999993</ele><time>2026-04-03T15:21:23.006Z</time></trkpt><trkpt lat="43.4873973" lon="11.3792251"><ele>504.8</ele><time>2026-04-03T15:21:24.019Z</time></trkpt><trkpt lat="43.4873461" lon="11.3791168"><ele>505.4</ele><time>2026-04-03T15:21:25.015Z</time></trkpt><trkpt lat="43.4872938" lon="11.3790109"><ele>506.0</ele><time>2026-04-03T15:21:26.01Z</time></trkpt><trkpt lat="43.4872443" lon="11.3789107"><ele>506.66666666666663</ele><time>2026-04-03T15:21:27.009Z</time></trkpt><trkpt lat="43.4871933" lon="11.3788107"><ele>507.3333333333333</ele><time>2026-04-03T15:21:28.014Z</time></trkpt><trkpt lat="43.4871386" lon="11.3787133"><ele>508.0</ele><time>2026-04-03T15:21:29.016Z</time></trkpt><trkpt lat="43.4870867" lon="11.3786164"><ele>508.66666666666663</ele><time>2026-04-03T15:21:30.02Z</time></trkpt><trkpt lat="43.4870407" lon="11.3785213"><ele>509.3333333333333</ele><time>2026-04-03T15:21:31.011Z</time></trkpt><trkpt lat="43.4869992" lon="11.3784281"><ele>510.0</ele><time>2026-04-03T15:21:32.01Z</time></trkpt><trkpt lat="43.4869635" lon="11.3783313"><ele>510.0</ele><time>2026-04-03T15:21:33.005Z</time></trkpt><trkpt lat="43.4869299" lon="11.378229"><ele>510.00000000000006</ele><time>2026-04-03T15:21:34.007Z</time></trkpt><trkpt lat="43.4869015" lon="11.3781225"><ele>510.0</ele><time>2026-04-03T15:21:35.013Z</time></trkpt><trkpt lat="43.4868796" lon="11.3780238"><ele>510.0</ele><time>2026-04-03T15:21:36.025Z</time></trkpt><trkpt lat="43.4868656" lon="11.3779391"><ele>510.00000000000006</ele><time>2026-04-03T15:21:37.005Z</time></trkpt><trkpt lat="43.4868569" lon="11.3778513"><ele>510.0</ele><time>2026-04-03T15:21:38.001Z</time></trkpt><trkpt lat="43.4868497" lon="11.3777479"><ele>510.0</ele><time>2026-04-03T15:21:39.003Z</time></trkpt><trkpt lat="43.4868477" lon="11.377627"><ele>511.25</ele><time>2026-04-03T15:21:40.009Z</time></trkpt><trkpt lat="43.4868529" lon="11.3774932"><ele>512.5</ele><time>2026-04-03T15:21:41.006Z</time></trkpt><trkpt lat="43.4868605" lon="11.3773416"><ele>513.75</ele><time>2026-04-03T15:21:42.003Z</time></trkpt><trkpt lat="43.4868707" lon="11.3771655"><ele>515.0</ele><time>2026-04-03T15:21:43.001Z</time></trkpt><trkpt lat="43.4868846" lon="11.3769706"><ele>515.0</ele><time>2026-04-03T15:21:44.012Z</time></trkpt><trkpt lat="43.4868966" lon="11.3767667"><ele>515.0</ele><time>2026-04-03T15:21:45.012Z</time></trkpt><trkpt lat="43.4869107" lon="11.3765587"><ele>515.0</ele><time>2026-04-03T15:21:46.006Z</time></trkpt><trkpt lat="43.4869312" lon="11.3763621"><ele>515.0</ele><time>2026-04-03T15:21:47.005Z</time></trkpt><trkpt lat="43.4869514" lon="11.3761951"><ele>516.4</ele><time>2026-04-03T15:21:48.011Z</time></trkpt><trkpt lat="43.4869599" lon="11.3760467"><ele>517.8</ele><time>2026-04-03T15:21:49.009Z</time></trkpt><trkpt lat="43.4869463" lon="11.3759076"><ele>519.2</ele><time>2026-04-03T15:21:50.009Z</time></trkpt><trkpt lat="43.4868994" lon="11.3757767"><ele>520.6</ele><time>2026-04-03T15:21:51Z</time></trkpt><trkpt lat="43.4868313" lon="11.3756456"><ele>522.0</ele><time>2026-04-03T15:21:52.01Z</time></trkpt><trkpt lat="43.4867448" lon="11.3755138"><ele>524.5</ele><time>2026-04-03T15:21:53.01Z</time></trkpt><trkpt lat="43.4866546" lon="11.3753804"><ele>527.0</ele><time>2026-04-03T15:21:54.021Z</time></trkpt><trkpt lat="43.486571" lon="11.3752413"><ele>529.5</ele><time>2026-04-03T15:21:55.011Z</time></trkpt><trkpt lat="43.4864956" lon="11.3751127"><ele>532.0</ele><time>2026-04-03T15:21:56.028Z</time></trkpt><trkpt lat="43.4864249" lon="11.3749949"><ele>532.0</ele><time>2026-04-03T15:21:56.995Z</time></trkpt><trkpt lat="43.4863473" lon="11.3748793"><ele>532.0</ele><time>2026-04-03T15:21:58.014Z</time></trkpt><trkpt lat="43.4862731" lon="11.3747607"><ele>532.0</ele><time>2026-04-03T15:21:59.004Z</time></trkpt><trkpt lat="43.4862156" lon="11.3746344"><ele>532.0</ele><time>2026-04-03T15:22:00.008Z</time></trkpt><trkpt lat="43.4861819" lon="11.3745018"><ele>532.0</ele><time>2026-04-03T15:22:01.011Z</time></trkpt><trkpt lat="43.4861729" lon="11.374362"><ele>531.5</ele><time>2026-04-03T15:22:01.995Z</time></trkpt><trkpt lat="43.48619" lon="11.3742054"><ele>531.0</ele><time>2026-04-03T15:22:03.003Z</time></trkpt><trkpt lat="43.486215" lon="11.3740485"><ele>530.5</ele><time>2026-04-03T15:22:04.011Z</time></trkpt><trkpt lat="43.4862494" lon="11.3738946"><ele>530.0</ele><time>2026-04-03T15:22:05Z</time></trkpt><trkpt lat="43.48629" lon="11.3737399"><ele>530.0</ele><time>2026-04-03T15:22:06.003Z</time></trkpt><trkpt lat="43.4863329" lon="11.3735998"><ele>530.0</ele><time>2026-04-03T15:22:07.001Z</time></trkpt><trkpt lat="43.4863732" lon="11.3734824"><ele>530.0</ele><time>2026-04-03T15:22:08.006Z</time></trkpt><trkpt lat="43.4864052" lon="11.3733794"><ele>530.0</ele><time>2026-04-03T15:22:09.004Z</time></trkpt><trkpt lat="43.4864306" lon="11.3732793"><ele>530.0</ele><time>2026-04-03T15:22:10.013Z</time></trkpt><trkpt lat="43.4864439" lon="11.3731639"><ele>530.0</ele><time>2026-04-03T15:22:11.007Z</time></trkpt><trkpt lat="43.4864484" lon="11.3730298"><ele>525.0</ele><time>2026-04-03T15:22:12.004Z</time></trkpt><trkpt lat="43.4864537" lon="11.3728828"><ele>520.0</ele><time>2026-04-03T15:22:13.005Z</time></trkpt><trkpt lat="43.4864458" lon="11.3727019"><ele>515.0</ele><time>2026-04-03T15:22:14.005Z</time></trkpt><trkpt lat="43.4868707" lon="11.3771655"><ele>515.0</ele><time>2026-04-03T15:21:43.001Z</time></trkpt><trkpt lat="43.4868846" lon="11.3769706"><ele>515.0</ele><time>2026-04-03T15:21:44.012Z</time></trkpt><trkpt lat="43.4868966" lon="11.3767667"><ele>515.0</ele><time>2026-04-03T15:21:45.012Z</time></trkpt><trkpt lat="43.4869107" lon="11.3765587"><ele>515.0</ele><time>2026-04-03T15:21:46.006Z</time></trkpt><trkpt lat="43.4869312" lon="11.3763621"><ele>516.4</ele><time>2026-04-03T15:21:47.005Z</time></trkpt><trkpt lat="43.4869514" lon="11.3761951"><ele>517.8</ele><time>2026-04-03T15:21:48.011Z</time></trkpt><trkpt lat="43.4869599" lon="11.3760467"><ele>519.2</ele><time>2026-04-03T15:21:49.009Z</time></trkpt><trkpt lat="43.4869463" lon="11.3759076"><ele>520.6</ele><time>2026-04-03T15:21:50.009Z</time></trkpt><trkpt lat="43.4868994" lon="11.3757767"><ele>522.0</ele><time>2026-04-03T15:21:51Z</time></trkpt><trkpt lat="43.4868313" lon="11.3756456"><ele>524.5</ele><time>2026-04-03T15:21:52.01Z</time></trkpt><trkpt lat="43.4867448" lon="11.3755138"><ele>527.0</ele><time>2026-04-03T15:21:53.01Z</time></trkpt><trkpt lat="43.4866546" lon="11.3753804"><ele>529.5</ele><time>2026-04-03T15:21:54.021Z</time></trkpt><trkpt lat="43.486571" lon="11.3752413"><ele>532.0</ele><time>2026-04-03T15:21:55.011Z</time></trkpt><trkpt lat="43.4864956" lon="11.3751127"><ele>532.0</ele><time>2026-04-03T15:21:56.028Z</time></trkpt><trkpt lat="43.4864249" lon="11.3749949"><ele>532.0</ele><time>2026-04-03T15:21:56.995Z</time></trkpt><trkpt lat="43.4863473" lon="11.3748793"><ele>532.0</ele><time>2026-04-03T15:21:58.014Z</time></trkpt><trkpt lat="43.4862731" lon="11.3747607"><ele>532.0</ele><time>2026-04-03T15:21:59.004Z</time></trkpt><trkpt lat="43.4862156" lon="11.3746344"><ele>532.0</ele><time>2026-04-03T15:22:00.008Z</time></trkpt><trkpt lat="43.4861819" lon="11.3745018"><ele>529.25</ele><time>2026-04-03T15:22:01.011Z</time></trkpt><trkpt lat="43.4861729" lon="11.374362"><ele>526.5</ele><time>2026-04-03T15:22:01.995Z</time></trkpt><trkpt lat="43.48619" lon="11.3742054"><ele>523.75</ele><time>2026-04-03T15:22:03.003Z</time></trkpt><trkpt lat="43.486215" lon="11.3740485"><ele>521.0</ele><time>2026-04-03T15:22:04.011Z</time></trkpt><trkpt lat="43.4862494" lon="11.3738946"><ele>522.8</ele><time>2026-04-03T15:22:05Z</time></trkpt><trkpt lat="43.48629" lon="11.3737399"><ele>524.6</ele><time>2026-04-03T15:22:06.003Z</time></trkpt><trkpt lat="43.4863329" lon="11.3735998"><ele>526.4</ele><time>2026-04-03T15:22:07.001Z</time></trkpt><trkpt lat="43.4863732" lon="11.3734824"><ele>528.2</ele><time>2026-04-03T15:22:08.006Z</time></trkpt><trkpt lat="43.4864052" lon="11.3733794"><ele>530.0</ele><time>2026-04-03T15:22:09.004Z</time></trkpt><trkpt lat="43.4864306" lon="11.3732793"><ele>530.0</ele><time>2026-04-03T15:22:10.013Z</time></trkpt><trkpt lat="43.4864439" lon="11.3731639"><ele>530.0</ele><time>2026-04-03T15:22:11.007Z</time></trkpt><trkpt lat="43.4864484" lon="11.3730298"><ele>530.0</ele><time>2026-04-03T15:22:12.004Z</time></trkpt><trkpt lat="43.4864537" lon="11.3728828"><ele>530.0</ele><time>2026-04-03T15:22:13.005Z</time></trkpt><trkpt lat="43.4864458" lon="11.3727019"><ele>530.0</ele><time>2026-04-03T15:22:14.005Z</time></trkpt><trkpt lat="43.4864236" lon="11.3724822"><ele>525.0</ele><time>2026-04-03T15:22:15.019Z</time></trkpt><trkpt lat="43.4863931" lon="11.3722584"><ele>520.0</ele><time>2026-04-03T15:22:16.006Z</time></trkpt><trkpt lat="43.4863613" lon="11.3720273"><ele>515.0</ele><time>2026-04-03T15:22:17.003Z</time></trkpt><trkpt lat="43.4863328" lon="11.371797"><ele>516.0</ele><time>2026-04-03T15:22:18.01Z</time></trkpt><trkpt lat="43.486307" lon="11.371583"><ele>517.0</ele><time>2026-04-03T15:22:19.014Z</time></trkpt><trkpt lat="43.4862811" lon="11.3713886"><ele>518.0</ele><time>2026-04-03T15:22:20.009Z</time></trkpt><trkpt lat="43.4862465" lon="11.3712024"><ele>519.0</ele><time>2026-04-03T15:22:21Z</time></trkpt><trkpt lat="43.4862087" lon="11.3710152"><ele>519.0</ele><time>2026-04-03T15:22:22.02Z</time></trkpt><trkpt lat="43.486156" lon="11.3708264"><ele>519.0</ele><time>2026-04-03T15:22:23.005Z</time></trkpt><trkpt lat="43.4860948" lon="11.3706334"><ele>519.0</ele><time>2026-04-03T15:22:24.015Z</time></trkpt><trkpt lat="43.4860307" lon="11.3704417"><ele>517.25</ele><time>2026-04-03T15:22:25.006Z</time></trkpt><trkpt lat="43.4859639" lon="11.3702723"><ele>515.5</ele><time>2026-04-03T15:22:26.017Z</time></trkpt><trkpt lat="43.4858876" lon="11.3701268"><ele>513.75</ele><time>2026-04-03T15:22:27Z</time></trkpt><trkpt lat="43.4858063" lon="11.3700112"><ele>512.0</ele><time>2026-04-03T15:22:28.015Z</time></trkpt><trkpt lat="43.4857097" lon="11.3699222"><ele>512.0</ele><time>2026-04-03T15:22:29.005Z</time></trkpt><trkpt lat="43.4855989" lon="11.3698677"><ele>512.0</ele><time>2026-04-03T15:22:30.009Z</time></trkpt><trkpt lat="43.485469" lon="11.3698388"><ele>512.0</ele><time>2026-04-03T15:22:31.005Z</time></trkpt><trkpt lat="43.4853325" lon="11.3698066"><ele>512.0</ele><time>2026-04-03T15:22:32.009Z</time></trkpt><trkpt lat="43.4852006" lon="11.3697453"><ele>510.75</ele><time>2026-04-03T15:22:33.006Z</time></trkpt><trkpt lat="43.4850966" lon="11.3696406"><ele>509.5</ele><time>2026-04-03T15:22:34.015Z</time></trkpt><trkpt lat="43.4850136" lon="11.3695415"><ele>508.25</ele><time>2026-04-03T15:22:35Z</time></trkpt><trkpt lat="43.4849432" lon="11.3694434"><ele>507.0</ele><time>2026-04-03T15:22:36.006Z</time></trkpt><trkpt lat="43.4848754" lon="11.3693188"><ele>507.0</ele><time>2026-04-03T15:22:37.002Z</time></trkpt><trkpt lat="43.484819" lon="11.3691565"><ele>507.0</ele><time>2026-04-03T15:22:38.01Z</time></trkpt><trkpt lat="43.4847809" lon="11.3689596"><ele>507.0</ele><time>2026-04-03T15:22:39.003Z</time></trkpt><trkpt lat="43.4847537" lon="11.3687567"><ele>507.0</ele><time>2026-04-03T15:22:39.994Z</time></trkpt><trkpt lat="43.484726" lon="11.3685382"><ele>505.33333333333337</ele><time>2026-04-03T15:22:41.01Z</time></trkpt><trkpt lat="43.484696" lon="11.3683103"><ele>503.6666666666667</ele><time>2026-04-03T15:22:42.007Z</time></trkpt><trkpt lat="43.4846679" lon="11.3680888"><ele>502.0</ele><time>2026-04-03T15:22:43.004Z</time></trkpt><trkpt lat="43.4846428" lon="11.3678796"><ele>500.0</ele><time>2026-04-03T15:22:44.014Z</time></trkpt><trkpt lat="43.4846123" lon="11.367685"><ele>498.0</ele><time>2026-04-03T15:22:45.013Z</time></trkpt><trkpt lat="43.4845808" lon="11.3675053"><ele>496.0</ele><time>2026-04-03T15:22:46.007Z</time></trkpt><trkpt lat="43.4845433" lon="11.3673448"><ele>494.0</ele><time>2026-04-03T15:22:47.005Z</time></trkpt><trkpt lat="43.4845105" lon="11.3672132"><ele>494.16666666666663</ele><time>2026-04-03T15:22:48.014Z</time></trkpt><trkpt lat="43.4844832" lon="11.3670997"><ele>494.3333333333333</ele><time>2026-04-03T15:22:49.004Z</time></trkpt><trkpt lat="43.4844687" lon="11.3669885"><ele>494.5</ele><time>2026-04-03T15:22:50.011Z</time></trkpt><trkpt lat="43.4844767" lon="11.3668728"><ele>494.66666666666663</ele><time>2026-04-03T15:22:51.002Z</time></trkpt><trkpt lat="43.4844996" lon="11.3667574"><ele>494.8333333333333</ele><time>2026-04-03T15:22:52.004Z</time></trkpt><trkpt lat="43.4845321" lon="11.3666625"><ele>495.0</ele><time>2026-04-03T15:22:53.015Z</time></trkpt><trkpt lat="43.4845749" lon="11.366596"><ele>495.2</ele><time>2026-04-03T15:22:54Z</time></trkpt><trkpt lat="43.4846675" lon="11.3665547"><ele>495.4</ele><time>2026-04-03T15:22:55.997Z</time></trkpt><trkpt lat="43.4847463" lon="11.3664967"><ele>495.6</ele><time>2026-04-03T15:22:58.001Z</time></trkpt><trkpt lat="43.4848495" lon="11.366395"><ele>495.8</ele><time>2026-04-03T15:23:00.005Z</time></trkpt><trkpt lat="43.4849148" lon="11.3663321"><ele>496.0</ele><time>2026-04-03T15:23:00.996Z</time></trkpt><trkpt lat="43.4849931" lon="11.3662624"><ele>496.0</ele><time>2026-04-03T15:23:02.001Z</time></trkpt><trkpt lat="43.4850769" lon="11.3661794"><ele>496.0</ele><time>2026-04-03T15:23:02.991Z</time></trkpt><trkpt lat="43.4851797" lon="11.3660818"><ele>496.0</ele><time>2026-04-03T15:23:04.012Z</time></trkpt><trkpt lat="43.4852932" lon="11.3659704"><ele>496.0</ele><time>2026-04-03T15:23:04.991Z</time></trkpt><trkpt lat="43.4854164" lon="11.3658504"><ele>493.75</ele><time>2026-04-03T15:23:05.999Z</time></trkpt><trkpt lat="43.485547" lon="11.365733"><ele>491.5</ele><time>2026-04-03T15:23:07.01Z</time></trkpt><trkpt lat="43.4856715" lon="11.3656262"><ele>489.25</ele><time>2026-04-03T15:23:08.002Z</time></trkpt><trkpt lat="43.4857906" lon="11.3655348"><ele>487.0</ele><time>2026-04-03T15:23:09.006Z</time></trkpt><trkpt lat="43.485905" lon="11.3654434"><ele>487.0</ele><time>2026-04-03T15:23:10.009Z</time></trkpt><trkpt lat="43.4860088" lon="11.3653351"><ele>487.0</ele><time>2026-04-03T15:23:11.016Z</time></trkpt><trkpt lat="43.4860916" lon="11.3651958"><ele>487.0</ele><time>2026-04-03T15:23:12Z</time></trkpt><trkpt lat="43.4861702" lon="11.365029"><ele>487.0</ele><time>2026-04-03T15:23:13.008Z</time></trkpt><trkpt lat="43.4862546" lon="11.3648503"><ele>481.75</ele><time>2026-04-03T15:23:14.007Z</time></trkpt><trkpt lat="43.4863521" lon="11.3646963"><ele>476.5</ele><time>2026-04-03T15:23:15.006Z</time></trkpt><trkpt lat="43.4864546" lon="11.3645673"><ele>471.25</ele><time>2026-04-03T15:23:16.001Z</time></trkpt><trkpt lat="43.4865471" lon="11.3644323"><ele>466.0</ele><time>2026-04-03T15:23:17.004Z</time></trkpt><trkpt lat="43.4866279" lon="11.364285"><ele>466.0</ele><time>2026-04-03T15:23:18.002Z</time></trkpt><trkpt lat="43.4867151" lon="11.3641418"><ele>466.0</ele><time>2026-04-03T15:23:19.001Z</time></trkpt><trkpt lat="43.4868204" lon="11.3640121"><ele>466.0</ele><time>2026-04-03T15:23:20.017Z</time></trkpt><trkpt lat="43.4869309" lon="11.3638961"><ele>466.0</ele><time>2026-04-03T15:23:21.003Z</time></trkpt><trkpt lat="43.4870424" lon="11.3637844"><ele>462.25</ele><time>2026-04-03T15:23:22.008Z</time></trkpt><trkpt lat="43.4871533" lon="11.3636797"><ele>458.5</ele><time>2026-04-03T15:23:23.012Z</time></trkpt><trkpt lat="43.4872625" lon="11.3635812"><ele>454.75</ele><time>2026-04-03T15:23:24.003Z</time></trkpt><trkpt lat="43.4873698" lon="11.3634859"><ele>451.0</ele><time>2026-04-03T15:23:25Z</time></trkpt><trkpt lat="43.4874713" lon="11.363394"><ele>451.0</ele><time>2026-04-03T15:23:26.007Z</time></trkpt><trkpt lat="43.4875665" lon="11.363299"><ele>451.0</ele><time>2026-04-03T15:23:27.003Z</time></trkpt><trkpt lat="43.4876549" lon="11.3631854"><ele>451.0</ele><time>2026-04-03T15:23:28.009Z</time></trkpt><trkpt lat="43.487731" lon="11.3630553"><ele>451.0</ele><time>2026-04-03T15:23:29.013Z</time></trkpt><trkpt lat="43.4877883" lon="11.3629185"><ele>450.4</ele><time>2026-04-03T15:23:30.016Z</time></trkpt><trkpt lat="43.4878281" lon="11.362789"><ele>449.8</ele><time>2026-04-03T15:23:31.001Z</time></trkpt><trkpt lat="43.4878613" lon="11.3626662"><ele>449.19999999999993</ele><time>2026-04-03T15:23:32.014Z</time></trkpt><trkpt lat="43.4878971" lon="11.3625475"><ele>448.59999999999997</ele><time>2026-04-03T15:23:33.01Z</time></trkpt><trkpt lat="43.4879337" lon="11.3624271"><ele>448.0</ele><time>2026-04-03T15:23:34.006Z</time></trkpt><trkpt lat="43.4879711" lon="11.3622993"><ele>445.59999999999997</ele><time>2026-04-03T15:23:35.003Z</time></trkpt><trkpt lat="43.4880045" lon="11.3621653"><ele>443.19999999999993</ele><time>2026-04-03T15:23:36.01Z</time></trkpt><trkpt lat="43.4880453" lon="11.3620405"><ele>440.8</ele><time>2026-04-03T15:23:37.004Z</time></trkpt><trkpt lat="43.4881078" lon="11.3619249"><ele>438.4</ele><time>2026-04-03T15:23:38.008Z</time></trkpt><trkpt lat="43.4881894" lon="11.3618354"><ele>436.0</ele><time>2026-04-03T15:23:38.993Z</time></trkpt><trkpt lat="43.4882763" lon="11.3617615"><ele>436.0</ele><time>2026-04-03T15:23:40.008Z</time></trkpt><trkpt lat="43.488351" lon="11.3616958"><ele>436.0</ele><time>2026-04-03T15:23:40.999Z</time></trkpt><trkpt lat="43.4884142" lon="11.3616428"><ele>436.0</ele><time>2026-04-03T15:23:42.011Z</time></trkpt><trkpt lat="43.4884966" lon="11.3615415"><ele>436.0</ele><time>2026-04-03T15:23:44.01Z</time></trkpt><trkpt lat="43.4884793" lon="11.361408"><ele>436.0</ele><time>2026-04-03T15:23:46.012Z</time></trkpt><trkpt lat="43.4883662" lon="11.3613187"><ele>433.33333333333337</ele><time>2026-04-03T15:23:48.011Z</time></trkpt><trkpt lat="43.4883052" lon="11.3612967"><ele>430.6666666666667</ele><time>2026-04-03T15:23:49.006Z</time></trkpt><trkpt lat="43.488207" lon="11.3612487"><ele>428.0</ele><time>2026-04-03T15:23:51.002Z</time></trkpt><trkpt lat="43.4881638" lon="11.3611497"><ele>425.33333333333337</ele><time>2026-04-03T15:23:52.995Z</time></trkpt><trkpt lat="43.4881807" lon="11.3610606"><ele>422.6666666666667</ele><time>2026-04-03T15:23:54.014Z</time></trkpt><trkpt lat="43.4882169" lon="11.3609597"><ele>420.0</ele><time>2026-04-03T15:23:55.013Z</time></trkpt><trkpt lat="43.4882747" lon="11.3608523"><ele>420.0</ele><time>2026-04-03T15:23:55.999Z</time></trkpt><trkpt lat="43.4883315" lon="11.3607295"><ele>420.0</ele><time>2026-04-03T15:23:57.004Z</time></trkpt><trkpt lat="43.4883858" lon="11.3605951"><ele>420.0</ele><time>2026-04-03T15:23:58.012Z</time></trkpt><trkpt lat="43.4884393" lon="11.3604567"><ele>420.0</ele><time>2026-04-03T15:23:59Z</time></trkpt><trkpt lat="43.4884964" lon="11.3603195"><ele>420.0</ele><time>2026-04-03T15:24:00.018Z</time></trkpt><trkpt lat="43.4885531" lon="11.3601834"><ele>417.25</ele><time>2026-04-03T15:24:01.005Z</time></trkpt><trkpt lat="43.4886095" lon="11.360048"><ele>414.5</ele><time>2026-04-03T15:24:02.021Z</time></trkpt><trkpt lat="43.4886687" lon="11.3599086"><ele>411.75</ele><time>2026-04-03T15:24:03Z</time></trkpt><trkpt lat="43.4887236" lon="11.3597692"><ele>409.0</ele><time>2026-04-03T15:24:04.004Z</time></trkpt><trkpt lat="43.4887758" lon="11.3596229"><ele>407.5</ele><time>2026-04-03T15:24:05.009Z</time></trkpt><trkpt lat="43.4888203" lon="11.3594558"><ele>406.0</ele><time>2026-04-03T15:24:06.03Z</time></trkpt><trkpt lat="43.4888593" lon="11.3592701"><ele>404.5</ele><time>2026-04-03T15:24:07.011Z</time></trkpt><trkpt lat="43.4889006" lon="11.3590691"><ele>403.0</ele><time>2026-04-03T15:24:08.012Z</time></trkpt><trkpt lat="43.4889379" lon="11.3588611"><ele>400.25</ele><time>2026-04-03T15:24:08.993Z</time></trkpt><trkpt lat="43.4889732" lon="11.3586603"><ele>397.5</ele><time>2026-04-03T15:24:10.019Z</time></trkpt><trkpt lat="43.4890038" lon="11.3584642"><ele>394.75</ele><time>2026-04-03T15:24:11.001Z</time></trkpt><trkpt lat="43.4890323" lon="11.3582669"><ele>392.0</ele><time>2026-04-03T15:24:12.014Z</time></trkpt><trkpt lat="43.4890721" lon="11.3580727"><ele>388.5</ele><time>2026-04-03T15:24:13.003Z</time></trkpt><trkpt lat="43.4891161" lon="11.3578792"><ele>385.0</ele><time>2026-04-03T15:24:14.008Z</time></trkpt><trkpt lat="43.4891674" lon="11.3576921"><ele>381.5</ele><time>2026-04-03T15:24:15Z</time></trkpt><trkpt lat="43.4892219" lon="11.3575274"><ele>378.0</ele><time>2026-04-03T15:24:16.009Z</time></trkpt><trkpt lat="43.4892871" lon="11.357383"><ele>378.0</ele><time>2026-04-03T15:24:17.006Z</time></trkpt><trkpt lat="43.4893581" lon="11.3572537"><ele>378.0</ele><time>2026-04-03T15:24:18.006Z</time></trkpt><trkpt lat="43.4894311" lon="11.3571334"><ele>378.0</ele><time>2026-04-03T15:24:19.002Z</time></trkpt><trkpt lat="43.4895046" lon="11.3570212"><ele>378.0</ele><time>2026-04-03T15:24:20.004Z</time></trkpt><trkpt lat="43.4895899" lon="11.3569118"><ele>375.0</ele><time>2026-04-03T15:24:21.01Z</time></trkpt><trkpt lat="43.4896828" lon="11.3568024"><ele>372.0</ele><time>2026-04-03T15:24:21.999Z</time></trkpt><trkpt lat="43.4897788" lon="11.3566951"><ele>369.0</ele><time>2026-04-03T15:24:23.005Z</time></trkpt><trkpt lat="43.4898707" lon="11.356597"><ele>366.0</ele><time>2026-04-03T15:24:23.997Z</time></trkpt><trkpt lat="43.4899566" lon="11.3565154"><ele>366.0</ele><time>2026-04-03T15:24:25.006Z</time></trkpt><trkpt lat="43.4900428" lon="11.3564376"><ele>366.0</ele><time>2026-04-03T15:24:26.006Z</time></trkpt><trkpt lat="43.4901223" lon="11.3563669"><ele>366.0</ele><time>2026-04-03T15:24:27.002Z</time></trkpt><trkpt lat="43.4901796" lon="11.3562925"><ele>366.0</ele><time>2026-04-03T15:24:28.008Z</time></trkpt><trkpt lat="43.4902078" lon="11.3562085"><ele>366.0</ele><time>2026-04-03T15:24:29Z</time></trkpt><trkpt lat="43.4901628" lon="11.3560497"><ele>363.8333333333333</ele><time>2026-04-03T15:24:31.001Z</time></trkpt><trkpt lat="43.4900998" lon="11.3559923"><ele>361.6666666666667</ele><time>2026-04-03T15:24:32.001Z</time></trkpt><trkpt lat="43.4900335" lon="11.3559506"><ele>359.5</ele><time>2026-04-03T15:24:33.016Z</time></trkpt><trkpt lat="43.4899674" lon="11.3559167"><ele>357.33333333333337</ele><time>2026-04-03T15:24:33.999Z</time></trkpt><trkpt lat="43.4899037" lon="11.3558788"><ele>355.1666666666667</ele><time>2026-04-03T15:24:35.006Z</time></trkpt><trkpt lat="43.4898499" lon="11.3557665"><ele>353.0</ele><time>2026-04-03T15:24:37.011Z</time></trkpt><trkpt lat="43.4899342" lon="11.3556509"><ele>353.0</ele><time>2026-04-03T15:24:38.994Z</time></trkpt><trkpt lat="43.4900302" lon="11.3556015"><ele>353.0</ele><time>2026-04-03T15:24:39.999Z</time></trkpt><trkpt lat="43.4901488" lon="11.3555463"><ele>353.0</ele><time>2026-04-03T15:24:41.01Z</time></trkpt><trkpt lat="43.49027" lon="11.3554869"><ele>353.0</ele><time>2026-04-03T15:24:42Z</time></trkpt><trkpt lat="43.4903909" lon="11.3554195"><ele>350.0</ele><time>2026-04-03T15:24:43.003Z</time></trkpt><trkpt lat="43.4905049" lon="11.3553548"><ele>347.0</ele><time>2026-04-03T15:24:44.022Z</time></trkpt><trkpt lat="43.4906135" lon="11.3552842"><ele>344.0</ele><time>2026-04-03T15:24:44.997Z</time></trkpt><trkpt lat="43.4907152" lon="11.3552053"><ele>341.0</ele><time>2026-04-03T15:24:46.015Z</time></trkpt><trkpt lat="43.4908051" lon="11.3551222"><ele>341.0</ele><time>2026-04-03T15:24:47.006Z</time></trkpt><trkpt lat="43.4908762" lon="11.3550378"><ele>341.0</ele><time>2026-04-03T15:24:48.001Z</time></trkpt><trkpt lat="43.4909281" lon="11.3549544"><ele>341.0</ele><time>2026-04-03T15:24:48.997Z</time></trkpt><trkpt lat="43.490981" lon="11.3548503"><ele>341.0</ele><time>2026-04-03T15:24:51.004Z</time></trkpt><trkpt lat="43.49102" lon="11.3547585"><ele>341.0</ele><time>2026-04-03T15:24:53.997Z</time></trkpt><trkpt lat="43.4910374" lon="11.3546584"><ele>341.0</ele><time>2026-04-03T15:24:58.003Z</time></trkpt><trkpt lat="43.491024" lon="11.3545511"><ele>340.0</ele><time>2026-04-03T15:25:01.006Z</time></trkpt><trkpt lat="43.4909665" lon="11.3544172"><ele>339.0</ele><time>2026-04-03T15:25:02.988Z</time></trkpt><trkpt lat="43.490946" lon="11.3543271"><ele>338.0</ele><time>2026-04-03T15:25:04.005Z</time></trkpt><trkpt lat="43.4909381" lon="11.3542264"><ele>337.0</ele><time>2026-04-03T15:25:05.014Z</time></trkpt><trkpt lat="43.4909516" lon="11.3541038"><ele>336.0</ele><time>2026-04-03T15:25:06.018Z</time></trkpt><trkpt lat="43.4909702" lon="11.3539779"><ele>335.0</ele><time>2026-04-03T15:25:07.01Z</time></trkpt><trkpt lat="43.4909962" lon="11.3538552"><ele>334.5</ele><time>2026-04-03T15:25:08.006Z</time></trkpt><trkpt lat="43.4910288" lon="11.3537246"><ele>334.0</ele><time>2026-04-03T15:25:08.998Z</time></trkpt><trkpt lat="43.4910683" lon="11.3535711"><ele>333.5</ele><time>2026-04-03T15:25:10.021Z</time></trkpt><trkpt lat="43.4911045" lon="11.3534056"><ele>333.0</ele><time>2026-04-03T15:25:11.009Z</time></trkpt><trkpt lat="43.4911309" lon="11.353255"><ele>333.0</ele><time>2026-04-03T15:25:12.029Z</time></trkpt><trkpt lat="43.4911561" lon="11.3531229"><ele>333.0</ele><time>2026-04-03T15:25:13Z</time></trkpt><trkpt lat="43.4911936" lon="11.3530233"><ele>333.0</ele><time>2026-04-03T15:25:14.012Z</time></trkpt><trkpt lat="43.4912443" lon="11.3529424"><ele>333.0</ele><time>2026-04-03T15:25:15.004Z</time></trkpt><trkpt lat="43.4913081" lon="11.3528857"><ele>333.0</ele><time>2026-04-03T15:25:16.008Z</time></trkpt><trkpt lat="43.4913863" lon="11.3528452"><ele>333.0</ele><time>2026-04-03T15:25:17.011Z</time></trkpt><trkpt lat="43.4914598" lon="11.3528154"><ele>332.0</ele><time>2026-04-03T15:25:18.014Z</time></trkpt><trkpt lat="43.4915305" lon="11.3527742"><ele>331.0</ele><time>2026-04-03T15:25:19.022Z</time></trkpt><trkpt lat="43.4915998" lon="11.352701"><ele>330.0</ele><time>2026-04-03T15:25:20.033Z</time></trkpt><trkpt lat="43.4916515" lon="11.3526139"><ele>329.0</ele><time>2026-04-03T15:25:21.004Z</time></trkpt><trkpt lat="43.4916936" lon="11.3525373"><ele>328.0</ele><time>2026-04-03T15:25:22.022Z</time></trkpt><trkpt lat="43.4917404" lon="11.3524632"><ele>327.0</ele><time>2026-04-03T15:25:23Z</time></trkpt><trkpt lat="43.4917884" lon="11.3523911"><ele>327.0</ele><time>2026-04-03T15:25:24.008Z</time></trkpt><trkpt lat="43.4918445" lon="11.3523242"><ele>327.0</ele><time>2026-04-03T15:25:25Z</time></trkpt><trkpt lat="43.4919017" lon="11.3522583"><ele>327.0</ele><time>2026-04-03T15:25:26.002Z</time></trkpt><trkpt lat="43.4919814" lon="11.3521536"><ele>327.0</ele><time>2026-04-03T15:25:28.007Z</time></trkpt><trkpt lat="43.4920589" lon="11.3521108"><ele>327.0</ele><time>2026-04-03T15:25:29.998Z</time></trkpt><trkpt lat="43.4921164" lon="11.3521852"><ele>327.0</ele><time>2026-04-03T15:25:32.999Z</time></trkpt><trkpt lat="43.4921799" lon="11.3522924"><ele>327.2857142857143</ele><time>2026-04-03T15:25:46.007Z</time></trkpt><trkpt lat="43.4922151" lon="11.3523657"><ele>327.57142857142856</ele><time>2026-04-03T15:25:47Z</time></trkpt><trkpt lat="43.4922567" lon="11.3524583"><ele>327.8571428571429</ele><time>2026-04-03T15:25:48.01Z</time></trkpt><trkpt lat="43.4923012" lon="11.352557"><ele>328.1428571428571</ele><time>2026-04-03T15:25:49.006Z</time></trkpt><trkpt lat="43.4923423" lon="11.3526548"><ele>328.42857142857144</ele><time>2026-04-03T15:25:50.005Z</time></trkpt><trkpt lat="43.4923864" lon="11.352733"><ele>328.7142857142857</ele><time>2026-04-03T15:25:51.005Z</time></trkpt><trkpt lat="43.4924394" lon="11.3527926"><ele>329.0</ele><time>2026-04-03T15:25:52.001Z</time></trkpt><trkpt lat="43.4925525" lon="11.3527949"><ele>329.0</ele><time>2026-04-03T15:25:54.014Z</time></trkpt><trkpt lat="43.4926187" lon="11.3527633"><ele>329.0</ele><time>2026-04-03T15:25:55.011Z</time></trkpt><trkpt lat="43.4926933" lon="11.3527419"><ele>329.0</ele><time>2026-04-03T15:25:56.024Z</time></trkpt><trkpt lat="43.49278" lon="11.3527435"><ele>329.0</ele><time>2026-04-03T15:25:57.01Z</time></trkpt><trkpt lat="43.4928706" lon="11.3527578"><ele>329.0</ele><time>2026-04-03T15:25:58.005Z</time></trkpt><trkpt lat="43.4929616" lon="11.3527883"><ele>329.0</ele><time>2026-04-03T15:25:59.01Z</time></trkpt><trkpt lat="43.4930463" lon="11.3528128"><ele>330.79999999999995</ele><time>2026-04-03T15:26:00.005Z</time></trkpt><trkpt lat="43.4931379" lon="11.3528387"><ele>332.59999999999997</ele><time>2026-04-03T15:26:01.012Z</time></trkpt><trkpt lat="43.4932319" lon="11.3528727"><ele>334.4</ele><time>2026-04-03T15:26:02.004Z</time></trkpt><trkpt lat="43.4933275" lon="11.3529279"><ele>336.2</ele><time>2026-04-03T15:26:03.001Z</time></trkpt><trkpt lat="43.4934129" lon="11.3529967"><ele>338.0</ele><time>2026-04-03T15:26:04.007Z</time></trkpt><trkpt lat="43.4934896" lon="11.353068"><ele>338.0</ele><time>2026-04-03T15:26:05.003Z</time></trkpt><trkpt lat="43.4935636" lon="11.3531363"><ele>338.0</ele><time>2026-04-03T15:26:06.004Z</time></trkpt><trkpt lat="43.4936326" lon="11.3531964"><ele>338.0</ele><time>2026-04-03T15:26:07.002Z</time></trkpt><trkpt lat="43.493693" lon="11.3532415"><ele>338.0</ele><time>2026-04-03T15:26:08.007Z</time></trkpt><trkpt lat="43.4937513" lon="11.3532797"><ele>338.0</ele><time>2026-04-03T15:26:09.008Z</time></trkpt><trkpt lat="43.4938134" lon="11.3532995"><ele>338.0</ele><time>2026-04-03T15:26:10.015Z</time></trkpt><trkpt lat="43.4938823" lon="11.3532997"><ele>338.0</ele><time>2026-04-03T15:26:11.006Z</time></trkpt><trkpt lat="43.493949" lon="11.3532796"><ele>340.2857142857143</ele><time>2026-04-03T15:26:12.008Z</time></trkpt><trkpt lat="43.4940165" lon="11.3532566"><ele>342.57142857142856</ele><time>2026-04-03T15:26:13.009Z</time></trkpt><trkpt lat="43.4940896" lon="11.3532211"><ele>344.8571428571429</ele><time>2026-04-03T15:26:14.004Z</time></trkpt><trkpt lat="43.4941577" lon="11.353174"><ele>347.1428571428571</ele><time>2026-04-03T15:26:15.007Z</time></trkpt><trkpt lat="43.4942208" lon="11.3531169"><ele>349.4285714285714</ele><time>2026-04-03T15:26:16.001Z</time></trkpt><trkpt lat="43.4942809" lon="11.3530563"><ele>351.7142857142857</ele><time>2026-04-03T15:26:17.005Z</time></trkpt><trkpt lat="43.4943421" lon="11.3530128"><ele>354.0</ele><time>2026-04-03T15:26:18.003Z</time></trkpt><trkpt lat="43.4944586" lon="11.3530094"><ele>354.0</ele><time>2026-04-03T15:26:20.01Z</time></trkpt><trkpt lat="43.4945373" lon="11.3531095"><ele>354.0</ele><time>2026-04-03T15:26:22.002Z</time></trkpt><trkpt lat="43.494632" lon="11.3532046"><ele>354.0</ele><time>2026-04-03T15:26:23.997Z</time></trkpt><trkpt lat="43.494749" lon="11.353267"><ele>354.0</ele><time>2026-04-03T15:26:26.013Z</time></trkpt><trkpt lat="43.4948232" lon="11.3532823"><ele>354.0</ele><time>2026-04-03T15:26:27.007Z</time></trkpt><trkpt lat="43.4949062" lon="11.3532913"><ele>357.0</ele><time>2026-04-03T15:26:28.004Z</time></trkpt><trkpt lat="43.4949887" lon="11.3532956"><ele>360.0</ele><time>2026-04-03T15:26:28.997Z</time></trkpt><trkpt lat="43.4950668" lon="11.3532976"><ele>363.0</ele><time>2026-04-03T15:26:30.011Z</time></trkpt><trkpt lat="43.4951436" lon="11.3533013"><ele>366.0</ele><time>2026-04-03T15:26:31.009Z</time></trkpt><trkpt lat="43.495223" lon="11.3533058"><ele>369.0</ele><time>2026-04-03T15:26:32.012Z</time></trkpt><trkpt lat="43.4953013" lon="11.3533143"><ele>372.0</ele><time>2026-04-03T15:26:32.999Z</time></trkpt><trkpt lat="43.4953772" lon="11.3533258"><ele>374.6666666666667</ele><time>2026-04-03T15:26:34.014Z</time></trkpt><trkpt lat="43.4954577" lon="11.3533366"><ele>377.33333333333337</ele><time>2026-04-03T15:26:35Z</time></trkpt><trkpt lat="43.4955397" lon="11.3533473"><ele>380.0</ele><time>2026-04-03T15:26:36.017Z</time></trkpt><trkpt lat="43.495621" lon="11.3533546"><ele>382.6666666666667</ele><time>2026-04-03T15:26:37.011Z</time></trkpt><trkpt lat="43.4957009" lon="11.3533562"><ele>385.33333333333337</ele><time>2026-04-03T15:26:38.014Z</time></trkpt><trkpt lat="43.4957742" lon="11.3533444"><ele>388.0</ele><time>2026-04-03T15:26:39.003Z</time></trkpt><trkpt lat="43.4958448" lon="11.3533101"><ele>388.0</ele><time>2026-04-03T15:26:40.011Z</time></trkpt><trkpt lat="43.4959075" lon="11.3532752"><ele>388.0</ele><time>2026-04-03T15:26:41.011Z</time></trkpt><trkpt lat="43.4959703" lon="11.3532426"><ele>388.0</ele><time>2026-04-03T15:26:42.002Z</time></trkpt><trkpt lat="43.4960367" lon="11.3532096"><ele>388.0</ele><time>2026-04-03T15:26:43.002Z</time></trkpt><trkpt lat="43.4961052" lon="11.3531715"><ele>388.0</ele><time>2026-04-03T15:26:44.006Z</time></trkpt><trkpt lat="43.4961652" lon="11.3531172"><ele>388.0</ele><time>2026-04-03T15:26:45.009Z</time></trkpt><trkpt lat="43.4962122" lon="11.3530418"><ele>388.0</ele><time>2026-04-03T15:26:46.005Z</time></trkpt><trkpt lat="43.4962607" lon="11.352966"><ele>390.6666666666667</ele><time>2026-04-03T15:26:46.994Z</time></trkpt><trkpt lat="43.4963095" lon="11.3528925"><ele>393.33333333333337</ele><time>2026-04-03T15:26:48.007Z</time></trkpt><trkpt lat="43.4963634" lon="11.3528296"><ele>396.0</ele><time>2026-04-03T15:26:49.01Z</time></trkpt><trkpt lat="43.4964199" lon="11.3527746"><ele>398.66666666666663</ele><time>2026-04-03T15:26:50.014Z</time></trkpt><trkpt lat="43.4965439" lon="11.352742"><ele>401.3333333333333</ele><time>2026-04-03T15:26:52.001Z</time></trkpt><trkpt lat="43.4966136" lon="11.3527504"><ele>404.0</ele><time>2026-04-03T15:26:53.009Z</time></trkpt><trkpt lat="43.4966909" lon="11.3527562"><ele>404.0</ele><time>2026-04-03T15:26:54.007Z</time></trkpt><trkpt lat="43.4967779" lon="11.3527603"><ele>404.0</ele><time>2026-04-03T15:26:54.991Z</time></trkpt><trkpt lat="43.4968731" lon="11.3527559"><ele>404.0</ele><time>2026-04-03T15:26:56.01Z</time></trkpt><trkpt lat="43.4969716" lon="11.3527434"><ele>404.0</ele><time>2026-04-03T15:26:57.009Z</time></trkpt><trkpt lat="43.4970766" lon="11.352719"><ele>404.0</ele><time>2026-04-03T15:26:58.008Z</time></trkpt><trkpt lat="43.4971751" lon="11.3526804"><ele>405.0</ele><time>2026-04-03T15:26:59.006Z</time></trkpt><trkpt lat="43.4972689" lon="11.3526142"><ele>406.0</ele><time>2026-04-03T15:27:00.014Z</time></trkpt><trkpt lat="43.4973594" lon="11.3525393"><ele>407.0</ele><time>2026-04-03T15:27:01.006Z</time></trkpt><trkpt lat="43.4974521" lon="11.352458"><ele>408.0</ele><time>2026-04-03T15:27:02.011Z</time></trkpt><trkpt lat="43.4975452" lon="11.3523795"><ele>409.0</ele><time>2026-04-03T15:27:02.988Z</time></trkpt><trkpt lat="43.4976364" lon="11.3523073"><ele>409.0</ele><time>2026-04-03T15:27:04.01Z</time></trkpt><trkpt lat="43.4977314" lon="11.3522584"><ele>409.0</ele><time>2026-04-03T15:27:05.002Z</time></trkpt><trkpt lat="43.4978385" lon="11.352223"><ele>409.0</ele><time>2026-04-03T15:27:06.002Z</time></trkpt><trkpt lat="43.4979425" lon="11.3521853"><ele>409.0</ele><time>2026-04-03T15:27:07.018Z</time></trkpt><trkpt lat="43.4980429" lon="11.3521428"><ele>409.0</ele><time>2026-04-03T15:27:08.01Z</time></trkpt><trkpt lat="43.4981385" lon="11.352095"><ele>410.6</ele><time>2026-04-03T15:27:09.007Z</time></trkpt><trkpt lat="43.4982403" lon="11.3520401"><ele>412.2</ele><time>2026-04-03T15:27:10.021Z</time></trkpt><trkpt lat="43.4983439" lon="11.3519828"><ele>413.8</ele><time>2026-04-03T15:27:11.013Z</time></trkpt><trkpt lat="43.4984469" lon="11.3519231"><ele>415.40000000000003</ele><time>2026-04-03T15:27:12.001Z</time></trkpt><trkpt lat="43.4985538" lon="11.3518753"><ele>417.0</ele><time>2026-04-03T15:27:13.009Z</time></trkpt><trkpt lat="43.4986532" lon="11.3518488"><ele>417.0</ele><time>2026-04-03T15:27:14.002Z</time></trkpt><trkpt lat="43.4987444" lon="11.3518404"><ele>417.0</ele><time>2026-04-03T15:27:15.01Z</time></trkpt><trkpt lat="43.498834" lon="11.3518461"><ele>417.0</ele><time>2026-04-03T15:27:16.011Z</time></trkpt><trkpt lat="43.4989182" lon="11.3518678"><ele>417.0</ele><time>2026-04-03T15:27:17.009Z</time></trkpt><trkpt lat="43.499006" lon="11.3519068"><ele>417.0</ele><time>2026-04-03T15:27:18.011Z</time></trkpt><trkpt lat="43.4990978" lon="11.3519563"><ele>417.0</ele><time>2026-04-03T15:27:18.999Z</time></trkpt><trkpt lat="43.4991909" lon="11.3520193"><ele>417.0</ele><time>2026-04-03T15:27:20.011Z</time></trkpt><trkpt lat="43.4992835" lon="11.3520973"><ele>417.0</ele><time>2026-04-03T15:27:21.019Z</time></trkpt><trkpt lat="43.4993792" lon="11.3521714"><ele>417.0</ele><time>2026-04-03T15:27:22.014Z</time></trkpt><trkpt lat="43.499474" lon="11.3522509"><ele>417.0</ele><time>2026-04-03T15:27:23.014Z</time></trkpt><trkpt lat="43.4995681" lon="11.352332"><ele>418.25</ele><time>2026-04-03T15:27:24.013Z</time></trkpt><trkpt lat="43.4996655" lon="11.3523953"><ele>419.5</ele><time>2026-04-03T15:27:25.014Z</time></trkpt><trkpt lat="43.4997726" lon="11.3524395"><ele>420.75</ele><time>2026-04-03T15:27:26.025Z</time></trkpt><trkpt lat="43.4998853" lon="11.3524795"><ele>422.0</ele><time>2026-04-03T15:27:27.003Z</time></trkpt><trkpt lat="43.5000017" lon="11.3525246"><ele>422.0</ele><time>2026-04-03T15:27:28.019Z</time></trkpt><trkpt lat="43.500121" lon="11.3525737"><ele>422.0</ele><time>2026-04-03T15:27:29.009Z</time></trkpt><trkpt lat="43.5002436" lon="11.3526213"><ele>422.0</ele><time>2026-04-03T15:27:30.013Z</time></trkpt><trkpt lat="43.500367" lon="11.3526722"><ele>422.0</ele><time>2026-04-03T15:27:31.012Z</time></trkpt><trkpt lat="43.5004851" lon="11.3527261"><ele>422.40000000000003</ele><time>2026-04-03T15:27:32.015Z</time></trkpt><trkpt lat="43.5005904" lon="11.3527814"><ele>422.8</ele><time>2026-04-03T15:27:33.009Z</time></trkpt><trkpt lat="43.5006821" lon="11.3528239"><ele>423.2</ele><time>2026-04-03T15:27:34.009Z</time></trkpt><trkpt lat="43.5007654" lon="11.3528557"><ele>423.6</ele><time>2026-04-03T15:27:35.01Z</time></trkpt><trkpt lat="43.5008502" lon="11.3528782"><ele>424.0</ele><time>2026-04-03T15:27:36.008Z</time></trkpt><trkpt lat="43.5009256" lon="11.3529012"><ele>424.00000000000006</ele><time>2026-04-03T15:27:37.015Z</time></trkpt><trkpt lat="43.5009951" lon="11.3529228"><ele>424.0</ele><time>2026-04-03T15:27:38.01Z</time></trkpt><trkpt lat="43.5010656" lon="11.352941"><ele>424.0</ele><time>2026-04-03T15:27:39.013Z</time></trkpt><trkpt lat="43.5011376" lon="11.3529548"><ele>424.0</ele><time>2026-04-03T15:27:40.007Z</time></trkpt><trkpt lat="43.5012023" lon="11.3529511"><ele>424.00000000000006</ele><time>2026-04-03T15:27:41.001Z</time></trkpt><trkpt lat="43.5012869" lon="11.3528878"><ele>424.0</ele><time>2026-04-03T15:27:42.995Z</time></trkpt><trkpt lat="43.5013741" lon="11.3528351"><ele>424.0</ele><time>2026-04-03T15:27:44.996Z</time></trkpt><trkpt lat="43.5014743" lon="11.3527666"><ele>424.0</ele><time>2026-04-03T15:27:47Z</time></trkpt><trkpt lat="43.5015727" lon="11.3527338"><ele>424.0</ele><time>2026-04-03T15:27:49.013Z</time></trkpt><trkpt lat="43.5016445" lon="11.3528209"><ele>424.0</ele><time>2026-04-03T15:27:50.999Z</time></trkpt><trkpt lat="43.5017346" lon="11.3529332"><ele>424.0</ele><time>2026-04-03T15:27:53.007Z</time></trkpt><trkpt lat="43.5018054" lon="11.3529684"><ele>424.0</ele><time>2026-04-03T15:27:54.009Z</time></trkpt><trkpt lat="43.5018874" lon="11.3529981"><ele>424.0</ele><time>2026-04-03T15:27:55.012Z</time></trkpt><trkpt lat="43.5019748" lon="11.3530261"><ele>424.0</ele><time>2026-04-03T15:27:56.024Z</time></trkpt><trkpt lat="43.5020697" lon="11.353049"><ele>424.0</ele><time>2026-04-03T15:27:57.005Z</time></trkpt><trkpt lat="43.5021699" lon="11.353064"><ele>424.0</ele><time>2026-04-03T15:27:58.016Z</time></trkpt><trkpt lat="43.5022768" lon="11.3530752"><ele>425.2</ele><time>2026-04-03T15:27:59.007Z</time></trkpt><trkpt lat="43.502385" lon="11.3530908"><ele>426.4</ele><time>2026-04-03T15:28:00.018Z</time></trkpt><trkpt lat="43.5024968" lon="11.3531047"><ele>427.6</ele><time>2026-04-03T15:28:01.019Z</time></trkpt><trkpt lat="43.502609" lon="11.3531148"><ele>428.8</ele><time>2026-04-03T15:28:02.017Z</time></trkpt><trkpt lat="43.5027196" lon="11.3531267"><ele>430.0</ele><time>2026-04-03T15:28:03Z</time></trkpt><trkpt lat="43.5028277" lon="11.353135"><ele>432.2</ele><time>2026-04-03T15:28:04.014Z</time></trkpt><trkpt lat="43.5029322" lon="11.3531506"><ele>434.4</ele><time>2026-04-03T15:28:05.001Z</time></trkpt><trkpt lat="43.503033" lon="11.3531655"><ele>436.6</ele><time>2026-04-03T15:28:06.022Z</time></trkpt><trkpt lat="43.5031232" lon="11.3531721"><ele>438.8</ele><time>2026-04-03T15:28:07.011Z</time></trkpt><trkpt lat="43.5031912" lon="11.3531576"><ele>441.0</ele><time>2026-04-03T15:28:08.01Z</time></trkpt><trkpt lat="43.503247" lon="11.3530583"><ele>441.0</ele><time>2026-04-03T15:28:10.019Z</time></trkpt><trkpt lat="43.5032448" lon="11.3528858"><ele>441.0</ele><time>2026-04-03T15:28:12.02Z</time></trkpt><trkpt lat="43.5032685" lon="11.35272"><ele>441.0</ele><time>2026-04-03T15:28:14.008Z</time></trkpt><trkpt lat="43.5032967" lon="11.3526365"><ele>441.0</ele><time>2026-04-03T15:28:15.004Z</time></trkpt><trkpt lat="43.5033358" lon="11.3525528"><ele>441.0</ele><time>2026-04-03T15:28:16.012Z</time></trkpt><trkpt lat="43.5033739" lon="11.3524696"><ele>441.0</ele><time>2026-04-03T15:28:17.018Z</time></trkpt><trkpt lat="43.5034165" lon="11.3523895"><ele>441.0</ele><time>2026-04-03T15:28:18.004Z</time></trkpt><trkpt lat="43.5034578" lon="11.3523184"><ele>441.0</ele><time>2026-04-03T15:28:19.003Z</time></trkpt><trkpt lat="43.503506" lon="11.3522518"><ele>441.0</ele><time>2026-04-03T15:28:20.003Z</time></trkpt><trkpt lat="43.5035647" lon="11.3521902"><ele>441.0</ele><time>2026-04-03T15:28:21.006Z</time></trkpt><trkpt lat="43.5036341" lon="11.3521444"><ele>441.0</ele><time>2026-04-03T15:28:22.005Z</time></trkpt><trkpt lat="43.5037045" lon="11.3520967"><ele>441.0</ele><time>2026-04-03T15:28:22.994Z</time></trkpt><trkpt lat="43.5037739" lon="11.3520424"><ele>442.8333333333333</ele><time>2026-04-03T15:28:24.008Z</time></trkpt><trkpt lat="43.5038409" lon="11.3519736"><ele>444.66666666666663</ele><time>2026-04-03T15:28:24.997Z</time></trkpt><trkpt lat="43.5039062" lon="11.3518971"><ele>446.5</ele><time>2026-04-03T15:28:26.021Z</time></trkpt><trkpt lat="43.5039551" lon="11.3518199"><ele>448.3333333333333</ele><time>2026-04-03T15:28:27.009Z</time></trkpt><trkpt lat="43.5040011" lon="11.3517352"><ele>450.16666666666663</ele><time>2026-04-03T15:28:28.004Z</time></trkpt><trkpt lat="43.5040483" lon="11.3516459"><ele>452.0</ele><time>2026-04-03T15:28:29.003Z</time></trkpt><trkpt lat="43.5040946" lon="11.3515569"><ele>451.99999999999994</ele><time>2026-04-03T15:28:30.01Z</time></trkpt><trkpt lat="43.5041396" lon="11.3514634"><ele>452.0</ele><time>2026-04-03T15:28:31.004Z</time></trkpt><trkpt lat="43.5041904" lon="11.3513727"><ele>452.0</ele><time>2026-04-03T15:28:32.016Z</time></trkpt><trkpt lat="43.5042492" lon="11.3512914"><ele>452.0</ele><time>2026-04-03T15:28:33Z</time></trkpt><trkpt lat="43.5043164" lon="11.3512147"><ele>451.99999999999994</ele><time>2026-04-03T15:28:34.008Z</time></trkpt><trkpt lat="43.5043833" lon="11.3511578"><ele>452.0</ele><time>2026-04-03T15:28:35.008Z</time></trkpt><trkpt lat="43.5044533" lon="11.3511092"><ele>452.49999999999994</ele><time>2026-04-03T15:28:36.001Z</time></trkpt><trkpt lat="43.5045188" lon="11.3510566"><ele>453.0</ele><time>2026-04-03T15:28:37.016Z</time></trkpt><trkpt lat="43.5045762" lon="11.3510155"><ele>453.5</ele><time>2026-04-03T15:28:38.01Z</time></trkpt><trkpt lat="43.5046385" lon="11.350959"><ele>454.0</ele><time>2026-04-03T15:28:40.006Z</time></trkpt><trkpt lat="43.5047058" lon="11.3510113"><ele>454.49999999999994</ele><time>2026-04-03T15:28:43.006Z</time></trkpt><trkpt lat="43.5047723" lon="11.3511331"><ele>455.0</ele><time>2026-04-03T15:28:45.01Z</time></trkpt><trkpt lat="43.5048193" lon="11.3511973"><ele>455.0</ele><time>2026-04-03T15:28:46.015Z</time></trkpt><trkpt lat="43.5048755" lon="11.3512561"><ele>455.0</ele><time>2026-04-03T15:28:47.009Z</time></trkpt><trkpt lat="43.5049302" lon="11.3513201"><ele>455.0</ele><time>2026-04-03T15:28:48.014Z</time></trkpt><trkpt lat="43.5049823" lon="11.3513956"><ele>455.0</ele><time>2026-04-03T15:28:49.003Z</time></trkpt><trkpt lat="43.5050203" lon="11.3514762"><ele>455.0</ele><time>2026-04-03T15:28:50.003Z</time></trkpt><trkpt lat="43.5050478" lon="11.3515663"><ele>455.0</ele><time>2026-04-03T15:28:51.006Z</time></trkpt><trkpt lat="43.5050771" lon="11.3516606"><ele>455.0</ele><time>2026-04-03T15:28:51.999Z</time></trkpt><trkpt lat="43.5051112" lon="11.3517566"><ele>456.2857142857143</ele><time>2026-04-03T15:28:53.01Z</time></trkpt><trkpt lat="43.5051411" lon="11.3518547"><ele>457.57142857142856</ele><time>2026-04-03T15:28:54.004Z</time></trkpt><trkpt lat="43.5051684" lon="11.3519565"><ele>458.8571428571429</ele><time>2026-04-03T15:28:54.996Z</time></trkpt><trkpt lat="43.5051981" lon="11.3520487"><ele>460.14285714285717</ele><time>2026-04-03T15:28:56.013Z</time></trkpt><trkpt lat="43.5052387" lon="11.3521242"><ele>461.42857142857144</ele><time>2026-04-03T15:28:57.001Z</time></trkpt><trkpt lat="43.5052918" lon="11.3521813"><ele>462.7142857142858</ele><time>2026-04-03T15:28:58.011Z</time></trkpt><trkpt lat="43.5053503" lon="11.3522279"><ele>464.00000000000006</ele><time>2026-04-03T15:28:59.008Z</time></trkpt><trkpt lat="43.5054091" lon="11.3522716"><ele>466.3333333333333</ele><time>2026-04-03T15:29:00.012Z</time></trkpt><trkpt lat="43.505477" lon="11.3523262"><ele>468.66666666666663</ele><time>2026-04-03T15:29:01.005Z</time></trkpt><trkpt lat="43.50555" lon="11.352381"><ele>471.0</ele><time>2026-04-03T15:29:02.014Z</time></trkpt><trkpt lat="43.505632" lon="11.3524362"><ele>473.33333333333337</ele><time>2026-04-03T15:29:02.999Z</time></trkpt><trkpt lat="43.5057241" lon="11.3524743"><ele>475.6666666666667</ele><time>2026-04-03T15:29:04.008Z</time></trkpt><trkpt lat="43.5058191" lon="11.3524992"><ele>478.0</ele><time>2026-04-03T15:29:05.01Z</time></trkpt><trkpt lat="43.5059116" lon="11.3525269"><ele>478.00000000000006</ele><time>2026-04-03T15:29:06.01Z</time></trkpt><trkpt lat="43.5060024" lon="11.3525507"><ele>478.0</ele><time>2026-04-03T15:29:07.007Z</time></trkpt><trkpt lat="43.5060861" lon="11.3525613"><ele>478.0</ele><time>2026-04-03T15:29:08.016Z</time></trkpt><trkpt lat="43.5061624" lon="11.3525468"><ele>478.0</ele><time>2026-04-03T15:29:09.005Z</time></trkpt><trkpt lat="43.5062355" lon="11.3525166"><ele>478.00000000000006</ele><time>2026-04-03T15:29:10.014Z</time></trkpt><trkpt lat="43.5063171" lon="11.3524999"><ele>478.0</ele><time>2026-04-03T15:29:11.007Z</time></trkpt><trkpt lat="43.5064048" lon="11.3524931"><ele>479.4</ele><time>2026-04-03T15:29:12.018Z</time></trkpt><trkpt lat="43.5064879" lon="11.3524901"><ele>480.79999999999995</ele><time>2026-04-03T15:29:13.016Z</time></trkpt><trkpt lat="43.506592" lon="11.3525475"><ele>482.2</ele><time>2026-04-03T15:29:15.01Z</time></trkpt><trkpt lat="43.5066767" lon="11.3526243"><ele>483.6</ele><time>2026-04-03T15:29:17.006Z</time></trkpt><trkpt lat="43.5067876" lon="11.352688"><ele>485.0</ele><time>2026-04-03T15:29:18.998Z</time></trkpt><trkpt lat="43.5068424" lon="11.3527366"><ele>484.99999999999994</ele><time>2026-04-03T15:29:19.995Z</time></trkpt><trkpt lat="43.5068983" lon="11.3528044"><ele>485.0</ele><time>2026-04-03T15:29:21.016Z</time></trkpt><trkpt lat="43.5069585" lon="11.3528768"><ele>485.0</ele><time>2026-04-03T15:29:22.005Z</time></trkpt><trkpt lat="43.5070235" lon="11.352944"><ele>485.0</ele><time>2026-04-03T15:29:22.997Z</time></trkpt><trkpt lat="43.5070914" lon="11.3529966"><ele>484.99999999999994</ele><time>2026-04-03T15:29:24.003Z</time></trkpt><trkpt lat="43.5071538" lon="11.3530251"><ele>485.0</ele><time>2026-04-03T15:29:25.014Z</time></trkpt><trkpt lat="43.5072858" lon="11.3530504"><ele>486.49999999999994</ele><time>2026-04-03T15:29:27.019Z</time></trkpt><trkpt lat="43.5073576" lon="11.3530788"><ele>488.0</ele><time>2026-04-03T15:29:28.018Z</time></trkpt><trkpt lat="43.5074313" lon="11.3531238"><ele>489.5</ele><time>2026-04-03T15:29:28.998Z</time></trkpt><trkpt lat="43.507505" lon="11.3531885"><ele>491.0</ele><time>2026-04-03T15:29:30.003Z</time></trkpt><trkpt lat="43.5075811" lon="11.3532466"><ele>492.49999999999994</ele><time>2026-04-03T15:29:31.015Z</time></trkpt><trkpt lat="43.5076682" lon="11.3532744"><ele>494.0</ele><time>2026-04-03T15:29:32.012Z</time></trkpt><trkpt lat="43.5077579" lon="11.3532878"><ele>494.0</ele><time>2026-04-03T15:29:33.003Z</time></trkpt><trkpt lat="43.5078513" lon="11.3533034"><ele>494.0</ele><time>2026-04-03T15:29:34.015Z</time></trkpt><trkpt lat="43.5079437" lon="11.3533159"><ele>494.0</ele><time>2026-04-03T15:29:35.017Z</time></trkpt><trkpt lat="43.5080402" lon="11.353315"><ele>494.0</ele><time>2026-04-03T15:29:36.011Z</time></trkpt><trkpt lat="43.5081361" lon="11.353303"><ele>494.0</ele><time>2026-04-03T15:29:37.016Z</time></trkpt><trkpt lat="43.5082239" lon="11.3532912"><ele>494.66666666666663</ele><time>2026-04-03T15:29:38.016Z</time></trkpt><trkpt lat="43.5082975" lon="11.3532946"><ele>495.3333333333333</ele><time>2026-04-03T15:29:39.001Z</time></trkpt><trkpt lat="43.5083718" lon="11.353297"><ele>496.0</ele><time>2026-04-03T15:29:40.017Z</time></trkpt><trkpt lat="43.5084431" lon="11.3532794"><ele>496.66666666666663</ele><time>2026-04-03T15:29:41.013Z</time></trkpt><trkpt lat="43.5085077" lon="11.3532536"><ele>497.3333333333333</ele><time>2026-04-03T15:29:41.992Z</time></trkpt><trkpt lat="43.5086336" lon="11.3532873"><ele>498.0</ele><time>2026-04-03T15:29:44.009Z</time></trkpt><trkpt lat="43.5087055" lon="11.3533125"><ele>500.4</ele><time>2026-04-03T15:29:45.015Z</time></trkpt><trkpt lat="43.5087837" lon="11.353337"><ele>502.79999999999995</ele><time>2026-04-03T15:29:46.012Z</time></trkpt><trkpt lat="43.5088505" lon="11.353365"><ele>505.2</ele><time>2026-04-03T15:29:47.01Z</time></trkpt><trkpt lat="43.508954" lon="11.3534241"><ele>507.6</ele><time>2026-04-03T15:29:49.003Z</time></trkpt><trkpt lat="43.5090365" lon="11.3535235"><ele>510.0</ele><time>2026-04-03T15:29:50.999Z</time></trkpt><trkpt lat="43.5091055" lon="11.3536688"><ele>510.0</ele><time>2026-04-03T15:29:52.999Z</time></trkpt><trkpt lat="43.5091909" lon="11.3537652"><ele>510.0</ele><time>2026-04-03T15:29:55.004Z</time></trkpt><trkpt lat="43.5093008" lon="11.3537531"><ele>510.0</ele><time>2026-04-03T15:29:57.002Z</time></trkpt><trkpt lat="43.5094031" lon="11.3536846"><ele>510.0</ele><time>2026-04-03T15:29:58.999Z</time></trkpt><trkpt lat="43.5094642" lon="11.3536531"><ele>510.0</ele><time>2026-04-03T15:30:00.003Z</time></trkpt><trkpt lat="43.5095358" lon="11.3536369"><ele>512.5</ele><time>2026-04-03T15:30:01.006Z</time></trkpt><trkpt lat="43.5096131" lon="11.3536268"><ele>515.0</ele><time>2026-04-03T15:30:02.007Z</time></trkpt><trkpt lat="43.5096912" lon="11.3536184"><ele>517.5</ele><time>2026-04-03T15:30:02.999Z</time></trkpt><trkpt lat="43.5097749" lon="11.3536187"><ele>520.0</ele><time>2026-04-03T15:30:04.017Z</time></trkpt><trkpt lat="43.5098627" lon="11.3536182"><ele>522.5</ele><time>2026-04-03T15:30:05.002Z</time></trkpt><trkpt lat="43.5099475" lon="11.353609"><ele>525.0</ele><time>2026-04-03T15:30:06.023Z</time></trkpt><trkpt lat="43.5100312" lon="11.3535875"><ele>525.0</ele><time>2026-04-03T15:30:06.992Z</time></trkpt><trkpt lat="43.5101038" lon="11.3535404"><ele>525.0</ele><time>2026-04-03T15:30:08.014Z</time></trkpt><trkpt lat="43.5101743" lon="11.3534927"><ele>525.0</ele><time>2026-04-03T15:30:09.006Z</time></trkpt><trkpt lat="43.5102438" lon="11.3534378"><ele>525.0</ele><time>2026-04-03T15:30:10.002Z</time></trkpt><trkpt lat="43.5103088" lon="11.3533717"><ele>525.0</ele><time>2026-04-03T15:30:11.006Z</time></trkpt><trkpt lat="43.5103651" lon="11.3532879"><ele>525.0</ele><time>2026-04-03T15:30:12.003Z</time></trkpt><trkpt lat="43.5104237" lon="11.3532101"><ele>526.3333333333334</ele><time>2026-04-03T15:30:13.005Z</time></trkpt><trkpt lat="43.5104775" lon="11.3531566"><ele>527.6666666666666</ele><time>2026-04-03T15:30:14.015Z</time></trkpt><trkpt lat="43.5105884" lon="11.3531246"><ele>529.0</ele><time>2026-04-03T15:30:16.014Z</time></trkpt><trkpt lat="43.5106569" lon="11.3531587"><ele>530.3333333333333</ele><time>2026-04-03T15:30:17.01Z</time></trkpt><trkpt lat="43.5107273" lon="11.3532121"><ele>531.6666666666666</ele><time>2026-04-03T15:30:18.005Z</time></trkpt><trkpt lat="43.5107944" lon="11.3532734"><ele>533.0</ele><time>2026-04-03T15:30:18.999Z</time></trkpt><trkpt lat="43.5108715" lon="11.3533339"><ele>533.0</ele><time>2026-04-03T15:30:20.007Z</time></trkpt><trkpt lat="43.5109604" lon="11.3533947"><ele>533.0</ele><time>2026-04-03T15:30:21.003Z</time></trkpt><trkpt lat="43.5110598" lon="11.3534596"><ele>533.0</ele><time>2026-04-03T15:30:22.018Z</time></trkpt><trkpt lat="43.5111614" lon="11.353525"><ele>533.0</ele><time>2026-04-03T15:30:23.019Z</time></trkpt><trkpt lat="43.5112584" lon="11.3535907"><ele>533.0</ele><time>2026-04-03T15:30:24.017Z</time></trkpt><trkpt lat="43.5113569" lon="11.3536538"><ele>533.1999999999999</ele><time>2026-04-03T15:30:25.001Z</time></trkpt><trkpt lat="43.511454" lon="11.3537157"><ele>533.4</ele><time>2026-04-03T15:30:26.016Z</time></trkpt><trkpt lat="43.5115424" lon="11.3537802"><ele>533.5999999999999</ele><time>2026-04-03T15:30:27.001Z</time></trkpt><trkpt lat="43.5116224" lon="11.3538447"><ele>533.8</ele><time>2026-04-03T15:30:28.015Z</time></trkpt><trkpt lat="43.511696" lon="11.3539063"><ele>534.0</ele><time>2026-04-03T15:30:29.011Z</time></trkpt><trkpt lat="43.5117697" lon="11.3539669"><ele>534.6</ele><time>2026-04-03T15:30:30.011Z</time></trkpt><trkpt lat="43.5118549" lon="11.3540155"><ele>535.2</ele><time>2026-04-03T15:30:31.007Z</time></trkpt><trkpt lat="43.5119467" lon="11.3540585"><ele>535.8000000000001</ele><time>2026-04-03T15:30:32.013Z</time></trkpt><trkpt lat="43.5120355" lon="11.3541044"><ele>536.4</ele><time>2026-04-03T15:30:33.001Z</time></trkpt><trkpt lat="43.5121186" lon="11.3541578"><ele>537.0</ele><time>2026-04-03T15:30:34.01Z</time></trkpt><trkpt lat="43.5121964" lon="11.3542096"><ele>539.2</ele><time>2026-04-03T15:30:35.005Z</time></trkpt><trkpt lat="43.5122815" lon="11.3542503"><ele>541.4000000000001</ele><time>2026-04-03T15:30:36Z</time></trkpt><trkpt lat="43.5123813" lon="11.3542871"><ele>543.5999999999999</ele><time>2026-04-03T15:30:37.011Z</time></trkpt><trkpt lat="43.5124806" lon="11.3543316"><ele>545.8</ele><time>2026-04-03T15:30:38.018Z</time></trkpt><trkpt lat="43.5125656" lon="11.354387"><ele>548.0</ele><time>2026-04-03T15:30:39.003Z</time></trkpt><trkpt lat="43.512638" lon="11.3544536"><ele>548.0</ele><time>2026-04-03T15:30:40.019Z</time></trkpt><trkpt lat="43.5127061" lon="11.3545228"><ele>548.0</ele><time>2026-04-03T15:30:41.006Z</time></trkpt><trkpt lat="43.5127773" lon="11.3545793"><ele>548.0</ele><time>2026-04-03T15:30:42.019Z</time></trkpt><trkpt lat="43.5128579" lon="11.3546219"><ele>548.0</ele><time>2026-04-03T15:30:43.008Z</time></trkpt><trkpt lat="43.5129438" lon="11.3546491"><ele>548.0</ele><time>2026-04-03T15:30:44.009Z</time></trkpt><trkpt lat="43.5130346" lon="11.3546753"><ele>548.0</ele><time>2026-04-03T15:30:45.005Z</time></trkpt><trkpt lat="43.513126" lon="11.3546983"><ele>549.0</ele><time>2026-04-03T15:30:46.006Z</time></trkpt><trkpt lat="43.513219" lon="11.3547153"><ele>550.0</ele><time>2026-04-03T15:30:47.001Z</time></trkpt><trkpt lat="43.5133136" lon="11.3547324"><ele>551.0</ele><time>2026-04-03T15:30:48.011Z</time></trkpt><trkpt lat="43.513401" lon="11.3547404"><ele>552.0</ele><time>2026-04-03T15:30:48.995Z</time></trkpt><trkpt lat="43.5134756" lon="11.3547395"><ele>553.0</ele><time>2026-04-03T15:30:50.001Z</time></trkpt><trkpt lat="43.5135904" lon="11.3546954"><ele>553.0</ele><time>2026-04-03T15:30:52.015Z</time></trkpt><trkpt lat="43.5136461" lon="11.3546294"><ele>553.0</ele><time>2026-04-03T15:30:53.005Z</time></trkpt><trkpt lat="43.5137043" lon="11.3545499"><ele>553.0</ele><time>2026-04-03T15:30:54.014Z</time></trkpt><trkpt lat="43.5137721" lon="11.3544703"><ele>553.0</ele><time>2026-04-03T15:30:55.004Z</time></trkpt><trkpt lat="43.5138511" lon="11.354403"><ele>553.0</ele><time>2026-04-03T15:30:56.004Z</time></trkpt><trkpt lat="43.5139407" lon="11.3543584"><ele>553.0</ele><time>2026-04-03T15:30:57.005Z</time></trkpt><trkpt lat="43.514035" lon="11.354326"><ele>551.4</ele><time>2026-04-03T15:30:58.018Z</time></trkpt><trkpt lat="43.5141218" lon="11.3543028"><ele>549.8</ele><time>2026-04-03T15:30:58.993Z</time></trkpt><trkpt lat="43.5142006" lon="11.3542703"><ele>548.2</ele><time>2026-04-03T15:31:00.018Z</time></trkpt><trkpt lat="43.514284" lon="11.3542388"><ele>546.6</ele><time>2026-04-03T15:31:01.01Z</time></trkpt><trkpt lat="43.5143717" lon="11.3542074"><ele>545.0</ele><time>2026-04-03T15:31:02.007Z</time></trkpt><trkpt lat="43.514471" lon="11.3541731"><ele>545.0</ele><time>2026-04-03T15:31:03.003Z</time></trkpt><trkpt lat="43.5145696" lon="11.3541309"><ele>545.0</ele><time>2026-04-03T15:31:04.013Z</time></trkpt><trkpt lat="43.5146621" lon="11.3540904"><ele>545.0</ele><time>2026-04-03T15:31:05.013Z</time></trkpt><trkpt lat="43.5147475" lon="11.3540547"><ele>545.0</ele><time>2026-04-03T15:31:06.011Z</time></trkpt><trkpt lat="43.5148349" lon="11.3540198"><ele>545.0</ele><time>2026-04-03T15:31:07.006Z</time></trkpt><trkpt lat="43.5149246" lon="11.3539866"><ele>545.75</ele><time>2026-04-03T15:31:08.008Z</time></trkpt><trkpt lat="43.5150219" lon="11.3539634"><ele>546.5</ele><time>2026-04-03T15:31:09.004Z</time></trkpt><trkpt lat="43.5151307" lon="11.3539428"><ele>547.25</ele><time>2026-04-03T15:31:10Z</time></trkpt><trkpt lat="43.5152472" lon="11.3539155"><ele>548.0</ele><time>2026-04-03T15:31:10.998Z</time></trkpt><trkpt lat="43.5153754" lon="11.353881"><ele>550.25</ele><time>2026-04-03T15:31:11.992Z</time></trkpt><trkpt lat="43.5155127" lon="11.3538402"><ele>552.5</ele><time>2026-04-03T15:31:13Z</time></trkpt><trkpt lat="43.5156499" lon="11.353795"><ele>554.75</ele><time>2026-04-03T15:31:14.005Z</time></trkpt><trkpt lat="43.5157868" lon="11.3537536"><ele>557.0</ele><time>2026-04-03T15:31:15.004Z</time></trkpt><trkpt lat="43.5159191" lon="11.3537157"><ele>557.0</ele><time>2026-04-03T15:31:16.007Z</time></trkpt><trkpt lat="43.5160529" lon="11.3536802"><ele>557.0</ele><time>2026-04-03T15:31:17.007Z</time></trkpt><trkpt lat="43.5161894" lon="11.3536424"><ele>557.0</ele><time>2026-04-03T15:31:18Z</time></trkpt><trkpt lat="43.5163249" lon="11.3536026"><ele>557.0</ele><time>2026-04-03T15:31:19.003Z</time></trkpt><trkpt lat="43.5164569" lon="11.3535648"><ele>559.5</ele><time>2026-04-03T15:31:20.007Z</time></trkpt><trkpt lat="43.5165841" lon="11.3535323"><ele>562.0</ele><time>2026-04-03T15:31:21.005Z</time></trkpt><trkpt lat="43.5167025" lon="11.3535034"><ele>564.5</ele><time>2026-04-03T15:31:21.998Z</time></trkpt><trkpt lat="43.5168132" lon="11.3534772"><ele>567.0</ele><time>2026-04-03T15:31:22.992Z</time></trkpt><trkpt lat="43.5169062" lon="11.3534496"><ele>567.0</ele><time>2026-04-03T15:31:23.992Z</time></trkpt><trkpt lat="43.5169731" lon="11.353423"><ele>567.0</ele><time>2026-04-03T15:31:25.012Z</time></trkpt><trkpt lat="43.517038" lon="11.3533384"><ele>567.0</ele><time>2026-04-03T15:31:27.007Z</time></trkpt><trkpt lat="43.5170577" lon="11.3531805"><ele>567.0</ele><time>2026-04-03T15:31:29.003Z</time></trkpt><trkpt lat="43.517053" lon="11.3530605"><ele>567.0</ele><time>2026-04-03T15:31:30.006Z</time></trkpt><trkpt lat="43.5170451" lon="11.3529035"><ele>568.0</ele><time>2026-04-03T15:31:31.001Z</time></trkpt><trkpt lat="43.5170369" lon="11.3527317"><ele>569.0</ele><time>2026-04-03T15:31:32.018Z</time></trkpt><trkpt lat="43.5170363" lon="11.3525676"><ele>570.0</ele><time>2026-04-03T15:31:33.004Z</time></trkpt><trkpt lat="43.5170445" lon="11.3524266"><ele>571.0</ele><time>2026-04-03T15:31:34.008Z</time></trkpt><trkpt lat="43.5170636" lon="11.3523093"><ele>572.0</ele><time>2026-04-03T15:31:34.982Z</time></trkpt><trkpt lat="43.5170946" lon="11.3522166"><ele>574.6</ele><time>2026-04-03T15:31:36.006Z</time></trkpt><trkpt lat="43.5171344" lon="11.3521469"><ele>577.2</ele><time>2026-04-03T15:31:37.004Z</time></trkpt><trkpt lat="43.517227" lon="11.3521002"><ele>579.8</ele><time>2026-04-03T15:31:39.015Z</time></trkpt><trkpt lat="43.5173343" lon="11.3521262"><ele>582.4</ele><time>2026-04-03T15:31:41.007Z</time></trkpt><trkpt lat="43.5174455" lon="11.3521672"><ele>585.0</ele><time>2026-04-03T15:31:42.995Z</time></trkpt><trkpt lat="43.5175736" lon="11.3521442"><ele>585.0</ele><time>2026-04-03T15:31:45.01Z</time></trkpt><trkpt lat="43.5176477" lon="11.3521288"><ele>585.0</ele><time>2026-04-03T15:31:46.004Z</time></trkpt><trkpt lat="43.5177275" lon="11.3521093"><ele>585.0</ele><time>2026-04-03T15:31:47.005Z</time></trkpt><trkpt lat="43.5178088" lon="11.3520845"><ele>585.0</ele><time>2026-04-03T15:31:48.006Z</time></trkpt><trkpt lat="43.5178914" lon="11.3520604"><ele>585.0</ele><time>2026-04-03T15:31:49.007Z</time></trkpt><trkpt lat="43.5179754" lon="11.3520464"><ele>585.0</ele><time>2026-04-03T15:31:50.005Z</time></trkpt><trkpt lat="43.5180608" lon="11.3520425"><ele>588.4</ele><time>2026-04-03T15:31:51.006Z</time></trkpt><trkpt lat="43.5181493" lon="11.3520483"><ele>591.8</ele><time>2026-04-03T15:31:52.056Z</time></trkpt><trkpt lat="43.5182408" lon="11.3520456"><ele>595.2</ele><time>2026-04-03T15:31:53.011Z</time></trkpt><trkpt lat="43.5183354" lon="11.3520271"><ele>598.6</ele><time>2026-04-03T15:31:54.005Z</time></trkpt><trkpt lat="43.5184313" lon="11.3519955"><ele>602.0</ele><time>2026-04-03T15:31:54.995Z</time></trkpt><trkpt lat="43.5185279" lon="11.3519599"><ele>602.0</ele><time>2026-04-03T15:31:56.011Z</time></trkpt><trkpt lat="43.5186274" lon="11.3519348"><ele>602.0</ele><time>2026-04-03T15:31:56.997Z</time></trkpt><trkpt lat="43.5187301" lon="11.3519288"><ele>602.0</ele><time>2026-04-03T15:31:58.003Z</time></trkpt><trkpt lat="43.5188295" lon="11.3519401"><ele>602.0</ele><time>2026-04-03T15:31:59.005Z</time></trkpt><trkpt lat="43.5189299" lon="11.3519601"><ele>602.0</ele><time>2026-04-03T15:32:00.012Z</time></trkpt><trkpt lat="43.5190351" lon="11.3519743"><ele>604.8000000000001</ele><time>2026-04-03T15:32:01.002Z</time></trkpt><trkpt lat="43.5191457" lon="11.3519804"><ele>607.6</ele><time>2026-04-03T15:32:02.007Z</time></trkpt><trkpt lat="43.5192575" lon="11.3519829"><ele>610.4000000000001</ele><time>2026-04-03T15:32:03.003Z</time></trkpt><trkpt lat="43.5193695" lon="11.3519848"><ele>613.2</ele><time>2026-04-03T15:32:04.011Z</time></trkpt><trkpt lat="43.5194837" lon="11.3519859"><ele>616.0</ele><time>2026-04-03T15:32:05Z</time></trkpt><trkpt lat="43.5195994" lon="11.3519943"><ele>617.75</ele><time>2026-04-03T15:32:06.014Z</time></trkpt><trkpt lat="43.5197168" lon="11.3520124"><ele>619.5</ele><time>2026-04-03T15:32:07.004Z</time></trkpt><trkpt lat="43.5198344" lon="11.3520466"><ele>621.25</ele><time>2026-04-03T15:32:08.011Z</time></trkpt><trkpt lat="43.5199476" lon="11.3521071"><ele>623.0</ele><time>2026-04-03T15:32:08.999Z</time></trkpt><trkpt lat="43.5200573" lon="11.3521902"><ele>621.25</ele><time>2026-04-03T15:32:10.001Z</time></trkpt><trkpt lat="43.5201597" lon="11.3522958"><ele>619.5</ele><time>2026-04-03T15:32:10.999Z</time></trkpt><trkpt lat="43.5202462" lon="11.3524197"><ele>617.75</ele><time>2026-04-03T15:32:12.025Z</time></trkpt><trkpt lat="43.5203126" lon="11.3525415"><ele>616.0</ele><time>2026-04-03T15:32:12.999Z</time></trkpt><trkpt lat="43.5203714" lon="11.3526543"><ele>616.6</ele><time>2026-04-03T15:32:14.007Z</time></trkpt><trkpt lat="43.5204418" lon="11.3527522"><ele>617.2</ele><time>2026-04-03T15:32:14.997Z</time></trkpt><trkpt lat="43.5205246" lon="11.3528154"><ele>617.8</ele><time>2026-04-03T15:32:16.008Z</time></trkpt><trkpt lat="43.5206253" lon="11.3528492"><ele>618.4</ele><time>2026-04-03T15:32:17Z</time></trkpt><trkpt lat="43.520747" lon="11.3528717"><ele>619.0</ele><time>2026-04-03T15:32:17.996Z</time></trkpt><trkpt lat="43.5208814" lon="11.3528902"><ele>619.0</ele><time>2026-04-03T15:32:18.997Z</time></trkpt><trkpt lat="43.5210198" lon="11.352926"><ele>619.0</ele><time>2026-04-03T15:32:20.003Z</time></trkpt><trkpt lat="43.5211591" lon="11.3529895"><ele>619.0</ele><time>2026-04-03T15:32:20.991Z</time></trkpt><trkpt lat="43.5212919" lon="11.3530721"><ele>619.0</ele><time>2026-04-03T15:32:22.003Z</time></trkpt><trkpt lat="43.5214132" lon="11.3531677"><ele>619.25</ele><time>2026-04-03T15:32:22.999Z</time></trkpt><trkpt lat="43.5215252" lon="11.3532646"><ele>619.5</ele><time>2026-04-03T15:32:24.001Z</time></trkpt><trkpt lat="43.5216289" lon="11.3533588"><ele>619.75</ele><time>2026-04-03T15:32:25Z</time></trkpt><trkpt lat="43.5217238" lon="11.3534545"><ele>620.0</ele><time>2026-04-03T15:32:26.003Z</time></trkpt><trkpt lat="43.5218065" lon="11.3535448"><ele>620.0</ele><time>2026-04-03T15:32:27Z</time></trkpt><trkpt lat="43.5218808" lon="11.3536309"><ele>620.0</ele><time>2026-04-03T15:32:28.009Z</time></trkpt><trkpt lat="43.5219473" lon="11.3537055"><ele>620.0</ele><time>2026-04-03T15:32:29.004Z</time></trkpt><trkpt lat="43.5220072" lon="11.3537696"><ele>620.0</ele><time>2026-04-03T15:32:30.006Z</time></trkpt><trkpt lat="43.5220583" lon="11.3538224"><ele>620.0</ele><time>2026-04-03T15:32:30.987Z</time></trkpt><trkpt lat="43.5221141" lon="11.3538682"><ele>620.0</ele><time>2026-04-03T15:32:32.008Z</time></trkpt><trkpt lat="43.522181" lon="11.3539009"><ele>621.8333333333333</ele><time>2026-04-03T15:32:33.003Z</time></trkpt><trkpt lat="43.522252" lon="11.353933"><ele>623.6666666666666</ele><time>2026-04-03T15:32:34.001Z</time></trkpt><trkpt lat="43.5223222" lon="11.3539655"><ele>625.5</ele><time>2026-04-03T15:32:35.009Z</time></trkpt><trkpt lat="43.5223927" lon="11.3540056"><ele>627.3333333333334</ele><time>2026-04-03T15:32:36.003Z</time></trkpt><trkpt lat="43.5224671" lon="11.3540483"><ele>629.1666666666667</ele><time>2026-04-03T15:32:37.002Z</time></trkpt><trkpt lat="43.5225462" lon="11.3540854"><ele>631.0</ele><time>2026-04-03T15:32:38.018Z</time></trkpt><trkpt lat="43.5226389" lon="11.3541139"><ele>631.0</ele><time>2026-04-03T15:32:38.995Z</time></trkpt><trkpt lat="43.5227342" lon="11.3541303"><ele>631.0</ele><time>2026-04-03T15:32:40Z</time></trkpt><trkpt lat="43.5228306" lon="11.3541294"><ele>631.0</ele><time>2026-04-03T15:32:41.013Z</time></trkpt><trkpt lat="43.5229258" lon="11.3541115"><ele>631.0</ele><time>2026-04-03T15:32:41.999Z</time></trkpt><trkpt lat="43.5230233" lon="11.3540799"><ele>631.0</ele><time>2026-04-03T15:32:42.995Z</time></trkpt><trkpt lat="43.5231197" lon="11.3540235"><ele>632.2</ele><time>2026-04-03T15:32:43.998Z</time></trkpt><trkpt lat="43.5232121" lon="11.3539361"><ele>633.4000000000001</ele><time>2026-04-03T15:32:45.005Z</time></trkpt><trkpt lat="43.5232957" lon="11.3538457"><ele>634.6</ele><time>2026-04-03T15:32:46.013Z</time></trkpt><trkpt lat="43.5233777" lon="11.3537664"><ele>635.8000000000001</ele><time>2026-04-03T15:32:46.998Z</time></trkpt><trkpt lat="43.5234673" lon="11.3536955"><ele>637.0</ele><time>2026-04-03T15:32:47.999Z</time></trkpt><trkpt lat="43.5235668" lon="11.3536377"><ele>634.0</ele><time>2026-04-03T15:32:49.008Z</time></trkpt><trkpt lat="43.5236689" lon="11.3535936"><ele>631.0</ele><time>2026-04-03T15:32:49.997Z</time></trkpt><trkpt lat="43.5237716" lon="11.3535588"><ele>628.0</ele><time>2026-04-03T15:32:50.999Z</time></trkpt><trkpt lat="43.5238683" lon="11.3535475"><ele>625.0</ele><time>2026-04-03T15:32:51.986Z</time></trkpt><trkpt lat="43.5239463" lon="11.3535707"><ele>622.0</ele><time>2026-04-03T15:32:52.988Z</time></trkpt><trkpt lat="43.524002" lon="11.3536455"><ele>622.0</ele><time>2026-04-03T15:32:54.002Z</time></trkpt><trkpt lat="43.5240449" lon="11.3537426"><ele>622.0</ele><time>2026-04-03T15:32:54.992Z</time></trkpt><trkpt lat="43.5240767" lon="11.3538542"><ele>622.0</ele><time>2026-04-03T15:32:56.001Z</time></trkpt><trkpt lat="43.5241035" lon="11.3539779"><ele>622.0</ele><time>2026-04-03T15:32:57.004Z</time></trkpt><trkpt lat="43.5241209" lon="11.3541105"><ele>622.0</ele><time>2026-04-03T15:32:57.999Z</time></trkpt><trkpt lat="43.524132" lon="11.3542461"><ele>624.8000000000001</ele><time>2026-04-03T15:32:59.015Z</time></trkpt><trkpt lat="43.5241452" lon="11.3543761"><ele>627.6</ele><time>2026-04-03T15:33:00.01Z</time></trkpt><trkpt lat="43.5241681" lon="11.3545018"><ele>630.4000000000001</ele><time>2026-04-03T15:33:01.004Z</time></trkpt><trkpt lat="43.5242123" lon="11.3546203"><ele>633.2</ele><time>2026-04-03T15:33:02.013Z</time></trkpt><trkpt lat="43.5242833" lon="11.3547087"><ele>636.0</ele><time>2026-04-03T15:33:03.005Z</time></trkpt><trkpt lat="43.5243857" lon="11.3547647"><ele>638.25</ele><time>2026-04-03T15:33:03.999Z</time></trkpt><trkpt lat="43.5244988" lon="11.3548014"><ele>640.5</ele><time>2026-04-03T15:33:05.002Z</time></trkpt><trkpt lat="43.5246121" lon="11.354842"><ele>642.75</ele><time>2026-04-03T15:33:06.007Z</time></trkpt><trkpt lat="43.5247196" lon="11.3548892"><ele>645.0</ele><time>2026-04-03T15:33:07.003Z</time></trkpt><trkpt lat="43.524832" lon="11.3549308"><ele>645.0</ele><time>2026-04-03T15:33:08.005Z</time></trkpt><trkpt lat="43.5249484" lon="11.3549615"><ele>645.0</ele><time>2026-04-03T15:33:08.998Z</time></trkpt><trkpt lat="43.5250748" lon="11.3549696"><ele>645.0</ele><time>2026-04-03T15:33:10.007Z</time></trkpt><trkpt lat="43.5251953" lon="11.3549631"><ele>645.0</ele><time>2026-04-03T15:33:11.002Z</time></trkpt><trkpt lat="43.5253027" lon="11.354959"><ele>645.0</ele><time>2026-04-03T15:33:12.012Z</time></trkpt><trkpt lat="43.525414" lon="11.3549826"><ele>645.0</ele><time>2026-04-03T15:33:12.998Z</time></trkpt><trkpt lat="43.5255294" lon="11.3550428"><ele>645.0</ele><time>2026-04-03T15:33:14.001Z</time></trkpt><trkpt lat="43.5256467" lon="11.3551075"><ele>645.0</ele><time>2026-04-03T15:33:15.007Z</time></trkpt><trkpt lat="43.5257667" lon="11.3551729"><ele>645.0</ele><time>2026-04-03T15:33:16.004Z</time></trkpt><trkpt lat="43.5258889" lon="11.3552428"><ele>645.0</ele><time>2026-04-03T15:33:17.003Z</time></trkpt><trkpt lat="43.5260117" lon="11.3553158"><ele>645.0</ele><time>2026-04-03T15:33:18.014Z</time></trkpt><trkpt lat="43.5261302" lon="11.3553806"><ele>645.0</ele><time>2026-04-03T15:33:19.003Z</time></trkpt><trkpt lat="43.5262509" lon="11.3554424"><ele>644.75</ele><time>2026-04-03T15:33:20.007Z</time></trkpt><trkpt lat="43.5263696" lon="11.3555096"><ele>644.5</ele><time>2026-04-03T15:33:20.994Z</time></trkpt><trkpt lat="43.526487" lon="11.355573"><ele>644.25</ele><time>2026-04-03T15:33:22.001Z</time></trkpt><trkpt lat="43.5266029" lon="11.3556348"><ele>644.0</ele><time>2026-04-03T15:33:22.997Z</time></trkpt><trkpt lat="43.5267142" lon="11.355697"><ele>648.0</ele><time>2026-04-03T15:33:24.006Z</time></trkpt><trkpt lat="43.5268219" lon="11.3557506"><ele>652.0</ele><time>2026-04-03T15:33:25.001Z</time></trkpt><trkpt lat="43.5269658" lon="11.3557771"><ele>656.0</ele><time>2026-04-03T15:33:25.996Z</time></trkpt><trkpt lat="43.5270776" lon="11.3557828"><ele>660.0</ele><time>2026-04-03T15:33:27.002Z</time></trkpt><trkpt lat="43.5271941" lon="11.355769"><ele>660.0</ele><time>2026-04-03T15:33:27.995Z</time></trkpt><trkpt lat="43.5273122" lon="11.3557568"><ele>660.0</ele><time>2026-04-03T15:33:28.999Z</time></trkpt><trkpt lat="43.5274369" lon="11.3557536"><ele>660.0</ele><time>2026-04-03T15:33:30.001Z</time></trkpt><trkpt lat="43.5275577" lon="11.3557554"><ele>660.0</ele><time>2026-04-03T15:33:30.987Z</time></trkpt><trkpt lat="43.5276807" lon="11.355776"><ele>660.0</ele><time>2026-04-03T15:33:32.009Z</time></trkpt><trkpt lat="43.5278009" lon="11.3557812"><ele>660.0</ele><time>2026-04-03T15:33:32.992Z</time></trkpt><trkpt lat="43.5279186" lon="11.3557936"><ele>660.0</ele><time>2026-04-03T15:33:34.002Z</time></trkpt><trkpt lat="43.5280284" lon="11.3558045"><ele>660.0</ele><time>2026-04-03T15:33:35.005Z</time></trkpt><trkpt lat="43.5281204" lon="11.3558121"><ele>660.0</ele><time>2026-04-03T15:33:36Z</time></trkpt><trkpt lat="43.5281977" lon="11.3558052"><ele>660.6666666666666</ele><time>2026-04-03T15:33:36.99Z</time></trkpt><trkpt lat="43.5282707" lon="11.3557841"><ele>661.3333333333334</ele><time>2026-04-03T15:33:37.999Z</time></trkpt><trkpt lat="43.5283461" lon="11.3557499"><ele>662.0</ele><time>2026-04-03T15:33:38.988Z</time></trkpt><trkpt lat="43.528428" lon="11.3557011"><ele>662.6666666666667</ele><time>2026-04-03T15:33:40.005Z</time></trkpt><trkpt lat="43.5285161" lon="11.3556393"><ele>663.3333333333334</ele><time>2026-04-03T15:33:41Z</time></trkpt><trkpt lat="43.528609" lon="11.3555726"><ele>664.0</ele><time>2026-04-03T15:33:41.998Z</time></trkpt><trkpt lat="43.5287045" lon="11.3555057"><ele>662.4000000000001</ele><time>2026-04-03T15:33:42.996Z</time></trkpt><trkpt lat="43.5288027" lon="11.3554428"><ele>660.8</ele><time>2026-04-03T15:33:44.002Z</time></trkpt><trkpt lat="43.5289066" lon="11.3553858"><ele>659.2</ele><time>2026-04-03T15:33:44.993Z</time></trkpt><trkpt lat="43.5290153" lon="11.3553472"><ele>657.5999999999999</ele><time>2026-04-03T15:33:46.007Z</time></trkpt><trkpt lat="43.5291256" lon="11.3553507"><ele>656.0</ele><time>2026-04-03T15:33:47Z</time></trkpt><trkpt lat="43.52923" lon="11.355378"><ele>656.0</ele><time>2026-04-03T15:33:48.007Z</time></trkpt><trkpt lat="43.5293366" lon="11.3554124"><ele>656.0</ele><time>2026-04-03T15:33:49.004Z</time></trkpt><trkpt lat="43.5294468" lon="11.3554465"><ele>656.0</ele><time>2026-04-03T15:33:50.01Z</time></trkpt><trkpt lat="43.5295602" lon="11.3554809"><ele>656.0</ele><time>2026-04-03T15:33:51Z</time></trkpt><trkpt lat="43.5296737" lon="11.3555133"><ele>658.5</ele><time>2026-04-03T15:33:51.999Z</time></trkpt><trkpt lat="43.5297846" lon="11.3555565"><ele>661.0</ele><time>2026-04-03T15:33:52.994Z</time></trkpt><trkpt lat="43.5298978" lon="11.3556074"><ele>663.5</ele><time>2026-04-03T15:33:53.998Z</time></trkpt><trkpt lat="43.530015" lon="11.3556662"><ele>666.0</ele><time>2026-04-03T15:33:54.998Z</time></trkpt><trkpt lat="43.5301291" lon="11.355727"><ele>666.0</ele><time>2026-04-03T15:33:55.998Z</time></trkpt><trkpt lat="43.53024" lon="11.3557798"><ele>666.0</ele><time>2026-04-03T15:33:56.999Z</time></trkpt><trkpt lat="43.5303447" lon="11.3558325"><ele>666.0</ele><time>2026-04-03T15:33:57.985Z</time></trkpt><trkpt lat="43.5304441" lon="11.3558717"><ele>666.0</ele><time>2026-04-03T15:33:58.998Z</time></trkpt><trkpt lat="43.5305406" lon="11.3559012"><ele>666.0</ele><time>2026-04-03T15:34:00.005Z</time></trkpt><trkpt lat="43.5306361" lon="11.3559012"><ele>665.5999999999999</ele><time>2026-04-03T15:34:00.99Z</time></trkpt><trkpt lat="43.5307249" lon="11.3558647"><ele>665.2</ele><time>2026-04-03T15:34:02.012Z</time></trkpt><trkpt lat="43.5308055" lon="11.355794"><ele>664.8</ele><time>2026-04-03T15:34:02.995Z</time></trkpt><trkpt lat="43.5308823" lon="11.35568"><ele>664.4000000000001</ele><time>2026-04-03T15:34:04.007Z</time></trkpt><trkpt lat="43.5309545" lon="11.3555674"><ele>664.0</ele><time>2026-04-03T15:34:05.004Z</time></trkpt><trkpt lat="43.5310117" lon="11.355443"><ele>663.5</ele><time>2026-04-03T15:34:06.005Z</time></trkpt><trkpt lat="43.5310586" lon="11.3553003"><ele>663.0</ele><time>2026-04-03T15:34:07Z</time></trkpt><trkpt lat="43.5311096" lon="11.3551568"><ele>662.5</ele><time>2026-04-03T15:34:08.005Z</time></trkpt><trkpt lat="43.5311613" lon="11.3550133"><ele>662.0</ele><time>2026-04-03T15:34:09.014Z</time></trkpt><trkpt lat="43.5312073" lon="11.3548704"><ele>662.0</ele><time>2026-04-03T15:34:10.001Z</time></trkpt><trkpt lat="43.5312489" lon="11.3547234"><ele>662.0</ele><time>2026-04-03T15:34:11.002Z</time></trkpt><trkpt lat="43.5312873" lon="11.3545712"><ele>662.0</ele><time>2026-04-03T15:34:12.009Z</time></trkpt><trkpt lat="43.5313269" lon="11.3544189"><ele>662.0</ele><time>2026-04-03T15:34:13.011Z</time></trkpt><trkpt lat="43.5313677" lon="11.3542692"><ele>662.0</ele><time>2026-04-03T15:34:14.013Z</time></trkpt><trkpt lat="43.5314099" lon="11.3541196"><ele>662.0</ele><time>2026-04-03T15:34:14.998Z</time></trkpt><trkpt lat="43.5314475" lon="11.3539689"><ele>662.0</ele><time>2026-04-03T15:34:16.001Z</time></trkpt><trkpt lat="43.5314766" lon="11.3538061"><ele>662.0</ele><time>2026-04-03T15:34:16.999Z</time></trkpt><trkpt lat="43.5314981" lon="11.3536369"><ele>662.75</ele><time>2026-04-03T15:34:18.012Z</time></trkpt><trkpt lat="43.5315162" lon="11.3534655"><ele>663.5</ele><time>2026-04-03T15:34:19.002Z</time></trkpt><trkpt lat="43.5315362" lon="11.3532879"><ele>664.25</ele><time>2026-04-03T15:34:20.009Z</time></trkpt><trkpt lat="43.531557" lon="11.3531092"><ele>665.0</ele><time>2026-04-03T15:34:21Z</time></trkpt><trkpt lat="43.5315747" lon="11.3529349"><ele>665.75</ele><time>2026-04-03T15:34:22Z</time></trkpt><trkpt lat="43.531593" lon="11.3527568"><ele>666.5</ele><time>2026-04-03T15:34:23.001Z</time></trkpt><trkpt lat="43.5316111" lon="11.3525806"><ele>667.25</ele><time>2026-04-03T15:34:24Z</time></trkpt><trkpt lat="43.5316304" lon="11.3524095"><ele>668.0</ele><time>2026-04-03T15:34:25.008Z</time></trkpt><trkpt lat="43.5316494" lon="11.3522396"><ele>667.75</ele><time>2026-04-03T15:34:26.006Z</time></trkpt><trkpt lat="43.5316655" lon="11.3520752"><ele>667.5</ele><time>2026-04-03T15:34:27.013Z</time></trkpt><trkpt lat="43.5316848" lon="11.3519111"><ele>667.25</ele><time>2026-04-03T15:34:28.014Z</time></trkpt><trkpt lat="43.5317073" lon="11.3517487"><ele>667.0</ele><time>2026-04-03T15:34:29.01Z</time></trkpt><trkpt lat="43.5317257" lon="11.3515867"><ele>667.0</ele><time>2026-04-03T15:34:30.007Z</time></trkpt><trkpt lat="43.5317478" lon="11.3514273"><ele>667.0</ele><time>2026-04-03T15:34:30.997Z</time></trkpt><trkpt lat="43.5317657" lon="11.3512681"><ele>667.0</ele><time>2026-04-03T15:34:32.009Z</time></trkpt><trkpt lat="43.5317775" lon="11.3511216"><ele>667.0</ele><time>2026-04-03T15:34:32.999Z</time></trkpt><trkpt lat="43.5317891" lon="11.3509765"><ele>667.0</ele><time>2026-04-03T15:34:34.006Z</time></trkpt><trkpt lat="43.5318069" lon="11.3508247"><ele>666.8</ele><time>2026-04-03T15:34:35.007Z</time></trkpt><trkpt lat="43.5318382" lon="11.3506745"><ele>666.6</ele><time>2026-04-03T15:34:36.01Z</time></trkpt><trkpt lat="43.53188" lon="11.350527"><ele>666.4</ele><time>2026-04-03T15:34:37.001Z</time></trkpt><trkpt lat="43.5319285" lon="11.3503958"><ele>666.1999999999999</ele><time>2026-04-03T15:34:38.011Z</time></trkpt><trkpt lat="43.5319899" lon="11.35028"><ele>666.0</ele><time>2026-04-03T15:34:39.014Z</time></trkpt><trkpt lat="43.5320608" lon="11.3501677"><ele>666.0</ele><time>2026-04-03T15:34:40.01Z</time></trkpt><trkpt lat="43.5321393" lon="11.3500672"><ele>666.0</ele><time>2026-04-03T15:34:41.002Z</time></trkpt><trkpt lat="43.5322273" lon="11.3499746"><ele>666.0</ele><time>2026-04-03T15:34:42.006Z</time></trkpt><trkpt lat="43.5323224" lon="11.3498867"><ele>666.0</ele><time>2026-04-03T15:34:43.004Z</time></trkpt><trkpt lat="43.5324207" lon="11.3498036"><ele>666.0</ele><time>2026-04-03T15:34:44.009Z</time></trkpt><trkpt lat="43.5325308" lon="11.3497137"><ele>664.25</ele><time>2026-04-03T15:34:45.002Z</time></trkpt><trkpt lat="43.5326402" lon="11.3496188"><ele>662.5</ele><time>2026-04-03T15:34:46.007Z</time></trkpt><trkpt lat="43.5327517" lon="11.3495264"><ele>660.75</ele><time>2026-04-03T15:34:46.998Z</time></trkpt><trkpt lat="43.5328645" lon="11.349434"><ele>659.0</ele><time>2026-04-03T15:34:48.012Z</time></trkpt><trkpt lat="43.5329796" lon="11.3493399"><ele>659.0</ele><time>2026-04-03T15:34:49.004Z</time></trkpt><trkpt lat="43.5330946" lon="11.3492441"><ele>659.0</ele><time>2026-04-03T15:34:50.002Z</time></trkpt><trkpt lat="43.5332139" lon="11.3491485"><ele>659.0</ele><time>2026-04-03T15:34:51.004Z</time></trkpt><trkpt lat="43.5333327" lon="11.3490542"><ele>659.0</ele><time>2026-04-03T15:34:52.001Z</time></trkpt><trkpt lat="43.5334513" lon="11.3489489"><ele>657.25</ele><time>2026-04-03T15:34:53.009Z</time></trkpt><trkpt lat="43.5335731" lon="11.3488454"><ele>655.5</ele><time>2026-04-03T15:34:53.997Z</time></trkpt><trkpt lat="43.5336992" lon="11.3487366"><ele>653.75</ele><time>2026-04-03T15:34:54.99Z</time></trkpt><trkpt lat="43.533828" lon="11.3486304"><ele>652.0</ele><time>2026-04-03T15:34:55.996Z</time></trkpt><trkpt lat="43.5339535" lon="11.3485296"><ele>652.0</ele><time>2026-04-03T15:34:56.995Z</time></trkpt><trkpt lat="43.5340714" lon="11.3484372"><ele>652.0</ele><time>2026-04-03T15:34:58.002Z</time></trkpt><trkpt lat="43.5341835" lon="11.3483464"><ele>652.0</ele><time>2026-04-03T15:34:58.998Z</time></trkpt><trkpt lat="43.5342969" lon="11.3482569"><ele>652.0</ele><time>2026-04-03T15:35:00.004Z</time></trkpt><trkpt lat="43.5344096" lon="11.3481628"><ele>652.0</ele><time>2026-04-03T15:35:01.011Z</time></trkpt><trkpt lat="43.5345264" lon="11.3480666"><ele>652.0</ele><time>2026-04-03T15:35:02.014Z</time></trkpt><trkpt lat="43.5346486" lon="11.347965"><ele>652.0</ele><time>2026-04-03T15:35:02.997Z</time></trkpt><trkpt lat="43.5347717" lon="11.3478542"><ele>652.0</ele><time>2026-04-03T15:35:04.014Z</time></trkpt><trkpt lat="43.5348929" lon="11.3477477"><ele>652.75</ele><time>2026-04-03T15:35:04.997Z</time></trkpt><trkpt lat="43.5350081" lon="11.3476496"><ele>653.5</ele><time>2026-04-03T15:35:06.013Z</time></trkpt><trkpt lat="43.5351203" lon="11.3475515"><ele>654.25</ele><time>2026-04-03T15:35:07.004Z</time></trkpt><trkpt lat="43.5352277" lon="11.347455"><ele>655.0</ele><time>2026-04-03T15:35:08.003Z</time></trkpt><trkpt lat="43.5353283" lon="11.3473568"><ele>653.0</ele><time>2026-04-03T15:35:09.004Z</time></trkpt><trkpt lat="43.535422" lon="11.3472613"><ele>651.0</ele><time>2026-04-03T15:35:10.017Z</time></trkpt><trkpt lat="43.5355149" lon="11.3471651"><ele>649.0</ele><time>2026-04-03T15:35:11.002Z</time></trkpt><trkpt lat="43.535614" lon="11.3470706"><ele>647.0</ele><time>2026-04-03T15:35:12.012Z</time></trkpt><trkpt lat="43.5357132" lon="11.3469774"><ele>647.0</ele><time>2026-04-03T15:35:12.991Z</time></trkpt><trkpt lat="43.5358" lon="11.3468966"><ele>647.0</ele><time>2026-04-03T15:35:14.021Z</time></trkpt><trkpt lat="43.5358702" lon="11.3468107"><ele>647.0</ele><time>2026-04-03T15:35:15.005Z</time></trkpt><trkpt lat="43.5359294" lon="11.3467035"><ele>647.0</ele><time>2026-04-03T15:35:16.014Z</time></trkpt><trkpt lat="43.5359824" lon="11.3465672"><ele>647.0</ele><time>2026-04-03T15:35:17.004Z</time></trkpt><trkpt lat="43.5360314" lon="11.3464095"><ele>646.25</ele><time>2026-04-03T15:35:18.005Z</time></trkpt><trkpt lat="43.5360788" lon="11.3462358"><ele>645.5</ele><time>2026-04-03T15:35:19.004Z</time></trkpt><trkpt lat="43.5361289" lon="11.3460682"><ele>644.75</ele><time>2026-04-03T15:35:20.015Z</time></trkpt><trkpt lat="43.5361804" lon="11.3458929"><ele>644.0</ele><time>2026-04-03T15:35:21.01Z</time></trkpt><trkpt lat="43.5362345" lon="11.3457181"><ele>642.5</ele><time>2026-04-03T15:35:22.013Z</time></trkpt><trkpt lat="43.5362897" lon="11.3455467"><ele>641.0</ele><time>2026-04-03T15:35:23.008Z</time></trkpt><trkpt lat="43.5363458" lon="11.3453835"><ele>639.5</ele><time>2026-04-03T15:35:24.018Z</time></trkpt><trkpt lat="43.5364011" lon="11.3452298"><ele>638.0</ele><time>2026-04-03T15:35:25.005Z</time></trkpt><trkpt lat="43.5364501" lon="11.3450804"><ele>638.0</ele><time>2026-04-03T15:35:26.013Z</time></trkpt><trkpt lat="43.5365055" lon="11.3449252"><ele>638.0</ele><time>2026-04-03T15:35:27.004Z</time></trkpt><trkpt lat="43.5365586" lon="11.3447718"><ele>638.0</ele><time>2026-04-03T15:35:28.009Z</time></trkpt><trkpt lat="43.5366062" lon="11.3446197"><ele>638.0</ele><time>2026-04-03T15:35:29.004Z</time></trkpt><trkpt lat="43.5366515" lon="11.3444801"><ele>637.0</ele><time>2026-04-03T15:35:30Z</time></trkpt><trkpt lat="43.536694" lon="11.3443501"><ele>636.0</ele><time>2026-04-03T15:35:31.001Z</time></trkpt><trkpt lat="43.5367306" lon="11.3442282"><ele>635.0</ele><time>2026-04-03T15:35:32.006Z</time></trkpt><trkpt lat="43.5367708" lon="11.3440968"><ele>634.0</ele><time>2026-04-03T15:35:33.02Z</time></trkpt><trkpt lat="43.5368164" lon="11.3439593"><ele>633.0</ele><time>2026-04-03T15:35:34.009Z</time></trkpt><trkpt lat="43.5368642" lon="11.343814"><ele>631.4</ele><time>2026-04-03T15:35:35.017Z</time></trkpt><trkpt lat="43.5369106" lon="11.3436707"><ele>629.8</ele><time>2026-04-03T15:35:36.013Z</time></trkpt><trkpt lat="43.5369485" lon="11.3435303"><ele>628.2</ele><time>2026-04-03T15:35:37.002Z</time></trkpt><trkpt lat="43.5369799" lon="11.3433949"><ele>626.6</ele><time>2026-04-03T15:35:38.015Z</time></trkpt><trkpt lat="43.536997" lon="11.3432515"><ele>625.0</ele><time>2026-04-03T15:35:39.002Z</time></trkpt><trkpt lat="43.5370006" lon="11.3430977"><ele>622.4</ele><time>2026-04-03T15:35:40.01Z</time></trkpt><trkpt lat="43.5369963" lon="11.3429411"><ele>619.8</ele><time>2026-04-03T15:35:41.007Z</time></trkpt><trkpt lat="43.5369962" lon="11.3427903"><ele>617.2</ele><time>2026-04-03T15:35:42.014Z</time></trkpt><trkpt lat="43.5369957" lon="11.342645"><ele>614.6</ele><time>2026-04-03T15:35:43.011Z</time></trkpt><trkpt lat="43.5369978" lon="11.3425033"><ele>612.0</ele><time>2026-04-03T15:35:44.015Z</time></trkpt><trkpt lat="43.5369979" lon="11.3423582"><ele>610.0</ele><time>2026-04-03T15:35:45.004Z</time></trkpt><trkpt lat="43.5369968" lon="11.3422042"><ele>608.0</ele><time>2026-04-03T15:35:46.009Z</time></trkpt><trkpt lat="43.5369943" lon="11.3420425"><ele>606.0</ele><time>2026-04-03T15:35:47.012Z</time></trkpt><trkpt lat="43.5369854" lon="11.3418882"><ele>604.0</ele><time>2026-04-03T15:35:48.017Z</time></trkpt><trkpt lat="43.5369781" lon="11.3417434"><ele>602.0</ele><time>2026-04-03T15:35:49.015Z</time></trkpt><trkpt lat="43.5369708" lon="11.3416087"><ele>602.0</ele><time>2026-04-03T15:35:50.012Z</time></trkpt><trkpt lat="43.5369567" lon="11.3414893"><ele>602.0</ele><time>2026-04-03T15:35:51.007Z</time></trkpt><trkpt lat="43.536926" lon="11.3413865"><ele>602.0</ele><time>2026-04-03T15:35:52.015Z</time></trkpt><trkpt lat="43.5368678" lon="11.3413065"><ele>602.0</ele><time>2026-04-03T15:35:53.004Z</time></trkpt><trkpt lat="43.5367914" lon="11.3412546"><ele>602.0</ele><time>2026-04-03T15:35:54.013Z</time></trkpt><trkpt lat="43.5366982" lon="11.3412118"><ele>602.0</ele><time>2026-04-03T15:35:55Z</time></trkpt><trkpt lat="43.5365985" lon="11.3411599"><ele>604.25</ele><time>2026-04-03T15:35:56.032Z</time></trkpt><trkpt lat="43.5364998" lon="11.3410954"><ele>606.5</ele><time>2026-04-03T15:35:57.006Z</time></trkpt><trkpt lat="43.5364043" lon="11.3410221"><ele>608.75</ele><time>2026-04-03T15:35:58.008Z</time></trkpt><trkpt lat="43.5363099" lon="11.3409411"><ele>611.0</ele><time>2026-04-03T15:35:59.001Z</time></trkpt><trkpt lat="43.5362066" lon="11.3408495"><ele>605.0</ele><time>2026-04-03T15:36:00.026Z</time></trkpt><trkpt lat="43.5360984" lon="11.340767"><ele>599.0</ele><time>2026-04-03T15:36:01.009Z</time></trkpt><trkpt lat="43.5359877" lon="11.3406926"><ele>593.0</ele><time>2026-04-03T15:36:02.01Z</time></trkpt><trkpt lat="43.5358773" lon="11.3406244"><ele>587.0</ele><time>2026-04-03T15:36:03.008Z</time></trkpt><trkpt lat="43.5357708" lon="11.340556"><ele>584.25</ele><time>2026-04-03T15:36:04.015Z</time></trkpt><trkpt lat="43.5356658" lon="11.3404816"><ele>581.5</ele><time>2026-04-03T15:36:05Z</time></trkpt><trkpt lat="43.5355663" lon="11.3404017"><ele>578.75</ele><time>2026-04-03T15:36:06.002Z</time></trkpt><trkpt lat="43.5354701" lon="11.3403262"><ele>576.0</ele><time>2026-04-03T15:36:07Z</time></trkpt><trkpt lat="43.5353762" lon="11.3402491"><ele>576.0</ele><time>2026-04-03T15:36:08.018Z</time></trkpt><trkpt lat="43.5352864" lon="11.3401611"><ele>576.0</ele><time>2026-04-03T15:36:09Z</time></trkpt><trkpt lat="43.5352024" lon="11.3400639"><ele>576.0</ele><time>2026-04-03T15:36:09.998Z</time></trkpt><trkpt lat="43.5351282" lon="11.3399557"><ele>576.0</ele><time>2026-04-03T15:36:10.996Z</time></trkpt><trkpt lat="43.5350602" lon="11.3398351"><ele>576.0</ele><time>2026-04-03T15:36:12.02Z</time></trkpt><trkpt lat="43.534996" lon="11.3396996"><ele>577.6</ele><time>2026-04-03T15:36:13Z</time></trkpt><trkpt lat="43.5349354" lon="11.3395619"><ele>579.2</ele><time>2026-04-03T15:36:14.032Z</time></trkpt><trkpt lat="43.5348756" lon="11.3394239"><ele>580.8</ele><time>2026-04-03T15:36:15Z</time></trkpt><trkpt lat="43.5348209" lon="11.3392933"><ele>582.4</ele><time>2026-04-03T15:36:16.016Z</time></trkpt><trkpt lat="43.534771" lon="11.3391639"><ele>584.0</ele><time>2026-04-03T15:36:17Z</time></trkpt><trkpt lat="43.5347157" lon="11.3390324"><ele>584.0</ele><time>2026-04-03T15:36:18.01Z</time></trkpt><trkpt lat="43.5346561" lon="11.3389022"><ele>584.0</ele><time>2026-04-03T15:36:19.01Z</time></trkpt><trkpt lat="43.5345929" lon="11.3387766"><ele>584.0</ele><time>2026-04-03T15:36:20.015Z</time></trkpt><trkpt lat="43.5345309" lon="11.3386561"><ele>584.0</ele><time>2026-04-03T15:36:20.997Z</time></trkpt><trkpt lat="43.5344754" lon="11.3385403"><ele>584.0</ele><time>2026-04-03T15:36:22.001Z</time></trkpt><trkpt lat="43.534423" lon="11.33843"><ele>579.3333333333333</ele><time>2026-04-03T15:36:23.008Z</time></trkpt><trkpt lat="43.5343752" lon="11.3383299"><ele>574.6666666666666</ele><time>2026-04-03T15:36:24.012Z</time></trkpt><trkpt lat="43.5343377" lon="11.3382422"><ele>570.0</ele><time>2026-04-03T15:36:24.996Z</time></trkpt><trkpt lat="43.5343129" lon="11.3381584"><ele>565.3333333333334</ele><time>2026-04-03T15:36:25.996Z</time></trkpt><trkpt lat="43.5343098" lon="11.338061"><ele>560.6666666666667</ele><time>2026-04-03T15:36:27Z</time></trkpt><trkpt lat="43.5343335" lon="11.3379609"><ele>556.0</ele><time>2026-04-03T15:36:28.013Z</time></trkpt><trkpt lat="43.5343865" lon="11.3378682"><ele>556.6</ele><time>2026-04-03T15:36:28.991Z</time></trkpt><trkpt lat="43.5344653" lon="11.3377835"><ele>557.2</ele><time>2026-04-03T15:36:29.998Z</time></trkpt><trkpt lat="43.5345476" lon="11.3377084"><ele>557.8</ele><time>2026-04-03T15:36:30.997Z</time></trkpt><trkpt lat="43.5346262" lon="11.3376363"><ele>558.4</ele><time>2026-04-03T15:36:31.998Z</time></trkpt><trkpt lat="43.5347038" lon="11.3375638"><ele>559.0</ele><time>2026-04-03T15:36:33.005Z</time></trkpt><trkpt lat="43.5347826" lon="11.3374958"><ele>559.0</ele><time>2026-04-03T15:36:34.007Z</time></trkpt><trkpt lat="43.5348653" lon="11.3374272"><ele>559.0</ele><time>2026-04-03T15:36:34.996Z</time></trkpt><trkpt lat="43.5349524" lon="11.337363"><ele>559.0</ele><time>2026-04-03T15:36:35.999Z</time></trkpt><trkpt lat="43.5350376" lon="11.3372988"><ele>559.0</ele><time>2026-04-03T15:36:36.999Z</time></trkpt><trkpt lat="43.5351167" lon="11.33723"><ele>559.0</ele><time>2026-04-03T15:36:38.018Z</time></trkpt><trkpt lat="43.5351982" lon="11.3371594"><ele>556.2</ele><time>2026-04-03T15:36:38.996Z</time></trkpt><trkpt lat="43.5352904" lon="11.3370799"><ele>553.4</ele><time>2026-04-03T15:36:40.013Z</time></trkpt><trkpt lat="43.5353865" lon="11.3369998"><ele>550.6</ele><time>2026-04-03T15:36:41.001Z</time></trkpt><trkpt lat="43.5354836" lon="11.3369263"><ele>547.8</ele><time>2026-04-03T15:36:41.997Z</time></trkpt><trkpt lat="43.535577" lon="11.3368489"><ele>545.0</ele><time>2026-04-03T15:36:42.996Z</time></trkpt><trkpt lat="43.5356595" lon="11.3367607"><ele>545.0</ele><time>2026-04-03T15:36:44Z</time></trkpt><trkpt lat="43.5357201" lon="11.3366598"><ele>545.0</ele><time>2026-04-03T15:36:44.995Z</time></trkpt><trkpt lat="43.5357497" lon="11.3365441"><ele>545.0</ele><time>2026-04-03T15:36:45.991Z</time></trkpt><trkpt lat="43.5357583" lon="11.3364195"><ele>545.0</ele><time>2026-04-03T15:36:46.992Z</time></trkpt><trkpt lat="43.5357546" lon="11.336301"><ele>545.0</ele><time>2026-04-03T15:36:48.005Z</time></trkpt><trkpt lat="43.5357755" lon="11.3361925"><ele>545.0</ele><time>2026-04-03T15:36:49.005Z</time></trkpt><trkpt lat="43.535833" lon="11.3361079"><ele>542.3333333333333</ele><time>2026-04-03T15:36:49.999Z</time></trkpt><trkpt lat="43.5359017" lon="11.3360528"><ele>539.6666666666666</ele><time>2026-04-03T15:36:50.996Z</time></trkpt><trkpt lat="43.5359784" lon="11.3360478"><ele>537.0</ele><time>2026-04-03T15:36:52.011Z</time></trkpt><trkpt lat="43.5360624" lon="11.3360662"><ele>534.3333333333334</ele><time>2026-04-03T15:36:52.985Z</time></trkpt><trkpt lat="43.5361496" lon="11.3360944"><ele>531.6666666666667</ele><time>2026-04-03T15:36:54.002Z</time></trkpt><trkpt lat="43.5362383" lon="11.336114"><ele>529.0</ele><time>2026-04-03T15:36:54.998Z</time></trkpt><trkpt lat="43.536324" lon="11.3361144"><ele>528.8</ele><time>2026-04-03T15:36:55.999Z</time></trkpt><trkpt lat="43.5364154" lon="11.3360865"><ele>528.5999999999999</ele><time>2026-04-03T15:36:57.005Z</time></trkpt><trkpt lat="43.5365075" lon="11.3360384"><ele>528.4</ele><time>2026-04-03T15:36:57.992Z</time></trkpt><trkpt lat="43.536597" lon="11.3359917"><ele>528.1999999999999</ele><time>2026-04-03T15:36:58.996Z</time></trkpt><trkpt lat="43.5366878" lon="11.3359458"><ele>528.0</ele><time>2026-04-03T15:36:59.993Z</time></trkpt><trkpt lat="43.5367766" lon="11.335901"><ele>528.0</ele><time>2026-04-03T15:37:00.995Z</time></trkpt><trkpt lat="43.5368621" lon="11.3358511"><ele>528.0</ele><time>2026-04-03T15:37:01.992Z</time></trkpt><trkpt lat="43.5369404" lon="11.3357841"><ele>528.0</ele><time>2026-04-03T15:37:02.994Z</time></trkpt><trkpt lat="43.5370051" lon="11.3357059"><ele>528.0</ele><time>2026-04-03T15:37:03.995Z</time></trkpt><trkpt lat="43.5370567" lon="11.3356108"><ele>528.0</ele><time>2026-04-03T15:37:04.993Z</time></trkpt><trkpt lat="43.5371029" lon="11.3355065"><ele>528.0</ele><time>2026-04-03T15:37:06Z</time></trkpt><trkpt lat="43.5371449" lon="11.3353999"><ele>525.6</ele><time>2026-04-03T15:37:06.994Z</time></trkpt><trkpt lat="43.5371838" lon="11.3352892"><ele>523.1999999999999</ele><time>2026-04-03T15:37:07.995Z</time></trkpt><trkpt lat="43.5372209" lon="11.3351688"><ele>520.8</ele><time>2026-04-03T15:37:08.99Z</time></trkpt><trkpt lat="43.5372543" lon="11.3350399"><ele>518.4</ele><time>2026-04-03T15:37:10Z</time></trkpt><trkpt lat="43.5372845" lon="11.3349138"><ele>516.0</ele><time>2026-04-03T15:37:11.006Z</time></trkpt><trkpt lat="43.5373187" lon="11.3347894"><ele>514.8</ele><time>2026-04-03T15:37:12.013Z</time></trkpt><trkpt lat="43.5373467" lon="11.3346633"><ele>513.6</ele><time>2026-04-03T15:37:13.002Z</time></trkpt><trkpt lat="43.5373747" lon="11.3345286"><ele>512.4</ele><time>2026-04-03T15:37:13.997Z</time></trkpt><trkpt lat="43.5373973" lon="11.3343895"><ele>511.2</ele><time>2026-04-03T15:37:14.997Z</time></trkpt><trkpt lat="43.5374194" lon="11.3342504"><ele>510.0</ele><time>2026-04-03T15:37:15.997Z</time></trkpt><trkpt lat="43.5374368" lon="11.3341095"><ele>510.0</ele><time>2026-04-03T15:37:16.998Z</time></trkpt><trkpt lat="43.5374487" lon="11.3339764"><ele>510.0</ele><time>2026-04-03T15:37:18.005Z</time></trkpt><trkpt lat="43.5374527" lon="11.3338413"><ele>510.0</ele><time>2026-04-03T15:37:18.999Z</time></trkpt><trkpt lat="43.5374447" lon="11.333718"><ele>510.0</ele><time>2026-04-03T15:37:20Z</time></trkpt><trkpt lat="43.5374188" lon="11.3336054"><ele>510.0</ele><time>2026-04-03T15:37:20.992Z</time></trkpt><trkpt lat="43.5373976" lon="11.3334938"><ele>509.8333333333333</ele><time>2026-04-03T15:37:21.997Z</time></trkpt><trkpt lat="43.5373882" lon="11.3333898"><ele>509.66666666666663</ele><time>2026-04-03T15:37:23.003Z</time></trkpt><trkpt lat="43.537398" lon="11.3332882"><ele>509.5</ele><time>2026-04-03T15:37:24.011Z</time></trkpt><trkpt lat="43.5374175" lon="11.3331785"><ele>509.3333333333333</ele><time>2026-04-03T15:37:25.012Z</time></trkpt><trkpt lat="43.5374448" lon="11.3330627"><ele>509.16666666666663</ele><time>2026-04-03T15:37:26.007Z</time></trkpt><trkpt lat="43.5374728" lon="11.3329423"><ele>509.0</ele><time>2026-04-03T15:37:26.991Z</time></trkpt><trkpt lat="43.5375021" lon="11.3328157"><ele>509.0</ele><time>2026-04-03T15:37:28Z</time></trkpt><trkpt lat="43.5375339" lon="11.332689"><ele>509.0</ele><time>2026-04-03T15:37:28.991Z</time></trkpt><trkpt lat="43.5375709" lon="11.3325695"><ele>509.0</ele><time>2026-04-03T15:37:29.999Z</time></trkpt><trkpt lat="43.5376162" lon="11.3324486"><ele>509.0</ele><time>2026-04-03T15:37:31.002Z</time></trkpt><trkpt lat="43.5376684" lon="11.3323398"><ele>509.0</ele><time>2026-04-03T15:37:32.018Z</time></trkpt><trkpt lat="43.5377247" lon="11.332244"><ele>508.6</ele><time>2026-04-03T15:37:32.999Z</time></trkpt><trkpt lat="43.5377875" lon="11.3321529"><ele>508.2</ele><time>2026-04-03T15:37:34.012Z</time></trkpt><trkpt lat="43.5378529" lon="11.3320671"><ele>507.80000000000007</ele><time>2026-04-03T15:37:34.994Z</time></trkpt><trkpt lat="43.5379182" lon="11.3319768"><ele>507.40000000000003</ele><time>2026-04-03T15:37:36.018Z</time></trkpt><trkpt lat="43.5379751" lon="11.3318717"><ele>507.0</ele><time>2026-04-03T15:37:37.003Z</time></trkpt><trkpt lat="43.5380261" lon="11.3317564"><ele>508.40000000000003</ele><time>2026-04-03T15:37:38.003Z</time></trkpt><trkpt lat="43.5380678" lon="11.3316329"><ele>509.80000000000007</ele><time>2026-04-03T15:37:39.001Z</time></trkpt><trkpt lat="43.5380999" lon="11.3315005"><ele>511.2</ele><time>2026-04-03T15:37:40.011Z</time></trkpt><trkpt lat="43.5381247" lon="11.3313563"><ele>512.6</ele><time>2026-04-03T15:37:41.01Z</time></trkpt><trkpt lat="43.5381384" lon="11.3312088"><ele>514.0</ele><time>2026-04-03T15:37:42.004Z</time></trkpt><trkpt lat="43.5381358" lon="11.3310569"><ele>514.8</ele><time>2026-04-03T15:37:42.997Z</time></trkpt><trkpt lat="43.5381263" lon="11.3309082"><ele>515.5999999999999</ele><time>2026-04-03T15:37:44.004Z</time></trkpt><trkpt lat="43.5381092" lon="11.3307585"><ele>516.4</ele><time>2026-04-03T15:37:45.004Z</time></trkpt><trkpt lat="43.5380923" lon="11.330611"><ele>517.1999999999999</ele><time>2026-04-03T15:37:46.015Z</time></trkpt><trkpt lat="43.5380786" lon="11.3304687"><ele>518.0</ele><time>2026-04-03T15:37:47.006Z</time></trkpt><trkpt lat="43.5380717" lon="11.3303272"><ele>519.4</ele><time>2026-04-03T15:37:48.007Z</time></trkpt><trkpt lat="43.5380621" lon="11.330185"><ele>520.8</ele><time>2026-04-03T15:37:49.011Z</time></trkpt><trkpt lat="43.5380539" lon="11.3300434"><ele>522.2</ele><time>2026-04-03T15:37:49.993Z</time></trkpt><trkpt lat="43.5380427" lon="11.3299007"><ele>523.6</ele><time>2026-04-03T15:37:51.003Z</time></trkpt><trkpt lat="43.5380303" lon="11.329757"><ele>525.0</ele><time>2026-04-03T15:37:52.009Z</time></trkpt><trkpt lat="43.5380178" lon="11.3296084"><ele>525.6</ele><time>2026-04-03T15:37:52.993Z</time></trkpt><trkpt lat="43.5380061" lon="11.3294583"><ele>526.2</ele><time>2026-04-03T15:37:54.009Z</time></trkpt><trkpt lat="43.5380023" lon="11.3293064"><ele>526.8</ele><time>2026-04-03T15:37:55.011Z</time></trkpt><trkpt lat="43.5380022" lon="11.3291579"><ele>527.4</ele><time>2026-04-03T15:37:56.008Z</time></trkpt><trkpt lat="43.5380065" lon="11.3290122"><ele>528.0</ele><time>2026-04-03T15:37:57.002Z</time></trkpt><trkpt lat="43.5380189" lon="11.3288781"><ele>527.0</ele><time>2026-04-03T15:37:58.011Z</time></trkpt><trkpt lat="43.538035" lon="11.328761"><ele>526.0</ele><time>2026-04-03T15:37:59.003Z</time></trkpt><trkpt lat="43.5380562" lon="11.3286557"><ele>525.0</ele><time>2026-04-03T15:38:00.015Z</time></trkpt><trkpt lat="43.5380903" lon="11.3285514"><ele>524.0</ele><time>2026-04-03T15:38:01.007Z</time></trkpt><trkpt lat="43.5381393" lon="11.3284494"><ele>523.0</ele><time>2026-04-03T15:38:02.013Z</time></trkpt><trkpt lat="43.5381989" lon="11.3283473"><ele>522.0</ele><time>2026-04-03T15:38:02.994Z</time></trkpt><trkpt lat="43.5382603" lon="11.3282478"><ele>522.0</ele><time>2026-04-03T15:38:04.009Z</time></trkpt><trkpt lat="43.5383206" lon="11.3281575"><ele>522.0</ele><time>2026-04-03T15:38:05.001Z</time></trkpt><trkpt lat="43.5383755" lon="11.3280706"><ele>522.0</ele><time>2026-04-03T15:38:06.009Z</time></trkpt><trkpt lat="43.5384302" lon="11.3279844"><ele>522.0</ele><time>2026-04-03T15:38:07.001Z</time></trkpt><trkpt lat="43.538489" lon="11.3278989"><ele>522.0</ele><time>2026-04-03T15:38:08.006Z</time></trkpt><trkpt lat="43.538546" lon="11.32781"><ele>522.0</ele><time>2026-04-03T15:38:09.003Z</time></trkpt><trkpt lat="43.5385995" lon="11.3277164"><ele>521.6</ele><time>2026-04-03T15:38:10.004Z</time></trkpt><trkpt lat="43.5386483" lon="11.3276174"><ele>521.2</ele><time>2026-04-03T15:38:11.011Z</time></trkpt><trkpt lat="43.5386924" lon="11.3275105"><ele>520.8</ele><time>2026-04-03T15:38:12.002Z</time></trkpt><trkpt lat="43.5387287" lon="11.3273987"><ele>520.4</ele><time>2026-04-03T15:38:13.005Z</time></trkpt><trkpt lat="43.5387648" lon="11.3272782"><ele>520.0</ele><time>2026-04-03T15:38:14Z</time></trkpt><trkpt lat="43.5387959" lon="11.3271532"><ele>520.0</ele><time>2026-04-03T15:38:14.987Z</time></trkpt><trkpt lat="43.5388112" lon="11.3270179"><ele>520.0</ele><time>2026-04-03T15:38:16.007Z</time></trkpt><trkpt lat="43.5388053" lon="11.3268781"><ele>520.0</ele><time>2026-04-03T15:38:17.007Z</time></trkpt><trkpt lat="43.5387825" lon="11.3267515"><ele>520.0</ele><time>2026-04-03T15:38:18.007Z</time></trkpt><trkpt lat="43.5387506" lon="11.3266219"><ele>520.0</ele><time>2026-04-03T15:38:19.02Z</time></trkpt><trkpt lat="43.5387222" lon="11.3264855"><ele>516.6</ele><time>2026-04-03T15:38:20.01Z</time></trkpt><trkpt lat="43.5386944" lon="11.3263472"><ele>513.2</ele><time>2026-04-03T15:38:21.01Z</time></trkpt><trkpt lat="43.5386729" lon="11.3262027"><ele>509.79999999999995</ele><time>2026-04-03T15:38:22.011Z</time></trkpt><trkpt lat="43.538662" lon="11.326048"><ele>506.4</ele><time>2026-04-03T15:38:23.005Z</time></trkpt><trkpt lat="43.5386709" lon="11.3258929"><ele>503.0</ele><time>2026-04-03T15:38:24.001Z</time></trkpt><trkpt lat="43.5386955" lon="11.3257338"><ele>504.5</ele><time>2026-04-03T15:38:25.013Z</time></trkpt><trkpt lat="43.5387282" lon="11.3255795"><ele>506.0</ele><time>2026-04-03T15:38:25.991Z</time></trkpt><trkpt lat="43.5387719" lon="11.3254307"><ele>507.5</ele><time>2026-04-03T15:38:27Z</time></trkpt><trkpt lat="43.5388222" lon="11.325285"><ele>509.0</ele><time>2026-04-03T15:38:28.006Z</time></trkpt><trkpt lat="43.5388698" lon="11.3251462"><ele>509.0</ele><time>2026-04-03T15:38:29.005Z</time></trkpt><trkpt lat="43.538917" lon="11.3250103"><ele>509.0</ele><time>2026-04-03T15:38:30.022Z</time></trkpt><trkpt lat="43.5389632" lon="11.3248877"><ele>509.0</ele><time>2026-04-03T15:38:31.004Z</time></trkpt><trkpt lat="43.5390006" lon="11.3247724"><ele>509.0</ele><time>2026-04-03T15:38:32.017Z</time></trkpt><trkpt lat="43.5390354" lon="11.3246531"><ele>509.0</ele><time>2026-04-03T15:38:32.998Z</time></trkpt><trkpt lat="43.5390729" lon="11.3245326"><ele>508.2</ele><time>2026-04-03T15:38:34.009Z</time></trkpt><trkpt lat="43.539115" lon="11.3244076"><ele>507.4</ele><time>2026-04-03T15:38:35.002Z</time></trkpt><trkpt lat="43.5391629" lon="11.3242785"><ele>506.6</ele><time>2026-04-03T15:38:36.007Z</time></trkpt><trkpt lat="43.5392154" lon="11.3241472"><ele>505.8</ele><time>2026-04-03T15:38:37.007Z</time></trkpt><trkpt lat="43.5392785" lon="11.3240182"><ele>505.0</ele><time>2026-04-03T15:38:38.009Z</time></trkpt><trkpt lat="43.539346" lon="11.3238931"><ele>504.6</ele><time>2026-04-03T15:38:39.01Z</time></trkpt><trkpt lat="43.5394098" lon="11.3237628"><ele>504.2</ele><time>2026-04-03T15:38:40.007Z</time></trkpt><trkpt lat="43.5394758" lon="11.3236359"><ele>503.79999999999995</ele><time>2026-04-03T15:38:41.014Z</time></trkpt><trkpt lat="43.5395366" lon="11.3235114"><ele>503.4</ele><time>2026-04-03T15:38:42.001Z</time></trkpt><trkpt lat="43.5395961" lon="11.3233933"><ele>503.0</ele><time>2026-04-03T15:38:43.012Z</time></trkpt><trkpt lat="43.5396576" lon="11.3232738"><ele>502.59999999999997</ele><time>2026-04-03T15:38:43.999Z</time></trkpt><trkpt lat="43.5397211" lon="11.3231562"><ele>502.19999999999993</ele><time>2026-04-03T15:38:44.993Z</time></trkpt><trkpt lat="43.5397895" lon="11.3230398"><ele>501.8</ele><time>2026-04-03T15:38:46.012Z</time></trkpt><trkpt lat="43.5398654" lon="11.3229278"><ele>501.4</ele><time>2026-04-03T15:38:47.001Z</time></trkpt><trkpt lat="43.5399398" lon="11.3228417"><ele>501.0</ele><time>2026-04-03T15:38:48.018Z</time></trkpt><trkpt lat="43.5400131" lon="11.3227827"><ele>503.1666666666667</ele><time>2026-04-03T15:38:49.003Z</time></trkpt><trkpt lat="43.5400797" lon="11.3227244"><ele>505.33333333333337</ele><time>2026-04-03T15:38:50.009Z</time></trkpt><trkpt lat="43.5401397" lon="11.3226513"><ele>507.5</ele><time>2026-04-03T15:38:51.001Z</time></trkpt><trkpt lat="43.5401907" lon="11.3225515"><ele>509.6666666666667</ele><time>2026-04-03T15:38:52Z</time></trkpt><trkpt lat="43.5402349" lon="11.322436"><ele>511.83333333333337</ele><time>2026-04-03T15:38:53.003Z</time></trkpt><trkpt lat="43.5402748" lon="11.3223116"><ele>514.0</ele><time>2026-04-03T15:38:54.005Z</time></trkpt><trkpt lat="43.5403113" lon="11.3221848"><ele>514.0</ele><time>2026-04-03T15:38:55.003Z</time></trkpt><trkpt lat="43.5403513" lon="11.3220407"><ele>514.0</ele><time>2026-04-03T15:38:56.004Z</time></trkpt><trkpt lat="43.5404026" lon="11.3219"><ele>514.0</ele><time>2026-04-03T15:38:56.997Z</time></trkpt><trkpt lat="43.5404634" lon="11.3217572"><ele>514.0</ele><time>2026-04-03T15:38:58.001Z</time></trkpt><trkpt lat="43.5405331" lon="11.3216081"><ele>511.75</ele><time>2026-04-03T15:38:58.995Z</time></trkpt><trkpt lat="43.5406029" lon="11.3214525"><ele>509.5</ele><time>2026-04-03T15:39:00.015Z</time></trkpt><trkpt lat="43.540669" lon="11.3212963"><ele>507.25</ele><time>2026-04-03T15:39:01.001Z</time></trkpt><trkpt lat="43.5407342" lon="11.3211418"><ele>505.0</ele><time>2026-04-03T15:39:02Z</time></trkpt><trkpt lat="43.5407972" lon="11.3209911"><ele>505.0</ele><time>2026-04-03T15:39:03Z</time></trkpt><trkpt lat="43.5408592" lon="11.3208437"><ele>505.0</ele><time>2026-04-03T15:39:04.005Z</time></trkpt><trkpt lat="43.5409205" lon="11.3207082"><ele>505.0</ele><time>2026-04-03T15:39:05.004Z</time></trkpt><trkpt lat="43.5409837" lon="11.3205841"><ele>505.0</ele><time>2026-04-03T15:39:05.998Z</time></trkpt><trkpt lat="43.5410457" lon="11.3204688"><ele>504.1666666666667</ele><time>2026-04-03T15:39:06.992Z</time></trkpt><trkpt lat="43.541108" lon="11.3203758"><ele>503.33333333333337</ele><time>2026-04-03T15:39:08.015Z</time></trkpt><trkpt lat="43.5411718" lon="11.3203061"><ele>502.5</ele><time>2026-04-03T15:39:08.995Z</time></trkpt><trkpt lat="43.5412211" lon="11.3202517"><ele>501.66666666666663</ele><time>2026-04-03T15:39:09.999Z</time></trkpt><trkpt lat="43.5412468" lon="11.3201535"><ele>500.8333333333333</ele><time>2026-04-03T15:39:12.007Z</time></trkpt><trkpt lat="43.5411562" lon="11.320097"><ele>500.0</ele><time>2026-04-03T15:39:14.015Z</time></trkpt><trkpt lat="43.5410301" lon="11.3200897"><ele>500.0</ele><time>2026-04-03T15:39:16.012Z</time></trkpt><trkpt lat="43.5409579" lon="11.3200691"><ele>500.0</ele><time>2026-04-03T15:39:17.004Z</time></trkpt><trkpt lat="43.5408862" lon="11.3200449"><ele>500.0</ele><time>2026-04-03T15:39:18.007Z</time></trkpt><trkpt lat="43.540819" lon="11.320018"><ele>500.0</ele><time>2026-04-03T15:39:19.016Z</time></trkpt><trkpt lat="43.5407522" lon="11.3199942"><ele>500.0</ele><time>2026-04-03T15:39:20.018Z</time></trkpt><trkpt lat="43.5406854" lon="11.3199815"><ele>500.0</ele><time>2026-04-03T15:39:21.005Z</time></trkpt><trkpt lat="43.5406193" lon="11.3199768"><ele>500.0</ele><time>2026-04-03T15:39:22.019Z</time></trkpt><trkpt lat="43.5405446" lon="11.3199675"><ele>500.0</ele><time>2026-04-03T15:39:23.002Z</time></trkpt><trkpt lat="43.5404594" lon="11.3199561"><ele>500.0</ele><time>2026-04-03T15:39:24.002Z</time></trkpt><trkpt lat="43.5403696" lon="11.3199482"><ele>500.0</ele><time>2026-04-03T15:39:25.01Z</time></trkpt><trkpt lat="43.5402755" lon="11.3199387"><ele>500.0</ele><time>2026-04-03T15:39:26.01Z</time></trkpt><trkpt lat="43.5401717" lon="11.3199306"><ele>500.0</ele><time>2026-04-03T15:39:26.999Z</time></trkpt><trkpt lat="43.5400636" lon="11.3199247"><ele>499.75</ele><time>2026-04-03T15:39:28.016Z</time></trkpt><trkpt lat="43.5399499" lon="11.3199181"><ele>499.5</ele><time>2026-04-03T15:39:29.003Z</time></trkpt><trkpt lat="43.5398331" lon="11.3199072"><ele>499.25</ele><time>2026-04-03T15:39:30.002Z</time></trkpt><trkpt lat="43.5397185" lon="11.3198903"><ele>499.0</ele><time>2026-04-03T15:39:31.002Z</time></trkpt><trkpt lat="43.5396014" lon="11.3198767"><ele>498.5</ele><time>2026-04-03T15:39:32.019Z</time></trkpt><trkpt lat="43.5394851" lon="11.319861"><ele>498.0</ele><time>2026-04-03T15:39:33.009Z</time></trkpt><trkpt lat="43.5393682" lon="11.3198382"><ele>497.5</ele><time>2026-04-03T15:39:34.007Z</time></trkpt><trkpt lat="43.5392504" lon="11.319809"><ele>497.0</ele><time>2026-04-03T15:39:35.004Z</time></trkpt><trkpt lat="43.5391301" lon="11.3197768"><ele>497.0</ele><time>2026-04-03T15:39:36.013Z</time></trkpt><trkpt lat="43.5390091" lon="11.3197374"><ele>497.0</ele><time>2026-04-03T15:39:37.003Z</time></trkpt><trkpt lat="43.5388868" lon="11.3196957"><ele>497.0</ele><time>2026-04-03T15:39:38.009Z</time></trkpt><trkpt lat="43.5387651" lon="11.319659"><ele>497.0</ele><time>2026-04-03T15:39:39.004Z</time></trkpt><trkpt lat="43.5386436" lon="11.3196239"><ele>495.0</ele><time>2026-04-03T15:39:40.01Z</time></trkpt><trkpt lat="43.5385242" lon="11.3195912"><ele>493.0</ele><time>2026-04-03T15:39:41.007Z</time></trkpt><trkpt lat="43.5384087" lon="11.3195618"><ele>491.0</ele><time>2026-04-03T15:39:42.005Z</time></trkpt><trkpt lat="43.5382967" lon="11.3195396"><ele>489.0</ele><time>2026-04-03T15:39:42.992Z</time></trkpt><trkpt lat="43.5381901" lon="11.3195524"><ele>489.0</ele><time>2026-04-03T15:39:44.007Z</time></trkpt><trkpt lat="43.5380913" lon="11.319608"><ele>489.0</ele><time>2026-04-03T15:39:45.007Z</time></trkpt><trkpt lat="43.5380034" lon="11.3196612"><ele>489.0</ele><time>2026-04-03T15:39:46.015Z</time></trkpt><trkpt lat="43.5379122" lon="11.3196747"><ele>489.0</ele><time>2026-04-03T15:39:46.996Z</time></trkpt><trkpt lat="43.5377923" lon="11.3196321"><ele>489.0</ele><time>2026-04-03T15:39:48.004Z</time></trkpt><trkpt lat="43.5376736" lon="11.3195801"><ele>488.75</ele><time>2026-04-03T15:39:49.003Z</time></trkpt><trkpt lat="43.5375613" lon="11.3195274"><ele>488.5</ele><time>2026-04-03T15:39:50.003Z</time></trkpt><trkpt lat="43.5374563" lon="11.3194648"><ele>488.25</ele><time>2026-04-03T15:39:51.008Z</time></trkpt><trkpt lat="43.5373602" lon="11.3193793"><ele>488.0</ele><time>2026-04-03T15:39:52.005Z</time></trkpt><trkpt lat="43.5372657" lon="11.3192806"><ele>488.0</ele><time>2026-04-03T15:39:53.004Z</time></trkpt><trkpt lat="43.5371667" lon="11.3191898"><ele>488.0</ele><time>2026-04-03T15:39:54.008Z</time></trkpt><trkpt lat="43.5370654" lon="11.319108"><ele>488.0</ele><time>2026-04-03T15:39:54.996Z</time></trkpt><trkpt lat="43.5369622" lon="11.3190443"><ele>488.0</ele><time>2026-04-03T15:39:56Z</time></trkpt><trkpt lat="43.5368512" lon="11.3190082"><ele>485.79999999999995</ele><time>2026-04-03T15:39:57.014Z</time></trkpt><trkpt lat="43.5367376" lon="11.3189882"><ele>483.59999999999997</ele><time>2026-04-03T15:39:58.007Z</time></trkpt><trkpt lat="43.5366287" lon="11.318973"><ele>481.40000000000003</ele><time>2026-04-03T15:39:59.02Z</time></trkpt><trkpt lat="43.5365247" lon="11.3189611"><ele>479.20000000000005</ele><time>2026-04-03T15:39:59.999Z</time></trkpt><trkpt lat="43.5364353" lon="11.3189331"><ele>477.0</ele><time>2026-04-03T15:40:01.012Z</time></trkpt><trkpt lat="43.5363648" lon="11.3188606"><ele>477.0</ele><time>2026-04-03T15:40:02.003Z</time></trkpt><trkpt lat="43.5363053" lon="11.3187381"><ele>477.0</ele><time>2026-04-03T15:40:02.993Z</time></trkpt><trkpt lat="43.5362438" lon="11.3185933"><ele>477.0</ele><time>2026-04-03T15:40:04.005Z</time></trkpt><trkpt lat="43.5361919" lon="11.3184345"><ele>477.0</ele><time>2026-04-03T15:40:04.997Z</time></trkpt><trkpt lat="43.5361514" lon="11.3182787"><ele>475.20000000000005</ele><time>2026-04-03T15:40:06.008Z</time></trkpt><trkpt lat="43.5361141" lon="11.318141"><ele>473.40000000000003</ele><time>2026-04-03T15:40:06.996Z</time></trkpt><trkpt lat="43.5360809" lon="11.3180038"><ele>471.59999999999997</ele><time>2026-04-03T15:40:08.003Z</time></trkpt><trkpt lat="43.5360376" lon="11.3178725"><ele>469.79999999999995</ele><time>2026-04-03T15:40:09.002Z</time></trkpt><trkpt lat="43.5359838" lon="11.3177457"><ele>468.0</ele><time>2026-04-03T15:40:10.009Z</time></trkpt><trkpt lat="43.5359166" lon="11.3176294"><ele>467.4</ele><time>2026-04-03T15:40:11.003Z</time></trkpt><trkpt lat="43.5358501" lon="11.3175213"><ele>466.79999999999995</ele><time>2026-04-03T15:40:12.003Z</time></trkpt><trkpt lat="43.5357899" lon="11.317412"><ele>466.2</ele><time>2026-04-03T15:40:13.009Z</time></trkpt><trkpt lat="43.5357316" lon="11.317294"><ele>465.6</ele><time>2026-04-03T15:40:14.005Z</time></trkpt><trkpt lat="43.5356819" lon="11.3171554"><ele>465.0</ele><time>2026-04-03T15:40:15Z</time></trkpt><trkpt lat="43.5356327" lon="11.317004"><ele>462.75</ele><time>2026-04-03T15:40:16.005Z</time></trkpt><trkpt lat="43.5355592" lon="11.3168625"><ele>460.5</ele><time>2026-04-03T15:40:16.999Z</time></trkpt><trkpt lat="43.5354748" lon="11.316713"><ele>458.25</ele><time>2026-04-03T15:40:18.023Z</time></trkpt><trkpt lat="43.5353923" lon="11.316563"><ele>456.0</ele><time>2026-04-03T15:40:18.996Z</time></trkpt><trkpt lat="43.5353259" lon="11.3164139"><ele>456.0</ele><time>2026-04-03T15:40:20Z</time></trkpt><trkpt lat="43.5352701" lon="11.3162758"><ele>456.0</ele><time>2026-04-03T15:40:20.998Z</time></trkpt><trkpt lat="43.5352207" lon="11.3161345"><ele>456.0</ele><time>2026-04-03T15:40:22.015Z</time></trkpt><trkpt lat="43.5351729" lon="11.3159828"><ele>456.0</ele><time>2026-04-03T15:40:23.001Z</time></trkpt><trkpt lat="43.5351261" lon="11.3158249"><ele>456.0</ele><time>2026-04-03T15:40:24.007Z</time></trkpt><trkpt lat="43.5350718" lon="11.3156756"><ele>456.0</ele><time>2026-04-03T15:40:25.003Z</time></trkpt><trkpt lat="43.5350177" lon="11.3155368"><ele>456.0</ele><time>2026-04-03T15:40:26.005Z</time></trkpt><trkpt lat="43.5349753" lon="11.3154029"><ele>456.0</ele><time>2026-04-03T15:40:27.002Z</time></trkpt><trkpt lat="43.5349418" lon="11.3152727"><ele>456.0</ele><time>2026-04-03T15:40:28.008Z</time></trkpt><trkpt lat="43.5349279" lon="11.3151447"><ele>456.0</ele><time>2026-04-03T15:40:29.008Z</time></trkpt><trkpt lat="43.5349246" lon="11.3149917"><ele>456.0</ele><time>2026-04-03T15:40:30.003Z</time></trkpt><trkpt lat="43.5349249" lon="11.3148393"><ele>456.0</ele><time>2026-04-03T15:40:31.01Z</time></trkpt><trkpt lat="43.5349336" lon="11.3146844"><ele>456.0</ele><time>2026-04-03T15:40:32.003Z</time></trkpt><trkpt lat="43.5349429" lon="11.3145391"><ele>456.0</ele><time>2026-04-03T15:40:33.004Z</time></trkpt><trkpt lat="43.5349426" lon="11.3144047"><ele>456.0</ele><time>2026-04-03T15:40:34.002Z</time></trkpt><trkpt lat="43.5349321" lon="11.3142824"><ele>456.0</ele><time>2026-04-03T15:40:35Z</time></trkpt><trkpt lat="43.5349013" lon="11.3141756"><ele>456.0</ele><time>2026-04-03T15:40:36.005Z</time></trkpt><trkpt lat="43.5348549" lon="11.3140719"><ele>456.0</ele><time>2026-04-03T15:40:36.994Z</time></trkpt><trkpt lat="43.5347814" lon="11.3139638"><ele>456.0</ele><time>2026-04-03T15:40:37.992Z</time></trkpt><trkpt lat="43.534694" lon="11.3138548"><ele>456.20000000000005</ele><time>2026-04-03T15:40:38.989Z</time></trkpt><trkpt lat="43.5346063" lon="11.3137487"><ele>456.40000000000003</ele><time>2026-04-03T15:40:40.004Z</time></trkpt><trkpt lat="43.5345163" lon="11.313653"><ele>456.6</ele><time>2026-04-03T15:40:41Z</time></trkpt><trkpt lat="43.5344311" lon="11.3135649"><ele>456.8</ele><time>2026-04-03T15:40:42.002Z</time></trkpt><trkpt lat="43.5343445" lon="11.313487"><ele>457.0</ele><time>2026-04-03T15:40:42.998Z</time></trkpt><trkpt lat="43.5342697" lon="11.3134086"><ele>457.00000000000006</ele><time>2026-04-03T15:40:43.999Z</time></trkpt><trkpt lat="43.534205" lon="11.3133372"><ele>457.0</ele><time>2026-04-03T15:40:44.996Z</time></trkpt><trkpt lat="43.5341506" lon="11.3132739"><ele>457.0</ele><time>2026-04-03T15:40:45.99Z</time></trkpt><trkpt lat="43.5340995" lon="11.3132153"><ele>457.0</ele><time>2026-04-03T15:40:46.989Z</time></trkpt><trkpt lat="43.5340255" lon="11.3131218"><ele>457.00000000000006</ele><time>2026-04-03T15:40:48.995Z</time></trkpt><trkpt lat="43.5340241" lon="11.3130247"><ele>457.0</ele><time>2026-04-03T15:40:51.998Z</time></trkpt><trkpt lat="43.5341208" lon="11.31303"><ele>455.20000000000005</ele><time>2026-04-03T15:40:53.992Z</time></trkpt><trkpt lat="43.5341926" lon="11.3130455"><ele>453.40000000000003</ele><time>2026-04-03T15:40:54.999Z</time></trkpt><trkpt lat="43.5342694" lon="11.3130498"><ele>451.59999999999997</ele><time>2026-04-03T15:40:55.99Z</time></trkpt><trkpt lat="43.5343596" lon="11.3130511"><ele>449.79999999999995</ele><time>2026-04-03T15:40:56.992Z</time></trkpt><trkpt lat="43.5344731" lon="11.3130519"><ele>448.0</ele><time>2026-04-03T15:40:57.998Z</time></trkpt><trkpt lat="43.534592" lon="11.3130502"><ele>447.25</ele><time>2026-04-03T15:40:58.989Z</time></trkpt><trkpt lat="43.5347119" lon="11.3130608"><ele>446.5</ele><time>2026-04-03T15:40:59.99Z</time></trkpt><trkpt lat="43.5348331" lon="11.3130759"><ele>445.75</ele><time>2026-04-03T15:41:00.994Z</time></trkpt><trkpt lat="43.5349481" lon="11.3130903"><ele>445.0</ele><time>2026-04-03T15:41:01.996Z</time></trkpt><trkpt lat="43.5350531" lon="11.3131034"><ele>445.00000000000006</ele><time>2026-04-03T15:41:02.993Z</time></trkpt><trkpt lat="43.5351517" lon="11.3131275"><ele>445.0</ele><time>2026-04-03T15:41:03.995Z</time></trkpt><trkpt lat="43.5352379" lon="11.3131759"><ele>445.0</ele><time>2026-04-03T15:41:04.993Z</time></trkpt><trkpt lat="43.5353153" lon="11.3132432"><ele>445.0</ele><time>2026-04-03T15:41:05.999Z</time></trkpt><trkpt lat="43.5353856" lon="11.3132972"><ele>445.00000000000006</ele><time>2026-04-03T15:41:07Z</time></trkpt><trkpt lat="43.5354428" lon="11.3133384"><ele>445.0</ele><time>2026-04-03T15:41:08.011Z</time></trkpt><trkpt lat="43.535515" lon="11.313377"><ele>442.00000000000006</ele><time>2026-04-03T15:41:10.996Z</time></trkpt><trkpt lat="43.5355741" lon="11.3134153"><ele>439.0</ele><time>2026-04-03T15:41:17.995Z</time></trkpt><trkpt lat="43.535648" lon="11.3133791"><ele>436.0</ele><time>2026-04-03T15:41:23.998Z</time></trkpt><trkpt lat="43.5356316" lon="11.3132814"><ele>433.0</ele><time>2026-04-03T15:41:26.006Z</time></trkpt><trkpt lat="43.5355521" lon="11.313136"><ele>430.00000000000006</ele><time>2026-04-03T15:41:28.006Z</time></trkpt><trkpt lat="43.5354968" lon="11.3130628"><ele>427.0</ele><time>2026-04-03T15:41:28.995Z</time></trkpt><trkpt lat="43.5354506" lon="11.3129822"><ele>425.8</ele><time>2026-04-03T15:41:29.998Z</time></trkpt><trkpt lat="43.5353928" lon="11.3128616"><ele>424.6</ele><time>2026-04-03T15:41:31.998Z</time></trkpt><trkpt lat="43.5353542" lon="11.3127202"><ele>423.40000000000003</ele><time>2026-04-03T15:41:34.001Z</time></trkpt><trkpt lat="43.5353358" lon="11.3126356"><ele>422.20000000000005</ele><time>2026-04-03T15:41:34.999Z</time></trkpt><trkpt lat="43.5353496" lon="11.3124657"><ele>421.0</ele><time>2026-04-03T15:41:37.017Z</time></trkpt><trkpt lat="43.5353938" lon="11.312377"><ele>421.0</ele><time>2026-04-03T15:41:38Z</time></trkpt><trkpt lat="43.5354536" lon="11.3122736"><ele>421.0</ele><time>2026-04-03T15:41:38.997Z</time></trkpt><trkpt lat="43.5355129" lon="11.3121557"><ele>421.0</ele><time>2026-04-03T15:41:40.003Z</time></trkpt><trkpt lat="43.5355702" lon="11.3120348"><ele>421.0</ele><time>2026-04-03T15:41:40.997Z</time></trkpt><trkpt lat="43.5356266" lon="11.3119204"><ele>421.0</ele><time>2026-04-03T15:41:42.002Z</time></trkpt><trkpt lat="43.5356923" lon="11.311808"><ele>419.6</ele><time>2026-04-03T15:41:43.001Z</time></trkpt><trkpt lat="43.5357635" lon="11.3116909"><ele>418.20000000000005</ele><time>2026-04-03T15:41:44.001Z</time></trkpt><trkpt lat="43.5358377" lon="11.3115694"><ele>416.79999999999995</ele><time>2026-04-03T15:41:45.006Z</time></trkpt><trkpt lat="43.5359034" lon="11.3114585"><ele>415.4</ele><time>2026-04-03T15:41:46.012Z</time></trkpt><trkpt lat="43.5359584" lon="11.3113585"><ele>414.0</ele><time>2026-04-03T15:41:47Z</time></trkpt><trkpt lat="43.5360061" lon="11.3112666"><ele>412.0</ele><time>2026-04-03T15:41:48.009Z</time></trkpt><trkpt lat="43.5360546" lon="11.3111737"><ele>410.0</ele><time>2026-04-03T15:41:49.008Z</time></trkpt><trkpt lat="43.5361119" lon="11.3110798"><ele>408.0</ele><time>2026-04-03T15:41:50.006Z</time></trkpt><trkpt lat="43.5361808" lon="11.3109732"><ele>406.0</ele><time>2026-04-03T15:41:51.002Z</time></trkpt><trkpt lat="43.5362539" lon="11.3108633"><ele>404.0</ele><time>2026-04-03T15:41:51.999Z</time></trkpt><trkpt lat="43.5363241" lon="11.3107537"><ele>403.0</ele><time>2026-04-03T15:41:53.005Z</time></trkpt><trkpt lat="43.5363928" lon="11.31064"><ele>402.0</ele><time>2026-04-03T15:41:54.007Z</time></trkpt><trkpt lat="43.5364603" lon="11.3105261"><ele>401.0</ele><time>2026-04-03T15:41:55.002Z</time></trkpt><trkpt lat="43.5365287" lon="11.3104119"><ele>400.0</ele><time>2026-04-03T15:41:56.01Z</time></trkpt><trkpt lat="43.5365941" lon="11.3103003"><ele>399.0</ele><time>2026-04-03T15:41:56.997Z</time></trkpt><trkpt lat="43.5366603" lon="11.3101978"><ele>397.2</ele><time>2026-04-03T15:41:58.009Z</time></trkpt><trkpt lat="43.5367233" lon="11.3101035"><ele>395.4</ele><time>2026-04-03T15:41:58.993Z</time></trkpt><trkpt lat="43.5367921" lon="11.3100216"><ele>393.6</ele><time>2026-04-03T15:42:00.002Z</time></trkpt><trkpt lat="43.5368717" lon="11.3099566"><ele>391.8</ele><time>2026-04-03T15:42:00.996Z</time></trkpt><trkpt lat="43.5369568" lon="11.3099005"><ele>390.0</ele><time>2026-04-03T15:42:02.001Z</time></trkpt><trkpt lat="43.5370408" lon="11.3098486"><ele>389.7142857142857</ele><time>2026-04-03T15:42:02.982Z</time></trkpt><trkpt lat="43.5371158" lon="11.309801"><ele>389.42857142857144</ele><time>2026-04-03T15:42:04.007Z</time></trkpt><trkpt lat="43.5371719" lon="11.3097465"><ele>389.1428571428571</ele><time>2026-04-03T15:42:04.998Z</time></trkpt><trkpt lat="43.5372103" lon="11.3096714"><ele>388.8571428571429</ele><time>2026-04-03T15:42:06.009Z</time></trkpt><trkpt lat="43.537234" lon="11.3095792"><ele>388.5714285714286</ele><time>2026-04-03T15:42:07.003Z</time></trkpt><trkpt lat="43.5372365" lon="11.3094868"><ele>388.2857142857143</ele><time>2026-04-03T15:42:08.007Z</time></trkpt><trkpt lat="43.5372234" lon="11.3093827"><ele>388.0</ele><time>2026-04-03T15:42:08.997Z</time></trkpt><trkpt lat="43.5372056" lon="11.309271"><ele>386.6666666666667</ele><time>2026-04-03T15:42:10Z</time></trkpt><trkpt lat="43.537198" lon="11.3091577"><ele>385.33333333333337</ele><time>2026-04-03T15:42:11.004Z</time></trkpt><trkpt lat="43.5371982" lon="11.3090459"><ele>384.0</ele><time>2026-04-03T15:42:12.002Z</time></trkpt><trkpt lat="43.5372088" lon="11.3089279"><ele>382.6666666666667</ele><time>2026-04-03T15:42:12.998Z</time></trkpt><trkpt lat="43.5372242" lon="11.3088043"><ele>381.33333333333337</ele><time>2026-04-03T15:42:14.005Z</time></trkpt><trkpt lat="43.537239" lon="11.3086756"><ele>380.0</ele><time>2026-04-03T15:42:14.997Z</time></trkpt><trkpt lat="43.5372507" lon="11.3085564"><ele>378.83333333333337</ele><time>2026-04-03T15:42:15.987Z</time></trkpt><trkpt lat="43.5372647" lon="11.308451"><ele>377.6666666666667</ele><time>2026-04-03T15:42:17.013Z</time></trkpt><trkpt lat="43.5372941" lon="11.3083556"><ele>376.5</ele><time>2026-04-03T15:42:18.021Z</time></trkpt><trkpt lat="43.5373381" lon="11.308279"><ele>375.3333333333333</ele><time>2026-04-03T15:42:19.006Z</time></trkpt><trkpt lat="43.5374211" lon="11.3081841"><ele>374.16666666666663</ele><time>2026-04-03T15:42:21.006Z</time></trkpt><trkpt lat="43.5374687" lon="11.3081247"><ele>373.0</ele><time>2026-04-03T15:42:24.012Z</time></trkpt><trkpt lat="43.5375208" lon="11.3080278"><ele>373.0</ele><time>2026-04-03T15:42:30.007Z</time></trkpt><trkpt lat="43.5375764" lon="11.3079158"><ele>373.0</ele><time>2026-04-03T15:42:32.019Z</time></trkpt><trkpt lat="43.5375267" lon="11.3078579"><ele>373.0</ele><time>2026-04-03T15:42:35.982Z</time></trkpt><trkpt lat="43.537509" lon="11.3079847"><ele>373.0</ele><time>2026-04-03T15:42:38.994Z</time></trkpt><trkpt lat="43.5374775" lon="11.3081364"><ele>373.0</ele><time>2026-04-03T15:42:40.999Z</time></trkpt><trkpt lat="43.5374389" lon="11.308207"><ele>373.0</ele><time>2026-04-03T15:42:42.009Z</time></trkpt><trkpt lat="43.5373841" lon="11.3082609"><ele>373.0</ele><time>2026-04-03T15:42:42.995Z</time></trkpt><trkpt lat="43.5373301" lon="11.3083295"><ele>373.0</ele><time>2026-04-03T15:42:44.008Z</time></trkpt><trkpt lat="43.5372873" lon="11.3084172"><ele>373.0</ele><time>2026-04-03T15:42:45.004Z</time></trkpt><trkpt lat="43.5372602" lon="11.3085113"><ele>373.0</ele><time>2026-04-03T15:42:46.012Z</time></trkpt><trkpt lat="43.537246" lon="11.3086012"><ele>373.0</ele><time>2026-04-03T15:42:47.003Z</time></trkpt><trkpt lat="43.5372747" lon="11.3086903"><ele>373.0</ele><time>2026-04-03T15:42:48.999Z</time></trkpt><trkpt lat="43.5373439" lon="11.308627"><ele>373.0</ele><time>2026-04-03T15:42:51.013Z</time></trkpt><trkpt lat="43.5373874" lon="11.3084613"><ele>373.0</ele><time>2026-04-03T15:42:53.005Z</time></trkpt><trkpt lat="43.5374022" lon="11.3083697"><ele>373.0</ele><time>2026-04-03T15:42:54.01Z</time></trkpt><trkpt lat="43.5374328" lon="11.3082862"><ele>373.0</ele><time>2026-04-03T15:42:55.008Z</time></trkpt><trkpt lat="43.5374809" lon="11.308226"><ele>373.0</ele><time>2026-04-03T15:42:56.003Z</time></trkpt><trkpt lat="43.5375464" lon="11.3081816"><ele>373.0</ele><time>2026-04-03T15:42:57.001Z</time></trkpt><trkpt lat="43.537614" lon="11.3081305"><ele>373.0</ele><time>2026-04-03T15:42:58.008Z</time></trkpt><trkpt lat="43.5376832" lon="11.3080852"><ele>373.0</ele><time>2026-04-03T15:42:59.002Z</time></trkpt><trkpt lat="43.5377501" lon="11.308034"><ele>372.0</ele><time>2026-04-03T15:42:59.999Z</time></trkpt><trkpt lat="43.5378193" lon="11.3079794"><ele>371.0</ele><time>2026-04-03T15:43:01.005Z</time></trkpt><trkpt lat="43.5378918" lon="11.3079239"><ele>370.0</ele><time>2026-04-03T15:43:02.002Z</time></trkpt><trkpt lat="43.5379641" lon="11.3078734"><ele>369.0</ele><time>2026-04-03T15:43:03.012Z</time></trkpt><trkpt lat="43.5380339" lon="11.3078166"><ele>368.0</ele><time>2026-04-03T15:43:04.011Z</time></trkpt><trkpt lat="43.5381028" lon="11.3077596"><ele>367.0</ele><time>2026-04-03T15:43:05.002Z</time></trkpt><trkpt lat="43.5381681" lon="11.3076998"><ele>364.8333333333333</ele><time>2026-04-03T15:43:05.995Z</time></trkpt><trkpt lat="43.5382238" lon="11.307643"><ele>362.66666666666663</ele><time>2026-04-03T15:43:07.001Z</time></trkpt><trkpt lat="43.538281" lon="11.3076066"><ele>360.5</ele><time>2026-04-03T15:43:08.004Z</time></trkpt><trkpt lat="43.5383485" lon="11.3076194"><ele>358.3333333333333</ele><time>2026-04-03T15:43:08.995Z</time></trkpt><trkpt lat="43.5384308" lon="11.3076637"><ele>356.1666666666667</ele><time>2026-04-03T15:43:10.002Z</time></trkpt><trkpt lat="43.5385103" lon="11.3077404"><ele>354.0</ele><time>2026-04-03T15:43:10.992Z</time></trkpt><trkpt lat="43.5385773" lon="11.3078285"><ele>354.0</ele><time>2026-04-03T15:43:12.002Z</time></trkpt><trkpt lat="43.5386254" lon="11.30791"><ele>354.0</ele><time>2026-04-03T15:43:13.008Z</time></trkpt><trkpt lat="43.5386607" lon="11.3079855"><ele>354.0</ele><time>2026-04-03T15:43:14.005Z</time></trkpt><trkpt lat="43.538735" lon="11.3081056"><ele>354.0</ele><time>2026-04-03T15:43:16.004Z</time></trkpt><trkpt lat="43.5387798" lon="11.308182"><ele>354.0</ele><time>2026-04-03T15:43:16.996Z</time></trkpt><trkpt lat="43.5388314" lon="11.3082648"><ele>354.0</ele><time>2026-04-03T15:43:17.991Z</time></trkpt><trkpt lat="43.5388887" lon="11.3083507"><ele>354.5</ele><time>2026-04-03T15:43:18.996Z</time></trkpt><trkpt lat="43.538954" lon="11.3084411"><ele>355.0</ele><time>2026-04-03T15:43:19.996Z</time></trkpt><trkpt lat="43.5390191" lon="11.3085202"><ele>355.5</ele><time>2026-04-03T15:43:20.999Z</time></trkpt><trkpt lat="43.5390801" lon="11.3085886"><ele>356.0</ele><time>2026-04-03T15:43:22.015Z</time></trkpt><trkpt lat="43.5391375" lon="11.3086519"><ele>356.5</ele><time>2026-04-03T15:43:23.008Z</time></trkpt><trkpt lat="43.5391927" lon="11.3087127"><ele>357.0</ele><time>2026-04-03T15:43:24.009Z</time></trkpt><trkpt lat="43.5392495" lon="11.3087755"><ele>357.0</ele><time>2026-04-03T15:43:25.012Z</time></trkpt><trkpt lat="43.5392977" lon="11.3088345"><ele>357.0</ele><time>2026-04-03T15:43:26.021Z</time></trkpt><trkpt lat="43.5393504" lon="11.3089293"><ele>357.0</ele><time>2026-04-03T15:43:27.999Z</time></trkpt><trkpt lat="43.5394255" lon="11.3088891"><ele>357.0</ele><time>2026-04-03T15:43:31.006Z</time></trkpt><trkpt lat="43.5394586" lon="11.3087428"><ele>357.0</ele><time>2026-04-03T15:43:33Z</time></trkpt><trkpt lat="43.5395102" lon="11.3086035"><ele>356.8</ele><time>2026-04-03T15:43:34.989Z</time></trkpt><trkpt lat="43.5396031" lon="11.3085517"><ele>356.6</ele><time>2026-04-03T15:43:36.993Z</time></trkpt><trkpt lat="43.5397039" lon="11.3086338"><ele>356.40000000000003</ele><time>2026-04-03T15:43:38.994Z</time></trkpt><trkpt lat="43.5397779" lon="11.308631"><ele>356.20000000000005</ele><time>2026-04-03T15:43:41.003Z</time></trkpt><trkpt lat="43.5397967" lon="11.3085151"><ele>356.0</ele><time>2026-04-03T15:43:43.001Z</time></trkpt><trkpt lat="43.5397926" lon="11.3083672"><ele>356.0</ele><time>2026-04-03T15:43:44.99Z</time></trkpt><trkpt lat="43.5398247" lon="11.3082405"><ele>356.0</ele><time>2026-04-03T15:43:46.996Z</time></trkpt><trkpt lat="43.5399105" lon="11.3081578"><ele>356.0</ele><time>2026-04-03T15:43:49Z</time></trkpt><trkpt lat="43.5399962" lon="11.3080661"><ele>356.0</ele><time>2026-04-03T15:43:50.998Z</time></trkpt><trkpt lat="43.5400877" lon="11.3080005"><ele>356.0</ele><time>2026-04-03T15:43:53.002Z</time></trkpt><trkpt lat="43.5401853" lon="11.3079951"><ele>355.8</ele><time>2026-04-03T15:43:55.007Z</time></trkpt><trkpt lat="43.5402809" lon="11.3080215"><ele>355.6</ele><time>2026-04-03T15:43:57.002Z</time></trkpt><trkpt lat="43.5403779" lon="11.308053"><ele>355.4</ele><time>2026-04-03T15:43:59.001Z</time></trkpt><trkpt lat="43.5404734" lon="11.308088"><ele>355.2</ele><time>2026-04-03T15:44:01.006Z</time></trkpt><trkpt lat="43.5405806" lon="11.3081189"><ele>355.0</ele><time>2026-04-03T15:44:02.998Z</time></trkpt><trkpt lat="43.5406939" lon="11.3081562"><ele>359.75</ele><time>2026-04-03T15:44:05.012Z</time></trkpt><trkpt lat="43.5408068" lon="11.308193"><ele>364.5</ele><time>2026-04-03T15:44:07.001Z</time></trkpt><trkpt lat="43.5409223" lon="11.3082303"><ele>369.25</ele><time>2026-04-03T15:44:09.007Z</time></trkpt><trkpt lat="43.5410386" lon="11.308264"><ele>374.0</ele><time>2026-04-03T15:44:10.994Z</time></trkpt><trkpt lat="43.5411607" lon="11.3083035"><ele>376.79999999999995</ele><time>2026-04-03T15:44:13.014Z</time></trkpt><trkpt lat="43.5412327" lon="11.308337"><ele>379.59999999999997</ele><time>2026-04-03T15:44:14.009Z</time></trkpt><trkpt lat="43.5413147" lon="11.3083759"><ele>382.4</ele><time>2026-04-03T15:44:15.006Z</time></trkpt><trkpt lat="43.5414058" lon="11.3084173"><ele>385.2</ele><time>2026-04-03T15:44:16.024Z</time></trkpt><trkpt lat="43.5415083" lon="11.3084605"><ele>388.0</ele><time>2026-04-03T15:44:17.003Z</time></trkpt><trkpt lat="43.541619" lon="11.3085081"><ele>388.0</ele><time>2026-04-03T15:44:18.023Z</time></trkpt><trkpt lat="43.5417338" lon="11.3085626"><ele>388.0</ele><time>2026-04-03T15:44:19.007Z</time></trkpt><trkpt lat="43.5418535" lon="11.3086194"><ele>388.0</ele><time>2026-04-03T15:44:20.013Z</time></trkpt><trkpt lat="43.5419766" lon="11.3086784"><ele>388.0</ele><time>2026-04-03T15:44:21.003Z</time></trkpt><trkpt lat="43.5420982" lon="11.3087312"><ele>390.5</ele><time>2026-04-03T15:44:21.995Z</time></trkpt><trkpt lat="43.542219" lon="11.3087815"><ele>393.0</ele><time>2026-04-03T15:44:22.986Z</time></trkpt><trkpt lat="43.5423405" lon="11.308842"><ele>395.5</ele><time>2026-04-03T15:44:23.999Z</time></trkpt><trkpt lat="43.5424621" lon="11.3088988"><ele>398.0</ele><time>2026-04-03T15:44:25.007Z</time></trkpt><trkpt lat="43.5425854" lon="11.3089518"><ele>398.5</ele><time>2026-04-03T15:44:26.006Z</time></trkpt><trkpt lat="43.5427153" lon="11.3090054"><ele>399.0</ele><time>2026-04-03T15:44:27.011Z</time></trkpt><trkpt lat="43.5428436" lon="11.3090603"><ele>399.5</ele><time>2026-04-03T15:44:28.009Z</time></trkpt><trkpt lat="43.5429754" lon="11.3091126"><ele>400.0</ele><time>2026-04-03T15:44:28.995Z</time></trkpt><trkpt lat="43.5431064" lon="11.3091689"><ele>403.25</ele><time>2026-04-03T15:44:30.006Z</time></trkpt><trkpt lat="43.5432328" lon="11.3092232"><ele>406.5</ele><time>2026-04-03T15:44:31.012Z</time></trkpt><trkpt lat="43.5433584" lon="11.3092759"><ele>409.75</ele><time>2026-04-03T15:44:31.999Z</time></trkpt><trkpt lat="43.5434776" lon="11.3093316"><ele>413.0</ele><time>2026-04-03T15:44:33.003Z</time></trkpt><trkpt lat="43.5435945" lon="11.3093839"><ele>413.0</ele><time>2026-04-03T15:44:34.004Z</time></trkpt><trkpt lat="43.5437105" lon="11.3094342"><ele>413.0</ele><time>2026-04-03T15:44:34.996Z</time></trkpt><trkpt lat="43.5438248" lon="11.3094833"><ele>413.0</ele><time>2026-04-03T15:44:36.007Z</time></trkpt><trkpt lat="43.5439356" lon="11.309531"><ele>413.0</ele><time>2026-04-03T15:44:37.001Z</time></trkpt><trkpt lat="43.5440433" lon="11.3095787"><ele>415.49999999999994</ele><time>2026-04-03T15:44:37.997Z</time></trkpt><trkpt lat="43.54414" lon="11.3096274"><ele>418.0</ele><time>2026-04-03T15:44:39.007Z</time></trkpt><trkpt lat="43.5442122" lon="11.3096573"><ele>420.5</ele><time>2026-04-03T15:44:40.007Z</time></trkpt><trkpt lat="43.5443306" lon="11.3096211"><ele>423.0</ele><time>2026-04-03T15:44:41.996Z</time></trkpt><trkpt lat="43.5443775" lon="11.3095541"><ele>425.49999999999994</ele><time>2026-04-03T15:44:42.991Z</time></trkpt><trkpt lat="43.544429" lon="11.3094817"><ele>428.0</ele><time>2026-04-03T15:44:44.008Z</time></trkpt><trkpt lat="43.5444911" lon="11.3094036"><ele>430.79999999999995</ele><time>2026-04-03T15:44:45.005Z</time></trkpt><trkpt lat="43.5445627" lon="11.3093297"><ele>433.59999999999997</ele><time>2026-04-03T15:44:46Z</time></trkpt><trkpt lat="43.5446426" lon="11.3092608"><ele>436.40000000000003</ele><time>2026-04-03T15:44:46.988Z</time></trkpt><trkpt lat="43.5447289" lon="11.3091904"><ele>439.20000000000005</ele><time>2026-04-03T15:44:47.996Z</time></trkpt><trkpt lat="43.5448185" lon="11.3091132"><ele>442.0</ele><time>2026-04-03T15:44:48.998Z</time></trkpt><trkpt lat="43.5449027" lon="11.3090383"><ele>442.0</ele><time>2026-04-03T15:44:49.998Z</time></trkpt><trkpt lat="43.5449858" lon="11.3089726"><ele>442.00000000000006</ele><time>2026-04-03T15:44:50.992Z</time></trkpt><trkpt lat="43.5450704" lon="11.3089141"><ele>442.00000000000006</ele><time>2026-04-03T15:44:52.001Z</time></trkpt><trkpt lat="43.5451534" lon="11.308852"><ele>442.0</ele><time>2026-04-03T15:44:52.992Z</time></trkpt><trkpt lat="43.5452328" lon="11.308788"><ele>442.0</ele><time>2026-04-03T15:44:53.996Z</time></trkpt><trkpt lat="43.5453136" lon="11.3087209"><ele>442.83333333333337</ele><time>2026-04-03T15:44:55.001Z</time></trkpt><trkpt lat="43.545393" lon="11.3086521"><ele>443.6666666666667</ele><time>2026-04-03T15:44:56Z</time></trkpt><trkpt lat="43.5454712" lon="11.3085759"><ele>444.5</ele><time>2026-04-03T15:44:56.979Z</time></trkpt><trkpt lat="43.5455464" lon="11.3084952"><ele>445.33333333333337</ele><time>2026-04-03T15:44:57.999Z</time></trkpt><trkpt lat="43.5456161" lon="11.3084218"><ele>446.1666666666667</ele><time>2026-04-03T15:44:58.993Z</time></trkpt><trkpt lat="43.5456753" lon="11.3083608"><ele>447.0</ele><time>2026-04-03T15:45:00Z</time></trkpt><trkpt lat="43.5457732" lon="11.3083042"><ele>447.0</ele><time>2026-04-03T15:45:02.005Z</time></trkpt><trkpt lat="43.5458105" lon="11.3084232"><ele>447.00000000000006</ele><time>2026-04-03T15:45:05.001Z</time></trkpt><trkpt lat="43.5457987" lon="11.3085585"><ele>447.00000000000006</ele><time>2026-04-03T15:45:07.003Z</time></trkpt><trkpt lat="43.5457781" lon="11.3087177"><ele>447.0</ele><time>2026-04-03T15:45:08.992Z</time></trkpt><trkpt lat="43.5457698" lon="11.3088535"><ele>447.0</ele><time>2026-04-03T15:45:10.983Z</time></trkpt><trkpt lat="43.5457893" lon="11.3089426"><ele>447.0</ele><time>2026-04-03T15:45:30.995Z</time></trkpt><trkpt lat="43.5458626" lon="11.3087964"><ele>447.00000000000006</ele><time>2026-04-03T15:45:34.002Z</time></trkpt><trkpt lat="43.5459089" lon="11.308698"><ele>447.00000000000006</ele><time>2026-04-03T15:45:35.013Z</time></trkpt><trkpt lat="43.5459731" lon="11.3085955"><ele>447.0</ele><time>2026-04-03T15:45:36.006Z</time></trkpt><trkpt lat="43.5460556" lon="11.3084965"><ele>447.0</ele><time>2026-04-03T15:45:37Z</time></trkpt><trkpt lat="43.5461428" lon="11.3083893"><ele>449.25</ele><time>2026-04-03T15:45:38.006Z</time></trkpt><trkpt lat="43.546221" lon="11.3082659"><ele>451.5</ele><time>2026-04-03T15:45:39.007Z</time></trkpt><trkpt lat="43.5463006" lon="11.3081374"><ele>453.75</ele><time>2026-04-03T15:45:39.996Z</time></trkpt><trkpt lat="43.5463922" lon="11.3080069"><ele>456.0</ele><time>2026-04-03T15:45:40.999Z</time></trkpt><trkpt lat="43.5464936" lon="11.307882"><ele>456.0</ele><time>2026-04-03T15:45:42.002Z</time></trkpt><trkpt lat="43.5465894" lon="11.307761"><ele>456.0</ele><time>2026-04-03T15:45:42.992Z</time></trkpt><trkpt lat="43.5466576" lon="11.3076319"><ele>456.0</ele><time>2026-04-03T15:45:43.994Z</time></trkpt><trkpt lat="43.5467048" lon="11.3074821"><ele>456.0</ele><time>2026-04-03T15:45:45.001Z</time></trkpt><trkpt lat="43.546741" lon="11.3073257"><ele>455.4</ele><time>2026-04-03T15:45:46.009Z</time></trkpt><trkpt lat="43.5467756" lon="11.3071704"><ele>454.8</ele><time>2026-04-03T15:45:47.003Z</time></trkpt><trkpt lat="43.5468133" lon="11.3070352"><ele>454.19999999999993</ele><time>2026-04-03T15:45:48.006Z</time></trkpt><trkpt lat="43.5468597" lon="11.3069302"><ele>453.59999999999997</ele><time>2026-04-03T15:45:48.997Z</time></trkpt><trkpt lat="43.5469212" lon="11.3068581"><ele>453.0</ele><time>2026-04-03T15:45:50.002Z</time></trkpt><trkpt lat="43.5470028" lon="11.3068083"><ele>455.79999999999995</ele><time>2026-04-03T15:45:51.005Z</time></trkpt><trkpt lat="43.5470871" lon="11.3067603"><ele>458.59999999999997</ele><time>2026-04-03T15:45:51.992Z</time></trkpt><trkpt lat="43.5471756" lon="11.3067034"><ele>461.40000000000003</ele><time>2026-04-03T15:45:52.988Z</time></trkpt><trkpt lat="43.5472682" lon="11.3066398"><ele>464.20000000000005</ele><time>2026-04-03T15:45:54.003Z</time></trkpt><trkpt lat="43.547364" lon="11.306569"><ele>467.0</ele><time>2026-04-03T15:45:54.992Z</time></trkpt><trkpt lat="43.5474678" lon="11.3064989"><ele>467.0</ele><time>2026-04-03T15:45:55.993Z</time></trkpt><trkpt lat="43.547581" lon="11.3064455"><ele>467.00000000000006</ele><time>2026-04-03T15:45:56.986Z</time></trkpt><trkpt lat="43.5477018" lon="11.3064131"><ele>467.00000000000006</ele><time>2026-04-03T15:45:58Z</time></trkpt><trkpt lat="43.54781" lon="11.3064022"><ele>467.0</ele><time>2026-04-03T15:45:58.99Z</time></trkpt><trkpt lat="43.547905" lon="11.3064304"><ele>467.0</ele><time>2026-04-03T15:45:59.997Z</time></trkpt><trkpt lat="43.5479852" lon="11.3064894"><ele>468.16666666666663</ele><time>2026-04-03T15:46:00.99Z</time></trkpt><trkpt lat="43.5480488" lon="11.3065581"><ele>469.3333333333333</ele><time>2026-04-03T15:46:01.987Z</time></trkpt><trkpt lat="43.5481055" lon="11.3066309"><ele>470.5</ele><time>2026-04-03T15:46:03Z</time></trkpt><trkpt lat="43.5481645" lon="11.3066911"><ele>471.66666666666663</ele><time>2026-04-03T15:46:03.992Z</time></trkpt><trkpt lat="43.5482255" lon="11.3067448"><ele>472.8333333333333</ele><time>2026-04-03T15:46:05.004Z</time></trkpt><trkpt lat="43.5482984" lon="11.3067546"><ele>474.0</ele><time>2026-04-03T15:46:06.002Z</time></trkpt><trkpt lat="43.5483762" lon="11.3066959"><ele>474.0</ele><time>2026-04-03T15:46:06.989Z</time></trkpt><trkpt lat="43.5484495" lon="11.3065913"><ele>474.0</ele><time>2026-04-03T15:46:08.006Z</time></trkpt><trkpt lat="43.5485047" lon="11.3065083"><ele>474.0</ele><time>2026-04-03T15:46:08.995Z</time></trkpt><trkpt lat="43.5485503" lon="11.3064153"><ele>474.0</ele><time>2026-04-03T15:46:10.001Z</time></trkpt><trkpt lat="43.5485859" lon="11.3063029"><ele>474.0</ele><time>2026-04-03T15:46:12.005Z</time></trkpt><trkpt lat="43.5485592" lon="11.3061914"><ele>474.0</ele><time>2026-04-03T15:46:14.996Z</time></trkpt><trkpt lat="43.5485155" lon="11.3060996"><ele>473.79999999999995</ele><time>2026-04-03T15:46:17.004Z</time></trkpt><trkpt lat="43.5484643" lon="11.3059366"><ele>473.59999999999997</ele><time>2026-04-03T15:46:18.999Z</time></trkpt><trkpt lat="43.5484327" lon="11.3058288"><ele>473.4</ele><time>2026-04-03T15:46:20.002Z</time></trkpt><trkpt lat="43.5483952" lon="11.3057127"><ele>473.2</ele><time>2026-04-03T15:46:20.995Z</time></trkpt><trkpt lat="43.5483405" lon="11.3055842"><ele>473.0</ele><time>2026-04-03T15:46:21.995Z</time></trkpt><trkpt lat="43.5482777" lon="11.3054408"><ele>473.0</ele><time>2026-04-03T15:46:23.004Z</time></trkpt><trkpt lat="43.5482116" lon="11.305284"><ele>473.0</ele><time>2026-04-03T15:46:24.001Z</time></trkpt><trkpt lat="43.5481492" lon="11.3051193"><ele>473.0</ele><time>2026-04-03T15:46:25.001Z</time></trkpt><trkpt lat="43.5480845" lon="11.3049544"><ele>473.0</ele><time>2026-04-03T15:46:26.005Z</time></trkpt><trkpt lat="43.5480328" lon="11.3047958"><ele>473.25</ele><time>2026-04-03T15:46:27.005Z</time></trkpt><trkpt lat="43.5479926" lon="11.3046417"><ele>473.5</ele><time>2026-04-03T15:46:28.004Z</time></trkpt><trkpt lat="43.5479637" lon="11.3044871"><ele>473.75</ele><time>2026-04-03T15:46:29.004Z</time></trkpt><trkpt lat="43.547945" lon="11.304328"><ele>474.0</ele><time>2026-04-03T15:46:30.007Z</time></trkpt><trkpt lat="43.5479416" lon="11.3041833"><ele>474.0</ele><time>2026-04-03T15:46:30.999Z</time></trkpt><trkpt lat="43.5479442" lon="11.30405"><ele>474.0</ele><time>2026-04-03T15:46:31.995Z</time></trkpt><trkpt lat="43.5479509" lon="11.3039158"><ele>474.0</ele><time>2026-04-03T15:46:32.994Z</time></trkpt><trkpt lat="43.5479618" lon="11.3037714"><ele>474.0</ele><time>2026-04-03T15:46:34.004Z</time></trkpt><trkpt lat="43.5479822" lon="11.3036262"><ele>474.0</ele><time>2026-04-03T15:46:35.005Z</time></trkpt><trkpt lat="43.5480051" lon="11.3034924"><ele>473.6</ele><time>2026-04-03T15:46:36.021Z</time></trkpt><trkpt lat="43.5480291" lon="11.3033631"><ele>473.2</ele><time>2026-04-03T15:46:37.002Z</time></trkpt><trkpt lat="43.5480553" lon="11.3032315"><ele>472.80000000000007</ele><time>2026-04-03T15:46:38.011Z</time></trkpt><trkpt lat="43.5480972" lon="11.303081"><ele>472.40000000000003</ele><time>2026-04-03T15:46:39.001Z</time></trkpt><trkpt lat="43.548155" lon="11.3029296"><ele>472.0</ele><time>2026-04-03T15:46:40.007Z</time></trkpt><trkpt lat="43.5482243" lon="11.3027735"><ele>469.75</ele><time>2026-04-03T15:46:41.009Z</time></trkpt><trkpt lat="43.5483004" lon="11.3026135"><ele>467.5</ele><time>2026-04-03T15:46:42.006Z</time></trkpt><trkpt lat="43.54838" lon="11.3024555"><ele>465.25</ele><time>2026-04-03T15:46:43.003Z</time></trkpt><trkpt lat="43.5484601" lon="11.3023076"><ele>463.0</ele><time>2026-04-03T15:46:43.994Z</time></trkpt><trkpt lat="43.5485307" lon="11.3021816"><ele>461.79999999999995</ele><time>2026-04-03T15:46:45.006Z</time></trkpt><trkpt lat="43.5485867" lon="11.3020666"><ele>460.59999999999997</ele><time>2026-04-03T15:46:46.005Z</time></trkpt><trkpt lat="43.5486236" lon="11.3019463"><ele>459.40000000000003</ele><time>2026-04-03T15:46:47.006Z</time></trkpt><trkpt lat="43.5486488" lon="11.3018193"><ele>458.20000000000005</ele><time>2026-04-03T15:46:48.013Z</time></trkpt><trkpt lat="43.5486688" lon="11.3017056"><ele>457.0</ele><time>2026-04-03T15:46:49.006Z</time></trkpt><trkpt lat="43.548696" lon="11.3016024"><ele>457.40000000000003</ele><time>2026-04-03T15:46:50.014Z</time></trkpt><trkpt lat="43.5487309" lon="11.301489"><ele>457.80000000000007</ele><time>2026-04-03T15:46:50.995Z</time></trkpt><trkpt lat="43.548782" lon="11.3013659"><ele>458.2</ele><time>2026-04-03T15:46:52.017Z</time></trkpt><trkpt lat="43.5488505" lon="11.3012233"><ele>458.6</ele><time>2026-04-03T15:46:53.001Z</time></trkpt><trkpt lat="43.5489232" lon="11.3010719"><ele>459.0</ele><time>2026-04-03T15:46:54.011Z</time></trkpt><trkpt lat="43.5490002" lon="11.3009098"><ele>459.0</ele><time>2026-04-03T15:46:54.995Z</time></trkpt><trkpt lat="43.5490815" lon="11.3007434"><ele>459.0</ele><time>2026-04-03T15:46:56.001Z</time></trkpt><trkpt lat="43.5491645" lon="11.3005784"><ele>459.0</ele><time>2026-04-03T15:46:57.012Z</time></trkpt><trkpt lat="43.5492433" lon="11.3004208"><ele>459.0</ele><time>2026-04-03T15:46:58.005Z</time></trkpt><trkpt lat="43.5493162" lon="11.300268"><ele>458.5</ele><time>2026-04-03T15:46:59.01Z</time></trkpt><trkpt lat="43.5493838" lon="11.3001218"><ele>458.0</ele><time>2026-04-03T15:47:00.015Z</time></trkpt><trkpt lat="43.5494487" lon="11.2999852"><ele>457.5</ele><time>2026-04-03T15:47:01.007Z</time></trkpt><trkpt lat="43.5495116" lon="11.2998484"><ele>457.0</ele><time>2026-04-03T15:47:02.018Z</time></trkpt><trkpt lat="43.5495773" lon="11.2997088"><ele>457.0</ele><time>2026-04-03T15:47:03.006Z</time></trkpt><trkpt lat="43.5496461" lon="11.2995679"><ele>457.0</ele><time>2026-04-03T15:47:04.015Z</time></trkpt><trkpt lat="43.549716" lon="11.2994336"><ele>457.0</ele><time>2026-04-03T15:47:05.014Z</time></trkpt><trkpt lat="43.5497813" lon="11.299302"><ele>457.0</ele><time>2026-04-03T15:47:06.007Z</time></trkpt><trkpt lat="43.5498541" lon="11.2991682"><ele>457.0</ele><time>2026-04-03T15:47:06.998Z</time></trkpt><trkpt lat="43.5499362" lon="11.2990434"><ele>457.0</ele><time>2026-04-03T15:47:08.005Z</time></trkpt><trkpt lat="43.5500349" lon="11.2989391"><ele>457.0</ele><time>2026-04-03T15:47:09Z</time></trkpt><trkpt lat="43.5501405" lon="11.2988479"><ele>457.0</ele><time>2026-04-03T15:47:10.008Z</time></trkpt><trkpt lat="43.5502508" lon="11.2987564"><ele>457.75</ele><time>2026-04-03T15:47:11.01Z</time></trkpt><trkpt lat="43.5503669" lon="11.298664"><ele>458.5</ele><time>2026-04-03T15:47:12.004Z</time></trkpt><trkpt lat="43.5504809" lon="11.2985718"><ele>459.25</ele><time>2026-04-03T15:47:13.001Z</time></trkpt><trkpt lat="43.5505909" lon="11.2984678"><ele>460.0</ele><time>2026-04-03T15:47:14.023Z</time></trkpt><trkpt lat="43.5507025" lon="11.2983716"><ele>460.0</ele><time>2026-04-03T15:47:15.006Z</time></trkpt><trkpt lat="43.5508049" lon="11.2982815"><ele>460.0</ele><time>2026-04-03T15:47:16.003Z</time></trkpt><trkpt lat="43.5509012" lon="11.2981918"><ele>460.0</ele><time>2026-04-03T15:47:16.994Z</time></trkpt><trkpt lat="43.5509935" lon="11.2981063"><ele>460.0</ele><time>2026-04-03T15:47:18.005Z</time></trkpt><trkpt lat="43.5510793" lon="11.2980178"><ele>460.2</ele><time>2026-04-03T15:47:18.993Z</time></trkpt><trkpt lat="43.5511536" lon="11.2979318"><ele>460.4</ele><time>2026-04-03T15:47:20.015Z</time></trkpt><trkpt lat="43.5512203" lon="11.2978325"><ele>460.6</ele><time>2026-04-03T15:47:20.998Z</time></trkpt><trkpt lat="43.5512822" lon="11.297724"><ele>460.8</ele><time>2026-04-03T15:47:22.005Z</time></trkpt><trkpt lat="43.5513457" lon="11.2976081"><ele>461.0</ele><time>2026-04-03T15:47:22.992Z</time></trkpt><trkpt lat="43.5514116" lon="11.2974916"><ele>460.99999999999994</ele><time>2026-04-03T15:47:24.002Z</time></trkpt><trkpt lat="43.5514803" lon="11.2973822"><ele>461.0</ele><time>2026-04-03T15:47:25.007Z</time></trkpt><trkpt lat="43.5515432" lon="11.2972842"><ele>461.0</ele><time>2026-04-03T15:47:26.001Z</time></trkpt><trkpt lat="43.5515953" lon="11.2972003"><ele>461.0</ele><time>2026-04-03T15:47:26.991Z</time></trkpt><trkpt lat="43.5516466" lon="11.2971268"><ele>460.99999999999994</ele><time>2026-04-03T15:47:28.002Z</time></trkpt><trkpt lat="43.5516984" lon="11.2970585"><ele>461.0</ele><time>2026-04-03T15:47:29.003Z</time></trkpt><trkpt lat="43.5517517" lon="11.2969959"><ele>458.99999999999994</ele><time>2026-04-03T15:47:29.994Z</time></trkpt><trkpt lat="43.5518106" lon="11.2969365"><ele>457.0</ele><time>2026-04-03T15:47:30.991Z</time></trkpt><trkpt lat="43.5518851" lon="11.2968859"><ele>455.0</ele><time>2026-04-03T15:47:31.995Z</time></trkpt><trkpt lat="43.5519644" lon="11.2968315"><ele>453.0</ele><time>2026-04-03T15:47:32.998Z</time></trkpt><trkpt lat="43.5520488" lon="11.2967695"><ele>450.99999999999994</ele><time>2026-04-03T15:47:34.016Z</time></trkpt><trkpt lat="43.5521336" lon="11.296705"><ele>449.0</ele><time>2026-04-03T15:47:34.99Z</time></trkpt><trkpt lat="43.552218" lon="11.2966386"><ele>448.99999999999994</ele><time>2026-04-03T15:47:36.012Z</time></trkpt><trkpt lat="43.5522994" lon="11.2965814"><ele>449.0</ele><time>2026-04-03T15:47:36.997Z</time></trkpt><trkpt lat="43.5523733" lon="11.2965157"><ele>449.0</ele><time>2026-04-03T15:47:38.013Z</time></trkpt><trkpt lat="43.5524426" lon="11.2964505"><ele>449.0</ele><time>2026-04-03T15:47:39.008Z</time></trkpt><trkpt lat="43.5525087" lon="11.2963906"><ele>448.99999999999994</ele><time>2026-04-03T15:47:40.009Z</time></trkpt><trkpt lat="43.5525722" lon="11.2963328"><ele>449.0</ele><time>2026-04-03T15:47:41.002Z</time></trkpt><trkpt lat="43.5526331" lon="11.2962736"><ele>446.2</ele><time>2026-04-03T15:47:41.999Z</time></trkpt><trkpt lat="43.5526932" lon="11.2962116"><ele>443.4</ele><time>2026-04-03T15:47:43.006Z</time></trkpt><trkpt lat="43.5527542" lon="11.2961476"><ele>440.6</ele><time>2026-04-03T15:47:44.006Z</time></trkpt><trkpt lat="43.5528174" lon="11.2960641"><ele>437.8</ele><time>2026-04-03T15:47:45.001Z</time></trkpt><trkpt lat="43.5528768" lon="11.2959564"><ele>435.0</ele><time>2026-04-03T15:47:46.007Z</time></trkpt><trkpt lat="43.5529302" lon="11.2958125"><ele>435.0</ele><time>2026-04-03T15:47:46.996Z</time></trkpt><trkpt lat="43.5529779" lon="11.2956584"><ele>435.0</ele><time>2026-04-03T15:47:47.997Z</time></trkpt><trkpt lat="43.5530272" lon="11.2955204"><ele>435.0</ele><time>2026-04-03T15:47:48.996Z</time></trkpt><trkpt lat="43.5530891" lon="11.2953955"><ele>435.0</ele><time>2026-04-03T15:47:50.014Z</time></trkpt><trkpt lat="43.5531531" lon="11.2952717"><ele>433.0</ele><time>2026-04-03T15:47:50.995Z</time></trkpt><trkpt lat="43.5532162" lon="11.2951384"><ele>431.0</ele><time>2026-04-03T15:47:52.016Z</time></trkpt><trkpt lat="43.5532812" lon="11.2949969"><ele>429.0</ele><time>2026-04-03T15:47:53.007Z</time></trkpt><trkpt lat="43.5533489" lon="11.2948613"><ele>427.0</ele><time>2026-04-03T15:47:54.003Z</time></trkpt><trkpt lat="43.5534186" lon="11.2947345"><ele>426.6</ele><time>2026-04-03T15:47:54.996Z</time></trkpt><trkpt lat="43.5534947" lon="11.2946104"><ele>426.20000000000005</ele><time>2026-04-03T15:47:55.997Z</time></trkpt><trkpt lat="43.5535721" lon="11.294488"><ele>425.8</ele><time>2026-04-03T15:47:57.003Z</time></trkpt><trkpt lat="43.5536469" lon="11.294373"><ele>425.4</ele><time>2026-04-03T15:47:58.002Z</time></trkpt><trkpt lat="43.5537124" lon="11.2942678"><ele>425.0</ele><time>2026-04-03T15:47:59.007Z</time></trkpt><trkpt lat="43.5537708" lon="11.2941706"><ele>424.99999999999994</ele><time>2026-04-03T15:48:00.001Z</time></trkpt><trkpt lat="43.5538261" lon="11.2940821"><ele>425.0</ele><time>2026-04-03T15:48:00.991Z</time></trkpt><trkpt lat="43.553878" lon="11.2939905"><ele>425.0</ele><time>2026-04-03T15:48:01.995Z</time></trkpt><trkpt lat="43.5539209" lon="11.2938877"><ele>425.0</ele><time>2026-04-03T15:48:03.004Z</time></trkpt><trkpt lat="43.553954" lon="11.2937863"><ele>424.99999999999994</ele><time>2026-04-03T15:48:04.007Z</time></trkpt><trkpt lat="43.5539798" lon="11.2936874"><ele>425.0</ele><time>2026-04-03T15:48:04.998Z</time></trkpt><trkpt lat="43.5540133" lon="11.293588"><ele>424.49999999999994</ele><time>2026-04-03T15:48:06.006Z</time></trkpt><trkpt lat="43.5540579" lon="11.2935096"><ele>424.0</ele><time>2026-04-03T15:48:07.002Z</time></trkpt><trkpt lat="43.5541129" lon="11.2934514"><ele>423.5</ele><time>2026-04-03T15:48:08.003Z</time></trkpt><trkpt lat="43.5541788" lon="11.293394"><ele>423.0</ele><time>2026-04-03T15:48:09.002Z</time></trkpt><trkpt lat="43.5542478" lon="11.2933277"><ele>422.49999999999994</ele><time>2026-04-03T15:48:10.013Z</time></trkpt><trkpt lat="43.5543193" lon="11.2932567"><ele>422.0</ele><time>2026-04-03T15:48:11.009Z</time></trkpt><trkpt lat="43.5543965" lon="11.2931838"><ele>422.0</ele><time>2026-04-03T15:48:11.999Z</time></trkpt><trkpt lat="43.5544787" lon="11.2931189"><ele>422.0</ele><time>2026-04-03T15:48:13.006Z</time></trkpt><trkpt lat="43.5545721" lon="11.2930782"><ele>422.0</ele><time>2026-04-03T15:48:14.013Z</time></trkpt><trkpt lat="43.554676" lon="11.2930608"><ele>422.0</ele><time>2026-04-03T15:48:15.001Z</time></trkpt><trkpt lat="43.5547809" lon="11.2930556"><ele>422.0</ele><time>2026-04-03T15:48:15.995Z</time></trkpt><trkpt lat="43.5548872" lon="11.2930395"><ele>423.0</ele><time>2026-04-03T15:48:17.005Z</time></trkpt><trkpt lat="43.5549961" lon="11.2930165"><ele>424.0</ele><time>2026-04-03T15:48:18.002Z</time></trkpt><trkpt lat="43.5550969" lon="11.2930054"><ele>425.00000000000006</ele><time>2026-04-03T15:48:18.996Z</time></trkpt><trkpt lat="43.555186" lon="11.293001"><ele>426.0</ele><time>2026-04-03T15:48:19.999Z</time></trkpt><trkpt lat="43.555264" lon="11.2930143"><ele>427.0</ele><time>2026-04-03T15:48:21.002Z</time></trkpt><trkpt lat="43.5553383" lon="11.2930375"><ele>427.7142857142857</ele><time>2026-04-03T15:48:22.01Z</time></trkpt><trkpt lat="43.5554044" lon="11.2930693"><ele>428.42857142857144</ele><time>2026-04-03T15:48:23.005Z</time></trkpt><trkpt lat="43.5554587" lon="11.2931217"><ele>429.1428571428571</ele><time>2026-04-03T15:48:24.007Z</time></trkpt><trkpt lat="43.5555061" lon="11.2931924"><ele>429.8571428571429</ele><time>2026-04-03T15:48:25.004Z</time></trkpt><trkpt lat="43.5555407" lon="11.2932819"><ele>430.57142857142856</ele><time>2026-04-03T15:48:26.006Z</time></trkpt><trkpt lat="43.5555643" lon="11.2933824"><ele>431.2857142857143</ele><time>2026-04-03T15:48:26.997Z</time></trkpt><trkpt lat="43.5555875" lon="11.2934823"><ele>432.0</ele><time>2026-04-03T15:48:27.994Z</time></trkpt><trkpt lat="43.5556073" lon="11.2935677"><ele>433.3333333333333</ele><time>2026-04-03T15:48:29Z</time></trkpt><trkpt lat="43.5556298" lon="11.2936489"><ele>434.66666666666663</ele><time>2026-04-03T15:48:30.004Z</time></trkpt><trkpt lat="43.555666" lon="11.2937827"><ele>436.0</ele><time>2026-04-03T15:48:32.01Z</time></trkpt><trkpt lat="43.5557007" lon="11.2938793"><ele>437.3333333333333</ele><time>2026-04-03T15:48:34.005Z</time></trkpt><trkpt lat="43.5557899" lon="11.2938931"><ele>438.66666666666663</ele><time>2026-04-03T15:48:36.992Z</time></trkpt><trkpt lat="43.5558887" lon="11.293828"><ele>440.0</ele><time>2026-04-03T15:48:39.002Z</time></trkpt><trkpt lat="43.5559806" lon="11.2937788"><ele>439.99999999999994</ele><time>2026-04-03T15:48:40.996Z</time></trkpt><trkpt lat="43.5560765" lon="11.2937364"><ele>440.0</ele><time>2026-04-03T15:48:43.005Z</time></trkpt><trkpt lat="43.5561399" lon="11.2937168"><ele>440.0</ele><time>2026-04-03T15:48:44.003Z</time></trkpt><trkpt lat="43.5562115" lon="11.293694"><ele>440.0</ele><time>2026-04-03T15:48:44.998Z</time></trkpt><trkpt lat="43.5562828" lon="11.2936635"><ele>439.99999999999994</ele><time>2026-04-03T15:48:45.998Z</time></trkpt><trkpt lat="43.556353" lon="11.2936379"><ele>440.0</ele><time>2026-04-03T15:48:46.989Z</time></trkpt><trkpt lat="43.5564181" lon="11.2936122"><ele>439.8</ele><time>2026-04-03T15:48:48.013Z</time></trkpt><trkpt lat="43.5565386" lon="11.2935677"><ele>439.6</ele><time>2026-04-03T15:48:49.997Z</time></trkpt><trkpt lat="43.5566573" lon="11.2935324"><ele>439.4</ele><time>2026-04-03T15:48:52.005Z</time></trkpt><trkpt lat="43.5567571" lon="11.2935079"><ele>439.2</ele><time>2026-04-03T15:48:54.008Z</time></trkpt><trkpt lat="43.5568338" lon="11.2934818"><ele>439.0</ele><time>2026-04-03T15:48:56.007Z</time></trkpt><trkpt lat="43.5568479" lon="11.293353"><ele>439.0</ele><time>2026-04-03T15:49:00.011Z</time></trkpt><trkpt lat="43.5568159" lon="11.2931769"><ele>439.0</ele><time>2026-04-03T15:49:01.996Z</time></trkpt><trkpt lat="43.5568198" lon="11.2930298"><ele>439.0</ele><time>2026-04-03T15:49:03.995Z</time></trkpt><trkpt lat="43.5568828" lon="11.2929377"><ele>439.0</ele><time>2026-04-03T15:49:05.998Z</time></trkpt><trkpt lat="43.5569648" lon="11.2929174"><ele>439.0</ele><time>2026-04-03T15:49:08.993Z</time></trkpt><trkpt lat="43.5570533" lon="11.2929269"><ele>437.33333333333337</ele><time>2026-04-03T15:49:12.006Z</time></trkpt><trkpt lat="43.5571295" lon="11.2929131"><ele>435.6666666666667</ele><time>2026-04-03T15:49:14.009Z</time></trkpt><trkpt lat="43.5572014" lon="11.292886"><ele>434.0</ele><time>2026-04-03T15:49:16.01Z</time></trkpt><trkpt lat="43.5572779" lon="11.2928697"><ele>432.33333333333337</ele><time>2026-04-03T15:49:19.006Z</time></trkpt><trkpt lat="43.5573584" lon="11.2928987"><ele>430.6666666666667</ele><time>2026-04-03T15:49:30.007Z</time></trkpt><trkpt lat="43.5574222" lon="11.2929732"><ele>429.0</ele><time>2026-04-03T15:49:32.009Z</time></trkpt><trkpt lat="43.5575052" lon="11.2930881"><ele>429.0</ele><time>2026-04-03T15:49:34.005Z</time></trkpt><trkpt lat="43.5575495" lon="11.2932107"><ele>429.0</ele><time>2026-04-03T15:49:35.997Z</time></trkpt><trkpt lat="43.5575723" lon="11.2931272"><ele>429.0</ele><time>2026-04-03T15:49:58.004Z</time></trkpt><trkpt lat="43.5575017" lon="11.2930501"><ele>429.0</ele><time>2026-04-03T15:50:00.015Z</time></trkpt><trkpt lat="43.5574315" lon="11.2929666"><ele>429.0</ele><time>2026-04-03T15:50:01.997Z</time></trkpt><trkpt lat="43.5573776" lon="11.2928856"><ele>429.0</ele><time>2026-04-03T15:50:03.997Z</time></trkpt><trkpt lat="43.5573188" lon="11.2928517"><ele>429.0</ele><time>2026-04-03T15:50:08.01Z</time></trkpt><trkpt lat="43.5572536" lon="11.292886"><ele>429.0</ele><time>2026-04-03T15:50:10.01Z</time></trkpt><trkpt lat="43.5571397" lon="11.2929118"><ele>429.0</ele><time>2026-04-03T15:50:12.006Z</time></trkpt><trkpt lat="43.5570416" lon="11.2929194"><ele>429.0</ele><time>2026-04-03T15:50:14.008Z</time></trkpt><trkpt lat="43.5569701" lon="11.2929335"><ele>429.0</ele><time>2026-04-03T15:50:16.002Z</time></trkpt><trkpt lat="43.5568865" lon="11.2929586"><ele>429.0</ele><time>2026-04-03T15:50:19.002Z</time></trkpt><trkpt lat="43.5568286" lon="11.2930474"><ele>431.0</ele><time>2026-04-03T15:50:20.994Z</time></trkpt><trkpt lat="43.5568063" lon="11.2931672"><ele>433.0</ele><time>2026-04-03T15:50:23.007Z</time></trkpt><trkpt lat="43.5568182" lon="11.2932934"><ele>435.0</ele><time>2026-04-03T15:50:25.02Z</time></trkpt><trkpt lat="43.5568502" lon="11.2934095"><ele>437.0</ele><time>2026-04-03T15:50:26.995Z</time></trkpt><trkpt lat="43.5569213" lon="11.2934796"><ele>439.0</ele><time>2026-04-03T15:50:28.993Z</time></trkpt><trkpt lat="43.5570436" lon="11.2934756"><ele>439.0</ele><time>2026-04-03T15:50:30.995Z</time></trkpt><trkpt lat="43.5571406" lon="11.2934899"><ele>439.0</ele><time>2026-04-03T15:50:33.002Z</time></trkpt><trkpt lat="43.5571858" lon="11.2935816"><ele>439.0</ele><time>2026-04-03T15:50:34.994Z</time></trkpt><trkpt lat="43.5571852" lon="11.2937285"><ele>439.0</ele><time>2026-04-03T15:50:36.989Z</time></trkpt><trkpt lat="43.5571884" lon="11.2939033"><ele>439.0</ele><time>2026-04-03T15:50:38.996Z</time></trkpt><trkpt lat="43.5572328" lon="11.294074"><ele>441.00000000000006</ele><time>2026-04-03T15:50:41.007Z</time></trkpt><trkpt lat="43.5572618" lon="11.2941648"><ele>443.0</ele><time>2026-04-03T15:50:42.001Z</time></trkpt><trkpt lat="43.5572958" lon="11.294259"><ele>445.0</ele><time>2026-04-03T15:50:43.004Z</time></trkpt><trkpt lat="43.5573286" lon="11.2943511"><ele>447.0</ele><time>2026-04-03T15:50:43.994Z</time></trkpt><trkpt lat="43.5573626" lon="11.294443"><ele>449.00000000000006</ele><time>2026-04-03T15:50:44.999Z</time></trkpt><trkpt lat="43.5573975" lon="11.2945341"><ele>451.0</ele><time>2026-04-03T15:50:45.993Z</time></trkpt><trkpt lat="43.5574354" lon="11.294628"><ele>451.00000000000006</ele><time>2026-04-03T15:50:46.991Z</time></trkpt><trkpt lat="43.5574828" lon="11.2947309"><ele>451.0</ele><time>2026-04-03T15:50:47.998Z</time></trkpt><trkpt lat="43.5575342" lon="11.294847"><ele>451.0</ele><time>2026-04-03T15:50:48.993Z</time></trkpt><trkpt lat="43.5575808" lon="11.2949611"><ele>451.0</ele><time>2026-04-03T15:50:49.999Z</time></trkpt><trkpt lat="43.5576216" lon="11.2950693"><ele>451.00000000000006</ele><time>2026-04-03T15:50:50.998Z</time></trkpt><trkpt lat="43.5576499" lon="11.2951582"><ele>451.0</ele><time>2026-04-03T15:50:52.011Z</time></trkpt><trkpt lat="43.5576525" lon="11.2952859"><ele>454.75</ele><time>2026-04-03T15:50:53.995Z</time></trkpt><trkpt lat="43.557584" lon="11.2954422"><ele>458.5</ele><time>2026-04-03T15:50:56.002Z</time></trkpt><trkpt lat="43.5575196" lon="11.2955552"><ele>462.25</ele><time>2026-04-03T15:50:57.013Z</time></trkpt><trkpt lat="43.5574541" lon="11.2956842"><ele>466.0</ele><time>2026-04-03T15:50:58.012Z</time></trkpt><trkpt lat="43.5573889" lon="11.2958332"><ele>469.75</ele><time>2026-04-03T15:50:59.013Z</time></trkpt><trkpt lat="43.5573305" lon="11.2959862"><ele>473.5</ele><time>2026-04-03T15:50:59.993Z</time></trkpt><trkpt lat="43.5572688" lon="11.2961347"><ele>477.25</ele><time>2026-04-03T15:51:01.007Z</time></trkpt><trkpt lat="43.5572025" lon="11.2962743"><ele>481.0</ele><time>2026-04-03T15:51:01.996Z</time></trkpt><trkpt lat="43.5571282" lon="11.2964071"><ele>482.0</ele><time>2026-04-03T15:51:02.995Z</time></trkpt><trkpt lat="43.5570421" lon="11.2965064"><ele>483.0</ele><time>2026-04-03T15:51:04.008Z</time></trkpt><trkpt lat="43.5569472" lon="11.2965693"><ele>484.0</ele><time>2026-04-03T15:51:05.005Z</time></trkpt><trkpt lat="43.5568608" lon="11.2966259"><ele>485.0</ele><time>2026-04-03T15:51:05.992Z</time></trkpt><trkpt lat="43.5567868" lon="11.2966796"><ele>486.0</ele><time>2026-04-03T15:51:06.997Z</time></trkpt><trkpt lat="43.556719" lon="11.2967465"><ele>486.0</ele><time>2026-04-03T15:51:07.995Z</time></trkpt><trkpt lat="43.5566676" lon="11.296826"><ele>486.0</ele><time>2026-04-03T15:51:09.009Z</time></trkpt><trkpt lat="43.5566456" lon="11.2969138"><ele>486.0</ele><time>2026-04-03T15:51:09.996Z</time></trkpt><trkpt lat="43.5566155" lon="11.29701"><ele>486.0</ele><time>2026-04-03T15:51:11.002Z</time></trkpt><trkpt lat="43.5565817" lon="11.2971059"><ele>486.0</ele><time>2026-04-03T15:51:11.998Z</time></trkpt><trkpt lat="43.5565547" lon="11.2972085"><ele>486.0</ele><time>2026-04-03T15:51:13.006Z</time></trkpt><trkpt lat="43.5565427" lon="11.2973122"><ele>487.4</ele><time>2026-04-03T15:51:14.005Z</time></trkpt><trkpt lat="43.5565311" lon="11.2974436"><ele>488.8</ele><time>2026-04-03T15:51:16.004Z</time></trkpt><trkpt lat="43.5565185" lon="11.2975538"><ele>490.19999999999993</ele><time>2026-04-03T15:51:18.986Z</time></trkpt><trkpt lat="43.5565317" lon="11.2976562"><ele>491.59999999999997</ele><time>2026-04-03T15:51:35.998Z</time></trkpt><trkpt lat="43.5566496" lon="11.2976442"><ele>493.0</ele><time>2026-04-03T15:51:38.013Z</time></trkpt><trkpt lat="43.556736" lon="11.2976023"><ele>493.0</ele><time>2026-04-03T15:51:38.996Z</time></trkpt><trkpt lat="43.5568478" lon="11.2975582"><ele>493.0</ele><time>2026-04-03T15:51:40.003Z</time></trkpt><trkpt lat="43.5569785" lon="11.2975038"><ele>493.0</ele><time>2026-04-03T15:51:41.012Z</time></trkpt><trkpt lat="43.5571253" lon="11.2974567"><ele>493.0</ele><time>2026-04-03T15:51:42Z</time></trkpt><trkpt lat="43.5572834" lon="11.2974211"><ele>494.5</ele><time>2026-04-03T15:51:42.998Z</time></trkpt><trkpt lat="43.5574273" lon="11.2974235"><ele>496.0</ele><time>2026-04-03T15:51:44.003Z</time></trkpt><trkpt lat="43.5575544" lon="11.2974478"><ele>497.5</ele><time>2026-04-03T15:51:45.009Z</time></trkpt><trkpt lat="43.5576771" lon="11.2974624"><ele>499.0</ele><time>2026-04-03T15:51:46.002Z</time></trkpt><trkpt lat="43.5578005" lon="11.2974474"><ele>500.0</ele><time>2026-04-03T15:51:46.999Z</time></trkpt><trkpt lat="43.5579318" lon="11.2973888"><ele>501.0</ele><time>2026-04-03T15:51:47.998Z</time></trkpt><trkpt lat="43.5580711" lon="11.2972796"><ele>502.0</ele><time>2026-04-03T15:51:48.995Z</time></trkpt><trkpt lat="43.5582185" lon="11.2971819"><ele>502.0</ele><time>2026-04-03T15:51:50.001Z</time></trkpt><trkpt lat="43.5583711" lon="11.2971011"><ele>502.0</ele><time>2026-04-03T15:51:50.999Z</time></trkpt><trkpt lat="43.5585324" lon="11.2970427"><ele>502.0</ele><time>2026-04-03T15:51:52.01Z</time></trkpt><trkpt lat="43.5587023" lon="11.2969986"><ele>502.0</ele><time>2026-04-03T15:51:53.002Z</time></trkpt><trkpt lat="43.5588713" lon="11.2969414"><ele>502.0</ele><time>2026-04-03T15:51:54.004Z</time></trkpt><trkpt lat="43.5590438" lon="11.2968758"><ele>502.0</ele><time>2026-04-03T15:51:55.006Z</time></trkpt><trkpt lat="43.5592148" lon="11.2968124"><ele>502.0</ele><time>2026-04-03T15:51:56.005Z</time></trkpt><trkpt lat="43.5593888" lon="11.2967482"><ele>502.0</ele><time>2026-04-03T15:51:56.993Z</time></trkpt><trkpt lat="43.5595577" lon="11.2967211"><ele>502.0</ele><time>2026-04-03T15:51:58.007Z</time></trkpt><trkpt lat="43.5597128" lon="11.2967296"><ele>501.75</ele><time>2026-04-03T15:51:59.005Z</time></trkpt><trkpt lat="43.5598513" lon="11.2967387"><ele>501.5</ele><time>2026-04-03T15:52:00.001Z</time></trkpt><trkpt lat="43.5599785" lon="11.296744"><ele>501.25</ele><time>2026-04-03T15:52:01.003Z</time></trkpt><trkpt lat="43.5600881" lon="11.2967288"><ele>501.0</ele><time>2026-04-03T15:52:02.013Z</time></trkpt><trkpt lat="43.560178" lon="11.2966991"><ele>501.0</ele><time>2026-04-03T15:52:03Z</time></trkpt><trkpt lat="43.5602494" lon="11.2966632"><ele>501.0</ele><time>2026-04-03T15:52:04.013Z</time></trkpt><trkpt lat="43.5603083" lon="11.2966288"><ele>501.0</ele><time>2026-04-03T15:52:05.003Z</time></trkpt><trkpt lat="43.5603715" lon="11.2965911"><ele>501.0</ele><time>2026-04-03T15:52:06.003Z</time></trkpt><trkpt lat="43.5604508" lon="11.296549"><ele>501.0</ele><time>2026-04-03T15:52:06.998Z</time></trkpt><trkpt lat="43.5605458" lon="11.2965027"><ele>501.0</ele><time>2026-04-03T15:52:08.002Z</time></trkpt><trkpt lat="43.5606498" lon="11.2964461"><ele>500.5</ele><time>2026-04-03T15:52:09Z</time></trkpt><trkpt lat="43.5607663" lon="11.2963752"><ele>500.0</ele><time>2026-04-03T15:52:10.007Z</time></trkpt><trkpt lat="43.56089" lon="11.2963011"><ele>499.5</ele><time>2026-04-03T15:52:10.997Z</time></trkpt><trkpt lat="43.5610162" lon="11.2962228"><ele>499.0</ele><time>2026-04-03T15:52:12.007Z</time></trkpt><trkpt lat="43.5611316" lon="11.2961467"><ele>501.0</ele><time>2026-04-03T15:52:12.998Z</time></trkpt><trkpt lat="43.5612276" lon="11.2960767"><ele>503.0</ele><time>2026-04-03T15:52:14Z</time></trkpt><trkpt lat="43.5613073" lon="11.2960354"><ele>505.0</ele><time>2026-04-03T15:52:14.994Z</time></trkpt><trkpt lat="43.5613913" lon="11.2959845"><ele>507.0</ele><time>2026-04-03T15:52:16.995Z</time></trkpt><trkpt lat="43.5614154" lon="11.2959"><ele>509.0</ele><time>2026-04-03T15:55:26.005Z</time></trkpt><trkpt lat="43.5614929" lon="11.2958062"><ele>508.99999999999994</ele><time>2026-04-03T15:55:28.001Z</time></trkpt><trkpt lat="43.5615559" lon="11.2957563"><ele>509.0</ele><time>2026-04-03T15:55:29.004Z</time></trkpt><trkpt lat="43.5616264" lon="11.2957115"><ele>509.0</ele><time>2026-04-03T15:55:30.01Z</time></trkpt><trkpt lat="43.5617058" lon="11.2956671"><ele>509.0</ele><time>2026-04-03T15:55:31.004Z</time></trkpt><trkpt lat="43.5617951" lon="11.2956294"><ele>508.99999999999994</ele><time>2026-04-03T15:55:31.979Z</time></trkpt><trkpt lat="43.5618884" lon="11.2955972"><ele>509.0</ele><time>2026-04-03T15:55:33.008Z</time></trkpt><trkpt lat="43.5619882" lon="11.2955719"><ele>506.2</ele><time>2026-04-03T15:55:33.991Z</time></trkpt><trkpt lat="43.562094" lon="11.2955391"><ele>503.4</ele><time>2026-04-03T15:55:35.003Z</time></trkpt><trkpt lat="43.5621916" lon="11.2954915"><ele>500.6</ele><time>2026-04-03T15:55:35.997Z</time></trkpt><trkpt lat="43.5622606" lon="11.2954002"><ele>497.8</ele><time>2026-04-03T15:55:36.999Z</time></trkpt><trkpt lat="43.5622969" lon="11.2952679"><ele>495.0</ele><time>2026-04-03T15:55:37.995Z</time></trkpt><trkpt lat="43.5623092" lon="11.2950999"><ele>495.0</ele><time>2026-04-03T15:55:39.003Z</time></trkpt><trkpt lat="43.5623214" lon="11.2949183"><ele>495.0</ele><time>2026-04-03T15:55:39.999Z</time></trkpt><trkpt lat="43.5623427" lon="11.2947297"><ele>495.0</ele><time>2026-04-03T15:55:41Z</time></trkpt><trkpt lat="43.562386" lon="11.2945385"><ele>495.0</ele><time>2026-04-03T15:55:41.996Z</time></trkpt><trkpt lat="43.5624337" lon="11.2943417"><ele>494.0</ele><time>2026-04-03T15:55:43.004Z</time></trkpt><trkpt lat="43.5624833" lon="11.2941367"><ele>493.0</ele><time>2026-04-03T15:55:44.005Z</time></trkpt><trkpt lat="43.5625329" lon="11.2939387"><ele>492.0</ele><time>2026-04-03T15:55:45.004Z</time></trkpt><trkpt lat="43.5625937" lon="11.2937486"><ele>491.0</ele><time>2026-04-03T15:55:45.999Z</time></trkpt><trkpt lat="43.5626575" lon="11.2935731"><ele>490.0</ele><time>2026-04-03T15:55:46.997Z</time></trkpt><trkpt lat="43.5627248" lon="11.2934043"><ele>489.0</ele><time>2026-04-03T15:55:47.999Z</time></trkpt><trkpt lat="43.5627948" lon="11.2932426"><ele>488.0</ele><time>2026-04-03T15:55:49Z</time></trkpt><trkpt lat="43.5628636" lon="11.2930913"><ele>485.0</ele><time>2026-04-03T15:55:50Z</time></trkpt><trkpt lat="43.5629352" lon="11.2929441"><ele>482.0</ele><time>2026-04-03T15:55:50.998Z</time></trkpt><trkpt lat="43.563011" lon="11.2928029"><ele>479.0</ele><time>2026-04-03T15:55:52.002Z</time></trkpt><trkpt lat="43.5630979" lon="11.2926651"><ele>476.0</ele><time>2026-04-03T15:55:53.003Z</time></trkpt><trkpt lat="43.5631934" lon="11.292532"><ele>476.0</ele><time>2026-04-03T15:55:53.998Z</time></trkpt><trkpt lat="43.5633048" lon="11.292408"><ele>476.0</ele><time>2026-04-03T15:55:54.992Z</time></trkpt><trkpt lat="43.5634239" lon="11.2922991"><ele>476.0</ele><time>2026-04-03T15:55:56.01Z</time></trkpt><trkpt lat="43.5635457" lon="11.2922103"><ele>476.0</ele><time>2026-04-03T15:55:57.005Z</time></trkpt><trkpt lat="43.5636676" lon="11.2921396"><ele>472.75</ele><time>2026-04-03T15:55:58.012Z</time></trkpt><trkpt lat="43.5637906" lon="11.2920753"><ele>469.5</ele><time>2026-04-03T15:55:58.99Z</time></trkpt><trkpt lat="43.5639148" lon="11.2920267"><ele>466.25</ele><time>2026-04-03T15:55:59.998Z</time></trkpt><trkpt lat="43.5640396" lon="11.2919998"><ele>463.0</ele><time>2026-04-03T15:56:00.997Z</time></trkpt><trkpt lat="43.5641553" lon="11.2919712"><ele>463.0</ele><time>2026-04-03T15:56:01.996Z</time></trkpt><trkpt lat="43.5642505" lon="11.2919137"><ele>462.99999999999994</ele><time>2026-04-03T15:56:02.988Z</time></trkpt><trkpt lat="43.5643112" lon="11.2918171"><ele>462.99999999999994</ele><time>2026-04-03T15:56:03.999Z</time></trkpt><trkpt lat="43.5643424" lon="11.291686"><ele>463.0</ele><time>2026-04-03T15:56:05Z</time></trkpt><trkpt lat="43.5643295" lon="11.2915512"><ele>463.0</ele><time>2026-04-03T15:56:05.998Z</time></trkpt><trkpt lat="43.5642993" lon="11.2914333"><ele>461.59999999999997</ele><time>2026-04-03T15:56:07Z</time></trkpt><trkpt lat="43.5642718" lon="11.2913166"><ele>460.19999999999993</ele><time>2026-04-03T15:56:08.006Z</time></trkpt><trkpt lat="43.5642759" lon="11.2912052"><ele>458.8</ele><time>2026-04-03T15:56:08.995Z</time></trkpt><trkpt lat="43.5643221" lon="11.2911024"><ele>457.4</ele><time>2026-04-03T15:56:09.999Z</time></trkpt><trkpt lat="43.5644076" lon="11.2910254"><ele>456.0</ele><time>2026-04-03T15:56:10.994Z</time></trkpt><trkpt lat="43.5645082" lon="11.2909539"><ele>455.6</ele><time>2026-04-03T15:56:11.998Z</time></trkpt><trkpt lat="43.5646137" lon="11.2908809"><ele>455.20000000000005</ele><time>2026-04-03T15:56:12.994Z</time></trkpt><trkpt lat="43.5647071" lon="11.2908018"><ele>454.79999999999995</ele><time>2026-04-03T15:56:13.999Z</time></trkpt><trkpt lat="43.5647733" lon="11.2907455"><ele>454.4</ele><time>2026-04-03T15:56:14.995Z</time></trkpt><trkpt lat="43.5648752" lon="11.2906605"><ele>454.0</ele><time>2026-04-03T15:56:17.002Z</time></trkpt><trkpt lat="43.5649293" lon="11.290604"><ele>454.6</ele><time>2026-04-03T15:56:18Z</time></trkpt><trkpt lat="43.5649909" lon="11.2905346"><ele>455.2</ele><time>2026-04-03T15:56:18.992Z</time></trkpt><trkpt lat="43.5650552" lon="11.2904648"><ele>455.80000000000007</ele><time>2026-04-03T15:56:20.006Z</time></trkpt><trkpt lat="43.565133" lon="11.2903684"><ele>456.40000000000003</ele><time>2026-04-03T15:56:21.999Z</time></trkpt><trkpt lat="43.5652008" lon="11.2902703"><ele>457.0</ele><time>2026-04-03T15:56:24.004Z</time></trkpt><trkpt lat="43.5652815" lon="11.2901361"><ele>457.00000000000006</ele><time>2026-04-03T15:56:26.011Z</time></trkpt><trkpt lat="43.5653345" lon="11.290077"><ele>457.0</ele><time>2026-04-03T15:56:26.996Z</time></trkpt><trkpt lat="43.5654043" lon="11.2900357"><ele>457.0</ele><time>2026-04-03T15:56:28.009Z</time></trkpt><trkpt lat="43.5654918" lon="11.2900155"><ele>457.0</ele><time>2026-04-03T15:56:29.002Z</time></trkpt><trkpt lat="43.5655881" lon="11.2900202"><ele>457.00000000000006</ele><time>2026-04-03T15:56:29.997Z</time></trkpt><trkpt lat="43.5656844" lon="11.2900432"><ele>457.0</ele><time>2026-04-03T15:56:31.002Z</time></trkpt><trkpt lat="43.565777" lon="11.2900828"><ele>457.1666666666667</ele><time>2026-04-03T15:56:32.002Z</time></trkpt><trkpt lat="43.5658631" lon="11.2901303"><ele>457.33333333333337</ele><time>2026-04-03T15:56:33.008Z</time></trkpt><trkpt lat="43.5659332" lon="11.2901846"><ele>457.5</ele><time>2026-04-03T15:56:34.001Z</time></trkpt><trkpt lat="43.5659968" lon="11.2902347"><ele>457.66666666666663</ele><time>2026-04-03T15:56:35.002Z</time></trkpt><trkpt lat="43.5660639" lon="11.290267"><ele>457.8333333333333</ele><time>2026-04-03T15:56:35.998Z</time></trkpt><trkpt lat="43.5661428" lon="11.2902654"><ele>458.0</ele><time>2026-04-03T15:56:36.999Z</time></trkpt><trkpt lat="43.5662291" lon="11.2902296"><ele>457.2</ele><time>2026-04-03T15:56:37.998Z</time></trkpt><trkpt lat="43.5663193" lon="11.2901891"><ele>456.4</ele><time>2026-04-03T15:56:38.992Z</time></trkpt><trkpt lat="43.5664175" lon="11.2901401"><ele>455.59999999999997</ele><time>2026-04-03T15:56:39.995Z</time></trkpt><trkpt lat="43.5665315" lon="11.2900844"><ele>454.79999999999995</ele><time>2026-04-03T15:56:40.996Z</time></trkpt><trkpt lat="43.5666531" lon="11.2900554"><ele>454.0</ele><time>2026-04-03T15:56:41.997Z</time></trkpt><trkpt lat="43.5667817" lon="11.2900409"><ele>454.0</ele><time>2026-04-03T15:56:42.998Z</time></trkpt><trkpt lat="43.5669044" lon="11.2900388"><ele>454.0</ele><time>2026-04-03T15:56:44.004Z</time></trkpt><trkpt lat="43.5670223" lon="11.2900361"><ele>454.0</ele><time>2026-04-03T15:56:44.996Z</time></trkpt><trkpt lat="43.5671341" lon="11.2900055"><ele>454.0</ele><time>2026-04-03T15:56:46.005Z</time></trkpt><trkpt lat="43.5672384" lon="11.2899347"><ele>453.5</ele><time>2026-04-03T15:56:46.993Z</time></trkpt><trkpt lat="43.5673219" lon="11.289811"><ele>453.0</ele><time>2026-04-03T15:56:47.996Z</time></trkpt><trkpt lat="43.5674026" lon="11.2896617"><ele>452.5</ele><time>2026-04-03T15:56:48.992Z</time></trkpt><trkpt lat="43.5674923" lon="11.2895099"><ele>452.0</ele><time>2026-04-03T15:56:49.993Z</time></trkpt><trkpt lat="43.5675906" lon="11.289365"><ele>452.0</ele><time>2026-04-03T15:56:51.001Z</time></trkpt><trkpt lat="43.567694" lon="11.289211"><ele>452.0</ele><time>2026-04-03T15:56:52.015Z</time></trkpt><trkpt lat="43.567786" lon="11.2890464"><ele>452.0</ele><time>2026-04-03T15:56:53.002Z</time></trkpt><trkpt lat="43.567866" lon="11.2888627"><ele>452.0</ele><time>2026-04-03T15:56:54.003Z</time></trkpt><trkpt lat="43.5679332" lon="11.2886703"><ele>452.0</ele><time>2026-04-03T15:56:55.007Z</time></trkpt><trkpt lat="43.5680023" lon="11.2884676"><ele>452.0</ele><time>2026-04-03T15:56:56.002Z</time></trkpt><trkpt lat="43.5680769" lon="11.2882773"><ele>452.0</ele><time>2026-04-03T15:56:57.005Z</time></trkpt><trkpt lat="43.5681646" lon="11.2880969"><ele>452.0</ele><time>2026-04-03T15:56:58.001Z</time></trkpt><trkpt lat="43.5682585" lon="11.2879202"><ele>452.0</ele><time>2026-04-03T15:56:59.008Z</time></trkpt><trkpt lat="43.5683504" lon="11.287742"><ele>448.3333333333333</ele><time>2026-04-03T15:56:59.995Z</time></trkpt><trkpt lat="43.5684422" lon="11.2875653"><ele>444.66666666666663</ele><time>2026-04-03T15:57:01.002Z</time></trkpt><trkpt lat="43.568539" lon="11.287394"><ele>441.0</ele><time>2026-04-03T15:57:02.005Z</time></trkpt><trkpt lat="43.5686473" lon="11.2872399"><ele>437.33333333333337</ele><time>2026-04-03T15:57:03.001Z</time></trkpt><trkpt lat="43.5687683" lon="11.2871084"><ele>433.6666666666667</ele><time>2026-04-03T15:57:04.004Z</time></trkpt><trkpt lat="43.5688993" lon="11.287004"><ele>430.0</ele><time>2026-04-03T15:57:05.001Z</time></trkpt><trkpt lat="43.5690326" lon="11.2869154"><ele>430.0</ele><time>2026-04-03T15:57:05.991Z</time></trkpt><trkpt lat="43.5691544" lon="11.2868181"><ele>430.0</ele><time>2026-04-03T15:57:06.992Z</time></trkpt><trkpt lat="43.5692505" lon="11.2866963"><ele>430.0</ele><time>2026-04-03T15:57:07.989Z</time></trkpt><trkpt lat="43.5693185" lon="11.2865536"><ele>430.0</ele><time>2026-04-03T15:57:08.993Z</time></trkpt><trkpt lat="43.5693474" lon="11.2863896"><ele>428.5</ele><time>2026-04-03T15:57:10.003Z</time></trkpt><trkpt lat="43.5693388" lon="11.2862089"><ele>427.0</ele><time>2026-04-03T15:57:10.998Z</time></trkpt><trkpt lat="43.5693075" lon="11.2860025"><ele>425.5</ele><time>2026-04-03T15:57:11.999Z</time></trkpt><trkpt lat="43.5692846" lon="11.2857854"><ele>424.0</ele><time>2026-04-03T15:57:13.008Z</time></trkpt><trkpt lat="43.5692931" lon="11.2855646"><ele>423.5</ele><time>2026-04-03T15:57:14.003Z</time></trkpt><trkpt lat="43.5693243" lon="11.2853542"><ele>423.0</ele><time>2026-04-03T15:57:14.994Z</time></trkpt><trkpt lat="43.56938" lon="11.2851786"><ele>422.5</ele><time>2026-04-03T15:57:16.016Z</time></trkpt><trkpt lat="43.5694349" lon="11.285071"><ele>422.0</ele><time>2026-04-03T15:57:17.007Z</time></trkpt><trkpt lat="43.5695315" lon="11.2850807"><ele>422.0</ele><time>2026-04-03T15:57:20.003Z</time></trkpt><trkpt lat="43.5696309" lon="11.2850888"><ele>422.0</ele><time>2026-04-03T15:57:21.992Z</time></trkpt><trkpt lat="43.5697729" lon="11.2851232"><ele>422.0</ele><time>2026-04-03T15:57:24.008Z</time></trkpt><trkpt lat="43.5698656" lon="11.2851897"><ele>422.0</ele><time>2026-04-03T15:57:24.996Z</time></trkpt><trkpt lat="43.569975" lon="11.2852734"><ele>422.0</ele><time>2026-04-03T15:57:26.006Z</time></trkpt><trkpt lat="43.5700893" lon="11.2853587"><ele>422.0</ele><time>2026-04-03T15:57:26.997Z</time></trkpt><trkpt lat="43.5702067" lon="11.2854498"><ele>422.0</ele><time>2026-04-03T15:57:28.015Z</time></trkpt><trkpt lat="43.5703354" lon="11.2855354"><ele>422.0</ele><time>2026-04-03T15:57:29.002Z</time></trkpt><trkpt lat="43.5704642" lon="11.2856145"><ele>419.25</ele><time>2026-04-03T15:57:30.01Z</time></trkpt><trkpt lat="43.5705938" lon="11.2856958"><ele>416.5</ele><time>2026-04-03T15:57:31.002Z</time></trkpt><trkpt lat="43.5707197" lon="11.2857822"><ele>413.75</ele><time>2026-04-03T15:57:32.004Z</time></trkpt><trkpt lat="43.5708402" lon="11.2858643"><ele>411.0</ele><time>2026-04-03T15:57:32.994Z</time></trkpt><trkpt lat="43.5709559" lon="11.2859411"><ele>411.0</ele><time>2026-04-03T15:57:33.99Z</time></trkpt><trkpt lat="43.5710544" lon="11.286013"><ele>411.0</ele><time>2026-04-03T15:57:35.001Z</time></trkpt><trkpt lat="43.5711264" lon="11.2860882"><ele>411.0</ele><time>2026-04-03T15:57:36.004Z</time></trkpt><trkpt lat="43.5711957" lon="11.2861705"><ele>411.0</ele><time>2026-04-03T15:57:37.003Z</time></trkpt><trkpt lat="43.5712657" lon="11.2862406"><ele>411.0</ele><time>2026-04-03T15:57:38.011Z</time></trkpt><trkpt lat="43.5713469" lon="11.2862909"><ele>411.3333333333333</ele><time>2026-04-03T15:57:38.996Z</time></trkpt><trkpt lat="43.5714329" lon="11.2863245"><ele>411.66666666666663</ele><time>2026-04-03T15:57:40.006Z</time></trkpt><trkpt lat="43.571524" lon="11.2863425"><ele>412.0</ele><time>2026-04-03T15:57:40.995Z</time></trkpt><trkpt lat="43.5716147" lon="11.2863407"><ele>412.3333333333333</ele><time>2026-04-03T15:57:42.014Z</time></trkpt><trkpt lat="43.5717016" lon="11.2863128"><ele>412.66666666666663</ele><time>2026-04-03T15:57:42.991Z</time></trkpt><trkpt lat="43.5717788" lon="11.2862932"><ele>413.0</ele><time>2026-04-03T15:57:44.003Z</time></trkpt><trkpt lat="43.5718462" lon="11.2862908"><ele>412.99999999999994</ele><time>2026-04-03T15:57:45.014Z</time></trkpt><trkpt lat="43.5719146" lon="11.2863059"><ele>413.0</ele><time>2026-04-03T15:57:46.003Z</time></trkpt><trkpt lat="43.5719778" lon="11.2862933"><ele>413.0</ele><time>2026-04-03T15:57:46.998Z</time></trkpt><trkpt lat="43.5720431" lon="11.2862515"><ele>413.0</ele><time>2026-04-03T15:57:47.999Z</time></trkpt><trkpt lat="43.5721107" lon="11.2862058"><ele>412.99999999999994</ele><time>2026-04-03T15:57:48.992Z</time></trkpt><trkpt lat="43.5721873" lon="11.2861551"><ele>413.0</ele><time>2026-04-03T15:57:49.996Z</time></trkpt><trkpt lat="43.5722819" lon="11.2861113"><ele>410.2</ele><time>2026-04-03T15:57:50.992Z</time></trkpt><trkpt lat="43.5723929" lon="11.2860718"><ele>407.4</ele><time>2026-04-03T15:57:51.994Z</time></trkpt><trkpt lat="43.572488" lon="11.2860484"><ele>404.59999999999997</ele><time>2026-04-03T15:57:52.994Z</time></trkpt><trkpt lat="43.5725748" lon="11.2860358"><ele>401.79999999999995</ele><time>2026-04-03T15:57:53.988Z</time></trkpt><trkpt lat="43.5726447" lon="11.2860631"><ele>399.0</ele><time>2026-04-03T15:57:55.009Z</time></trkpt><trkpt lat="43.5727157" lon="11.2861209"><ele>399.0</ele><time>2026-04-03T15:57:56.001Z</time></trkpt><trkpt lat="43.5727649" lon="11.2862087"><ele>399.0</ele><time>2026-04-03T15:57:56.998Z</time></trkpt><trkpt lat="43.5727858" lon="11.2863146"><ele>399.0</ele><time>2026-04-03T15:57:57.998Z</time></trkpt><trkpt lat="43.572808" lon="11.2864136"><ele>399.0</ele><time>2026-04-03T15:57:59Z</time></trkpt><trkpt lat="43.5728349" lon="11.2865075"><ele>399.0</ele><time>2026-04-03T15:57:59.991Z</time></trkpt><trkpt lat="43.572875" lon="11.2865955"><ele>399.0</ele><time>2026-04-03T15:58:00.992Z</time></trkpt><trkpt lat="43.572928" lon="11.286679"><ele>397.79999999999995</ele><time>2026-04-03T15:58:01.99Z</time></trkpt><trkpt lat="43.5729985" lon="11.286773"><ele>396.59999999999997</ele><time>2026-04-03T15:58:02.998Z</time></trkpt><trkpt lat="43.5730788" lon="11.2868795"><ele>395.4</ele><time>2026-04-03T15:58:03.991Z</time></trkpt><trkpt lat="43.5731661" lon="11.2869869"><ele>394.2</ele><time>2026-04-03T15:58:04.987Z</time></trkpt><trkpt lat="43.5732532" lon="11.2870919"><ele>393.0</ele><time>2026-04-03T15:58:05.995Z</time></trkpt><trkpt lat="43.573352" lon="11.2871892"><ele>393.75</ele><time>2026-04-03T15:58:06.995Z</time></trkpt><trkpt lat="43.5734415" lon="11.2872879"><ele>394.5</ele><time>2026-04-03T15:58:07.996Z</time></trkpt><trkpt lat="43.5735237" lon="11.2873909"><ele>395.25</ele><time>2026-04-03T15:58:08.999Z</time></trkpt><trkpt lat="43.5736095" lon="11.2874947"><ele>396.0</ele><time>2026-04-03T15:58:10.002Z</time></trkpt><trkpt lat="43.573698" lon="11.2876022"><ele>396.0</ele><time>2026-04-03T15:58:10.998Z</time></trkpt><trkpt lat="43.573791" lon="11.2877192"><ele>396.0</ele><time>2026-04-03T15:58:11.999Z</time></trkpt><trkpt lat="43.5738898" lon="11.2878368"><ele>396.0</ele><time>2026-04-03T15:58:13.001Z</time></trkpt><trkpt lat="43.5739904" lon="11.2879543"><ele>396.0</ele><time>2026-04-03T15:58:13.999Z</time></trkpt><trkpt lat="43.5740879" lon="11.2880712"><ele>396.0</ele><time>2026-04-03T15:58:14.983Z</time></trkpt><trkpt lat="43.5741853" lon="11.2881904"><ele>396.0</ele><time>2026-04-03T15:58:16.009Z</time></trkpt><trkpt lat="43.5742747" lon="11.28829"><ele>396.0</ele><time>2026-04-03T15:58:17.001Z</time></trkpt><trkpt lat="43.5743428" lon="11.288367"><ele>396.0</ele><time>2026-04-03T15:58:18.001Z</time></trkpt><trkpt lat="43.5743803" lon="11.2884521"><ele>396.0</ele><time>2026-04-03T15:58:18.994Z</time></trkpt><trkpt lat="43.5743904" lon="11.2885484"><ele>396.0</ele><time>2026-04-03T15:58:19.992Z</time></trkpt><trkpt lat="43.5743796" lon="11.2886548"><ele>396.0</ele><time>2026-04-03T15:58:20.988Z</time></trkpt><trkpt lat="43.5743663" lon="11.2887728"><ele>396.0</ele><time>2026-04-03T15:58:21.993Z</time></trkpt><trkpt lat="43.5743605" lon="11.2888986"><ele>396.0</ele><time>2026-04-03T15:58:22.994Z</time></trkpt><trkpt lat="43.5743588" lon="11.2890297"><ele>396.0</ele><time>2026-04-03T15:58:23.983Z</time></trkpt><trkpt lat="43.5743588" lon="11.2891604"><ele>396.0</ele><time>2026-04-03T15:58:24.993Z</time></trkpt><trkpt lat="43.5743587" lon="11.2892944"><ele>396.8</ele><time>2026-04-03T15:58:25.996Z</time></trkpt><trkpt lat="43.5743598" lon="11.2894322"><ele>397.6</ele><time>2026-04-03T15:58:26.993Z</time></trkpt><trkpt lat="43.5743655" lon="11.2895642"><ele>398.4</ele><time>2026-04-03T15:58:27.999Z</time></trkpt><trkpt lat="43.5743829" lon="11.2896736"><ele>399.2</ele><time>2026-04-03T15:58:28.994Z</time></trkpt><trkpt lat="43.5744448" lon="11.2898108"><ele>400.0</ele><time>2026-04-03T15:58:30.988Z</time></trkpt><trkpt lat="43.5744975" lon="11.2898646"><ele>404.6666666666667</ele><time>2026-04-03T15:58:32.008Z</time></trkpt><trkpt lat="43.5745574" lon="11.2899191"><ele>409.33333333333337</ele><time>2026-04-03T15:58:32.992Z</time></trkpt><trkpt lat="43.5746216" lon="11.2899809"><ele>414.0</ele><time>2026-04-03T15:58:34Z</time></trkpt><trkpt lat="43.5746878" lon="11.2900591"><ele>418.66666666666663</ele><time>2026-04-03T15:58:34.986Z</time></trkpt><trkpt lat="43.5747552" lon="11.2901451"><ele>423.3333333333333</ele><time>2026-04-03T15:58:35.994Z</time></trkpt><trkpt lat="43.5748162" lon="11.2902332"><ele>428.0</ele><time>2026-04-03T15:58:36.982Z</time></trkpt><trkpt lat="43.5748618" lon="11.290325"><ele>427.99999999999994</ele><time>2026-04-03T15:58:37.995Z</time></trkpt><trkpt lat="43.5748891" lon="11.2904281"><ele>428.0</ele><time>2026-04-03T15:58:38.987Z</time></trkpt><trkpt lat="43.5749058" lon="11.2905294"><ele>428.0</ele><time>2026-04-03T15:58:39.994Z</time></trkpt><trkpt lat="43.5749172" lon="11.2906281"><ele>428.0</ele><time>2026-04-03T15:58:42.004Z</time></trkpt><trkpt lat="43.5749655" lon="11.2907153"><ele>427.99999999999994</ele><time>2026-04-03T15:58:44.996Z</time></trkpt><trkpt lat="43.5749487" lon="11.2908206"><ele>428.0</ele><time>2026-04-03T15:59:09.003Z</time></trkpt><trkpt lat="43.5749016" lon="11.2909402"><ele>426.66666666666663</ele><time>2026-04-03T15:59:11Z</time></trkpt><trkpt lat="43.5749053" lon="11.2910425"><ele>425.3333333333333</ele><time>2026-04-03T15:59:12.999Z</time></trkpt><trkpt lat="43.5749621" lon="11.2910918"><ele>424.0</ele><time>2026-04-03T15:59:14.987Z</time></trkpt><trkpt lat="43.5750496" lon="11.2910543"><ele>422.66666666666663</ele><time>2026-04-03T15:59:16.994Z</time></trkpt><trkpt lat="43.5751682" lon="11.2909666"><ele>421.3333333333333</ele><time>2026-04-03T15:59:19.002Z</time></trkpt><trkpt lat="43.5752371" lon="11.2909141"><ele>420.0</ele><time>2026-04-03T15:59:20.002Z</time></trkpt><trkpt lat="43.5753096" lon="11.2908655"><ele>419.6666666666667</ele><time>2026-04-03T15:59:21.002Z</time></trkpt><trkpt lat="43.5753838" lon="11.2908219"><ele>419.33333333333337</ele><time>2026-04-03T15:59:22.006Z</time></trkpt><trkpt lat="43.5754605" lon="11.2907801"><ele>419.0</ele><time>2026-04-03T15:59:23.012Z</time></trkpt><trkpt lat="43.5755454" lon="11.2907435"><ele>418.6666666666667</ele><time>2026-04-03T15:59:23.991Z</time></trkpt><trkpt lat="43.5756368" lon="11.2907175"><ele>418.33333333333337</ele><time>2026-04-03T15:59:24.999Z</time></trkpt><trkpt lat="43.5757354" lon="11.2907055"><ele>418.0</ele><time>2026-04-03T15:59:25.999Z</time></trkpt><trkpt lat="43.5758238" lon="11.290712"><ele>418.0</ele><time>2026-04-03T15:59:26.991Z</time></trkpt><trkpt lat="43.5758968" lon="11.2907345"><ele>418.0</ele><time>2026-04-03T15:59:27.996Z</time></trkpt><trkpt lat="43.5759847" lon="11.2908357"><ele>418.0</ele><time>2026-04-03T15:59:30.001Z</time></trkpt><trkpt lat="43.5760369" lon="11.2909885"><ele>418.0</ele><time>2026-04-03T15:59:32.007Z</time></trkpt><trkpt lat="43.576116" lon="11.2911174"><ele>418.0</ele><time>2026-04-03T15:59:33.991Z</time></trkpt><trkpt lat="43.5761693" lon="11.2911655"><ele>416.79999999999995</ele><time>2026-04-03T15:59:35.007Z</time></trkpt><trkpt lat="43.5762799" lon="11.2912197"><ele>415.6</ele><time>2026-04-03T15:59:36.995Z</time></trkpt><trkpt lat="43.5764031" lon="11.291209"><ele>414.4</ele><time>2026-04-03T15:59:39.009Z</time></trkpt><trkpt lat="43.5764736" lon="11.2912038"><ele>413.20000000000005</ele><time>2026-04-03T15:59:40.011Z</time></trkpt><trkpt lat="43.5765456" lon="11.291201"><ele>412.0</ele><time>2026-04-03T15:59:40.999Z</time></trkpt><trkpt lat="43.5766157" lon="11.2912005"><ele>412.0</ele><time>2026-04-03T15:59:41.998Z</time></trkpt><trkpt lat="43.5766835" lon="11.2912089"><ele>412.0</ele><time>2026-04-03T15:59:42.993Z</time></trkpt><trkpt lat="43.5767468" lon="11.291224"><ele>412.0</ele><time>2026-04-03T15:59:44.016Z</time></trkpt><trkpt lat="43.5768604" lon="11.2912528"><ele>412.0</ele><time>2026-04-03T15:59:46.006Z</time></trkpt><trkpt lat="43.5769722" lon="11.2912723"><ele>412.0</ele><time>2026-04-03T15:59:48.001Z</time></trkpt><trkpt lat="43.577098" lon="11.2912422"><ele>411.20000000000005</ele><time>2026-04-03T15:59:50.011Z</time></trkpt><trkpt lat="43.5771558" lon="11.2911906"><ele>410.4</ele><time>2026-04-03T15:59:51.014Z</time></trkpt><trkpt lat="43.5772023" lon="11.2911192"><ele>409.6</ele><time>2026-04-03T15:59:51.996Z</time></trkpt><trkpt lat="43.5772837" lon="11.2909928"><ele>408.79999999999995</ele><time>2026-04-03T15:59:54.008Z</time></trkpt><trkpt lat="43.5773808" lon="11.2909196"><ele>408.0</ele><time>2026-04-03T15:59:55.994Z</time></trkpt><trkpt lat="43.577505" lon="11.2909547"><ele>408.0</ele><time>2026-04-03T15:59:57.995Z</time></trkpt><trkpt lat="43.5775619" lon="11.2910029"><ele>408.0</ele><time>2026-04-03T15:59:58.997Z</time></trkpt><trkpt lat="43.5776559" lon="11.2911215"><ele>408.0</ele><time>2026-04-03T16:00:00.993Z</time></trkpt><trkpt lat="43.5777027" lon="11.2911894"><ele>408.0</ele><time>2026-04-03T16:00:01.998Z</time></trkpt><trkpt lat="43.5777481" lon="11.2912625"><ele>408.0</ele><time>2026-04-03T16:00:02.995Z</time></trkpt><trkpt lat="43.5777958" lon="11.2913508"><ele>408.0</ele><time>2026-04-03T16:00:03.999Z</time></trkpt><trkpt lat="43.5778475" lon="11.2914377"><ele>411.0</ele><time>2026-04-03T16:00:04.998Z</time></trkpt><trkpt lat="43.5779016" lon="11.2915348"><ele>414.0</ele><time>2026-04-03T16:00:06.018Z</time></trkpt><trkpt lat="43.5779593" lon="11.2916409"><ele>417.0</ele><time>2026-04-03T16:00:06.992Z</time></trkpt><trkpt lat="43.5780158" lon="11.2917586"><ele>420.0</ele><time>2026-04-03T16:00:08.01Z</time></trkpt><trkpt lat="43.5780724" lon="11.2918808"><ele>423.0</ele><time>2026-04-03T16:00:08.989Z</time></trkpt><trkpt lat="43.5781314" lon="11.2920035"><ele>423.0</ele><time>2026-04-03T16:00:09.986Z</time></trkpt><trkpt lat="43.5781906" lon="11.2921292"><ele>423.0</ele><time>2026-04-03T16:00:10.987Z</time></trkpt><trkpt lat="43.5782456" lon="11.2922652"><ele>423.0</ele><time>2026-04-03T16:00:11.987Z</time></trkpt><trkpt lat="43.5782959" lon="11.2924086"><ele>423.0</ele><time>2026-04-03T16:00:12.986Z</time></trkpt><trkpt lat="43.5783392" lon="11.2925516"><ele>423.0</ele><time>2026-04-03T16:00:13.997Z</time></trkpt><trkpt lat="43.5783806" lon="11.2926787"><ele>420.59999999999997</ele><time>2026-04-03T16:00:14.985Z</time></trkpt><trkpt lat="43.578426" lon="11.2927994"><ele>418.2</ele><time>2026-04-03T16:00:15.991Z</time></trkpt><trkpt lat="43.5784717" lon="11.2929236"><ele>415.8</ele><time>2026-04-03T16:00:16.987Z</time></trkpt><trkpt lat="43.5785141" lon="11.2930458"><ele>413.4</ele><time>2026-04-03T16:00:17.985Z</time></trkpt><trkpt lat="43.578555" lon="11.293158"><ele>411.0</ele><time>2026-04-03T16:00:18.995Z</time></trkpt><trkpt lat="43.5785942" lon="11.2932603"><ele>410.8333333333333</ele><time>2026-04-03T16:00:19.997Z</time></trkpt><trkpt lat="43.5786315" lon="11.2933593"><ele>410.66666666666663</ele><time>2026-04-03T16:00:20.993Z</time></trkpt><trkpt lat="43.5786594" lon="11.293451"><ele>410.5</ele><time>2026-04-03T16:00:21.996Z</time></trkpt><trkpt lat="43.5786865" lon="11.2935364"><ele>410.3333333333333</ele><time>2026-04-03T16:00:22.99Z</time></trkpt><trkpt lat="43.578718" lon="11.2936193"><ele>410.16666666666663</ele><time>2026-04-03T16:00:23.999Z</time></trkpt><trkpt lat="43.5787492" lon="11.2936965"><ele>410.0</ele><time>2026-04-03T16:00:24.99Z</time></trkpt><trkpt lat="43.5787921" lon="11.293819"><ele>409.99999999999994</ele><time>2026-04-03T16:00:26.992Z</time></trkpt><trkpt lat="43.5788482" lon="11.293918"><ele>410.0</ele><time>2026-04-03T16:00:28.995Z</time></trkpt><trkpt lat="43.5789417" lon="11.293946"><ele>410.0</ele><time>2026-04-03T16:00:30.998Z</time></trkpt><trkpt lat="43.5790315" lon="11.2939225"><ele>410.0</ele><time>2026-04-03T16:00:32.994Z</time></trkpt><trkpt lat="43.5790988" lon="11.2939194"><ele>409.99999999999994</ele><time>2026-04-03T16:00:35.987Z</time></trkpt><trkpt lat="43.5791514" lon="11.2939674"><ele>410.0</ele><time>2026-04-03T16:00:50.999Z</time></trkpt><trkpt lat="43.5792159" lon="11.2939675"><ele>409.99999999999994</ele><time>2026-04-03T16:00:52.985Z</time></trkpt><trkpt lat="43.5793162" lon="11.2938976"><ele>410.0</ele><time>2026-04-03T16:00:54.985Z</time></trkpt><trkpt lat="43.5793718" lon="11.2938559"><ele>410.0</ele><time>2026-04-03T16:00:55.994Z</time></trkpt><trkpt lat="43.5794312" lon="11.2938165"><ele>410.0</ele><time>2026-04-03T16:00:56.992Z</time></trkpt><trkpt lat="43.5794877" lon="11.2937768"><ele>409.99999999999994</ele><time>2026-04-03T16:00:58.006Z</time></trkpt><trkpt lat="43.5795503" lon="11.2937262"><ele>410.0</ele><time>2026-04-03T16:00:58.984Z</time></trkpt><trkpt lat="43.5796119" lon="11.2936661"><ele>406.2857142857143</ele><time>2026-04-03T16:00:59.999Z</time></trkpt><trkpt lat="43.5796644" lon="11.2936032"><ele>402.57142857142856</ele><time>2026-04-03T16:01:00.984Z</time></trkpt><trkpt lat="43.5797145" lon="11.2935389"><ele>398.85714285714283</ele><time>2026-04-03T16:01:01.994Z</time></trkpt><trkpt lat="43.5797583" lon="11.2934752"><ele>395.1428571428571</ele><time>2026-04-03T16:01:02.997Z</time></trkpt><trkpt lat="43.5798049" lon="11.2934102"><ele>391.42857142857144</ele><time>2026-04-03T16:01:04Z</time></trkpt><trkpt lat="43.5798546" lon="11.2933342"><ele>387.71428571428567</ele><time>2026-04-03T16:01:04.998Z</time></trkpt><trkpt lat="43.5798997" lon="11.2932505"><ele>384.0</ele><time>2026-04-03T16:01:05.993Z</time></trkpt><trkpt lat="43.5799411" lon="11.293142"><ele>386.2</ele><time>2026-04-03T16:01:06.991Z</time></trkpt><trkpt lat="43.5799698" lon="11.2930263"><ele>388.4</ele><time>2026-04-03T16:01:08Z</time></trkpt><trkpt lat="43.5799946" lon="11.2929071"><ele>390.6</ele><time>2026-04-03T16:01:09.002Z</time></trkpt><trkpt lat="43.5800098" lon="11.2927791"><ele>392.8</ele><time>2026-04-03T16:01:09.993Z</time></trkpt><trkpt lat="43.5800181" lon="11.2926459"><ele>395.0</ele><time>2026-04-03T16:01:10.981Z</time></trkpt><trkpt lat="43.5800182" lon="11.2925119"><ele>395.0</ele><time>2026-04-03T16:01:12.001Z</time></trkpt><trkpt lat="43.5800107" lon="11.2923812"><ele>395.0</ele><time>2026-04-03T16:01:12.991Z</time></trkpt><trkpt lat="43.5800034" lon="11.2922481"><ele>395.0</ele><time>2026-04-03T16:01:13.993Z</time></trkpt><trkpt lat="43.5799948" lon="11.2921174"><ele>395.0</ele><time>2026-04-03T16:01:14.992Z</time></trkpt><trkpt lat="43.5799929" lon="11.2919927"><ele>395.0</ele><time>2026-04-03T16:01:15.998Z</time></trkpt><trkpt lat="43.580005" lon="11.291891"><ele>397.0</ele><time>2026-04-03T16:01:16.995Z</time></trkpt><trkpt lat="43.5800364" lon="11.2918104"><ele>399.0</ele><time>2026-04-03T16:01:18.007Z</time></trkpt><trkpt lat="43.5801336" lon="11.2917278"><ele>401.0</ele><time>2026-04-03T16:01:20.009Z</time></trkpt><trkpt lat="43.5802613" lon="11.2917399"><ele>403.0</ele><time>2026-04-03T16:01:22.012Z</time></trkpt><trkpt lat="43.5803342" lon="11.2917473"><ele>405.0</ele><time>2026-04-03T16:01:22.988Z</time></trkpt><trkpt lat="43.5804151" lon="11.2917558"><ele>405.1666666666667</ele><time>2026-04-03T16:01:24.004Z</time></trkpt><trkpt lat="43.5804978" lon="11.2917532"><ele>405.33333333333337</ele><time>2026-04-03T16:01:25.014Z</time></trkpt><trkpt lat="43.5805788" lon="11.2917491"><ele>405.5</ele><time>2026-04-03T16:01:26.005Z</time></trkpt><trkpt lat="43.580657" lon="11.2917368"><ele>405.6666666666667</ele><time>2026-04-03T16:01:27.003Z</time></trkpt><trkpt lat="43.5807337" lon="11.2917023"><ele>405.83333333333337</ele><time>2026-04-03T16:01:28.002Z</time></trkpt><trkpt lat="43.5807982" lon="11.2916486"><ele>406.0</ele><time>2026-04-03T16:01:29.014Z</time></trkpt><trkpt lat="43.5808503" lon="11.2915776"><ele>406.00000000000006</ele><time>2026-04-03T16:01:30.007Z</time></trkpt><trkpt lat="43.580898" lon="11.2914956"><ele>406.0</ele><time>2026-04-03T16:01:30.994Z</time></trkpt><trkpt lat="43.5809427" lon="11.2914086"><ele>406.0</ele><time>2026-04-03T16:01:32.007Z</time></trkpt><trkpt lat="43.5809899" lon="11.2913209"><ele>406.0</ele><time>2026-04-03T16:01:33.006Z</time></trkpt><trkpt lat="43.5810454" lon="11.291249"><ele>406.00000000000006</ele><time>2026-04-03T16:01:34.007Z</time></trkpt><trkpt lat="43.581116" lon="11.2911783"><ele>406.0</ele><time>2026-04-03T16:01:34.995Z</time></trkpt><trkpt lat="43.5812034" lon="11.2911122"><ele>407.4</ele><time>2026-04-03T16:01:36.006Z</time></trkpt><trkpt lat="43.5812996" lon="11.2910526"><ele>408.8</ele><time>2026-04-03T16:01:36.996Z</time></trkpt><trkpt lat="43.5814012" lon="11.2909908"><ele>410.2</ele><time>2026-04-03T16:01:37.998Z</time></trkpt><trkpt lat="43.5814968" lon="11.2909318"><ele>411.59999999999997</ele><time>2026-04-03T16:01:38.994Z</time></trkpt><trkpt lat="43.5815812" lon="11.2908875"><ele>413.0</ele><time>2026-04-03T16:01:40.007Z</time></trkpt><trkpt lat="43.5816563" lon="11.290859"><ele>413.0</ele><time>2026-04-03T16:01:41.001Z</time></trkpt><trkpt lat="43.5817291" lon="11.2908473"><ele>413.0</ele><time>2026-04-03T16:01:41.999Z</time></trkpt><trkpt lat="43.5818014" lon="11.2908521"><ele>413.0</ele><time>2026-04-03T16:01:43Z</time></trkpt><trkpt lat="43.5818661" lon="11.2908603"><ele>413.0</ele><time>2026-04-03T16:01:44.01Z</time></trkpt><trkpt lat="43.5819341" lon="11.2908469"><ele>413.0</ele><time>2026-04-03T16:01:45.001Z</time></trkpt><trkpt lat="43.5819962" lon="11.2908075"><ele>413.0</ele><time>2026-04-03T16:01:45.998Z</time></trkpt><trkpt lat="43.5820551" lon="11.2907562"><ele>413.0</ele><time>2026-04-03T16:01:46.998Z</time></trkpt><trkpt lat="43.5821086" lon="11.2907057"><ele>411.2</ele><time>2026-04-03T16:01:48.015Z</time></trkpt><trkpt lat="43.5822218" lon="11.2906733"><ele>409.4</ele><time>2026-04-03T16:01:50.001Z</time></trkpt><trkpt lat="43.5822896" lon="11.2906835"><ele>407.59999999999997</ele><time>2026-04-03T16:01:50.997Z</time></trkpt><trkpt lat="43.5823567" lon="11.2907006"><ele>405.79999999999995</ele><time>2026-04-03T16:01:52.004Z</time></trkpt><trkpt lat="43.5824701" lon="11.290745"><ele>404.0</ele><time>2026-04-03T16:01:54.006Z</time></trkpt><trkpt lat="43.5825734" lon="11.2908414"><ele>404.0</ele><time>2026-04-03T16:01:56.003Z</time></trkpt><trkpt lat="43.5826237" lon="11.2909125"><ele>404.0</ele><time>2026-04-03T16:01:56.996Z</time></trkpt><trkpt lat="43.5826687" lon="11.2909893"><ele>404.0</ele><time>2026-04-03T16:01:57.995Z</time></trkpt><trkpt lat="43.5827055" lon="11.2910619"><ele>404.0</ele><time>2026-04-03T16:01:58.998Z</time></trkpt><trkpt lat="43.5827375" lon="11.2911625"><ele>404.0</ele><time>2026-04-03T16:02:01Z</time></trkpt><trkpt lat="43.5827761" lon="11.2912385"><ele>404.0</ele><time>2026-04-03T16:02:02.998Z</time></trkpt><trkpt lat="43.5828473" lon="11.2912293"><ele>404.0</ele><time>2026-04-03T16:02:05.004Z</time></trkpt><trkpt lat="43.5828793" lon="11.2911208"><ele>401.2</ele><time>2026-04-03T16:02:06.999Z</time></trkpt><trkpt lat="43.5829145" lon="11.2909394"><ele>398.4</ele><time>2026-04-03T16:02:08.994Z</time></trkpt><trkpt lat="43.5829246" lon="11.2908112"><ele>395.6</ele><time>2026-04-03T16:02:10.011Z</time></trkpt><trkpt lat="43.5829264" lon="11.2906673"><ele>392.8</ele><time>2026-04-03T16:02:11.005Z</time></trkpt><trkpt lat="43.5829243" lon="11.2905273"><ele>390.0</ele><time>2026-04-03T16:02:12.023Z</time></trkpt><trkpt lat="43.5829232" lon="11.2904004"><ele>390.0</ele><time>2026-04-03T16:02:12.999Z</time></trkpt><trkpt lat="43.58292" lon="11.2902977"><ele>390.0</ele><time>2026-04-03T16:02:14Z</time></trkpt><trkpt lat="43.5829116" lon="11.290206"><ele>390.0</ele><time>2026-04-03T16:02:14.998Z</time></trkpt><trkpt lat="43.5829023" lon="11.2901052"><ele>390.0</ele><time>2026-04-03T16:02:16.022Z</time></trkpt><trkpt lat="43.5828899" lon="11.2900041"><ele>390.0</ele><time>2026-04-03T16:02:16.998Z</time></trkpt><trkpt lat="43.5828799" lon="11.2899062"><ele>390.0</ele><time>2026-04-03T16:02:18.006Z</time></trkpt><trkpt lat="43.582887" lon="11.2897997"><ele>390.0</ele><time>2026-04-03T16:02:19.003Z</time></trkpt><trkpt lat="43.5829106" lon="11.2896891"><ele>390.5</ele><time>2026-04-03T16:02:20.016Z</time></trkpt><trkpt lat="43.5829399" lon="11.289568"><ele>391.0</ele><time>2026-04-03T16:02:21.007Z</time></trkpt><trkpt lat="43.5829652" lon="11.2894566"><ele>391.5</ele><time>2026-04-03T16:02:22.006Z</time></trkpt><trkpt lat="43.5829841" lon="11.2893639"><ele>392.0</ele><time>2026-04-03T16:02:23.001Z</time></trkpt><trkpt lat="43.5830063" lon="11.2892706"><ele>392.5</ele><time>2026-04-03T16:02:24.001Z</time></trkpt><trkpt lat="43.5830319" lon="11.2891756"><ele>393.0</ele><time>2026-04-03T16:02:25.003Z</time></trkpt><trkpt lat="43.5830631" lon="11.2890771"><ele>393.0</ele><time>2026-04-03T16:02:25.994Z</time></trkpt><trkpt lat="43.5830913" lon="11.2889758"><ele>393.0</ele><time>2026-04-03T16:02:27.001Z</time></trkpt><trkpt lat="43.5831209" lon="11.2888664"><ele>393.0</ele><time>2026-04-03T16:02:28.006Z</time></trkpt><trkpt lat="43.5831517" lon="11.2887419"><ele>393.0</ele><time>2026-04-03T16:02:29.004Z</time></trkpt><trkpt lat="43.5831834" lon="11.2886066"><ele>393.0</ele><time>2026-04-03T16:02:30Z</time></trkpt><trkpt lat="43.5832155" lon="11.2884697"><ele>393.5</ele><time>2026-04-03T16:02:30.995Z</time></trkpt><trkpt lat="43.5832485" lon="11.2883404"><ele>394.0</ele><time>2026-04-03T16:02:32.007Z</time></trkpt><trkpt lat="43.5832757" lon="11.2882204"><ele>394.5</ele><time>2026-04-03T16:02:33.006Z</time></trkpt><trkpt lat="43.5833073" lon="11.2881227"><ele>395.0</ele><time>2026-04-03T16:02:34.001Z</time></trkpt><trkpt lat="43.5833554" lon="11.2880469"><ele>395.5</ele><time>2026-04-03T16:02:35.001Z</time></trkpt><trkpt lat="43.5834147" lon="11.2880034"><ele>396.0</ele><time>2026-04-03T16:02:35.998Z</time></trkpt><trkpt lat="43.5834896" lon="11.288001"><ele>397.8333333333333</ele><time>2026-04-03T16:02:36.993Z</time></trkpt><trkpt lat="43.5835667" lon="11.2880252"><ele>399.66666666666663</ele><time>2026-04-03T16:02:38.005Z</time></trkpt><trkpt lat="43.5836374" lon="11.2880624"><ele>401.5</ele><time>2026-04-03T16:02:38.992Z</time></trkpt><trkpt lat="43.5837098" lon="11.2880973"><ele>403.3333333333333</ele><time>2026-04-03T16:02:40.002Z</time></trkpt><trkpt lat="43.5837833" lon="11.2881209"><ele>405.16666666666663</ele><time>2026-04-03T16:02:40.999Z</time></trkpt><trkpt lat="43.5838532" lon="11.2881268"><ele>407.0</ele><time>2026-04-03T16:02:42.003Z</time></trkpt><trkpt lat="43.5839307" lon="11.2881078"><ele>404.99999999999994</ele><time>2026-04-03T16:02:43Z</time></trkpt><trkpt lat="43.5840127" lon="11.2880753"><ele>403.0</ele><time>2026-04-03T16:02:44.002Z</time></trkpt><trkpt lat="43.5841045" lon="11.2880291"><ele>401.0</ele><time>2026-04-03T16:02:44.997Z</time></trkpt><trkpt lat="43.5841955" lon="11.2879605"><ele>399.0</ele><time>2026-04-03T16:02:46.009Z</time></trkpt><trkpt lat="43.5842703" lon="11.2879041"><ele>396.99999999999994</ele><time>2026-04-03T16:02:46.998Z</time></trkpt><trkpt lat="43.5843349" lon="11.2878557"><ele>395.0</ele><time>2026-04-03T16:02:48.005Z</time></trkpt><trkpt lat="43.584411" lon="11.2878443"><ele>395.0</ele><time>2026-04-03T16:02:49.004Z</time></trkpt><trkpt lat="43.5844923" lon="11.287862"><ele>395.0</ele><time>2026-04-03T16:02:49.993Z</time></trkpt><trkpt lat="43.5845818" lon="11.2879082"><ele>395.0</ele><time>2026-04-03T16:02:50.992Z</time></trkpt><trkpt lat="43.5846839" lon="11.2879592"><ele>395.0</ele><time>2026-04-03T16:02:51.99Z</time></trkpt><trkpt lat="43.5847897" lon="11.2880041"><ele>395.0</ele><time>2026-04-03T16:02:52.989Z</time></trkpt><trkpt lat="43.5848855" lon="11.2880432"><ele>395.0</ele><time>2026-04-03T16:02:54.007Z</time></trkpt><trkpt lat="43.584976" lon="11.2880691"><ele>395.0</ele><time>2026-04-03T16:02:54.994Z</time></trkpt><trkpt lat="43.5850759" lon="11.288075"><ele>395.0</ele><time>2026-04-03T16:02:55.995Z</time></trkpt><trkpt lat="43.5851778" lon="11.288072"><ele>395.0</ele><time>2026-04-03T16:02:56.995Z</time></trkpt><trkpt lat="43.585273" lon="11.2880924"><ele>395.0</ele><time>2026-04-03T16:02:58.002Z</time></trkpt><trkpt lat="43.5853712" lon="11.2881546"><ele>395.0</ele><time>2026-04-03T16:02:58.998Z</time></trkpt><trkpt lat="43.5854625" lon="11.2882523"><ele>395.0</ele><time>2026-04-03T16:02:59.995Z</time></trkpt><trkpt lat="43.5855472" lon="11.2883529"><ele>395.0</ele><time>2026-04-03T16:03:00.998Z</time></trkpt><trkpt lat="43.585624" lon="11.2884474"><ele>395.0</ele><time>2026-04-03T16:03:01.997Z</time></trkpt><trkpt lat="43.5856966" lon="11.2885241"><ele>395.0</ele><time>2026-04-03T16:03:02.983Z</time></trkpt><trkpt lat="43.5857668" lon="11.2885619"><ele>394.99999999999994</ele><time>2026-04-03T16:03:04.007Z</time></trkpt><trkpt lat="43.5858407" lon="11.2885957"><ele>395.0</ele><time>2026-04-03T16:03:04.999Z</time></trkpt><trkpt lat="43.5859092" lon="11.2886384"><ele>395.0</ele><time>2026-04-03T16:03:06.01Z</time></trkpt><trkpt lat="43.5859737" lon="11.2886726"><ele>395.0</ele><time>2026-04-03T16:03:07.998Z</time></trkpt><trkpt lat="43.5860481" lon="11.2886939"><ele>394.99999999999994</ele><time>2026-04-03T16:03:25.998Z</time></trkpt><trkpt lat="43.5861505" lon="11.288694"><ele>395.0</ele><time>2026-04-03T16:03:28.999Z</time></trkpt><trkpt lat="43.5862385" lon="11.2886742"><ele>394.2</ele><time>2026-04-03T16:03:30.999Z</time></trkpt><trkpt lat="43.5863576" lon="11.2886648"><ele>393.4</ele><time>2026-04-03T16:03:33.001Z</time></trkpt><trkpt lat="43.5864621" lon="11.2886425"><ele>392.6</ele><time>2026-04-03T16:03:35Z</time></trkpt><trkpt lat="43.5865543" lon="11.288577"><ele>391.8</ele><time>2026-04-03T16:03:37.008Z</time></trkpt><trkpt lat="43.586638" lon="11.2885055"><ele>391.0</ele><time>2026-04-03T16:03:38.993Z</time></trkpt><trkpt lat="43.5866981" lon="11.2884697"><ele>390.99999999999994</ele><time>2026-04-03T16:03:40.008Z</time></trkpt><trkpt lat="43.5867696" lon="11.2884356"><ele>391.0</ele><time>2026-04-03T16:03:41.007Z</time></trkpt><trkpt lat="43.5868437" lon="11.2884017"><ele>391.0</ele><time>2026-04-03T16:03:41.998Z</time></trkpt><trkpt lat="43.5869116" lon="11.288372"><ele>391.0</ele><time>2026-04-03T16:03:42.997Z</time></trkpt><trkpt lat="43.586973" lon="11.2883447"><ele>391.0</ele><time>2026-04-03T16:03:44.004Z</time></trkpt><trkpt lat="43.5870374" lon="11.2883204"><ele>390.99999999999994</ele><time>2026-04-03T16:03:45Z</time></trkpt><trkpt lat="43.5871043" lon="11.2882895"><ele>391.0</ele><time>2026-04-03T16:03:46.004Z</time></trkpt><trkpt lat="43.5871777" lon="11.2882542"><ele>392.00000000000006</ele><time>2026-04-03T16:03:47.003Z</time></trkpt><trkpt lat="43.5872536" lon="11.2882171"><ele>393.0</ele><time>2026-04-03T16:03:48.012Z</time></trkpt><trkpt lat="43.5873355" lon="11.288175"><ele>394.0</ele><time>2026-04-03T16:03:49.001Z</time></trkpt><trkpt lat="43.5874132" lon="11.2881378"><ele>395.0</ele><time>2026-04-03T16:03:50.004Z</time></trkpt><trkpt lat="43.5874862" lon="11.2881074"><ele>396.00000000000006</ele><time>2026-04-03T16:03:51.01Z</time></trkpt><trkpt lat="43.5875522" lon="11.2880777"><ele>397.0</ele><time>2026-04-03T16:03:51.998Z</time></trkpt><trkpt lat="43.5876209" lon="11.2880476"><ele>397.0</ele><time>2026-04-03T16:03:53.008Z</time></trkpt><trkpt lat="43.587691" lon="11.2880171"><ele>397.0</ele><time>2026-04-03T16:03:54.003Z</time></trkpt><trkpt lat="43.5877527" lon="11.2879908"><ele>397.0</ele><time>2026-04-03T16:03:55Z</time></trkpt><trkpt lat="43.5878672" lon="11.2879325"><ele>397.0</ele><time>2026-04-03T16:03:56.998Z</time></trkpt><trkpt lat="43.5879768" lon="11.2878797"><ele>397.0</ele><time>2026-04-03T16:03:58.995Z</time></trkpt><trkpt lat="43.5880951" lon="11.2878852"><ele>397.33333333333337</ele><time>2026-04-03T16:04:01.007Z</time></trkpt><trkpt lat="43.5881736" lon="11.2880059"><ele>397.6666666666667</ele><time>2026-04-03T16:04:02.998Z</time></trkpt><trkpt lat="43.5882121" lon="11.2880913"><ele>398.0</ele><time>2026-04-03T16:04:03.996Z</time></trkpt><trkpt lat="43.5882623" lon="11.2881807"><ele>398.33333333333337</ele><time>2026-04-03T16:04:04.98Z</time></trkpt><trkpt lat="43.5883123" lon="11.2882677"><ele>398.6666666666667</ele><time>2026-04-03T16:04:05.995Z</time></trkpt><trkpt lat="43.5883611" lon="11.2883459"><ele>399.0</ele><time>2026-04-03T16:04:06.99Z</time></trkpt><trkpt lat="43.5884053" lon="11.2884134"><ele>397.2</ele><time>2026-04-03T16:04:07.99Z</time></trkpt><trkpt lat="43.5884701" lon="11.2885135"><ele>395.4</ele><time>2026-04-03T16:04:10.001Z</time></trkpt><trkpt lat="43.588528" lon="11.2886346"><ele>393.6</ele><time>2026-04-03T16:04:17.993Z</time></trkpt><trkpt lat="43.5885471" lon="11.2887305"><ele>391.8</ele><time>2026-04-03T16:04:23.992Z</time></trkpt><trkpt lat="43.588534" lon="11.2888617"><ele>390.0</ele><time>2026-04-03T16:04:27.004Z</time></trkpt><trkpt lat="43.588514" lon="11.2889799"><ele>388.2</ele><time>2026-04-03T16:04:28.984Z</time></trkpt><trkpt lat="43.5884952" lon="11.2891387"><ele>386.4</ele><time>2026-04-03T16:04:30.993Z</time></trkpt><trkpt lat="43.588501" lon="11.2892909"><ele>384.6</ele><time>2026-04-03T16:04:32.996Z</time></trkpt><trkpt lat="43.5885329" lon="11.2894278"><ele>382.8</ele><time>2026-04-03T16:04:34.989Z</time></trkpt><trkpt lat="43.5885781" lon="11.2895371"><ele>381.0</ele><time>2026-04-03T16:04:36.993Z</time></trkpt><trkpt lat="43.5886285" lon="11.2896438"><ele>381.0</ele><time>2026-04-03T16:04:38.989Z</time></trkpt><trkpt lat="43.5886696" lon="11.2897459"><ele>381.0</ele><time>2026-04-03T16:04:40.998Z</time></trkpt><trkpt lat="43.5887365" lon="11.2898568"><ele>381.0</ele><time>2026-04-03T16:04:42.996Z</time></trkpt><trkpt lat="43.5887907" lon="11.2899196"><ele>381.0</ele><time>2026-04-03T16:04:43.997Z</time></trkpt><trkpt lat="43.5888574" lon="11.2899808"><ele>381.0</ele><time>2026-04-03T16:04:45.016Z</time></trkpt><trkpt lat="43.5889209" lon="11.2900343"><ele>381.0</ele><time>2026-04-03T16:04:45.995Z</time></trkpt><trkpt lat="43.5889758" lon="11.2900832"><ele>383.20000000000005</ele><time>2026-04-03T16:04:46.994Z</time></trkpt><trkpt lat="43.5890301" lon="11.2901327"><ele>385.40000000000003</ele><time>2026-04-03T16:04:48.006Z</time></trkpt><trkpt lat="43.5891045" lon="11.290254"><ele>387.6</ele><time>2026-04-03T16:04:50.004Z</time></trkpt><trkpt lat="43.5891849" lon="11.2903804"><ele>389.8</ele><time>2026-04-03T16:04:52.003Z</time></trkpt><trkpt lat="43.5892267" lon="11.2904472"><ele>392.0</ele><time>2026-04-03T16:04:53.003Z</time></trkpt><trkpt lat="43.5892971" lon="11.2905671"><ele>391.0</ele><time>2026-04-03T16:04:55.007Z</time></trkpt><trkpt lat="43.589365" lon="11.2906842"><ele>390.0</ele><time>2026-04-03T16:04:56.987Z</time></trkpt><trkpt lat="43.5894027" lon="11.2907539"><ele>389.0</ele><time>2026-04-03T16:04:57.996Z</time></trkpt><trkpt lat="43.5894712" lon="11.2908739"><ele>388.0</ele><time>2026-04-03T16:04:59.991Z</time></trkpt><trkpt lat="43.5895326" lon="11.2909814"><ele>387.0</ele><time>2026-04-03T16:05:01.995Z</time></trkpt><trkpt lat="43.5895746" lon="11.2910986"><ele>387.0</ele><time>2026-04-03T16:05:04.001Z</time></trkpt><trkpt lat="43.5896119" lon="11.2912172"><ele>387.0</ele><time>2026-04-03T16:05:05.995Z</time></trkpt><trkpt lat="43.5896632" lon="11.2913225"><ele>387.0</ele><time>2026-04-03T16:05:07.993Z</time></trkpt><trkpt lat="43.5897105" lon="11.2913822"><ele>387.0</ele><time>2026-04-03T16:05:09.99Z</time></trkpt><trkpt lat="43.5897704" lon="11.2914525"><ele>387.0</ele><time>2026-04-03T16:05:12.988Z</time></trkpt><trkpt lat="43.58981" lon="11.2915399"><ele>387.0</ele><time>2026-04-03T16:05:15.994Z</time></trkpt><trkpt lat="43.5898255" lon="11.2916442"><ele>383.8333333333333</ele><time>2026-04-03T16:05:19.998Z</time></trkpt><trkpt lat="43.589865" lon="11.2917174"><ele>380.6666666666667</ele><time>2026-04-03T16:05:25.012Z</time></trkpt><trkpt lat="43.5898265" lon="11.2918306"><ele>377.5</ele><time>2026-04-03T16:07:01.003Z</time></trkpt><trkpt lat="43.5898022" lon="11.2919273"><ele>374.33333333333337</ele><time>2026-04-03T16:07:18.003Z</time></trkpt><trkpt lat="43.5898163" lon="11.292015"><ele>371.1666666666667</ele><time>2026-04-03T16:07:21.003Z</time></trkpt><trkpt lat="43.5898302" lon="11.2921269"><ele>368.0</ele><time>2026-04-03T16:07:23Z</time></trkpt><trkpt lat="43.5897722" lon="11.2922272"><ele>364.1666666666667</ele><time>2026-04-03T16:07:24.989Z</time></trkpt><trkpt lat="43.5896992" lon="11.2922937"><ele>360.33333333333337</ele><time>2026-04-03T16:07:26.991Z</time></trkpt><trkpt lat="43.5896913" lon="11.2924067"><ele>356.5</ele><time>2026-04-03T16:07:29.998Z</time></trkpt><trkpt lat="43.5897684" lon="11.292485"><ele>352.6666666666667</ele><time>2026-04-03T16:07:32.999Z</time></trkpt><trkpt lat="43.5898491" lon="11.2925361"><ele>348.8333333333333</ele><time>2026-04-03T16:07:34.988Z</time></trkpt><trkpt lat="43.5899306" lon="11.2926044"><ele>345.0</ele><time>2026-04-03T16:07:36.995Z</time></trkpt><trkpt lat="43.5900037" lon="11.2926719"><ele>345.0</ele><time>2026-04-03T16:07:40.01Z</time></trkpt><trkpt lat="43.5900823" lon="11.2927193"><ele>345.0</ele><time>2026-04-03T16:07:42.995Z</time></trkpt><trkpt lat="43.59019" lon="11.292752"><ele>345.0</ele><time>2026-04-03T16:07:44.995Z</time></trkpt><trkpt lat="43.5902721" lon="11.2928388"><ele>345.0</ele><time>2026-04-03T16:07:46.996Z</time></trkpt><trkpt lat="43.5903166" lon="11.2929474"><ele>345.0</ele><time>2026-04-03T16:07:48.989Z</time></trkpt><trkpt lat="43.590386" lon="11.2930394"><ele>343.2</ele><time>2026-04-03T16:07:50.995Z</time></trkpt><trkpt lat="43.590469" lon="11.2930779"><ele>341.4</ele><time>2026-04-03T16:07:52.987Z</time></trkpt><trkpt lat="43.5905661" lon="11.2931023"><ele>339.6</ele><time>2026-04-03T16:07:54.999Z</time></trkpt><trkpt lat="43.5906148" lon="11.293218"><ele>337.8</ele><time>2026-04-03T16:07:57.003Z</time></trkpt><trkpt lat="43.5906059" lon="11.2933613"><ele>336.0</ele><time>2026-04-03T16:07:58.987Z</time></trkpt><trkpt lat="43.5906178" lon="11.2934626"><ele>333.3333333333333</ele><time>2026-04-03T16:08:00.994Z</time></trkpt><trkpt lat="43.5906337" lon="11.2935642"><ele>330.6666666666667</ele><time>2026-04-03T16:08:04.999Z</time></trkpt><trkpt lat="43.5906235" lon="11.2936641"><ele>328.0</ele><time>2026-04-03T16:08:08.989Z</time></trkpt><trkpt lat="43.590633" lon="11.2937971"><ele>325.33333333333337</ele><time>2026-04-03T16:08:12.003Z</time></trkpt><trkpt lat="43.5906365" lon="11.2938929"><ele>322.6666666666667</ele><time>2026-04-03T16:08:14.014Z</time></trkpt><trkpt lat="43.5906287" lon="11.2939819"><ele>320.0</ele><time>2026-04-03T16:08:15.996Z</time></trkpt><trkpt lat="43.5906267" lon="11.2940829"><ele>318.4</ele><time>2026-04-03T16:08:17.999Z</time></trkpt><trkpt lat="43.5906297" lon="11.2942108"><ele>316.8</ele><time>2026-04-03T16:08:19.998Z</time></trkpt><trkpt lat="43.5906393" lon="11.2943508"><ele>315.2</ele><time>2026-04-03T16:08:22.003Z</time></trkpt><trkpt lat="43.5906464" lon="11.2944893"><ele>313.6</ele><time>2026-04-03T16:08:24Z</time></trkpt><trkpt lat="43.5906349" lon="11.29461"><ele>312.0</ele><time>2026-04-03T16:08:25.992Z</time></trkpt><trkpt lat="43.5906288" lon="11.2947233"><ele>310.5</ele><time>2026-04-03T16:08:27.998Z</time></trkpt><trkpt lat="43.5906525" lon="11.2948433"><ele>309.0</ele><time>2026-04-03T16:08:29.994Z</time></trkpt><trkpt lat="43.590729" lon="11.2949263"><ele>307.5</ele><time>2026-04-03T16:08:31.994Z</time></trkpt><trkpt lat="43.5908042" lon="11.2949842"><ele>306.0</ele><time>2026-04-03T16:08:33.987Z</time></trkpt><trkpt lat="43.5908657" lon="11.2950301"><ele>304.5</ele><time>2026-04-03T16:08:36.003Z</time></trkpt><trkpt lat="43.5909369" lon="11.2950758"><ele>303.0</ele><time>2026-04-03T16:08:38.992Z</time></trkpt><trkpt lat="43.5910181" lon="11.2951444"><ele>303.0</ele><time>2026-04-03T16:08:40.987Z</time></trkpt><trkpt lat="43.5911079" lon="11.295239"><ele>303.0</ele><time>2026-04-03T16:08:42.996Z</time></trkpt><trkpt lat="43.5911969" lon="11.2953466"><ele>303.0</ele><time>2026-04-03T16:08:44.989Z</time></trkpt><trkpt lat="43.5912785" lon="11.2954422"><ele>303.0</ele><time>2026-04-03T16:08:46.98Z</time></trkpt><trkpt lat="43.5913477" lon="11.2954929"><ele>303.0</ele><time>2026-04-03T16:08:48.982Z</time></trkpt><trkpt lat="43.5914196" lon="11.2955037"><ele>300.1666666666667</ele><time>2026-04-03T16:08:50.984Z</time></trkpt><trkpt lat="43.5914002" lon="11.2956052"><ele>297.3333333333333</ele><time>2026-04-03T16:08:54.99Z</time></trkpt><trkpt lat="43.5913466" lon="11.2956639"><ele>294.5</ele><time>2026-04-03T16:08:55.99Z</time></trkpt><trkpt lat="43.5912924" lon="11.2957248"><ele>291.66666666666663</ele><time>2026-04-03T16:08:56.999Z</time></trkpt><trkpt lat="43.5912381" lon="11.2957809"><ele>288.8333333333333</ele><time>2026-04-03T16:08:57.991Z</time></trkpt><trkpt lat="43.5911804" lon="11.2958261"><ele>286.0</ele><time>2026-04-03T16:08:58.993Z</time></trkpt><trkpt lat="43.5910784" lon="11.2958638"><ele>286.0</ele><time>2026-04-03T16:09:00.989Z</time></trkpt><trkpt lat="43.5910166" lon="11.2959148"><ele>286.0</ele><time>2026-04-03T16:09:02.985Z</time></trkpt><trkpt lat="43.5910259" lon="11.2960345"><ele>286.0</ele><time>2026-04-03T16:09:04.981Z</time></trkpt><trkpt lat="43.5910881" lon="11.2961327"><ele>286.0</ele><time>2026-04-03T16:09:06.991Z</time></trkpt><trkpt lat="43.591141" lon="11.2962446"><ele>286.0</ele><time>2026-04-03T16:09:08.988Z</time></trkpt><trkpt lat="43.5911838" lon="11.2963526"><ele>286.0</ele><time>2026-04-03T16:09:10.987Z</time></trkpt><trkpt lat="43.5912132" lon="11.296473"><ele>285.40000000000003</ele><time>2026-04-03T16:09:12.991Z</time></trkpt><trkpt lat="43.5912345" lon="11.2965844"><ele>284.8</ele><time>2026-04-03T16:09:14.984Z</time></trkpt><trkpt lat="43.5912707" lon="11.2967057"><ele>284.20000000000005</ele><time>2026-04-03T16:09:16.996Z</time></trkpt><trkpt lat="43.5913018" lon="11.296823"><ele>283.6</ele><time>2026-04-03T16:09:18.994Z</time></trkpt><trkpt lat="43.5913314" lon="11.296953"><ele>283.0</ele><time>2026-04-03T16:09:21.005Z</time></trkpt><trkpt lat="43.5913432" lon="11.297101"><ele>283.0</ele><time>2026-04-03T16:09:23.002Z</time></trkpt><trkpt lat="43.5913416" lon="11.297188"><ele>283.0</ele><time>2026-04-03T16:09:23.998Z</time></trkpt><trkpt lat="43.5913307" lon="11.2972821"><ele>283.0</ele><time>2026-04-03T16:09:25.006Z</time></trkpt><trkpt lat="43.5913164" lon="11.297379"><ele>283.0</ele><time>2026-04-03T16:09:25.995Z</time></trkpt><trkpt lat="43.5913003" lon="11.2974749"><ele>283.0</ele><time>2026-04-03T16:09:26.99Z</time></trkpt><trkpt lat="43.5912858" lon="11.2975688"><ele>283.0</ele><time>2026-04-03T16:09:28.016Z</time></trkpt><trkpt lat="43.5912787" lon="11.2976599"><ele>283.0</ele><time>2026-04-03T16:09:28.99Z</time></trkpt><trkpt lat="43.5912824" lon="11.2977519"><ele>284.6</ele><time>2026-04-03T16:09:30.001Z</time></trkpt><trkpt lat="43.5912987" lon="11.2979183"><ele>286.20000000000005</ele><time>2026-04-03T16:09:32Z</time></trkpt><trkpt lat="43.5913247" lon="11.2980928"><ele>287.8</ele><time>2026-04-03T16:09:34.006Z</time></trkpt><trkpt lat="43.5913392" lon="11.2981824"><ele>289.40000000000003</ele><time>2026-04-03T16:09:34.986Z</time></trkpt><trkpt lat="43.5913611" lon="11.2982737"><ele>291.0</ele><time>2026-04-03T16:09:35.997Z</time></trkpt><trkpt lat="43.5913791" lon="11.2983578"><ele>291.3333333333333</ele><time>2026-04-03T16:09:36.999Z</time></trkpt><trkpt lat="43.5914116" lon="11.2984471"><ele>291.6666666666667</ele><time>2026-04-03T16:09:37.99Z</time></trkpt><trkpt lat="43.5914498" lon="11.2985344"><ele>292.0</ele><time>2026-04-03T16:09:38.997Z</time></trkpt><trkpt lat="43.5914843" lon="11.2986213"><ele>292.33333333333337</ele><time>2026-04-03T16:09:39.994Z</time></trkpt><trkpt lat="43.5915149" lon="11.2987124"><ele>292.6666666666667</ele><time>2026-04-03T16:09:40.98Z</time></trkpt><trkpt lat="43.5915446" lon="11.2987967"><ele>293.0</ele><time>2026-04-03T16:09:41.989Z</time></trkpt><trkpt lat="43.5916049" lon="11.2989487"><ele>293.0</ele><time>2026-04-03T16:09:43.998Z</time></trkpt><trkpt lat="43.5916618" lon="11.2990749"><ele>293.0</ele><time>2026-04-03T16:09:45.993Z</time></trkpt><trkpt lat="43.5916943" lon="11.2992208"><ele>293.0</ele><time>2026-04-03T16:09:47.992Z</time></trkpt><trkpt lat="43.5917245" lon="11.2993916"><ele>293.0</ele><time>2026-04-03T16:09:49.986Z</time></trkpt><trkpt lat="43.5917504" lon="11.2994734"><ele>293.0</ele><time>2026-04-03T16:09:50.979Z</time></trkpt><trkpt lat="43.5917802" lon="11.2995536"><ele>292.99999999999994</ele><time>2026-04-03T16:09:51.99Z</time></trkpt><trkpt lat="43.5918059" lon="11.2996397"><ele>293.0</ele><time>2026-04-03T16:09:52.994Z</time></trkpt><trkpt lat="43.5918321" lon="11.2997318"><ele>293.0</ele><time>2026-04-03T16:09:54.004Z</time></trkpt><trkpt lat="43.5918606" lon="11.2998173"><ele>293.0</ele><time>2026-04-03T16:09:54.982Z</time></trkpt><trkpt lat="43.5918938" lon="11.2998978"><ele>293.0</ele><time>2026-04-03T16:09:55.999Z</time></trkpt><trkpt lat="43.5919306" lon="11.2999765"><ele>292.99999999999994</ele><time>2026-04-03T16:09:56.988Z</time></trkpt><trkpt lat="43.5919629" lon="11.3000545"><ele>293.0</ele><time>2026-04-03T16:09:57.999Z</time></trkpt><trkpt lat="43.5919807" lon="11.300141"><ele>294.4</ele><time>2026-04-03T16:09:58.984Z</time></trkpt><trkpt lat="43.5919974" lon="11.3002994"><ele>295.8</ele><time>2026-04-03T16:10:00.991Z</time></trkpt><trkpt lat="43.5920507" lon="11.3004598"><ele>297.2</ele><time>2026-04-03T16:10:02.993Z</time></trkpt><trkpt lat="43.5920838" lon="11.3005575"><ele>298.6</ele><time>2026-04-03T16:10:04.002Z</time></trkpt><trkpt lat="43.592113" lon="11.3006528"><ele>300.0</ele><time>2026-04-03T16:10:04.993Z</time></trkpt><trkpt lat="43.5921452" lon="11.3007521"><ele>300.0</ele><time>2026-04-03T16:10:06.008Z</time></trkpt><trkpt lat="43.5921807" lon="11.3008472"><ele>300.0</ele><time>2026-04-03T16:10:06.999Z</time></trkpt><trkpt lat="43.5922208" lon="11.300943"><ele>300.0</ele><time>2026-04-03T16:10:08.006Z</time></trkpt><trkpt lat="43.592263" lon="11.3010333"><ele>300.0</ele><time>2026-04-03T16:10:09.001Z</time></trkpt><trkpt lat="43.5923114" lon="11.3011176"><ele>300.0</ele><time>2026-04-03T16:10:10.011Z</time></trkpt><trkpt lat="43.592362" lon="11.3011939"><ele>300.0</ele><time>2026-04-03T16:10:10.993Z</time></trkpt><trkpt lat="43.5924163" lon="11.3012686"><ele>300.0</ele><time>2026-04-03T16:10:12.004Z</time></trkpt><trkpt lat="43.5924617" lon="11.301335"><ele>300.0</ele><time>2026-04-03T16:10:12.984Z</time></trkpt><trkpt lat="43.5925301" lon="11.3014843"><ele>300.0</ele><time>2026-04-03T16:10:15.004Z</time></trkpt><trkpt lat="43.5925646" lon="11.3015806"><ele>300.0</ele><time>2026-04-03T16:10:16.003Z</time></trkpt><trkpt lat="43.5925944" lon="11.3016759"><ele>300.0</ele><time>2026-04-03T16:10:16.995Z</time></trkpt><trkpt lat="43.5926244" lon="11.3017719"><ele>300.0</ele><time>2026-04-03T16:10:18.01Z</time></trkpt><trkpt lat="43.5926597" lon="11.3018591"><ele>300.3333333333333</ele><time>2026-04-03T16:10:18.993Z</time></trkpt><trkpt lat="43.592702" lon="11.3019341"><ele>300.6666666666667</ele><time>2026-04-03T16:10:20.006Z</time></trkpt><trkpt lat="43.5927544" lon="11.3020075"><ele>301.0</ele><time>2026-04-03T16:10:20.993Z</time></trkpt><trkpt lat="43.5928082" lon="11.3020804"><ele>301.33333333333337</ele><time>2026-04-03T16:10:22.002Z</time></trkpt><trkpt lat="43.5928652" lon="11.3021476"><ele>301.6666666666667</ele><time>2026-04-03T16:10:22.989Z</time></trkpt><trkpt lat="43.5929275" lon="11.3022177"><ele>302.0</ele><time>2026-04-03T16:10:23.989Z</time></trkpt><trkpt lat="43.5929927" lon="11.3022861"><ele>299.33333333333337</ele><time>2026-04-03T16:10:24.996Z</time></trkpt><trkpt lat="43.5930575" lon="11.3023585"><ele>296.6666666666667</ele><time>2026-04-03T16:10:25.983Z</time></trkpt><trkpt lat="43.5931144" lon="11.3024358"><ele>294.0</ele><time>2026-04-03T16:10:26.995Z</time></trkpt><trkpt lat="43.5931588" lon="11.3025047"><ele>291.3333333333333</ele><time>2026-04-03T16:10:28Z</time></trkpt><trkpt lat="43.5932046" lon="11.3025765"><ele>288.66666666666663</ele><time>2026-04-03T16:10:28.997Z</time></trkpt><trkpt lat="43.5932529" lon="11.3026384"><ele>286.0</ele><time>2026-04-03T16:10:29.995Z</time></trkpt><trkpt lat="43.5933433" lon="11.3027309"><ele>286.0</ele><time>2026-04-03T16:10:31.995Z</time></trkpt><trkpt lat="43.5934173" lon="11.3028078"><ele>286.0</ele><time>2026-04-03T16:10:33.995Z</time></trkpt><trkpt lat="43.5934941" lon="11.3028683"><ele>286.0</ele><time>2026-04-03T16:10:35.993Z</time></trkpt><trkpt lat="43.5935745" lon="11.3029165"><ele>286.0</ele><time>2026-04-03T16:10:37.998Z</time></trkpt><trkpt lat="43.5936554" lon="11.3029749"><ele>286.0</ele><time>2026-04-03T16:10:39.992Z</time></trkpt><trkpt lat="43.5937416" lon="11.303079"><ele>286.16666666666663</ele><time>2026-04-03T16:10:41.991Z</time></trkpt><trkpt lat="43.5937837" lon="11.3031557"><ele>286.3333333333333</ele><time>2026-04-03T16:10:42.987Z</time></trkpt><trkpt lat="43.5938325" lon="11.3032441"><ele>286.5</ele><time>2026-04-03T16:10:43.995Z</time></trkpt><trkpt lat="43.5938873" lon="11.303332"><ele>286.6666666666667</ele><time>2026-04-03T16:10:44.998Z</time></trkpt><trkpt lat="43.5939531" lon="11.3034216"><ele>286.83333333333337</ele><time>2026-04-03T16:10:45.982Z</time></trkpt><trkpt lat="43.5940117" lon="11.3035211"><ele>287.0</ele><time>2026-04-03T16:10:46.998Z</time></trkpt><trkpt lat="43.5940676" lon="11.3036219"><ele>287.0</ele><time>2026-04-03T16:10:47.989Z</time></trkpt><trkpt lat="43.5941292" lon="11.3037162"><ele>287.0</ele><time>2026-04-03T16:10:48.993Z</time></trkpt><trkpt lat="43.5941911" lon="11.3038057"><ele>287.0</ele><time>2026-04-03T16:10:49.996Z</time></trkpt><trkpt lat="43.5942512" lon="11.3039014"><ele>287.0</ele><time>2026-04-03T16:10:50.985Z</time></trkpt><trkpt lat="43.5943018" lon="11.3039921"><ele>287.0</ele><time>2026-04-03T16:10:51.997Z</time></trkpt><trkpt lat="43.5943521" lon="11.3040696"><ele>287.0</ele><time>2026-04-03T16:10:52.988Z</time></trkpt><trkpt lat="43.5944213" lon="11.3041911"><ele>285.83333333333337</ele><time>2026-04-03T16:10:54.992Z</time></trkpt><trkpt lat="43.5944605" lon="11.3043163"><ele>284.6666666666667</ele><time>2026-04-03T16:10:56.989Z</time></trkpt><trkpt lat="43.594463" lon="11.3044113"><ele>283.5</ele><time>2026-04-03T16:10:57.991Z</time></trkpt><trkpt lat="43.5944669" lon="11.3045255"><ele>282.3333333333333</ele><time>2026-04-03T16:10:59Z</time></trkpt><trkpt lat="43.59447" lon="11.3046472"><ele>281.16666666666663</ele><time>2026-04-03T16:10:59.988Z</time></trkpt><trkpt lat="43.5944742" lon="11.3047803"><ele>280.0</ele><time>2026-04-03T16:11:00.99Z</time></trkpt><trkpt lat="43.5944799" lon="11.3049249"><ele>278.6</ele><time>2026-04-03T16:11:01.995Z</time></trkpt><trkpt lat="43.5944845" lon="11.305073"><ele>277.2</ele><time>2026-04-03T16:11:02.993Z</time></trkpt><trkpt lat="43.5944854" lon="11.3052279"><ele>275.8</ele><time>2026-04-03T16:11:03.996Z</time></trkpt><trkpt lat="43.59449" lon="11.3053852"><ele>274.4</ele><time>2026-04-03T16:11:05.001Z</time></trkpt><trkpt lat="43.5944945" lon="11.3055422"><ele>273.0</ele><time>2026-04-03T16:11:05.998Z</time></trkpt><trkpt lat="43.5945" lon="11.3056927"><ele>272.2</ele><time>2026-04-03T16:11:06.999Z</time></trkpt><trkpt lat="43.5945009" lon="11.3058381"><ele>271.4</ele><time>2026-04-03T16:11:07.993Z</time></trkpt><trkpt lat="43.5944985" lon="11.3059829"><ele>270.59999999999997</ele><time>2026-04-03T16:11:08.997Z</time></trkpt><trkpt lat="43.5944906" lon="11.3061255"><ele>269.8</ele><time>2026-04-03T16:11:09.995Z</time></trkpt><trkpt lat="43.5944752" lon="11.3062686"><ele>269.0</ele><time>2026-04-03T16:11:10.989Z</time></trkpt><trkpt lat="43.5944591" lon="11.3064074"><ele>269.0</ele><time>2026-04-03T16:11:11.996Z</time></trkpt><trkpt lat="43.5944436" lon="11.3065499"><ele>269.0</ele><time>2026-04-03T16:11:13.014Z</time></trkpt><trkpt lat="43.5944279" lon="11.3067053"><ele>269.0</ele><time>2026-04-03T16:11:13.989Z</time></trkpt><trkpt lat="43.5944085" lon="11.30687"><ele>269.0</ele><time>2026-04-03T16:11:15Z</time></trkpt><trkpt lat="43.594391" lon="11.3070438"><ele>269.0</ele><time>2026-04-03T16:11:15.994Z</time></trkpt><trkpt lat="43.5943775" lon="11.3072155"><ele>269.0</ele><time>2026-04-03T16:11:17.002Z</time></trkpt><trkpt lat="43.5943647" lon="11.3073865"><ele>269.0</ele><time>2026-04-03T16:11:17.997Z</time></trkpt><trkpt lat="43.594347" lon="11.3075534"><ele>269.0</ele><time>2026-04-03T16:11:18.983Z</time></trkpt><trkpt lat="43.5943294" lon="11.3077133"><ele>268.2</ele><time>2026-04-03T16:11:20Z</time></trkpt><trkpt lat="43.5943146" lon="11.3078707"><ele>267.4</ele><time>2026-04-03T16:11:20.994Z</time></trkpt><trkpt lat="43.5942975" lon="11.3080234"><ele>266.6</ele><time>2026-04-03T16:11:21.998Z</time></trkpt><trkpt lat="43.59428" lon="11.3081694"><ele>265.8</ele><time>2026-04-03T16:11:22.988Z</time></trkpt><trkpt lat="43.5942687" lon="11.3082958"><ele>265.0</ele><time>2026-04-03T16:11:24.001Z</time></trkpt><trkpt lat="43.5942526" lon="11.3084153"><ele>264.5</ele><time>2026-04-03T16:11:24.992Z</time></trkpt><trkpt lat="43.5942389" lon="11.3085189"><ele>264.0</ele><time>2026-04-03T16:11:25.991Z</time></trkpt><trkpt lat="43.5942255" lon="11.3086737"><ele>263.5</ele><time>2026-04-03T16:11:27.993Z</time></trkpt><trkpt lat="43.5942589" lon="11.3087509"><ele>263.0</ele><time>2026-04-03T16:11:29.991Z</time></trkpt><trkpt lat="43.5943342" lon="11.3087545"><ele>262.5</ele><time>2026-04-03T16:11:31.99Z</time></trkpt><trkpt lat="43.5944505" lon="11.3087172"><ele>262.0</ele><time>2026-04-03T16:11:33.992Z</time></trkpt><trkpt lat="43.5945289" lon="11.3087011"><ele>263.0</ele><time>2026-04-03T16:11:34.99Z</time></trkpt><trkpt lat="43.5946127" lon="11.308683"><ele>264.0</ele><time>2026-04-03T16:11:35.986Z</time></trkpt><trkpt lat="43.5946994" lon="11.3086642"><ele>265.0</ele><time>2026-04-03T16:11:36.996Z</time></trkpt><trkpt lat="43.594784" lon="11.30865"><ele>266.0</ele><time>2026-04-03T16:11:37.994Z</time></trkpt><trkpt lat="43.5948505" lon="11.3086434"><ele>267.0</ele><time>2026-04-03T16:11:38.986Z</time></trkpt><trkpt lat="43.5949619" lon="11.3086204"><ele>268.0</ele><time>2026-04-03T16:11:40.999Z</time></trkpt><trkpt lat="43.5950255" lon="11.3086074"><ele>268.0</ele><time>2026-04-03T16:11:42.001Z</time></trkpt><trkpt lat="43.5950891" lon="11.3085877"><ele>268.0</ele><time>2026-04-03T16:11:42.98Z</time></trkpt><trkpt lat="43.5951548" lon="11.3085603"><ele>268.0</ele><time>2026-04-03T16:11:44.994Z</time></trkpt><trkpt lat="43.5951756" lon="11.3084233"><ele>268.0</ele><time>2026-04-03T16:11:50.997Z</time></trkpt><trkpt lat="43.5951527" lon="11.3082665"><ele>268.0</ele><time>2026-04-03T16:11:52.982Z</time></trkpt><trkpt lat="43.5951567" lon="11.3081298"><ele>268.5</ele><time>2026-04-03T16:11:54.998Z</time></trkpt><trkpt lat="43.595233" lon="11.3080355"><ele>269.0</ele><time>2026-04-03T16:11:56.995Z</time></trkpt><trkpt lat="43.5953472" lon="11.308001"><ele>269.5</ele><time>2026-04-03T16:11:58.992Z</time></trkpt><trkpt lat="43.5954732" lon="11.3079809"><ele>270.0</ele><time>2026-04-03T16:12:00.992Z</time></trkpt><trkpt lat="43.5955972" lon="11.3079711"><ele>270.0</ele><time>2026-04-03T16:12:02.991Z</time></trkpt><trkpt lat="43.5956608" lon="11.3079551"><ele>270.0</ele><time>2026-04-03T16:12:03.987Z</time></trkpt><trkpt lat="43.5957296" lon="11.3079345"><ele>270.0</ele><time>2026-04-03T16:12:04.987Z</time></trkpt><trkpt lat="43.5958047" lon="11.307919"><ele>270.0</ele><time>2026-04-03T16:12:05.998Z</time></trkpt><trkpt lat="43.5958846" lon="11.307902"><ele>270.0</ele><time>2026-04-03T16:12:06.988Z</time></trkpt><trkpt lat="43.5959692" lon="11.3078842"><ele>270.0</ele><time>2026-04-03T16:12:07.987Z</time></trkpt><trkpt lat="43.5960449" lon="11.3078693"><ele>270.0</ele><time>2026-04-03T16:12:08.988Z</time></trkpt><trkpt lat="43.5961524" lon="11.3078389"><ele>270.0</ele><time>2026-04-03T16:12:10.983Z</time></trkpt><trkpt lat="43.5962073" lon="11.3078817"><ele>270.0</ele><time>2026-04-03T16:12:12.989Z</time></trkpt><trkpt lat="43.5961994" lon="11.3080346"><ele>270.0</ele><time>2026-04-03T16:12:14.997Z</time></trkpt><trkpt lat="43.5961851" lon="11.3081816"><ele>270.0</ele><time>2026-04-03T16:12:16.984Z</time></trkpt><trkpt lat="43.5962905" lon="11.3082343"><ele>269.1666666666667</ele><time>2026-04-03T16:12:18.996Z</time></trkpt><trkpt lat="43.5963581" lon="11.3082207"><ele>268.3333333333333</ele><time>2026-04-03T16:12:20.004Z</time></trkpt><trkpt lat="43.5964346" lon="11.3081871"><ele>267.5</ele><time>2026-04-03T16:12:20.985Z</time></trkpt><trkpt lat="43.596515" lon="11.308166"><ele>266.66666666666663</ele><time>2026-04-03T16:12:21.988Z</time></trkpt><trkpt lat="43.5965993" lon="11.3081469"><ele>265.8333333333333</ele><time>2026-04-03T16:12:22.994Z</time></trkpt><trkpt lat="43.5966914" lon="11.3081312"><ele>265.0</ele><time>2026-04-03T16:12:23.989Z</time></trkpt><trkpt lat="43.5967845" lon="11.3081091"><ele>265.0</ele><time>2026-04-03T16:12:25.004Z</time></trkpt><trkpt lat="43.5968772" lon="11.3080886"><ele>265.0</ele><time>2026-04-03T16:12:25.987Z</time></trkpt><trkpt lat="43.5969643" lon="11.3080652"><ele>265.0</ele><time>2026-04-03T16:12:26.996Z</time></trkpt><trkpt lat="43.597043" lon="11.3080453"><ele>265.0</ele><time>2026-04-03T16:12:27.992Z</time></trkpt><trkpt lat="43.5971171" lon="11.3080263"><ele>265.0</ele><time>2026-04-03T16:12:28.992Z</time></trkpt><trkpt lat="43.5971913" lon="11.3080075"><ele>265.0</ele><time>2026-04-03T16:12:29.995Z</time></trkpt><trkpt lat="43.5972711" lon="11.3079916"><ele>264.0</ele><time>2026-04-03T16:12:30.984Z</time></trkpt><trkpt lat="43.5973581" lon="11.3079703"><ele>263.0</ele><time>2026-04-03T16:12:31.99Z</time></trkpt><trkpt lat="43.5974499" lon="11.3079528"><ele>262.0</ele><time>2026-04-03T16:12:32.997Z</time></trkpt><trkpt lat="43.5975348" lon="11.3079342"><ele>261.0</ele><time>2026-04-03T16:12:34.005Z</time></trkpt><trkpt lat="43.5976105" lon="11.3079165"><ele>260.0</ele><time>2026-04-03T16:12:35Z</time></trkpt><trkpt lat="43.597686" lon="11.3079001"><ele>259.0</ele><time>2026-04-03T16:12:35.993Z</time></trkpt><trkpt lat="43.597768" lon="11.3078781"><ele>258.16666666666663</ele><time>2026-04-03T16:12:36.994Z</time></trkpt><trkpt lat="43.5978513" lon="11.3078551"><ele>257.3333333333333</ele><time>2026-04-03T16:12:38Z</time></trkpt><trkpt lat="43.5979365" lon="11.3078298"><ele>256.5</ele><time>2026-04-03T16:12:39.001Z</time></trkpt><trkpt lat="43.5980208" lon="11.3078094"><ele>255.66666666666669</ele><time>2026-04-03T16:12:40.004Z</time></trkpt><trkpt lat="43.5981017" lon="11.307789"><ele>254.83333333333334</ele><time>2026-04-03T16:12:41.009Z</time></trkpt><trkpt lat="43.5981798" lon="11.3077717"><ele>254.0</ele><time>2026-04-03T16:12:41.991Z</time></trkpt><trkpt lat="43.5982542" lon="11.3077496"><ele>254.0</ele><time>2026-04-03T16:12:42.997Z</time></trkpt><trkpt lat="43.5983208" lon="11.3077143"><ele>254.0</ele><time>2026-04-03T16:12:43.995Z</time></trkpt><trkpt lat="43.5983791" lon="11.3076677"><ele>254.0</ele><time>2026-04-03T16:12:44.985Z</time></trkpt><trkpt lat="43.5984368" lon="11.3076216"><ele>254.0</ele><time>2026-04-03T16:12:45.991Z</time></trkpt><trkpt lat="43.5984982" lon="11.3075731"><ele>254.0</ele><time>2026-04-03T16:12:46.987Z</time></trkpt><trkpt lat="43.5985597" lon="11.3075212"><ele>254.0</ele><time>2026-04-03T16:12:47.99Z</time></trkpt><trkpt lat="43.5986155" lon="11.3074599"><ele>254.0</ele><time>2026-04-03T16:12:48.982Z</time></trkpt><trkpt lat="43.598659" lon="11.3073818"><ele>253.16666666666669</ele><time>2026-04-03T16:12:49.991Z</time></trkpt><trkpt lat="43.5986867" lon="11.3072989"><ele>252.33333333333334</ele><time>2026-04-03T16:12:50.984Z</time></trkpt><trkpt lat="43.5987082" lon="11.3072062"><ele>251.5</ele><time>2026-04-03T16:12:51.989Z</time></trkpt><trkpt lat="43.5987185" lon="11.3071105"><ele>250.66666666666669</ele><time>2026-04-03T16:12:52.997Z</time></trkpt><trkpt lat="43.5987237" lon="11.3070165"><ele>249.83333333333334</ele><time>2026-04-03T16:12:53.995Z</time></trkpt><trkpt lat="43.5987321" lon="11.3069225"><ele>249.0</ele><time>2026-04-03T16:12:54.987Z</time></trkpt><trkpt lat="43.5987952" lon="11.3067824"><ele>247.42857142857142</ele><time>2026-04-03T16:12:56.983Z</time></trkpt><trkpt lat="43.5988524" lon="11.30674"><ele>245.85714285714283</ele><time>2026-04-03T16:12:57.995Z</time></trkpt><trkpt lat="43.5989132" lon="11.3067011"><ele>244.28571428571428</ele><time>2026-04-03T16:12:58.989Z</time></trkpt><trkpt lat="43.5989745" lon="11.3066512"><ele>242.71428571428572</ele><time>2026-04-03T16:12:59.999Z</time></trkpt><trkpt lat="43.5990375" lon="11.3066114"><ele>241.14285714285714</ele><time>2026-04-03T16:13:00.988Z</time></trkpt><trkpt lat="43.5991049" lon="11.3065948"><ele>239.57142857142856</ele><time>2026-04-03T16:13:01.996Z</time></trkpt><trkpt lat="43.5991812" lon="11.3065866"><ele>238.0</ele><time>2026-04-03T16:13:02.988Z</time></trkpt><trkpt lat="43.5992665" lon="11.3065851"><ele>237.99999999999997</ele><time>2026-04-03T16:13:03.993Z</time></trkpt><trkpt lat="43.5993608" lon="11.3065849"><ele>238.0</ele><time>2026-04-03T16:13:04.991Z</time></trkpt><trkpt lat="43.5994532" lon="11.3065897"><ele>238.0</ele><time>2026-04-03T16:13:05.993Z</time></trkpt><trkpt lat="43.5995344" lon="11.3065835"><ele>238.0</ele><time>2026-04-03T16:13:06.985Z</time></trkpt><trkpt lat="43.5996129" lon="11.3065737"><ele>237.99999999999997</ele><time>2026-04-03T16:13:07.992Z</time></trkpt><trkpt lat="43.5996848" lon="11.3065539"><ele>238.0</ele><time>2026-04-03T16:13:08.991Z</time></trkpt><trkpt lat="43.5997481" lon="11.3065187"><ele>237.83333333333331</ele><time>2026-04-03T16:13:09.993Z</time></trkpt><trkpt lat="43.5997947" lon="11.3064551"><ele>237.66666666666666</ele><time>2026-04-03T16:13:10.982Z</time></trkpt><trkpt lat="43.599818" lon="11.3063699"><ele>237.5</ele><time>2026-04-03T16:13:11.999Z</time></trkpt><trkpt lat="43.5998165" lon="11.3062812"><ele>237.33333333333331</ele><time>2026-04-03T16:13:12.977Z</time></trkpt><trkpt lat="43.5997941" lon="11.3061256"><ele>237.16666666666666</ele><time>2026-04-03T16:13:14.982Z</time></trkpt><trkpt lat="43.5998207" lon="11.3060101"><ele>237.0</ele><time>2026-04-03T16:13:16.99Z</time></trkpt><trkpt lat="43.599903" lon="11.3059564"><ele>236.39999999999998</ele><time>2026-04-03T16:13:18.99Z</time></trkpt><trkpt lat="43.5999992" lon="11.3059579"><ele>235.79999999999998</ele><time>2026-04-03T16:13:20.985Z</time></trkpt><trkpt lat="43.6001023" lon="11.3059706"><ele>235.2</ele><time>2026-04-03T16:13:23Z</time></trkpt><trkpt lat="43.6002129" lon="11.30598"><ele>234.6</ele><time>2026-04-03T16:13:24.991Z</time></trkpt><trkpt lat="43.6003331" lon="11.3059815"><ele>234.0</ele><time>2026-04-03T16:13:26.996Z</time></trkpt><trkpt lat="43.6004563" lon="11.3059843"><ele>232.66666666666666</ele><time>2026-04-03T16:13:28.996Z</time></trkpt><trkpt lat="43.600523" lon="11.3059838"><ele>231.33333333333331</ele><time>2026-04-03T16:13:29.989Z</time></trkpt><trkpt lat="43.6005924" lon="11.3059923"><ele>230.0</ele><time>2026-04-03T16:13:30.988Z</time></trkpt><trkpt lat="43.6006703" lon="11.3059942"><ele>228.66666666666666</ele><time>2026-04-03T16:13:31.997Z</time></trkpt><trkpt lat="43.6007553" lon="11.3059935"><ele>227.33333333333331</ele><time>2026-04-03T16:13:32.987Z</time></trkpt><trkpt lat="43.6008471" lon="11.3059964"><ele>226.0</ele><time>2026-04-03T16:13:34.013Z</time></trkpt><trkpt lat="43.6009316" lon="11.3059961"><ele>225.99999999999997</ele><time>2026-04-03T16:13:34.994Z</time></trkpt><trkpt lat="43.601013" lon="11.3059945"><ele>226.0</ele><time>2026-04-03T16:13:35.984Z</time></trkpt><trkpt lat="43.6011004" lon="11.3059852"><ele>226.0</ele><time>2026-04-03T16:13:36.99Z</time></trkpt><trkpt lat="43.6011902" lon="11.3059801"><ele>226.0</ele><time>2026-04-03T16:13:37.99Z</time></trkpt><trkpt lat="43.6012838" lon="11.3059675"><ele>225.99999999999997</ele><time>2026-04-03T16:13:38.995Z</time></trkpt><trkpt lat="43.6013686" lon="11.3059582"><ele>226.0</ele><time>2026-04-03T16:13:40Z</time></trkpt><trkpt lat="43.6014484" lon="11.3059548"><ele>223.8</ele><time>2026-04-03T16:13:40.997Z</time></trkpt><trkpt lat="43.6015243" lon="11.3059577"><ele>221.60000000000002</ele><time>2026-04-03T16:13:41.99Z</time></trkpt><trkpt lat="43.6015908" lon="11.3059821"><ele>219.4</ele><time>2026-04-03T16:13:42.982Z</time></trkpt><trkpt lat="43.601673" lon="11.3060937"><ele>217.2</ele><time>2026-04-03T16:13:45.003Z</time></trkpt><trkpt lat="43.6016783" lon="11.3062661"><ele>215.0</ele><time>2026-04-03T16:13:46.992Z</time></trkpt><trkpt lat="43.6016707" lon="11.3063612"><ele>215.6</ele><time>2026-04-03T16:13:47.993Z</time></trkpt><trkpt lat="43.6016527" lon="11.3064614"><ele>216.2</ele><time>2026-04-03T16:13:48.992Z</time></trkpt><trkpt lat="43.6016365" lon="11.3065542"><ele>216.8</ele><time>2026-04-03T16:13:49.996Z</time></trkpt><trkpt lat="43.601618" lon="11.306712"><ele>217.4</ele><time>2026-04-03T16:13:51.998Z</time></trkpt><trkpt lat="43.6016131" lon="11.3068465"><ele>218.0</ele><time>2026-04-03T16:13:53.999Z</time></trkpt><trkpt lat="43.6016434" lon="11.3069747"><ele>218.0</ele><time>2026-04-03T16:13:56.993Z</time></trkpt><trkpt lat="43.6017136" lon="11.3071333"><ele>218.0</ele><time>2026-04-03T16:13:58.995Z</time></trkpt><trkpt lat="43.6017577" lon="11.307223"><ele>218.0</ele><time>2026-04-03T16:13:59.997Z</time></trkpt><trkpt lat="43.6018039" lon="11.3073198"><ele>218.0</ele><time>2026-04-03T16:14:00.995Z</time></trkpt><trkpt lat="43.6018476" lon="11.3074242"><ele>218.0</ele><time>2026-04-03T16:14:01.994Z</time></trkpt><trkpt lat="43.6018973" lon="11.3075309"><ele>218.66666666666669</ele><time>2026-04-03T16:14:02.988Z</time></trkpt><trkpt lat="43.6019461" lon="11.3076394"><ele>219.33333333333334</ele><time>2026-04-03T16:14:03.997Z</time></trkpt><trkpt lat="43.6019864" lon="11.307746"><ele>220.0</ele><time>2026-04-03T16:14:04.996Z</time></trkpt><trkpt lat="43.6020299" lon="11.3078521"><ele>220.66666666666669</ele><time>2026-04-03T16:14:05.995Z</time></trkpt><trkpt lat="43.6020694" lon="11.3079604"><ele>221.33333333333334</ele><time>2026-04-03T16:14:06.981Z</time></trkpt><trkpt lat="43.6021133" lon="11.3080697"><ele>222.0</ele><time>2026-04-03T16:14:07.998Z</time></trkpt><trkpt lat="43.6021562" lon="11.3081886"><ele>219.8</ele><time>2026-04-03T16:14:08.979Z</time></trkpt><trkpt lat="43.6022041" lon="11.3083129"><ele>217.6</ele><time>2026-04-03T16:14:10Z</time></trkpt><trkpt lat="43.6022569" lon="11.3084336"><ele>215.4</ele><time>2026-04-03T16:14:10.992Z</time></trkpt><trkpt lat="43.6023065" lon="11.3085519"><ele>213.20000000000002</ele><time>2026-04-03T16:14:11.987Z</time></trkpt><trkpt lat="43.6023543" lon="11.3086711"><ele>211.0</ele><time>2026-04-03T16:14:12.992Z</time></trkpt><trkpt lat="43.6023982" lon="11.3087814"><ele>211.0</ele><time>2026-04-03T16:14:13.982Z</time></trkpt><trkpt lat="43.6024423" lon="11.3088831"><ele>211.0</ele><time>2026-04-03T16:14:14.994Z</time></trkpt><trkpt lat="43.6024904" lon="11.3089858"><ele>211.0</ele><time>2026-04-03T16:14:15.99Z</time></trkpt><trkpt lat="43.6025394" lon="11.309093"><ele>211.0</ele><time>2026-04-03T16:14:16.99Z</time></trkpt><trkpt lat="43.6025937" lon="11.3091998"><ele>211.0</ele><time>2026-04-03T16:14:17.989Z</time></trkpt><trkpt lat="43.6026447" lon="11.3093103"><ele>211.16666666666666</ele><time>2026-04-03T16:14:18.991Z</time></trkpt><trkpt lat="43.6026907" lon="11.3094057"><ele>211.33333333333331</ele><time>2026-04-03T16:14:19.994Z</time></trkpt><trkpt lat="43.6027325" lon="11.3094836"><ele>211.5</ele><time>2026-04-03T16:14:20.996Z</time></trkpt><trkpt lat="43.6027789" lon="11.3096022"><ele>211.66666666666669</ele><time>2026-04-03T16:14:22.985Z</time></trkpt><trkpt lat="43.6028049" lon="11.30969"><ele>211.83333333333334</ele><time>2026-04-03T16:14:26.003Z</time></trkpt><trkpt lat="43.6028754" lon="11.3097367"><ele>212.0</ele><time>2026-04-03T16:14:28.99Z</time></trkpt><trkpt lat="43.6029844" lon="11.3096964"><ele>212.2</ele><time>2026-04-03T16:14:30.999Z</time></trkpt><trkpt lat="43.6030516" lon="11.30966"><ele>212.39999999999998</ele><time>2026-04-03T16:14:31.987Z</time></trkpt><trkpt lat="43.6031106" lon="11.309628"><ele>212.60000000000002</ele><time>2026-04-03T16:14:32.998Z</time></trkpt><trkpt lat="43.6032186" lon="11.3095831"><ele>212.8</ele><time>2026-04-03T16:14:34.99Z</time></trkpt><trkpt lat="43.60333" lon="11.3095245"><ele>213.0</ele><time>2026-04-03T16:14:36.991Z</time></trkpt><trkpt lat="43.6034124" lon="11.3094769"><ele>213.0</ele><time>2026-04-03T16:14:37.986Z</time></trkpt><trkpt lat="43.603508" lon="11.3094212"><ele>213.0</ele><time>2026-04-03T16:14:38.987Z</time></trkpt><trkpt lat="43.6036059" lon="11.3093562"><ele>213.0</ele><time>2026-04-03T16:14:40Z</time></trkpt><trkpt lat="43.6037044" lon="11.3092858"><ele>213.0</ele><time>2026-04-03T16:14:40.992Z</time></trkpt><trkpt lat="43.6037984" lon="11.3091957"><ele>213.0</ele><time>2026-04-03T16:14:41.996Z</time></trkpt><trkpt lat="43.6038817" lon="11.3090817"><ele>213.60000000000002</ele><time>2026-04-03T16:14:42.987Z</time></trkpt><trkpt lat="43.6039498" lon="11.3089566"><ele>214.20000000000002</ele><time>2026-04-03T16:14:43.981Z</time></trkpt><trkpt lat="43.6040067" lon="11.3088258"><ele>214.8</ele><time>2026-04-03T16:14:44.988Z</time></trkpt><trkpt lat="43.6040535" lon="11.3087014"><ele>215.4</ele><time>2026-04-03T16:14:45.988Z</time></trkpt><trkpt lat="43.6040972" lon="11.3085977"><ele>216.0</ele><time>2026-04-03T16:14:47Z</time></trkpt><trkpt lat="43.6041421" lon="11.3085165"><ele>216.0</ele><time>2026-04-03T16:14:47.991Z</time></trkpt><trkpt lat="43.6041912" lon="11.3084413"><ele>216.0</ele><time>2026-04-03T16:14:48.994Z</time></trkpt><trkpt lat="43.6042372" lon="11.3083662"><ele>216.0</ele><time>2026-04-03T16:14:49.993Z</time></trkpt><trkpt lat="43.6042576" lon="11.3082544"><ele>216.0</ele><time>2026-04-03T16:14:50.985Z</time></trkpt><trkpt lat="43.6042691" lon="11.308131"><ele>216.0</ele><time>2026-04-03T16:14:51.99Z</time></trkpt><trkpt lat="43.6042893" lon="11.3080212"><ele>216.0</ele><time>2026-04-03T16:14:52.99Z</time></trkpt><trkpt lat="43.6043937" lon="11.3079397"><ele>215.66666666666666</ele><time>2026-04-03T16:14:54.986Z</time></trkpt><trkpt lat="43.6044666" lon="11.3079513"><ele>215.33333333333331</ele><time>2026-04-03T16:14:55.989Z</time></trkpt><trkpt lat="43.604545" lon="11.3079905"><ele>215.0</ele><time>2026-04-03T16:14:56.992Z</time></trkpt><trkpt lat="43.6046272" lon="11.3080241"><ele>214.66666666666666</ele><time>2026-04-03T16:14:57.994Z</time></trkpt><trkpt lat="43.6047162" lon="11.3080217"><ele>214.33333333333331</ele><time>2026-04-03T16:14:58.998Z</time></trkpt><trkpt lat="43.6048136" lon="11.3079964"><ele>214.0</ele><time>2026-04-03T16:14:59.997Z</time></trkpt><trkpt lat="43.6049185" lon="11.3079749"><ele>216.0</ele><time>2026-04-03T16:15:00.997Z</time></trkpt><trkpt lat="43.6050128" lon="11.307958"><ele>217.99999999999997</ele><time>2026-04-03T16:15:01.983Z</time></trkpt><trkpt lat="43.6050921" lon="11.3079499"><ele>219.99999999999997</ele><time>2026-04-03T16:15:02.983Z</time></trkpt><trkpt lat="43.6051756" lon="11.3079558"><ele>222.0</ele><time>2026-04-03T16:15:04.001Z</time></trkpt><trkpt lat="43.6052561" lon="11.3080061"><ele>224.0</ele><time>2026-04-03T16:15:04.996Z</time></trkpt><trkpt lat="43.6053437" lon="11.3080845"><ele>224.75</ele><time>2026-04-03T16:15:05.997Z</time></trkpt><trkpt lat="43.605438" lon="11.3081827"><ele>225.5</ele><time>2026-04-03T16:15:06.984Z</time></trkpt><trkpt lat="43.6055311" lon="11.3082886"><ele>226.25</ele><time>2026-04-03T16:15:07.993Z</time></trkpt><trkpt lat="43.6056272" lon="11.3083995"><ele>227.0</ele><time>2026-04-03T16:15:08.984Z</time></trkpt><trkpt lat="43.6057246" lon="11.3085087"><ele>227.0</ele><time>2026-04-03T16:15:09.995Z</time></trkpt><trkpt lat="43.6058156" lon="11.3086226"><ele>227.0</ele><time>2026-04-03T16:15:10.995Z</time></trkpt><trkpt lat="43.6059059" lon="11.3087524"><ele>227.0</ele><time>2026-04-03T16:15:11.997Z</time></trkpt><trkpt lat="43.6059952" lon="11.3088901"><ele>227.0</ele><time>2026-04-03T16:15:13.001Z</time></trkpt><trkpt lat="43.6060886" lon="11.3090239"><ele>228.0</ele><time>2026-04-03T16:15:13.985Z</time></trkpt><trkpt lat="43.6061904" lon="11.3091666"><ele>229.0</ele><time>2026-04-03T16:15:14.991Z</time></trkpt><trkpt lat="43.6063021" lon="11.3093035"><ele>230.0</ele><time>2026-04-03T16:15:15.995Z</time></trkpt><trkpt lat="43.6064311" lon="11.3094333"><ele>230.0</ele><time>2026-04-03T16:15:16.995Z</time></trkpt><trkpt lat="43.606564" lon="11.3095641"><ele>230.0</ele><time>2026-04-03T16:15:17.991Z</time></trkpt><trkpt lat="43.6066795" lon="11.3096999"><ele>230.0</ele><time>2026-04-03T16:15:18.985Z</time></trkpt><trkpt lat="43.6067688" lon="11.3098258"><ele>230.0</ele><time>2026-04-03T16:15:19.994Z</time></trkpt><trkpt lat="43.606843" lon="11.3099469"><ele>232.25</ele><time>2026-04-03T16:15:20.988Z</time></trkpt><trkpt lat="43.6069037" lon="11.3100774"><ele>234.5</ele><time>2026-04-03T16:15:21.997Z</time></trkpt><trkpt lat="43.6069592" lon="11.3102077"><ele>236.75</ele><time>2026-04-03T16:15:22.988Z</time></trkpt><trkpt lat="43.6070209" lon="11.3103464"><ele>239.0</ele><time>2026-04-03T16:15:23.985Z</time></trkpt><trkpt lat="43.607105" lon="11.3104744"><ele>242.0</ele><time>2026-04-03T16:15:24.992Z</time></trkpt><trkpt lat="43.6071993" lon="11.310589"><ele>245.0</ele><time>2026-04-03T16:15:25.985Z</time></trkpt><trkpt lat="43.6072812" lon="11.3106988"><ele>248.0</ele><time>2026-04-03T16:15:26.992Z</time></trkpt><trkpt lat="43.6073594" lon="11.3108012"><ele>251.0</ele><time>2026-04-03T16:15:27.994Z</time></trkpt><trkpt lat="43.6074412" lon="11.3109008"><ele>251.0</ele><time>2026-04-03T16:15:28.999Z</time></trkpt><trkpt lat="43.6075253" lon="11.311012"><ele>251.0</ele><time>2026-04-03T16:15:29.983Z</time></trkpt><trkpt lat="43.607612" lon="11.3111215"><ele>251.0</ele><time>2026-04-03T16:15:30.981Z</time></trkpt><trkpt lat="43.6076909" lon="11.3112424"><ele>251.0</ele><time>2026-04-03T16:15:31.998Z</time></trkpt><trkpt lat="43.6077533" lon="11.3113683"><ele>251.33333333333334</ele><time>2026-04-03T16:15:32.984Z</time></trkpt><trkpt lat="43.6078055" lon="11.3114777"><ele>251.66666666666669</ele><time>2026-04-03T16:15:34.007Z</time></trkpt><trkpt lat="43.607852" lon="11.3115776"><ele>252.0</ele><time>2026-04-03T16:15:34.99Z</time></trkpt><trkpt lat="43.6079013" lon="11.3116756"><ele>252.33333333333331</ele><time>2026-04-03T16:15:35.994Z</time></trkpt><trkpt lat="43.6079512" lon="11.3117729"><ele>252.66666666666666</ele><time>2026-04-03T16:15:36.994Z</time></trkpt><trkpt lat="43.608" lon="11.3118747"><ele>253.0</ele><time>2026-04-03T16:15:37.989Z</time></trkpt><trkpt lat="43.6080415" lon="11.3119668"><ele>255.0</ele><time>2026-04-03T16:15:38.995Z</time></trkpt><trkpt lat="43.6080936" lon="11.3120718"><ele>257.0</ele><time>2026-04-03T16:15:39.995Z</time></trkpt><trkpt lat="43.6081525" lon="11.3121798"><ele>259.0</ele><time>2026-04-03T16:15:40.991Z</time></trkpt><trkpt lat="43.6082154" lon="11.3122839"><ele>261.0</ele><time>2026-04-03T16:15:41.995Z</time></trkpt><trkpt lat="43.6082969" lon="11.3123754"><ele>263.0</ele><time>2026-04-03T16:15:42.993Z</time></trkpt><trkpt lat="43.6083784" lon="11.3124607"><ele>263.2</ele><time>2026-04-03T16:15:43.993Z</time></trkpt><trkpt lat="43.6084584" lon="11.3125389"><ele>263.4</ele><time>2026-04-03T16:15:44.98Z</time></trkpt><trkpt lat="43.6085458" lon="11.3126292"><ele>263.59999999999997</ele><time>2026-04-03T16:15:45.993Z</time></trkpt><trkpt lat="43.6086345" lon="11.3127287"><ele>263.8</ele><time>2026-04-03T16:15:46.973Z</time></trkpt><trkpt lat="43.6087173" lon="11.3128469"><ele>264.0</ele><time>2026-04-03T16:15:47.994Z</time></trkpt><trkpt lat="43.6087954" lon="11.3129742"><ele>268.25</ele><time>2026-04-03T16:15:48.977Z</time></trkpt><trkpt lat="43.6088679" lon="11.3131094"><ele>272.5</ele><time>2026-04-03T16:15:49.994Z</time></trkpt><trkpt lat="43.6089397" lon="11.3132423"><ele>276.75</ele><time>2026-04-03T16:15:50.982Z</time></trkpt><trkpt lat="43.6090126" lon="11.313365"><ele>281.0</ele><time>2026-04-03T16:15:51.997Z</time></trkpt><trkpt lat="43.6090956" lon="11.3134755"><ele>281.0</ele><time>2026-04-03T16:15:52.99Z</time></trkpt><trkpt lat="43.6091888" lon="11.3135629"><ele>281.0</ele><time>2026-04-03T16:15:53.997Z</time></trkpt><trkpt lat="43.6092988" lon="11.3136345"><ele>281.0</ele><time>2026-04-03T16:15:54.992Z</time></trkpt><trkpt lat="43.6094071" lon="11.3136989"><ele>281.0</ele><time>2026-04-03T16:15:55.996Z</time></trkpt><trkpt lat="43.6095132" lon="11.313768"><ele>281.2</ele><time>2026-04-03T16:15:56.99Z</time></trkpt><trkpt lat="43.6096154" lon="11.3138292"><ele>281.40000000000003</ele><time>2026-04-03T16:15:58.002Z</time></trkpt><trkpt lat="43.6097197" lon="11.3138816"><ele>281.6</ele><time>2026-04-03T16:15:58.986Z</time></trkpt><trkpt lat="43.6098231" lon="11.3139378"><ele>281.8</ele><time>2026-04-03T16:15:59.992Z</time></trkpt><trkpt lat="43.6099238" lon="11.3140133"><ele>282.0</ele><time>2026-04-03T16:16:00.99Z</time></trkpt><trkpt lat="43.6100212" lon="11.3141105"><ele>284.75</ele><time>2026-04-03T16:16:01.985Z</time></trkpt><trkpt lat="43.6101202" lon="11.3142231"><ele>287.5</ele><time>2026-04-03T16:16:02.98Z</time></trkpt><trkpt lat="43.610217" lon="11.3143304"><ele>290.25</ele><time>2026-04-03T16:16:03.991Z</time></trkpt><trkpt lat="43.6103092" lon="11.3144505"><ele>293.0</ele><time>2026-04-03T16:16:04.988Z</time></trkpt><trkpt lat="43.6104001" lon="11.3145584"><ele>293.25</ele><time>2026-04-03T16:16:06Z</time></trkpt><trkpt lat="43.6104939" lon="11.3146597"><ele>293.5</ele><time>2026-04-03T16:16:06.996Z</time></trkpt><trkpt lat="43.6105866" lon="11.3147622"><ele>293.75</ele><time>2026-04-03T16:16:07.997Z</time></trkpt><trkpt lat="43.6106802" lon="11.3148587"><ele>294.0</ele><time>2026-04-03T16:16:08.995Z</time></trkpt><trkpt lat="43.6107746" lon="11.314954"><ele>297.0</ele><time>2026-04-03T16:16:09.998Z</time></trkpt><trkpt lat="43.6108738" lon="11.315041"><ele>300.0</ele><time>2026-04-03T16:16:10.983Z</time></trkpt><trkpt lat="43.6109771" lon="11.3151306"><ele>303.0</ele><time>2026-04-03T16:16:11.988Z</time></trkpt><trkpt lat="43.6110715" lon="11.3152277"><ele>306.0</ele><time>2026-04-03T16:16:13.002Z</time></trkpt><trkpt lat="43.611163" lon="11.3153265"><ele>306.75</ele><time>2026-04-03T16:16:13.997Z</time></trkpt><trkpt lat="43.6112648" lon="11.3154063"><ele>307.5</ele><time>2026-04-03T16:16:14.991Z</time></trkpt><trkpt lat="43.6113801" lon="11.3154626"><ele>308.25</ele><time>2026-04-03T16:16:15.998Z</time></trkpt><trkpt lat="43.6114967" lon="11.315514"><ele>309.0</ele><time>2026-04-03T16:16:16.99Z</time></trkpt><trkpt lat="43.6116141" lon="11.3155643"><ele>310.5</ele><time>2026-04-03T16:16:17.993Z</time></trkpt><trkpt lat="43.6117278" lon="11.3156265"><ele>312.0</ele><time>2026-04-03T16:16:18.993Z</time></trkpt><trkpt lat="43.6118414" lon="11.3156969"><ele>313.5</ele><time>2026-04-03T16:16:19.995Z</time></trkpt><trkpt lat="43.6119492" lon="11.3157778"><ele>315.0</ele><time>2026-04-03T16:16:20.988Z</time></trkpt><trkpt lat="43.6120495" lon="11.3158429"><ele>315.8</ele><time>2026-04-03T16:16:21.994Z</time></trkpt><trkpt lat="43.6121467" lon="11.3158838"><ele>316.6</ele><time>2026-04-03T16:16:23.002Z</time></trkpt><trkpt lat="43.6122463" lon="11.3159129"><ele>317.4</ele><time>2026-04-03T16:16:23.976Z</time></trkpt><trkpt lat="43.6123449" lon="11.3159286"><ele>318.2</ele><time>2026-04-03T16:16:24.996Z</time></trkpt><trkpt lat="43.6124476" lon="11.3159408"><ele>319.0</ele><time>2026-04-03T16:16:25.986Z</time></trkpt><trkpt lat="43.6125535" lon="11.3159557"><ele>319.0</ele><time>2026-04-03T16:16:26.988Z</time></trkpt><trkpt lat="43.6126591" lon="11.315973"><ele>319.0</ele><time>2026-04-03T16:16:27.993Z</time></trkpt><trkpt lat="43.6127715" lon="11.3159958"><ele>319.0</ele><time>2026-04-03T16:16:28.995Z</time></trkpt><trkpt lat="43.6128834" lon="11.3160226"><ele>319.0</ele><time>2026-04-03T16:16:29.995Z</time></trkpt><trkpt lat="43.613001" lon="11.3160582"><ele>320.5</ele><time>2026-04-03T16:16:30.99Z</time></trkpt><trkpt lat="43.6131223" lon="11.316102"><ele>322.0</ele><time>2026-04-03T16:16:32Z</time></trkpt><trkpt lat="43.6132523" lon="11.3161447"><ele>323.5</ele><time>2026-04-03T16:16:32.99Z</time></trkpt><trkpt lat="43.6133833" lon="11.3161733"><ele>325.0</ele><time>2026-04-03T16:16:34.005Z</time></trkpt><trkpt lat="43.6135121" lon="11.3162099"><ele>325.0</ele><time>2026-04-03T16:16:34.986Z</time></trkpt><trkpt lat="43.6136399" lon="11.3162413"><ele>325.0</ele><time>2026-04-03T16:16:35.999Z</time></trkpt><trkpt lat="43.6137682" lon="11.316271"><ele>325.0</ele><time>2026-04-03T16:16:36.995Z</time></trkpt><trkpt lat="43.6138957" lon="11.3163042"><ele>325.0</ele><time>2026-04-03T16:16:37.993Z</time></trkpt><trkpt lat="43.6140233" lon="11.3163279"><ele>327.25</ele><time>2026-04-03T16:16:38.996Z</time></trkpt><trkpt lat="43.6141531" lon="11.3163382"><ele>329.5</ele><time>2026-04-03T16:16:39.988Z</time></trkpt><trkpt lat="43.614285" lon="11.3163321"><ele>331.75</ele><time>2026-04-03T16:16:40.99Z</time></trkpt><trkpt lat="43.6144264" lon="11.3163199"><ele>334.0</ele><time>2026-04-03T16:16:41.988Z</time></trkpt><trkpt lat="43.6145668" lon="11.3163283"><ele>335.75</ele><time>2026-04-03T16:16:42.986Z</time></trkpt><trkpt lat="43.6147032" lon="11.3163549"><ele>337.5</ele><time>2026-04-03T16:16:44.001Z</time></trkpt><trkpt lat="43.6148378" lon="11.3163814"><ele>339.25</ele><time>2026-04-03T16:16:44.992Z</time></trkpt><trkpt lat="43.6149669" lon="11.3164036"><ele>341.0</ele><time>2026-04-03T16:16:45.994Z</time></trkpt><trkpt lat="43.6150961" lon="11.3164128"><ele>341.0</ele><time>2026-04-03T16:16:46.985Z</time></trkpt><trkpt lat="43.6152242" lon="11.3164078"><ele>341.0</ele><time>2026-04-03T16:16:47.99Z</time></trkpt><trkpt lat="43.6153566" lon="11.3163912"><ele>341.0</ele><time>2026-04-03T16:16:48.991Z</time></trkpt><trkpt lat="43.6154925" lon="11.3163823"><ele>341.0</ele><time>2026-04-03T16:16:49.995Z</time></trkpt><trkpt lat="43.615623" lon="11.3164015"><ele>344.75</ele><time>2026-04-03T16:16:50.975Z</time></trkpt><trkpt lat="43.6157466" lon="11.3164485"><ele>348.5</ele><time>2026-04-03T16:16:51.981Z</time></trkpt><trkpt lat="43.6158618" lon="11.3165093"><ele>352.25</ele><time>2026-04-03T16:16:52.992Z</time></trkpt><trkpt lat="43.6159579" lon="11.3165853"><ele>356.0</ele><time>2026-04-03T16:16:53.993Z</time></trkpt><trkpt lat="43.6160524" lon="11.3166533"><ele>356.0</ele><time>2026-04-03T16:16:54.981Z</time></trkpt><trkpt lat="43.6161479" lon="11.3166976"><ele>356.0</ele><time>2026-04-03T16:16:56.004Z</time></trkpt><trkpt lat="43.616235" lon="11.316719"><ele>356.0</ele><time>2026-04-03T16:16:56.98Z</time></trkpt><trkpt lat="43.6163057" lon="11.316742"><ele>356.0</ele><time>2026-04-03T16:16:57.991Z</time></trkpt><trkpt lat="43.6163992" lon="11.3167954"><ele>356.0</ele><time>2026-04-03T16:16:59.998Z</time></trkpt><trkpt lat="43.6164743" lon="11.3168795"><ele>356.75</ele><time>2026-04-03T16:17:01.992Z</time></trkpt><trkpt lat="43.6165483" lon="11.3170007"><ele>357.5</ele><time>2026-04-03T16:17:03.999Z</time></trkpt><trkpt lat="43.6166207" lon="11.3171227"><ele>358.25</ele><time>2026-04-03T16:17:06.001Z</time></trkpt><trkpt lat="43.6166849" lon="11.3172171"><ele>359.0</ele><time>2026-04-03T16:17:07.983Z</time></trkpt><trkpt lat="43.6167725" lon="11.3173463"><ele>359.33333333333337</ele><time>2026-04-03T16:17:10.001Z</time></trkpt><trkpt lat="43.6168263" lon="11.3174333"><ele>359.6666666666667</ele><time>2026-04-03T16:17:10.995Z</time></trkpt><trkpt lat="43.6168907" lon="11.3175345"><ele>360.0</ele><time>2026-04-03T16:17:12.015Z</time></trkpt><trkpt lat="43.6169597" lon="11.317634"><ele>360.3333333333333</ele><time>2026-04-03T16:17:12.984Z</time></trkpt><trkpt lat="43.6170347" lon="11.3177086"><ele>360.66666666666663</ele><time>2026-04-03T16:17:14.019Z</time></trkpt><trkpt lat="43.6170972" lon="11.3177456"><ele>361.0</ele><time>2026-04-03T16:17:14.982Z</time></trkpt><trkpt lat="43.6171946" lon="11.3178031"><ele>361.0</ele><time>2026-04-03T16:17:16.994Z</time></trkpt><trkpt lat="43.6172843" lon="11.3178238"><ele>361.0</ele><time>2026-04-03T16:17:18.987Z</time></trkpt><trkpt lat="43.6174185" lon="11.3178665"><ele>361.0</ele><time>2026-04-03T16:17:20.999Z</time></trkpt><trkpt lat="43.6175126" lon="11.317934"><ele>361.0</ele><time>2026-04-03T16:17:21.993Z</time></trkpt><trkpt lat="43.6176216" lon="11.3180369"><ele>361.25</ele><time>2026-04-03T16:17:22.991Z</time></trkpt><trkpt lat="43.6177402" lon="11.3181417"><ele>361.5</ele><time>2026-04-03T16:17:23.997Z</time></trkpt><trkpt lat="43.6178515" lon="11.3182254"><ele>361.75</ele><time>2026-04-03T16:17:25.002Z</time></trkpt><trkpt lat="43.6179532" lon="11.3183008"><ele>362.0</ele><time>2026-04-03T16:17:25.998Z</time></trkpt><trkpt lat="43.6180475" lon="11.3183733"><ele>362.0</ele><time>2026-04-03T16:17:26.992Z</time></trkpt><trkpt lat="43.6181449" lon="11.3184589"><ele>362.0</ele><time>2026-04-03T16:17:28.003Z</time></trkpt><trkpt lat="43.6182431" lon="11.3185736"><ele>362.0</ele><time>2026-04-03T16:17:28.989Z</time></trkpt><trkpt lat="43.6183404" lon="11.3187019"><ele>362.0</ele><time>2026-04-03T16:17:29.994Z</time></trkpt><trkpt lat="43.6184322" lon="11.3188303"><ele>361.0</ele><time>2026-04-03T16:17:30.985Z</time></trkpt><trkpt lat="43.6185164" lon="11.3189464"><ele>360.0</ele><time>2026-04-03T16:17:31.998Z</time></trkpt><trkpt lat="43.6186015" lon="11.3190497"><ele>359.0</ele><time>2026-04-03T16:17:32.996Z</time></trkpt><trkpt lat="43.6186875" lon="11.319152"><ele>358.0</ele><time>2026-04-03T16:17:34.007Z</time></trkpt><trkpt lat="43.6187648" lon="11.3192516"><ele>357.79999999999995</ele><time>2026-04-03T16:17:34.99Z</time></trkpt><trkpt lat="43.6188436" lon="11.3193445"><ele>357.6</ele><time>2026-04-03T16:17:35.992Z</time></trkpt><trkpt lat="43.6189228" lon="11.319436"><ele>357.4</ele><time>2026-04-03T16:17:36.989Z</time></trkpt><trkpt lat="43.6190002" lon="11.3195302"><ele>357.20000000000005</ele><time>2026-04-03T16:17:37.994Z</time></trkpt><trkpt lat="43.6190706" lon="11.3196222"><ele>357.0</ele><time>2026-04-03T16:17:38.985Z</time></trkpt><trkpt lat="43.6191378" lon="11.319706"><ele>357.14285714285717</ele><time>2026-04-03T16:17:39.989Z</time></trkpt><trkpt lat="43.619199" lon="11.3197849"><ele>357.2857142857143</ele><time>2026-04-03T16:17:40.975Z</time></trkpt><trkpt lat="43.6192545" lon="11.3198565"><ele>357.42857142857144</ele><time>2026-04-03T16:17:42.001Z</time></trkpt><trkpt lat="43.6193077" lon="11.3199282"><ele>357.57142857142856</ele><time>2026-04-03T16:17:42.992Z</time></trkpt><trkpt lat="43.6193558" lon="11.3199945"><ele>357.7142857142857</ele><time>2026-04-03T16:17:43.986Z</time></trkpt><trkpt lat="43.619407" lon="11.320059"><ele>357.8571428571429</ele><time>2026-04-03T16:17:44.996Z</time></trkpt><trkpt lat="43.6194638" lon="11.3201308"><ele>358.0</ele><time>2026-04-03T16:17:45.986Z</time></trkpt><trkpt lat="43.6195209" lon="11.3202061"><ele>358.0</ele><time>2026-04-03T16:17:46.979Z</time></trkpt><trkpt lat="43.6195818" lon="11.3202802"><ele>358.0</ele><time>2026-04-03T16:17:47.993Z</time></trkpt><trkpt lat="43.6196329" lon="11.3203593"><ele>358.0</ele><time>2026-04-03T16:17:48.988Z</time></trkpt><trkpt lat="43.6196764" lon="11.320446"><ele>358.0</ele><time>2026-04-03T16:17:49.987Z</time></trkpt><trkpt lat="43.6197107" lon="11.3205289"><ele>358.0</ele><time>2026-04-03T16:17:50.989Z</time></trkpt><trkpt lat="43.6197565" lon="11.3206703"><ele>358.0</ele><time>2026-04-03T16:17:52.992Z</time></trkpt><trkpt lat="43.6198038" lon="11.3207887"><ele>358.25</ele><time>2026-04-03T16:17:54.984Z</time></trkpt><trkpt lat="43.6198509" lon="11.3209229"><ele>358.5</ele><time>2026-04-03T16:17:56.995Z</time></trkpt><trkpt lat="43.61991" lon="11.3210712"><ele>358.75</ele><time>2026-04-03T16:17:58.991Z</time></trkpt><trkpt lat="43.6199902" lon="11.3211899"><ele>359.0</ele><time>2026-04-03T16:18:00.995Z</time></trkpt><trkpt lat="43.6201061" lon="11.3211959"><ele>359.0</ele><time>2026-04-03T16:18:03.007Z</time></trkpt><trkpt lat="43.6202023" lon="11.3211255"><ele>359.0</ele><time>2026-04-03T16:18:04.987Z</time></trkpt><trkpt lat="43.620285" lon="11.3210714"><ele>359.0</ele><time>2026-04-03T16:18:06.982Z</time></trkpt><trkpt lat="43.620368" lon="11.3210368"><ele>359.0</ele><time>2026-04-03T16:18:08.981Z</time></trkpt><trkpt lat="43.6204747" lon="11.3209754"><ele>359.0</ele><time>2026-04-03T16:18:10.983Z</time></trkpt><trkpt lat="43.6205847" lon="11.3209205"><ele>357.5</ele><time>2026-04-03T16:18:12.992Z</time></trkpt><trkpt lat="43.6206985" lon="11.320858"><ele>356.0</ele><time>2026-04-03T16:18:14.992Z</time></trkpt><trkpt lat="43.6207674" lon="11.3208265"><ele>354.5</ele><time>2026-04-03T16:18:15.994Z</time></trkpt><trkpt lat="43.6208427" lon="11.3208003"><ele>353.0</ele><time>2026-04-03T16:18:16.981Z</time></trkpt><trkpt lat="43.6209252" lon="11.3207782"><ele>351.5</ele><time>2026-04-03T16:18:17.985Z</time></trkpt><trkpt lat="43.6210125" lon="11.3207647"><ele>350.0</ele><time>2026-04-03T16:18:18.978Z</time></trkpt><trkpt lat="43.6211038" lon="11.3207506"><ele>347.5</ele><time>2026-04-03T16:18:19.988Z</time></trkpt><trkpt lat="43.6211951" lon="11.3207393"><ele>345.0</ele><time>2026-04-03T16:18:20.985Z</time></trkpt><trkpt lat="43.6212859" lon="11.3207275"><ele>342.5</ele><time>2026-04-03T16:18:22.003Z</time></trkpt><trkpt lat="43.6213708" lon="11.3207163"><ele>340.0</ele><time>2026-04-03T16:18:22.996Z</time></trkpt><trkpt lat="43.6214453" lon="11.3207195"><ele>337.5</ele><time>2026-04-03T16:18:24.006Z</time></trkpt><trkpt lat="43.6215109" lon="11.3207575"><ele>335.0</ele><time>2026-04-03T16:18:24.987Z</time></trkpt><trkpt lat="43.6215684" lon="11.3208182"><ele>334.99999999999994</ele><time>2026-04-03T16:18:25.991Z</time></trkpt><trkpt lat="43.6216164" lon="11.3208984"><ele>335.0</ele><time>2026-04-03T16:18:26.994Z</time></trkpt><trkpt lat="43.621642" lon="11.3209844"><ele>335.0</ele><time>2026-04-03T16:18:27.988Z</time></trkpt><trkpt lat="43.6216545" lon="11.3210793"><ele>335.0</ele><time>2026-04-03T16:18:28.986Z</time></trkpt><trkpt lat="43.6216639" lon="11.3211725"><ele>335.0</ele><time>2026-04-03T16:18:29.988Z</time></trkpt><trkpt lat="43.6216944" lon="11.3212488"><ele>334.99999999999994</ele><time>2026-04-03T16:18:30.994Z</time></trkpt><trkpt lat="43.6217712" lon="11.3213349"><ele>335.0</ele><time>2026-04-03T16:18:32.987Z</time></trkpt><trkpt lat="43.6218495" lon="11.3213303"><ele>335.0</ele><time>2026-04-03T16:18:35.99Z</time></trkpt><trkpt lat="43.6219104" lon="11.3212998"><ele>335.0</ele><time>2026-04-03T16:18:39.979Z</time></trkpt><trkpt lat="43.6220028" lon="11.3212577"><ele>335.0</ele><time>2026-04-03T16:18:42.982Z</time></trkpt><trkpt lat="43.6220733" lon="11.3211779"><ele>335.0</ele><time>2026-04-03T16:18:44.992Z</time></trkpt><trkpt lat="43.6221683" lon="11.3210861"><ele>335.0</ele><time>2026-04-03T16:18:46.975Z</time></trkpt><trkpt lat="43.6222382" lon="11.3209454"><ele>335.2</ele><time>2026-04-03T16:18:48.984Z</time></trkpt><trkpt lat="43.6222747" lon="11.3208547"><ele>335.4</ele><time>2026-04-03T16:18:49.978Z</time></trkpt><trkpt lat="43.6223175" lon="11.3207466"><ele>335.6</ele><time>2026-04-03T16:18:50.979Z</time></trkpt><trkpt lat="43.6223662" lon="11.32062"><ele>335.8</ele><time>2026-04-03T16:18:52.003Z</time></trkpt><trkpt lat="43.6224146" lon="11.3204857"><ele>336.0</ele><time>2026-04-03T16:18:52.983Z</time></trkpt><trkpt lat="43.6224498" lon="11.3203456"><ele>334.5</ele><time>2026-04-03T16:18:53.986Z</time></trkpt><trkpt lat="43.6224742" lon="11.3202113"><ele>333.0</ele><time>2026-04-03T16:18:54.992Z</time></trkpt><trkpt lat="43.6224998" lon="11.3200915"><ele>331.5</ele><time>2026-04-03T16:18:55.983Z</time></trkpt><trkpt lat="43.6225313" lon="11.3199754"><ele>330.0</ele><time>2026-04-03T16:18:56.985Z</time></trkpt><trkpt lat="43.6225619" lon="11.3198659"><ele>328.5</ele><time>2026-04-03T16:18:57.988Z</time></trkpt><trkpt lat="43.6225981" lon="11.3197653"><ele>327.0</ele><time>2026-04-03T16:18:58.991Z</time></trkpt><trkpt lat="43.6226472" lon="11.319668"><ele>325.8</ele><time>2026-04-03T16:18:59.987Z</time></trkpt><trkpt lat="43.6227006" lon="11.3195848"><ele>324.6</ele><time>2026-04-03T16:19:00.988Z</time></trkpt><trkpt lat="43.6227556" lon="11.3195249"><ele>323.40000000000003</ele><time>2026-04-03T16:19:01.996Z</time></trkpt><trkpt lat="43.6228733" lon="11.3194826"><ele>322.20000000000005</ele><time>2026-04-03T16:19:04Z</time></trkpt><trkpt lat="43.6229742" lon="11.31954"><ele>321.0</ele><time>2026-04-03T16:19:05.994Z</time></trkpt><trkpt lat="43.6230727" lon="11.3196652"><ele>320.99999999999994</ele><time>2026-04-03T16:19:07.987Z</time></trkpt><trkpt lat="43.6231324" lon="11.3197177"><ele>321.0</ele><time>2026-04-03T16:19:08.988Z</time></trkpt><trkpt lat="43.6231978" lon="11.3197558"><ele>321.0</ele><time>2026-04-03T16:19:09.987Z</time></trkpt><trkpt lat="43.623265" lon="11.3197811"><ele>321.0</ele><time>2026-04-03T16:19:10.985Z</time></trkpt><trkpt lat="43.6233355" lon="11.3198005"><ele>321.0</ele><time>2026-04-03T16:19:12Z</time></trkpt><trkpt lat="43.6234138" lon="11.3198227"><ele>320.99999999999994</ele><time>2026-04-03T16:19:12.989Z</time></trkpt><trkpt lat="43.6234944" lon="11.3198345"><ele>321.0</ele><time>2026-04-03T16:19:13.99Z</time></trkpt><trkpt lat="43.6235814" lon="11.3198294"><ele>324.20000000000005</ele><time>2026-04-03T16:19:14.978Z</time></trkpt><trkpt lat="43.6236682" lon="11.3197987"><ele>327.40000000000003</ele><time>2026-04-03T16:19:15.995Z</time></trkpt><trkpt lat="43.623735" lon="11.3197368"><ele>330.6</ele><time>2026-04-03T16:19:16.99Z</time></trkpt><trkpt lat="43.6238024" lon="11.3196626"><ele>333.8</ele><time>2026-04-03T16:19:17.991Z</time></trkpt><trkpt lat="43.6238599" lon="11.3195721"><ele>337.0</ele><time>2026-04-03T16:19:18.986Z</time></trkpt><trkpt lat="43.6239506" lon="11.3194643"><ele>337.0</ele><time>2026-04-03T16:19:20.984Z</time></trkpt><trkpt lat="43.6240593" lon="11.3194167"><ele>337.0</ele><time>2026-04-03T16:19:22.987Z</time></trkpt><trkpt lat="43.6241687" lon="11.3194366"><ele>337.0</ele><time>2026-04-03T16:19:24.986Z</time></trkpt><trkpt lat="43.6242468" lon="11.3195465"><ele>337.0</ele><time>2026-04-03T16:19:26.98Z</time></trkpt><trkpt lat="43.6242687" lon="11.319698"><ele>337.0</ele><time>2026-04-03T16:19:28.983Z</time></trkpt><trkpt lat="43.6242699" lon="11.3197871"><ele>339.5</ele><time>2026-04-03T16:19:29.98Z</time></trkpt><trkpt lat="43.6242726" lon="11.3198791"><ele>342.0</ele><time>2026-04-03T16:19:30.981Z</time></trkpt><trkpt lat="43.6242797" lon="11.319973"><ele>344.5</ele><time>2026-04-03T16:19:31.987Z</time></trkpt><trkpt lat="43.6242936" lon="11.320112"><ele>347.0</ele><time>2026-04-03T16:19:34Z</time></trkpt><trkpt lat="43.6243167" lon="11.3202346"><ele>349.5</ele><time>2026-04-03T16:19:35.988Z</time></trkpt><trkpt lat="43.6243612" lon="11.3203799"><ele>352.0</ele><time>2026-04-03T16:19:37.979Z</time></trkpt><trkpt lat="43.6244123" lon="11.3205369"><ele>352.66666666666663</ele><time>2026-04-03T16:19:39.989Z</time></trkpt><trkpt lat="43.6244336" lon="11.3206281"><ele>353.3333333333333</ele><time>2026-04-03T16:19:40.982Z</time></trkpt><trkpt lat="43.6244571" lon="11.3207314"><ele>354.0</ele><time>2026-04-03T16:19:41.993Z</time></trkpt><trkpt lat="43.6244947" lon="11.320835"><ele>354.6666666666667</ele><time>2026-04-03T16:19:42.987Z</time></trkpt><trkpt lat="43.6245291" lon="11.3209401"><ele>355.33333333333337</ele><time>2026-04-03T16:19:43.992Z</time></trkpt><trkpt lat="43.6245667" lon="11.3210407"><ele>356.0</ele><time>2026-04-03T16:19:44.987Z</time></trkpt><trkpt lat="43.6246057" lon="11.3211451"><ele>356.0</ele><time>2026-04-03T16:19:45.982Z</time></trkpt><trkpt lat="43.6246412" lon="11.3212528"><ele>356.0</ele><time>2026-04-03T16:19:46.98Z</time></trkpt><trkpt lat="43.6246784" lon="11.3213705"><ele>356.0</ele><time>2026-04-03T16:19:47.994Z</time></trkpt><trkpt lat="43.624715" lon="11.3214821"><ele>356.0</ele><time>2026-04-03T16:19:48.987Z</time></trkpt><trkpt lat="43.6247488" lon="11.321594"><ele>356.0</ele><time>2026-04-03T16:19:49.986Z</time></trkpt><trkpt lat="43.6247835" lon="11.3217041"><ele>356.0</ele><time>2026-04-03T16:19:50.982Z</time></trkpt><trkpt lat="43.6248186" lon="11.3218175"><ele>357.5</ele><time>2026-04-03T16:19:51.994Z</time></trkpt><trkpt lat="43.6248557" lon="11.3219171"><ele>359.0</ele><time>2026-04-03T16:19:52.984Z</time></trkpt><trkpt lat="43.6249003" lon="11.322007"><ele>360.5</ele><time>2026-04-03T16:19:53.989Z</time></trkpt><trkpt lat="43.624955" lon="11.3220793"><ele>362.0</ele><time>2026-04-03T16:19:54.986Z</time></trkpt><trkpt lat="43.6250119" lon="11.322141"><ele>363.5</ele><time>2026-04-03T16:19:55.997Z</time></trkpt><trkpt lat="43.6250684" lon="11.3221955"><ele>365.0</ele><time>2026-04-03T16:19:56.979Z</time></trkpt><trkpt lat="43.6251734" lon="11.322252"><ele>365.0</ele><time>2026-04-03T16:19:58.991Z</time></trkpt><trkpt lat="43.6252507" lon="11.3221764"><ele>365.0</ele><time>2026-04-03T16:20:00.989Z</time></trkpt><trkpt lat="43.6252462" lon="11.3220331"><ele>365.0</ele><time>2026-04-03T16:20:02.99Z</time></trkpt><trkpt lat="43.6252141" lon="11.3218724"><ele>365.0</ele><time>2026-04-03T16:20:04.988Z</time></trkpt><trkpt lat="43.6252114" lon="11.3217755"><ele>365.0</ele><time>2026-04-03T16:20:05.99Z</time></trkpt><trkpt lat="43.625214" lon="11.3216592"><ele>365.0</ele><time>2026-04-03T16:20:06.984Z</time></trkpt><trkpt lat="43.6252277" lon="11.3215385"><ele>365.0</ele><time>2026-04-03T16:20:07.986Z</time></trkpt><trkpt lat="43.6252565" lon="11.3214138"><ele>365.0</ele><time>2026-04-03T16:20:08.984Z</time></trkpt><trkpt lat="43.625303" lon="11.3212876"><ele>365.0</ele><time>2026-04-03T16:20:09.984Z</time></trkpt><trkpt lat="43.625345" lon="11.3211583"><ele>365.0</ele><time>2026-04-03T16:20:10.971Z</time></trkpt><trkpt lat="43.6253882" lon="11.3210359"><ele>364.4</ele><time>2026-04-03T16:20:11.993Z</time></trkpt><trkpt lat="43.6254336" lon="11.3209112"><ele>363.8</ele><time>2026-04-03T16:20:12.984Z</time></trkpt><trkpt lat="43.6254758" lon="11.3207736"><ele>363.20000000000005</ele><time>2026-04-03T16:20:13.999Z</time></trkpt><trkpt lat="43.6255155" lon="11.3206403"><ele>362.6</ele><time>2026-04-03T16:20:14.99Z</time></trkpt><trkpt lat="43.6255506" lon="11.3205149"><ele>362.0</ele><time>2026-04-03T16:20:15.992Z</time></trkpt><trkpt lat="43.6255805" lon="11.3203968"><ele>362.0</ele><time>2026-04-03T16:20:16.981Z</time></trkpt><trkpt lat="43.6256063" lon="11.3202815"><ele>362.0</ele><time>2026-04-03T16:20:17.989Z</time></trkpt><trkpt lat="43.6256358" lon="11.3201798"><ele>362.0</ele><time>2026-04-03T16:20:18.985Z</time></trkpt><trkpt lat="43.6256685" lon="11.3200787"><ele>362.0</ele><time>2026-04-03T16:20:20.005Z</time></trkpt><trkpt lat="43.625712" lon="11.3199828"><ele>362.0</ele><time>2026-04-03T16:20:20.983Z</time></trkpt><trkpt lat="43.6257589" lon="11.3199058"><ele>362.0</ele><time>2026-04-03T16:20:21.994Z</time></trkpt><trkpt lat="43.6258171" lon="11.3198678"><ele>362.0</ele><time>2026-04-03T16:20:22.977Z</time></trkpt><trkpt lat="43.625881" lon="11.3198627"><ele>362.0</ele><time>2026-04-03T16:20:23.982Z</time></trkpt><trkpt lat="43.6259456" lon="11.3198877"><ele>362.0</ele><time>2026-04-03T16:20:24.987Z</time></trkpt><trkpt lat="43.6260044" lon="11.3199329"><ele>362.0</ele><time>2026-04-03T16:20:25.997Z</time></trkpt><trkpt lat="43.6260487" lon="11.3199971"><ele>362.0</ele><time>2026-04-03T16:20:26.994Z</time></trkpt><trkpt lat="43.6260913" lon="11.3200827"><ele>362.0</ele><time>2026-04-03T16:20:28.001Z</time></trkpt><trkpt lat="43.6261293" lon="11.3201827"><ele>362.0</ele><time>2026-04-03T16:20:28.992Z</time></trkpt><trkpt lat="43.6261663" lon="11.3202872"><ele>362.6666666666667</ele><time>2026-04-03T16:20:30.004Z</time></trkpt><trkpt lat="43.6261997" lon="11.3203903"><ele>363.33333333333337</ele><time>2026-04-03T16:20:30.98Z</time></trkpt><trkpt lat="43.6262296" lon="11.3204888"><ele>364.0</ele><time>2026-04-03T16:20:31.993Z</time></trkpt><trkpt lat="43.6262605" lon="11.3205846"><ele>364.6666666666667</ele><time>2026-04-03T16:20:32.996Z</time></trkpt><trkpt lat="43.6262916" lon="11.3206802"><ele>365.3333333333333</ele><time>2026-04-03T16:20:34.001Z</time></trkpt><trkpt lat="43.6263284" lon="11.3207816"><ele>366.0</ele><time>2026-04-03T16:20:35Z</time></trkpt><trkpt lat="43.6263732" lon="11.3208802"><ele>366.0</ele><time>2026-04-03T16:20:36.004Z</time></trkpt><trkpt lat="43.62642" lon="11.3209711"><ele>366.0</ele><time>2026-04-03T16:20:36.986Z</time></trkpt><trkpt lat="43.6264647" lon="11.3210628"><ele>366.0</ele><time>2026-04-03T16:20:37.999Z</time></trkpt><trkpt lat="43.6264987" lon="11.3211616"><ele>366.0</ele><time>2026-04-03T16:20:38.992Z</time></trkpt><trkpt lat="43.6265286" lon="11.3212656"><ele>366.0</ele><time>2026-04-03T16:20:39.99Z</time></trkpt><trkpt lat="43.6265682" lon="11.3213637"><ele>366.0</ele><time>2026-04-03T16:20:40.987Z</time></trkpt><trkpt lat="43.6266182" lon="11.3214664"><ele>367.6666666666667</ele><time>2026-04-03T16:20:41.998Z</time></trkpt><trkpt lat="43.62668" lon="11.3215556"><ele>369.3333333333333</ele><time>2026-04-03T16:20:42.981Z</time></trkpt><trkpt lat="43.6267467" lon="11.321642"><ele>371.0</ele><time>2026-04-03T16:20:43.995Z</time></trkpt><trkpt lat="43.626803" lon="11.3217225"><ele>372.66666666666663</ele><time>2026-04-03T16:20:44.993Z</time></trkpt><trkpt lat="43.6268487" lon="11.3217983"><ele>374.3333333333333</ele><time>2026-04-03T16:20:45.995Z</time></trkpt><trkpt lat="43.6268956" lon="11.3218578"><ele>376.0</ele><time>2026-04-03T16:20:46.977Z</time></trkpt><trkpt lat="43.6269922" lon="11.321911"><ele>376.66666666666663</ele><time>2026-04-03T16:20:48.988Z</time></trkpt><trkpt lat="43.6270749" lon="11.3218446"><ele>377.3333333333333</ele><time>2026-04-03T16:20:50.99Z</time></trkpt><trkpt lat="43.6271029" lon="11.3216913"><ele>378.0</ele><time>2026-04-03T16:20:52.979Z</time></trkpt><trkpt lat="43.6271014" lon="11.3216005"><ele>378.6666666666667</ele><time>2026-04-03T16:20:53.996Z</time></trkpt><trkpt lat="43.6270988" lon="11.3215025"><ele>379.33333333333337</ele><time>2026-04-03T16:20:54.982Z</time></trkpt><trkpt lat="43.6271018" lon="11.321403"><ele>380.0</ele><time>2026-04-03T16:20:55.998Z</time></trkpt><trkpt lat="43.6271102" lon="11.3213057"><ele>377.8</ele><time>2026-04-03T16:20:56.986Z</time></trkpt><trkpt lat="43.6271211" lon="11.3212163"><ele>375.6</ele><time>2026-04-03T16:20:58.008Z</time></trkpt><trkpt lat="43.627185" lon="11.3211142"><ele>373.4</ele><time>2026-04-03T16:21:00Z</time></trkpt><trkpt lat="43.6272939" lon="11.3211444"><ele>371.2</ele><time>2026-04-03T16:21:01.986Z</time></trkpt><trkpt lat="43.6273797" lon="11.3212346"><ele>369.0</ele><time>2026-04-03T16:21:03.996Z</time></trkpt><trkpt lat="43.6274478" lon="11.3213271"><ele>369.0</ele><time>2026-04-03T16:21:05.996Z</time></trkpt><trkpt lat="43.6275272" lon="11.3213885"><ele>369.0</ele><time>2026-04-03T16:21:07.996Z</time></trkpt><trkpt lat="43.6276198" lon="11.3214306"><ele>369.0</ele><time>2026-04-03T16:21:09.994Z</time></trkpt><trkpt lat="43.6277358" lon="11.3214287"><ele>369.0</ele><time>2026-04-03T16:21:11.997Z</time></trkpt><trkpt lat="43.6278358" lon="11.3213495"><ele>369.0</ele><time>2026-04-03T16:21:13.995Z</time></trkpt><trkpt lat="43.6278855" lon="11.3212876"><ele>371.1666666666667</ele><time>2026-04-03T16:21:14.982Z</time></trkpt><trkpt lat="43.6279265" lon="11.3211959"><ele>373.3333333333333</ele><time>2026-04-03T16:21:16.002Z</time></trkpt><trkpt lat="43.6279509" lon="11.3210986"><ele>375.5</ele><time>2026-04-03T16:21:16.978Z</time></trkpt><trkpt lat="43.6279708" lon="11.3209942"><ele>377.66666666666663</ele><time>2026-04-03T16:21:18.007Z</time></trkpt><trkpt lat="43.627998" lon="11.3208951"><ele>379.8333333333333</ele><time>2026-04-03T16:21:18.981Z</time></trkpt><trkpt lat="43.6280328" lon="11.3207998"><ele>382.0</ele><time>2026-04-03T16:21:19.994Z</time></trkpt><trkpt lat="43.6280712" lon="11.3206957"><ele>382.0</ele><time>2026-04-03T16:21:20.98Z</time></trkpt><trkpt lat="43.6281029" lon="11.3205896"><ele>382.0</ele><time>2026-04-03T16:21:21.999Z</time></trkpt><trkpt lat="43.628121" lon="11.3204786"><ele>382.0</ele><time>2026-04-03T16:21:22.988Z</time></trkpt><trkpt lat="43.6281302" lon="11.3203621"><ele>382.0</ele><time>2026-04-03T16:21:23.991Z</time></trkpt><trkpt lat="43.6281461" lon="11.3202429"><ele>382.0</ele><time>2026-04-03T16:21:24.997Z</time></trkpt><trkpt lat="43.6281727" lon="11.3201336"><ele>382.0</ele><time>2026-04-03T16:21:25.994Z</time></trkpt><trkpt lat="43.6282031" lon="11.3200404"><ele>381.8333333333333</ele><time>2026-04-03T16:21:26.986Z</time></trkpt><trkpt lat="43.6282504" lon="11.3199664"><ele>381.66666666666663</ele><time>2026-04-03T16:21:27.994Z</time></trkpt><trkpt lat="43.6283148" lon="11.3199212"><ele>381.5</ele><time>2026-04-03T16:21:28.989Z</time></trkpt><trkpt lat="43.6283867" lon="11.3199051"><ele>381.3333333333333</ele><time>2026-04-03T16:21:29.998Z</time></trkpt><trkpt lat="43.6284698" lon="11.3199021"><ele>381.1666666666667</ele><time>2026-04-03T16:21:30.983Z</time></trkpt><trkpt lat="43.628559" lon="11.3199097"><ele>381.0</ele><time>2026-04-03T16:21:31.996Z</time></trkpt><trkpt lat="43.6286434" lon="11.3199296"><ele>381.0</ele><time>2026-04-03T16:21:32.993Z</time></trkpt><trkpt lat="43.6287195" lon="11.3199598"><ele>381.0</ele><time>2026-04-03T16:21:33.985Z</time></trkpt><trkpt lat="43.6287864" lon="11.319987"><ele>381.0</ele><time>2026-04-03T16:21:34.99Z</time></trkpt><trkpt lat="43.6288946" lon="11.3200095"><ele>381.0</ele><time>2026-04-03T16:21:36.985Z</time></trkpt><trkpt lat="43.6289812" lon="11.3199335"><ele>381.0</ele><time>2026-04-03T16:21:38.975Z</time></trkpt><trkpt lat="43.6290194" lon="11.3197741"><ele>379.8333333333333</ele><time>2026-04-03T16:21:40.981Z</time></trkpt><trkpt lat="43.6290154" lon="11.3196731"><ele>378.6666666666667</ele><time>2026-04-03T16:21:42.002Z</time></trkpt><trkpt lat="43.6290022" lon="11.3195636"><ele>377.5</ele><time>2026-04-03T16:21:42.995Z</time></trkpt><trkpt lat="43.6289801" lon="11.3194478"><ele>376.33333333333337</ele><time>2026-04-03T16:21:44Z</time></trkpt><trkpt lat="43.6289565" lon="11.3193318"><ele>375.1666666666667</ele><time>2026-04-03T16:21:44.985Z</time></trkpt><trkpt lat="43.6289256" lon="11.3192204"><ele>374.0</ele><time>2026-04-03T16:21:45.995Z</time></trkpt><trkpt lat="43.6288985" lon="11.3191063"><ele>374.0</ele><time>2026-04-03T16:21:46.989Z</time></trkpt><trkpt lat="43.6288734" lon="11.3189871"><ele>374.0</ele><time>2026-04-03T16:21:47.986Z</time></trkpt><trkpt lat="43.6288553" lon="11.3188691"><ele>374.0</ele><time>2026-04-03T16:21:48.992Z</time></trkpt><trkpt lat="43.6288364" lon="11.3187496"><ele>374.0</ele><time>2026-04-03T16:21:49.989Z</time></trkpt><trkpt lat="43.6288157" lon="11.3186511"><ele>374.0</ele><time>2026-04-03T16:21:50.992Z</time></trkpt><trkpt lat="43.6287883" lon="11.3185595"><ele>374.0</ele><time>2026-04-03T16:21:52.006Z</time></trkpt><trkpt lat="43.6287556" lon="11.3184693"><ele>373.1428571428571</ele><time>2026-04-03T16:21:52.991Z</time></trkpt><trkpt lat="43.6287269" lon="11.3183774"><ele>372.28571428571433</ele><time>2026-04-03T16:21:53.995Z</time></trkpt><trkpt lat="43.6287041" lon="11.3182787"><ele>371.42857142857144</ele><time>2026-04-03T16:21:54.993Z</time></trkpt><trkpt lat="43.6286885" lon="11.3181797"><ele>370.57142857142856</ele><time>2026-04-03T16:21:56.001Z</time></trkpt><trkpt lat="43.6286867" lon="11.3180818"><ele>369.71428571428567</ele><time>2026-04-03T16:21:56.994Z</time></trkpt><trkpt lat="43.6286966" lon="11.3179811"><ele>368.8571428571429</ele><time>2026-04-03T16:21:57.994Z</time></trkpt><trkpt lat="43.6287271" lon="11.3178925"><ele>368.0</ele><time>2026-04-03T16:21:58.998Z</time></trkpt><trkpt lat="43.6287706" lon="11.3178088"><ele>366.14285714285717</ele><time>2026-04-03T16:21:59.992Z</time></trkpt><trkpt lat="43.62882" lon="11.3177412"><ele>364.2857142857143</ele><time>2026-04-03T16:22:00.991Z</time></trkpt><trkpt lat="43.6288789" lon="11.317682"><ele>362.42857142857144</ele><time>2026-04-03T16:22:01.995Z</time></trkpt><trkpt lat="43.6289491" lon="11.3176414"><ele>360.57142857142856</ele><time>2026-04-03T16:22:02.97Z</time></trkpt><trkpt lat="43.6290157" lon="11.3176164"><ele>358.7142857142857</ele><time>2026-04-03T16:22:03.993Z</time></trkpt><trkpt lat="43.6290859" lon="11.3176034"><ele>356.85714285714283</ele><time>2026-04-03T16:22:04.995Z</time></trkpt><trkpt lat="43.6291561" lon="11.3176096"><ele>355.0</ele><time>2026-04-03T16:22:05.994Z</time></trkpt><trkpt lat="43.6292251" lon="11.3176306"><ele>355.0</ele><time>2026-04-03T16:22:06.99Z</time></trkpt><trkpt lat="43.6292895" lon="11.3176746"><ele>355.0</ele><time>2026-04-03T16:22:08.004Z</time></trkpt><trkpt lat="43.6293503" lon="11.3177152"><ele>355.0</ele><time>2026-04-03T16:22:08.993Z</time></trkpt><trkpt lat="43.6294166" lon="11.3177436"><ele>355.0</ele><time>2026-04-03T16:22:10.003Z</time></trkpt><trkpt lat="43.6294869" lon="11.317749"><ele>355.0</ele><time>2026-04-03T16:22:10.986Z</time></trkpt><trkpt lat="43.6295566" lon="11.3177394"><ele>355.0</ele><time>2026-04-03T16:22:11.989Z</time></trkpt><trkpt lat="43.6296302" lon="11.3177149"><ele>355.0</ele><time>2026-04-03T16:22:12.997Z</time></trkpt><trkpt lat="43.6296991" lon="11.3176702"><ele>354.8</ele><time>2026-04-03T16:22:13.978Z</time></trkpt><trkpt lat="43.6297626" lon="11.317627"><ele>354.6</ele><time>2026-04-03T16:22:14.979Z</time></trkpt><trkpt lat="43.6298448" lon="11.3175154"><ele>354.4</ele><time>2026-04-03T16:22:16.98Z</time></trkpt><trkpt lat="43.6298593" lon="11.3173698"><ele>354.2</ele><time>2026-04-03T16:22:18.979Z</time></trkpt><trkpt lat="43.6298303" lon="11.3172302"><ele>354.0</ele><time>2026-04-03T16:22:20.987Z</time></trkpt><trkpt lat="43.62981" lon="11.3170977"><ele>354.0</ele><time>2026-04-03T16:22:22.988Z</time></trkpt><trkpt lat="43.6298611" lon="11.3169999"><ele>354.0</ele><time>2026-04-03T16:22:24.981Z</time></trkpt><trkpt lat="43.6299477" lon="11.316938"><ele>354.0</ele><time>2026-04-03T16:22:26.984Z</time></trkpt><trkpt lat="43.6300741" lon="11.3168976"><ele>354.0</ele><time>2026-04-03T16:22:28.998Z</time></trkpt><trkpt lat="43.6301337" lon="11.3168545"><ele>354.0</ele><time>2026-04-03T16:22:29.986Z</time></trkpt><trkpt lat="43.6301937" lon="11.3168043"><ele>354.0</ele><time>2026-04-03T16:22:30.986Z</time></trkpt><trkpt lat="43.6302461" lon="11.3167199"><ele>354.0</ele><time>2026-04-03T16:22:31.982Z</time></trkpt><trkpt lat="43.6302959" lon="11.3166209"><ele>354.0</ele><time>2026-04-03T16:22:32.986Z</time></trkpt><trkpt lat="43.6303335" lon="11.3165121"><ele>354.0</ele><time>2026-04-03T16:22:33.995Z</time></trkpt><trkpt lat="43.630354" lon="11.3163998"><ele>354.0</ele><time>2026-04-03T16:22:34.988Z</time></trkpt><trkpt lat="43.6303344" lon="11.3162436"><ele>354.1666666666667</ele><time>2026-04-03T16:22:36.982Z</time></trkpt><trkpt lat="43.6302475" lon="11.3161157"><ele>354.3333333333333</ele><time>2026-04-03T16:22:38.994Z</time></trkpt><trkpt lat="43.6301889" lon="11.3160559"><ele>354.5</ele><time>2026-04-03T16:22:39.991Z</time></trkpt><trkpt lat="43.6301409" lon="11.3159776"><ele>354.66666666666663</ele><time>2026-04-03T16:22:40.979Z</time></trkpt><trkpt lat="43.6301002" lon="11.3159041"><ele>354.8333333333333</ele><time>2026-04-03T16:22:42.011Z</time></trkpt><trkpt lat="43.6300636" lon="11.3158237"><ele>355.0</ele><time>2026-04-03T16:22:42.999Z</time></trkpt><trkpt lat="43.630022" lon="11.315738"><ele>355.0</ele><time>2026-04-03T16:22:43.999Z</time></trkpt><trkpt lat="43.6299834" lon="11.315653"><ele>355.0</ele><time>2026-04-03T16:22:44.98Z</time></trkpt><trkpt lat="43.6299347" lon="11.3155673"><ele>355.0</ele><time>2026-04-03T16:22:45.995Z</time></trkpt><trkpt lat="43.6298814" lon="11.3154861"><ele>355.0</ele><time>2026-04-03T16:22:46.991Z</time></trkpt><trkpt lat="43.629823" lon="11.3153892"><ele>355.0</ele><time>2026-04-03T16:22:47.993Z</time></trkpt><trkpt lat="43.6297536" lon="11.3152927"><ele>355.0</ele><time>2026-04-03T16:22:48.996Z</time></trkpt><trkpt lat="43.6296908" lon="11.3151813"><ele>355.8</ele><time>2026-04-03T16:22:49.992Z</time></trkpt><trkpt lat="43.6296257" lon="11.3150589"><ele>356.6</ele><time>2026-04-03T16:22:50.983Z</time></trkpt><trkpt lat="43.62956" lon="11.3149416"><ele>357.4</ele><time>2026-04-03T16:22:51.985Z</time></trkpt><trkpt lat="43.6294857" lon="11.3148257"><ele>358.2</ele><time>2026-04-03T16:22:52.985Z</time></trkpt><trkpt lat="43.6294181" lon="11.3146943"><ele>359.0</ele><time>2026-04-03T16:22:53.991Z</time></trkpt><trkpt lat="43.6293486" lon="11.3145812"><ele>359.0</ele><time>2026-04-03T16:22:54.985Z</time></trkpt><trkpt lat="43.6292915" lon="11.3144826"><ele>359.0</ele><time>2026-04-03T16:22:55.988Z</time></trkpt><trkpt lat="43.6292511" lon="11.314389"><ele>359.0</ele><time>2026-04-03T16:22:56.984Z</time></trkpt><trkpt lat="43.6292137" lon="11.3143008"><ele>359.0</ele><time>2026-04-03T16:22:57.993Z</time></trkpt><trkpt lat="43.6291785" lon="11.3142174"><ele>359.0</ele><time>2026-04-03T16:22:58.982Z</time></trkpt><trkpt lat="43.6291296" lon="11.3141189"><ele>359.0</ele><time>2026-04-03T16:22:59.983Z</time></trkpt><trkpt lat="43.6290794" lon="11.314"><ele>358.83333333333337</ele><time>2026-04-03T16:23:00.987Z</time></trkpt><trkpt lat="43.6290349" lon="11.3138902"><ele>358.6666666666667</ele><time>2026-04-03T16:23:01.992Z</time></trkpt><trkpt lat="43.6289962" lon="11.3137854"><ele>358.5</ele><time>2026-04-03T16:23:02.988Z</time></trkpt><trkpt lat="43.6289622" lon="11.313698"><ele>358.3333333333333</ele><time>2026-04-03T16:23:03.984Z</time></trkpt><trkpt lat="43.6289033" lon="11.3135485"><ele>358.16666666666663</ele><time>2026-04-03T16:23:05.988Z</time></trkpt><trkpt lat="43.6288745" lon="11.3134601"><ele>358.0</ele><time>2026-04-03T16:23:06.98Z</time></trkpt><trkpt lat="43.6288412" lon="11.3133702"><ele>358.0</ele><time>2026-04-03T16:23:08.001Z</time></trkpt><trkpt lat="43.6288019" lon="11.3132442"><ele>358.0</ele><time>2026-04-03T16:23:09.989Z</time></trkpt><trkpt lat="43.6288014" lon="11.3131509"><ele>358.0</ele><time>2026-04-03T16:23:12.992Z</time></trkpt><trkpt lat="43.6288673" lon="11.3131529"><ele>358.0</ele><time>2026-04-03T16:23:37.996Z</time></trkpt><trkpt lat="43.6289441" lon="11.313213"><ele>358.0</ele><time>2026-04-03T16:23:40.991Z</time></trkpt><trkpt lat="43.6290373" lon="11.313268"><ele>358.0</ele><time>2026-04-03T16:23:42.987Z</time></trkpt><trkpt lat="43.6291375" lon="11.3133484"><ele>358.0</ele><time>2026-04-03T16:23:44.991Z</time></trkpt><trkpt lat="43.6292461" lon="11.3134231"><ele>358.0</ele><time>2026-04-03T16:23:46.997Z</time></trkpt><trkpt lat="43.6293065" lon="11.3134666"><ele>358.0</ele><time>2026-04-03T16:23:48.006Z</time></trkpt><trkpt lat="43.6293636" lon="11.3135124"><ele>358.0</ele><time>2026-04-03T16:23:48.99Z</time></trkpt><trkpt lat="43.6294221" lon="11.31356"><ele>358.0</ele><time>2026-04-03T16:23:49.999Z</time></trkpt><trkpt lat="43.629522" lon="11.3136659"><ele>358.0</ele><time>2026-04-03T16:23:52.001Z</time></trkpt><trkpt lat="43.6295885" lon="11.3138158"><ele>358.3333333333333</ele><time>2026-04-03T16:23:53.996Z</time></trkpt><trkpt lat="43.6296242" lon="11.3138952"><ele>358.66666666666663</ele><time>2026-04-03T16:23:54.991Z</time></trkpt><trkpt lat="43.6296914" lon="11.3139999"><ele>359.0</ele><time>2026-04-03T16:23:56.995Z</time></trkpt><trkpt lat="43.6297557" lon="11.3140999"><ele>359.3333333333333</ele><time>2026-04-03T16:23:58.991Z</time></trkpt><trkpt lat="43.6298254" lon="11.3141983"><ele>359.6666666666667</ele><time>2026-04-03T16:24:00.982Z</time></trkpt><trkpt lat="43.6298775" lon="11.3142692"><ele>360.0</ele><time>2026-04-03T16:24:02.992Z</time></trkpt><trkpt lat="43.6299262" lon="11.3143639"><ele>360.0</ele><time>2026-04-03T16:24:05.994Z</time></trkpt><trkpt lat="43.6299669" lon="11.3144455"><ele>360.0</ele><time>2026-04-03T16:24:07.993Z</time></trkpt><trkpt lat="43.6300121" lon="11.3145548"><ele>360.0</ele><time>2026-04-03T16:24:09.992Z</time></trkpt><trkpt lat="43.6300713" lon="11.3146992"><ele>360.0</ele><time>2026-04-03T16:24:11.994Z</time></trkpt><trkpt lat="43.6301106" lon="11.3147839"><ele>360.0</ele><time>2026-04-03T16:24:12.985Z</time></trkpt><trkpt lat="43.6301564" lon="11.3148789"><ele>360.0</ele><time>2026-04-03T16:24:13.988Z</time></trkpt><trkpt lat="43.6302066" lon="11.3149852"><ele>360.4</ele><time>2026-04-03T16:24:14.984Z</time></trkpt><trkpt lat="43.6302532" lon="11.3150953"><ele>360.8</ele><time>2026-04-03T16:24:15.995Z</time></trkpt><trkpt lat="43.6303031" lon="11.315201"><ele>361.20000000000005</ele><time>2026-04-03T16:24:16.996Z</time></trkpt><trkpt lat="43.6303601" lon="11.3152991"><ele>361.6</ele><time>2026-04-03T16:24:17.996Z</time></trkpt><trkpt lat="43.6304219" lon="11.3153925"><ele>362.0</ele><time>2026-04-03T16:24:18.996Z</time></trkpt><trkpt lat="43.6304887" lon="11.3154731"><ele>362.6</ele><time>2026-04-03T16:24:19.984Z</time></trkpt><trkpt lat="43.6305637" lon="11.3155569"><ele>363.20000000000005</ele><time>2026-04-03T16:24:21.001Z</time></trkpt><trkpt lat="43.6306406" lon="11.3156355"><ele>363.8</ele><time>2026-04-03T16:24:21.991Z</time></trkpt><trkpt lat="43.6307313" lon="11.3157071"><ele>364.4</ele><time>2026-04-03T16:24:22.985Z</time></trkpt><trkpt lat="43.6308248" lon="11.3157797"><ele>365.0</ele><time>2026-04-03T16:24:24.007Z</time></trkpt><trkpt lat="43.6309121" lon="11.3158625"><ele>365.0</ele><time>2026-04-03T16:24:24.991Z</time></trkpt><trkpt lat="43.6309969" lon="11.3159451"><ele>365.0</ele><time>2026-04-03T16:24:25.994Z</time></trkpt><trkpt lat="43.6310748" lon="11.3160261"><ele>365.0</ele><time>2026-04-03T16:24:26.987Z</time></trkpt><trkpt lat="43.631139" lon="11.3161082"><ele>365.0</ele><time>2026-04-03T16:24:27.994Z</time></trkpt><trkpt lat="43.6311927" lon="11.3161776"><ele>365.0</ele><time>2026-04-03T16:24:28.987Z</time></trkpt><trkpt lat="43.6312405" lon="11.3162452"><ele>365.0</ele><time>2026-04-03T16:24:29.99Z</time></trkpt><trkpt lat="43.6312923" lon="11.3163943"><ele>365.33333333333337</ele><time>2026-04-03T16:24:31.993Z</time></trkpt><trkpt lat="43.6313111" lon="11.3164862"><ele>365.6666666666667</ele><time>2026-04-03T16:24:32.993Z</time></trkpt><trkpt lat="43.6313324" lon="11.3165936"><ele>366.0</ele><time>2026-04-03T16:24:33.999Z</time></trkpt><trkpt lat="43.6313504" lon="11.3167084"><ele>366.3333333333333</ele><time>2026-04-03T16:24:35Z</time></trkpt><trkpt lat="43.6313658" lon="11.3168343"><ele>366.66666666666663</ele><time>2026-04-03T16:24:35.989Z</time></trkpt><trkpt lat="43.6313863" lon="11.3169601"><ele>367.0</ele><time>2026-04-03T16:24:37Z</time></trkpt><trkpt lat="43.6314065" lon="11.317092"><ele>367.0</ele><time>2026-04-03T16:24:37.997Z</time></trkpt><trkpt lat="43.6314246" lon="11.3172314"><ele>367.0</ele><time>2026-04-03T16:24:38.993Z</time></trkpt><trkpt lat="43.6314424" lon="11.3173708"><ele>367.0</ele><time>2026-04-03T16:24:39.985Z</time></trkpt><trkpt lat="43.6314635" lon="11.3175082"><ele>367.0</ele><time>2026-04-03T16:24:40.978Z</time></trkpt><trkpt lat="43.6314853" lon="11.3176507"><ele>367.0</ele><time>2026-04-03T16:24:41.989Z</time></trkpt><trkpt lat="43.6315008" lon="11.3177921"><ele>368.6</ele><time>2026-04-03T16:24:42.99Z</time></trkpt><trkpt lat="43.6315186" lon="11.3179296"><ele>370.20000000000005</ele><time>2026-04-03T16:24:43.993Z</time></trkpt><trkpt lat="43.6315383" lon="11.3180613"><ele>371.8</ele><time>2026-04-03T16:24:44.991Z</time></trkpt><trkpt lat="43.6315572" lon="11.3181885"><ele>373.4</ele><time>2026-04-03T16:24:45.988Z</time></trkpt><trkpt lat="43.6315777" lon="11.3183175"><ele>375.0</ele><time>2026-04-03T16:24:46.995Z</time></trkpt><trkpt lat="43.6315955" lon="11.3184457"><ele>376.1666666666667</ele><time>2026-04-03T16:24:47.988Z</time></trkpt><trkpt lat="43.6316115" lon="11.3185711"><ele>377.3333333333333</ele><time>2026-04-03T16:24:48.996Z</time></trkpt><trkpt lat="43.6316209" lon="11.3186806"><ele>378.5</ele><time>2026-04-03T16:24:49.998Z</time></trkpt><trkpt lat="43.6316423" lon="11.318815"><ele>379.66666666666663</ele><time>2026-04-03T16:24:52.002Z</time></trkpt><trkpt lat="43.6316689" lon="11.3189253"><ele>380.8333333333333</ele><time>2026-04-03T16:24:54.981Z</time></trkpt><trkpt lat="43.6316778" lon="11.319025"><ele>382.0</ele><time>2026-04-03T16:24:56.989Z</time></trkpt><trkpt lat="43.6317031" lon="11.3191328"><ele>384.0</ele><time>2026-04-03T16:24:58.991Z</time></trkpt><trkpt lat="43.6317605" lon="11.3192271"><ele>386.0</ele><time>2026-04-03T16:25:00.992Z</time></trkpt><trkpt lat="43.6318114" lon="11.3193462"><ele>388.0</ele><time>2026-04-03T16:25:03Z</time></trkpt><trkpt lat="43.6318553" lon="11.3194706"><ele>390.0</ele><time>2026-04-03T16:25:04.993Z</time></trkpt><trkpt lat="43.6318779" lon="11.3196125"><ele>392.0</ele><time>2026-04-03T16:25:06.996Z</time></trkpt><trkpt lat="43.6318814" lon="11.3197625"><ele>393.66666666666663</ele><time>2026-04-03T16:25:08.99Z</time></trkpt><trkpt lat="43.6318707" lon="11.319849"><ele>395.3333333333333</ele><time>2026-04-03T16:25:09.993Z</time></trkpt><trkpt lat="43.6318378" lon="11.3199938"><ele>397.0</ele><time>2026-04-03T16:25:12.004Z</time></trkpt><trkpt lat="43.6317833" lon="11.3200598"><ele>398.66666666666663</ele><time>2026-04-03T16:25:14.978Z</time></trkpt><trkpt lat="43.6318299" lon="11.3199916"><ele>400.3333333333333</ele><time>2026-04-03T16:25:33.985Z</time></trkpt><trkpt lat="43.6318731" lon="11.3199191"><ele>402.0</ele><time>2026-04-03T16:25:35.993Z</time></trkpt><trkpt lat="43.6319135" lon="11.3197501"><ele>400.3333333333333</ele><time>2026-04-03T16:25:37.998Z</time></trkpt><trkpt lat="43.6319228" lon="11.3196032"><ele>398.66666666666663</ele><time>2026-04-03T16:25:39.987Z</time></trkpt><trkpt lat="43.631915" lon="11.3194986"><ele>397.0</ele><time>2026-04-03T16:25:42.992Z</time></trkpt><trkpt lat="43.6318847" lon="11.3194116"><ele>395.3333333333333</ele><time>2026-04-03T16:25:59.994Z</time></trkpt><trkpt lat="43.6318494" lon="11.3193354"><ele>393.66666666666663</ele><time>2026-04-03T16:26:05.991Z</time></trkpt><trkpt lat="43.6318061" lon="11.3192645"><ele>392.0</ele><time>2026-04-03T16:26:08.997Z</time></trkpt><trkpt lat="43.6317669" lon="11.3191877"><ele>391.99999999999994</ele><time>2026-04-03T16:26:11.984Z</time></trkpt><trkpt lat="43.6317186" lon="11.3190977"><ele>392.0</ele><time>2026-04-03T16:26:21.99Z</time></trkpt><trkpt lat="43.6316941" lon="11.3190091"><ele>392.0</ele><time>2026-04-03T16:26:23.992Z</time></trkpt><trkpt lat="43.6316989" lon="11.3188911"><ele>392.0</ele><time>2026-04-03T16:26:26.995Z</time></trkpt><trkpt lat="43.6317616" lon="11.3189669"><ele>391.99999999999994</ele><time>2026-04-03T16:28:20.988Z</time></trkpt><trkpt lat="43.6318141" lon="11.3190686"><ele>392.0</ele><time>2026-04-03T16:28:22.98Z</time></trkpt><trkpt lat="43.631873" lon="11.3191591"><ele>391.99999999999994</ele><time>2026-04-03T16:28:24.986Z</time></trkpt><trkpt lat="43.6319405" lon="11.3192057"><ele>392.0</ele><time>2026-04-03T16:28:28.004Z</time></trkpt><trkpt lat="43.6320094" lon="11.31918"><ele>392.0</ele><time>2026-04-03T16:29:14.99Z</time></trkpt><trkpt lat="43.6320939" lon="11.3191371"><ele>392.0</ele><time>2026-04-03T16:29:17.982Z</time></trkpt><trkpt lat="43.6321688" lon="11.319076"><ele>391.99999999999994</ele><time>2026-04-03T16:29:19.993Z</time></trkpt><trkpt lat="43.6322388" lon="11.3190118"><ele>392.0</ele><time>2026-04-03T16:29:21.992Z</time></trkpt><trkpt lat="43.632303" lon="11.3189593"><ele>390.49999999999994</ele><time>2026-04-03T16:29:23.998Z</time></trkpt><trkpt lat="43.6323759" lon="11.3189065"><ele>389.0</ele><time>2026-04-03T16:29:25.993Z</time></trkpt><trkpt lat="43.6324526" lon="11.3188492"><ele>387.5</ele><time>2026-04-03T16:29:27.997Z</time></trkpt><trkpt lat="43.6325272" lon="11.3187856"><ele>386.0</ele><time>2026-04-03T16:29:29.987Z</time></trkpt><trkpt lat="43.6325981" lon="11.3187203"><ele>384.5</ele><time>2026-04-03T16:29:31.993Z</time></trkpt><trkpt lat="43.632666" lon="11.3186419"><ele>383.0</ele><time>2026-04-03T16:29:33.987Z</time></trkpt><trkpt lat="43.6327324" lon="11.3185671"><ele>381.85714285714283</ele><time>2026-04-03T16:29:35.992Z</time></trkpt><trkpt lat="43.6327922" lon="11.3185101"><ele>380.71428571428567</ele><time>2026-04-03T16:29:37.996Z</time></trkpt><trkpt lat="43.6328604" lon="11.3184576"><ele>379.57142857142856</ele><time>2026-04-03T16:29:40.99Z</time></trkpt><trkpt lat="43.6329265" lon="11.3184071"><ele>378.42857142857144</ele><time>2026-04-03T16:29:43.991Z</time></trkpt><trkpt lat="43.6329805" lon="11.3183594"><ele>377.2857142857143</ele><time>2026-04-03T16:29:46.004Z</time></trkpt><trkpt lat="43.6330493" lon="11.3183217"><ele>376.14285714285717</ele><time>2026-04-03T16:30:13.994Z</time></trkpt><trkpt lat="43.6331163" lon="11.3182587"><ele>375.0</ele><time>2026-04-03T16:30:15.997Z</time></trkpt><trkpt lat="43.6331809" lon="11.3181968"><ele>373.5</ele><time>2026-04-03T16:30:18.009Z</time></trkpt><trkpt lat="43.6332561" lon="11.3181293"><ele>372.0</ele><time>2026-04-03T16:30:19.997Z</time></trkpt><trkpt lat="43.6333275" lon="11.3180792"><ele>370.5</ele><time>2026-04-03T16:30:21.994Z</time></trkpt><trkpt lat="43.6333942" lon="11.3180289"><ele>369.0</ele><time>2026-04-03T16:30:23.995Z</time></trkpt><trkpt lat="43.6334524" lon="11.317977"><ele>367.5</ele><time>2026-04-03T16:30:26Z</time></trkpt><trkpt lat="43.6335095" lon="11.3179271"><ele>366.0</ele><time>2026-04-03T16:30:27.993Z</time></trkpt><trkpt lat="43.6335811" lon="11.3178699"><ele>364.42857142857144</ele><time>2026-04-03T16:30:30.997Z</time></trkpt><trkpt lat="43.6336353" lon="11.3178121"><ele>362.8571428571429</ele><time>2026-04-03T16:30:33.999Z</time></trkpt><trkpt lat="43.6336963" lon="11.3177682"><ele>361.2857142857143</ele><time>2026-04-03T16:30:36.992Z</time></trkpt><trkpt lat="43.633766" lon="11.3177881"><ele>359.7142857142857</ele><time>2026-04-03T16:30:42.991Z</time></trkpt><trkpt lat="43.6338322" lon="11.317829"><ele>358.14285714285717</ele><time>2026-04-03T16:31:26.992Z</time></trkpt><trkpt lat="43.6339071" lon="11.3178461"><ele>356.57142857142856</ele><time>2026-04-03T16:31:32Z</time></trkpt><trkpt lat="43.6339849" lon="11.3178596"><ele>355.0</ele><time>2026-04-03T16:31:34.998Z</time></trkpt><trkpt lat="43.6340666" lon="11.3178404"><ele>354.16666666666663</ele><time>2026-04-03T16:31:37.991Z</time></trkpt><trkpt lat="43.6341486" lon="11.3177834"><ele>353.3333333333333</ele><time>2026-04-03T16:31:40.995Z</time></trkpt><trkpt lat="43.6342361" lon="11.317763"><ele>352.5</ele><time>2026-04-03T16:31:43.985Z</time></trkpt><trkpt lat="43.6343089" lon="11.3178083"><ele>351.6666666666667</ele><time>2026-04-03T16:31:47.989Z</time></trkpt><trkpt lat="43.6343797" lon="11.3177752"><ele>350.83333333333337</ele><time>2026-04-03T16:31:53.996Z</time></trkpt><trkpt lat="43.6344609" lon="11.3177624"><ele>350.0</ele><time>2026-04-03T16:31:56.993Z</time></trkpt><trkpt lat="43.6345369" lon="11.3177689"><ele>349.33333333333337</ele><time>2026-04-03T16:31:59.98Z</time></trkpt><trkpt lat="43.634605" lon="11.3177632"><ele>348.6666666666667</ele><time>2026-04-03T16:32:24.018Z</time></trkpt><trkpt lat="43.6346866" lon="11.3177522"><ele>348.0</ele><time>2026-04-03T16:32:25.997Z</time></trkpt><trkpt lat="43.6347766" lon="11.3177496"><ele>347.3333333333333</ele><time>2026-04-03T16:32:27.991Z</time></trkpt><trkpt lat="43.6348621" lon="11.3177551"><ele>346.66666666666663</ele><time>2026-04-03T16:32:29.991Z</time></trkpt><trkpt lat="43.6349532" lon="11.3177767"><ele>346.0</ele><time>2026-04-03T16:32:31.98Z</time></trkpt><trkpt lat="43.6350332" lon="11.3177513"><ele>346.0</ele><time>2026-04-03T16:32:34.98Z</time></trkpt><trkpt lat="43.6350815" lon="11.3176936"><ele>346.0</ele><time>2026-04-03T16:32:36.98Z</time></trkpt><trkpt lat="43.6351398" lon="11.3176269"><ele>346.0</ele><time>2026-04-03T16:32:38.986Z</time></trkpt><trkpt lat="43.6352066" lon="11.3175523"><ele>346.0</ele><time>2026-04-03T16:32:40.99Z</time></trkpt><trkpt lat="43.635272" lon="11.3174859"><ele>346.0</ele><time>2026-04-03T16:32:42.986Z</time></trkpt><trkpt lat="43.6353353" lon="11.3174291"><ele>346.0</ele><time>2026-04-03T16:32:44.99Z</time></trkpt><trkpt lat="43.63542" lon="11.3174362"><ele>345.16666666666663</ele><time>2026-04-03T16:32:47.983Z</time></trkpt><trkpt lat="43.635501" lon="11.3174951"><ele>344.3333333333333</ele><time>2026-04-03T16:32:50.977Z</time></trkpt><trkpt lat="43.6355485" lon="11.3175629"><ele>343.5</ele><time>2026-04-03T16:32:52.981Z</time></trkpt><trkpt lat="43.6356005" lon="11.3176472"><ele>342.6666666666667</ele><time>2026-04-03T16:32:54.994Z</time></trkpt><trkpt lat="43.6356585" lon="11.3176975"><ele>341.83333333333337</ele><time>2026-04-03T16:32:56.983Z</time></trkpt><trkpt lat="43.6357351" lon="11.3176841"><ele>341.0</ele><time>2026-04-03T16:32:58.98Z</time></trkpt><trkpt lat="43.6358363" lon="11.3176644"><ele>341.0</ele><time>2026-04-03T16:33:00.99Z</time></trkpt><trkpt lat="43.6359279" lon="11.3176576"><ele>341.0</ele><time>2026-04-03T16:33:02.98Z</time></trkpt><trkpt lat="43.6360003" lon="11.3175835"><ele>341.0</ele><time>2026-04-03T16:33:04.982Z</time></trkpt><trkpt lat="43.6360463" lon="11.3174474"><ele>341.0</ele><time>2026-04-03T16:33:06.988Z</time></trkpt><trkpt lat="43.636054" lon="11.3172758"><ele>341.0</ele><time>2026-04-03T16:33:08.989Z</time></trkpt><trkpt lat="43.6360698" lon="11.317119"><ele>339.5</ele><time>2026-04-03T16:33:10.984Z</time></trkpt><trkpt lat="43.6360762" lon="11.3169907"><ele>338.0</ele><time>2026-04-03T16:33:12.984Z</time></trkpt><trkpt lat="43.636034" lon="11.3168916"><ele>336.5</ele><time>2026-04-03T16:33:15.987Z</time></trkpt><trkpt lat="43.6359609" lon="11.3168462"><ele>335.0</ele><time>2026-04-03T16:33:17.992Z</time></trkpt><trkpt lat="43.6359394" lon="11.3167292"><ele>333.5</ele><time>2026-04-03T16:33:20.995Z</time></trkpt><trkpt lat="43.6360021" lon="11.3167061"><ele>332.0</ele><time>2026-04-03T16:33:22.988Z</time></trkpt><trkpt lat="43.6360677" lon="11.3167255"><ele>330.0</ele><time>2026-04-03T16:33:24.991Z</time></trkpt><trkpt lat="43.6361431" lon="11.3167499"><ele>328.0</ele><time>2026-04-03T16:33:27.989Z</time></trkpt><trkpt lat="43.6362239" lon="11.3167864"><ele>326.0</ele><time>2026-04-03T16:33:31.987Z</time></trkpt><trkpt lat="43.6362898" lon="11.3167813"><ele>324.0</ele><time>2026-04-03T16:33:33.996Z</time></trkpt><trkpt lat="43.6363672" lon="11.3167842"><ele>322.0</ele><time>2026-04-03T16:33:35.992Z</time></trkpt><trkpt lat="43.6364627" lon="11.3167738"><ele>320.0</ele><time>2026-04-03T16:33:37.993Z</time></trkpt><trkpt lat="43.6365352" lon="11.3167504"><ele>320.0</ele><time>2026-04-03T16:33:39.993Z</time></trkpt><trkpt lat="43.6366093" lon="11.3166928"><ele>320.0</ele><time>2026-04-03T16:33:41.99Z</time></trkpt><trkpt lat="43.6366571" lon="11.3166116"><ele>320.0</ele><time>2026-04-03T16:33:42.983Z</time></trkpt><trkpt lat="43.6367057" lon="11.31652"><ele>320.0</ele><time>2026-04-03T16:33:43.98Z</time></trkpt><trkpt lat="43.6367647" lon="11.3164408"><ele>320.0</ele><time>2026-04-03T16:33:44.986Z</time></trkpt><trkpt lat="43.6368294" lon="11.3163768"><ele>320.0</ele><time>2026-04-03T16:33:45.988Z</time></trkpt><trkpt lat="43.6368924" lon="11.3163121"><ele>319.0</ele><time>2026-04-03T16:33:46.98Z</time></trkpt><trkpt lat="43.6369485" lon="11.3162465"><ele>318.0</ele><time>2026-04-03T16:33:47.98Z</time></trkpt><trkpt lat="43.6370111" lon="11.3161874"><ele>317.0</ele><time>2026-04-03T16:33:48.983Z</time></trkpt><trkpt lat="43.6370744" lon="11.3161359"><ele>316.0</ele><time>2026-04-03T16:33:49.987Z</time></trkpt><trkpt lat="43.6371288" lon="11.3160831"><ele>315.0</ele><time>2026-04-03T16:33:50.981Z</time></trkpt><trkpt lat="43.637212" lon="11.3159695"><ele>314.0</ele><time>2026-04-03T16:33:52.994Z</time></trkpt><trkpt lat="43.6372783" lon="11.3158327"><ele>312.4</ele><time>2026-04-03T16:33:54.987Z</time></trkpt><trkpt lat="43.637355" lon="11.3157129"><ele>310.79999999999995</ele><time>2026-04-03T16:33:56.992Z</time></trkpt><trkpt lat="43.6374427" lon="11.3156077"><ele>309.20000000000005</ele><time>2026-04-03T16:33:58.986Z</time></trkpt><trkpt lat="43.637505" lon="11.3155113"><ele>307.6</ele><time>2026-04-03T16:34:00.978Z</time></trkpt><trkpt lat="43.6375455" lon="11.3154301"><ele>306.0</ele><time>2026-04-03T16:34:02.983Z</time></trkpt><trkpt lat="43.6375861" lon="11.315327"><ele>304.2</ele><time>2026-04-03T16:34:05.981Z</time></trkpt><trkpt lat="43.6376394" lon="11.3152181"><ele>302.40000000000003</ele><time>2026-04-03T16:34:08.985Z</time></trkpt><trkpt lat="43.6376806" lon="11.315151"><ele>300.6</ele><time>2026-04-03T16:34:10.975Z</time></trkpt><trkpt lat="43.6377531" lon="11.3150678"><ele>298.8</ele><time>2026-04-03T16:34:12.979Z</time></trkpt><trkpt lat="43.6378392" lon="11.3149871"><ele>297.0</ele><time>2026-04-03T16:34:14.987Z</time></trkpt><trkpt lat="43.6379254" lon="11.3149215"><ele>295.6666666666667</ele><time>2026-04-03T16:34:16.989Z</time></trkpt><trkpt lat="43.6380336" lon="11.3148612"><ele>294.3333333333333</ele><time>2026-04-03T16:34:18.99Z</time></trkpt><trkpt lat="43.6380873" lon="11.3148155"><ele>293.0</ele><time>2026-04-03T16:34:20.002Z</time></trkpt><trkpt lat="43.6381653" lon="11.3147541"><ele>291.66666666666663</ele><time>2026-04-03T16:34:22Z</time></trkpt><trkpt lat="43.6382257" lon="11.3147124"><ele>290.3333333333333</ele><time>2026-04-03T16:34:26.004Z</time></trkpt><trkpt lat="43.6383033" lon="11.3146612"><ele>289.0</ele><time>2026-04-03T16:34:27.989Z</time></trkpt><trkpt lat="43.638367" lon="11.3146261"><ele>288.0</ele><time>2026-04-03T16:34:28.994Z</time></trkpt><trkpt lat="43.6384383" lon="11.3145971"><ele>287.0</ele><time>2026-04-03T16:34:29.992Z</time></trkpt><trkpt lat="43.6385125" lon="11.3145648"><ele>286.0</ele><time>2026-04-03T16:34:30.986Z</time></trkpt><trkpt lat="43.6385795" lon="11.3145323"><ele>285.0</ele><time>2026-04-03T16:34:31.994Z</time></trkpt><trkpt lat="43.6386752" lon="11.3144405"><ele>284.0</ele><time>2026-04-03T16:34:33.998Z</time></trkpt><trkpt lat="43.6387304" lon="11.3143234"><ele>283.0</ele><time>2026-04-03T16:34:35.981Z</time></trkpt><trkpt lat="43.6387814" lon="11.3142237"><ele>282.8333333333333</ele><time>2026-04-03T16:34:37.994Z</time></trkpt><trkpt lat="43.6388378" lon="11.3141418"><ele>282.66666666666663</ele><time>2026-04-03T16:34:40.005Z</time></trkpt><trkpt lat="43.6388996" lon="11.314073"><ele>282.5</ele><time>2026-04-03T16:34:41.99Z</time></trkpt><trkpt lat="43.6389726" lon="11.3139723"><ele>282.3333333333333</ele><time>2026-04-03T16:34:43.995Z</time></trkpt><trkpt lat="43.6390252" lon="11.3139191"><ele>282.1666666666667</ele><time>2026-04-03T16:34:44.994Z</time></trkpt><trkpt lat="43.6390813" lon="11.31387"><ele>282.0</ele><time>2026-04-03T16:34:45.992Z</time></trkpt><trkpt lat="43.6391419" lon="11.3138277"><ele>281.1666666666667</ele><time>2026-04-03T16:34:46.987Z</time></trkpt><trkpt lat="43.6392003" lon="11.3137903"><ele>280.3333333333333</ele><time>2026-04-03T16:34:47.983Z</time></trkpt><trkpt lat="43.6392976" lon="11.3137217"><ele>279.5</ele><time>2026-04-03T16:34:49.993Z</time></trkpt><trkpt lat="43.6393488" lon="11.3136504"><ele>278.66666666666663</ele><time>2026-04-03T16:34:52.002Z</time></trkpt><trkpt lat="43.6393263" lon="11.3135682"><ele>277.8333333333333</ele><time>2026-04-03T16:34:54Z</time></trkpt><trkpt lat="43.6392471" lon="11.3135819"><ele>277.0</ele><time>2026-04-03T16:34:56Z</time></trkpt><trkpt lat="43.6391543" lon="11.3136431"><ele>277.0</ele><time>2026-04-03T16:34:57.993Z</time></trkpt><trkpt lat="43.63904" lon="11.3136953"><ele>277.0</ele><time>2026-04-03T16:34:59.986Z</time></trkpt><trkpt lat="43.6389803" lon="11.3137279"><ele>277.0</ele><time>2026-04-03T16:35:00.99Z</time></trkpt><trkpt lat="43.6389187" lon="11.3137637"><ele>277.0</ele><time>2026-04-03T16:35:02.003Z</time></trkpt><trkpt lat="43.6388086" lon="11.3138258"><ele>277.0</ele><time>2026-04-03T16:35:03.982Z</time></trkpt><trkpt lat="43.6387289" lon="11.3138259"><ele>277.0</ele><time>2026-04-03T16:35:05.988Z</time></trkpt><trkpt lat="43.6387299" lon="11.3137266"><ele>277.0</ele><time>2026-04-03T16:35:08.972Z</time></trkpt><trkpt lat="43.6388256" lon="11.313668"><ele>277.0</ele><time>2026-04-03T16:35:10.992Z</time></trkpt><trkpt lat="43.6388969" lon="11.3136452"><ele>277.0</ele><time>2026-04-03T16:35:11.983Z</time></trkpt><trkpt lat="43.6389779" lon="11.3136128"><ele>277.0</ele><time>2026-04-03T16:35:12.985Z</time></trkpt><trkpt lat="43.6390676" lon="11.3135696"><ele>277.0</ele><time>2026-04-03T16:35:13.986Z</time></trkpt><trkpt lat="43.6391644" lon="11.3135295"><ele>277.0</ele><time>2026-04-03T16:35:14.975Z</time></trkpt><trkpt lat="43.6392677" lon="11.3134965"><ele>277.0</ele><time>2026-04-03T16:35:15.989Z</time></trkpt><trkpt lat="43.6393787" lon="11.3134677"><ele>277.0</ele><time>2026-04-03T16:35:16.968Z</time></trkpt><trkpt lat="43.6394984" lon="11.3134549"><ele>277.0</ele><time>2026-04-03T16:35:17.997Z</time></trkpt><trkpt lat="43.6396184" lon="11.3134343"><ele>277.25</ele><time>2026-04-03T16:35:18.991Z</time></trkpt><trkpt lat="43.6397389" lon="11.3134136"><ele>277.5</ele><time>2026-04-03T16:35:19.989Z</time></trkpt><trkpt lat="43.6398644" lon="11.3133986"><ele>277.75</ele><time>2026-04-03T16:35:20.981Z</time></trkpt><trkpt lat="43.6399942" lon="11.3133855"><ele>278.0</ele><time>2026-04-03T16:35:21.983Z</time></trkpt><trkpt lat="43.6401245" lon="11.3133682"><ele>278.0</ele><time>2026-04-03T16:35:22.985Z</time></trkpt><trkpt lat="43.6402583" lon="11.3133552"><ele>278.0</ele><time>2026-04-03T16:35:23.992Z</time></trkpt><trkpt lat="43.640394" lon="11.3133269"><ele>278.0</ele><time>2026-04-03T16:35:24.988Z</time></trkpt><trkpt lat="43.6405337" lon="11.3132845"><ele>278.0</ele><time>2026-04-03T16:35:25.995Z</time></trkpt><trkpt lat="43.6406735" lon="11.3132147"><ele>277.25</ele><time>2026-04-03T16:35:26.998Z</time></trkpt><trkpt lat="43.6408089" lon="11.3131332"><ele>276.5</ele><time>2026-04-03T16:35:27.994Z</time></trkpt><trkpt lat="43.6409435" lon="11.3130411"><ele>275.75</ele><time>2026-04-03T16:35:28.993Z</time></trkpt><trkpt lat="43.6410829" lon="11.3129602"><ele>275.0</ele><time>2026-04-03T16:35:29.999Z</time></trkpt><trkpt lat="43.6412302" lon="11.3128893"><ele>272.0</ele><time>2026-04-03T16:35:30.99Z</time></trkpt><trkpt lat="43.6413818" lon="11.3128375"><ele>269.0</ele><time>2026-04-03T16:35:31.987Z</time></trkpt><trkpt lat="43.64154" lon="11.3128083"><ele>266.0</ele><time>2026-04-03T16:35:32.994Z</time></trkpt><trkpt lat="43.6416996" lon="11.3127813"><ele>266.0</ele><time>2026-04-03T16:35:33.987Z</time></trkpt><trkpt lat="43.6418575" lon="11.312755"><ele>266.0</ele><time>2026-04-03T16:35:34.986Z</time></trkpt><trkpt lat="43.6420156" lon="11.3127258"><ele>266.0</ele><time>2026-04-03T16:35:36.001Z</time></trkpt><trkpt lat="43.6421765" lon="11.3127013"><ele>263.6666666666667</ele><time>2026-04-03T16:35:36.994Z</time></trkpt><trkpt lat="43.642338" lon="11.3126786"><ele>261.3333333333333</ele><time>2026-04-03T16:35:37.997Z</time></trkpt><trkpt lat="43.6424975" lon="11.3126515"><ele>259.0</ele><time>2026-04-03T16:35:38.99Z</time></trkpt><trkpt lat="43.6426575" lon="11.3126276"><ele>257.3333333333333</ele><time>2026-04-03T16:35:39.987Z</time></trkpt><trkpt lat="43.6428174" lon="11.3126023"><ele>255.66666666666669</ele><time>2026-04-03T16:35:40.994Z</time></trkpt><trkpt lat="43.6429815" lon="11.3125722"><ele>254.0</ele><time>2026-04-03T16:35:41.994Z</time></trkpt><trkpt lat="43.6431466" lon="11.3125412"><ele>254.0</ele><time>2026-04-03T16:35:42.993Z</time></trkpt><trkpt lat="43.6433125" lon="11.3125074"><ele>254.0</ele><time>2026-04-03T16:35:43.999Z</time></trkpt><trkpt lat="43.6434792" lon="11.3124758"><ele>254.0</ele><time>2026-04-03T16:35:44.988Z</time></trkpt><trkpt lat="43.6436473" lon="11.3124419"><ele>253.66666666666669</ele><time>2026-04-03T16:35:45.988Z</time></trkpt><trkpt lat="43.643817" lon="11.3124099"><ele>253.33333333333331</ele><time>2026-04-03T16:35:47.002Z</time></trkpt><trkpt lat="43.643988" lon="11.3123792"><ele>253.0</ele><time>2026-04-03T16:35:47.993Z</time></trkpt><trkpt lat="43.6441605" lon="11.3123521"><ele>253.0</ele><time>2026-04-03T16:35:48.993Z</time></trkpt><trkpt lat="43.644333" lon="11.3123233"><ele>253.0</ele><time>2026-04-03T16:35:49.992Z</time></trkpt><trkpt lat="43.6445057" lon="11.3122966"><ele>253.0</ele><time>2026-04-03T16:35:50.983Z</time></trkpt><trkpt lat="43.644676" lon="11.3122701"><ele>251.33333333333331</ele><time>2026-04-03T16:35:51.985Z</time></trkpt><trkpt lat="43.6448429" lon="11.312248"><ele>249.66666666666669</ele><time>2026-04-03T16:35:52.987Z</time></trkpt><trkpt lat="43.6450143" lon="11.3122208"><ele>248.0</ele><time>2026-04-03T16:35:54.002Z</time></trkpt><trkpt lat="43.6451842" lon="11.3121898"><ele>246.33333333333334</ele><time>2026-04-03T16:35:54.994Z</time></trkpt><trkpt lat="43.6453545" lon="11.3121525"><ele>244.66666666666669</ele><time>2026-04-03T16:35:55.994Z</time></trkpt><trkpt lat="43.6455217" lon="11.3120998"><ele>243.0</ele><time>2026-04-03T16:35:56.992Z</time></trkpt><trkpt lat="43.6456842" lon="11.3120299"><ele>243.0</ele><time>2026-04-03T16:35:57.997Z</time></trkpt><trkpt lat="43.6458419" lon="11.3119486"><ele>243.0</ele><time>2026-04-03T16:35:58.996Z</time></trkpt><trkpt lat="43.6459982" lon="11.3118653"><ele>243.0</ele><time>2026-04-03T16:35:59.991Z</time></trkpt><trkpt lat="43.646154" lon="11.3117835"><ele>243.66666666666669</ele><time>2026-04-03T16:36:00.994Z</time></trkpt><trkpt lat="43.6463147" lon="11.3117159"><ele>244.33333333333334</ele><time>2026-04-03T16:36:01.999Z</time></trkpt><trkpt lat="43.646479" lon="11.3116679"><ele>245.0</ele><time>2026-04-03T16:36:02.978Z</time></trkpt><trkpt lat="43.6466427" lon="11.3116176"><ele>245.0</ele><time>2026-04-03T16:36:04Z</time></trkpt><trkpt lat="43.6468082" lon="11.3115629"><ele>245.0</ele><time>2026-04-03T16:36:04.991Z</time></trkpt><trkpt lat="43.6469691" lon="11.3115057"><ele>245.0</ele><time>2026-04-03T16:36:06.012Z</time></trkpt><trkpt lat="43.6471321" lon="11.311447"><ele>242.0</ele><time>2026-04-03T16:36:06.988Z</time></trkpt><trkpt lat="43.6472923" lon="11.3113965"><ele>239.0</ele><time>2026-04-03T16:36:08.006Z</time></trkpt><trkpt lat="43.6474527" lon="11.3113472"><ele>236.0</ele><time>2026-04-03T16:36:08.993Z</time></trkpt><trkpt lat="43.6476134" lon="11.311297"><ele>236.0</ele><time>2026-04-03T16:36:10.005Z</time></trkpt><trkpt lat="43.6477764" lon="11.3112503"><ele>236.0</ele><time>2026-04-03T16:36:10.995Z</time></trkpt><trkpt lat="43.6479437" lon="11.3112085"><ele>236.0</ele><time>2026-04-03T16:36:12Z</time></trkpt><trkpt lat="43.648116" lon="11.3111721"><ele>234.66666666666669</ele><time>2026-04-03T16:36:12.998Z</time></trkpt><trkpt lat="43.6482929" lon="11.3111345"><ele>233.33333333333331</ele><time>2026-04-03T16:36:13.997Z</time></trkpt><trkpt lat="43.6484696" lon="11.3110975"><ele>232.0</ele><time>2026-04-03T16:36:14.994Z</time></trkpt><trkpt lat="43.6486476" lon="11.3110564"><ele>230.66666666666666</ele><time>2026-04-03T16:36:15.995Z</time></trkpt><trkpt lat="43.6488304" lon="11.3110239"><ele>229.33333333333331</ele><time>2026-04-03T16:36:16.988Z</time></trkpt><trkpt lat="43.6490142" lon="11.3109947"><ele>228.0</ele><time>2026-04-03T16:36:17.995Z</time></trkpt><trkpt lat="43.6491949" lon="11.3109641"><ele>228.0</ele><time>2026-04-03T16:36:18.993Z</time></trkpt><trkpt lat="43.6493743" lon="11.3109147"><ele>228.0</ele><time>2026-04-03T16:36:19.994Z</time></trkpt><trkpt lat="43.6495361" lon="11.3108264"><ele>228.0</ele><time>2026-04-03T16:36:20.992Z</time></trkpt><trkpt lat="43.6496855" lon="11.3107051"><ele>227.33333333333331</ele><time>2026-04-03T16:36:22.007Z</time></trkpt><trkpt lat="43.6498283" lon="11.3105755"><ele>226.66666666666666</ele><time>2026-04-03T16:36:22.999Z</time></trkpt><trkpt lat="43.6499712" lon="11.3104419"><ele>226.0</ele><time>2026-04-03T16:36:24.017Z</time></trkpt><trkpt lat="43.6501183" lon="11.3103097"><ele>224.66666666666666</ele><time>2026-04-03T16:36:24.995Z</time></trkpt><trkpt lat="43.6502645" lon="11.3101777"><ele>223.33333333333331</ele><time>2026-04-03T16:36:26.001Z</time></trkpt><trkpt lat="43.6504046" lon="11.3100464"><ele>222.0</ele><time>2026-04-03T16:36:26.989Z</time></trkpt><trkpt lat="43.6505438" lon="11.3099133"><ele>221.33333333333331</ele><time>2026-04-03T16:36:28.003Z</time></trkpt><trkpt lat="43.6506877" lon="11.3097858"><ele>220.66666666666666</ele><time>2026-04-03T16:36:29.002Z</time></trkpt><trkpt lat="43.6508341" lon="11.3096573"><ele>220.0</ele><time>2026-04-03T16:36:30.007Z</time></trkpt><trkpt lat="43.6509797" lon="11.3095299"><ele>219.33333333333331</ele><time>2026-04-03T16:36:30.994Z</time></trkpt><trkpt lat="43.6511237" lon="11.3093968"><ele>218.66666666666669</ele><time>2026-04-03T16:36:32.003Z</time></trkpt><trkpt lat="43.6512668" lon="11.3092656"><ele>218.0</ele><time>2026-04-03T16:36:33.002Z</time></trkpt><trkpt lat="43.6514035" lon="11.3091409"><ele>217.0</ele><time>2026-04-03T16:36:33.996Z</time></trkpt><trkpt lat="43.65154" lon="11.309013"><ele>216.0</ele><time>2026-04-03T16:36:34.997Z</time></trkpt><trkpt lat="43.6516728" lon="11.3088804"><ele>215.0</ele><time>2026-04-03T16:36:35.999Z</time></trkpt><trkpt lat="43.651796" lon="11.3087347"><ele>214.66666666666669</ele><time>2026-04-03T16:36:36.99Z</time></trkpt><trkpt lat="43.6519082" lon="11.3085748"><ele>214.33333333333331</ele><time>2026-04-03T16:36:38Z</time></trkpt><trkpt lat="43.6520108" lon="11.3083952"><ele>214.0</ele><time>2026-04-03T16:36:38.993Z</time></trkpt><trkpt lat="43.6521086" lon="11.3082057"><ele>213.66666666666666</ele><time>2026-04-03T16:36:40.005Z</time></trkpt><trkpt lat="43.6522062" lon="11.3080069"><ele>213.33333333333331</ele><time>2026-04-03T16:36:41.009Z</time></trkpt><trkpt lat="43.6522919" lon="11.3078034"><ele>213.0</ele><time>2026-04-03T16:36:41.991Z</time></trkpt><trkpt lat="43.6523654" lon="11.3075872"><ele>213.0</ele><time>2026-04-03T16:36:42.997Z</time></trkpt><trkpt lat="43.6524361" lon="11.3073702"><ele>213.0</ele><time>2026-04-03T16:36:44.01Z</time></trkpt><trkpt lat="43.6525126" lon="11.307148"><ele>213.0</ele><time>2026-04-03T16:36:44.992Z</time></trkpt><trkpt lat="43.6525949" lon="11.3069255"><ele>213.33333333333331</ele><time>2026-04-03T16:36:45.997Z</time></trkpt><trkpt lat="43.6526734" lon="11.3067063"><ele>213.66666666666666</ele><time>2026-04-03T16:36:46.991Z</time></trkpt><trkpt lat="43.6527502" lon="11.3064838"><ele>214.0</ele><time>2026-04-03T16:36:48.005Z</time></trkpt><trkpt lat="43.6528301" lon="11.3062631"><ele>214.0</ele><time>2026-04-03T16:36:48.978Z</time></trkpt><trkpt lat="43.6529105" lon="11.3060432"><ele>214.0</ele><time>2026-04-03T16:36:50.012Z</time></trkpt><trkpt lat="43.6529866" lon="11.3058191"><ele>214.0</ele><time>2026-04-03T16:36:50.995Z</time></trkpt><trkpt lat="43.6530631" lon="11.3055895"><ele>212.0</ele><time>2026-04-03T16:36:51.994Z</time></trkpt><trkpt lat="43.6531402" lon="11.3053634"><ele>210.0</ele><time>2026-04-03T16:36:52.995Z</time></trkpt><trkpt lat="43.6532177" lon="11.3051358"><ele>208.0</ele><time>2026-04-03T16:36:54.006Z</time></trkpt><trkpt lat="43.6532939" lon="11.3049078"><ele>205.66666666666666</ele><time>2026-04-03T16:36:54.988Z</time></trkpt><trkpt lat="43.6533662" lon="11.3046802"><ele>203.33333333333331</ele><time>2026-04-03T16:36:55.997Z</time></trkpt><trkpt lat="43.6534348" lon="11.3044478"><ele>201.0</ele><time>2026-04-03T16:36:56.995Z</time></trkpt><trkpt lat="43.6534929" lon="11.3042101"><ele>201.0</ele><time>2026-04-03T16:36:57.995Z</time></trkpt><trkpt lat="43.6535422" lon="11.3039652"><ele>201.0</ele><time>2026-04-03T16:36:58.991Z</time></trkpt><trkpt lat="43.6535916" lon="11.303721"><ele>201.0</ele><time>2026-04-03T16:36:59.998Z</time></trkpt><trkpt lat="43.6536345" lon="11.303472"><ele>204.0</ele><time>2026-04-03T16:37:00.987Z</time></trkpt><trkpt lat="43.6536719" lon="11.3032214"><ele>207.0</ele><time>2026-04-03T16:37:01.994Z</time></trkpt><trkpt lat="43.6537107" lon="11.302975"><ele>210.0</ele><time>2026-04-03T16:37:02.989Z</time></trkpt><trkpt lat="43.6537486" lon="11.3027269"><ele>211.66666666666669</ele><time>2026-04-03T16:37:03.99Z</time></trkpt><trkpt lat="43.6537856" lon="11.3024845"><ele>213.33333333333334</ele><time>2026-04-03T16:37:04.99Z</time></trkpt><trkpt lat="43.6538241" lon="11.3022434"><ele>215.0</ele><time>2026-04-03T16:37:06.001Z</time></trkpt><trkpt lat="43.6538598" lon="11.3020048"><ele>215.0</ele><time>2026-04-03T16:37:06.999Z</time></trkpt><trkpt lat="43.6538981" lon="11.3017656"><ele>215.0</ele><time>2026-04-03T16:37:08Z</time></trkpt><trkpt lat="43.6539418" lon="11.3015283"><ele>215.0</ele><time>2026-04-03T16:37:08.997Z</time></trkpt><trkpt lat="43.6539956" lon="11.3012987"><ele>214.0</ele><time>2026-04-03T16:37:10.002Z</time></trkpt><trkpt lat="43.6540649" lon="11.3010824"><ele>213.0</ele><time>2026-04-03T16:37:10.995Z</time></trkpt><trkpt lat="43.6541489" lon="11.3008938"><ele>212.0</ele><time>2026-04-03T16:37:12.011Z</time></trkpt><trkpt lat="43.6542489" lon="11.3007155"><ele>210.33333333333334</ele><time>2026-04-03T16:37:12.996Z</time></trkpt><trkpt lat="43.6543618" lon="11.3005442"><ele>208.66666666666669</ele><time>2026-04-03T16:37:13.99Z</time></trkpt><trkpt lat="43.6544903" lon="11.3003684"><ele>207.0</ele><time>2026-04-03T16:37:14.994Z</time></trkpt><trkpt lat="43.6546292" lon="11.3001911"><ele>207.66666666666669</ele><time>2026-04-03T16:37:15.996Z</time></trkpt><trkpt lat="43.6547719" lon="11.2999992"><ele>208.33333333333334</ele><time>2026-04-03T16:37:16.996Z</time></trkpt><trkpt lat="43.6549145" lon="11.2998043"><ele>209.0</ele><time>2026-04-03T16:37:18.001Z</time></trkpt><trkpt lat="43.6550615" lon="11.2996102"><ele>209.0</ele><time>2026-04-03T16:37:18.995Z</time></trkpt><trkpt lat="43.6552129" lon="11.299414"><ele>209.0</ele><time>2026-04-03T16:37:20Z</time></trkpt><trkpt lat="43.6553644" lon="11.2992228"><ele>209.0</ele><time>2026-04-03T16:37:20.992Z</time></trkpt><trkpt lat="43.655516" lon="11.2990288"><ele>208.33333333333334</ele><time>2026-04-03T16:37:21.996Z</time></trkpt><trkpt lat="43.6556651" lon="11.2988361"><ele>207.66666666666669</ele><time>2026-04-03T16:37:22.989Z</time></trkpt><trkpt lat="43.6558112" lon="11.2986449"><ele>207.0</ele><time>2026-04-03T16:37:24.005Z</time></trkpt><trkpt lat="43.6559529" lon="11.2984464"><ele>207.0</ele><time>2026-04-03T16:37:24.998Z</time></trkpt><trkpt lat="43.6560914" lon="11.2982436"><ele>207.0</ele><time>2026-04-03T16:37:26.008Z</time></trkpt><trkpt lat="43.6562226" lon="11.2980317"><ele>207.0</ele><time>2026-04-03T16:37:26.992Z</time></trkpt><trkpt lat="43.6563472" lon="11.2978126"><ele>211.66666666666669</ele><time>2026-04-03T16:37:28.024Z</time></trkpt><trkpt lat="43.6564631" lon="11.2975805"><ele>216.33333333333334</ele><time>2026-04-03T16:37:28.992Z</time></trkpt><trkpt lat="43.6565691" lon="11.29734"><ele>221.0</ele><time>2026-04-03T16:37:29.999Z</time></trkpt><trkpt lat="43.6566685" lon="11.297091"><ele>221.33333333333334</ele><time>2026-04-03T16:37:30.989Z</time></trkpt><trkpt lat="43.6567623" lon="11.2968394"><ele>221.66666666666669</ele><time>2026-04-03T16:37:32.002Z</time></trkpt><trkpt lat="43.6568562" lon="11.2965907"><ele>222.0</ele><time>2026-04-03T16:37:32.993Z</time></trkpt><trkpt lat="43.6569467" lon="11.2963474"><ele>225.66666666666669</ele><time>2026-04-03T16:37:33.998Z</time></trkpt><trkpt lat="43.6570432" lon="11.2961167"><ele>229.33333333333334</ele><time>2026-04-03T16:37:34.988Z</time></trkpt><trkpt lat="43.657148" lon="11.2958897"><ele>233.0</ele><time>2026-04-03T16:37:36.004Z</time></trkpt><trkpt lat="43.6572642" lon="11.2956761"><ele>233.0</ele><time>2026-04-03T16:37:36.995Z</time></trkpt><trkpt lat="43.6573927" lon="11.2954682"><ele>233.0</ele><time>2026-04-03T16:37:37.989Z</time></trkpt><trkpt lat="43.6575318" lon="11.2952762"><ele>233.0</ele><time>2026-04-03T16:37:39.012Z</time></trkpt><trkpt lat="43.6576768" lon="11.2951019"><ele>233.0</ele><time>2026-04-03T16:37:40Z</time></trkpt><trkpt lat="43.6578333" lon="11.2949385"><ele>233.0</ele><time>2026-04-03T16:37:40.986Z</time></trkpt><trkpt lat="43.6580009" lon="11.2947838"><ele>233.0</ele><time>2026-04-03T16:37:41.993Z</time></trkpt><trkpt lat="43.658171" lon="11.2946406"><ele>233.33333333333334</ele><time>2026-04-03T16:37:42.987Z</time></trkpt><trkpt lat="43.6583434" lon="11.2945061"><ele>233.66666666666669</ele><time>2026-04-03T16:37:43.995Z</time></trkpt><trkpt lat="43.6585128" lon="11.2943719"><ele>234.0</ele><time>2026-04-03T16:37:44.982Z</time></trkpt><trkpt lat="43.6586759" lon="11.2942421"><ele>233.0</ele><time>2026-04-03T16:37:45.991Z</time></trkpt><trkpt lat="43.658825" lon="11.2941207"><ele>232.0</ele><time>2026-04-03T16:37:46.986Z</time></trkpt><trkpt lat="43.6589693" lon="11.2940091"><ele>231.0</ele><time>2026-04-03T16:37:47.999Z</time></trkpt><trkpt lat="43.6591058" lon="11.2939034"><ele>230.5</ele><time>2026-04-03T16:37:48.995Z</time></trkpt><trkpt lat="43.6592324" lon="11.2938182"><ele>230.0</ele><time>2026-04-03T16:37:49.995Z</time></trkpt><trkpt lat="43.6593459" lon="11.2937481"><ele>229.5</ele><time>2026-04-03T16:37:50.986Z</time></trkpt><trkpt lat="43.6594242" lon="11.2936517"><ele>229.0</ele><time>2026-04-03T16:37:51.986Z</time></trkpt><trkpt lat="43.6594751" lon="11.293512"><ele>229.0</ele><time>2026-04-03T16:37:52.986Z</time></trkpt><trkpt lat="43.6595288" lon="11.2933354"><ele>229.0</ele><time>2026-04-03T16:37:53.982Z</time></trkpt><trkpt lat="43.6596189" lon="11.2931551"><ele>229.0</ele><time>2026-04-03T16:37:54.993Z</time></trkpt><trkpt lat="43.6597441" lon="11.2929996"><ele>226.0</ele><time>2026-04-03T16:37:55.99Z</time></trkpt><trkpt lat="43.6598883" lon="11.2928542"><ele>223.0</ele><time>2026-04-03T16:37:56.98Z</time></trkpt><trkpt lat="43.6600364" lon="11.2927164"><ele>220.0</ele><time>2026-04-03T16:37:57.992Z</time></trkpt><trkpt lat="43.6601925" lon="11.2925928"><ele>221.66666666666666</ele><time>2026-04-03T16:37:58.99Z</time></trkpt><trkpt lat="43.6603642" lon="11.2925078"><ele>223.33333333333331</ele><time>2026-04-03T16:37:59.995Z</time></trkpt><trkpt lat="43.6605573" lon="11.2924606"><ele>225.0</ele><time>2026-04-03T16:38:00.983Z</time></trkpt><trkpt lat="43.6607637" lon="11.2924582"><ele>225.0</ele><time>2026-04-03T16:38:01.996Z</time></trkpt><trkpt lat="43.6609737" lon="11.2924946"><ele>225.0</ele><time>2026-04-03T16:38:02.983Z</time></trkpt><trkpt lat="43.6611787" lon="11.2925724"><ele>225.0</ele><time>2026-04-03T16:38:03.993Z</time></trkpt><trkpt lat="43.6613802" lon="11.2926793"><ele>225.33333333333331</ele><time>2026-04-03T16:38:04.984Z</time></trkpt><trkpt lat="43.6615684" lon="11.2928134"><ele>225.66666666666666</ele><time>2026-04-03T16:38:05.984Z</time></trkpt><trkpt lat="43.6617527" lon="11.2929528"><ele>226.0</ele><time>2026-04-03T16:38:06.983Z</time></trkpt><trkpt lat="43.6619427" lon="11.2930728"><ele>228.0</ele><time>2026-04-03T16:38:07.989Z</time></trkpt><trkpt lat="43.6621462" lon="11.2931729"><ele>230.0</ele><time>2026-04-03T16:38:08.983Z</time></trkpt><trkpt lat="43.6623563" lon="11.2932479"><ele>232.0</ele><time>2026-04-03T16:38:10Z</time></trkpt><trkpt lat="43.6625779" lon="11.2932971"><ele>235.0</ele><time>2026-04-03T16:38:10.992Z</time></trkpt><trkpt lat="43.6628052" lon="11.2933121"><ele>238.0</ele><time>2026-04-03T16:38:11.994Z</time></trkpt><trkpt lat="43.663032" lon="11.2933043"><ele>238.0</ele><time>2026-04-03T16:38:12.985Z</time></trkpt><trkpt lat="43.6632542" lon="11.2932841"><ele>238.0</ele><time>2026-04-03T16:38:13.983Z</time></trkpt><trkpt lat="43.6634533" lon="11.2932821"><ele>238.0</ele><time>2026-04-03T16:38:14.981Z</time></trkpt><trkpt lat="43.6636286" lon="11.2933267"><ele>239.5</ele><time>2026-04-03T16:38:15.987Z</time></trkpt><trkpt lat="43.6637641" lon="11.2933922"><ele>241.0</ele><time>2026-04-03T16:38:16.989Z</time></trkpt><trkpt lat="43.6638761" lon="11.2934606"><ele>242.5</ele><time>2026-04-03T16:38:17.985Z</time></trkpt><trkpt lat="43.6639739" lon="11.2935283"><ele>244.0</ele><time>2026-04-03T16:38:18.992Z</time></trkpt><trkpt lat="43.66405" lon="11.2936037"><ele>243.99999999999997</ele><time>2026-04-03T16:38:19.992Z</time></trkpt><trkpt lat="43.6641103" lon="11.2936826"><ele>244.0</ele><time>2026-04-03T16:38:20.986Z</time></trkpt><trkpt lat="43.6641805" lon="11.2937373"><ele>244.0</ele><time>2026-04-03T16:38:22.005Z</time></trkpt><trkpt lat="43.6642618" lon="11.2937419"><ele>244.0</ele><time>2026-04-03T16:38:22.993Z</time></trkpt><trkpt lat="43.6643478" lon="11.2936831"><ele>243.99999999999997</ele><time>2026-04-03T16:38:23.994Z</time></trkpt><trkpt lat="43.664438" lon="11.2936206"><ele>244.0</ele><time>2026-04-03T16:38:24.978Z</time></trkpt><trkpt lat="43.6645405" lon="11.2935547"><ele>243.75</ele><time>2026-04-03T16:38:25.991Z</time></trkpt><trkpt lat="43.6646584" lon="11.2935121"><ele>243.5</ele><time>2026-04-03T16:38:26.986Z</time></trkpt><trkpt lat="43.6647979" lon="11.2934618"><ele>243.25</ele><time>2026-04-03T16:38:27.986Z</time></trkpt><trkpt lat="43.6649658" lon="11.2934105"><ele>243.0</ele><time>2026-04-03T16:38:28.988Z</time></trkpt><trkpt lat="43.6651428" lon="11.2933758"><ele>241.66666666666669</ele><time>2026-04-03T16:38:29.991Z</time></trkpt><trkpt lat="43.6653286" lon="11.2933685"><ele>240.33333333333334</ele><time>2026-04-03T16:38:30.991Z</time></trkpt><trkpt lat="43.665517" lon="11.2933595"><ele>239.0</ele><time>2026-04-03T16:38:31.998Z</time></trkpt><trkpt lat="43.6657094" lon="11.2933411"><ele>239.0</ele><time>2026-04-03T16:38:32.995Z</time></trkpt><trkpt lat="43.6659018" lon="11.293291"><ele>239.0</ele><time>2026-04-03T16:38:33.995Z</time></trkpt><trkpt lat="43.6660943" lon="11.2932178"><ele>239.0</ele><time>2026-04-03T16:38:34.979Z</time></trkpt><trkpt lat="43.6662871" lon="11.2931419"><ele>240.0</ele><time>2026-04-03T16:38:35.995Z</time></trkpt><trkpt lat="43.6664799" lon="11.2930735"><ele>241.0</ele><time>2026-04-03T16:38:36.992Z</time></trkpt><trkpt lat="43.6666638" lon="11.2930065"><ele>242.0</ele><time>2026-04-03T16:38:37.986Z</time></trkpt><trkpt lat="43.666832" lon="11.2929417"><ele>241.33333333333334</ele><time>2026-04-03T16:38:38.992Z</time></trkpt><trkpt lat="43.6669862" lon="11.2928818"><ele>240.66666666666669</ele><time>2026-04-03T16:38:39.992Z</time></trkpt><trkpt lat="43.6671301" lon="11.29282"><ele>240.0</ele><time>2026-04-03T16:38:40.988Z</time></trkpt><trkpt lat="43.6672748" lon="11.2927566"><ele>240.0</ele><time>2026-04-03T16:38:41.988Z</time></trkpt><trkpt lat="43.6674164" lon="11.2926929"><ele>240.0</ele><time>2026-04-03T16:38:42.983Z</time></trkpt><trkpt lat="43.6675465" lon="11.2926376"><ele>240.0</ele><time>2026-04-03T16:38:43.981Z</time></trkpt><trkpt lat="43.6676716" lon="11.292596"><ele>240.0</ele><time>2026-04-03T16:38:44.988Z</time></trkpt><trkpt lat="43.6677906" lon="11.2925491"><ele>239.25</ele><time>2026-04-03T16:38:45.985Z</time></trkpt><trkpt lat="43.6679047" lon="11.2925183"><ele>238.5</ele><time>2026-04-03T16:38:46.992Z</time></trkpt><trkpt lat="43.6680133" lon="11.2924884"><ele>237.75</ele><time>2026-04-03T16:38:47.995Z</time></trkpt><trkpt lat="43.6681304" lon="11.2924614"><ele>237.0</ele><time>2026-04-03T16:38:48.983Z</time></trkpt><trkpt lat="43.6682621" lon="11.2924295"><ele>237.0</ele><time>2026-04-03T16:38:49.981Z</time></trkpt><trkpt lat="43.6684038" lon="11.2923978"><ele>237.0</ele><time>2026-04-03T16:38:50.989Z</time></trkpt><trkpt lat="43.6685544" lon="11.2923703"><ele>237.0</ele><time>2026-04-03T16:38:51.992Z</time></trkpt><trkpt lat="43.6687085" lon="11.2923428"><ele>238.33333333333331</ele><time>2026-04-03T16:38:52.982Z</time></trkpt><trkpt lat="43.6688661" lon="11.2923212"><ele>239.66666666666666</ele><time>2026-04-03T16:38:53.994Z</time></trkpt><trkpt lat="43.6690266" lon="11.292294"><ele>241.0</ele><time>2026-04-03T16:38:54.994Z</time></trkpt><trkpt lat="43.6691912" lon="11.2922656"><ele>241.66666666666666</ele><time>2026-04-03T16:38:55.989Z</time></trkpt><trkpt lat="43.6693608" lon="11.2922349"><ele>242.33333333333331</ele><time>2026-04-03T16:38:56.994Z</time></trkpt><trkpt lat="43.6695285" lon="11.2922008"><ele>243.0</ele><time>2026-04-03T16:38:57.992Z</time></trkpt><trkpt lat="43.669698" lon="11.29216"><ele>245.33333333333331</ele><time>2026-04-03T16:38:58.984Z</time></trkpt><trkpt lat="43.6698727" lon="11.2921259"><ele>247.66666666666666</ele><time>2026-04-03T16:38:59.991Z</time></trkpt><trkpt lat="43.67006" lon="11.2920933"><ele>250.0</ele><time>2026-04-03T16:39:00.985Z</time></trkpt><trkpt lat="43.6702565" lon="11.2920622"><ele>250.0</ele><time>2026-04-03T16:39:02.002Z</time></trkpt><trkpt lat="43.670457" lon="11.2920313"><ele>250.0</ele><time>2026-04-03T16:39:02.985Z</time></trkpt><trkpt lat="43.6706509" lon="11.2920085"><ele>250.0</ele><time>2026-04-03T16:39:03.986Z</time></trkpt><trkpt lat="43.6708402" lon="11.2920003"><ele>250.0</ele><time>2026-04-03T16:39:04.987Z</time></trkpt><trkpt lat="43.6710259" lon="11.2920192"><ele>250.0</ele><time>2026-04-03T16:39:05.999Z</time></trkpt><trkpt lat="43.6712144" lon="11.2920545"><ele>250.0</ele><time>2026-04-03T16:39:06.984Z</time></trkpt><trkpt lat="43.6713858" lon="11.2920953"><ele>249.6</ele><time>2026-04-03T16:39:07.99Z</time></trkpt><trkpt lat="43.6715267" lon="11.2921291"><ele>249.2</ele><time>2026-04-03T16:39:08.976Z</time></trkpt><trkpt lat="43.6716431" lon="11.2921578"><ele>248.8</ele><time>2026-04-03T16:39:09.992Z</time></trkpt><trkpt lat="43.6717394" lon="11.2921761"><ele>248.4</ele><time>2026-04-03T16:39:10.987Z</time></trkpt><trkpt lat="43.6718129" lon="11.2921942"><ele>248.0</ele><time>2026-04-03T16:39:11.994Z</time></trkpt><trkpt lat="43.6718932" lon="11.2922523"><ele>248.16666666666669</ele><time>2026-04-03T16:39:13.994Z</time></trkpt><trkpt lat="43.6719254" lon="11.2923888"><ele>248.33333333333334</ele><time>2026-04-03T16:39:15.981Z</time></trkpt><trkpt lat="43.6719412" lon="11.2924731"><ele>248.5</ele><time>2026-04-03T16:39:16.996Z</time></trkpt><trkpt lat="43.6719603" lon="11.292557"><ele>248.66666666666669</ele><time>2026-04-03T16:39:17.991Z</time></trkpt><trkpt lat="43.6719912" lon="11.2926727"><ele>248.83333333333334</ele><time>2026-04-03T16:39:19.99Z</time></trkpt><trkpt lat="43.672014" lon="11.2927646"><ele>249.0</ele><time>2026-04-03T16:39:21.988Z</time></trkpt><trkpt lat="43.6720406" lon="11.2928774"><ele>250.33333333333334</ele><time>2026-04-03T16:39:23.991Z</time></trkpt><trkpt lat="43.6720636" lon="11.2929637"><ele>251.66666666666669</ele><time>2026-04-03T16:39:24.978Z</time></trkpt><trkpt lat="43.6720884" lon="11.293061"><ele>253.0</ele><time>2026-04-03T16:39:25.992Z</time></trkpt><trkpt lat="43.6721223" lon="11.2931665"><ele>254.33333333333334</ele><time>2026-04-03T16:39:26.98Z</time></trkpt><trkpt lat="43.672163" lon="11.2932764"><ele>255.66666666666669</ele><time>2026-04-03T16:39:27.99Z</time></trkpt><trkpt lat="43.6722083" lon="11.2933816"><ele>257.0</ele><time>2026-04-03T16:39:28.983Z</time></trkpt><trkpt lat="43.6722516" lon="11.293471"><ele>257.1666666666667</ele><time>2026-04-03T16:39:29.99Z</time></trkpt><trkpt lat="43.6723109" lon="11.2935786"><ele>257.33333333333337</ele><time>2026-04-03T16:39:31.987Z</time></trkpt><trkpt lat="43.6723829" lon="11.2936775"><ele>257.5</ele><time>2026-04-03T16:39:33.987Z</time></trkpt><trkpt lat="43.6724258" lon="11.2937509"><ele>257.6666666666667</ele><time>2026-04-03T16:39:34.984Z</time></trkpt><trkpt lat="43.6724722" lon="11.2938289"><ele>257.8333333333333</ele><time>2026-04-03T16:39:35.991Z</time></trkpt><trkpt lat="43.6725246" lon="11.2939067"><ele>258.0</ele><time>2026-04-03T16:39:36.988Z</time></trkpt><trkpt lat="43.6725765" lon="11.2939909"><ele>258.6</ele><time>2026-04-03T16:39:37.98Z</time></trkpt><trkpt lat="43.6726319" lon="11.2940866"><ele>259.20000000000005</ele><time>2026-04-03T16:39:38.978Z</time></trkpt><trkpt lat="43.6726969" lon="11.2941808"><ele>259.8</ele><time>2026-04-03T16:39:39.993Z</time></trkpt><trkpt lat="43.6727584" lon="11.2942869"><ele>260.40000000000003</ele><time>2026-04-03T16:39:40.995Z</time></trkpt><trkpt lat="43.6728222" lon="11.294392"><ele>261.0</ele><time>2026-04-03T16:39:41.99Z</time></trkpt><trkpt lat="43.6728828" lon="11.294486"><ele>261.0</ele><time>2026-04-03T16:39:42.983Z</time></trkpt><trkpt lat="43.6729323" lon="11.2945724"><ele>261.0</ele><time>2026-04-03T16:39:43.992Z</time></trkpt><trkpt lat="43.6729717" lon="11.2946652"><ele>261.0</ele><time>2026-04-03T16:39:44.991Z</time></trkpt><trkpt lat="43.6729998" lon="11.2947556"><ele>261.0</ele><time>2026-04-03T16:39:45.991Z</time></trkpt><trkpt lat="43.6730269" lon="11.2948521"><ele>261.0</ele><time>2026-04-03T16:39:46.992Z</time></trkpt><trkpt lat="43.6730514" lon="11.2949383"><ele>261.0</ele><time>2026-04-03T16:39:47.993Z</time></trkpt><trkpt lat="43.6730772" lon="11.295023"><ele>261.0</ele><time>2026-04-03T16:39:48.988Z</time></trkpt><trkpt lat="43.673107" lon="11.2951183"><ele>259.40000000000003</ele><time>2026-04-03T16:39:49.989Z</time></trkpt><trkpt lat="43.6731435" lon="11.2952147"><ele>257.8</ele><time>2026-04-03T16:39:50.993Z</time></trkpt><trkpt lat="43.6731824" lon="11.2953152"><ele>256.20000000000005</ele><time>2026-04-03T16:39:51.994Z</time></trkpt><trkpt lat="43.6732245" lon="11.295422"><ele>254.60000000000002</ele><time>2026-04-03T16:39:52.99Z</time></trkpt><trkpt lat="43.6732675" lon="11.2955417"><ele>253.0</ele><time>2026-04-03T16:39:53.994Z</time></trkpt><trkpt lat="43.6733153" lon="11.295669"><ele>251.2</ele><time>2026-04-03T16:39:54.993Z</time></trkpt><trkpt lat="43.6733583" lon="11.2957928"><ele>249.4</ele><time>2026-04-03T16:39:55.989Z</time></trkpt><trkpt lat="43.6733914" lon="11.2959224"><ele>247.59999999999997</ele><time>2026-04-03T16:39:56.987Z</time></trkpt><trkpt lat="43.673426" lon="11.2960512"><ele>245.79999999999998</ele><time>2026-04-03T16:39:58.002Z</time></trkpt><trkpt lat="43.6734698" lon="11.2961819"><ele>244.0</ele><time>2026-04-03T16:39:58.998Z</time></trkpt><trkpt lat="43.673531" lon="11.2963145"><ele>243.39999999999998</ele><time>2026-04-03T16:39:59.986Z</time></trkpt><trkpt lat="43.6736034" lon="11.2964453"><ele>242.79999999999998</ele><time>2026-04-03T16:40:00.997Z</time></trkpt><trkpt lat="43.6736707" lon="11.2965782"><ele>242.20000000000002</ele><time>2026-04-03T16:40:01.998Z</time></trkpt><trkpt lat="43.6737423" lon="11.2966926"><ele>241.60000000000002</ele><time>2026-04-03T16:40:02.986Z</time></trkpt><trkpt lat="43.673816" lon="11.2967841"><ele>241.0</ele><time>2026-04-03T16:40:04.007Z</time></trkpt><trkpt lat="43.6738869" lon="11.2968591"><ele>241.0</ele><time>2026-04-03T16:40:04.987Z</time></trkpt><trkpt lat="43.6739515" lon="11.2969149"><ele>241.00000000000003</ele><time>2026-04-03T16:40:06.002Z</time></trkpt><trkpt lat="43.6740058" lon="11.296971"><ele>241.00000000000003</ele><time>2026-04-03T16:40:07.002Z</time></trkpt><trkpt lat="43.674071" lon="11.2970929"><ele>241.0</ele><time>2026-04-03T16:40:09.002Z</time></trkpt><trkpt lat="43.6740462" lon="11.2972383"><ele>241.0</ele><time>2026-04-03T16:40:10.996Z</time></trkpt><trkpt lat="43.6740224" lon="11.2974102"><ele>239.4</ele><time>2026-04-03T16:40:12.994Z</time></trkpt><trkpt lat="43.6740348" lon="11.2975192"><ele>237.8</ele><time>2026-04-03T16:40:13.995Z</time></trkpt><trkpt lat="43.6740535" lon="11.2976531"><ele>236.20000000000002</ele><time>2026-04-03T16:40:14.99Z</time></trkpt><trkpt lat="43.6740762" lon="11.2978022"><ele>234.60000000000002</ele><time>2026-04-03T16:40:15.994Z</time></trkpt><trkpt lat="43.674097" lon="11.2979579"><ele>233.0</ele><time>2026-04-03T16:40:16.987Z</time></trkpt><trkpt lat="43.6741213" lon="11.2981151"><ele>231.60000000000002</ele><time>2026-04-03T16:40:17.999Z</time></trkpt><trkpt lat="43.674148" lon="11.2982689"><ele>230.20000000000002</ele><time>2026-04-03T16:40:18.987Z</time></trkpt><trkpt lat="43.6741743" lon="11.2984128"><ele>228.8</ele><time>2026-04-03T16:40:19.987Z</time></trkpt><trkpt lat="43.6741975" lon="11.2985559"><ele>227.4</ele><time>2026-04-03T16:40:20.985Z</time></trkpt><trkpt lat="43.6742197" lon="11.2986935"><ele>226.0</ele><time>2026-04-03T16:40:22.001Z</time></trkpt><trkpt lat="43.6742458" lon="11.2988115"><ele>224.99999999999997</ele><time>2026-04-03T16:40:22.994Z</time></trkpt><trkpt lat="43.6742718" lon="11.2989347"><ele>224.0</ele><time>2026-04-03T16:40:23.999Z</time></trkpt><trkpt lat="43.6742992" lon="11.2990459"><ele>223.0</ele><time>2026-04-03T16:40:24.993Z</time></trkpt><trkpt lat="43.674325" lon="11.2991465"><ele>222.0</ele><time>2026-04-03T16:40:26.006Z</time></trkpt><trkpt lat="43.6743498" lon="11.2992376"><ele>220.99999999999997</ele><time>2026-04-03T16:40:26.99Z</time></trkpt><trkpt lat="43.6743623" lon="11.299337"><ele>220.0</ele><time>2026-04-03T16:40:28.005Z</time></trkpt><trkpt lat="43.6743667" lon="11.2994514"><ele>219.99999999999997</ele><time>2026-04-03T16:40:28.983Z</time></trkpt><trkpt lat="43.6743647" lon="11.2995724"><ele>220.0</ele><time>2026-04-03T16:40:29.996Z</time></trkpt><trkpt lat="43.6743588" lon="11.2996927"><ele>220.0</ele><time>2026-04-03T16:40:31.001Z</time></trkpt><trkpt lat="43.6743398" lon="11.2998047"><ele>220.0</ele><time>2026-04-03T16:40:31.994Z</time></trkpt><trkpt lat="43.6743127" lon="11.2999064"><ele>219.99999999999997</ele><time>2026-04-03T16:40:32.991Z</time></trkpt><trkpt lat="43.6742797" lon="11.3000029"><ele>220.0</ele><time>2026-04-03T16:40:33.993Z</time></trkpt><trkpt lat="43.6742359" lon="11.3000976"><ele>218.83333333333331</ele><time>2026-04-03T16:40:34.999Z</time></trkpt><trkpt lat="43.6741774" lon="11.3001913"><ele>217.66666666666666</ele><time>2026-04-03T16:40:36.001Z</time></trkpt><trkpt lat="43.6741244" lon="11.3002938"><ele>216.5</ele><time>2026-04-03T16:40:36.992Z</time></trkpt><trkpt lat="43.6740876" lon="11.3003954"><ele>215.33333333333331</ele><time>2026-04-03T16:40:37.987Z</time></trkpt><trkpt lat="43.6740583" lon="11.3004918"><ele>214.16666666666666</ele><time>2026-04-03T16:40:38.983Z</time></trkpt><trkpt lat="43.6740534" lon="11.3005797"><ele>213.0</ele><time>2026-04-03T16:40:39.987Z</time></trkpt><trkpt lat="43.6741114" lon="11.3006983"><ele>211.5</ele><time>2026-04-03T16:40:41.992Z</time></trkpt><trkpt lat="43.6742251" lon="11.3007389"><ele>210.0</ele><time>2026-04-03T16:40:43.989Z</time></trkpt><trkpt lat="43.6742946" lon="11.3007494"><ele>208.5</ele><time>2026-04-03T16:40:44.995Z</time></trkpt><trkpt lat="43.6744071" lon="11.3008239"><ele>207.0</ele><time>2026-04-03T16:40:46.987Z</time></trkpt><trkpt lat="43.6744558" lon="11.3008861"><ele>205.5</ele><time>2026-04-03T16:40:47.991Z</time></trkpt><trkpt lat="43.6744961" lon="11.3009596"><ele>204.0</ele><time>2026-04-03T16:40:48.984Z</time></trkpt><trkpt lat="43.674529" lon="11.3010345"><ele>203.71428571428572</ele><time>2026-04-03T16:40:49.99Z</time></trkpt><trkpt lat="43.6745567" lon="11.3011162"><ele>203.42857142857144</ele><time>2026-04-03T16:40:50.991Z</time></trkpt><trkpt lat="43.6745778" lon="11.301204"><ele>203.14285714285714</ele><time>2026-04-03T16:40:51.991Z</time></trkpt><trkpt lat="43.674587" lon="11.3012974"><ele>202.85714285714286</ele><time>2026-04-03T16:40:52.991Z</time></trkpt><trkpt lat="43.6745916" lon="11.3013927"><ele>202.57142857142856</ele><time>2026-04-03T16:40:53.99Z</time></trkpt><trkpt lat="43.674588" lon="11.3014857"><ele>202.28571428571428</ele><time>2026-04-03T16:40:55Z</time></trkpt><trkpt lat="43.6745813" lon="11.3015793"><ele>202.0</ele><time>2026-04-03T16:40:55.992Z</time></trkpt><trkpt lat="43.6745702" lon="11.3016735"><ele>201.0</ele><time>2026-04-03T16:40:56.982Z</time></trkpt><trkpt lat="43.6745576" lon="11.301765"><ele>200.0</ele><time>2026-04-03T16:40:57.996Z</time></trkpt><trkpt lat="43.6745481" lon="11.3018605"><ele>199.0</ele><time>2026-04-03T16:40:58.997Z</time></trkpt><trkpt lat="43.6745359" lon="11.301952"><ele>198.0</ele><time>2026-04-03T16:40:59.994Z</time></trkpt><trkpt lat="43.6745277" lon="11.3020541"><ele>197.0</ele><time>2026-04-03T16:41:00.984Z</time></trkpt><trkpt lat="43.6745272" lon="11.302161"><ele>196.0</ele><time>2026-04-03T16:41:02.011Z</time></trkpt><trkpt lat="43.6745468" lon="11.3022714"><ele>195.0</ele><time>2026-04-03T16:41:02.999Z</time></trkpt><trkpt lat="43.6745813" lon="11.3023681"><ele>193.2</ele><time>2026-04-03T16:41:03.993Z</time></trkpt><trkpt lat="43.6746357" lon="11.3024575"><ele>191.4</ele><time>2026-04-03T16:41:04.991Z</time></trkpt><trkpt lat="43.6747016" lon="11.3025456"><ele>189.60000000000002</ele><time>2026-04-03T16:41:05.978Z</time></trkpt><trkpt lat="43.6747738" lon="11.3026441"><ele>187.8</ele><time>2026-04-03T16:41:06.988Z</time></trkpt><trkpt lat="43.674853" lon="11.3027429"><ele>186.0</ele><time>2026-04-03T16:41:07.988Z</time></trkpt><trkpt lat="43.6749306" lon="11.3028418"><ele>186.0</ele><time>2026-04-03T16:41:08.986Z</time></trkpt><trkpt lat="43.6750018" lon="11.3029354"><ele>186.0</ele><time>2026-04-03T16:41:09.991Z</time></trkpt><trkpt lat="43.675069" lon="11.3030193"><ele>186.0</ele><time>2026-04-03T16:41:10.975Z</time></trkpt><trkpt lat="43.675136" lon="11.3030927"><ele>186.0</ele><time>2026-04-03T16:41:11.992Z</time></trkpt><trkpt lat="43.6752074" lon="11.3031392"><ele>186.0</ele><time>2026-04-03T16:41:12.985Z</time></trkpt><trkpt lat="43.6752841" lon="11.3032521"><ele>182.16666666666666</ele><time>2026-04-03T16:41:14.975Z</time></trkpt><trkpt lat="43.6752993" lon="11.3033512"><ele>178.33333333333334</ele><time>2026-04-03T16:41:15.996Z</time></trkpt><trkpt lat="43.6753117" lon="11.3034837"><ele>174.5</ele><time>2026-04-03T16:41:16.981Z</time></trkpt><trkpt lat="43.675332" lon="11.3036096"><ele>170.66666666666669</ele><time>2026-04-03T16:41:17.994Z</time></trkpt><trkpt lat="43.6753616" lon="11.3037266"><ele>166.83333333333334</ele><time>2026-04-03T16:41:18.989Z</time></trkpt><trkpt lat="43.6753951" lon="11.3038401"><ele>163.0</ele><time>2026-04-03T16:41:19.994Z</time></trkpt><trkpt lat="43.6754248" lon="11.3039457"><ele>161.33333333333334</ele><time>2026-04-03T16:41:20.989Z</time></trkpt><trkpt lat="43.6754573" lon="11.3040499"><ele>159.66666666666669</ele><time>2026-04-03T16:41:21.988Z</time></trkpt><trkpt lat="43.6754865" lon="11.3041447"><ele>158.0</ele><time>2026-04-03T16:41:23.001Z</time></trkpt><trkpt lat="43.6755207" lon="11.3042858"><ele>156.33333333333334</ele><time>2026-04-03T16:41:24.994Z</time></trkpt><trkpt lat="43.6754795" lon="11.3043839"><ele>154.66666666666666</ele><time>2026-04-03T16:41:26.987Z</time></trkpt><trkpt lat="43.6754024" lon="11.3043823"><ele>153.0</ele><time>2026-04-03T16:41:28.989Z</time></trkpt><trkpt lat="43.6754467" lon="11.3044675"><ele>153.0</ele><time>2026-04-03T16:41:30.994Z</time></trkpt><trkpt lat="43.6755617" lon="11.3045379"><ele>153.0</ele><time>2026-04-03T16:41:32.985Z</time></trkpt><trkpt lat="43.6756727" lon="11.3045683"><ele>153.0</ele><time>2026-04-03T16:41:34.984Z</time></trkpt><trkpt lat="43.6757435" lon="11.3045506"><ele>153.0</ele><time>2026-04-03T16:41:36.993Z</time></trkpt><trkpt lat="43.675808" lon="11.3045305"><ele>153.0</ele><time>2026-04-03T16:41:38.977Z</time></trkpt><trkpt lat="43.6759062" lon="11.3044914"><ele>153.0</ele><time>2026-04-03T16:41:40.989Z</time></trkpt><trkpt lat="43.6760338" lon="11.3044985"><ele>153.0</ele><time>2026-04-03T16:41:42.996Z</time></trkpt><trkpt lat="43.6761028" lon="11.3045389"><ele>153.0</ele><time>2026-04-03T16:41:43.992Z</time></trkpt><trkpt lat="43.6761691" lon="11.3046089"><ele>153.0</ele><time>2026-04-03T16:41:44.988Z</time></trkpt><trkpt lat="43.6762375" lon="11.3047044"><ele>153.0</ele><time>2026-04-03T16:41:45.996Z</time></trkpt><trkpt lat="43.6763021" lon="11.3048015"><ele>149.83333333333334</ele><time>2026-04-03T16:41:46.988Z</time></trkpt><trkpt lat="43.6763622" lon="11.3048984"><ele>146.66666666666666</ele><time>2026-04-03T16:41:48Z</time></trkpt><trkpt lat="43.6764097" lon="11.3049922"><ele>143.5</ele><time>2026-04-03T16:41:48.981Z</time></trkpt><trkpt lat="43.6764425" lon="11.3050991"><ele>140.33333333333331</ele><time>2026-04-03T16:41:49.994Z</time></trkpt><trkpt lat="43.6764707" lon="11.3052136"><ele>137.16666666666666</ele><time>2026-04-03T16:41:50.997Z</time></trkpt><trkpt lat="43.6765013" lon="11.3053277"><ele>134.0</ele><time>2026-04-03T16:41:51.989Z</time></trkpt><trkpt lat="43.676542" lon="11.3054361"><ele>134.0</ele><time>2026-04-03T16:41:52.99Z</time></trkpt><trkpt lat="43.6765954" lon="11.3055294"><ele>134.0</ele><time>2026-04-03T16:41:53.986Z</time></trkpt><trkpt lat="43.6766523" lon="11.3056159"><ele>134.0</ele><time>2026-04-03T16:41:54.986Z</time></trkpt><trkpt lat="43.6767044" lon="11.3056958"><ele>134.0</ele><time>2026-04-03T16:41:56.016Z</time></trkpt><trkpt lat="43.6767331" lon="11.3057804"><ele>134.0</ele><time>2026-04-03T16:41:56.994Z</time></trkpt><trkpt lat="43.6767379" lon="11.3059215"><ele>134.0</ele><time>2026-04-03T16:41:58.981Z</time></trkpt><trkpt lat="43.6767016" lon="11.3060087"><ele>133.33333333333331</ele><time>2026-04-03T16:42:00.994Z</time></trkpt><trkpt lat="43.6767049" lon="11.3060969"><ele>132.66666666666666</ele><time>2026-04-03T16:42:02.995Z</time></trkpt><trkpt lat="43.6767436" lon="11.3061881"><ele>132.0</ele><time>2026-04-03T16:42:04.99Z</time></trkpt><trkpt lat="43.6767888" lon="11.3062931"><ele>131.33333333333334</ele><time>2026-04-03T16:42:06.985Z</time></trkpt><trkpt lat="43.6768173" lon="11.3064079"><ele>130.66666666666669</ele><time>2026-04-03T16:42:08.978Z</time></trkpt><trkpt lat="43.6767843" lon="11.3064861"><ele>130.0</ele><time>2026-04-03T16:42:10.984Z</time></trkpt><trkpt lat="43.6767022" lon="11.3065383"><ele>130.0</ele><time>2026-04-03T16:42:12.988Z</time></trkpt><trkpt lat="43.6766015" lon="11.3065993"><ele>130.0</ele><time>2026-04-03T16:42:14.982Z</time></trkpt><trkpt lat="43.6764853" lon="11.306649"><ele>130.0</ele><time>2026-04-03T16:42:16.982Z</time></trkpt><trkpt lat="43.6763863" lon="11.3066749"><ele>130.0</ele><time>2026-04-03T16:42:18.995Z</time></trkpt><trkpt lat="43.676254" lon="11.3067129"><ele>130.0</ele><time>2026-04-03T16:42:20.985Z</time></trkpt><trkpt lat="43.6761768" lon="11.3067359"><ele>130.0</ele><time>2026-04-03T16:42:21.98Z</time></trkpt><trkpt lat="43.6760955" lon="11.3067421"><ele>130.0</ele><time>2026-04-03T16:42:22.986Z</time></trkpt><trkpt lat="43.6760091" lon="11.3067422"><ele>130.0</ele><time>2026-04-03T16:42:23.984Z</time></trkpt><trkpt lat="43.6759212" lon="11.3067403"><ele>130.0</ele><time>2026-04-03T16:42:24.989Z</time></trkpt><trkpt lat="43.6758451" lon="11.3067467"><ele>130.0</ele><time>2026-04-03T16:42:25.995Z</time></trkpt><trkpt lat="43.6757536" lon="11.3068313"><ele>130.6</ele><time>2026-04-03T16:42:27.983Z</time></trkpt><trkpt lat="43.675728" lon="11.3070026"><ele>131.2</ele><time>2026-04-03T16:42:29.995Z</time></trkpt><trkpt lat="43.6757111" lon="11.3071089"><ele>131.8</ele><time>2026-04-03T16:42:30.979Z</time></trkpt><trkpt lat="43.6756703" lon="11.3072144"><ele>132.4</ele><time>2026-04-03T16:42:31.995Z</time></trkpt><trkpt lat="43.6756061" lon="11.3073168"><ele>133.0</ele><time>2026-04-03T16:42:32.986Z</time></trkpt><trkpt lat="43.6755453" lon="11.3074243"><ele>135.0</ele><time>2026-04-03T16:42:33.991Z</time></trkpt><trkpt lat="43.6754812" lon="11.3075348"><ele>137.0</ele><time>2026-04-03T16:42:34.982Z</time></trkpt><trkpt lat="43.6754335" lon="11.3076526"><ele>139.0</ele><time>2026-04-03T16:42:35.991Z</time></trkpt><trkpt lat="43.6754106" lon="11.3077632"><ele>141.0</ele><time>2026-04-03T16:42:36.995Z</time></trkpt><trkpt lat="43.6754235" lon="11.3078723"><ele>143.0</ele><time>2026-04-03T16:42:37.992Z</time></trkpt><trkpt lat="43.6754471" lon="11.30799"><ele>144.6</ele><time>2026-04-03T16:42:38.986Z</time></trkpt><trkpt lat="43.6754667" lon="11.3081212"><ele>146.20000000000002</ele><time>2026-04-03T16:42:39.988Z</time></trkpt><trkpt lat="43.6754697" lon="11.3082661"><ele>147.8</ele><time>2026-04-03T16:42:40.981Z</time></trkpt><trkpt lat="43.6754612" lon="11.308416"><ele>149.4</ele><time>2026-04-03T16:42:41.996Z</time></trkpt><trkpt lat="43.6754504" lon="11.308569"><ele>151.0</ele><time>2026-04-03T16:42:42.991Z</time></trkpt><trkpt lat="43.6754518" lon="11.3087249"><ele>151.0</ele><time>2026-04-03T16:42:43.992Z</time></trkpt><trkpt lat="43.6754749" lon="11.3088709"><ele>151.0</ele><time>2026-04-03T16:42:44.994Z</time></trkpt><trkpt lat="43.675522" lon="11.3090068"><ele>151.0</ele><time>2026-04-03T16:42:46Z</time></trkpt><trkpt lat="43.6755774" lon="11.3091405"><ele>151.0</ele><time>2026-04-03T16:42:46.986Z</time></trkpt><trkpt lat="43.675639" lon="11.309269"><ele>151.0</ele><time>2026-04-03T16:42:47.988Z</time></trkpt><trkpt lat="43.6757067" lon="11.3093978"><ele>152.5</ele><time>2026-04-03T16:42:48.995Z</time></trkpt><trkpt lat="43.6757844" lon="11.3095247"><ele>154.0</ele><time>2026-04-03T16:42:50.003Z</time></trkpt><trkpt lat="43.6758604" lon="11.3096501"><ele>155.5</ele><time>2026-04-03T16:42:50.987Z</time></trkpt><trkpt lat="43.675942" lon="11.3097687"><ele>157.0</ele><time>2026-04-03T16:42:51.993Z</time></trkpt><trkpt lat="43.6760283" lon="11.3098843"><ele>160.2</ele><time>2026-04-03T16:42:53.003Z</time></trkpt><trkpt lat="43.6761142" lon="11.30999"><ele>163.39999999999998</ele><time>2026-04-03T16:42:54.004Z</time></trkpt><trkpt lat="43.6762017" lon="11.310082"><ele>166.60000000000002</ele><time>2026-04-03T16:42:54.989Z</time></trkpt><trkpt lat="43.6762798" lon="11.3101747"><ele>169.8</ele><time>2026-04-03T16:42:55.996Z</time></trkpt><trkpt lat="43.6763508" lon="11.3102662"><ele>173.0</ele><time>2026-04-03T16:42:56.988Z</time></trkpt><trkpt lat="43.6764037" lon="11.3103505"><ele>173.0</ele><time>2026-04-03T16:42:58.002Z</time></trkpt><trkpt lat="43.6765077" lon="11.3103713"><ele>173.0</ele><time>2026-04-03T16:43:00.005Z</time></trkpt><trkpt lat="43.6765956" lon="11.3102551"><ele>173.0</ele><time>2026-04-03T16:43:01.99Z</time></trkpt><trkpt lat="43.6766348" lon="11.3101767"><ele>173.0</ele><time>2026-04-03T16:43:02.991Z</time></trkpt><trkpt lat="43.6766821" lon="11.310105"><ele>173.0</ele><time>2026-04-03T16:43:03.996Z</time></trkpt><trkpt lat="43.6767505" lon="11.3100513"><ele>173.0</ele><time>2026-04-03T16:43:04.997Z</time></trkpt><trkpt lat="43.6768277" lon="11.3100324"><ele>173.0</ele><time>2026-04-03T16:43:05.988Z</time></trkpt><trkpt lat="43.6769105" lon="11.3100387"><ele>173.0</ele><time>2026-04-03T16:43:06.989Z</time></trkpt><trkpt lat="43.676988" lon="11.3100729"><ele>173.0</ele><time>2026-04-03T16:43:07.997Z</time></trkpt><trkpt lat="43.6770576" lon="11.3101293"><ele>173.0</ele><time>2026-04-03T16:43:08.985Z</time></trkpt><trkpt lat="43.6771209" lon="11.3101984"><ele>173.0</ele><time>2026-04-03T16:43:09.991Z</time></trkpt><trkpt lat="43.6771845" lon="11.3102728"><ele>173.0</ele><time>2026-04-03T16:43:10.99Z</time></trkpt><trkpt lat="43.6772596" lon="11.3103422"><ele>173.66666666666666</ele><time>2026-04-03T16:43:12.004Z</time></trkpt><trkpt lat="43.6773444" lon="11.3103973"><ele>174.33333333333331</ele><time>2026-04-03T16:43:12.992Z</time></trkpt><trkpt lat="43.6774254" lon="11.3104553"><ele>175.0</ele><time>2026-04-03T16:43:14.007Z</time></trkpt><trkpt lat="43.6775073" lon="11.3105075"><ele>175.66666666666666</ele><time>2026-04-03T16:43:14.99Z</time></trkpt><trkpt lat="43.6775791" lon="11.3105594"><ele>176.33333333333334</ele><time>2026-04-03T16:43:15.982Z</time></trkpt><trkpt lat="43.6776275" lon="11.3106232"><ele>177.0</ele><time>2026-04-03T16:43:16.979Z</time></trkpt><trkpt lat="43.677648" lon="11.3107686"><ele>178.83333333333334</ele><time>2026-04-03T16:43:18.969Z</time></trkpt><trkpt lat="43.6776283" lon="11.3108547"><ele>180.66666666666666</ele><time>2026-04-03T16:43:19.992Z</time></trkpt><trkpt lat="43.6776014" lon="11.3109401"><ele>182.5</ele><time>2026-04-03T16:43:20.984Z</time></trkpt><trkpt lat="43.6775773" lon="11.3110356"><ele>184.33333333333331</ele><time>2026-04-03T16:43:21.994Z</time></trkpt><trkpt lat="43.6775708" lon="11.3111438"><ele>186.16666666666666</ele><time>2026-04-03T16:43:22.986Z</time></trkpt><trkpt lat="43.677582" lon="11.3112586"><ele>188.0</ele><time>2026-04-03T16:43:23.989Z</time></trkpt><trkpt lat="43.6776022" lon="11.3113728"><ele>188.83333333333331</ele><time>2026-04-03T16:43:24.989Z</time></trkpt><trkpt lat="43.6776209" lon="11.311487"><ele>189.66666666666666</ele><time>2026-04-03T16:43:25.992Z</time></trkpt><trkpt lat="43.6776332" lon="11.3115784"><ele>190.5</ele><time>2026-04-03T16:43:26.988Z</time></trkpt><trkpt lat="43.6776733" lon="11.3116984"><ele>191.33333333333331</ele><time>2026-04-03T16:43:28.985Z</time></trkpt><trkpt lat="43.6777361" lon="11.3117349"><ele>192.16666666666666</ele><time>2026-04-03T16:43:30.99Z</time></trkpt><trkpt lat="43.6778368" lon="11.311694"><ele>193.0</ele><time>2026-04-03T16:43:32.985Z</time></trkpt><trkpt lat="43.6779064" lon="11.3116657"><ele>193.60000000000002</ele><time>2026-04-03T16:43:33.987Z</time></trkpt><trkpt lat="43.6779836" lon="11.3116304"><ele>194.20000000000002</ele><time>2026-04-03T16:43:34.981Z</time></trkpt><trkpt lat="43.6780711" lon="11.3115877"><ele>194.8</ele><time>2026-04-03T16:43:35.996Z</time></trkpt><trkpt lat="43.6781712" lon="11.3115402"><ele>195.4</ele><time>2026-04-03T16:43:36.989Z</time></trkpt><trkpt lat="43.6782812" lon="11.3114759"><ele>196.0</ele><time>2026-04-03T16:43:38.011Z</time></trkpt><trkpt lat="43.6783989" lon="11.3114121"><ele>195.0</ele><time>2026-04-03T16:43:38.978Z</time></trkpt><trkpt lat="43.6785254" lon="11.3113438"><ele>194.0</ele><time>2026-04-03T16:43:39.993Z</time></trkpt><trkpt lat="43.6786593" lon="11.3112715"><ele>193.0</ele><time>2026-04-03T16:43:40.988Z</time></trkpt><trkpt lat="43.6787881" lon="11.3111967"><ele>192.0</ele><time>2026-04-03T16:43:41.989Z</time></trkpt><trkpt lat="43.6789145" lon="11.311127"><ele>192.0</ele><time>2026-04-03T16:43:42.992Z</time></trkpt><trkpt lat="43.6790372" lon="11.3110515"><ele>192.0</ele><time>2026-04-03T16:43:43.987Z</time></trkpt><trkpt lat="43.6791628" lon="11.3109726"><ele>192.0</ele><time>2026-04-03T16:43:44.98Z</time></trkpt><trkpt lat="43.6792812" lon="11.3109024"><ele>192.0</ele><time>2026-04-03T16:43:45.993Z</time></trkpt><trkpt lat="43.6794011" lon="11.3108335"><ele>192.2</ele><time>2026-04-03T16:43:46.985Z</time></trkpt><trkpt lat="43.6795075" lon="11.3107735"><ele>192.39999999999998</ele><time>2026-04-03T16:43:47.992Z</time></trkpt><trkpt lat="43.6796041" lon="11.3107155"><ele>192.60000000000002</ele><time>2026-04-03T16:43:48.985Z</time></trkpt><trkpt lat="43.679689" lon="11.3106585"><ele>192.8</ele><time>2026-04-03T16:43:49.985Z</time></trkpt><trkpt lat="43.6797694" lon="11.3106123"><ele>193.0</ele><time>2026-04-03T16:43:50.983Z</time></trkpt><trkpt lat="43.6798448" lon="11.3105805"><ele>193.0</ele><time>2026-04-03T16:43:51.986Z</time></trkpt><trkpt lat="43.6799269" lon="11.3105835"><ele>193.0</ele><time>2026-04-03T16:43:52.986Z</time></trkpt><trkpt lat="43.6800246" lon="11.3106201"><ele>193.0</ele><time>2026-04-03T16:43:53.982Z</time></trkpt><trkpt lat="43.6801355" lon="11.3106681"><ele>193.0</ele><time>2026-04-03T16:43:54.985Z</time></trkpt><trkpt lat="43.6802457" lon="11.3107136"><ele>193.0</ele><time>2026-04-03T16:43:55.985Z</time></trkpt><trkpt lat="43.6803522" lon="11.3107604"><ele>190.66666666666666</ele><time>2026-04-03T16:43:56.987Z</time></trkpt><trkpt lat="43.6804572" lon="11.3108012"><ele>188.33333333333331</ele><time>2026-04-03T16:43:57.98Z</time></trkpt><trkpt lat="43.6805442" lon="11.3108447"><ele>186.0</ele><time>2026-04-03T16:43:58.978Z</time></trkpt><trkpt lat="43.6806077" lon="11.3108762"><ele>183.66666666666666</ele><time>2026-04-03T16:43:59.98Z</time></trkpt><trkpt lat="43.6806889" lon="11.3109426"><ele>181.33333333333331</ele><time>2026-04-03T16:44:01.988Z</time></trkpt><trkpt lat="43.6807379" lon="11.3110004"><ele>179.0</ele><time>2026-04-03T16:44:03.993Z</time></trkpt><trkpt lat="43.680797" lon="11.3110559"><ele>179.0</ele><time>2026-04-03T16:44:05.989Z</time></trkpt><trkpt lat="43.6809078" lon="11.3110959"><ele>179.0</ele><time>2026-04-03T16:44:07.994Z</time></trkpt><trkpt lat="43.6809813" lon="11.3111301"><ele>179.0</ele><time>2026-04-03T16:44:08.992Z</time></trkpt><trkpt lat="43.6810632" lon="11.3111593"><ele>179.0</ele><time>2026-04-03T16:44:09.993Z</time></trkpt><trkpt lat="43.6811516" lon="11.3111807"><ele>179.0</ele><time>2026-04-03T16:44:10.985Z</time></trkpt><trkpt lat="43.6812463" lon="11.3111921"><ele>177.79999999999998</ele><time>2026-04-03T16:44:11.996Z</time></trkpt><trkpt lat="43.6813413" lon="11.3112036"><ele>176.6</ele><time>2026-04-03T16:44:12.992Z</time></trkpt><trkpt lat="43.6814423" lon="11.3111973"><ele>175.4</ele><time>2026-04-03T16:44:13.987Z</time></trkpt><trkpt lat="43.6815364" lon="11.3111851"><ele>174.2</ele><time>2026-04-03T16:44:14.984Z</time></trkpt><trkpt lat="43.6816337" lon="11.3111729"><ele>173.0</ele><time>2026-04-03T16:44:15.986Z</time></trkpt><trkpt lat="43.6817304" lon="11.3111591"><ele>173.0</ele><time>2026-04-03T16:44:16.991Z</time></trkpt><trkpt lat="43.6818195" lon="11.311146"><ele>173.0</ele><time>2026-04-03T16:44:17.998Z</time></trkpt><trkpt lat="43.6819075" lon="11.3111336"><ele>173.0</ele><time>2026-04-03T16:44:18.988Z</time></trkpt><trkpt lat="43.6819899" lon="11.311132"><ele>173.0</ele><time>2026-04-03T16:44:19.991Z</time></trkpt><trkpt lat="43.6820761" lon="11.3111319"><ele>173.0</ele><time>2026-04-03T16:44:21.016Z</time></trkpt><trkpt lat="43.6821663" lon="11.3111376"><ele>173.0</ele><time>2026-04-03T16:44:21.999Z</time></trkpt><trkpt lat="43.6822663" lon="11.3111482"><ele>172.60000000000002</ele><time>2026-04-03T16:44:22.996Z</time></trkpt><trkpt lat="43.6823704" lon="11.3111653"><ele>172.20000000000002</ele><time>2026-04-03T16:44:23.988Z</time></trkpt><trkpt lat="43.6824803" lon="11.3111757"><ele>171.8</ele><time>2026-04-03T16:44:24.986Z</time></trkpt><trkpt lat="43.6825932" lon="11.3111871"><ele>171.4</ele><time>2026-04-03T16:44:25.992Z</time></trkpt><trkpt lat="43.6826985" lon="11.3111956"><ele>171.0</ele><time>2026-04-03T16:44:26.982Z</time></trkpt><trkpt lat="43.6827957" lon="11.3111981"><ele>170.0</ele><time>2026-04-03T16:44:27.985Z</time></trkpt><trkpt lat="43.6828868" lon="11.3112021"><ele>169.0</ele><time>2026-04-03T16:44:28.987Z</time></trkpt><trkpt lat="43.6829796" lon="11.3112132"><ele>168.0</ele><time>2026-04-03T16:44:29.99Z</time></trkpt><trkpt lat="43.6830842" lon="11.3112236"><ele>167.0</ele><time>2026-04-03T16:44:30.986Z</time></trkpt><trkpt lat="43.6832043" lon="11.311232"><ele>166.0</ele><time>2026-04-03T16:44:31.992Z</time></trkpt><trkpt lat="43.6833395" lon="11.3112322"><ele>166.0</ele><time>2026-04-03T16:44:32.995Z</time></trkpt><trkpt lat="43.6834858" lon="11.3112315"><ele>166.0</ele><time>2026-04-03T16:44:33.994Z</time></trkpt><trkpt lat="43.68364" lon="11.3112298"><ele>166.0</ele><time>2026-04-03T16:44:34.992Z</time></trkpt><trkpt lat="43.6838018" lon="11.3112388"><ele>164.0</ele><time>2026-04-03T16:44:35.996Z</time></trkpt><trkpt lat="43.6839674" lon="11.3112519"><ele>162.0</ele><time>2026-04-03T16:44:37.001Z</time></trkpt><trkpt lat="43.6841317" lon="11.3112727"><ele>160.0</ele><time>2026-04-03T16:44:37.99Z</time></trkpt><trkpt lat="43.6842992" lon="11.3112938"><ele>158.33333333333334</ele><time>2026-04-03T16:44:39.003Z</time></trkpt><trkpt lat="43.6844613" lon="11.311313"><ele>156.66666666666666</ele><time>2026-04-03T16:44:39.993Z</time></trkpt><trkpt lat="43.6846248" lon="11.3113212"><ele>155.0</ele><time>2026-04-03T16:44:40.988Z</time></trkpt><trkpt lat="43.6847865" lon="11.3113263"><ele>155.0</ele><time>2026-04-03T16:44:41.993Z</time></trkpt><trkpt lat="43.6849467" lon="11.3113308"><ele>155.0</ele><time>2026-04-03T16:44:42.996Z</time></trkpt><trkpt lat="43.6851038" lon="11.3113311"><ele>155.0</ele><time>2026-04-03T16:44:43.994Z</time></trkpt><trkpt lat="43.6852596" lon="11.311329"><ele>154.33333333333331</ele><time>2026-04-03T16:44:44.999Z</time></trkpt><trkpt lat="43.6854154" lon="11.3113269"><ele>153.66666666666666</ele><time>2026-04-03T16:44:45.991Z</time></trkpt><trkpt lat="43.6855752" lon="11.3113285"><ele>153.0</ele><time>2026-04-03T16:44:46.989Z</time></trkpt><trkpt lat="43.6857348" lon="11.3113275"><ele>153.0</ele><time>2026-04-03T16:44:47.991Z</time></trkpt><trkpt lat="43.6858969" lon="11.3113238"><ele>153.0</ele><time>2026-04-03T16:44:49.005Z</time></trkpt><trkpt lat="43.6860626" lon="11.3113113"><ele>153.0</ele><time>2026-04-03T16:44:49.989Z</time></trkpt><trkpt lat="43.6862238" lon="11.3112731"><ele>152.66666666666666</ele><time>2026-04-03T16:44:50.99Z</time></trkpt><trkpt lat="43.6863913" lon="11.3112194"><ele>152.33333333333331</ele><time>2026-04-03T16:44:51.993Z</time></trkpt><trkpt lat="43.6865635" lon="11.3111593"><ele>152.0</ele><time>2026-04-03T16:44:52.983Z</time></trkpt><trkpt lat="43.6867344" lon="11.3110888"><ele>152.0</ele><time>2026-04-03T16:44:53.996Z</time></trkpt><trkpt lat="43.6869049" lon="11.3110222"><ele>152.0</ele><time>2026-04-03T16:44:54.989Z</time></trkpt><trkpt lat="43.6870794" lon="11.3109575"><ele>152.0</ele><time>2026-04-03T16:44:56.001Z</time></trkpt><trkpt lat="43.6872441" lon="11.3108908"><ele>152.33333333333331</ele><time>2026-04-03T16:44:56.99Z</time></trkpt><trkpt lat="43.6874021" lon="11.3108331"><ele>152.66666666666666</ele><time>2026-04-03T16:44:57.996Z</time></trkpt><trkpt lat="43.6875565" lon="11.3107753"><ele>153.0</ele><time>2026-04-03T16:44:58.986Z</time></trkpt><trkpt lat="43.6877124" lon="11.3107197"><ele>155.33333333333334</ele><time>2026-04-03T16:44:59.994Z</time></trkpt><trkpt lat="43.6878665" lon="11.3106717"><ele>157.66666666666669</ele><time>2026-04-03T16:45:00.986Z</time></trkpt><trkpt lat="43.6880196" lon="11.3106277"><ele>160.0</ele><time>2026-04-03T16:45:01.994Z</time></trkpt><trkpt lat="43.6881745" lon="11.3105997"><ele>160.0</ele><time>2026-04-03T16:45:02.992Z</time></trkpt><trkpt lat="43.6883215" lon="11.3105868"><ele>160.0</ele><time>2026-04-03T16:45:03.995Z</time></trkpt><trkpt lat="43.6884697" lon="11.3105719"><ele>160.0</ele><time>2026-04-03T16:45:04.988Z</time></trkpt><trkpt lat="43.688623" lon="11.3105618"><ele>160.0</ele><time>2026-04-03T16:45:05.995Z</time></trkpt><trkpt lat="43.6887812" lon="11.3105416"><ele>153.0</ele><time>2026-04-03T16:45:06.993Z</time></trkpt><trkpt lat="43.6889405" lon="11.3105174"><ele>146.0</ele><time>2026-04-03T16:45:07.982Z</time></trkpt><trkpt lat="43.6890952" lon="11.3104914"><ele>139.0</ele><time>2026-04-03T16:45:08.987Z</time></trkpt><trkpt lat="43.6892501" lon="11.3104694"><ele>139.0</ele><time>2026-04-03T16:45:09.996Z</time></trkpt><trkpt lat="43.6894015" lon="11.3104533"><ele>139.0</ele><time>2026-04-03T16:45:10.988Z</time></trkpt><trkpt lat="43.6895501" lon="11.3104321"><ele>139.0</ele><time>2026-04-03T16:45:11.988Z</time></trkpt><trkpt lat="43.6896886" lon="11.31041"><ele>139.0</ele><time>2026-04-03T16:45:12.995Z</time></trkpt><trkpt lat="43.6898173" lon="11.3103743"><ele>137.25</ele><time>2026-04-03T16:45:13.992Z</time></trkpt><trkpt lat="43.689934" lon="11.3103152"><ele>135.5</ele><time>2026-04-03T16:45:14.991Z</time></trkpt><trkpt lat="43.6900393" lon="11.310212"><ele>133.75</ele><time>2026-04-03T16:45:15.996Z</time></trkpt><trkpt lat="43.6901426" lon="11.310086"><ele>132.0</ele><time>2026-04-03T16:45:16.998Z</time></trkpt><trkpt lat="43.6902506" lon="11.3099516"><ele>130.5</ele><time>2026-04-03T16:45:17.989Z</time></trkpt><trkpt lat="43.6903562" lon="11.3098208"><ele>129.0</ele><time>2026-04-03T16:45:18.988Z</time></trkpt><trkpt lat="43.6904622" lon="11.3096942"><ele>127.5</ele><time>2026-04-03T16:45:19.983Z</time></trkpt><trkpt lat="43.6905713" lon="11.309572"><ele>126.0</ele><time>2026-04-03T16:45:20.987Z</time></trkpt><trkpt lat="43.6906763" lon="11.3094599"><ele>123.75</ele><time>2026-04-03T16:45:21.989Z</time></trkpt><trkpt lat="43.6907789" lon="11.3093656"><ele>121.5</ele><time>2026-04-03T16:45:22.989Z</time></trkpt><trkpt lat="43.6908837" lon="11.3092944"><ele>119.25</ele><time>2026-04-03T16:45:23.992Z</time></trkpt><trkpt lat="43.6909896" lon="11.3092419"><ele>117.0</ele><time>2026-04-03T16:45:24.981Z</time></trkpt><trkpt lat="43.6910908" lon="11.3091946"><ele>116.5</ele><time>2026-04-03T16:45:25.991Z</time></trkpt><trkpt lat="43.6911802" lon="11.3091587"><ele>116.0</ele><time>2026-04-03T16:45:26.986Z</time></trkpt><trkpt lat="43.6912612" lon="11.309119"><ele>115.5</ele><time>2026-04-03T16:45:27.995Z</time></trkpt><trkpt lat="43.6913402" lon="11.3090834"><ele>115.0</ele><time>2026-04-03T16:45:28.994Z</time></trkpt><trkpt lat="43.6914165" lon="11.3090441"><ele>114.5</ele><time>2026-04-03T16:45:29.982Z</time></trkpt><trkpt lat="43.6914878" lon="11.3090011"><ele>114.0</ele><time>2026-04-03T16:45:30.993Z</time></trkpt><trkpt lat="43.6915485" lon="11.3089558"><ele>114.0</ele><time>2026-04-03T16:45:31.981Z</time></trkpt><trkpt lat="43.6916304" lon="11.308885"><ele>113.0</ele><time>2026-04-03T16:45:33.999Z</time></trkpt></trkseg></trk></gpx>